﻿ProjectID	SampleID	SampleType	TaxonomyID	UniqCodeType	UniqCode	SampleName	ScientificName	CommonName	CollectionYear	CollectionMonth	CollectionDay	SamplingTimeStartEnd	SamplingTimeAMPM	SamplingDuration	WeatherStartEnd	CollectionRegion	CollectionCountry	CollectionArea	CollectionLatitudeFrom	CollectionLatitudeTo	CollectionLongitudeFrom	CollectionLongitudeTo	Sex	TissueOrgan	TissueLipid	TissueMoist	Weight	WeightUnit	Length	LengthUnit	LengthType	GrowthStage	Age	Disease	TemperatureStartEnd	WaterTemperatureStartEnd	pH	DO	EC	EC_temp	Salinity	SS	WaterDepthM	TransparencyM	WaterColor	SedimentTemperatureStartEnd	SedimentDepthM	SedimentAppearance	SedimentColor	SedimentSurfaceColor	SedimentOdor	SedimentImpurities	SedimentMoistureOnSiteAnalysis	IgnitionLossOnSiteAnalysis	SoilDepthM	FlowRate	MeanPM10	MeanTotalSuspendedParticles	HumidityStartEnd	WindDirectionStartEnd	WindSpeedMSStartEnd	AmountOfCollectedAirStartEnd	Remarks	RegisterDate	UpdateDate
PRA000015	SAA000492	ST015				BR-1	Water	"Water from creeks or rivers"	2011	1	10					Asia	Vietnam	"Dong Mai"	20.98666667		106.0536111															12	<2.0		370	25																							"Dry season; BR (Battery recycling site)"	2016/11/24	2019/7/17
PRA000015	SAA000493	ST015				BR-2	Water	"Water from creeks or rivers"	2011	1	11					Asia	Vietnam	"Dong Mai"	20.98611111		106.0538889															13	<2.0		370	25																							"Dry season; BR (Battery recycling site)"	2016/11/24	2019/7/17
PRA000015	SAA000494	ST015				BR-3	Water	"Pond water"	2011	1	11					Asia	Vietnam	"Dong Mai"	20.98694444		106.0544444															12	7.1		62	25																							"Dry season; BR (Battery recycling site)"	2016/11/24	2019/7/17
PRA000015	SAA000495	ST015				BR-4	Water	"Water from creeks or rivers"	2011	1	11					Asia	Vietnam	"Dong Mai"	20.98666667		106.0536111															12	7.4		67	25																							"Dry season; BR (Battery recycling site)"	2016/11/24	2019/7/17
PRA000015	SAA000496	ST015				BR-5	Water	"Water from creeks or rivers"	2011	1	11					Asia	Vietnam	"Dong Mai"	20.99666667		106.0569444															12	7.7		40	25																							"Dry season; BR (Battery recycling site)"	2016/11/24	2019/7/17
PRA000015	SAA000497	ST015				BR-6	Water	"Water from creeks or rivers"	2011	1	11					Asia	Vietnam	"Dong Mai"	20.99611111		106.0569444															12	8.5		35	25																							"Dry season; BR (Battery recycling site)"	2016/11/24	2019/7/17
PRA000015	SAA000498	ST015				BR-7	Water	"Water from creeks or rivers"	2011	1	11					Asia	Vietnam	"Dong Mai"	20.99694444		106.0569444															11	7.8		39	25																							"Dry season; BR (Battery recycling site)"	2016/11/24	2019/7/17
PRA000015	SAA000499	ST015				ER-1	Water	"Water from creeks or rivers"	2011	1	13					Asia	Vietnam	"Bui Dau"	20.93333333		106.0947222															16	7.1		87	25																							"Dry season; ER (E-waste recycling site)"	2016/11/24	2019/7/17
PRA000015	SAA000500	ST015				ER-2	Water	"Water from creeks or rivers"	2011	1	13					Asia	Vietnam	"Bui Dau"	20.93305556		106.0952778															17	7		98	25																							"Dry season; ER (E-waste recycling site)"	2016/11/24	2019/7/17
PRA000015	SAA000501	ST015				ER-3	Water	"Pond water"	2011	1	13					Asia	Vietnam	"Bui Dau"	20.93277778		106.095															16	7.4		63	25																							"Dry season; ER (E-waste recycling site)"	2016/11/24	2019/7/17
PRA000015	SAA000502	ST015				ER-4	Water	"Pond water"	2011	1	13					Asia	Vietnam	"Bui Dau"	20.93333333		106.0955556															16	7.4		49	25																							"Dry season; ER (E-waste recycling site)"	2016/11/24	2019/7/17
PRA000015	SAA000503	ST015				ER-5	Water	"Pond water"	2011	1	13					Asia	Vietnam	"Bui Dau"	20.93416667		106.0966667															16	7.6		63	25																							"Dry season; ER (E-waste recycling site)"	2016/11/24	2019/7/17
PRA000015	SAA000504	ST015				ER-6	Water	"Water from creeks or rivers"	2011	1	13					Asia	Vietnam	"Bui Dau"	20.93472222		106.0972222															16	7.4		97	25																							"Dry season; ER (E-waste recycling site)"	2016/11/24	2019/7/17
PRA000015	SAA000505	ST015				ER-7	Water	"Pond water"	2011	1	13					Asia	Vietnam	"Bui Dau"	20.935		106.0975															16	8.2		73	25																							"Dry season; ER (E-waste recycling site)"	2016/11/24	2019/7/17
PRA000015	SAA000506	ST015				ER-8	Water	"Water from creeks or rivers"	2011	1	13					Asia	Vietnam	"Bui Dau"	20.93472222		106.1002778															16	7.2		150	25																							"Dry season; ER (E-waste recycling site)"	2016/11/24	2019/7/17
PRA000015	SAA000507	ST015				ER-9	Water	"Water from creeks or rivers"	2011	1	13					Asia	Vietnam	"Bui Dau"	20.935		106.1002778															16	7		270	25																							"Dry season; ER (E-waste recycling site)"	2016/11/24	2019/7/17
PRA000015	SAA000508	ST015				ER-10	Water	"Water from creeks or rivers"	2011	1	13					Asia	Vietnam	"Bui Dau"	20.93583333		106.1008333															16	7.3		100	25																							"Dry season; ER (E-waste recycling site)"	2016/11/24	2019/7/17
PRA000015	SAA000509	ST015				RU-1	Water	"Pond water"	2011	1	14					Asia	Vietnam	"Duong Quang"	20.93722222		106.1194444															16	7.6		96	25																							"Dry season; RU (Rural control site)"	2016/11/24	2019/7/17
PRA000015	SAA000510	ST015				RU-2	Water	"Pond water"	2011	1	14					Asia	Vietnam	"Duong Quang"	20.93722222		106.1197222															16	7.5		51	25																							"Dry season; RU (Rural control site)"	2016/11/24	2019/7/17
PRA000015	SAA000511	ST015				RU-3	Water	"Pond water"	2011	1	14					Asia	Vietnam	"Duong Quang"	20.93805556		106.1208333															15	6.6		130	25																							"Dry season; RU (Rural control site)"	2016/11/24	2019/7/17
PRA000015	SAA000512	ST015				RU-4	Water	"Pond water"	2011	1	14					Asia	Vietnam	"Duong Quang"	20.93611111		106.1194444															15	7.4		81	25																							"Dry season; RU (Rural control site)"	2016/11/24	2019/7/17
PRA000015	SAA000513	ST015				RU-5	Water	"Water from creeks or rivers"	2011	1	14					Asia	Vietnam	"Duong Quang"	20.93583333		106.1172222															16	7.3		84	25																							"Dry season; RU (Rural control site)"	2016/11/24	2019/7/17
PRA000015	SAA000514	ST015				RU-6	Water	"Water from creeks or rivers"	2011	1	14					Asia	Vietnam	"Duong Quang"	20.93972222		106.1236111															15	7.5		49	25																							"Dry season; RU (Rural control site)"	2016/11/24	2019/7/17
PRA000015	SAA000515	ST015				MW-1	Water	"Water from wastewater canals"	2011	1	15					Asia	Vietnam	"Yen So pump station"	20.95833333		105.8588889															17	8.3		57	25																							"Dry season; MW (Municipal wastewater discharge station)"	2016/11/24	2019/7/17
PRA000015	SAA000516	ST015				MW-2	Water	"Water from wastewater canals"	2011	1	15					Asia	Vietnam	"Yen So pump station"	20.95916667		105.8661111															17	7.6		30	25																							"Dry season; MW (Municipal wastewater discharge station)"	2016/11/24	2019/7/17
PRA000015	SAA000517	ST015				MW-3	Water	"Water from wastewater canals"	2011	1	15					Asia	Vietnam	"Yen So pump station"	20.95861111		105.8680556															17	7.4		33	25																							"Dry season; MW (Municipal wastewater discharge station)"	2016/11/24	2019/7/17
PRA000015	SAA000518	ST015				MW-4	Water	"Water from wastewater canals"	2011	1	15					Asia	Vietnam	"Yen So pump station"	20.95833333		105.8686111															18	7.3		64	25																							"Dry season; MW (Municipal wastewater discharge station)"	2016/11/24	2019/7/17
PRA000015	SAA000519	ST015				MW-5	Water	"Water from wastewater canals"	2011	1	15					Asia	Vietnam	"Yen So pump station"	20.95888889		105.8619444															18	9.2		20	25																							"Dry season; MW (Municipal wastewater discharge station)"	2016/11/24	2019/7/17
PRA000015	SAA000520	ST015				MW-6	Water	"Water from wastewater canals"	2011	1	15					Asia	Vietnam	"Yen So pump station"	20.9575		105.8586111															17	7.6		66	25																							"Dry season; MW (Municipal wastewater discharge station)"	2016/11/24	2019/7/17
PRA000015	SAA000521	ST015				MW-7	Water	"Water from wastewater canals"	2011	1	15					Asia	Vietnam	"Yen So pump station"	20.95861111		105.8661111															17	7.5		33	25																							"Dry season; MW (Municipal wastewater discharge station)"	2016/11/24	2019/7/17
PRA000015	SAA000522	ST015				MW-8	Water	"Water from wastewater canals"	2011	1	15					Asia	Vietnam	"Yen So pump station"	20.9575		105.8691667															17	7.5		66	25																							"Dry season; MW (Municipal wastewater discharge station)"	2016/11/24	2019/7/17
PRA000015	SAA000523	ST015				MD-1	Water	"Leachate and River water"	2011	1	15					Asia	Vietnam	"Lam Son"	21.01777778		105.7533333															18	7.4		38	25																							"Dry season; MD (Municipal dumping site)"	2016/11/24	2019/7/17
PRA000015	SAA000524	ST015				MD-2	Water	"Leachate and River water"	2011	1	15					Asia	Vietnam	"Lam Son"	21.01777778		105.7536111															18	7.5		20	25																							"Dry season; MD (Municipal dumping site)"	2016/11/24	2019/7/17
PRA000015	SAA000525	ST015				MD-3	Water	"Leachate and River water"	2011	1	15					Asia	Vietnam	"Lam Son"	21.01777778		105.7536111															18	7.5		57	25																							"Dry season; MD (Municipal dumping site)"	2016/11/24	2019/7/17
PRA000015	SAA000526	ST015				MD-4	Water	"Leachate and River water"	2011	1	15					Asia	Vietnam	"Lam Son"	21.01555556		105.7555556															18	7.5		22	25																							"Dry season; MD (Municipal dumping site)"	2016/11/24	2019/7/17
PRA000015	SAA000527	ST015				MD-5	Water	"Leachate and River water"	2011	1	15					Asia	Vietnam	"Lam Son"	21.01305556		105.7463889															17	10.5		34	25																							"Dry season; MD (Municipal dumping site)"	2016/11/24	2019/7/17
PRA000015	SAA000528	ST015				MD-6	Water	"Leachate and River water"	2011	1	15					Asia	Vietnam	"Lam Son"	21.01416667		105.7505556															18	6.5		32	25																							"Dry season; MD (Municipal dumping site)"	2016/11/24	2019/7/17
PRA000015	SAA000529	ST015				MD-7	Water	"Leachate and River water"	2011	1	15					Asia	Vietnam	"Lam Son"	21.015		105.7530556															18	7.4		120	25																							"Dry season; MD (Municipal dumping site)"	2016/11/24	2019/7/17
PRA000015	SAA000530	ST015				MD-8	Water	"Leachate and River water"	2011	1	15					Asia	Vietnam	"Lam Son"	21.015		105.7538889															18	6.6		16	25																							"Dry season; MD (Municipal dumping site)"	2016/11/24	2019/7/17
PRA000015	SAA000531	ST015				MD-9	Water	"Leachate and River water"	2011	1	15					Asia	Vietnam	"Lam Son"	21.01527778		105.7552778															18	6.8		16	25																							"Dry season; MD (Municipal dumping site)"	2016/11/24	2019/7/17
PRA000015	SAA000532	ST015				MD-10	Water	"Leachate and River water"	2011	1	15					Asia	Vietnam	"Lam Son"	21.01527778		105.7561111															18	7.4		24	25																							"Dry season; MD (Municipal dumping site)"	2016/11/24	2019/7/17
PRA000019	SAA000682	ST019				E-01	Water	"Sewage treatment plant (STP) effluent"	2013	4	11	2013-04-11T07:30				Asia	Japan	Ehime	32.88472222	34.30166667	132.0125	133.6930556														19.6																												2016/12/21	2019/7/17
PRA000019	SAA000683	ST019				E-02	Water	"Sewage treatment plant (STP) effluent"	2013	4	11	2013-04-11T12:07				Asia	Japan	Ehime	32.88472222	34.30166667	132.0125	133.6930556														19.8																												2016/12/21	2019/7/17
PRA000019	SAA000684	ST019				E-03	Water	"Sewage treatment plant (STP) effluent"	2013	4	11	2013-04-11T17:55				Asia	Japan	Ehime	32.88472222	34.30166667	132.0125	133.6930556														19.3																												2016/12/21	2019/7/17
PRA000019	SAA000685	ST019				E-04	Water	"Sewage treatment plant (STP) effluent"	2013	4	25	2013-04-25T07:25				Asia	Japan	Ehime	32.88472222	34.30166667	132.0125	133.6930556														19.6																												2016/12/21	2019/7/17
PRA000019	SAA000686	ST019				E-05	Water	"Sewage treatment plant (STP) effluent"	2013	4	25	2013-04-25T11:53				Asia	Japan	Ehime	32.88472222	34.30166667	132.0125	133.6930556														21.6																												2016/12/21	2019/7/17
PRA000019	SAA000687	ST019				E-06	Water	"Sewage treatment plant (STP) effluent"	2013	4	25	2013-04-25T17:30				Asia	Japan	Ehime	32.88472222	34.30166667	132.0125	133.6930556														20.9																												2016/12/21	2019/7/17
PRA000019	SAA000688	ST019				E-07	Water	"Sewage treatment plant (STP) effluent"	2013	5	9	2013-05-09T07:28				Asia	Japan	Ehime	32.88472222	34.30166667	132.0125	133.6930556														21																												2016/12/21	2019/7/17
PRA000019	SAA000689	ST019				E-08	Water	"Sewage treatment plant (STP) effluent"	2013	5	9	2013-05-09T11:54				Asia	Japan	Ehime	32.88472222	34.30166667	132.0125	133.6930556														23.7																												2016/12/21	2019/7/17
PRA000019	SAA000690	ST019				E-09	Water	"Sewage treatment plant (STP) effluent"	2013	5	9	2013-05-09T17:28				Asia	Japan	Ehime	32.88472222	34.30166667	132.0125	133.6930556														22.9																												2016/12/21	2019/7/17
PRA000019	SAA000691	ST019				E-10	Water	"Sewage treatment plant (STP) effluent"	2013	5	23	2013-05-23T07:30				Asia	Japan	Ehime	32.88472222	34.30166667	132.0125	133.6930556														23.4																												2016/12/21	2019/7/17
PRA000019	SAA000692	ST019				E-11	Water	"Sewage treatment plant (STP) effluent"	2013	5	23	2013-05-23T11:59				Asia	Japan	Ehime	32.88472222	34.30166667	132.0125	133.6930556														24.8																												2016/12/21	2019/7/17
PRA000019	SAA000693	ST019				E-12	Water	"Sewage treatment plant (STP) effluent"	2013	5	23	2013-05-23T17:27				Asia	Japan	Ehime	32.88472222	34.30166667	132.0125	133.6930556														24.3																												2016/12/21	2019/7/17
PRA000019	SAA000694	ST019				E-13	Water	"Sewage treatment plant (STP) effluent"	2013	6	6	2013-06-06T07:30				Asia	Japan	Ehime	32.88472222	34.30166667	132.0125	133.6930556														24.3																												2016/12/21	2019/7/17
PRA000019	SAA000695	ST019				E-14	Water	"Sewage treatment plant (STP) effluent"	2013	6	6	2013-06-06T11:56				Asia	Japan	Ehime	32.88472222	34.30166667	132.0125	133.6930556														25.2																												2016/12/21	2019/7/17
PRA000019	SAA000696	ST019				E-15	Water	"Sewage treatment plant (STP) effluent"	2013	6	6	2013-06-06T17:27				Asia	Japan	Ehime	32.88472222	34.30166667	132.0125	133.6930556														24.7																												2016/12/21	2019/7/17
PRA000019	SAA000697	ST019				E-16	Water	"Sewage treatment plant (STP) effluent"	2013	6	20	2013-06-20T07:38				Asia	Japan	Ehime	32.88472222	34.30166667	132.0125	133.6930556														25.7																												2016/12/21	2019/7/17
PRA000019	SAA000698	ST019				E-17	Water	"Sewage treatment plant (STP) effluent"	2013	6	20	2013-06-20T12:00				Asia	Japan	Ehime	32.88472222	34.30166667	132.0125	133.6930556														25.2																												2016/12/21	2019/7/17
PRA000019	SAA000699	ST019				E-18	Water	"Sewage treatment plant (STP) effluent"	2013	6	20	2013-06-20T17:35				Asia	Japan	Ehime	32.88472222	34.30166667	132.0125	133.6930556														25																												2016/12/21	2019/7/17
PRA000019	SAA000700	ST019				E-19	Water	"Sewage treatment plant (STP) effluent"	2013	7	4	2013-07-04T07:36				Asia	Japan	Ehime	32.88472222	34.30166667	132.0125	133.6930556														25																												2016/12/21	2019/7/17
PRA000019	SAA000701	ST019				E-20	Water	"Sewage treatment plant (STP) effluent"	2013	7	4	2013-07-04T11:55				Asia	Japan	Ehime	32.88472222	34.30166667	132.0125	133.6930556														25.1																												2016/12/21	2019/7/17
PRA000019	SAA000702	ST019				E-21	Water	"Sewage treatment plant (STP) effluent"	2013	7	4	2013-07-04T17:27				Asia	Japan	Ehime	32.88472222	34.30166667	132.0125	133.6930556														24.4																												2016/12/21	2019/7/17
PRA000019	SAA000703	ST019				E-22	Water	"Sewage treatment plant (STP) effluent"	2013	7	18	2013-07-18T07:30				Asia	Japan	Ehime	32.88472222	34.30166667	132.0125	133.6930556														26.5																												2016/12/21	2019/7/17
PRA000019	SAA000704	ST019				E-23	Water	"Sewage treatment plant (STP) effluent"	2013	7	18	2013-07-18T11:59				Asia	Japan	Ehime	32.88472222	34.30166667	132.0125	133.6930556														27.7																												2016/12/21	2019/7/17
PRA000019	SAA000705	ST019				E-24	Water	"Sewage treatment plant (STP) effluent"	2013	7	18	2013-07-18T17:47				Asia	Japan	Ehime	32.88472222	34.30166667	132.0125	133.6930556														26.5																												2016/12/21	2019/7/17
PRA000019	SAA000706	ST019				E-25	Water	"Sewage treatment plant (STP) effluent"	2013	8	1	2013-08-01T07:35				Asia	Japan	Ehime	32.88472222	34.30166667	132.0125	133.6930556														27.2																												2016/12/21	2019/7/17
PRA000019	SAA000707	ST019				E-26	Water	"Sewage treatment plant (STP) effluent"	2013	8	1	2013-08-01T12:02				Asia	Japan	Ehime	32.88472222	34.30166667	132.0125	133.6930556														27.6																												2016/12/21	2019/7/17
PRA000019	SAA000708	ST019				E-27	Water	"Sewage treatment plant (STP) effluent"	2013	8	1	2013-08-01T17:31				Asia	Japan	Ehime	32.88472222	34.30166667	132.0125	133.6930556														27.4																												2016/12/21	2019/7/17
PRA000019	SAA000709	ST019				E-28	Water	"Sewage treatment plant (STP) effluent"	2013	8	15	2013-08-15T07:28				Asia	Japan	Ehime	32.88472222	34.30166667	132.0125	133.6930556														27.8																												2016/12/21	2019/7/17
PRA000019	SAA000710	ST019				E-29	Water	"Sewage treatment plant (STP) effluent"	2013	8	15	2013-08-15T12:01				Asia	Japan	Ehime	32.88472222	34.30166667	132.0125	133.6930556														29.2																												2016/12/21	2019/7/17
PRA000019	SAA000711	ST019				E-30	Water	"Sewage treatment plant (STP) effluent"	2013	8	15	2013-08-15T17:30				Asia	Japan	Ehime	32.88472222	34.30166667	132.0125	133.6930556														28.1																												2016/12/21	2019/7/17
PRA000019	SAA000712	ST019				E-31	Water	"Sewage treatment plant (STP) effluent"	2013	8	29	2013-08-29T07:24				Asia	Japan	Ehime	32.88472222	34.30166667	132.0125	133.6930556														26.8																												2016/12/21	2019/7/17
PRA000019	SAA000713	ST019				E-32	Water	"Sewage treatment plant (STP) effluent"	2013	8	29	2013-08-29T12:00				Asia	Japan	Ehime	32.88472222	34.30166667	132.0125	133.6930556														28.6																												2016/12/21	2019/7/17
PRA000019	SAA000714	ST019				E-33	Water	"Sewage treatment plant (STP) effluent"	2013	8	29	2013-08-29T17:36				Asia	Japan	Ehime	32.88472222	34.30166667	132.0125	133.6930556														27.1																												2016/12/21	2019/7/17
PRA000019	SAA000715	ST019				E-34	Water	"Sewage treatment plant (STP) effluent"	2013	9	12	2013-09-12T07:35				Asia	Japan	Ehime	32.88472222	34.30166667	132.0125	133.6930556														25.7																												2016/12/21	2019/7/17
PRA000019	SAA000716	ST019				E-35	Water	"Sewage treatment plant (STP) effluent"	2013	9	12	2013-09-12T11:57				Asia	Japan	Ehime	32.88472222	34.30166667	132.0125	133.6930556														26.5																												2016/12/21	2019/7/17
PRA000019	SAA000717	ST019				E-36	Water	"Sewage treatment plant (STP) effluent"	2013	9	12	2013-09-12T17:38				Asia	Japan	Ehime	32.88472222	34.30166667	132.0125	133.6930556														25.9																												2016/12/21	2019/7/17
PRA000019	SAA000718	ST019				E-37	Water	"Sewage treatment plant (STP) effluent"	2013	9	26	2013-09-26T07:26				Asia	Japan	Ehime	32.88472222	34.30166667	132.0125	133.6930556														25.7																												2016/12/21	2019/7/17
PRA000019	SAA000719	ST019				E-38	Water	"Sewage treatment plant (STP) effluent"	2013	9	26	2013-09-26T12:04				Asia	Japan	Ehime	32.88472222	34.30166667	132.0125	133.6930556														26.3																												2016/12/21	2019/7/17
PRA000019	SAA000720	ST019				E-39	Water	"Sewage treatment plant (STP) effluent"	2013	9	26	2013-09-26T17:32				Asia	Japan	Ehime	32.88472222	34.30166667	132.0125	133.6930556														25.6																												2016/12/21	2019/7/17
PRA000019	SAA000721	ST019				E-40	Water	"Sewage treatment plant (STP) effluent"	2013	10	10	2013-10-10T07:30				Asia	Japan	Ehime	32.88472222	34.30166667	132.0125	133.6930556														26																												2016/12/21	2019/7/17
PRA000019	SAA000722	ST019				E-41	Water	"Sewage treatment plant (STP) effluent"	2013	10	10	2013-10-10T12:02				Asia	Japan	Ehime	32.88472222	34.30166667	132.0125	133.6930556														26.8																												2016/12/21	2019/7/17
PRA000019	SAA000723	ST019				E-42	Water	"Sewage treatment plant (STP) effluent"	2013	10	10	2013-10-10T17:53				Asia	Japan	Ehime	32.88472222	34.30166667	132.0125	133.6930556														26.1																												2016/12/21	2019/7/17
PRA000019	SAA000724	ST019				E-43	Water	"Sewage treatment plant (STP) effluent"	2013	10	24	2013-10-24T07:38				Asia	Japan	Ehime	32.88472222	34.30166667	132.0125	133.6930556														23.4																												2016/12/21	2019/7/17
PRA000019	SAA000725	ST019				E-44	Water	"Sewage treatment plant (STP) effluent"	2013	10	24	2013-10-24T12:08				Asia	Japan	Ehime	32.88472222	34.30166667	132.0125	133.6930556														24.3																												2016/12/21	2019/7/17
PRA000019	SAA000726	ST019				E-45	Water	"Sewage treatment plant (STP) effluent"	2013	10	24	2013-10-24T18:30				Asia	Japan	Ehime	32.88472222	34.30166667	132.0125	133.6930556														23.7																												2016/12/21	2019/7/17
PRA000019	SAA000727	ST019				E-46	Water	"Sewage treatment plant (STP) effluent"	2013	11	7	2013-11-07T07:32				Asia	Japan	Ehime	32.88472222	34.30166667	132.0125	133.6930556														22.5																												2016/12/21	2019/7/17
PRA000019	SAA000728	ST019				E-47	Water	"Sewage treatment plant (STP) effluent"	2013	11	7	2013-11-07T12:02				Asia	Japan	Ehime	32.88472222	34.30166667	132.0125	133.6930556														23																												2016/12/21	2019/7/17
PRA000019	SAA000729	ST019				E-48	Water	"Sewage treatment plant (STP) effluent"	2013	11	7	2013-11-07T17:36				Asia	Japan	Ehime	32.88472222	34.30166667	132.0125	133.6930556														21.9																												2016/12/21	2019/7/17
PRA000019	SAA000730	ST019				E-49	Water	"Sewage treatment plant (STP) effluent"	2013	11	21	2013-11-21T07:28				Asia	Japan	Ehime	32.88472222	34.30166667	132.0125	133.6930556														20																												2016/12/21	2019/7/17
PRA000019	SAA000731	ST019				E-50	Water	"Sewage treatment plant (STP) effluent"	2013	11	21	2013-11-21T11:58				Asia	Japan	Ehime	32.88472222	34.30166667	132.0125	133.6930556														21.2																												2016/12/21	2019/7/17
PRA000019	SAA000732	ST019				E-51	Water	"Sewage treatment plant (STP) effluent"	2013	11	21	2013-11-21T17:27				Asia	Japan	Ehime	32.88472222	34.30166667	132.0125	133.6930556														20.6																												2016/12/21	2019/7/17
PRA000019	SAA000733	ST019				E-52	Water	"Sewage treatment plant (STP) effluent"	2013	12	5	2013-12-05T07:28				Asia	Japan	Ehime	32.88472222	34.30166667	132.0125	133.6930556														19.7																												2016/12/21	2019/7/17
PRA000019	SAA000734	ST019				E-53	Water	"Sewage treatment plant (STP) effluent"	2013	12	5	2013-12-05T11:58				Asia	Japan	Ehime	32.88472222	34.30166667	132.0125	133.6930556														20.6																												2016/12/21	2019/7/17
PRA000019	SAA000735	ST019				E-54	Water	"Sewage treatment plant (STP) effluent"	2013	12	5	2013-12-05T17:22				Asia	Japan	Ehime	32.88472222	34.30166667	132.0125	133.6930556														20																												2016/12/21	2019/7/17
PRA000019	SAA000736	ST019				E-55	Water	"Sewage treatment plant (STP) effluent"	2013	12	19	2013-12-19T07:30				Asia	Japan	Ehime	32.88472222	34.30166667	132.0125	133.6930556														17.7																												2016/12/21	2019/7/17
PRA000019	SAA000737	ST019				E-56	Water	"Sewage treatment plant (STP) effluent"	2013	12	19	2013-12-19T12:01				Asia	Japan	Ehime	32.88472222	34.30166667	132.0125	133.6930556														18.4																												2016/12/21	2019/7/17
PRA000019	SAA000738	ST019				E-57	Water	"Sewage treatment plant (STP) effluent"	2013	12	19	2013-12-19T17:50				Asia	Japan	Ehime	32.88472222	34.30166667	132.0125	133.6930556														17.9																												2016/12/21	2019/7/17
PRA000019	SAA000739	ST019				E-58	Water	"Sewage treatment plant (STP) effluent"	2013	12	26	2013-12-26T07:32				Asia	Japan	Ehime	32.88472222	34.30166667	132.0125	133.6930556														18.6																												2016/12/21	2019/7/17
PRA000019	SAA000740	ST019				E-59	Water	"Sewage treatment plant (STP) effluent"	2013	12	26	2013-12-26T12:08				Asia	Japan	Ehime	32.88472222	34.30166667	132.0125	133.6930556														18.9																												2016/12/21	2019/7/17
PRA000019	SAA000741	ST019				E-60	Water	"Sewage treatment plant (STP) effluent"	2013	12	26	2013-12-26T17:00				Asia	Japan	Ehime	32.88472222	34.30166667	132.0125	133.6930556														17.9																												2016/12/21	2019/7/17
PRA000019	SAA000742	ST019				E-61	Water	"Sewage treatment plant (STP) effluent"	2014	1	9	2014-01-09T07:28				Asia	Japan	Ehime	32.88472222	34.30166667	132.0125	133.6930556														15.8																												2016/12/21	2019/7/17
PRA000019	SAA000743	ST019				E-62	Water	"Sewage treatment plant (STP) effluent"	2014	1	9	2014-01-09T11:58				Asia	Japan	Ehime	32.88472222	34.30166667	132.0125	133.6930556														16.4																												2016/12/21	2019/7/17
PRA000019	SAA000744	ST019				E-63	Water	"Sewage treatment plant (STP) effluent"	2014	1	9	2014-01-09T17:30				Asia	Japan	Ehime	32.88472222	34.30166667	132.0125	133.6930556														16.6																												2016/12/21	2019/7/17
PRA000019	SAA000745	ST019				E-64	Water	"Sewage treatment plant (STP) effluent"	2014	1	23	2014-01-23T07:30				Asia	Japan	Ehime	32.88472222	34.30166667	132.0125	133.6930556														17.4																												2016/12/21	2019/7/17
PRA000019	SAA000746	ST019				E-65	Water	"Sewage treatment plant (STP) effluent"	2014	1	23	2014-01-23T12:02				Asia	Japan	Ehime	32.88472222	34.30166667	132.0125	133.6930556														18.7																												2016/12/21	2019/7/17
PRA000019	SAA000747	ST019				E-66	Water	"Sewage treatment plant (STP) effluent"	2014	1	23	2014-01-23T17:34				Asia	Japan	Ehime	32.88472222	34.30166667	132.0125	133.6930556														17.7																												2016/12/21	2019/7/17
PRA000019	SAA000748	ST019				E-67	Water	"Sewage treatment plant (STP) effluent"	2014	2	6	2014-02-06T07:31				Asia	Japan	Ehime	32.88472222	34.30166667	132.0125	133.6930556														17.6																												2016/12/21	2019/7/17
PRA000019	SAA000749	ST019				E-68	Water	"Sewage treatment plant (STP) effluent"	2014	2	6	2014-02-06T12:01				Asia	Japan	Ehime	32.88472222	34.30166667	132.0125	133.6930556														17.2																												2016/12/21	2019/7/17
PRA000019	SAA000750	ST019				E-69	Water	"Sewage treatment plant (STP) effluent"	2014	2	6	2014-02-06T17:05				Asia	Japan	Ehime	32.88472222	34.30166667	132.0125	133.6930556														17.6																												2016/12/21	2019/7/17
PRA000019	SAA000751	ST019				E-70	Water	"Sewage treatment plant (STP) effluent"	2014	2	21	2014-02-21T07:31				Asia	Japan	Ehime	32.88472222	34.30166667	132.0125	133.6930556														16.6																												2016/12/21	2019/7/17
PRA000019	SAA000752	ST019				E-71	Water	"Sewage treatment plant (STP) effluent"	2014	2	21	2014-02-21T12:03				Asia	Japan	Ehime	32.88472222	34.30166667	132.0125	133.6930556														18.3																												2016/12/21	2019/7/17
PRA000019	SAA000753	ST019				E-72	Water	"Sewage treatment plant (STP) effluent"	2014	2	21	2014-02-21T17:32				Asia	Japan	Ehime	32.88472222	34.30166667	132.0125	133.6930556														17.4																												2016/12/21	2019/7/17
PRA000019	SAA000754	ST019				E-73	Water	"Sewage treatment plant (STP) effluent"	2014	3	6	2014-03-06T07:31				Asia	Japan	Ehime	32.88472222	34.30166667	132.0125	133.6930556														16.5																												2016/12/21	2019/7/17
PRA000019	SAA000755	ST019				E-74	Water	"Sewage treatment plant (STP) effluent"	2014	3	6	2014-03-06T12:00				Asia	Japan	Ehime	32.88472222	34.30166667	132.0125	133.6930556														17.8																												2016/12/21	2019/7/17
PRA000019	SAA000756	ST019				E-75	Water	"Sewage treatment plant (STP) effluent"	2014	3	6	2014-03-06T17:29				Asia	Japan	Ehime	32.88472222	34.30166667	132.0125	133.6930556														17.1																												2016/12/21	2019/7/17
PRA000019	SAA000757	ST019				E-76	Water	"Sewage treatment plant (STP) effluent"	2014	3	20	2014-03-20T07:32				Asia	Japan	Ehime	32.88472222	34.30166667	132.0125	133.6930556														19																												2016/12/21	2019/7/17
PRA000019	SAA000758	ST019				E-77	Water	"Sewage treatment plant (STP) effluent"	2014	3	20	2014-03-20T12:06				Asia	Japan	Ehime	32.88472222	34.30166667	132.0125	133.6930556														19																												2016/12/21	2019/7/17
PRA000019	SAA000759	ST019				E-78	Water	"Sewage treatment plant (STP) effluent"	2014	3	20	2014-03-20T17:47				Asia	Japan	Ehime	32.88472222	34.30166667	132.0125	133.6930556														17.5																												2016/12/21	2019/7/17
PRA000020	SAA000874	ST015				WK1	Water	"Ambient water from effluent-dominated streams"	2011	11	2					Asia	Japan	Kumamoto	32.09472222	33.19527778	129.9402778	131.3294444																																									"n=3; At 6-h intervals"	2017/1/13	2017/1/13
PRA000020	SAA000875	ST015				WE1	Water	"Ambient water from effluent-dominated streams"	2013	8	8					Asia	Japan	Ehime	32.88472222	34.30166667	132.0125	133.6930556																																									"n=5; At 6-h intervals"	2017/1/13	2017/1/13
PRA000020	SAA000876	ST015				WE2	Water	"Ambient water from effluent-dominated streams"	2013	12	3					Asia	Japan	Ehime	32.88472222	34.30166667	132.0125	133.6930556																																									"n=4; At 6-h intervals"	2017/1/13	2017/1/13
PRA000020	SAA000877	ST015				WE3	Water	"Ambient water from effluent-dominated streams"	2014	4	23					Asia	Japan	Ehime	32.88472222	34.30166667	132.0125	133.6930556																																									"n=4; At 6-h intervals"	2017/1/13	2017/1/13
PRA000020	SAA000878	ST015				WE4	Water	"Ambient water from effluent-dominated streams"	2014	8	18					Asia	Japan	Ehime	32.88472222	34.30166667	132.0125	133.6930556																																									n=1	2017/1/13	2017/1/13
PRA000028	SAA001694	ST016				AW-1	Water	"Well water"	2001	12						Asia	Cambodia	"Sambok, Kratie Province"	12.63491667		106.02025																						25																				"Year of installation: 1995"	2017/3/8	2019/7/17
PRA000028	SAA001695	ST016				AW-2	Water	"Well water"	2001	12						Asia	Cambodia	"Sambok, Kratie Province"	12.63491667		106.02025																						23																				"Year of installation: 1995"	2017/3/8	2019/7/17
PRA000028	SAA001696	ST016				AW-3	Water	"Well water"	2001	12						Asia	Cambodia	"Sambok, Kratie Province"	12.63491667		106.02025																						25																				"Year of installation: 1995"	2017/3/8	2019/7/17
PRA000028	SAA001697	ST016				AW-4	Water	"Well water"	2001	12						Asia	Cambodia	"Sambok, Kratie Province"	12.63491667		106.02025																						27																				"Year of installation: 1994"	2017/3/8	2019/7/17
PRA000028	SAA001698	ST016				AW-5	Water	"Well water"	2001	12						Asia	Cambodia	"Sambok, Kratie Province"	12.63491667		106.02025																						30																				"Year of installation: 1994"	2017/3/8	2019/7/17
PRA000028	SAA001699	ST016				AW-6	Water	"Well water"	2001	12						Asia	Cambodia	"Sambok, Kratie Province"	12.63491667		106.02025																						30																				"Year of installation: 1994"	2017/3/8	2019/7/17
PRA000028	SAA001700	ST016				AW-7	Water	"Well water"	2001	12						Asia	Cambodia	"Sambok, Kratie Province"	12.63491667		106.02025																						27																				"Year of installation: 1994"	2017/3/8	2019/7/17
PRA000028	SAA001701	ST016				AW-8	Water	"Well water"	2001	12						Asia	Cambodia	"Sambok, Kratie Province"	12.63491667		106.02025																						32																				"Year of installation: 1994"	2017/3/8	2019/7/17
PRA000028	SAA001702	ST016				AW-9	Water	"Well water"	2001	12						Asia	Cambodia	"Sambok, Kratie Province"	12.63491667		106.02025																						35																				"Year of installation: 1994"	2017/3/8	2019/7/17
PRA000028	SAA001703	ST016				AW-10	Water	"Well water"	2001	12						Asia	Cambodia	"Sambok, Kratie Province"	12.63491667		106.02025																						35																				"Year of installation: 1994"	2017/3/8	2019/7/17
PRA000028	SAA001704	ST016				AW-11	Water	"Well water"	2001	12						Asia	Cambodia	"Kompong Kor, Prek Prasob District, Kratie"	12.31927778		105.9533611																						44																				"Year of installation: 1997"	2017/3/8	2019/7/17
PRA000028	SAA001705	ST016				AW-12	Water	"Well water"	2001	12						Asia	Cambodia	"Kompong Kor, Prek Prasob District, Kratie"	12.31927778		105.9533611																						38																				"Year of installation: 1997"	2017/3/8	2019/7/17
PRA000028	SAA001706	ST016				AW-13	Water	"Well water"	2001	12						Asia	Cambodia	"Kompong Kor, Prek Prasob District, Kratie"	12.31927778		105.9533611																						41																				"Year of installation: 1997"	2017/3/8	2019/7/17
PRA000028	SAA001707	ST016				AW-14	Water	"Well water"	2001	12						Asia	Cambodia	"Kompong Kor, Prek Prasob District, Kratie"	12.31927778		105.9533611																						39																				"Year of installation: 1997"	2017/3/8	2019/7/17
PRA000028	SAA001708	ST016				AW-15	Water	"Well water"	2001	12						Asia	Cambodia	"Kompong Kor, Prek Prasob District, Kratie"	12.31927778		105.9533611																						38																				"Year of installation: 1997"	2017/3/8	2019/7/17
PRA000028	SAA001709	ST016				AW-16	Water	"Well water"	2001	12						Asia	Cambodia	"Kompong Kor, Prek Prasob District, Kratie"	12.31927778		105.9533611																						39																				"Year of installation: 1997"	2017/3/8	2019/7/17
PRA000028	SAA001710	ST016				AW-17	Water	"Well water"	2001	12						Asia	Cambodia	"Kompong Kor, Prek Prasob District, Kratie"	12.31927778		105.9533611																						36.5																				"Year of installation: 1997"	2017/3/8	2019/7/17
PRA000028	SAA001711	ST016				AW-18	Water	"Well water"	2001	12						Asia	Cambodia	"Kompong Kor, Prek Prasob District, Kratie"	12.31927778		105.9533611																						43.5																				"Year of installation: 1997"	2017/3/8	2019/7/17
PRA000028	SAA001712	ST016				AW-19	Water	"Well water"	2001	12						Asia	Cambodia	"Kompong Kor, Prek Prasob District, Kratie"	12.31927778		105.9533611																						43																				"Year of installation: 1997"	2017/3/8	2019/7/17
PRA000028	SAA001713	ST016				AW-20	Water	"Well water"	2001	12						Asia	Cambodia	"Kompong Kor, Prek Prasob District, Kratie"	12.31927778		105.9533611																						44																				"Year of installation: 1997"	2017/3/8	2019/7/17
PRA000028	SAA001714	ST016				AW-21	Water	"Well water"	2001	12						Asia	Cambodia	"Kompong Kor, Prek Prasob District, Kratie"	12.31927778		105.9533611																						38																				"Year of installation: 1997"	2017/3/8	2019/7/17
PRA000028	SAA001715	ST016				AW-22	Water	"Well water"	2001	12						Asia	Cambodia	"Kompong Kor, Prek Prasob District, Kratie"	12.31927778		105.9533611																						37																				"Year of installation: 1997"	2017/3/8	2019/7/17
PRA000028	SAA001716	ST016				AW-23	Water	"Well water"	2001	12						Asia	Cambodia	"Kompong Kor, Prek Prasob District, Kratie"	12.31927778		105.9533611																						37																				"Year of installation: 1997"	2017/3/8	2019/7/17
PRA000028	SAA001717	ST016				AW-24	Water	"Well water"	2001	12						Asia	Cambodia	"Kompong Kor, Prek Prasob District, Kratie"	12.31927778		105.9533611																						42																				"Year of installation: 1998"	2017/3/8	2019/7/17
PRA000028	SAA001718	ST016				AW-25	Water	"Well water"	2001	12						Asia	Cambodia	"Kompong Kor, Prek Prasob District, Kratie"	12.31927778		105.9533611																						38																				"Year of installation: 1998"	2017/3/8	2019/7/17
PRA000028	SAA001719	ST016				AW-26	Water	"Well water"	2001	12						Asia	Cambodia	"Kompong Kor, Prek Prasob District, Kratie"	12.31927778		105.9533611																						33																				"Year of installation: 1997"	2017/3/8	2019/7/17
PRA000028	SAA001720	ST016				AW-27	Water	"Well water"	2001	12						Asia	Cambodia	"Kompong Kor, Prek Prasob District, Kratie"	12.31927778		105.9533611																						37																				"Year of installation: 1997"	2017/3/8	2019/7/17
PRA000028	SAA001721	ST016				AW-28	Water	"Well water"	2001	12						Asia	Cambodia	"Dey Dos, Prek Prasob District, Kratie"	12.29455556		106.0139722																						31																				"Year of installation: 1998"	2017/3/8	2019/7/17
PRA000028	SAA001722	ST016				AW-29	Water	"Well water"	2001	12						Asia	Cambodia	"Dey Dos, Prek Prasob District, Kratie"	12.29455556		106.0139722																						25																				"Year of installation: 1997"	2017/3/8	2019/7/17
PRA000028	SAA001723	ST016				AW-30	Water	"Well water"	2001	12						Asia	Cambodia	"Chrauy Snaing Krobey, Prek Prasob District, Kratie"	12.36666667		106.0171111																						24																				"Year of installation: 1997"	2017/3/8	2019/7/17
PRA000028	SAA001724	ST016				AW-31	Water	"Well water"	2001	12						Asia	Cambodia	"Chrauy Snaing Krobey, Prek Prasob District, Kratie"	12.36666667		106.0171111																						26																				"Year of installation: 1998"	2017/3/8	2019/7/17
PRA000028	SAA001725	ST016				AW-32	Water	"Well water"	2001	12						Asia	Cambodia	"Chrauy Snaing Krobey, Prek Prasob District, Kratie"	12.36666667		106.0171111																						28																				"Year of installation: 1998"	2017/3/8	2019/7/17
PRA000028	SAA001726	ST016				AW-33	Water	"Well water"	2001	12						Asia	Cambodia	"Chrauy Snaing Krobey, Prek Prasob District, Kratie"	12.36666667		106.0171111																						28																				"Year of installation: 1998"	2017/3/8	2019/7/17
PRA000028	SAA001727	ST016				AW-34	Water	"Well water"	2001	12						Asia	Cambodia	"Chrauy Snaing Krobey, Prek Prasob District, Kratie"	12.36666667		106.0171111																						28																				"Year of installation: 1998"	2017/3/8	2019/7/17
PRA000028	SAA001728	ST016				AW-35	Water	"Well water"	2001	12						Asia	Cambodia	"Chrauy Snaing Krobey, Prek Prasob District, Kratie"	12.36666667		106.0171111																						21																				"Year of installation: 1998"	2017/3/8	2019/7/17
PRA000028	SAA001729	ST016				AW-36	Water	"Well water"	2001	12						Asia	Cambodia	"Chrauy Snaing Krobey, Prek Prasob District, Kratie"	12.36666667		106.0171111																						20																				"Year of installation: 1998"	2017/3/8	2019/7/17
PRA000028	SAA001730	ST016				AW-37	Water	"Well water"	2001	12						Asia	Cambodia	"Chrauy Snaing Krobey, Prek Prasob District, Kratie"	12.36666667		106.0171111																						32																				"Year of installation: 1998"	2017/3/8	2019/7/17
PRA000028	SAA001731	ST016				AW-38	Water	"Well water"	2001	12						Asia	Cambodia	"Chrauy Snaing Krobei, Prek Prasob District, Kratie"	12.36666667		106.0171111																						24																				"Year of installation: 1998"	2017/3/8	2019/7/17
PRA000028	SAA001732	ST016				AW-39	Water	"Well water"	2001	12						Asia	Cambodia	"Chrauy Snaing Krobey, Prek Prasob District, Kratie"	12.36666667		106.0171111																						30																				"Year of installation: 1998"	2017/3/8	2019/7/17
PRA000028	SAA001733	ST016				AW-40	Water	"Well water"	2001	12						Asia	Cambodia	"Chrauy Snaing Krobey, Prek Prasob District, Kratie"	12.36666667		106.0171111																						41																				"Year of installation: 1998"	2017/3/8	2019/7/17
PRA000028	SAA001734	ST016				AW-41	Water	"Well water"	2001	12						Asia	Cambodia	"Chrauy Snaing Krobey, Prek Prasob District, Kratie"	12.36666667		106.0171111																						41																				"Year of installation: 1998"	2017/3/8	2019/7/17
PRA000028	SAA001735	ST016				AW-56	Water	"Well water"	2001	12						Asia	Cambodia	"Dey Thmey, Chlaung District, Kratie"	12.24330556		105.9665556																						39																				"Year of installation: 1999"	2017/3/8	2019/7/17
PRA000028	SAA001736	ST016				AW-57	Water	"Well water"	2001	12						Asia	Cambodia	"Dey Thmey, Chlaung District, Kratie"	12.24330556		105.9665556																						37																				"Year of installation: 1999"	2017/3/8	2019/7/17
PRA000028	SAA001737	ST016				AW-58	Water	"Well water"	2001	12						Asia	Cambodia	"Dey Thmey, Chlaung District, Kratie"	12.24330556		105.9665556																						39																				"Year of installation: 1999"	2017/3/8	2019/7/17
PRA000028	SAA001738	ST016				AW-59	Water	"Well water"	2001	12						Asia	Cambodia	"Dey Thmey, Chlaung District, Kratie"	12.24330556		105.9665556																						39																				"Year of installation: 1999"	2017/3/8	2019/7/17
PRA000028	SAA001739	ST016				AW-60	Water	"Well water"	2001	12						Asia	Cambodia	"Dey Thmey, Chlaung District, Kratie"	12.24330556		105.9665556																						42																				"Year of installation: 1999"	2017/3/8	2019/7/17
PRA000028	SAA001740	ST016				AW-61	Water	"Well water"	2001	12						Asia	Cambodia	"Dey Thmey, Chlaung District, Kratie"	12.24330556		105.9665556																						32																				"Year of installation: 1999"	2017/3/8	2019/7/17
PRA000028	SAA001741	ST016				AW-62	Water	"Well water"	2001	12						Asia	Cambodia	"Dey Thmey, Chlaung District, Kratie"	12.24330556		105.9665556																						39																				"Year of installation: 1999"	2017/3/8	2019/7/17
PRA000028	SAA001742	ST016				AW-63	Water	"Well water"	2001	12						Asia	Cambodia	"Krokor, Kratie District, Kratie"	12.69394444		106.0211111																						30																				"Year of installation: 1997"	2017/3/8	2019/7/17
PRA000028	SAA001743	ST016				AW-64	Water	"Well water"	2001	12						Asia	Cambodia	"Krokor, Kratie District, Kratie"	12.69394444		106.0211111																						28																				"Year of installation: 1997"	2017/3/8	2019/7/17
PRA000028	SAA001744	ST016				AW-65	Water	"Well water"	2001	12						Asia	Cambodia	"Krokor, Kratie District, Kratie"	12.69394444		106.0211111																						30																				"Year of installation: 1997"	2017/3/8	2019/7/17
PRA000028	SAA001745	ST016				AW-66	Water	"Well water"	2001	12						Asia	Cambodia	"Krokor, Kratie District, Kratie"	12.69394444		106.0211111																						20																				"Year of installation: 1995"	2017/3/8	2019/7/17
PRA000028	SAA001746	ST016				AW-67	Water	"Well water"	2001	12						Asia	Cambodia	"Krokor, Kratie District, Kratie"	12.69394444		106.0211111																						20																				"Year of installation: 1995"	2017/3/8	2019/7/17
PRA000028	SAA001747	ST016				AW-68	Water	"Well water"	2001	12						Asia	Cambodia	"Krokor, Kratie District, Kratie"	12.69394444		106.0211111																						25																				"Year of installation: 1995"	2017/3/8	2019/7/17
PRA000028	SAA001748	ST016				AW-69	Water	"Well water"	2001	12						Asia	Cambodia	"Krokor, Kratie District, Kratie"	12.69394444		106.0211111																						25																				"Year of installation: 1995"	2017/3/8	2019/7/17
PRA000028	SAA001749	ST016				AW-70	Water	"Well water"	2001	12						Asia	Cambodia	"Krokor, Kratie District, Kratie"	12.69394444		106.0211111																						27																				"Year of installation: 1995"	2017/3/8	2019/7/17
PRA000028	SAA001750	ST016				AW-71	Water	"Well water"	2001	12						Asia	Cambodia	"Krokor, Kratie District, Kratie"	12.69394444		106.0211111																						20																				"Year of installation: 1995"	2017/3/8	2019/7/17
PRA000028	SAA001751	ST016				AW-72	Water	"Well water"	2001	12						Asia	Cambodia	"Krokor, Kratie District, Kratie"	12.69394444		106.0211111																						23																				"Year of installation: 1995"	2017/3/8	2019/7/17
PRA000033	SAA002004	ST014				M-Summer	Water	"Sea  water"	2010	7	27	2010-07-27T15:30				Asia	Japan	"Mogushi, Kumamoto"	32.203		129.996															28																											"Estimated bathers(min-max): 100-150; Analyzed in triplicates (n=3) "	2017/4/28	2019/7/17
PRA000033	SAA002005	ST014				M-Winter	Water	"Sea  water"	2010	12	1	2010-12-01T13:00				Asia	Japan	"Mogushi, Kumamoto"	32.203		129.996															21																											"Estimated bathers(min-max): 0; Analyzed in triplicates (n=3) "	2017/4/28	2019/7/17
PRA000033	SAA002006	ST014				W-Summer	Water	"Sea  water"	2010	7	27	2010-07-27T11:30				Asia	Japan	"Wakamiya, Kumamoto"	32.537876		130.191823															29																											"Estimated bathers(min-max): 25-50; Analyzed in triplicates (n=3) "	2017/4/28	2019/7/17
PRA000033	SAA002007	ST014				W-Winter	Water	"Sea  water"	2010	12	1	2010-12-01T10:30				Asia	Japan	"Wakamiya, Kumamoto"	32.537876		130.191823															15																											"Estimated bathers(min-max): 0; Analyzed in triplicates (n=3) "	2017/4/28	2019/7/17
PRA000033	SAA002008	ST014				T-Summer	Water	"Sea  water"	2010	8	15	2010-08-15T11:30				Asia	Japan	"Tsurugahama, Kumamoto"	32.317		130.47															22																											"Estimated bathers(min-max): 100-150; Analyzed in triplicates (n=3) "	2017/4/28	2019/7/17
PRA000033	SAA002009	ST014				T-Winter	Water	"Sea  water"	2010	12	19	2010-12-19T10:00				Asia	Japan	"Tsurugahama, Kumamoto"	32.317		130.47															16																											"Estimated bathers(min-max): 0; Analyzed in triplicates (n=3) "	2017/4/28	2019/7/17
PRA000033	SAA002010	ST014				O-Summer	Water	"Sea  water"	2010	8	15	2010-08-15T12:00				Asia	Japan	"Otachimisaki, Kumamoto"	32.363		130.488															27																											"Estimated bathers(min-max): 200-300; Analyzed in triplicates (n=3) "	2017/4/28	2019/7/17
PRA000033	SAA002011	ST014				O-Winter	Water	"Sea  water"	2010	12	9	2010-12-09T11:00				Asia	Japan	"Otachimisaki, Kumamoto"	32.363		130.488															17																											"Estimated bathers(min-max): 0; Analyzed in triplicates (n=3) "	2017/4/28	2019/7/17
PRA000033	SAA002012	ST014				O-11072609	Water	"Sea  water"	2011	7	26	2011-07-26T09:00				Asia	Japan	"Otachimisaki, Kumamoto"	32.363		130.488															28																											"Number of bathers: 26; Analyzed in triplicates (n=3) "	2017/4/28	2019/7/17
PRA000033	SAA002013	ST014				O-11072610	Water	"Sea  water"	2011	7	26	2011-07-26T10:00				Asia	Japan	"Otachimisaki, Kumamoto"	32.363		130.488															28																											"Number of bathers: 38; Analyzed in triplicates (n=3) "	2017/4/28	2019/7/17
PRA000033	SAA002014	ST014				O-11072611	Water	"Sea  water"	2011	7	26	2011-07-26T11:00				Asia	Japan	"Otachimisaki, Kumamoto"	32.363		130.488															28																											"Number of bathers: 72; Analyzed in triplicates (n=3) "	2017/4/28	2019/7/17
PRA000033	SAA002015	ST014				O-11072612	Water	"Sea  water"	2011	7	26	2011-07-26T12:00				Asia	Japan	"Otachimisaki, Kumamoto"	32.363		130.488															28																											"Number of bathers: 104; Analyzed in triplicates (n=3) "	2017/4/28	2019/7/17
PRA000033	SAA002016	ST014				O-11072613	Water	"Sea  water"	2011	7	26	2011-07-26T13:00				Asia	Japan	"Otachimisaki, Kumamoto"	32.363		130.488															27																											"Number of bathers: 129; Analyzed in triplicates (n=3) "	2017/4/28	2019/7/17
PRA000033	SAA002017	ST014				O-11072614	Water	"Sea  water"	2011	7	26	2011-07-26T14:00				Asia	Japan	"Otachimisaki, Kumamoto"	32.363		130.488															28																											"Number of bathers: 148; Analyzed in triplicates (n=3) "	2017/4/28	2019/7/17
PRA000033	SAA002018	ST014				O-11072615	Water	"Sea  water"	2011	7	26	2011-07-26T15:00				Asia	Japan	"Otachimisaki, Kumamoto"	32.363		130.488															28																											"Number of bathers: 210; Analyzed in triplicates (n=3) "	2017/4/28	2019/7/17
PRA000033	SAA002019	ST014				O-11072616	Water	"Sea  water"	2011	7	26	2011-07-26T16:00				Asia	Japan	"Otachimisaki, Kumamoto"	32.363		130.488															28																											"Number of bathers: 69; Analyzed in triplicates (n=3) "	2017/4/28	2019/7/17
PRA000033	SAA002020	ST014				O-11072617	Water	"Sea  water"	2011	7	26	2011-07-26T17:00				Asia	Japan	"Otachimisaki, Kumamoto"	32.363		130.488															28																											"Number of bathers: 15; Analyzed in triplicates (n=3) "	2017/4/28	2019/7/17
PRA000033	SAA002021	ST014				O-11072618	Water	"Sea  water"	2011	7	26	2011-07-26T18:00				Asia	Japan	"Otachimisaki, Kumamoto"	32.363		130.488															27																											"Number of bathers: 4; Analyzed in triplicates (n=3) "	2017/4/28	2019/7/17
PRA000033	SAA002022	ST014				O-11072619	Water	"Sea  water"	2011	7	26	2011-07-26T19:00				Asia	Japan	"Otachimisaki, Kumamoto"	32.363		130.488															26																											"Number of bathers: 0; Analyzed in triplicates (n=3) "	2017/4/28	2019/7/17
PRA000033	SAA002023	ST014				O-11072620	Water	"Sea  water"	2011	7	26	2011-07-26T20:00				Asia	Japan	"Otachimisaki, Kumamoto"	32.363		130.488															26																											"Number of bathers: 0; Analyzed in triplicates (n=3) "	2017/4/28	2019/7/17
PRA000033	SAA002024	ST014				O-11072622	Water	"Sea  water"	2011	7	26	2011-07-26T22:00				Asia	Japan	"Otachimisaki, Kumamoto"	32.363		130.488															27																											"Number of bathers: 0; Analyzed in triplicates (n=3) "	2017/4/28	2019/7/17
PRA000033	SAA002025	ST014				O-11072700	Water	"Sea  water"	2011	7	27	2011-07-27T00:00				Asia	Japan	"Otachimisaki, Kumamoto"	32.363		130.488															27																											"Number of bathers: 0; Analyzed in triplicates (n=3) "	2017/4/28	2019/7/17
PRA000033	SAA002026	ST014				O-11072702	Water	"Sea  water"	2011	7	27	2011-07-27T02:00				Asia	Japan	"Otachimisaki, Kumamoto"	32.363		130.488															26																											"Number of bathers: 0; Analyzed in triplicates (n=3) "	2017/4/28	2019/7/17
PRA000033	SAA002027	ST014				O-11072704	Water	"Sea  water"	2011	7	27	2011-07-27T04:00				Asia	Japan	"Otachimisaki, Kumamoto"	32.363		130.488															25																											"Number of bathers: 0; Analyzed in triplicates (n=3) "	2017/4/28	2019/7/17
PRA000033	SAA002028	ST014				O-11072706	Water	"Sea  water"	2011	7	27	2011-07-27T06:00				Asia	Japan	"Otachimisaki, Kumamoto"	32.363		130.488															26																											"Number of bathers: 0; Analyzed in triplicates (n=3) "	2017/4/28	2019/7/17
PRA000033	SAA002029	ST014				O-11072708	Water	"Sea  water"	2011	7	27	2011-07-27T08:00				Asia	Japan	"Otachimisaki, Kumamoto"	32.363		130.488															26																											"Number of bathers: 3; Analyzed in triplicates (n=3) "	2017/4/28	2019/7/17
PRA000034	SAA002030	ST015				N-1	Water	"River water"	2013	3			AM			Asia	Japan	"Arako pump station, Nagoya"	35.09391		136.867333																																											2017/5/1	2019/7/17
PRA000034	SAA002031	ST015				N-2	Water	"River water"	2013	3			AM			Asia	Japan	"Tokai bashi bridge, Nagoya"	35.113336		136.876938																																											2017/5/1	2019/7/17
PRA000034	SAA002032	ST015				N-3	Water	"River water"	2013	3			AM			Asia	Japan	"Doutoku bashi bridge, Nagoya"	35.09649		136.912737																																											2017/5/1	2019/7/17
PRA000034	SAA002033	ST015				N-4	Water	"River water"	2013	3			AM			Asia	Japan	"Chidori bashi bridge, Nagoya"	35.068519		136.909735																																											2017/5/1	2019/7/17
PRA000034	SAA002034	ST015				N-5	Water	"River water"	2013	3			AM			Asia	Japan	"Shinkawa Hinode bashi brdige, Nagoya"	35.113711		136.83434																																											2017/5/1	2019/7/17
PRA000034	SAA002035	ST015				N-6	Water	"River water"	2013	3			AM			Asia	Japan	"Omori bashi bridge, Nagoya"	35.1996661		137.000855																																											2017/5/1	2019/7/17
PRA000034	SAA002036	ST015				N-7	Water	"River water"	2013	3			AM			Asia	Japan	"Tenpaku bashi bridge, Nagoya"	35.125644		136.993389																																											2017/5/1	2019/7/17
PRA000034	SAA002037	ST015				N-8	Water	"River water"	2013	3			AM			Asia	Japan	"Koshio bashi bridge, Nagoya"	35.179514		136.893956																																											2017/5/1	2019/7/17
PRA000034	SAA002038	ST015				N-9	Water	"River water"	2013	3			AM			Asia	Japan	"Hinode bashi bridge, Nagoya"	35.126277		136.917307																																											2017/5/1	2019/7/17
PRA000034	SAA002039	ST015				N-10	Water	"River water"	2013	3			AM			Asia	Japan	"Shin Tofuku bashi bridge, Nagoya"	35.11328		136.810531																																											2017/5/1	2019/7/17
PRA000034	SAA002040	ST015				N-11	Water	"River water"	2013	3			AM			Asia	Japan	"Shin Seifuku bashi bridge, Nagoya"	35.114583		136.799694																																											2017/5/1	2019/7/17
PRA000034	SAA002041	ST014				N-12	Water	"Sea water"	2013	3			AM			Asia	Japan	"Shiomi pier, Nagoya"	35.072028		136.87625																																											2017/5/1	2019/7/17
PRA000037	SAA002164	ST017				A-L	Water	"Landfill leachate"	2004	4						Asia	Japan	Kanagawa	35.25	35.41666667	139.3333333	139.5																																									"Industrial waste landfill site"	2017/5/26	2017/5/26
PRA000037	SAA002165	ST017				B-L	Water	"Landfill leachate"	2004	4						Asia	Japan	Kanagawa	35.25	35.41666667	139.3333333	139.5																																									"Industrial waste landfill site"	2017/5/26	2017/5/26
PRA000037	SAA002166	ST017				C-L	Water	"Landfill leachate"	2004	4						Asia	Japan	Kanagawa	35.25	35.41666667	139.3333333	139.5																																									"Industrial waste landfill site"	2017/5/26	2017/5/26
PRA000037	SAA002167	ST017				D-L	Water	"Landfill leachate"	2004	4						Asia	Japan	Kanagawa	35.25	35.41666667	139.3333333	139.5																																									"Industrial waste landfill site"	2017/5/26	2017/5/26
PRA000037	SAA002168	ST017				E-L	Water	"Landfill leachate"	2004	4						Asia	Japan	Kanagawa	35.25	35.41666667	139.3333333	139.5																																									"Industrial waste landfill site; Treated eflluent from sampling site D"	2017/5/26	2017/5/26
PRA000037	SAA002169	ST017				F-L	Water	"Landfill leachate"	2004	4						Asia	Japan	Kanagawa	35.25	35.41666667	139.3333333	139.5																																									"Industrial waste landfill site"	2017/5/26	2017/5/26
PRA000037	SAA002170	ST020				A-S	Water	"Suspended Solids"	2004	4						Asia	Japan	Kanagawa	35.25	35.41666667	139.3333333	139.5																																									"Industrial waste landfill site"	2017/5/26	2017/5/26
PRA000037	SAA002171	ST020				B-S	Water	"Suspended Solids"	2004	4						Asia	Japan	Kanagawa	35.25	35.41666667	139.3333333	139.5																																									"Industrial waste landfill site"	2017/5/26	2017/5/26
PRA000037	SAA002172	ST020				C-S	Water	"Suspended Solids"	2004	4						Asia	Japan	Kanagawa	35.25	35.41666667	139.3333333	139.5																																									"Industrial waste landfill site"	2017/5/26	2017/5/26
PRA000037	SAA002173	ST020				D-S	Water	"Suspended Solids"	2004	4						Asia	Japan	Kanagawa	35.25	35.41666667	139.3333333	139.5																																									"Industrial waste landfill site"	2017/5/26	2017/5/26
PRA000037	SAA002174	ST020				F-S	Water	"Suspended Solids"	2004	4						Asia	Japan	Kanagawa	35.25	35.41666667	139.3333333	139.5																																									"Industrial waste landfill site"	2017/5/26	2017/5/26
PRA000039	SAA002216	ST016				SV-01	Water	"Shallow well water"	2009	1						Asia	India	"Sivakasi Town"	9.475		77.828																7.82		680																								"Fireworks and safety match industries area; 5-15 m below the ground level; Used for drinking, cooking, cleaning and agriculture"	2017/8/10	2019/7/17
PRA000039	SAA002217	ST016				SV-02	Water	"Shallow well water"	2009	1						Asia	India	"Sivakasi Town"	9.465		77.817																8.96																										"Fireworks and safety match industries area; 5-15 m below the ground level; Used for drinking, cooking, cleaning and agriculture"	2017/8/10	2019/7/17
PRA000039	SAA002218	ST016				SV-03	Water	"Shallow well water"	2009	1						Asia	India	"Sivakasi Town"	9.463		77.815																9.25		81																								"Fireworks and safety match industries area; 5-15 m below the ground level; Used for drinking, cooking, cleaning and agriculture"	2017/8/10	2019/7/17
PRA000039	SAA002219	ST015				SV-04	Water	"Tap water"	2009	1						Asia	India	"Sivakasi Town"	9.456		77.799																9.45		69																								"Hotel Toilet "	2017/8/10	2019/7/17
PRA000039	SAA002220	ST015				SV-05	Water	"Tap water"	2009	1						Asia	India	"Sivakasi Town"	9.456		77.799																9.42		5																								"Drinking water in Restaurant"	2017/8/10	2019/7/17
PRA000039	SAA002221	ST015				SV-06	Water	"Tap water"	2009	1						Asia	India	"Sivakasi Town"	9.456		77.799																9.48		52																								"Tap water in Restaurant"	2017/8/10	2019/7/17
PRA000039	SAA002222	ST016				SV-07	Water	"Shallow well water"	2009	1						Asia	India	"Sivakasi Town"	9.461		77.8																8.76		139																								"Downtown, residential and sightseeing area; 5-15 m below the ground level; Used for drinking, cooking, cleaning and agriculture"	2017/8/10	2019/7/17
PRA000039	SAA002223	ST016				SV-08	Water	"Shallow well water"	2009	1						Asia	India	"Sivakasi Town"	9.464		77.796																9.14		130																								"Downtown, residential and sightseeing area; 5-15 m below the ground level; Used for drinking, cooking, cleaning and agriculture"	2017/8/10	2019/7/17
PRA000039	SAA002224	ST016				SV-09	Water	"Shallow well water"	2009	1						Asia	India	"Sivakasi Town"	9.474		77.753																9.22		44																								"Outside of firworks and safety match industries area; 5-15 m below the ground level; Used for drinking, cooking, cleaning and agriculture"	2017/8/10	2019/7/17
PRA000039	SAA002225	ST015				SV-10	Water	"Pond water"	2009	1						Asia	India	"Sivakasi Town"	9.415232	9.492616	77.26526	77.758977															8.99		9																									2017/8/10	2019/7/17
PRA000039	SAA002226	ST016				SV-11	Water	"Shallow well water"	2009	1						Asia	India	"Sivakasi Town"	9.495		77.746																9.66		104																								"Outside of firworks and safety match industries area; 5-15 m below the ground level; Used for drinking, cooking, cleaning and agriculture"	2017/8/10	2019/7/17
PRA000039	SAA002227	ST016				SV-12	Water	"Shallow well water"	2009	1						Asia	India	"Sivakasi Town"	9.495		77.745																9.66		46																								"Outside of firworks and safety match industries area; 5-15 m below the ground level; Used for drinking, cooking, cleaning and agriculture"	2017/8/10	2019/7/17
PRA000039	SAA002228	ST016				SV-13	Water	"Shallow well water"	2009	1						Asia	India	"Sivakasi Town"	9.415232	9.492616	77.26526	77.758977															9.92		93																								"5-15 m below the ground level; Used for drinking, cooking, cleaning and agriculture"	2017/8/10	2019/7/17
PRA000039	SAA002229	ST016				SV-14	Water	"Shallow well water"	2009	1						Asia	India	"Sivakasi Town"	9.5		77.755																8.71		632																								"Outside of firworks and safety match industries area; 5-15 m below the ground level; Used for drinking, cooking, cleaning and agriculture"	2017/8/10	2019/7/17
PRA000039	SAA002230	ST016				SV-15	Water	"Shallow well water"	2009	1						Asia	India	"Sivakasi Town"	9.503		77.76																9.46		99																								"Outside of firworks and safety match industries area; 5-15 m below the ground level; Used for drinking, cooking, cleaning and agriculture"	2017/8/10	2019/7/17
PRA000039	SAA002231	ST016				SV-16	Water	"Shallow well water"	2009	1						Asia	India	"Sivakasi Town"	9.509		77.762																9.64		143																								"Outside of firworks and safety match industries area; 5-15 m below the ground level; Used for drinking, cooking, cleaning and agriculture"	2017/8/10	2019/7/17
PRA000039	SAA002232	ST016				SV-17	Water	"Shallow well water"	2009	1						Asia	India	"Sivakasi Town"	9.512		77.768																9.18		509																								"Outside of firworks and safety match industries area; 5-15 m below the ground level; Used for drinking, cooking, cleaning and agriculture"	2017/8/10	2019/7/17
PRA000039	SAA002233	ST016				SV-18	Water	"Shallow well water"	2009	1						Asia	India	"Sivakasi Town"	9.511		77.771																9.73		118																								"Outside of firworks and safety match industries area; 5-15 m below the ground level; Used for drinking, cooking, cleaning and agriculture"	2017/8/10	2019/7/17
PRA000039	SAA002234	ST016				SV-19	Water	"Shallow well water"	2009	1						Asia	India	"Sivakasi Town"	9.498		77.783																9.61		42																								"Outside of firworks and safety match industries area; 5-15 m below the ground level; Used for drinking, cooking, cleaning and agriculture"	2017/8/10	2019/7/17
PRA000039	SAA002235	ST016				SV-20	Water	"Shallow well water"	2009	1						Asia	India	"Sivakasi Town"	9.493		77.783																8.74		314																								"5-15 m below the ground level; Used for drinking, cooking, cleaning and agriculture"	2017/8/10	2019/7/17
PRA000039	SAA002236	ST016				SV-21	Water	"Shallow well water"	2009	1						Asia	India	"Sivakasi Town"	9.494		77.783																8.8		263																								"Fireworks and safety match industries area; 5-15 m below the ground level; Used for drinking, cooking, cleaning and agriculture"	2017/8/10	2019/7/17
PRA000039	SAA002237	ST016				SV-22	Water	"Shallow well water"	2009	1						Asia	India	"Sivakasi Town"	9.486		77.783																8.92		190																								"Fireworks and safety match industries area; 5-15 m below the ground level; Used for drinking, cooking, cleaning and agriculture"	2017/8/10	2019/7/17
PRA000039	SAA002238	ST015				SV-23	Water	"Pond water"	2009	1						Asia	India	"Sivakasi Town"	9.482		77.803																9.6		100																								"Fireworks and safety match industries area"	2017/8/10	2019/7/17
PRA000039	SAA002239	ST015				SV-24	Water	"Pond water"	2009	1						Asia	India	"Madurai City"	9.888		78.075																9.45		26																									2017/8/10	2019/7/17
PRA000039	SAA002240	ST016				SV-25	Water	"Shallow well water"	2009	1						Asia	India	"Sivakasi Town"	9.445		77.835																9.02		75																								"Fireworks and safety match industries area; 5-15 m below the ground level; Used for drinking, cooking, cleaning and agriculture"	2017/8/10	2019/7/17
PRA000039	SAA002241	ST016				SV-26	Water	"Shallow well water"	2009	1						Asia	India	"Sivakasi Town"	9.452		77.84																8.66		62																								"Fireworks and safety match industries area; 5-15 m below the ground level; Used for drinking, cooking, cleaning and agriculture"	2017/8/10	2019/7/17
PRA000039	SAA002242	ST016				SV-27	Water	"Shallow well water"	2009	1						Asia	India	"Sivakasi Town"	9.45		77.837																9.06		15																								"Fireworks and safety match industries area; 5-15 m below the ground level; Used for drinking, cooking, cleaning and agriculture"	2017/8/10	2019/7/17
PRA000039	SAA002243	ST016				SV-28	Water	"Shallow well water"	2009	1						Asia	India	"Sivakasi Town"	9.449		77.835																8.86		19																								"Fireworks and safety match industries area; 5-15 m below the ground level; Used for drinking, cooking, cleaning and agriculture"	2017/8/10	2019/7/17
PRA000039	SAA002244	ST015				SV-29	Water	"Pond water"	2009	1						Asia	India	"Sivakasi Town"	9.455		77.833																8.7		18																								"Fireworks and safety match industries area"	2017/8/10	2019/7/17
PRA000039	SAA002245	ST016				SV-30	Water	"Shallow well water"	2009	1						Asia	India	"Sivakasi Town"	9.456		77.835																9.13		38																								"Fireworks and safety match industries area; 5-15 m below the ground level; Used for drinking, cooking, cleaning and agriculture"	2017/8/10	2019/7/17
PRA000039	SAA002246	ST016				SV-31	Water	"Shallow well water"	2009	1						Asia	India	"Sivakasi Town"	9.466		77.836																9.47		46																								"Fireworks and safety match industries area; 5-15 m below the ground level; Used for drinking, cooking, cleaning and agriculture"	2017/8/10	2019/7/17
PRA000039	SAA002247	ST016				SV-32	Water	"Shallow well water"	2009	1						Asia	India	"Sivakasi Town"	9.475		77.839																9.29		98																								"Fireworks and safety match industries area; 5-15 m below the ground level; Used for drinking, cooking, cleaning and agriculture"	2017/8/10	2019/7/17
PRA000039	SAA002248	ST016				SV-33	Water	"Shallow well water"	2009	1						Asia	India	"Sivakasi Town"	9.472		77.838																9.61		47																								"Fireworks and safety match industries area; 5-15 m below the ground level; Used for drinking, cooking, cleaning and agriculture"	2017/8/10	2019/7/17
PRA000039	SAA002249	ST016				SV-34	Water	"Shallow well water"	2009	1						Asia	India	"Sivakasi Town"	9.449		77.835																9.37		21																								"Fireworks and safety match industries area; 5-15 m below the ground level; Used for drinking, cooking, cleaning and agriculture"	2017/8/10	2019/7/17
PRA000039	SAA002250	ST016				SV-35	Water	"Shallow well water"	2009	1						Asia	India	"Sivakasi Town"	9.48		77.836																9.37		37																								"Fireworks and safety match industries area; 5-15 m below the ground level; Used for drinking, cooking, cleaning and agriculture"	2017/8/10	2019/7/17
PRA000039	SAA002251	ST016				SV-36	Water	"Shallow well water"	2009	1						Asia	India	"Sivakasi Town"	9.479		77.835																8.58		133																								"Fireworks and safety match industries area; 5-15 m below the ground level; Used for drinking, cooking, cleaning and agriculture"	2017/8/10	2019/7/17
PRA000039	SAA002252	ST016				SV-37	Water	"Shallow well water"	2009	1						Asia	India	"Sivakasi Town"	9.478		77.834																8.63		105																								"Fireworks and safety match industries area; 5-15 m below the ground level; Used for drinking, cooking, cleaning and agriculture"	2017/8/10	2019/7/17
PRA000039	SAA002253	ST016				SV-38	Water	"Shallow well water"	2009	1						Asia	India	"Sivakasi Town"	9.477		77.833																8.37		82																								"Fireworks and safety match industries area; 5-15 m below the ground level; Used for drinking, cooking, cleaning and agriculture"	2017/8/10	2019/7/17
PRA000039	SAA002254	ST016				SV-39	Water	"Shallow well water"	2009	1						Asia	India	"Sivakasi Town"	9.48		77.819																8.89		122																								"Fireworks and safety match industries area; 5-15 m below the ground level; Used for drinking, cooking, cleaning and agriculture"	2017/8/10	2019/7/17
PRA000039	SAA002255	ST016				SV-40	Water	"Shallow well water"	2009	1						Asia	India	"Sivakasi Town"	9.48		77.815																9.23		210																								"Fireworks and safety match industries area; 5-15 m below the ground level; Used for drinking, cooking, cleaning and agriculture"	2017/8/10	2019/7/17
PRA000039	SAA002256	ST016				SV-41	Water	"Shallow well water"	2009	1						Asia	India	"Sivakasi Town"	9.48		77.813																9.59		236																								"Outside of firworks and safety match industries area; 5-15 m below the ground level; Used for drinking, cooking, cleaning and agriculture"	2017/8/10	2019/7/17
PRA000039	SAA002257	ST016				SV-42	Water	"Shallow well water"	2009	1						Asia	India	"Sivakasi Town"	9.479		77.812																9.62		82																								"Outside of firworks and safety match industries area; 5-15 m below the ground level; Used for drinking, cooking, cleaning and agriculture"	2017/8/10	2019/7/17
PRA000039	SAA002258	ST016				SV-43	Water	"Shallow well water"	2009	1						Asia	India	"Sivakasi Town"	9.477		77.61																8.35		173																								"Outside of firworks and safety match industries area; 5-15 m below the ground level; Used for drinking, cooking, cleaning and agriculture"	2017/8/10	2019/7/17
PRA000039	SAA002259	ST016				SV-44	Water	"Shallow well water"	2009	1						Asia	India	"Sivakasi Town"	9.418		77.786																9.59		94																								"Outside of firworks and safety match industries area; 5-15 m below the ground level; Used for drinking, cooking, cleaning and agriculture"	2017/8/10	2019/7/17
PRA000039	SAA002260	ST016				SV-45	Water	"Shallow well water"	2009	1						Asia	India	"Sivakasi Town"	9.424		77.707																9.45		212																								"Outside of firworks and safety match industries area; 5-15 m below the ground level; Used for drinking, cooking, cleaning and agriculture"	2017/8/10	2019/7/17
PRA000039	SAA002261	ST016				SV-46	Water	"Shallow well water"	2009	1						Asia	India	"Sivakasi Town"	9.428		77.788																9.09		32																								"Outside of firworks and safety match industries area; 5-15 m below the ground level; Used for drinking, cooking, cleaning and agriculture"	2017/8/10	2019/7/17
PRA000039	SAA002262	ST016				SV-47	Water	"Shallow well water"	2009	1						Asia	India	"Sivakasi Town"	9.439		77.792																9.41		156																								"Downtown; residential and sightseeing area; 5-15 m below the ground level; Used for drinking, cooking, cleaning and agriculture"	2017/8/10	2019/7/17
PRA000039	SAA002263	ST016				SV-48	Water	"Shallow well water"	2009	1						Asia	India	"Sivakasi Town"	9.44		77.792																9.77		185																								"Downtown; residential and sightseeing area; 5-15 m below the ground level; Used for drinking, cooking, cleaning and agriculture"	2017/8/10	2019/7/17
PRA000039	SAA002264	ST016				SV-49	Water	"Shallow well water"	2009	1						Asia	India	"Sivakasi Town"	9.441		77.793																9.75		47																								"Downtown; residential and sightseeing area; 5-15 m below the ground level; Used for drinking, cooking, cleaning and agriculture"	2017/8/10	2019/7/17
PRA000039	SAA002265	ST016				SV-50	Water	"Shallow well water"	2009	1						Asia	India	"Sivakasi Town"	9.472	9.492	77.793	77.813															9.27		46																								"Located in a fireworks factory; 5-15 m below the ground level; Used for drinking, cooking, cleaning and agriculture"	2017/8/10	2019/7/17
PRA000039	SAA002266	ST016				SV-51	Water	"Shallow well water"	2009	1						Asia	India	"Sivakasi Town"	9.472	9.492	77.793	77.813															9.21		45																								"Located in a fireworks factory; 5-15 m below the ground level; Used for drinking, cooking, cleaning and agriculture"	2017/8/10	2019/7/17
PRA000039	SAA002267	ST016				SV-52	Water	"Shallow well water"	2009	1						Asia	India	"Sivakasi Town"	9.472	9.492	77.793	77.813															9.52		47																								"Located in a fireworks factory; 5-15 m below the ground level; Used for drinking, cooking, cleaning and agriculture"	2017/8/10	2019/7/17
PRA000039	SAA002268	ST016				SV-53	Water	"Shallow well water"	2009	1						Asia	India	"Sivakasi Town"	9.472	9.492	77.793	77.813															9.52		51																								"Located in a fireworks factory; 5-15 m below the ground level; Used for drinking, cooking, cleaning and agriculture"	2017/8/10	2019/7/17
PRA000039	SAA002269	ST016				SV-54	Water	"Shallow well water"	2009	1						Asia	India	"Sivakasi Town"	9.472	9.492	77.793	77.813															9.45		57																								"Located in a fireworks factory; 5-15 m below the ground level; Used for drinking, cooking, cleaning and agriculture"	2017/8/10	2019/7/17
PRA000039	SAA002270	ST016				MA-2	Water	"Shallow well water"	2009	1						Asia	India	"Madurai City"	9.932		78.115																9.94		112																								"5-15 m below the ground level; Used for drinking, cooking, cleaning and agriculture"	2017/8/10	2019/7/17
PRA000039	SAA002271	ST015				MA-3	Water	"River water"	2009	1						Asia	India	"Madurai City"	9.946		78.079																9.83		66																									2017/8/10	2019/7/17
PRA000039	SAA002272	ST016				MA-4	Water	"Shallow well water"	2009	1						Asia	India	"Madurai City"	9.945		78.077																9.76		45																								"5-15 m below the ground level; Used for drinking, cooking, cleaning and agriculture"	2017/8/10	2019/7/17
PRA000039	SAA002273	ST016				MA-5	Water	"Shallow well water"	2009	1						Asia	India	"Madurai City"	9.945		78.076																9.06		28																								"5-15 m below the ground level; Used for drinking, cooking, cleaning and agriculture"	2017/8/10	2019/7/17
PRA000039	SAA002274	ST016				MA-6	Water	"Deep well water"	2009	1						Asia	India	"Madurai City"	9.947		78.072																9.87		67																								"Tens to hundreds of meters below the ground level"	2017/8/10	2019/7/17
PRA000039	SAA002275	ST016				MA-7	Water	"Shallow well water"	2009	1						Asia	India	"Madurai City"	9.96		78.058																9.77		49																								"5-15 m below the ground level; Used for drinking, cooking, cleaning and agriculture"	2017/8/10	2019/7/17
PRA000039	SAA002276	ST016				MA-8	Water	"Deep well water"	2009	1						Asia	India	"Madurai City"	9.96		78.058																9.6		58																								"Tens to hundreds of meters below the ground level"	2017/8/10	2019/7/17
PRA000039	SAA002277	ST015				MA-9	Water	"River water"	2009	1						Asia	India	"Madurai City"	9.963		78.054																9.57		65																									2017/8/10	2019/7/17
PRA000039	SAA002278	ST016				MA-10	Water	"Shallow well water"	2009	1						Asia	India	"Madurai City"	9.964		78.039																9.78		99																								"5-15 m below the ground level; Used for drinking, cooking, cleaning and agriculture"	2017/8/10	2019/7/17
PRA000039	SAA002279	ST016				MA-11	Water	"Shallow well water"	2009	1						Asia	India	"Madurai City"	9.981		78.012																9.42		140																								"5-15 m below the ground level; Used for drinking, cooking, cleaning and agriculture"	2017/8/10	2019/7/17
PRA000039	SAA002280	ST012				MA-12	Water	"Spring water"	2009	1						Asia	India	"Madurai City"	9.964		77.998																9.7		23																									2017/08/10	2019/07/17
PRA000039	SAA002281	ST015				MA-13	Water	"River water"	2009	1						Asia	India	"Madurai City"	9.975		78.001																9.46		35																									2017/8/10	2019/7/17
PRA000039	SAA002282	ST015				MA-14	Water	"Pond water"	2009	1						Asia	India	"Madurai City"	9.975		78.001																9.44		32																									2017/8/10	2019/7/17
PRA000039	SAA002283	ST015				MA-15	Water	"Pond water"	2009	1						Asia	India	"Madurai City"	9.975		78.002																9.47		42																									2017/8/10	2019/7/17
PRA000039	SAA002284	ST016				MA-16	Water	"Shallow well water"	2009	1						Asia	India	"Madurai City"	9.836		78.003																9.18		30																								"5-15 m below the ground level; Used for drinking, cooking, cleaning and agriculture"	2017/8/10	2019/7/17
PRA000039	SAA002285	ST016				MA-17	Water	"Shallow well water"	2009	1						Asia	India	"Madurai City"	9.834		78.007																8.87		43																								"5-15 m below the ground level; Used for drinking, cooking, cleaning and agriculture"	2017/8/10	2019/7/17
PRA000039	SAA002286	ST016				MA-18	Water	"Shallow well water"	2009	1						Asia	India	"Madurai City"	9.835		78.008																9.29		23																								"5-15 m below the ground level; Used for drinking, cooking, cleaning and agriculture"	2017/8/10	2019/7/17
PRA000039	SAA002287	ST016				MA-19	Water	"Deep well water"	2009	1						Asia	India	"Madurai City"	9.977329	9.857948	78.071325	78.174665															8.74		23																								"Tens to hundreds of meters below the ground level"	2017/8/10	2019/7/17
PRA000039	SAA002288	ST016				MA-20	Water	"Shallow well water"	2009	1						Asia	India	"Madurai City"	9.977329	9.857948	78.071325	78.174665															9.14		98																								"5-15 m below the ground level; Used for drinking, cooking, cleaning and agriculture"	2017/8/10	2019/7/17
PRA000039	SAA002289	ST015				MA-21	Water	"Pond water"	2009	1						Asia	India	"Madurai City"	9.861		78.008																9.58		48																									2017/8/10	2019/7/17
PRA000045	SAA002520	ST015				R-01	Water	"River water"	2013	4	18					Asia	Japan	"Sasame Bridge, Ara Riv (on the right bank)"	35.79663889		139.65																					7.2																						2017/9/13	2019/7/18
PRA000045	SAA002521	ST015				R-02	Water	"River water"	2013	4	26					Asia	Japan	"Jisui Bridge, Ara Riv"	35.88894444		139.5649444																					5																						2017/9/13	2019/7/18
PRA000045	SAA002522	ST015				R-03	Water	"River water"	2013	4	26					Asia	Japan	"Junction of Nakatsu Riv, Ara Riv"	35.948		138.9366389																					0.2																						2017/9/13	2019/7/18
PRA000045	SAA002523	ST015				R-04	Water	"River water"	2013	4	18					Asia	Japan	"Shiba Riv"	35.85880556		139.7168611																					20																						2017/9/13	2019/7/18
PRA000045	SAA002524	ST015				R-05	Water	"River water"	2013	4	18					Asia	Japan	"Shin-shiba Riv"	35.78336111		139.7515																					11.2																						2017/9/13	2019/7/18
PRA000045	SAA002525	ST015				R-06	Water	"River water"	2013	4	18					Asia	Japan	"Kamo Riv"	35.85122222		139.6118611																					26																						2017/9/13	2019/7/18
PRA000045	SAA002526	ST015				R-07	Water	"River water"	2013	4	26					Asia	Japan	"Iruma Riv"	35.93844444		139.5386667																					6.7																						2017/9/13	2019/7/18
PRA000045	SAA002527	ST015				R-08	Water	"River water"	2013	4	26					Asia	Japan	"Oppe Riv"	35.95733333		139.4753611																					11.5																						2017/9/13	2019/7/18
PRA000045	SAA002528	ST015				R-09	Water	"River water"	2013	4	26					Asia	Japan	"Toki Riv"	36.00877778		139.4042222																					1.9																						2017/9/13	2019/7/18
PRA000045	SAA002529	ST015				R-10	Water	"River water"	2013	4	30					Asia	Japan	"Tsuki Riv"	36.04994444		139.2761944																					0.7																						2017/9/13	2019/7/18
PRA000045	SAA002530	ST015				R-11	Water	"River water"	2013	4	26					Asia	Japan	"Koma Riv"	35.95875		139.3881111																					4.6																						2017/9/13	2019/7/18
PRA000045	SAA002531	ST015				R-12	Water	"River water"	2013	4	26					Asia	Japan	"Koaze Riv"	35.94469444		139.4630278																					5.3																						2017/9/13	2019/7/18
PRA000045	SAA002532	ST015				R-13	Water	"River water"	2013	4	26					Asia	Japan	"Kasumi Riv"	35.84141667		139.3891944																					3.2																						2017/9/13	2019/7/18
PRA000045	SAA002533	ST015				R-14	Water	"River water"	2013	4	26					Asia	Japan	"Naruki Riv"	35.83441667		139.3255278																					0.8																						2017/9/13	2019/7/18
PRA000045	SAA002534	ST015				R-15	Water	"River water"	2013	4	26					Asia	Japan	"Ichino Riv"	36.015		139.4736944																					13.8																						2017/9/13	2019/7/18
PRA000045	SAA002535	ST015				R-16	Water	"River water"	2013	4	26					Asia	Japan	"Wadayoshino Riv"	36.07891667		139.4397778																					20.2																						2017/9/13	2019/7/18
PRA000045	SAA002536	ST015				R-17	Water	"River water"	2013	4	26					Asia	Japan	"Akabira Riv"	36.00619444		139.0410278																					0.3																						2017/9/13	2019/7/18
PRA000045	SAA002537	ST015				R-18	Water	"River water"	2013	4	26					Asia	Japan	"Yokoze Riv"	36.02613889		139.1085556																					0.8																						2017/9/13	2019/7/18
PRA000045	SAA002538	ST015				R-19	Water	"River water"	2013	4	11					Asia	Japan	"Naka Riv"	35.84472222		139.8450833																					20.6																						2017/9/13	2019/7/18
PRA000045	SAA002539	ST015				R-20	Water	"River water"	2013	4	11					Asia	Japan	"Ayase Riv"	35.78886111		139.8310833																					9.6																						2017/9/13	2019/7/18
PRA000045	SAA002540	ST015				R-21	Water	"River water"	2013	4	11					Asia	Japan	"Furu-ayase Riv"	35.83213889		139.8133056																					13.2																						2017/9/13	2019/7/18
PRA000045	SAA002541	ST015				R-22	Water	"River water"	2013	4	11					Asia	Japan	"Ohba Riv"	35.79172222		139.8630278																					19																						2017/9/13	2019/7/18
PRA000045	SAA002542	ST015				R-23	Water	"River water"	2013	4	11					Asia	Japan	"Motoara Riv"	35.88380556		139.83925																					10																						2017/9/13	2019/7/18
PRA000045	SAA002543	ST015				R-24	Water	"River water"	2013	4	11					Asia	Japan	"Niigata Riv"	35.89277778		139.8315556																					15.8																						2017/9/13	2019/7/18
PRA000045	SAA002544	ST015				R-25	Water	"River water"	2013	4	11					Asia	Japan	"Ohotoshi-furutone Riv"	35.90683333		139.8253889																					10.2																						2017/9/13	2019/7/18
PRA000045	SAA002545	ST015				R-26	Water	"River water"	2013	4	18					Asia	Japan	"Shingashi Riv"	35.79341667		139.6484444																					3.8																						2017/9/13	2019/7/18
PRA000045	SAA002546	ST015				R-27	Water	"River water"	2013	4	18					Asia	Japan	"Shirako Riv"	35.79333333		139.6436111																					3.3																						2017/9/13	2019/7/18
PRA000045	SAA002547	ST015				R-28	Water	"River water"	2013	4	18					Asia	Japan	"Kurome Riv"	35.80797222		139.6115833																					6.3																						2017/9/13	2019/7/18
PRA000045	SAA002548	ST015				R-29	Water	"River water"	2013	4	18					Asia	Japan	"Yanase Riv"	35.83227778		139.5834444																					2.7																						2017/9/13	2019/7/18
PRA000045	SAA002549	ST015				R-30	Water	"River water"	2013	4	26					Asia	Japan	"Furo Riv"	35.89277778		139.4940278																					2.8																						2017/9/13	2019/7/18
PRA000045	SAA002550	ST015				R-31	Water	"River water"	2013	4	23					Asia	Japan	"Tonegawa Bridge, Tone Riv"	36.14044444		139.7058611																					8																						2017/9/13	2019/7/18
PRA000045	SAA002551	ST015				R-32	Water	"River water"	2013	4	23					Asia	Japan	"Tone-ohzeki intake weir, Tone Riv"	36.18411111		139.4748056																					6.2																						2017/9/13	2019/7/18
PRA000045	SAA002552	ST015				R-33	Water	"River water"	2013	4	11					Asia	Japan	"Nagareyama Bridge, Edo Riv"	35.84244444		139.8933611																					12.4																						2017/9/13	2019/7/18
PRA000045	SAA002553	ST015				R-34	Water	"River water"	2013	4	23					Asia	Japan	"Fuku Riv"	36.19944444		139.3998333																					14.2																						2017/9/13	2019/7/18
PRA000045	SAA002554	ST015				R-35	Water	"River water"	2013	4	23					Asia	Japan	"Koyama Riv"	36.22755556		139.3115556																					3.3																						2017/9/13	2019/7/18
PRA000045	SAA002555	ST015				R-36	Water	"River water"	2013	4	23					Asia	Japan	"Karasawa Riv"	36.21072222		139.2938333																					6.6																						2017/9/13	2019/7/18
PRA000045	SAA002556	ST015				R-37	Water	"River water"	2013	4	23					Asia	Japan	"Motokoyama Riv"	36.23380556		139.2129722																					4.2																						2017/9/13	2019/7/18
PRA000045	SAA002557	ST015				R-38	Water	"River water"	2013	4	23					Asia	Japan	"Kanna Riv"	36.26477778		139.1235556																					1.7																						2017/9/13	2019/7/18
PRA000045	SAA002558	ST015				R-39	Water	"River water"	2013	4	23					Asia	Japan	"Ishida Riv"	36.24030556		139.3820278																					6.1																						2017/9/13	2019/7/18
PRA000045	SAA002559	ST015				R-40	Water	"River water"	2012	11	2					Asia	Japan	"Kasai Bridge, Ara Riv"	35.67102778		139.8487222																					32																						2017/9/13	2019/7/18
PRA000045	SAA002560	ST015				R-41	Water	"River water"	2012	11	2					Asia	Japan	"Sasame Bridge, Ara Riv (on the left bank)"	35.80069444		139.6478333																					9																						2017/9/13	2019/7/18
PRA000045	SAA002561	ST015				R-42	Water	"River water"	2012	10	31					Asia	Japan	"Shin-Katsushika Bridge, Edo Riv"	35.76822222		139.8789722																					6																						2017/9/13	2019/7/18
PRA000045	SAA002562	ST015				R-43	Water	"River water"	2012	10	31					Asia	Japan	"Ryogoku Bridge, Sumida Riv"	35.694258		139.788704																					7																						2017/09/13	2019/07/18
PRA000045	SAA002563	ST015				R-44	Water	"River water"	2012	11	2					Asia	Japan	"Taishi Bridge, Tama Riv"	35.54355556		139.7425556																					2																						2017/9/13	2019/7/18
PRA000045	SAA002564	ST015				R-45	Water	"River water"	2012	10	31					Asia	Japan	"Tamagawara-bashi Bridge, Riv. Tama, Inagi city, Tokyo"	35.643876		139.525471																					2																						2017/09/13	2019/07/18
PRA000045	SAA002565	ST015				R-46	Water	"River water"	2012	11	1					Asia	Japan	"Yoro-ohashi Bridge, Yoro Riv"	35.53216667		140.0778056																					6																						2017/9/13	2019/7/18
PRA000045	SAA002566	ST015				R-47	Water	"River water"	2012	11	1					Asia	Japan	"Asai Bridge, Yoro Riv"	35.46719444		140.1155833																					11																						2017/9/13	2019/7/18
PRA000045	SAA002567	ST015				R-48	Water	"River water"	2012	11	1					Asia	Japan	"Rinkai-Tsurumi Bridge, Tsurumi Riv"	35.5		139.6771944																					2																						2017/9/13	2019/7/18
PRA000045	SAA002568	ST019				E-01	Water	"Sewage treatment plant (STP) effluent"	2013	7	25					Asia	Japan	Saitama/Tokyo	35.50138889	36.28333333	138.7113889	139.9186111																				6.5																					"Large-Scale STP; Type of treatment: Primary and secondary, Conventional activated sludge; Population served (x1000): 1730; Sewage treatment volume (x1000 m<sup>3</sup>/y): 228292"	2017/9/13	2019/7/18
PRA000045	SAA002570	ST019				E-03	Water	"Sewage treatment plant (STP) effluent"	2013	9	10					Asia	Japan	Saitama/Tokyo	35.50138889	36.28333333	138.7113889	139.9186111																				1.4																					"Large-Scale STP; Type of treatment: Primary and secondary, Conventional activated sludge; Population served (x1000): 1487; Sewage treatment volume (x1000 m<sup>3</sup>/y): 183083"	2017/9/13	2019/7/18
PRA000045	SAA002571	ST019				E-04	Water	"Sewage treatment plant (STP) effluent"	2013	9	10					Asia	Japan	Saitama/Tokyo	35.50138889	36.28333333	138.7113889	139.9186111																				0.2																					"Large-Scale STP; Type of treatment: Primary and secondary, Conventional activated sludge; Population served (x1000): 88; Sewage treatment volume (x1000 m<sup>3</sup>/y): 17518"	2017/9/13	2019/7/18
PRA000045	SAA002572	ST019				E-05	Water	"Sewage treatment plant (STP) effluent"	2013	10	3					Asia	Japan	Saitama/Tokyo	35.50138889	36.28333333	138.7113889	139.9186111																				0.6																					"Large-Scale STP; Type of treatment: Primary and secondary, Conventional activated sludge; Population served (x1000): 1249; Sewage treatment volume (x1000 m<sup>3</sup>/y): 140726"	2017/9/13	2019/7/18
PRA000045	SAA002573	ST019				E-06	Water	"Sewage treatment plant (STP) effluent"	2013	9	18					Asia	Japan	Saitama/Tokyo	35.50138889	36.28333333	138.7113889	139.9186111																				1.2																					"Large-Scale STP; Type of treatment: Primary and secondary, Conventional activated sludge; Population served (x1000): 111; Sewage treatment volume (x1000 m<sup>3</sup>/y): 16276"	2017/9/13	2019/7/18
PRA000045	SAA002575	ST019				E-08	Water	"Sewage treatment plant (STP) effluent"	2013	10	9					Asia	Japan	Saitama/Tokyo	35.50138889	36.28333333	138.7113889	139.9186111																				0.7																					"Large-Scale STP; Type of treatment: Primary and secondary, Oxidation ditch; Population served (x1000): 15; Sewage treatment volume (x1000 m<sup>3</sup>/y): 1455"	2017/9/13	2019/7/18
PRA000045	SAA002577	ST019				E-10	Water	"Sewage treatment plant (STP) effluent"	2013	6	23					Asia	Japan	Saitama/Tokyo	35.50138889	36.28333333	138.7113889	139.9186111																				2.3																					"Large-Scale STP; Type of treatment: Primary and secondary, Conventional activated sludge; Population served (x1000):727; Sewage treatment volume (x1000 m<sup>3</sup>/y): 87890"	2017/9/13	2019/7/18
PRA000045	SAA002578	ST019				E-11	Water	"Sewage treatment plant (STP) effluent"	2013	2	14					Asia	Japan	Saitama/Tokyo	35.50138889	36.28333333	138.7113889	139.9186111																				3.3																					"Large-Scale STP; Type of treatment: Primary and secondary, Conventional activated sludge; Population served (x1000): 11; Sewage treatment volume (x1000 m<sup>3</sup>/y): 5630"	2017/9/13	2019/7/18
PRA000045	SAA002580	ST019				E-13	Water	"Sewage treatment plant (STP) effluent"	2013	9	12					Asia	Japan	Saitama/Tokyo	35.50138889	36.28333333	138.7113889	139.9186111																				1.9																					"Large-Scale STP; Type of treatment: Primary and secondary, Conventional activated sludge; Population served (x1000): 49; Sewage treatment volume (x1000 m<sup>3</sup>/y): 6143"	2017/9/13	2019/7/18
PRA000045	SAA002581	ST019				E-14	Water	"Sewage treatment plant (STP) effluent"	2014	10	28					Asia	Japan	Saitama/Tokyo	35.50138889	36.28333333	138.7113889	139.9186111																				4																					"Large-Scale STP; Type of treatment: Primary and secondary, Conventional activated sludge; Population served (x1000): 57; Sewage treatment volume (x1000 m<sup>3</sup>/y): 8172"	2017/9/13	2019/7/18
PRA000045	SAA002582	ST019				E-15	Water	"Sewage treatment plant (STP) effluent"	2015	1	8					Asia	Japan	Saitama/Tokyo	35.50138889	36.28333333	138.7113889	139.9186111																				1.5																					"Large-Scale STP; Type of treatment: Primary and secondary, Conventional activated sludge; Population served (x1000): 650; Sewage treatment volume (x1000 m<sup>3</sup>/y): 68123"	2017/9/13	2019/7/18
PRA000045	SAA002583	ST019				E-16	Water	"Sewage treatment plant (STP) effluent"	2014	10	17					Asia	Japan	Saitama/Tokyo	35.50138889	36.28333333	138.7113889	139.9186111																				4.4																					"Large-Scale STP; Type of treatment: Primary and secondary, Conventional activated sludge; Population served (x1000): 757; Sewage treatment volume (x1000 m<sup>3</sup>/y): 126144"	2017/9/13	2019/7/18
PRA000045	SAA002584	ST019				E-17	Water	"Sewage treatment plant (STP) effluent"	2014	10	17					Asia	Japan	Saitama/Tokyo	35.50138889	36.28333333	138.7113889	139.9186111																																									"Large-Scale STP; Type of treatment: Primary and secondary, Conventional activated sludge; Population served (x1000): 811; Sewage treatment volume (x1000 m<sup>3</sup>/y): 183579; SS(mg/L): NA"	2017/9/13	2019/7/18
PRA000045	SAA002585	ST019				E-18	Water	"Sewage treatment plant (STP) effluent"	2014	3	3					Asia	Japan	Saitama/Tokyo	35.50138889	36.28333333	138.7113889	139.9186111																				2																					"Large-Scale STP; Type of treatment: Primary and secondary, Conventional activated sludge; Population served (x1000): 498; Sewage treatment volume (x1000 m<sup>3</sup>/y): 85064"	2017/9/13	2019/7/18
PRA000045	SAA002586	ST019				E-19	Water	"Sewage treatment plant (STP) effluent"	2012	11	26					Asia	Japan	Saitama/Tokyo	35.50138889	36.28333333	138.7113889	139.9186111																				1.2																					"Small-Scale STP; Type of treatment: Primary and secondary, Oxidation ditch; Population served (x1000): 0.94; Sewage treatment volume (x1000 m<sup>3</sup>/y): 47"	2017/9/13	2019/7/18
PRA000045	SAA002587	ST019				E-20	Water	"Sewage treatment plant (STP) effluent"	2012	10	5					Asia	Japan	Saitama/Tokyo	35.50138889	36.28333333	138.7113889	139.9186111																																									"Small-Scale STP; Type of treatment: Primary and secondary, Oxidation ditch; Population served (x1000): 0.88; Sewage treatment volume (x1000 m<sup>3</sup>/y): 80; SS(mg/L): NA"	2017/9/13	2019/7/18
PRA000045	SAA002588	ST019				E-21	Water	"Sewage treatment plant (STP) effluent"	2012	11	28					Asia	Japan	Saitama/Tokyo	35.50138889	36.28333333	138.7113889	139.9186111																				2.4																					"Small-Scale STP; Type of treatment: Primary and secondary, Intermittent aeration/activated sludge; Population served (x1000): 0.73; Sewage treatment volume (x1000 m<sup>3</sup>/y): 112"	2017/9/13	2019/7/18
PRA000045	SAA002589	ST019				E-22	Water	"Sewage treatment plant (STP) effluent"	2012	11	28					Asia	Japan	Saitama/Tokyo	35.50138889	36.28333333	138.7113889	139.9186111																				2.3																					"Small-Scale STP; Type of treatment: Primary and secondary, Membrane separation activated sludge; Population served (x1000): 0.95; Sewage treatment volume (x1000 m<sup>3</sup>/y): 108"	2017/9/13	2019/7/18
PRA000045	SAA002590	ST019				E-23	Water	"Sewage treatment plant (STP) effluent"	2012	11	26					Asia	Japan	Saitama/Tokyo	35.50138889	36.28333333	138.7113889	139.9186111																				0.5																					"Small-Scale STP; Type of treatment: Primary and secondary, Intermittent aeration; Population served (x1000): 0.71; Sewage treatment volume (x1000 m<sup>3</sup>/y): 69"	2017/9/13	2019/7/18
PRA000045	SAA002591	ST019				E-24	Water	"Sewage treatment plant (STP) effluent"	2012	11	26					Asia	Japan	Saitama/Tokyo	35.50138889	36.28333333	138.7113889	139.9186111																				2.7																					"Small-Scale STP; Type of treatment: Primary and secondary, Contact aeration/activated sludge; Population served (x1000): 0.93; Sewage treatment volume (x1000 m<sup>3</sup>/y): 142"	2017/9/13	2019/7/18
PRA000045	SAA002592	ST019				E-25	Water	"Sewage treatment plant (STP) effluent"	2012	11	28					Asia	Japan	Saitama/Tokyo	35.50138889	36.28333333	138.7113889	139.9186111																				7.8																					"Small-Scale STP; Type of treatment: Primary and secondary, Contact aeration/activated sludge; Population served (x1000): 0.87; Sewage treatment volume (x1000 m<sup>3</sup>/y): 129"	2017/9/13	2019/7/18
PRA000045	SAA002576	ST019				E-09	Water	"Sewage treatment plant (STP) effluent"	2012	12	10					Asia	Japan	Saitama/Tokyo	35.50138889	36.28333333	138.7113889	139.9186111																				1.1																					"Collected on 2012/12/10 & 2013/10/9; Large-Scale STP; Type of treatment: Primary and secondary, Oxidation ditch; Population served (x1000): 34; Sewage treatment volume (x1000 m<sup>3</sup>/y): 3840; SS (mg/L): 1.1 (mean)"	2017/9/13	2019/7/18
PRA000045	SAA002569	ST019				E-02	Water	"Sewage treatment plant (STP) effluent"	2013							Asia	Japan	Saitama/Tokyo	35.50138889	36.28333333	138.7113889	139.9186111																				3.1																					"Collected Jan-Dec 2013(n=12); Large-Scale STP; Type of treatment: Primary and secondary, Conventional activated sludge; Population served (x1000): 323; Sewage treatment volume (x1000 m<sup>3</sup>/y): 48804; SS (mg/L): mean value"	2017/9/13	2019/7/18
PRA000045	SAA002574	ST019				E-07	Water	"Sewage treatment plant (STP) effluent"	2012	10	11					Asia	Japan	Saitama/Tokyo	35.50138889	36.28333333	138.7113889	139.9186111																				2																					"Collected on 2012/10/12 & 2013/9/26; Large-Scale STP; Type of treatment: Primary and secondary, Conventional activated sludge; Population served (x1000): 44; Sewage treatment volume (x1000 m<sup>3</sup>/y): 4783; SS (mg/L): mean value"	2017/9/13	2019/7/18
PRA000045	SAA002579	ST019				E-12	Water	"Sewage treatment plant (STP) effluent"	2013	10	29					Asia	Japan	Saitama/Tokyo	35.50138889	36.28333333	138.7113889	139.9186111																				12.4																					"Collected on 2013/10/29 & 2014/9/11; Large-Scale STP; Type of treatment: Primary and secondary, Conventional activated sludge; Population served (x1000): 33; Sewage treatment volume (x1000 m<sup>3</sup>/y): 7255; SS (mg/L): mean value"	2017/9/13	2019/7/18
PRA000046	SAA002593	ST014				SW-A1	Water	"Surface water"	2013	3	5					Asia	Japan	"Hiroshima Bay"	34.206		132.315															10					29.6		"0.1 - 0.2"																				"Near an aquaculture net"	2017/10/6	2019/7/18
PRA000046	SAA002594	ST014				SW-B1	Water	"Surface water"	2013	3	5					Asia	Japan	"Hiroshima Bay"	34.301		132.365															9.8					24.4		"0.1 - 0.2"																				"At the center of the Hiroshima Bay and along a sea route"	2017/10/6	2019/7/18
PRA000046	SAA002595	ST014				SW-C1	Water	"Surface water"	2013	3	5					Asia	Japan	"Hiroshima Bay"	34.275		132.418															9.8					25.4		"0.1 - 0.2"																				"River mouth region"	2017/10/6	2019/7/18
PRA000046	SAA002596	ST014				SW-D1	Water	"Surface water"	2013	3	5					Asia	Japan	"Hiroshima Bay"	34.335		132.434															11.3					25.2		"0.1 - 0.2"																				"River mouth region"	2017/10/6	2019/7/18
PRA000046	SAA002597	ST014				SW-E1	Water	"Surface water"	2013	3	5					Asia	Japan	"Hiroshima Bay"	34.333		132.367															10.4					25.3		"0.1 - 0.2"																				"River mouth region"	2017/10/6	2019/7/18
PRA000046	SAA002598	ST014				SW-A2	Water	"Surface water"	2012	12	5					Asia	Japan	"Hiroshima Bay"	34.206		132.315															15.9					29.8		"0.1 - 0.2"																				"Near an aquaculture net"	2017/10/6	2019/7/18
PRA000046	SAA002599	ST014				SW-B2	Water	"Surface water"	2012	12	5					Asia	Japan	"Hiroshima Bay"	34.301		132.365															16.2					29.6		"0.1 - 0.2"																				"At the center of the Hiroshima Bay and along a sea route"	2017/10/6	2019/7/18
PRA000046	SAA002600	ST014				SW-C2	Water	"Surface water"	2012	12	5					Asia	Japan	"Hiroshima Bay"	34.275		132.418															15.6					29.8		"0.1 - 0.2"																				"River mouth region"	2017/10/6	2019/7/18
PRA000046	SAA002601	ST014				SW-D2	Water	"Surface water"	2012	12	5					Asia	Japan	"Hiroshima Bay"	34.335		132.434															15.5					30.1		"0.1 - 0.2"																				"River mouth region"	2017/10/6	2019/7/18
PRA000046	SAA002602	ST014				SW-E2	Water	"Surface water"	2012	12	5					Asia	Japan	"Hiroshima Bay"	34.333		132.367															13.9					28		"0.1 - 0.2"																				"River mouth region"	2017/10/6	2019/7/18
PRA000046	SAA002603	ST014				SW-A3	Water	"Surface water"	2012	10	4					Asia	Japan	"Hiroshima Bay"	34.206		132.315															24.2					30.3		"0.1 - 0.2"																				"Near an aquaculture net"	2017/10/6	2019/7/18
PRA000046	SAA002604	ST014				SW-B3	Water	"Surface water"	2012	10	4					Asia	Japan	"Hiroshima Bay"	34.301		132.365															24.3					30.3		"0.1 - 0.2"																				"At the center of the Hiroshima Bay and along a sea route"	2017/10/6	2019/7/18
PRA000046	SAA002605	ST014				SW-C3	Water	"Surface water"	2012	10	4					Asia	Japan	"Hiroshima Bay"	34.275		132.418															24.5					30.5		"0.1 - 0.2"																				"River mouth region"	2017/10/6	2019/7/18
PRA000046	SAA002606	ST014				SW-D3	Water	"Surface water"	2012	10	4					Asia	Japan	"Hiroshima Bay"	34.335		132.434															24.3					29.8		"0.1 - 0.2"																				"River mouth region"	2017/10/6	2019/7/18
PRA000046	SAA002607	ST014				SW-E3	Water	"Surface water"	2012	10	4					Asia	Japan	"Hiroshima Bay"	34.333		132.367															24.1					29.7		"0.1 - 0.2"																				"River mouth region"	2017/10/6	2019/7/18
PRA000046	SAA002608	ST014				SW-A4	Water	"Surface water"	2012	8	8					Asia	Japan	"Hiroshima Bay"	34.206		132.315															26.7					28.5		"0.1 - 0.2"																				"Near an aquaculture net"	2017/10/6	2019/7/18
PRA000046	SAA002609	ST014				SW-B4	Water	"Surface water"	2012	8	8					Asia	Japan	"Hiroshima Bay"	34.301		132.365															28					27.9		"0.1 - 0.2"																				"At the center of the Hiroshima Bay and along a sea route"	2017/10/6	2019/7/18
PRA000046	SAA002610	ST014				SW-C4	Water	"Surface water"	2012	8	8					Asia	Japan	"Hiroshima Bay"	34.275		132.418															25.9					29.7		"0.1 - 0.2"																				"River mouth region"	2017/10/6	2019/7/18
PRA000046	SAA002611	ST014				SW-D4	Water	"Surface water"	2012	8	8					Asia	Japan	"Hiroshima Bay"	34.335		132.434															27.4					26.5		"0.1 - 0.2"																				"River mouth region"	2017/10/6	2019/7/18
PRA000046	SAA002612	ST014				SW-E4	Water	"Surface water"	2012	8	8					Asia	Japan	"Hiroshima Bay"	34.333		132.367															28					25		"0.1 - 0.2"																				"River mouth region"	2017/10/6	2019/7/18
PRA000046	SAA002613	ST014				SW-A5	Water	"Surface water"	2012	6	26					Asia	Japan	"Hiroshima Bay"	34.206		132.315															21.3					28.9		"0.1 - 0.2"																				"Near an aquaculture net"	2017/10/6	2019/7/18
PRA000046	SAA002614	ST014				SW-B5	Water	"Surface water"	2012	6	26					Asia	Japan	"Hiroshima Bay"	34.301		132.365															21.2					27.8		"0.1 - 0.2"																				"At the center of the Hiroshima Bay and along a sea route"	2017/10/6	2019/7/18
PRA000046	SAA002615	ST014				SW-C5	Water	"Surface water"	2012	6	26					Asia	Japan	"Hiroshima Bay"	34.275		132.418															21					28.8		"0.1 - 0.2"																				"River mouth region"	2017/10/6	2019/7/18
PRA000046	SAA002616	ST014				SW-D5	Water	"Surface water"	2012	6	26					Asia	Japan	"Hiroshima Bay"	34.335		132.434															21.3					21.6		"0.1 - 0.2"																				"River mouth region"	2017/10/6	2019/7/18
PRA000046	SAA002617	ST014				SW-E5	Water	"Surface water"	2012	6	26					Asia	Japan	"Hiroshima Bay"	34.333		132.367															22.2					23.4		"0.1 - 0.2"																				"River mouth region"	2017/10/6	2019/7/18
PRA000046	SAA002618	ST014				SW-A6	Water	"Surface water"	2012	4	24					Asia	Japan	"Hiroshima Bay"	34.206		132.315															15.2					27.8		"0.1 - 0.2"																				"Near an aquaculture net"	2017/10/6	2019/7/18
PRA000046	SAA002619	ST014				SW-B6	Water	"Surface water"	2012	4	24					Asia	Japan	"Hiroshima Bay"	34.301		132.365															15.4					25.8		"0.1 - 0.2"																				"At the center of the Hiroshima Bay and along a sea route"	2017/10/6	2019/7/18
PRA000046	SAA002620	ST014				SW-C6	Water	"Surface water"	2012	4	24					Asia	Japan	"Hiroshima Bay"	34.275		132.418															16.1					29.4		"0.1 - 0.2"																				"River mouth region"	2017/10/6	2019/7/18
PRA000046	SAA002621	ST014				SW-D6	Water	"Surface water"	2012	4	24					Asia	Japan	"Hiroshima Bay"	34.335		132.434															16.1					24.7		"0.1 - 0.2"																				"River mouth region"	2017/10/6	2019/7/18
PRA000046	SAA002622	ST014				SW-E6	Water	"Surface water"	2012	4	24					Asia	Japan	"Hiroshima Bay"	34.333		132.367															17.6					23.8		"0.1 - 0.2"																				"River mouth region"	2017/10/6	2019/7/18
PRA000046	SAA002623	ST014				SW-A7	Water	"Surface water"	2012	2	21					Asia	Japan	"Hiroshima Bay"	34.206		132.315															9.2					30.7		"0.1 - 0.2"																				"Near an aquaculture net"	2017/10/6	2019/7/18
PRA000046	SAA002624	ST014				SW-B7	Water	"Surface water"	2012	2	21					Asia	Japan	"Hiroshima Bay"	34.301		132.365															8.8					29.2		"0.1 - 0.2"																				"At the center of the Hiroshima Bay and along a sea route"	2017/10/6	2019/7/18
PRA000046	SAA002625	ST014				SW-C7	Water	"Surface water"	2012	2	21					Asia	Japan	"Hiroshima Bay"	34.275		132.418															9.4					30.6		"0.1 - 0.2"																				"River mouth region"	2017/10/6	2019/7/18
PRA000046	SAA002626	ST014				SW-D7	Water	"Surface water"	2012	2	21					Asia	Japan	"Hiroshima Bay"	34.335		132.434															9.6					29.8		"0.1 - 0.2"																				"River mouth region"	2017/10/6	2019/7/18
PRA000046	SAA002627	ST014				SW-E7	Water	"Surface water"	2012	2	21					Asia	Japan	"Hiroshima Bay"	34.333		132.367															8.6					28		"0.1 - 0.2"																				"River mouth region"	2017/10/6	2019/7/18
PRA000046	SAA002628	ST014				SW-A8	Water	"Surface water"	2011	12	6					Asia	Japan	"Hiroshima Bay"	34.206		132.315															17.1					30.7		"0.1 - 0.2"																				"Near an aquaculture net"	2017/10/6	2019/7/18
PRA000046	SAA002629	ST014				SW-B8	Water	"Surface water"	2011	12	6					Asia	Japan	"Hiroshima Bay"	34.301		132.365															16.9					30		"0.1 - 0.2"																				"At the center of the Hiroshima Bay and along a sea route"	2017/10/6	2019/7/18
PRA000046	SAA002630	ST014				SW-C8	Water	"Surface water"	2011	12	6					Asia	Japan	"Hiroshima Bay"	34.275		132.418															16.9					30.5		"0.1 - 0.2"																				"River mouth region"	2017/10/6	2019/7/18
PRA000046	SAA002631	ST014				SW-D8	Water	"Surface water"	2011	12	6					Asia	Japan	"Hiroshima Bay"	34.335		132.434															16.7					28.3		"0.1 - 0.2"																				"River mouth region"	2017/10/6	2019/7/18
PRA000046	SAA002632	ST014				SW-E8	Water	"Surface water"	2011	12	6					Asia	Japan	"Hiroshima Bay"	34.333		132.367															16.7					28.9		"0.1 - 0.2"																				"River mouth region"	2017/10/6	2019/7/18
PRA000046	SAA002633	ST014				SW-A9	Water	"Surface water"	2011	10	5					Asia	Japan	"Hiroshima Bay"	34.206		132.315															23.3					30.8		"0.1 - 0.2"																				"Near an aquaculture net"	2017/10/6	2019/7/18
PRA000046	SAA002634	ST014				SW-B9	Water	"Surface water"	2011	10	5					Asia	Japan	"Hiroshima Bay"	34.301		132.365															23					30.2		"0.1 - 0.2"																				"At the center of the Hiroshima Bay and along a sea route"	2017/10/6	2019/7/18
PRA000046	SAA002635	ST014				SW-C9	Water	"Surface water"	2011	10	5					Asia	Japan	"Hiroshima Bay"	34.275		132.418															23.6					30.9		"0.1 - 0.2"																				"River mouth region"	2017/10/6	2019/7/18
PRA000046	SAA002636	ST014				SW-D9	Water	"Surface water"	2011	10	5					Asia	Japan	"Hiroshima Bay"	34.335		132.434															23.5					29.4		"0.1 - 0.2"																				"River mouth region"	2017/10/6	2019/7/18
PRA000046	SAA002637	ST014				SW-E9	Water	"Surface water"	2011	10	5					Asia	Japan	"Hiroshima Bay"	34.333		132.367															22.4					29.4		"0.1 - 0.2"																				"River mouth region"	2017/10/6	2019/7/18
PRA000046	SAA002638	ST014				SW-A10	Water	"Surface water"	2011	8	17					Asia	Japan	"Hiroshima Bay"	34.206		132.315															26.5					30.8		"0.1 - 0.2"																				"Near an aquaculture net"	2017/10/6	2019/7/18
PRA000046	SAA002639	ST014				SW-B10	Water	"Surface water"	2011	8	17					Asia	Japan	"Hiroshima Bay"	34.301		132.365															26.5					30.2		"0.1 - 0.2"																				"At the center of the Hiroshima Bay and along a sea route"	2017/10/6	2019/7/18
PRA000046	SAA002640	ST014				SW-C10	Water	"Surface water"	2011	8	17					Asia	Japan	"Hiroshima Bay"	34.275		132.418															26.3					30.8		"0.1 - 0.2"																				"River mouth region"	2017/10/6	2019/7/18
PRA000046	SAA002641	ST014				SW-D10	Water	"Surface water"	2011	8	17					Asia	Japan	"Hiroshima Bay"	34.335		132.434															27.6					26.2		"0.1 - 0.2"																				"River mouth region"	2017/10/6	2019/7/18
PRA000046	SAA002642	ST014				SW-E10	Water	"Surface water"	2011	8	17					Asia	Japan	"Hiroshima Bay"	34.333		132.367															27.2					28.6		"0.1 - 0.2"																				"River mouth region"	2017/10/6	2019/7/18
PRA000046	SAA002643	ST014				SW-A11	Water	"Surface water"	2011	6	28					Asia	Japan	"Hiroshima Bay"	34.206		132.315															22.2					30		"0.1 - 0.2"																				"Near an aquaculture net"	2017/10/6	2019/7/18
PRA000046	SAA002644	ST014				SW-B11	Water	"Surface water"	2011	6	28					Asia	Japan	"Hiroshima Bay"	34.301		132.365															24.4					25.8		"0.1 - 0.2"																				"At the center of the Hiroshima Bay and along a sea route"	2017/10/6	2019/7/18
PRA000046	SAA002645	ST014				SW-C11	Water	"Surface water"	2011	6	28					Asia	Japan	"Hiroshima Bay"	34.275		132.418															23.5					28.7		"0.1 - 0.2"																				"River mouth region"	2017/10/6	2019/7/18
PRA000046	SAA002646	ST014				SW-D11	Water	"Surface water"	2011	6	28					Asia	Japan	"Hiroshima Bay"	34.335		132.434															25.4					22.9		"0.1 - 0.2"																				"River mouth region"	2017/10/6	2019/7/18
PRA000046	SAA002647	ST014				SW-E11	Water	"Surface water"	2011	6	28					Asia	Japan	"Hiroshima Bay"	34.333		132.367															25.4					24.4		"0.1 - 0.2"																				"River mouth region"	2017/10/6	2019/7/18
PRA000046	SAA002648	ST014				SW-A12	Water	"Surface water"	2011	5	10					Asia	Japan	"Hiroshima Bay"	34.206		132.315															17.4					30.2		"0.1 - 0.2"																				"Near an aquaculture net"	2017/10/6	2019/7/18
PRA000046	SAA002649	ST014				SW-B12	Water	"Surface water"	2011	5	10					Asia	Japan	"Hiroshima Bay"	34.301		132.365															17.6					30		"0.1 - 0.2"																				"At the center of the Hiroshima Bay and along a sea route"	2017/10/6	2019/7/18
PRA000046	SAA002650	ST014				SW-C12	Water	"Surface water"	2011	5	10					Asia	Japan	"Hiroshima Bay"	34.275		132.418															18.1					30.3		"0.1 - 0.2"																				"River mouth region"	2017/10/6	2019/7/18
PRA000046	SAA002651	ST014				SW-D12	Water	"Surface water"	2011	5	10					Asia	Japan	"Hiroshima Bay"	34.335		132.434															19.1					25.1		"0.1 - 0.2"																				"River mouth region"	2017/10/6	2019/7/18
PRA000046	SAA002652	ST014				SW-E12	Water	"Surface water"	2011	5	10					Asia	Japan	"Hiroshima Bay"	34.333		132.367															17.8					29.6		"0.1 - 0.2"																				"River mouth region"	2017/10/6	2019/7/18
PRA000046	SAA002653	ST014				BW-A1	Water	"Bottom water"	2013	3	5					Asia	Japan	"Hiroshima Bay"	34.206		132.315															10.1					28.2		33																				"Near an aquaculture net"	2017/10/6	2019/7/18
PRA000046	SAA002654	ST014				BW-B1	Water	"Bottom water"	2013	3	5					Asia	Japan	"Hiroshima Bay"	34.301		132.365															10.6					27.3		29																				"At the center of the Hiroshima Bay and along a sea route"	2017/10/6	2019/7/18
PRA000046	SAA002655	ST014				BW-C1	Water	"Bottom water"	2013	3	5					Asia	Japan	"Hiroshima Bay"	34.275		132.418															10.5					28.2		16																				"River mouth region"	2017/10/6	2019/7/18
PRA000046	SAA002656	ST014				BW-D1	Water	"Bottom water"	2013	3	5					Asia	Japan	"Hiroshima Bay"	34.335		132.434															10.5					28.3		20																				"River mouth region"	2017/10/6	2019/7/18
PRA000046	SAA002657	ST014				BW-E1	Water	"Bottom water"	2013	3	5					Asia	Japan	"Hiroshima Bay"	34.333		132.367															10.9					29.8		15																				"River mouth region"	2017/10/6	2019/7/18
PRA000046	SAA002658	ST014				BW-A2	Water	"Bottom water"	2012	12	5					Asia	Japan	"Hiroshima Bay"	34.206		132.315															16.1					30.3		33																				"Near an aquaculture net"	2017/10/6	2019/7/18
PRA000046	SAA002659	ST014				BW-B2	Water	"Bottom water"	2012	12	5					Asia	Japan	"Hiroshima Bay"	34.301		132.365															16.2					30.3		29																				"At the center of the Hiroshima Bay and along a sea route"	2017/10/6	2019/7/18
PRA000046	SAA002660	ST014				BW-C2	Water	"Bottom water"	2012	12	5					Asia	Japan	"Hiroshima Bay"	34.275		132.418															15.3					29.9		16																				"River mouth region"	2017/10/6	2019/7/18
PRA000046	SAA002661	ST014				BW-D2	Water	"Bottom water"	2012	12	5					Asia	Japan	"Hiroshima Bay"	34.335		132.434															15.9					29.9		20																				"River mouth region"	2017/10/6	2019/7/18
PRA000046	SAA002662	ST014				BW-E2	Water	"Bottom water"	2012	12	5					Asia	Japan	"Hiroshima Bay"	34.333		132.367															15.8					29.9		15																				"River mouth region"	2017/10/6	2019/7/18
PRA000046	SAA002663	ST014				BW-A3	Water	"Bottom water"	2012	10	4					Asia	Japan	"Hiroshima Bay"	34.206		132.315															24.1					31		33																				"Near an aquaculture net"	2017/10/6	2019/7/18
PRA000046	SAA002664	ST014				BW-B3	Water	"Bottom water"	2012	10	4					Asia	Japan	"Hiroshima Bay"	34.301		132.365															24.2					30.5		29																				"At the center of the Hiroshima Bay and along a sea route"	2017/10/6	2019/7/18
PRA000046	SAA002665	ST014				BW-C3	Water	"Bottom water"	2012	10	4					Asia	Japan	"Hiroshima Bay"	34.275		132.418															24.2					30.4		16																				"River mouth region"	2017/10/6	2019/7/18
PRA000046	SAA002666	ST014				BW-D3	Water	"Bottom water"	2012	10	4					Asia	Japan	"Hiroshima Bay"	34.335		132.434															24.2					30.2		20																				"River mouth region"	2017/10/6	2019/7/18
PRA000046	SAA002667	ST014				BW-E3	Water	"Bottom water"	2012	10	4					Asia	Japan	"Hiroshima Bay"	34.333		132.367															24.2					30.3		15																				"River mouth region"	2017/10/6	2019/7/18
PRA000046	SAA002668	ST014				BW-A4	Water	"Bottom water"	2012	8	8					Asia	Japan	"Hiroshima Bay"	34.206		132.315															22.1					30.7		33																				"Near an aquaculture net"	2017/10/6	2019/7/18
PRA000046	SAA002669	ST014				BW-B4	Water	"Bottom water"	2012	8	8					Asia	Japan	"Hiroshima Bay"	34.301		132.365															21.9					30.5		29																				"At the center of the Hiroshima Bay and along a sea route"	2017/10/6	2019/7/18
PRA000046	SAA002670	ST014				BW-C4	Water	"Bottom water"	2012	8	8					Asia	Japan	"Hiroshima Bay"	34.275		132.418															21.7					30.6		16																				"River mouth region"	2017/10/6	2019/7/18
PRA000046	SAA002671	ST014				BW-D4	Water	"Bottom water"	2012	8	8					Asia	Japan	"Hiroshima Bay"	34.335		132.434															21.7					30.1		20																				"River mouth region"	2017/10/6	2019/7/18
PRA000046	SAA002672	ST014				BW-E4	Water	"Bottom water"	2012	8	8					Asia	Japan	"Hiroshima Bay"	34.333		132.367															25					28.8		15																				"River mouth region"	2017/10/6	2019/7/18
PRA000046	SAA002673	ST014				BW-A5	Water	"Bottom water"	2012	6	26					Asia	Japan	"Hiroshima Bay"	34.206		132.315															18.1					31.8		33																				"Near an aquaculture net"	2017/10/6	2019/7/18
PRA000046	SAA002674	ST014				BW-B5	Water	"Bottom water"	2012	6	26					Asia	Japan	"Hiroshima Bay"	34.301		132.365															19					30.5		29																				"At the center of the Hiroshima Bay and along a sea route"	2017/10/6	2019/7/18
PRA000046	SAA002675	ST014				BW-C5	Water	"Bottom water"	2012	6	26					Asia	Japan	"Hiroshima Bay"	34.275		132.418															18.1					31.4		16																				"River mouth region"	2017/10/6	2019/7/18
PRA000046	SAA002676	ST014				BW-D5	Water	"Bottom water"	2012	6	26					Asia	Japan	"Hiroshima Bay"	34.335		132.434															17.5					31.5		20																				"River mouth region"	2017/10/6	2019/7/18
PRA000046	SAA002677	ST014				BW-E5	Water	"Bottom water"	2012	6	26					Asia	Japan	"Hiroshima Bay"	34.333		132.367															17.4					31.4		15																				"River mouth region"	2017/10/6	2019/7/18
PRA000046	SAA002678	ST014				BW-A6	Water	"Bottom water"	2012	4	24					Asia	Japan	"Hiroshima Bay"	34.206		132.315															12.5					31.8		33																				"Near an aquaculture net"	2017/10/6	2019/7/18
PRA000046	SAA002679	ST014				BW-B6	Water	"Bottom water"	2012	4	24					Asia	Japan	"Hiroshima Bay"	34.301		132.365															13.5					31.6		29																				"At the center of the Hiroshima Bay and along a sea route"	2017/10/6	2019/7/18
PRA000046	SAA002680	ST014				BW-C6	Water	"Bottom water"	2012	4	24					Asia	Japan	"Hiroshima Bay"	34.275		132.418															15.6					31.5		16																				"River mouth region"	2017/10/6	2019/7/18
PRA000046	SAA002681	ST014				BW-D6	Water	"Bottom water"	2012	4	24					Asia	Japan	"Hiroshima Bay"	34.335		132.434															13.4					31.3		20																				"River mouth region"	2017/10/6	2019/7/18
PRA000046	SAA002682	ST014				BW-E6	Water	"Bottom water"	2012	4	24					Asia	Japan	"Hiroshima Bay"	34.333		132.367															13.1					31.4		15																				"River mouth region"	2017/10/6	2019/7/18
PRA000046	SAA002683	ST014				BW-A7	Water	"Bottom water"	2012	2	21					Asia	Japan	"Hiroshima Bay"	34.206		132.315															9.9					31.1		33																				"Near an aquaculture net"	2017/10/6	2019/7/18
PRA000046	SAA002684	ST014				BW-B7	Water	"Bottom water"	2012	2	21					Asia	Japan	"Hiroshima Bay"	34.301		132.365																				26.5		29																				"At the center of the Hiroshima Bay and along a sea route"	2017/10/6	2019/7/18
PRA000046	SAA002685	ST014				BW-C7	Water	"Bottom water"	2012	2	21					Asia	Japan	"Hiroshima Bay"	34.275		132.418															9.6					30.9		16																				"River mouth region"	2017/10/6	2019/7/18
PRA000046	SAA002686	ST014				BW-D7	Water	"Bottom water"	2012	2	21					Asia	Japan	"Hiroshima Bay"	34.335		132.434															10.3					31		20																				"River mouth region"	2017/10/6	2019/7/18
PRA000046	SAA002687	ST014				BW-E7	Water	"Bottom water"	2012	2	21					Asia	Japan	"Hiroshima Bay"	34.333		132.367															10.3					31.1		15																				"River mouth region"	2017/10/6	2019/7/18
PRA000046	SAA002688	ST014				BW-A8	Water	"Bottom water"	2011	12	6					Asia	Japan	"Hiroshima Bay"	34.206		132.315															17.5					30.9		33																				"Near an aquaculture net"	2017/10/6	2019/7/18
PRA000046	SAA002689	ST014				BW-B8	Water	"Bottom water"	2011	12	6					Asia	Japan	"Hiroshima Bay"	34.301		132.365															18.1					30.9		29																				"At the center of the Hiroshima Bay and along a sea route"	2017/10/6	2019/7/18
PRA000046	SAA002690	ST014				BW-C8	Water	"Bottom water"	2011	12	6					Asia	Japan	"Hiroshima Bay"	34.275		132.418															17.9					30.8		16																				"River mouth region"	2017/10/6	2019/7/18
PRA000046	SAA002691	ST014				BW-D8	Water	"Bottom water"	2011	12	6					Asia	Japan	"Hiroshima Bay"	34.335		132.434															18.5					30.9		20																				"River mouth region"	2017/10/6	2019/7/18
PRA000046	SAA002692	ST014				BW-E8	Water	"Bottom water"	2011	12	6					Asia	Japan	"Hiroshima Bay"	34.333		132.367															18.4					30.7		15																				"River mouth region"	2017/10/6	2019/7/18
PRA000046	SAA002693	ST014				BW-A9	Water	"Bottom water"	2011	10	5					Asia	Japan	"Hiroshima Bay"	34.206		132.315															23.9					31.1		33																				"Near an aquaculture net"	2017/10/6	2019/7/18
PRA000046	SAA002694	ST014				BW-B9	Water	"Bottom water"	2011	10	5					Asia	Japan	"Hiroshima Bay"	34.301		132.365															23.8					31.1		29																				"At the center of the Hiroshima Bay and along a sea route"	2017/10/6	2019/7/18
PRA000046	SAA002695	ST014				BW-C9	Water	"Bottom water"	2011	10	5					Asia	Japan	"Hiroshima Bay"	34.275		132.418															23.2					31.1		16																				"River mouth region"	2017/10/6	2019/7/18
PRA000046	SAA002696	ST014				BW-D9	Water	"Bottom water"	2011	10	5					Asia	Japan	"Hiroshima Bay"	34.335		132.434															23.4					30.5		20																				"River mouth region"	2017/10/6	2019/7/18
PRA000046	SAA002697	ST014				BW-E9	Water	"Bottom water"	2011	10	5					Asia	Japan	"Hiroshima Bay"	34.333		132.367															22.5					29.5		15																				"River mouth region"	2017/10/6	2019/7/18
PRA000046	SAA002698	ST014				BW-A10	Water	"Bottom water"	2011	8	17					Asia	Japan	"Hiroshima Bay"	34.206		132.315															23.5					31.4		33																				"Near an aquaculture net"	2017/10/6	2019/7/18
PRA000046	SAA002699	ST014				BW-B10	Water	"Bottom water"	2011	8	17					Asia	Japan	"Hiroshima Bay"	34.301		132.365															25.2					30.7		29																				"At the center of the Hiroshima Bay and along a sea route"	2017/10/6	2019/7/18
PRA000046	SAA002700	ST014				BW-C10	Water	"Bottom water"	2011	8	17					Asia	Japan	"Hiroshima Bay"	34.275		132.418															24.7					31		16																				"River mouth region"	2017/10/6	2019/7/18
PRA000046	SAA002701	ST014				BW-D10	Water	"Bottom water"	2011	8	17					Asia	Japan	"Hiroshima Bay"	34.335		132.434															23.4					31		20																				"River mouth region"	2017/10/6	2019/7/18
PRA000046	SAA002702	ST014				BW-E10	Water	"Bottom water"	2011	8	17					Asia	Japan	"Hiroshima Bay"	34.333		132.367															24.5					30.7		15																				"River mouth region"	2017/10/6	2019/7/18
PRA000046	SAA002703	ST014				BW-A11	Water	"Bottom water"	2011	6	28					Asia	Japan	"Hiroshima Bay"	34.206		132.315															20.1					31.3		33																				"Near an aquaculture net"	2017/10/6	2019/7/18
PRA000046	SAA002704	ST014				BW-B11	Water	"Bottom water"	2011	6	28					Asia	Japan	"Hiroshima Bay"	34.301		132.365															20.6					30.5		29																				"At the center of the Hiroshima Bay and along a sea route"	2017/10/6	2019/7/18
PRA000046	SAA002705	ST014				BW-C11	Water	"Bottom water"	2011	6	28					Asia	Japan	"Hiroshima Bay"	34.275		132.418															21.2					30.7		16																				"River mouth region"	2017/10/6	2019/7/18
PRA000046	SAA002706	ST014				BW-D11	Water	"Bottom water"	2011	6	28					Asia	Japan	"Hiroshima Bay"	34.335		132.434															20.5					29.8		20																				"River mouth region"	2017/10/6	2019/7/18
PRA000046	SAA002707	ST014				BW-E11	Water	"Bottom water"	2011	6	28					Asia	Japan	"Hiroshima Bay"	34.333		132.367															18.8					31.2		15																				"River mouth region"	2017/10/6	2019/7/18
PRA000046	SAA002708	ST014				BW-A12	Water	"Bottom water"	2011	5	10					Asia	Japan	"Hiroshima Bay"	34.206		132.315															13.5					32.4		33																				"Near an aquaculture net"	2017/10/6	2019/7/18
PRA000046	SAA002709	ST014				BW-B12	Water	"Bottom water"	2011	5	10					Asia	Japan	"Hiroshima Bay"	34.301		132.365															14.5					32.2		29																				"At the center of the Hiroshima Bay and along a sea route"	2017/10/6	2019/7/18
PRA000046	SAA002710	ST014				BW-C12	Water	"Bottom water"	2011	5	10					Asia	Japan	"Hiroshima Bay"	34.275		132.418															19.5					32.1		16																				"River mouth region"	2017/10/6	2019/7/18
PRA000046	SAA002711	ST014				BW-D12	Water	"Bottom water"	2011	5	10					Asia	Japan	"Hiroshima Bay"	34.335		132.434															14					32.4		20																				"River mouth region"	2017/10/6	2019/7/18
PRA000046	SAA002712	ST014				BW-E12	Water	"Bottom water"	2011	5	10					Asia	Japan	"Hiroshima Bay"	34.333		132.367															13					31.9		15																				"River mouth region"	2017/10/6	2019/7/18
PRA000048	SAA002867	ST014				SW-St.1	Water	"Surface water"	2004	2	10					Asia	Japan	"Tokyo Bay"	35.59933333		139.85																						0.5																					2017/10/25	2019/7/18
PRA000048	SAA002868	ST014				SW-St.3	Water	"Surface water"	2004	2	10					Asia	Japan	"Tokyo Bay"	35.583		140																						0.5																					2017/10/25	2019/7/18
PRA000048	SAA002869	ST014				SW-St.4	Water	"Surface water"	2004	2	10					Asia	Japan	"Tokyo Bay"	35.51583333		139.8345																						0.5																					2017/10/25	2019/7/18
PRA000048	SAA002870	ST014				SW-St.5	Water	"Surface water"	2004	2	10					Asia	Japan	"Tokyo Bay"	35.5325		139.9003333																						0.5																					2017/10/25	2019/7/18
PRA000048	SAA002871	ST014				SW-St.7	Water	"Surface water"	2004	2	9					Asia	Japan	"Tokyo Bay"	35.433		139.8336667																						0.5																					2017/10/25	2019/7/18
PRA000048	SAA002872	ST014				SW-St.8	Water	"Surface water"	2004	2	9					Asia	Japan	"Tokyo Bay"	35.45483333		139.9																						0.5																					2017/10/25	2019/7/18
PRA000048	SAA002873	ST014				SW-St.9	Water	"Surface water"	2004	2	9					Asia	Japan	"Tokyo Bay"	35.43266667		139.8498333																						0.5																					2017/10/25	2019/7/18
PRA000048	SAA002874	ST014				SW-St.10	Water	"Surface water"	2004	2	9					Asia	Japan	"Tokyo Bay"	35.3665		139.7328333																						0.5																					2017/10/25	2019/7/18
PRA000048	SAA002875	ST014				MW-St.1	Water	"Intermediate water"	2004	2	10					Asia	Japan	"Tokyo Bay"	35.59933333		139.85																						4.3																					2017/10/25	2019/7/18
PRA000048	SAA002876	ST014				MW-St.3	Water	"Intermediate water"	2004	2	10					Asia	Japan	"Tokyo Bay"	35.583		140																						6.5																					2017/10/25	2019/7/18
PRA000048	SAA002877	ST014				MW-St.4	Water	"Intermediate water"	2004	2	10					Asia	Japan	"Tokyo Bay"	35.51583333		139.8345																						12																					2017/10/25	2019/7/18
PRA000048	SAA002878	ST014				MW-St.5	Water	"Intermediate water"	2004	2	10					Asia	Japan	"Tokyo Bay"	35.5325		139.9003333																						11																					2017/10/25	2019/7/18
PRA000048	SAA002879	ST014				MW-St.7	Water	"Intermediate water"	2004	2	9					Asia	Japan	"Tokyo Bay"	35.433		139.8336667																						13.5																					2017/10/25	2019/7/18
PRA000048	SAA002880	ST014				MW-St.8	Water	"Intermediate water"	2004	2	9					Asia	Japan	"Tokyo Bay"	35.45483333		139.9																						10.4																					2017/10/25	2019/7/18
PRA000048	SAA002881	ST014				MW-St.9	Water	"Intermediate water"	2004	2	9					Asia	Japan	"Tokyo Bay"	35.43266667		139.8498333																						12.3																					2017/10/25	2019/7/18
PRA000048	SAA002882	ST014				MW-St.10	Water	"Intermediate water"	2004	2	9					Asia	Japan	"Tokyo Bay"	35.3665		139.7328333																						10																					2017/10/25	2019/7/18
PRA000048	SAA002883	ST014				BW-St.1	Water	"Bottom water"	2004	2	10					Asia	Japan	"Tokyo Bay"	35.59933333		139.85																						7																					2017/10/25	2019/7/18
PRA000048	SAA002884	ST014				BW-St.3	Water	"Bottom water"	2004	2	10					Asia	Japan	"Tokyo Bay"	35.583		140																						11																					2017/10/25	2019/7/18
PRA000048	SAA002885	ST014				BW-St.4	Water	"Bottom water"	2004	2	10					Asia	Japan	"Tokyo Bay"	35.51583333		139.8345																						22																					2017/10/25	2019/7/18
PRA000048	SAA002886	ST014				BW-St.5	Water	"Bottom water"	2004	2	10					Asia	Japan	"Tokyo Bay"	35.5325		139.9003333																						20																					2017/10/25	2019/7/18
PRA000048	SAA002887	ST014				BW-St.7	Water	"Bottom water"	2004	2	9					Asia	Japan	"Tokyo Bay"	35.433		139.8336667																						25																					2017/10/25	2019/7/18
PRA000048	SAA002888	ST014				BW-St.8	Water	"Bottom water"	2004	2	9					Asia	Japan	"Tokyo Bay"	35.45483333		139.9																						18.7																					2017/10/25	2019/7/18
PRA000048	SAA002889	ST014				BW-St.9	Water	"Bottom water"	2004	2	9					Asia	Japan	"Tokyo Bay"	35.43266667		139.8498333																						22.5																					2017/10/25	2019/7/18
PRA000048	SAA002890	ST014				BW-St.10	Water	"Bottom water"	2004	2	9					Asia	Japan	"Tokyo Bay"	35.3665		139.7328333																						18																					2017/10/25	2019/7/18
PRA000049	SAA002901	ST014				SW-L1	Water	"Surface water"	2010	8	12					Asia	Japan	"Hiroshima Bay"	34.3527		132.4618															10							"0.1 - 0.2"																				"Small fisheries harbor"	2017/11/1	2019/7/18
PRA000049	SAA002902	ST014				SW-L2	Water	"Surface water"	2010	8	12					Asia	Japan	"Hiroshima Bay"	34.3519		132.459															9.8							"0.1 - 0.2"																				"Ferry terminal"	2017/11/1	2019/7/18
PRA000049	SAA002903	ST014				SW-L3	Water	"Surface water"	2010	8	12					Asia	Japan	"Hiroshima Bay"	34.3623		132.4293															9.8							"0.1 - 0.2"																				Marina	2017/11/1	2019/7/18
PRA000049	SAA002904	ST014				SW-L4	Water	"Surface water"	2010	8	12					Asia	Japan	"Hiroshima Bay"	34.3642		132.4003															11.3							"0.1 - 0.2"																				"Small fisheries harbor"	2017/11/1	2019/7/18
PRA000049	SAA002905	ST014				SW-L5	Water	"Surface water"	2010	8	12					Asia	Japan	"Hiroshima Bay"	34.3551		132.3509															10.4							"0.1 - 0.2"																				Marina	2017/11/1	2019/7/18
PRA000049	SAA002906	ST014				SW-L6	Water	"Surface water"	2010	8	12					Asia	Japan	"Hiroshima Bay"	34.3535		132.3395															15.9							"0.1 - 0.2"																				"Small fisheries harbor"	2017/11/1	2019/7/18
PRA000049	SAA002907	ST014				SW-101	Water	"Surface water"	2010	8	17					Asia	Japan	"Hiroshima Bay"	34.354		132.3392															21.6					28.7		"0.1 - 0.2"																				"Small fisheries harbor"	2017/11/1	2019/7/18
PRA000049	SAA002908	ST014				SW-102-1	Water	"Surface water"	2010	8	17					Asia	Japan	"Hiroshima Bay"	34.353		132.3417															21.5	8.5				30		"0.1 - 0.2"																				"Small fisheries harbor"	2017/11/1	2019/7/18
PRA000049	SAA002909	ST014				SW-102-2	Water	"Surface water"	2010	11	9					Asia	Japan	"Hiroshima Bay"	34.353		132.3417															18.3	7.3				33.6		"0.1 - 0.2"																				"Small fisheries harbor"	2017/11/1	2019/7/18
PRA000049	SAA002910	ST014				SW-103	Water	"Surface water"	2010	8	17					Asia	Japan	"Hiroshima Bay"	34.353		132.3454															21.1	8.5				29.9		"0.1 - 0.2"																				Marina	2017/11/1	2019/7/18
PRA000049	SAA002911	ST014				SW-104	Water	"Surface water"	2010	8	17					Asia	Japan	"Hiroshima Bay"	34.355		132.3496															19.6	8.6				30.1		"0.1 - 0.2"																				"Marina; Salinity"	2017/11/1	2019/7/18
PRA000049	SAA002912	ST014				SW-105-1	Water	"Surface water"	2010	8	17					Asia	Japan	"Hiroshima Bay"	34.3559		132.3531															19.3	8.6				30.1		"0.1 - 0.2"																				"Small river mouth region"	2017/11/1	2019/7/18
PRA000049	SAA002913	ST014				SW-105-2	Water	"Surface water"	2010	11	9					Asia	Japan	"Hiroshima Bay"	34.3559		132.3531															18.1	7.1				33.4		"0.1 - 0.2"																				"Small river mouth region"	2017/11/1	2019/7/18
PRA000049	SAA002914	ST014				SW-106-1	Water	"Surface water"	2010	8	17					Asia	Japan	"Hiroshima Bay"	34.3581		132.3621															23.6	8.3				28.9		"0.1 - 0.2"																				Marina	2017/11/1	2019/7/18
PRA000049	SAA002915	ST014				SW-106-2	Water	"Surface water"	2010	11	9					Asia	Japan	"Hiroshima Bay"	34.3581		132.3621															17.9	7.2				32.8		"0.1 - 0.2"																				Marina	2017/11/1	2019/7/18
PRA000049	SAA002916	ST014				SW-107	Water	"Surface water"	2010	8	17					Asia	Japan	"Hiroshima Bay"	34.3539		132.3577															18	8.5				30		"0.1 - 0.2"																				"River mouth region"	2017/11/1	2019/7/18
PRA000049	SAA002917	ST014				SW-108	Water	"Surface water"	2010	8	17					Asia	Japan	"Hiroshima Bay"	34.3488		132.3601															22.2	8.6				28.8		"0.1 - 0.2"																				"River mouth region and opening to the center of Hirosima Bay"	2017/11/1	2019/7/18
PRA000049	SAA002918	ST014				SW-301-1	Water	"Surface water"	2010	10	5					Asia	Japan	"Hiroshima Bay"	34.1954		132.313															23.9	8				31		"0.1 - 0.2"																				"Small ferry terminal"	2017/11/1	2019/7/18
PRA000049	SAA002919	ST014				SW-301-2	Water	"Surface water"	2010	12	8					Asia	Japan	"Hiroshima Bay"	34.1954		132.313															16.4	8.2				31.7		"0.1 - 0.2"																				"Small ferry terminal"	2017/11/1	2019/7/18
PRA000049	SAA002920	ST014				SW-302-1	Water	"Surface water"	2010	10	5					Asia	Japan	"Hiroshima Bay"	34.1968		132.3128															24.1	8				31.1		"0.1 - 0.2"																				"Small ferry terminal"	2017/11/1	2019/7/18
PRA000049	SAA002921	ST014				SW-302-2	Water	"Surface water"	2010	12	8					Asia	Japan	"Hiroshima Bay"	34.1968		132.3128															16.6	8.2				31.5		"0.1 - 0.2"																				"Small ferry terminal"	2017/11/1	2019/7/18
PRA000049	SAA002922	ST014				SW-303-1	Water	"Surface water"	2010	10	5					Asia	Japan	"Hiroshima Bay"	34.1974		132.3147															23.9	8.1				31		"0.1 - 0.2"																				"Small ferry terminal"	2017/11/1	2019/7/18
PRA000049	SAA002923	ST014				SW-303-2	Water	"Surface water"	2010	12	8					Asia	Japan	"Hiroshima Bay"	34.1974		132.3147															16.6	8.2				31.6		"0.1 - 0.2"																				"Small ferry terminal"	2017/11/1	2019/7/18
PRA000049	SAA002924	ST014				SW-304-1	Water	"Surface water"	2010	10	5					Asia	Japan	"Hiroshima Bay"	34.2025		132.3139															24	8.2				31		"0.1 - 0.2"																				"Near an aquaculture net"	2017/11/1	2019/7/18
PRA000049	SAA002925	ST014				SW-304-2	Water	"Surface water"	2010	12	8					Asia	Japan	"Hiroshima Bay"	34.2025		132.3139															14.5	8.1				31.5		"0.1 - 0.2"																				"Near an aquaculture net"	2017/11/1	2019/7/18
PRA000049	SAA002926	ST014				SW-305-1	Water	"Surface water"	2010	10	5					Asia	Japan	"Hiroshima Bay"	34.2076		132.3086															24	8				31		"0.1 - 0.2"																				"Near an aquaculture net"	2017/11/1	2019/7/18
PRA000049	SAA002927	ST014				SW-305-2	Water	"Surface water"	2010	12	8					Asia	Japan	"Hiroshima Bay"	34.2076		132.3086															16.3	8.2				31.4		"0.1 - 0.2"																				"Near an aquaculture net"	2017/11/1	2019/7/18
PRA000049	SAA002928	ST014				SW-306-1	Water	"Surface water"	2010	10	5					Asia	Japan	"Hiroshima Bay"	34.2061		132.3159															23.8	7.9				31.1		"0.1 - 0.2"																				"Near an aquaculture net"	2017/11/1	2019/7/18
PRA000049	SAA002929	ST014				SW-306-2	Water	"Surface water"	2010	12	8					Asia	Japan	"Hiroshima Bay"	34.2061		132.3159															16.6	8.2				31.5		"0.1 - 0.2"																				"Near an aquaculture net"	2017/11/1	2019/7/18
PRA000049	SAA002930	ST014				SW-307-1	Water	"Surface water"	2010	10	5					Asia	Japan	"Hiroshima Bay"	34.1852		132.3086															24	7.7				31.1		"0.1 - 0.2"																				"Near an aquaculture net"	2017/11/1	2019/7/18
PRA000049	SAA002931	ST014				SW-307-2	Water	"Surface water"	2010	12	8					Asia	Japan	"Hiroshima Bay"	34.1852		132.3086															16.8	8.2				31.1		"0.1 - 0.2"																				"Near an aquaculture net"	2017/11/1	2019/7/18
PRA000049	SAA002932	ST014				SW-308-1	Water	"Surface water"	2010	10	5					Asia	Japan	"Hiroshima Bay"	34.1869		132.2988															24.1	8				31.2		"0.1 - 0.2"																				"Near an aquaculture net"	2017/11/1	2019/7/18
PRA000049	SAA002933	ST014				SW-308-2	Water	"Surface water"	2010	12	8					Asia	Japan	"Hiroshima Bay"	34.1869		132.2988															16.3	8.3				31.3		"0.1 - 0.2"																				"Near an aquaculture net"	2017/11/1	2019/7/18
PRA000049	SAA002934	ST014				SW-1	Water	"Surface water"	2010	8	17					Asia	Japan	"Hiroshima Bay"	34.3333		132.3333															23.2	8.4				29.3		"0.1 - 0.2"																				"West side of Hiroshima Bay near a lumberyard"	2017/11/1	2019/7/18
PRA000049	SAA002935	ST014				SW-2-1	Water	"Surface water"	2010	8	17					Asia	Japan	"Hiroshima Bay"	34.3333		132.3667															19.9	8.5				30		"0.1 - 0.2"																				"West side of Hiroshima Bay near an openinng of harbor and marina"	2017/11/1	2019/7/18
PRA000049	SAA002936	ST014				SW-2-2	Water	"Surface water"	2010	9	27					Asia	Japan	"Hiroshima Bay"	34.3333		132.3667															24.2	7.9				29.9		"0.1 - 0.2"																				"West side of Hiroshima Bay near an openinng of harbor and marina"	2017/11/1	2019/7/18
PRA000049	SAA002937	ST014				SW-2-3	Water	"Surface water"	2010	11	9					Asia	Japan	"Hiroshima Bay"	34.3333		132.3667															19.3	7.5				34.2		"0.1 - 0.2"																				"West side of Hiroshima Bay near an openinng of harbor and marina"	2017/11/1	2019/7/18
PRA000049	SAA002938	ST014				SW-2-4	Water	"Surface water"	2010	11	16					Asia	Japan	"Hiroshima Bay"	34.3333		132.3667															17.8	7.9				30		"0.1 - 0.2"																				"West side of Hiroshima Bay near an openinng of harbor and marina"	2017/11/1	2019/7/18
PRA000049	SAA002939	ST014				SW-3	Water	"Surface water"	2010	11	16					Asia	Japan	"Hiroshima Bay"	34.3333		132.4															18.2	8				30.5		"0.1 - 0.2"																				"River mouth region"	2017/11/1	2019/7/18
PRA000049	SAA002940	ST014				SW-4	Water	"Surface water"	2010	11	16					Asia	Japan	"Hiroshima Bay"	34.3353		132.4333															18.8	8				30.9		"0.1 - 0.2"																				"River mouth region"	2017/11/1	2019/7/18
PRA000049	SAA002941	ST014				SW-5	Water	"Surface water"	2010	11	16					Asia	Japan	"Hiroshima Bay"	34.3306		132.4667															18.2	8				31		"0.1 - 0.2"																				"River mouth region"	2017/11/1	2019/7/18
PRA000049	SAA002942	ST014				SW-6	Water	"Surface water"	2010	9	27					Asia	Japan	"Hiroshima Bay"	34.3		132.3															24.2	7.9				29.9		"0.1 - 0.2"																				"an aquaculture for oyster"	2017/11/1	2019/7/18
PRA000049	SAA002943	ST014				SW-7	Water	"Surface water"	2010	9	27					Asia	Japan	"Hiroshima Bay"	34.3		132.3667															24.5	7.9				30.7		"0.1 - 0.2"																				"At the center of the Hiroshima Bay and along a sea route"	2017/11/1	2019/7/18
PRA000049	SAA002944	ST014				SW-8	Water	"Surface water"	2010	9	27					Asia	Japan	"Hiroshima Bay"	34.3		132.4															24.7	8.1				30.9		"0.1 - 0.2"																				"At the center of the Hiroshima Bay and along a sea route"	2017/11/1	2019/7/18
PRA000049	SAA002945	ST014				SW-9	Water	"Surface water"	2010	9	27					Asia	Japan	"Hiroshima Bay"	34.2833		132.4333															24.8	7.9				31.1		"0.1 - 0.2"																				"At the center of the Hiroshima Bay and along a sea route"	2017/11/1	2019/7/18
PRA000049	SAA002946	ST014				SW-10	Water	"Surface water"	2010	9	27					Asia	Japan	"Hiroshima Bay"	34.3		132.4667															24.7	7.8				31		"0.1 - 0.2"																				"At the center of the Hiroshima Bay and along a sea route"	2017/11/1	2019/7/18
PRA000049	SAA002947	ST014				SW-11	Water	"Surface water"	2010	9	27					Asia	Japan	"Hiroshima Bay"	34.3		132.5															24.3	7.9				30.8		"0.1 - 0.2"																				"Ferry terminal"	2017/11/1	2019/7/18
PRA000049	SAA002948	ST014				SW-12	Water	"Surface water"	2010	7	8					Asia	Japan	"Hiroshima Bay"	34.2667		132.2667																						"0.1 - 0.2"																				"Small fisheries harbor;"	2017/11/1	2019/7/18
PRA000049	SAA002949	ST014				SW-13	Water	"Surface water"	2010	9	27					Asia	Japan	"Hiroshima Bay"	34.2667		132.35															24.6	8				30.8		"0.1 - 0.2"																				"At the center of the Hiroshima Bay and along a sea route"	2017/11/1	2019/7/18
PRA000049	SAA002950	ST014				SW-14	Water	"Surface water"	2010	9	27					Asia	Japan	"Hiroshima Bay"	34.2667		132.3833															24.6	7.8				31.3		"0.1 - 0.2"																				"At the center of the Hiroshima Bay and along a sea route"	2017/11/1	2019/7/18
PRA000049	SAA002951	ST014				SW-15	Water	"Surface water"	2010	9	28					Asia	Japan	"Hiroshima Bay"	34.2667		132.4167															24.8	7.9				31.1		"0.1 - 0.2"																				"At the center of the Hiroshima Bay and along a sea route"	2017/11/1	2019/7/18
PRA000049	SAA002952	ST014				SW-16	Water	"Surface water"	2010	11	16					Asia	Japan	"Hiroshima Bay"	34.2667		132.5083															18.8	8				31		"0.1 - 0.2"																				"East side of the Hiroshima Bay and along a sea route"	2017/11/1	2019/7/18
PRA000049	SAA002953	ST014				SW-17	Water	"Surface water"	2010	11	9					Asia	Japan	"Hiroshima Bay"	34.2333		132.2333															19.8	7.9				34.6		"0.1 - 0.2"																				"Ferry terminal"	2017/11/1	2019/7/18
PRA000049	SAA002954	ST014				SW-18	Water	"Surface water"	2010	11	9					Asia	Japan	"Hiroshima Bay"	34.2333		132.2667															19.4	8				34.3		"0.1 - 0.2"																				"West side of the Hiroshima Bay and along a sea route"	2017/11/1	2019/7/18
PRA000049	SAA002955	ST014				SW-19	Water	"Surface water"	2010	7	8					Asia	Japan	"Hiroshima Bay"	34.2403		132.2992																						"0.1 - 0.2"																				"East side of Itsuku-shima island"	2017/11/1	2019/7/18
PRA000049	SAA002956	ST014				SW-20	Water	"Surface water"	2010	7	8					Asia	Japan	"Hiroshima Bay"	34.2403		132.3321																						"0.1 - 0.2"																				"At the center of the Hiroshima Bay and along a sea route"	2017/11/1	2019/7/18
PRA000049	SAA002957	ST014				SW-21	Water	"Surface water"	2010	7	8					Asia	Japan	"Hiroshima Bay"	34.2403		132.3649																						"0.1 - 0.2"																				"At the center of the Hiroshima Bay and along a sea route"	2017/11/1	2019/7/18
PRA000049	SAA002958	ST014				SW-22	Water	"Surface water"	2010	11	16					Asia	Japan	"Hiroshima Bay"	34.2333		132.4583															18.3	8				30.9		"0.1 - 0.2"																				"Natural bay of Nishi-nomi island"	2017/11/1	2019/7/18
PRA000049	SAA002959	ST014				SW-23	Water	"Surface water"	2010	11	16					Asia	Japan	"Hiroshima Bay"	34.2333		132.5															18.7	8				30.7		"0.1 - 0.2"																				"East side of the Hiroshima Bay and along a sea route"	2017/11/1	2019/7/18
PRA000049	SAA002960	ST014				SW-24	Water	"Surface water"	2010	11	16					Asia	Japan	"Hiroshima Bay"	34.2333		132.5333															18.8	7.9				30.8		"0.1 - 0.2"																				"Ferry terminal"	2017/11/1	2019/7/18
PRA000049	SAA002961	ST014				SW-25	Water	"Surface water"	2010	11	9					Asia	Japan	"Hiroshima Bay"	34.2		132.2667															19.2	7.7				34.2		"0.1 - 0.2"																				"River mouth region"	2017/11/1	2019/7/18
PRA000049	SAA002962	ST014				SW-26-1	Water	"Surface water"	2010	10	5					Asia	Japan	"Hiroshima Bay"	34.2		132.3															23.9	8.1				31		"0.1 - 0.2"																				"Near an aquaculture net"	2017/11/1	2019/7/18
PRA000049	SAA002963	ST014				SW-26-2	Water	"Surface water"	2010	12	8					Asia	Japan	"Hiroshima Bay"	34.2		132.3															16	8.1				31.2		"0.1 - 0.2"																				"Near an aquaculture net"	2017/11/1	2019/7/18
PRA000049	SAA002964	ST014				SW-27	Water	"Surface water"	2010	7	8					Asia	Japan	"Hiroshima Bay"	34.2023		132.333																						"0.1 - 0.2"																				"At the center of the Hiroshima Bay and along a sea route"	2017/11/1	2019/7/18
PRA000049	SAA002965	ST014				SW-28	Water	"Surface water"	2010	7	8					Asia	Japan	"Hiroshima Bay"	34.2023		132.3648																						"0.1 - 0.2"																				"At the center of the Hiroshima Bay and along a sea route"	2017/11/1	2019/7/18
PRA000049	SAA002966	ST014				SW-29	Water	"Surface water"	2010	7	8					Asia	Japan	"Hiroshima Bay"	34.2023		132.4076																						"0.1 - 0.2"																				"At the center of the Hiroshima Bay and along a sea route"	2017/11/1	2019/7/18
PRA000049	SAA002967	ST014				SW-30	Water	"Surface water"	2010	11	16					Asia	Japan	"Hiroshima Bay"	34.1917		132.4917															18.7	8				31		"0.1 - 0.2"																				"East side of the Hiroshima Bay and along a sea route"	2017/11/1	2019/7/18
PRA000049	SAA002968	ST014				SW-31	Water	"Surface water"	2010	11	16					Asia	Japan	"Hiroshima Bay"	34.2083		132.5083															18.7	8.1				31.1		"0.1 - 0.2"																				"East side of the Hiroshima Bay and along a sea route"	2017/11/1	2019/7/18
PRA000049	SAA002969	ST014				SW-32	Water	"Surface water"	2010	11	9					Asia	Japan	"Hiroshima Bay"	34.1667		132.2667															19.9	7.5				33.8		"0.1 - 0.2"																				"River mouth region near ferry terminal"	2017/11/1	2019/7/18
PRA000049	SAA002970	ST014				SW-33	Water	"Surface water"	2010	11	9					Asia	Japan	"Hiroshima Bay"	34.1667		132.3															19.9	8.2				35		"0.1 - 0.2"																				"At the center of the Hiroshima Bay and along a sea route"	2017/11/1	2019/7/18
PRA000049	SAA002971	ST014				SW-34	Water	"Surface water"	2010	11	9					Asia	Japan	"Hiroshima Bay"	34.1667		132.3333															20	8.2				34.9		"0.1 - 0.2"																				"At the center of the Hiroshima Bay and along a sea route"	2017/11/1	2019/7/18
PRA000049	SAA002972	ST014				SW-35	Water	"Surface water"	2010	7	8					Asia	Japan	"Hiroshima Bay"	34.1667		132.3556																						"0.1 - 0.2"																				"At the center of the Hiroshima Bay and along a sea route"	2017/11/1	2019/7/18
PRA000049	SAA002973	ST014				SW-36	Water	"Surface water"	2010	7	8					Asia	Japan	"Hiroshima Bay"	34.1671		132.4194																						"0.1 - 0.2"																				"At the center of the Hiroshima Bay and along a sea route"	2017/11/1	2019/7/18
PRA000060	SAA003568	ST015				1K	Water	"River water"	2009	4						Asia	Japan	"Suido-bashi bridge, Katabira-gawa Riv"	35.453746		139.607158																																										"Tidally-affected area; Collected on days when no rainfall had occurred for 2 consecutive days"	2018/2/9	2018/2/9
PRA000060	SAA003569	ST015				2K	Water	"River water"	2009	4						Asia	Japan	"Rinkai Tsurumigawa-bashi bridge, Tsurumi-gawa Riv"	35.501549		139.677734																																										"Tidally-affected area; Collected on days when no rainfall had occurred for 2 consecutive days"	2018/2/9	2018/2/9
PRA000060	SAA003570	ST015				3K	Water	"River water"	2009	4						Asia	Japan	"Nippa-bashi bridge, Tsurumi-gawa Riv"	35.528481		139.61723																																										"Nontidally-affected area; Collected on days when no rainfall had occurred for 2 consecutive days"	2018/2/9	2018/2/9
PRA000060	SAA003571	ST015				4K	Water	"River water"	2009	4						Asia	Japan	"Yotsugi-bashi bridge, Tsurumi-gawa Riv"	35.578287		139.498684																																										"Nontidally-affected area; Collected on days when no rainfall had occurred for 2 consecutive days"	2018/2/9	2018/2/9
PRA000060	SAA003572	ST015				5K	Water	"River water"	2009	4						Asia	Japan	"Fukiage-bashi bridge, Onda-gawa Riv"	35.536396		139.480358																																										"Nontidally-affected area; Collected on days when no rainfall had occurred for 2 consecutive days"	2018/2/9	2018/2/9
PRA000060	SAA003573	ST015				6K	Water	"River water"	2009	4						Asia	Japan	"Chiyo-bashi bridge, Tsurumi-gawa Riv"	35.518608		139.551192																																										"Nontidally-affected area; Collected on days when no rainfall had occurred for 2 consecutive days"	2018/2/9	2018/2/9
PRA000060	SAA003574	ST015				7K	Water	"River water"	2009	4						Asia	Japan	"Miyako-bashi bridge, Onda-gawa Riv"	35.517608		139.543736																																										"Nontidally-affected area; Collected on days when no rainfall had occurred for 2 consecutive days"	2018/2/9	2018/2/9
PRA000060	SAA003575	ST015				8K	Water	"River water"	2009	4						Asia	Japan	"Ochiai-bashi bridge, Tsurumi-gawa Riv"	35.513126		139.551997																																										"Nontidally-affected area; Collected on days when no rainfall had occurred for 2 consecutive days"	2018/2/9	2018/2/9
PRA000060	SAA003576	ST015				9K	Water	"River water"	2009	4						Asia	Japan	"Okumagawa managing bridge, Okuma-gawa Riv"	35.52047333		139.6028733																																										"Nontidally-affected area; Collected on days when no rainfall had occurred for 2 consecutive days"	2018/2/9	2018/2/9
PRA000060	SAA003577	ST015				10K	Water	"River water"	2009	4						Asia	Japan	"Takata-bashi bridge, Hayabuchi-gawa Riv"	35.547475		139.6202989																																										"Nontidally-affected area; Collected on days when no rainfall had occurred for 2 consecutive days"	2018/2/9	2018/2/9
PRA000060	SAA003578	ST015				11K	Water	"River water"	2009	4						Asia	Japan	"Yagami-bashi bridge, Yagami-gawa Riv"	35.552053		139.657678																																										"Nontidally-affected area; Collected on days when no rainfall had occurred for 2 consecutive days"	2018/2/9	2018/2/9
PRA000060	SAA003579	ST015				1C	Water	"River water"	2009	4						Asia	Japan	"Yoro-Ohashi bridge, Yoro-gawa Riv"	35.532234		140.078177																																										"Tidally-affected area; Collected on days when no rainfall had occurred for 2 consecutive days"	2018/2/9	2018/2/9
PRA000060	SAA003580	ST015				2C	Water	"River water"	2009	4						Asia	Japan	"Hitomi-bashi bridge, Koito-gawa Riv"	35.339119		139.865025																																										"Tidally-affected area; Collected on days when no rainfall had occurred for 2 consecutive days"	2018/2/9	2018/2/9
PRA000060	SAA003581	ST015				3C	Water	"River water"	2009	4						Asia	Japan	"Obitsu-bashi bridge, Obitsu-gawa Riv"	35.424924		139.943084																																										"Tidally-affected area; Collected on days when no rainfall had occurred for 2 consecutive days"	2018/2/9	2018/2/9
PRA000060	SAA003582	ST015				4C	Water	"River water"	2009	4						Asia	Japan	"Iwata-bashi bridge, Obitsu-gawa Riv"	35.312225		140.051976																																										"Nontidally-affected area; Collected on days when no rainfall had occurred for 2 consecutive days"	2018/2/9	2018/2/9
PRA000060	SAA003583	ST015				5C	Water	"River water"	2009	4						Asia	Japan	"Kogawa-bashi bridge, Ohara-gawa Riv"	35.32162		140.054534																																										"Nontidally-affected area; Collected on days when no rainfall had occurred for 2 consecutive days"	2018/2/9	2018/2/9
PRA000060	SAA003584	ST015				6C	Water	"River water"	2009	4						Asia	Japan	"Asai-bashi bridge, Yoro-gawa Riv"	35.46727778		140.1154444																																										"Nontidally-affected area; Collected on days when no rainfall had occurred for 2 consecutive days"	2018/2/9	2018/2/9
PRA000060	SAA003585	ST015				7C	Water	"River water"	2009	4						Asia	Japan	"Furuichiba-bashi bridge, Murata-gawa Riv"	35.540669		140.151032																																										"Nontidally-affected area; Collected on days when no rainfall had occurred for 2 consecutive days"	2018/2/9	2018/2/9
PRA000060	SAA003586	ST015				8C	Water	"River water"	2009	4						Asia	Japan	"Azuma-bashi bridge, Miyako-gawa Riv"	35.60630556		140.1253333																																										"Nontidally-affected area; Collected on days when no rainfall had occurred for 2 consecutive days"	2018/2/9	2018/2/9
PRA000060	SAA003587	ST015				9C	Water	"River water"	2009	4						Asia	Japan	"Chuo-bashi bridge, Yoshi-kawa Riv"	35.607102		140.120781																																										"Nontidally-affected area; Collected on days when no rainfall had occurred for 2 consecutive days"	2018/2/9	2018/2/9
PRA000060	SAA003588	ST015				10C	Water	"River water"	2009	4						Asia	Japan	"Makuhari-bashi bridge, Hanami-gawa Riv"	35.652861		140.061972																																										"Nontidally-affected area; Collected on days when no rainfall had occurred for 2 consecutive days"	2018/2/9	2018/2/9
PRA000060	SAA003589	ST015				11C	Water	"River water"	2009	4						Asia	Japan	"Kokonoe-hashi bridge, Ebi-gawa Riv"	35.698667		139.990667																																										"Nontidally-affected area; Collected on days when no rainfall had occurred for 2 consecutive days"	2018/2/9	2018/2/9
PRA000060	SAA003590	ST015				12C	Water	"River water"	2009	4						Asia	Japan	"Yoro-gawa Riv"	35.53227		140.083083																																										"Tidally-affected area; Collected on days when no rainfall had occurred for 2 consecutive days"	2018/2/9	2018/2/9
PRA000060	SAA003591	ST015				13C	Water	"River water"	2009	4						Asia	Japan	"Ichihara Pier"	35.540083		140.095389																																										"Tidally-affected area; Collected on days when no rainfall had occurred for 2 consecutive days"	2018/2/9	2018/2/9
PRA000060	SAA003592	ST015				1T	Water	"River water"	2009	4						Asia	Japan	"Denenchofu weir, Tama-gawa Riv"	35.587148		139.666982																																										"In major river of Toko Bay basin; Collected on days when no rainfall had occurred for 2 consecutive days"	2018/2/9	2018/2/9
PRA000060	SAA003593	ST015				2T	Water	"River water"	2009	4						Asia	Japan	"Tamagawara-bashi bridge, Tama-gawa Riv"	35.643876		139.525471																																										"Nontidally-affected area; Collected on days when no rainfall had occurred for 2 consecutive days"	2018/02/09	2018/02/09
PRA000060	SAA003594	ST015				3T	Water	"River water"	2009	4						Asia	Japan	"Chofu-bashi bridge, Tama-gawa Riv"	35.783975		139.264389																																										"Nontidally-affected area; Collected on days when no rainfall had occurred for 2 consecutive days"	2018/2/9	2018/2/9
PRA000060	SAA003595	ST015				4T	Water	"River water"	2009	4						Asia	Japan	"Tasai-bashi bridge, Hirai-gawa Riv"	35.731196		139.319379																																										"Nontidally-affected area; Collected on days when no rainfall had occurred for 2 consecutive days"	2018/2/9	2018/2/9
PRA000060	SAA003596	ST015				5T	Water	"River water"	2009	4						Asia	Japan	"Higashiakigawa-bashi bridge, Aki-kawa Riv"	35.716637		139.317765																																										"Nontidally-affected area; Collected on days when no rainfall had occurred for 2 consecutive days"	2018/2/9	2018/2/9
PRA000060	SAA003597	ST015				6T	Water	"River water"	2009	4						Asia	Japan	"Kawaguchi-gawa Riv"	35.667581		139.33251																																										"Nontidally-affected area; Collected on days when no rainfall had occurred for 2 consecutive days"	2018/2/9	2018/2/9
PRA000060	SAA003598	ST015				7T	Water	"River water"	2009	4						Asia	Japan	"Asakawa-bashi bridge, Asa-kawa Riv"	35.666668		139.330221																																										"Nontidally-affected area; Collected on days when no rainfall had occurred for 2 consecutive days"	2018/2/9	2018/2/9
PRA000060	SAA003599	ST015				8T	Water	"River water"	2009	4						Asia	Japan	"Shinasahi-bashi bridge, Yachi-gawa Riv"	35.686467		139.378607																																										"Nontidally-affected area; Collected on days when no rainfall had occurred for 2 consecutive days"	2018/2/9	2018/2/9
PRA000060	SAA003600	ST015				9T	Water	"River water"	2009	4						Asia	Japan	"Tachikawa-bashi bridge, Zanbori-gawa Riv"	35.688225		139.404645																																										"Nontidally-affected area; Collected on days when no rainfall had occurred for 2 consecutive days"	2018/2/9	2018/2/9
PRA000060	SAA003601	ST015				10T	Water	"River water"	2009	4						Asia	Japan	"Hino-bashi bridge, Tama-gawa Riv"	35.683052		139.412492																																										"Nontidally-affected area; Collected on days when no rainfall had occurred for 2 consecutive days"	2018/02/09	2018/02/09
PRA000060	SAA003602	ST015				11T	Water	"River water"	2009	4						Asia	Japan	"Oguri-gawa Riv."	35.648296		139.457922																																										"Nontidally-affected area; Collected on days when no rainfall had occurred for 2 consecutive days"	2018/02/09	2018/02/09
PRA000060	SAA003603	ST015				12T	Water	"River water"	2009	4						Asia	Japan	"Nakano-hashi bridge, Hirase Riv"	35.602867		139.602567																																										"Nontidally-affected area; Collected on days when no rainfall had occurred for 2 consecutive days"	2018/2/9	2018/2/9
PRA000060	SAA003604	ST015				13T	Water	"River water"	2009	4						Asia	Japan	"Nikaryo-hongawa Riv"	35.614181		139.581154																																										"Nontidally-affected area; Collected on days when no rainfall had occurred for 2 consecutive days"	2018/2/9	2018/2/9
PRA000060	SAA003605	ST015				14T	Water	"River water"	2009	4						Asia	Japan	"Sen-gawa Riv"	35.624778		139.61283																																										"Nontidally-affected area; Collected on days when no rainfall had occurred for 2 consecutive days"	2018/2/9	2018/2/9
PRA000060	SAA003606	ST015				15T	Water	"River water"	2009	4						Asia	Japan	"Tenjinmori-bashi bridge, No-gawa Riv"	35.62159		139.609921																																										"Nontidally-affected area; Collected on days when no rainfall had occurred for 2 consecutive days"	2018/2/9	2018/2/9
PRA000060	SAA003607	ST015				16T	Water	"River water"	2009	4						Asia	Japan	"Meoto-bashi bridge, Nomi-gawa Riv"	35.561264		139.724847																																										"Tidally-affected area; Collected on days when no rainfall had occurred for 2 consecutive days"	2018/2/9	2018/2/9
PRA000060	SAA003608	ST015				17T	Water	"River water"	2009	4						Asia	Japan	"Fujimi-bashi bridge, Kanda-gawa Riv"	35.714797		139.703387																																										"Nontidally-affected area; Collected on days when no rainfall had occurred for 2 consecutive days"	2018/2/9	2018/2/9
PRA000060	SAA003609	ST015				18T	Water	"River water"	2009	4						Asia	Japan	"Saikachi-bashi bridge, Meguro-gawa Riv"	35.643682		139.701267																																										"Nontidally-affected area; Collected on days when no rainfall had occurred for 2 consecutive days"	2018/2/9	2018/2/9
PRA000060	SAA003610	ST015				19T	Water	"River water"	2009	4						Asia	Japan	"Shinyanagi-bashi bridge, Shakujii-gawa Riv"	35.757364		139.745066																																										"Tidally-affected area; Collected on days when no rainfall had occurred for 2 consecutive days"	2018/2/9	2018/2/9
PRA000060	SAA003611	ST015				20T	Water	"River water"	2009	4						Asia	Japan	"Koishikawa-bashi bridge, Kanda-gawa Riv"	35.702669		139.750541																																										"Tidally-affected area; Collected on days when no rainfall had occurred for 2 consecutive days"	2018/2/9	2018/2/9
PRA000060	SAA003612	ST015				1S	Water	"River water"	2009	4						Asia	Japan	"Otake-bashi bridge, Sumida-gawa Riv"	35.752999		139.787674																																										"In major river of Toko Bay basin; Collected on days when no rainfall had occurred for 2 consecutive days"	2018/2/9	2018/2/9
PRA000060	SAA003613	ST015				2S	Water	"River water"	2009	4						Asia	Japan	"Ryogoku-bashi bridge, Shingashi-kawa Riv"	35.694167		139.788611																																										"Tidally-affected area; Collected on days when no rainfall had occurred for 2 consecutive days"	2018/2/9	2018/2/9
PRA000060	SAA003614	ST015				3S	Water	"River water"	2009	4						Asia	Japan	"Nishiarai-bashi bridge, Ara-kawa Riv"	35.758333		139.789195																																										"Tidally-affected area; Collected on days when no rainfall had occurred for 2 consecutive days"	2018/2/9	2018/2/9
PRA000060	SAA003615	ST015				4S	Water	"River water"	2009	4						Asia	Japan	"Nakagawa-ohashi bridge, Naka-gawa Riv"	35.758579		139.856855																																										"In major river of Toko Bay basin; Collected on days when no rainfall had occurred for 2 consecutive days"	2018/2/9	2018/2/9
PRA000060	SAA003616	ST015				5S	Water	"River water"	2009	4						Asia	Japan	"Shinkatsushika-bashi bridge, Edo-gawa Riv"	35.768063		139.879426																																										"In major river of Toko Bay basin; Collected on days when no rainfall had occurred for 2 consecutive days"	2018/2/9	2018/2/9
PRA000060	SAA003617	ST015				6S	Water	"River water"	2009	4						Asia	Japan	"Nakatugawa Confluence, Ara-kawa Riv"	35.951389		138.933889																																										"Nontidally-affected area; Collected on days when no rainfall had occurred for 2 consecutive days"	2018/2/9	2018/2/9
PRA000060	SAA003618	ST015				7S	Water	"River water"	2009	4						Asia	Japan	"Akahira-hashi bridge, Akahira-kawa Riv"	36.013147		139.039814																																										"Nontidally-affected area; Collected on days when no rainfall had occurred for 2 consecutive days"	2018/2/9	2018/2/9
PRA000060	SAA003619	ST015				8S	Water	"River water"	2009	4						Asia	Japan	"Haraya-bashi bridge, Yokose-gawa Riv"	36.029167		139.105278																																										"Nontidally-affected area; Collected on days when no rainfall had occurred for 2 consecutive days"	2018/2/9	2018/2/9
PRA000060	SAA003620	ST015				9S	Water	"River water"	2009	4						Asia	Japan	"Kuge-hashi bridge, Ara-kawa Riv"	36.118253		139.407955																																										"Nontidally-affected area; Collected on days when no rainfall had occurred for 2 consecutive days"	2018/2/9	2018/2/9
PRA000060	SAA003621	ST015				10S	Water	"River water"	2009	4						Asia	Japan	"Higashimatsuyama-bashi bridge, Toki-gawa Riv"	36.012003		139.401085																																										"Nontidally-affected area; Collected on days when no rainfall had occurred for 2 consecutive days"	2018/2/9	2018/2/9
PRA000060	SAA003622	ST015				11S	Water	"River water"	2009	4						Asia	Japan	"Imakawa-hashi bridge, Oppe-kawa Riv"	35.96755		139.343226																																										"Nontidally-affected area; Collected on days when no rainfall had occurred for 2 consecutive days"	2018/2/9	2018/2/9
PRA000060	SAA003623	ST015				12S	Water	"River water"	2009	4						Asia	Japan	"Tenjin-hashi bridge, Koma-kawa Riv"	35.886035		139.31177																																										"Nontidally-affected area; Collected on days when no rainfall had occurred for 2 consecutive days"	2018/2/9	2018/2/9
PRA000060	SAA003624	ST015				13S	Water	"River water"	2009	4						Asia	Japan	"Mukai-hashi bridge, Kasumi-gawa Riv"	35.845917		139.388778																																										"Nontidally-affected area; Collected on days when no rainfall had occurred for 2 consecutive days"	2018/2/9	2018/2/9
PRA000060	SAA003625	ST015				14S	Water	"River water"	2009	4						Asia	Japan	"Kiyokawa-bashi bridge, Nariki-gawa Riv"	35.836556		139.316806																																										"Nontidally-affected area; Collected on days when no rainfall had occurred for 2 consecutive days"	2018/2/9	2018/2/9
PRA000060	SAA003626	ST015				15S	Water	"River water"	2009	4						Asia	Japan	"Yagawa-hashi bridge, Iruma-kawa Riv"	35.844924		139.318595																																										"Nontidally-affected area; Collected on days when no rainfall had occurred for 2 consecutive days"	2018/2/9	2018/2/9
PRA000060	SAA003627	ST015				16S	Water	"River water"	2009	4						Asia	Japan	"Tenjin-hashi bridge, Ichino-kawa Riv"	36.045406		139.413723																																										"Nontidally-affected area; Collected on days when no rainfall had occurred for 2 consecutive days"	2018/2/9	2018/2/9
PRA000060	SAA003628	ST015				17S	Water	"River water"	2009	4						Asia	Japan	"Ronsho-hashi bridge, Toemon-kawa Riv"	35.850082		139.706646																																										"Nontidally-affected area; Collected on days when no rainfall had occurred for 2 consecutive days"	2018/2/9	2018/2/9
PRA000060	SAA003629	ST015				18S	Water	"River water"	2009	4						Asia	Japan	"Sakai-hashi bridge, Shiba-kawa Riv"	35.917229		139.643685																																										"Nontidally-affected area; Collected on days when no rainfall had occurred for 2 consecutive days"	2018/2/9	2018/2/9
PRA000060	SAA003630	ST015				19S	Water	"River water"	2009	4						Asia	Japan	"Haccho-hashi bridge, Shiba-kawa Riv"	35.862111		139.713639																																										"Nontidally-affected area; Collected on days when no rainfall had occurred for 2 consecutive days"	2018/2/9	2018/2/9
PRA000060	SAA003631	ST015				20S	Water	"River water"	2009	4						Asia	Japan	"Toge-hashi bridge, Koaze-kawa Riv"	35.947773		139.459734																																										"Nontidally-affected area; Collected on days when no rainfall had occurred for 2 consecutive days"	2018/2/9	2018/2/9
PRA000060	SAA003632	ST015				21S	Water	"River water"	2009	4						Asia	Japan	"Hatsukari-bashi bridge, Iruma-kawa Riv"	35.919158		139.451473																																										"Nontidally-affected area; Collected on days when no rainfall had occurred for 2 consecutive days"	2018/2/9	2018/2/9
PRA000060	SAA003633	ST015				22S	Water	"River water"	2009	4						Asia	Japan	"Shiritu Urawaminami high school aside, Sasame-kawa Riv"	35.830519		139.657128																																										"Nontidally-affected area; Collected on days when no rainfall had occurred for 2 consecutive days"	2018/2/9	2018/2/9
PRA000060	SAA003634	ST015				23S	Water	"River water"	2009	4						Asia	Japan	"Asahi-hashi bridge, Shingashi-kawa Riv"	35.892252		139.505062																																										"Nontidally-affected area; Collected on days when no rainfall had occurred for 2 consecutive days"	2018/2/9	2018/2/9
PRA000060	SAA003635	ST015				24S	Water	"River water"	2009	4						Asia	Japan	"Shiroshita-bashi bridge, Azuma-gawa Riv"	35.805417		139.535222																																										"Nontidally-affected area; Collected on days when no rainfall had occurred for 2 consecutive days"	2018/2/9	2018/2/9
PRA000060	SAA003636	ST015				25S	Water	"River water"	2009	4						Asia	Japan	"Iroha-bashi bridge, Shingashi-kawa Riv"	35.83621		139.581388																																										"Nontidally-affected area; Collected on days when no rainfall had occurred for 2 consecutive days"	2018/2/9	2018/2/9
PRA000060	SAA003637	ST015				26S	Water	"River water"	2009	4						Asia	Japan	"Azuma-bashi bridge, Kurome-kawa Riv"	35.810833		139.608056																																										"Nontidally-affected area; Collected on days when no rainfall had occurred for 2 consecutive days"	2018/2/9	2018/2/9
PRA000060	SAA003638	ST015				27S	Water	"River water"	2009	4						Asia	Japan	"Showa-hashi bridge, Niigata-kawa Riv"	35.896118		139.828565																																										"Tidally-affected area; Collected on days when no rainfall had occurred for 2 consecutive days"	2018/2/9	2018/2/9
PRA000060	SAA003639	ST015				28S	Water	"River water"	2009	4						Asia	Japan	"Nawate-hashi bridge, Ayase-kawa Riv"	35.887312		139.741164																																										"Tidally-affected area; Collected on days when no rainfall had occurred for 2 consecutive days"	2018/2/9	2018/2/9
PRA000060	SAA003640	ST015				29S	Water	"River water"	2009	4						Asia	Japan	"Tone Ozeki, Tone-gawa Riv"	36.188611		139.473333																																										"Nontidally-affected area; Collected on days when no rainfall had occurred for 2 consecutive days"	2018/2/9	2018/2/9
PRA000060	SAA003641	ST015				30S	Water	"River water"	2009	4						Asia	Japan	"Kuri-hashi bridge, Tone-gawa Riv"	36.142778		139.705																																										"Nontidally-affected area; Collected on days when no rainfall had occurred for 2 consecutive days"	2018/2/9	2018/2/9
PRA000060	SAA003642	ST015				31S	Water	"River water"	2009	4						Asia	Japan	"Sekiyado-hashi bridge, Edo-gawa Riv"	36.081444		139.779944																																										"Nontidally-affected area; Collected on days when no rainfall had occurred for 2 consecutive days"	2018/2/9	2018/2/9
PRA000060	SAA003643	ST015				32S	Water	"River water"	2009	4						Asia	Japan	"Unga-bashi bridge, Tone-unga Canal"	35.915896		139.905299																																										"Nontidally-affected area; Collected on days when no rainfall had occurred for 2 consecutive days"	2018/2/9	2018/2/9
PRA000060	SAA003644	ST019				55S	Water	"Sewage treatment plant (STP) effluent"	2009	4						Asia	Japan	Saitama	35.75361111	36.28333333	138.7113889	139.9002778																																									"Plant A; Population served: 320K; Collected on days when no rainfall had occurred for 2 consecutive days"	2018/2/9	2018/2/9
PRA000060	SAA003645	ST019				56S	Water	"Sewage treatment plant (STP) effluent"	2009	4						Asia	Japan	Saitama	35.75361111	36.28333333	138.7113889	139.9002778																																									"Plant B; Population served: 15K; Collected on days when no rainfall had occurred for 2 consecutive days"	2018/2/9	2018/2/9
PRA000060	SAA003646	ST019				57S	Water	"Sewage treatment plant (STP) effluent"	2009	4						Asia	Japan	Saitama	35.75361111	36.28333333	138.7113889	139.9002778																																									"Plant C; Population served: 33K; Collected on days when no rainfall had occurred for 2 consecutive days"	2018/2/9	2018/2/9
PRA000060	SAA003647	ST019				58S	Water	"Sewage treatment plant (STP) effluent"	2009	4						Asia	Japan	Saitama	35.75361111	36.28333333	138.7113889	139.9002778																																									"Plant D; Population served: 1200K;  Collected on days when no rainfall had occurred for 2 consecutive days"	2018/2/9	2018/2/9
PRA000060	SAA003648	ST019				59S	Water	"Sewage treatment plant (STP) effluent"	2009	4						Asia	Japan	Saitama	35.75361111	36.28333333	138.7113889	139.9002778																																									"Plant D (Advanced water treatment); Population served:1200K;  Collected on days when no rainfall had occurred for 2 consecutive days"	2018/2/9	2018/2/9
PRA000060	SAA003649	ST019				60S	Water	"Sewage treatment plant (STP) effluent"	2009	4						Asia	Japan	Saitama	35.75361111	36.28333333	138.7113889	139.9002778																																									"Plant E; Population served: 110K;  Collected on days when no rainfall had occurred for 2 consecutive days"	2018/2/9	2018/2/9
PRA000066	SAA003774	ST015				Hokkaido_w1_2015	Water	"River water"	2015	9	15	2015-09-15T14:10			Cloudy	Asia	Japan	"Bifuka Bridge,  Tenshio Riv, Hokkaido"	44.48138889		142.3341667														20.2	17.6	7.9	11				5.4			Clear																			2018/5/8	2019/7/19
PRA000066	SAA003775	ST015				Hokkaido_w2_2015	Water	"River water"	2015	10	22	2015-10-22T10:20			Fair	Asia	Japan	"Suzuran-ohashi Bridge, Riv. Tokachi (Obihiro City), Hokkaido"	42.94583333		143.1855556														10.9	9.4	7.7	11				4			Clear																			2018/05/08	2019/07/19
PRA000066	SAA003776	ST015				Hokkaido_w3_2015	Water	"River water"	2015	11	10	2015-11-10T10:23			Cloudy	Asia	Japan	"Ishikarikako-kyo Bridge, Mouth of Riv. Ishikari (Ishikari City), Hokkaido"	43.22861111		141.3519444														2	6.9	8.1	11				1			Brown																			2018/05/08	2019/07/19
PRA000066	SAA003777	ST015				SapporoCity_w1_2015	Water	"River water"	2015	11	12	2015-11-12T15:00			Fair	Asia	Japan	"Nakanuma of Riv. Toyohira (Sapporo City), Hokkaido"	43.14083333		141.4530556														6.5	7.3	7.1	11				2			Green																			2018/05/08	2019/07/19
PRA000066	SAA003778	ST015				SapporoCity_w2_2015	Water	"River water"	2015	11	12	2015-11-12T10:30			Fair	Asia	Japan	"Daiichishinkawa-bashi Bridge, Riv. Shin (Sapporo City), Hokkaido"	43.15194444		141.2377778														8.1	9.1	7	9.7				6			Green																			2018/05/08	2019/07/19
PRA000066	SAA003779	ST015				Iwate_w1_2015	Water	"River water"	2015	10	14	2015-10-14T10:12			Cloudy	Asia	Japan	"Riv. Toyosawa (Hanamaki City), Iwate"	39.38166667		141.1191667														11.1	13.3	7.3	10	9			2			Clear																			2018/05/08	2019/07/19
PRA000066	SAA003780	ST015				Miyagi_w1_2015	Water	"River water"	2015	11	4	2015-11-04T13:40			Fair	Asia	Japan	"Futatsuya-bashi Bridge, Riv. Hasama (Tome City), Miyagi"	38.57138889		141.2136111														17.2	13.7	7.8	11	16			3			Clear																			2018/05/08	2019/07/19
PRA000066	SAA003781	ST015				Miyagi_w2_2015	Water	"River water"	2015	11	4	2015-11-04T10:35			Fair	Asia	Japan	"Sakura-hodoukyou Bridge, Riv. Shiroishi (Shibata Town), Miyagi"	38.06083333		140.7677778														15.2	12.4	7.5	10	19			2			Clear																			2018/05/08	2019/07/19
PRA000066	SAA003782	ST015				Akita_w1_2015	Water	"River water"	2015	11	16	2015-11-16T11:58			Fair	Asia	Japan	"Akita Canal (Akita City), Akita"	39.75083333		140.0586111														17.6	12.9	7.1					6		1.1	"Yellowish brown"																			2018/05/08	2019/07/19
PRA000066	SAA003783	ST015				Yamagata_w1_2015	Water	"River water"	2015	11	19	2015-11-19T09:10			Cloudy	Asia	Japan	"Mouth of Riv. Mogami, Yamagata"	38.88722222		139.8433333														10.5	12.3	7	10.3	12			5			"Light brown"																			2018/5/8	2019/7/19
PRA000066	SAA003784	ST015				Yamagata_w2_2015	Water	"River water"	2015	11	11	2015-11-11T13:30			Cloudy	Asia	Japan	"Tozawa-bashi Bridge, Riv. Sake (Tozawa Village), Yamagata"	38.7525		140.2002778														9.6	11.9	7.2	11	14			1			Clear																			2018/05/08	2019/07/19
PRA000066	SAA003785	ST015				Ibaraki_w1_2015	Water	"River water"	2015	10	31	2015-10-31T11:20			Cloudy	Asia	Japan	"Miyatakawa-bashi Bridge, Riv. Miyata (Hitachi City), Ibaraki"	36.59777778		140.6583333														15.6	18	7.9	9	200			3			Clear																			2018/05/08	2019/07/19
PRA000066	SAA003786	ST015				Ibaraki_w2_2015	Water	"River water"	2015	11	17	2015-11-17T10:48			Fair	Asia	Japan	"Kamome-ohasi Bridge, Mouth of Riv. Tone (Kamisu City), Ibaraki"	35.77638889		140.7569444														21.5	17.5	7.8	8.1	250			7		0.8	Clear																			2018/05/08	2019/07/19
PRA000066	SAA003787	ST015				Tochigi_w1_2015	Water	"River water"	2015	12	8	2015-12-08T09:40			Fair	Asia	Japan	"Tagawa area-Toshuko Weir (Utsunomiya City), Tochigi"	36.52805556		139.8855556														7.5	9.5	7.3	11	21			1			Clear																			2018/05/08	2019/07/19
PRA000066	SAA003788	ST015				Saitama_w1_2015	Water	"River water"	2015	11	11	2015-11-11T10:05			Cloudy	Asia	Japan	"Dou-hashi Bridge, Riv. Naka (Kazo City), Saitama"	36.13638889		139.645														18.5	16.3	7.3	6.2	36			16			"Light grayish yellow"																			2018/05/08	2019/07/19
PRA000066	SAA003789	ST015				Chiba_w1_2015	Water	"River water"	2015	10	14	2015-10-14T09:15			Cloudy	Asia	Japan	"Asai-bashi Bridge, Riv. Yourou (Ichihara City), Chiba"	35.46722222		140.1155556														21.5	18.4	8.2	10.3				3			Clear																			2018/5/8	2019/7/19
PRA000066	SAA003790	ST015				Tokyo_w1_2015	Water	"River water"	2015	11	12	2015-11-12T10:25			Fair	Asia	Japan	"Mouth of Riv. Arakawa (Koto Ward), Tokyo"	35.64583333		139.8463889														15.1	17.8	7.6	5.1	3,380			19		0.7	"Greenish brown"																			2018/05/08	2019/07/19
PRA000066	SAA003791	ST015				Tokyo_w2_2015	Water	"River water"	2015	11	12	2015-11-12T12:45			Fair	Asia	Japan	"Mouth of Riv. Sumida (Minato Ward), Tokyo"	35.66		139.7705556														16	19.2	7.5	3.3	2,710			5		2	"Dark green"																			2018/05/08	2019/07/19
PRA000066	SAA003792	ST015				YokohamaCity_w1_2015	Water	"River water"	2015	10	21	2015-10-21T09:30			Cloudy	Asia	Japan	"Kamenoko-bashi Bridge, Riv. Tsurumi (Yokohama City), Kanagawa"	35.514622		139.607871														19.3	20.2	7.1	7.2	37			4			"Light brown"																			2018/05/08	2019/07/19
PRA000066	SAA003793	ST015				YokohamaCity_w2_2015	Water	"River water"	2015	11	18	2015-11-18T09:20			Fair	Asia	Japan	"Ebisu Canal (Yokohama City), Kanagawa"	35.48277778		139.6569444														19	20	7.6	6.2				10		>5.5	Clear																			2018/05/08	2019/07/19
PRA000066	SAA003794	ST014				YokohamaCity_w3_2015	Water	"Sea water"	2015	10	22	2015-10-22T09:50			Fair	Asia	Japan	"Yokohama Port, Kanagawa"	35.45555556		139.6636111														21.3	23.4	8.1	11.6				3		1.3	"Light brown"																			2018/5/8	2019/7/19
PRA000066	SAA003795	ST015				Niigata_w1_2015	Water	"River water"	2015	10	15	2015-10-15T10:10			Fair	Asia	Japan	"Ouun-bashi Bridge, Riv. Agano (Niigata City), Niigata"	37.85083333		139.155														16.7	15.2	7	10	10			<1			"Grayish green"																			2018/05/08	2019/07/19
PRA000066	SAA003796	ST015				Niigata_w2_2015	Water	"River water"	2015	10	14	2015-10-14T09:55			Fair	Asia	Japan	"Downstream of Riv. Shinano (Niigata City), Niigata"	37.88305556		139.0155556														18.5	15.9	7.5	9.3	16			15			"Grayish green"																			2018/05/08	2019/07/19
PRA000066	SAA003797	ST015				Toyama_w1_2015	Water	"River water"	2015	10	21	2015-10-21T09:30			Fair	Asia	Japan	"Daimon-ohashi Bridge, Riv. Sho (Imizu City), Toyama"	36.735		137.0436111														17.8	15.7	7.7	10				<1			Clear																			2018/05/08	2019/07/19
PRA000066	SAA003798	ST015				Ishikawa_w1_2015	Water	"River water"	2015	11	5	2015-11-05T10:05			Fair	Asia	Japan	"Mouth of Riv. Sai (Kanazawa City), Ishikawa"	36.60027778		136.5888889														21	15.4	7.2	8.8	189			10			Clear																			2018/05/08	2019/07/19
PRA000066	SAA003799	ST015				Nagano_w1_2015	Water	"River water"	2015	11	4	2015-11-04T11:39			Fair	Asia	Japan	"Ozeki-bashi Bridge, Riv. Chikuma (Iiyama City), Nagano"	36.8925		138.4033333														18.5	13.4	7.1	11	28			3			"Light greenish brown"																			2018/05/08	2019/07/19
PRA000066	SAA003800	ST015				Shizuoka_w1_2015	Water	"River water"	2015	10	27	2015-10-27T13:00			Fair	Asia	Japan	"Riv. Tenryu (Iwata City), Shizuoka"	34.67916667		137.7961111														25.8	19.1	7.6	11.6	12			5			Clear																			2018/05/08	2019/07/19
PRA000066	SAA003801	ST015				Aichi_w1_2015	Water	"River water"	2015	10	28	2015-10-27T12:00			Fair	Asia	Japan	"Sakai-ohashi Bridge, Riv. Aizuma (Kariya City), Aichi"	35.00833333		136.9891667														22	20.5	6.9	7.5	81			41			"Yellowish brown"																			2018/5/8	2019/7/19
PRA000066	SAA003802	ST014				Aichi_w2_2015	Water	"Sea water"	2015	10	27	2015-10-27T12:26			Cloudy	Asia	Japan	"Nagoya Port, West of Shiomi Wharf, Aichi"	35.07111111		136.8691667														22.6	24.3	7.7	4.9	4,100			4		2.5	"Light green"																			2018/5/8	2019/7/19
PRA000066	SAA003804	ST014				NagoyaCity_w2_2015	Water	"Sea water"	2015	10	26	2015-10-26T14:00			Fair	Asia	Japan	"Nagoya Port , North of Shiomi Wharf, Aichi"	35.07194444		136.8747222														22.1	23.6	7.8	4				19			Clear																			2018/5/8	2019/7/19
PRA000066	SAA003805	ST014				Mie_w1_2015	Water	"Sea water"	2015	10	21	2015-10-21T10:30			Fair	Asia	Japan	"Yokkaichi Port, Mie"	34.94944444		136.6530556														26	20.8	8.3	9.6	3,980			1		2	"Blue green_dark"																			2018/5/8	2019/7/19
PRA000066	SAA003806	ST015				Shiga_w1_2015	Water	"Lake water"	2015	10	27	2015-10-27T09:25			Fair	Asia	Japan	"Lake Biwa (center, offshore of Minamihira), Shiga"	35.18527778		135.9733333														19.8	19.1	7.6	9.3	118			1		7.2	Green_dark																			2018/05/08	2019/07/19
PRA000066	SAA003807	ST015				Shiga_w2_2015	Water	"Lake water"	2015	10	27	2015-10-27T10:15			Fair	Asia	Japan	"Lake Biwa (center, offshore of Karasaki), Shiga"	35.04611111		135.8955556														19.8	18.1	7.6	9.4	120			2		2.9	Green_dark																			2018/05/08	2019/07/19
PRA000066	SAA003808	ST014				Kyoto_w1_2015	Water	"Sea water"	2015	10	23	2015-10-23T10:13			Fair	Asia	Japan	"Miyazu Port, Kyoto"	35.58305556		135.2138889														18.6	20.9	8.5	7.3				5		10	Clear																			2018/5/8	2019/7/19
PRA000066	SAA003809	ST015				Osaka_w1_2015	Water	"River water"	2015	11	19	2015-11-19T09:35			Cloudy	Asia	Japan	"Mouth of Riv. Yamato (Sakai City), Osaka"	34.60833333		135.4325														17.3	17.1	7.8	7.8				14		0.7	"Yellowish brown"																			2018/05/08	2019/08/02
PRA000066	SAA003810	ST015				OsakaCity_w1_2015	Water	"River water"	2015	10	28	2015-10-28T09:55			Fair	Asia	Japan	"Kema-bashi Bridge, Riv. Oh-kawa (Osaka City), Osaka"	34.717760		135.519610														22	19	7.6	9.3	20			4			"Light grayish yellow"																			2018/05/08	2019/07/19
PRA000066	SAA003811	ST014				OsakaCity_w2_2015	Water	"Sea water"	2015	10	27	2015-10-27T09:00			Fair	Asia	Japan	"Osaka Port, Osaka"	34.65861111		135.4313889														23	20.6	8.1	6.8	3,110			0		3.3	"Light grayish yellow"																			2018/5/8	2019/7/19
PRA000066	SAA003812	ST014				Hyogo_w1_2015	Water	"Sea water"	2015	11	5	2015-11-05T11:10			Fair	Asia	Japan	"Coast of Amagasaki, Hhogo"	34.70305556		135.4002778														20.2	19.8	8.5	10.7	2,590			2			"Grayish green"																			2018/5/8	2019/8/2
PRA000066	SAA003813	ST015				Hyogo_w2_2015	Water	"River water"	2015	11	4	2015-11-04T13:00			Cloudy	Asia	Japan	"Manago-bashi Bridge, Riv. Hayashida (Taishi Town), Hyogo"	34.81472222		134.5572222														17.5	16.5	9	10.8	14			0			Transparent																			2018/05/08	2019/07/19
PRA000066	SAA003814	ST014				Hyogo_w3_2015	Water	"Sea water"	2015	10	22	2015-10-22T11:20			Cloudy	Asia	Japan	"Offshore of Himeji, Hyogo"	34.76194444		134.6697222														21.3	23.3	8.2	7.2	4,480			9		3.8	"Greenish brown"																			2018/5/8	2019/7/19
PRA000066	SAA003815	ST015				Wakayama_w1_2015	Water	"River water"	2015	11	16	2015-11-16T12:30			Fair	Asia	Japan	"Kinokawa-ohashi Bridge, Mouth of Riv. Kinokawa (Wakayama City), Wakayama"	34.23		135.1561111														23.4	20.8	7.6	8.5	1,900			"<1 "		1.2	"Grayish yellow green"																			2018/5/8	2019/7/19
PRA000066	SAA003816	ST015				Okayama_w1_2015	Water	"River water"	2015	11	25	2015-11-25T10:40			Cloudy	Asia	Japan	"Sasagase-bashi Bridge, Riv. Sasagase (Okayama City), Okayama"	34.61916667		133.9061111														14	13	7.4	8.1				4			"Grayish green"																			2018/5/8	2019/7/19
PRA000066	SAA003817	ST014				Okayama_w2_2015	Water	"Sea water"	2015	11	4	2015-11-04T10:00			Fair	Asia	Japan	"Offshore of Mizushima, Okayama"	34.48055556		133.665														18.5	19.5	7.9	7.3				2		5	"Dark green"																			2018/5/8	2019/7/19
PRA000066	SAA003818	ST014				Okayama_w3_2015	Water	"Sea water"	2015	11	4	2015-11-04T12:40			Fair	Asia	Japan	"Bisanseto, Okayama"	34.43166667		133.9238889														19.5	20.7	7.9	7				2		5	"Dark bluish green"																			2018/05/08	2019/07/19
PRA000066	SAA003819	ST014				Hiroshima_w1_2015	Water	"Sea water"	2015	10	6	2015-10-06T09:51			Fair	Asia	Japan	"Ootake-Iwakuni Ocean area, Hiroshima"	34.23388889		132.2366667														21.1	22.1	8.2	8				2		3.5	"Dark greenish blue"																			2018/5/8	2019/7/19
PRA000066	SAA003820	ST014				Yamagachi_w1_2015	Water	"Sea water"	2015	10	7	2015-10-07T10:41			Fair	Asia	Japan	"Tokuyama Bay, Yamaguchi"	33.99361111		131.7505556														24.9	23.4	8.2	8				0		5	"Blue green"																			2018/5/8	2019/7/19
PRA000066	SAA003821	ST014				Yamaguchi_w2_2015	Water	"Sea water"	2015	10	22	2015-10-22T10:30			Cloudy	Asia	Japan	"Offshore of Hagi, Yamaguchi"	34.43805556		131.3794444														21	21.5	8.2	7				1		13	"Blue green"																			2018/5/8	2019/7/19
PRA000066	SAA003822	ST014				Kagawa_w1_2015	Water	"Sea water"	2015	10	13	2015-10-13T09:05			Fair	Asia	Japan	"Takamatsu Port, Kagawa"	34.34972222		134.0788889														21.7	22.7	8	6.2				2		2	Green																			2018/5/8	2019/7/19
PRA000066	SAA003823	ST015				Kochi_w1_2015	Water	"River water"	2015	10	30	2015-10-30T09:45			Cloudy	Asia	Japan	"Nikkawa-gawa-bashi Bridge, Riv. Nikkawa (Kochi), Kochi"	33.48833333		133.5086111														18	16.1	6.6	6.5	192			<1			Clear																			2018/05/08	2019/07/19
PRA000066	SAA003824	ST015				Fukuoka_w1_2015	Water	"River water"	2015	10	22	2015-10-22T10:25			Fair	Asia	Japan	"Kabura-bashi Bridge, Riv. Raizan (Itoshima City), Fukuoka"	33.565		130.1902778														22	20.2	7.7	7.3	20			9			"Light yellowish green"																			2018/5/8	2019/7/19
PRA000066	SAA003825	ST014				Fukuoka_w2_2015	Water	"Sea water"	2015	10	29	2015-10-29T10:30			Fair	Asia	Japan	"Offshore of Omuta, Fukuoka"	33.03472222		130.4113889														18	20.8	8.2	5.8	4,300			6		1.5	"Light yellowish green"																			2018/5/8	2019/7/19
PRA000066	SAA003826	ST014				KitakyushuCity_w1_2015	Water	"Sea water"	2015	10	20	2015-10-20T09:20			Fair	Asia	Japan	"Dokai Bay, Fukuoka"	33.90388889		130.8158333														22.2	21.4	8.2	9.6	4,660			1		3.5	Clear																			2018/5/8	2019/7/19
PRA000066	SAA003827	ST014				FukuokaCity_w1_2015	Water	"Sea water"	2015	11	30	2015-11-30T08:53			Fair	Asia	Japan	"Hakata Bay, Fukuoka"	33.60833333		130.3297222														13.5	14.5	8.1	6.6	4,810			3		2	"Yellowish green"																			2018/5/8	2019/7/19
PRA000066	SAA003828	ST014				Oita_w1_2015	Water	"Sea water"	2015	12	1	2015-12-01T10:48			Fair	Asia	Japan	"Saganoseki Port, Oita"	33.25361111		131.8677778														14.2	18.3	8	7.3				3		8	"Light greenish brown"																			2018/5/8	2019/7/19
PRA000066	SAA003829	ST015				Oita_w2_2015	Water	"River water"	2015	12	8	2015-12-08T11:13			Fair	Asia	Japan	"Mouth of Riv. Oita, Oita"	33.25722222		131.6175														19	14.9	7.8	8.8	1,400			1			"Light greenish brown"																			2018/5/8	2019/7/19
PRA000066	SAA003830	ST015				Miyazaki_w1_2015	Water	"River water"	2015	11	10	2015-11-10T11:25			Fair	Asia	Japan	"Houri-ohashi Bridge, Riv. Houri (Nobeoka City), Miyazaki"	32.59805556		131.68														24.5	21.5	7.6	5.7				1			Clear																			2018/05/08	2019/07/19
PRA000066	SAA003831	ST015				Miyazaki_w2_2015	Water	"River water"	2015	11	10	2015-11-10T10:45			Fair	Asia	Japan	"Naka-bashi Bridge, Riv. Hama (Nobeoka City), Miyazaki"	32.55694444		131.6825														21.2	27	7.7	7.7				4			Clear																			2018/05/08	2019/07/19
PRA000067	SAA003774	ST015				Hokkaido_w1_2015	Water	"River water"	2015	9	15	2015-09-15T14:10			Cloudy	Asia	Japan	"Bifuka Bridge,  Tenshio Riv, Hokkaido"	44.48138889		142.3341667														20.2	17.6	7.9	11				5.4			Clear																			2018/5/8	2019/7/19
PRA000067	SAA003775	ST015				Hokkaido_w2_2015	Water	"River water"	2015	10	22	2015-10-22T10:20			Fair	Asia	Japan	"Suzuran-ohashi Bridge, Riv. Tokachi (Obihiro City), Hokkaido"	42.94583333		143.1855556														10.9	9.4	7.7	11				4			Clear																			2018/05/08	2019/07/19
PRA000067	SAA003776	ST015				Hokkaido_w3_2015	Water	"River water"	2015	11	10	2015-11-10T10:23			Cloudy	Asia	Japan	"Ishikarikako-kyo Bridge, Mouth of Riv. Ishikari (Ishikari City), Hokkaido"	43.22861111		141.3519444														2	6.9	8.1	11				1			Brown																			2018/05/08	2019/07/19
PRA000067	SAA003779	ST015				Iwate_w1_2015	Water	"River water"	2015	10	14	2015-10-14T10:12			Cloudy	Asia	Japan	"Riv. Toyosawa (Hanamaki City), Iwate"	39.38166667		141.1191667														11.1	13.3	7.3	10	9			2			Clear																			2018/05/08	2019/07/19
PRA000067	SAA003780	ST015				Miyagi_w1_2015	Water	"River water"	2015	11	4	2015-11-04T13:40			Fair	Asia	Japan	"Futatsuya-bashi Bridge, Riv. Hasama (Tome City), Miyagi"	38.57138889		141.2136111														17.2	13.7	7.8	11	16			3			Clear																			2018/05/08	2019/07/19
PRA000067	SAA003781	ST015				Miyagi_w2_2015	Water	"River water"	2015	11	4	2015-11-04T10:35			Fair	Asia	Japan	"Sakura-hodoukyou Bridge, Riv. Shiroishi (Shibata Town), Miyagi"	38.06083333		140.7677778														15.2	12.4	7.5	10	19			2			Clear																			2018/05/08	2019/07/19
PRA000067	SAA003832	ST015				Sendai_w1_2015	Water	"River water"	2015	11	11	2015-11-11T10:10			Fair	Asia	Japan	"Hirose-ohashi Bridge, Riv. Hirose (Sendai City), Miyagi"	38.21333333		140.9088889														14.8	12.9	6.7	11.5	0.02			1			Clear																			2018/05/08	2019/08/02
PRA000067	SAA003782	ST015				Akita_w1_2015	Water	"River water"	2015	11	16	2015-11-16T11:58			Fair	Asia	Japan	"Akita Canal (Akita City), Akita"	39.75083333		140.0586111														17.6	12.9	7.1					6		1.1	"Yellowish brown"																			2018/05/08	2019/07/19
PRA000067	SAA003833	ST015				Yamagata_w3_2015	Water	"River water"	2015	11	11	2015-11-11T10:45			Fair	Asia	Japan	"Confluence of Riv. Murayamano and Riv. Mogami (Higashine City), Yamagata"	38.43861111		140.3366667														11.7	13.3	7.2	9.5	36			1			Clear																			2018/05/08	2019/08/02
PRA000067	SAA003786	ST015				Ibaraki_w2_2015	Water	"River water"	2015	11	17	2015-11-17T10:48			Fair	Asia	Japan	"Kamome-ohasi Bridge, Mouth of Riv. Tone (Kamisu City), Ibaraki"	35.77638889		140.7569444														21.5	17.5	7.8	8.1	250			7		0.8	Clear																			2018/05/08	2019/07/19
PRA000067	SAA003834	ST015				Tochigi_w1-2_2015	Water	"River water"	2016	1	14	2016-01-14T10:40			Fair	Asia	Japan	"Tagawa area-Toshuko Weir (Utsunomiya City), Tochigi"	36.52805556		139.8855556														6.5	6.4	7.4	12	19			1			Clear																			2018/05/08	2019/08/02
PRA000067	SAA003835	ST015				Gunma_w1_2015	Water	"River water"	2015	11	4	2015-11-04T10:00			Fair	Asia	Japan	"Tago-bashi Bridge, Riv. Kabura (Takasaki City), Gunma"	36.26638889		138.9883333														15	12	7.9	10	35			2			Clear																			2018/05/08	2019/08/02
PRA000067	SAA003836	ST015				Saitama_w2_2015	Water	"River water"	2015	11	11	2015-11-11T11:30			Cloudy	Asia	Japan	"Akigase-Shusuizeki Weir, Riv. Ara (Shiki City), Saitama"	35.84055556		139.6044444														18.3	16.6	7.6	8.4	25			4			"Grayish yellow_light"																			2018/05/08	2019/08/02
PRA000067	SAA003837	ST014				Chiba_w2_2015	Water	"Sea water"	2015	10	29	2015-10-29T09:38			"Light rain"	Asia	Japan	"Ichihara-Anesaki Coast, Chiba"	35.52166667		140.0283333														17.4	19.8	8.2	7.9	4350			2			"Yellowish green_dark"																			2018/5/8	2019/8/2
PRA000067	SAA003789	ST015				Chiba_w1_2015	Water	"River water"	2015	10	14	2015-10-14T09:15			Cloudy	Asia	Japan	"Asai-bashi Bridge, Riv. Yourou (Ichihara City), Chiba"	35.46722222		140.1155556														21.5	18.4	8.2	10.3				3			Clear																			2018/5/8	2019/7/19
PRA000067	SAA003790	ST015				Tokyo_w1_2015	Water	"River water"	2015	11	12	2015-11-12T10:25			Fair	Asia	Japan	"Mouth of Riv. Arakawa (Koto Ward), Tokyo"	35.64583333		139.8463889														15.1	17.8	7.6	5.1	3,380			19		0.7	"Greenish brown"																			2018/05/08	2019/07/19
PRA000067	SAA003791	ST015				Tokyo_w2_2015	Water	"River water"	2015	11	12	2015-11-12T12:45			Fair	Asia	Japan	"Mouth of Riv. Sumida (Minato Ward), Tokyo"	35.66		139.7705556														16	19.2	7.5	3.3	2,710			5		2	"Dark green"																			2018/05/08	2019/07/19
PRA000067	SAA003792	ST015				YokohamaCity_w1_2015	Water	"River water"	2015	10	21	2015-10-21T09:30			Cloudy	Asia	Japan	"Kamenoko-bashi Bridge, Riv. Tsurumi (Yokohama City), Kanagawa"	35.514622		139.607871														19.3	20.2	7.1	7.2	37			4			"Light brown"																			2018/05/08	2019/07/19
PRA000067	SAA003794	ST014				YokohamaCity_w3_2015	Water	"Sea water"	2015	10	22	2015-10-22T09:50			Fair	Asia	Japan	"Yokohama Port, Kanagawa"	35.45555556		139.6636111														21.3	23.4	8.1	11.6				3		1.3	"Light brown"																			2018/5/8	2019/7/19
PRA000067	SAA003838	ST015				KawasakiCity_w1_2015	Water	"River water"	2015	11	17	2015-11-17T11:08			Fair	Asia	Japan	"Mouth of Riv. Tama (Kawasaki City), Kanagawa"	35.53		139.7836111														22.2	18.5	8	5.9	3800			6		3.1	"Grayish green"																			2018/05/08	2019/08/02
PRA000067	SAA003839	ST014				KawasakiCity_w2_2015	Water	"Sea water"	2015	11	17	2015-11-17T11:54			Fair	Asia	Japan	"Keihin Canal, Kawasaki Port, Kanagawa (front of Ogimachi)"	35.49527778		139.7277778														22.4	19.3	8	5.7	4500			4		7.5	"Blue green"																			2018/05/08	2019/09/02
PRA000067	SAA003840	ST014				Niigata_w3_2015	Water	"Sea water"	2015	10	6	2015-10-06T09:48			Fair	Asia	Japan	"Niigata-Higashi Port, Niigata"	38		139.2241667														17.8	22	8.3	10	4700			11		4	"Yellowish brown"																			2018/5/8	2019/8/2
PRA000067	SAA003796	ST015				Niigata_w2_2015	Water	"River water"	2015	10	14	2015-10-14T09:55			Fair	Asia	Japan	"Downstream of Riv. Shinano (Niigata City), Niigata"	37.88305556		139.0155556														18.5	15.9	7.5	9.3	16			15			"Grayish green"																			2018/05/08	2019/07/19
PRA000067	SAA003798	ST015				Ishikawa_w1_2015	Water	"River water"	2015	11	5	2015-11-05T10:05			Fair	Asia	Japan	"Mouth of Riv. Sai (Kanazawa City), Ishikawa"	36.60027778		136.5888889														21	15.4	7.2	8.8	189			10			Clear																			2018/05/08	2019/07/19
PRA000067	SAA003841	ST014				Shizuoka_w2_2015	Water	"Sea water"	2015	10	1	2015-10-01T09:15			Cloudy	Asia	Japan	"Shimizu Port, Shizuoka"	35.02416667		138.5161111														20	22.7	8.2	8.8	4530			10		2.5	Clear																			2018/5/8	2019/8/2
PRA000067	SAA003842	ST015				Shizuoka_w3_2015	Water	"River water"	2015	10	27	2015-10-27T10:00			Fair	Asia	Japan	"Kashima-bashi Bridge, Riv. Ushibuchi (Kakegawa City), Shizuoka"	34.66611111		138.0555556														22.8	17.2	6.9	8.6	30			5			"Grayish green"																			2018/05/08	2019/08/02
PRA000067	SAA003802	ST014				Aichi_w2_2015	Water	"Sea water"	2015	10	27	2015-10-27T12:26			Cloudy	Asia	Japan	"Nagoya Port, West of Shiomi Wharf, Aichi"	35.07111111		136.8691667														22.6	24.3	7.7	4.9	4,100			4		2.5	"Light green"																			2018/5/8	2019/7/19
PRA000067	SAA003804	ST014				NagoyaCity_w2_2015	Water	"Sea water"	2015	10	26	2015-10-26T14:00			Fair	Asia	Japan	"Nagoya Port , North of Shiomi Wharf, Aichi"	35.07194444		136.8747222														22.1	23.6	7.8	4				19			Clear																			2018/5/8	2019/7/19
PRA000067	SAA003805	ST014				Mie_w1_2015	Water	"Sea water"	2015	10	21	2015-10-21T10:30			Fair	Asia	Japan	"Yokkaichi Port, Mie"	34.94944444		136.6530556														26	20.8	8.3	9.6	3,980			1		2	"Blue green_dark"																			2018/5/8	2019/7/19
PRA000067	SAA003806	ST015				Shiga_w1_2015	Water	"Lake water"	2015	10	27	2015-10-27T09:25			Fair	Asia	Japan	"Lake Biwa (center, offshore of Minamihira), Shiga"	35.18527778		135.9733333														19.8	19.1	7.6	9.3	118			1		7.2	Green_dark																			2018/05/08	2019/07/19
PRA000067	SAA003807	ST015				Shiga_w2_2015	Water	"Lake water"	2015	10	27	2015-10-27T10:15			Fair	Asia	Japan	"Lake Biwa (center, offshore of Karasaki), Shiga"	35.04611111		135.8955556														19.8	18.1	7.6	9.4	120			2		2.9	Green_dark																			2018/05/08	2019/07/19
PRA000067	SAA003808	ST014				Kyoto_w1_2015	Water	"Sea water"	2015	10	23	2015-10-23T10:13			Fair	Asia	Japan	"Miyazu Port, Kyoto"	35.58305556		135.2138889														18.6	20.9	8.5	7.3				5		10	Clear																			2018/5/8	2019/7/19
PRA000067	SAA003809	ST015				Osaka_w1_2015	Water	"River water"	2015	11	19	2015-11-19T09:35			Cloudy	Asia	Japan	"Mouth of Riv. Yamato (Sakai City), Osaka"	34.60833333		135.4325														17.3	17.1	7.8	7.8				14		0.7	"Yellowish brown"																			2018/05/08	2019/08/02
PRA000067	SAA003810	ST015				OsakaCity_w1_2015	Water	"River water"	2015	10	28	2015-10-28T09:55			Fair	Asia	Japan	"Kema-bashi Bridge, Riv. Oh-kawa (Osaka City), Osaka"	34.717760		135.519610														22	19	7.6	9.3	20			4			"Light grayish yellow"																			2018/05/08	2019/07/19
PRA000067	SAA003811	ST014				OsakaCity_w2_2015	Water	"Sea water"	2015	10	27	2015-10-27T09:00			Fair	Asia	Japan	"Osaka Port, Osaka"	34.65861111		135.4313889														23	20.6	8.1	6.8	3,110			0		3.3	"Light grayish yellow"																			2018/5/8	2019/7/19
PRA000067	SAA003812	ST014				Hyogo_w1_2015	Water	"Sea water"	2015	11	5	2015-11-05T11:10			Fair	Asia	Japan	"Coast of Amagasaki, Hhogo"	34.70305556		135.4002778														20.2	19.8	8.5	10.7	2,590			2			"Grayish green"																			2018/5/8	2019/8/2
PRA000067	SAA003843	ST014				Hyogo_w4_2015	Water	"Sea water"	2015	10	22	2015-10-22T10:17			Cloudy	Asia	Japan	"Takasago-honko Port, Hyogo"	34.73361111		134.7988889														23.5	22.9	8.2	6.9	4360			10		1.3	"Grayish yellow green"																			2018/5/8	2019/8/2
PRA000067	SAA003814	ST014				Hyogo_w3_2015	Water	"Sea water"	2015	10	22	2015-10-22T11:20			Cloudy	Asia	Japan	"Offshore of Himeji, Hyogo"	34.76194444		134.6697222														21.3	23.3	8.2	7.2	4,480			9		3.8	"Greenish brown"																			2018/5/8	2019/7/19
PRA000067	SAA003844	ST014				Kobe_w1_2015	Water	"Sea water"	2015	11	20	2015-11-20T09:46			Fair	Asia	Japan	"Center of Kobe Port, Hyogo"	34.66444444		135.1944444														17	18.5	7.9	7.6				1		7.5	Green																			2018/5/8	2019/8/2
PRA000067	SAA003815	ST015				Wakayama_w1_2015	Water	"River water"	2015	11	16	2015-11-16T12:30			Fair	Asia	Japan	"Kinokawa-ohashi Bridge, Mouth of Riv. Kinokawa (Wakayama City), Wakayama"	34.23		135.1561111														23.4	20.8	7.6	8.5	1,900			"<1 "		1.2	"Grayish yellow green"																			2018/5/8	2019/7/19
PRA000067	SAA003845	ST014				Wakayama_w2_2015	Water	"Sea water"	2015	12	14	2015-12-14T09:00			Fair	Asia	Japan	"Wakayama-Shimotsu Port (Hokko-ku) ,  Wakayama"	34.23416667		135.1247222														14.8	20	8.3	7.5				1		3	Green_dark																			2018/05/08	2019/08/02
PRA000067	SAA003846	ST014				Okayama_w4_2015	Water	"Sea water"	2015	11	4	2015-11-04T13:15			Fair	Asia	Japan	"Offshore of Kojima Bay, Okayama"	34.52916667		134.0069444														21.5	20.4	7.9	7.5				2		2.5	"Yellowish green_dark"																			2018/5/8	2019/8/2
PRA000067	SAA003817	ST014				Okayama_w2_2015	Water	"Sea water"	2015	11	4	2015-11-04T10:00			Fair	Asia	Japan	"Offshore of Mizushima, Okayama"	34.48055556		133.665														18.5	19.5	7.9	7.3				2		5	"Dark green"																			2018/5/8	2019/7/19
PRA000067	SAA003820	ST014				Yamagachi_w1_2015	Water	"Sea water"	2015	10	7	2015-10-07T10:41			Fair	Asia	Japan	"Tokuyama Bay, Yamaguchi"	33.99361111		131.7505556														24.9	23.4	8.2	8				0		5	"Blue green"																			2018/5/8	2019/7/19
PRA000067	SAA003822	ST014				Kagawa_w1_2015	Water	"Sea water"	2015	10	13	2015-10-13T09:05			Fair	Asia	Japan	"Takamatsu Port, Kagawa"	34.34972222		134.0788889														21.7	22.7	8	6.2				2		2	Green																			2018/5/8	2019/7/19
PRA000067	SAA003847	ST014				Ehime_w1_2015	Water	"Sea water"	2015	10	30	2015-10-30T10:30			Cloudy	Asia	Japan	"Offshore of Niihama Port, Ehime"	33.98527778		133.2636111														19.5	20.4	8.1	8	5030			<1		3.5	"Grayish yellow green"																			2018/5/8	2019/8/2
PRA000067	SAA003824	ST015				Fukuoka_w1_2015	Water	"River water"	2015	10	22	2015-10-22T10:25			Fair	Asia	Japan	"Kabura-bashi Bridge, Riv. Raizan (Itoshima City), Fukuoka"	33.565		130.1902778														22	20.2	7.7	7.3	20			9			"Light yellowish green"																			2018/5/8	2019/7/19
PRA000067	SAA003825	ST014				Fukuoka_w2_2015	Water	"Sea water"	2015	10	29	2015-10-29T10:30			Fair	Asia	Japan	"Offshore of Omuta, Fukuoka"	33.03472222		130.4113889														18	20.8	8.2	5.8	4,300			6		1.5	"Light yellowish green"																			2018/5/8	2019/7/19
PRA000067	SAA003827	ST014				FukuokaCity_w1_2015	Water	"Sea water"	2015	11	30	2015-11-30T08:53			Fair	Asia	Japan	"Hakata Bay, Fukuoka"	33.60833333		130.3297222														13.5	14.5	8.1	6.6	4,810			3		2	"Yellowish green"																			2018/5/8	2019/7/19
PRA000067	SAA003829	ST015				Oita_w2_2015	Water	"River water"	2015	12	8	2015-12-08T11:13			Fair	Asia	Japan	"Mouth of Riv. Oita, Oita"	33.25722222		131.6175														19	14.9	7.8	8.8	1,400			1			"Light greenish brown"																			2018/5/8	2019/7/19
PRA000067	SAA003831	ST015				Miyazaki_w2_2015	Water	"River water"	2015	11	10	2015-11-10T10:45			Fair	Asia	Japan	"Naka-bashi Bridge, Riv. Hama (Nobeoka City), Miyazaki"	32.55694444		131.6825														21.2	27	7.7	7.7				4			Clear																			2018/05/08	2019/07/19
PRA000068	SAA003775	ST015				Hokkaido_w2_2015	Water	"River water"	2015	10	22	2015-10-22T10:20			Fair	Asia	Japan	"Suzuran-ohashi Bridge, Riv. Tokachi (Obihiro City), Hokkaido"	42.94583333		143.1855556														10.9	9.4	7.7	11				4			Clear																			2018/05/08	2019/07/19
PRA000068	SAA003776	ST015				Hokkaido_w3_2015	Water	"River water"	2015	11	10	2015-11-10T10:23			Cloudy	Asia	Japan	"Ishikarikako-kyo Bridge, Mouth of Riv. Ishikari (Ishikari City), Hokkaido"	43.22861111		141.3519444														2	6.9	8.1	11				1			Brown																			2018/05/08	2019/07/19
PRA000068	SAA003779	ST015				Iwate_w1_2015	Water	"River water"	2015	10	14	2015-10-14T10:12			Cloudy	Asia	Japan	"Riv. Toyosawa (Hanamaki City), Iwate"	39.38166667		141.1191667														11.1	13.3	7.3	10	9			2			Clear																			2018/05/08	2019/07/19
PRA000068	SAA003920	ST014				Miyagi_w3_2015	Water	"Sea water"	2015	10	19	2015-10-19T10:10			Fair	Asia	Japan	"Sendai Bay (Matsushima Bay), Miyagi"	38.35333333		141.0975														19.3	17.2	8	8	4200			3		2.5	Brown																			2018/5/11	2019/8/5
PRA000068	SAA003921	ST015				Akita_w3_2015	Water	"Lake water"	2015	10	16	2015-10-16T10:27			Fair	Asia	Japan	"Lake Hachiro, Akita"	39.92277778		139.9988889														22.8	14.6	8.9		239			21		0.5	"Grayish green"																			2018/5/11	2019/8/5
PRA000068	SAA003783	ST015				Yamagata_w1_2015	Water	"River water"	2015	11	19	2015-11-19T09:10			Cloudy	Asia	Japan	"Mouth of Riv. Mogami, Yamagata"	38.88722222		139.8433333														10.5	12.3	7	10.3	12			5			"Light brown"																			2018/5/8	2019/7/19
PRA000068	SAA003922	ST014				Fukushima_w1_2015	Water	"Sea water"	2015	11	12	2015-11-12T10:15			Fair	Asia	Japan	"Onahama Port, Fukushima"	36.92472222		140.8752778														13.7	16.7	8.1	7.5	4470			3		2	"Greenish brown"																			2018/5/11	2019/8/5
PRA000068	SAA003786	ST015				Ibaraki_w2_2015	Water	"River water"	2015	11	17	2015-11-17T10:48			Fair	Asia	Japan	"Kamome-ohasi Bridge, Mouth of Riv. Tone (Kamisu City), Ibaraki"	35.77638889		140.7569444														21.5	17.5	7.8	8.1	250			7		0.8	Clear																			2018/05/08	2019/07/19
PRA000068	SAA003923	ST015				Tochigi_w1-2_2015	Water	"River water"	2015	10	14	2015-10-14T10:40			Fair	Asia	Japan	"Tagawa area-Toshuko Weir (Utsunomiya City), Tochigi"	36.52805556		139.8855556														17.5	16.5	7.8	11	18			3			Clear																			2018/05/11	2019/08/05
PRA000068	SAA003836	ST015				Saitama_w2_2015	Water	"River water"	2015	11	11	2015-11-11T11:30			Cloudy	Asia	Japan	"Akigase-Shusuizeki Weir, Riv. Ara (Shiki City), Saitama"	35.84055556		139.6044444														18.3	16.6	7.6	8.4	25			4			"Grayish yellow_light"																			2018/05/08	2019/08/02
PRA000068	SAA003924	ST015				ChibaCity_w1_2015	Water	"River water"	2015	10	22	2015-10-22T10:40			Fair	Asia	Japan	"Mouth of Riv. Hanami (Chiba City), Chiba"	35.63472222		140.04694440														22	21.4	8.1	7.2	3840			4			Clear																			2018/05/11	2019/08/05
PRA000068	SAA003790	ST015				Tokyo_w1_2015	Water	"River water"	2015	11	12	2015-11-12T10:25			Fair	Asia	Japan	"Mouth of Riv. Arakawa (Koto Ward), Tokyo"	35.64583333		139.8463889														15.1	17.8	7.6	5.1	3,380			19		0.7	"Greenish brown"																			2018/05/08	2019/07/19
PRA000068	SAA003791	ST015				Tokyo_w2_2015	Water	"River water"	2015	11	12	2015-11-12T12:45			Fair	Asia	Japan	"Mouth of Riv. Sumida (Minato Ward), Tokyo"	35.66		139.7705556														16	19.2	7.5	3.3	2,710			5		2	"Dark green"																			2018/05/08	2019/07/19
PRA000068	SAA003794	ST014				YokohamaCity_w3_2015	Water	"Sea water"	2015	10	22	2015-10-22T09:50			Fair	Asia	Japan	"Yokohama Port, Kanagawa"	35.45555556		139.6636111														21.3	23.4	8.1	11.6				3		1.3	"Light brown"																			2018/5/8	2019/7/19
PRA000068	SAA003839	ST014				KawasakiCity_w2_2015	Water	"Sea water"	2015	11	17	2015-11-17T11:54			Fair	Asia	Japan	"Keihin Canal, Kawasaki Port, Kanagawa (front of Ogimachi)"	35.49527778		139.7277778														22.4	19.3	8	5.7	4500			4		7.5	"Blue green"																			2018/05/08	2019/09/02
PRA000068	SAA003796	ST015				Niigata_w2_2015	Water	"River water"	2015	10	14	2015-10-14T09:55			Fair	Asia	Japan	"Downstream of Riv. Shinano (Niigata City), Niigata"	37.88305556		139.0155556														18.5	15.9	7.5	9.3	16			15			"Grayish green"																			2018/05/08	2019/07/19
PRA000068	SAA003925	ST015				Toyama_w2_2015	Water	"River water"	2015	10	21	2015-10-21T10:15			Fair	Asia	Japan	"Hagiura-bashi Bridge, Mouth of Riv. Jintsu (Toyama City), Toyama"	36.745		137.2180556														20	15.5	7.5	9.1				1			Clear																			2018/05/11	2019/08/05
PRA000068	SAA003798	ST015				Ishikawa_w1_2015	Water	"River water"	2015	11	5	2015-11-05T10:05			Fair	Asia	Japan	"Mouth of Riv. Sai (Kanazawa City), Ishikawa"	36.60027778		136.5888889														21	15.4	7.2	8.8	189			10			Clear																			2018/05/08	2019/07/19
PRA000068	SAA003926	ST015				Fukui_w1_2015	Water	"River water"	2015	11	11	2015-11-11T10:50			Fair	Asia	Japan	"Mishima-bashi Bridge, Riv. Shono (Tsuruga City), Fukui"	35.6475		136.0627778														17	19	7.4	11	8.3			1			Clear																			2018/05/11	2019/08/05
PRA000068	SAA003927	ST015				Nagano_w2_2015	Water	"Lake water"	2015	11	5	2015-11-05T10:15			Fair	Asia	Japan	"Center of Lake Suwa, Nagano"	36.05		138.0861111														14.5	13.3	7.5	8.3	19.5			8			"Greenish brown_light"																			2018/5/11	2019/8/5
PRA000068	SAA003800	ST015				Shizuoka_w1_2015	Water	"River water"	2015	10	27	2015-10-27T13:00			Fair	Asia	Japan	"Riv. Tenryu (Iwata City), Shizuoka"	34.67916667		137.7961111														25.8	19.1	7.6	11.6	12			5			Clear																			2018/05/08	2019/07/19
PRA000068	SAA003802	ST014				Aichi_w2_2015	Water	"Sea water"	2015	10	27	2015-10-27T12:26			Cloudy	Asia	Japan	"Nagoya Port, West of Shiomi Wharf, Aichi"	35.07111111		136.8691667														22.6	24.3	7.7	4.9	4,100			4		2.5	"Light green"																			2018/5/8	2019/7/19
PRA000068	SAA003805	ST014				Mie_w1_2015	Water	"Sea water"	2015	10	21	2015-10-21T10:30			Fair	Asia	Japan	"Yokkaichi Port, Mie"	34.94944444		136.6530556														26	20.8	8.3	9.6	3,980			1		2	"Blue green_dark"																			2018/5/8	2019/7/19
PRA000068	SAA003928	ST015				Shiga_w3_2015	Water	"River water"	2015	10	20	2015-10-20T11:10			Fair	Asia	Japan	"Lake Biwa (center, offshore of Karasaki), Shiga"	35.04611111		135.8955556														23.6	20.5	8	9.7	113.8			1		3	Green_dark																			2018/05/11	2019/08/05
PRA000068	SAA003808	ST014				Kyoto_w1_2015	Water	"Sea water"	2015	10	23	2015-10-23T10:13			Fair	Asia	Japan	"Miyazu Port, Kyoto"	35.58305556		135.2138889														18.6	20.9	8.5	7.3				5		10	Clear																			2018/5/8	2019/7/19
PRA000068	SAA003929	ST015				KyotoCity_w1_2015	Water	"River water"	2015	11	30	2015-11-30T10:00			Fair	Asia	Japan	"Miyamae-bashi Bridge, Riv. Katsura (Kyoto City), Kyoto"	34.905		135.7125														11	9	7.2	9.5	20.5			1			Clear																			2018/05/11	2019/08/05
PRA000068	SAA003809	ST015				Osaka_w1_2015	Water	"River water"	2015	11	19	2015-11-19T09:35			Cloudy	Asia	Japan	"Mouth of Riv. Yamato (Sakai City), Osaka"	34.60833333		135.4325														17.3	17.1	7.8	7.8				14		0.7	"Yellowish brown"																			2018/05/08	2019/08/02
PRA000068	SAA003811	ST014				OsakaCity_w2_2015	Water	"Sea water"	2015	10	27	2015-10-27T09:00			Fair	Asia	Japan	"Osaka Port, Osaka"	34.65861111		135.4313889														23	20.6	8.1	6.8	3,110			0		3.3	"Light grayish yellow"																			2018/5/8	2019/7/19
PRA000068	SAA003814	ST014				Hyogo_w3_2015	Water	"Sea water"	2015	10	22	2015-10-22T11:20			Cloudy	Asia	Japan	"Offshore of Himeji, Hyogo"	34.76194444		134.6697222														21.3	23.3	8.2	7.2	4,480			9		3.8	"Greenish brown"																			2018/5/8	2019/7/19
PRA000068	SAA003844	ST014				Kobe_w1_2015	Water	"Sea water"	2015	11	20	2015-11-20T09:46			Fair	Asia	Japan	"Center of Kobe Port, Hyogo"	34.66444444		135.1944444														17	18.5	7.9	7.6				1		7.5	Green																			2018/5/8	2019/8/2
PRA000068	SAA003815	ST015				Wakayama_w1_2015	Water	"River water"	2015	11	16	2015-11-16T12:30			Fair	Asia	Japan	"Kinokawa-ohashi Bridge, Mouth of Riv. Kinokawa (Wakayama City), Wakayama"	34.23		135.1561111														23.4	20.8	7.6	8.5	1,900			"<1 "		1.2	"Grayish yellow green"																			2018/5/8	2019/7/19
PRA000068	SAA003817	ST014				Okayama_w2_2015	Water	"Sea water"	2015	11	4	2015-11-04T10:00			Fair	Asia	Japan	"Offshore of Mizushima, Okayama"	34.48055556		133.665														18.5	19.5	7.9	7.3				2		5	"Dark green"																			2018/5/8	2019/7/19
PRA000068	SAA003930	ST014				Hiroshima_w2_2015	Water	"Sea water"	2015	11	4	2015-11-04T09:51			Fair	Asia	Japan	"Kure Port, Hiroshima"	34.23361111		132.5391667														17.5	20.2	8	6.7				2		7	Verdigris_dark																			2018/5/11	2019/8/5
PRA000068	SAA003931	ST014				Hiroshima_w3_2015	Water	"Sea water"	2015	11	4	2015-11-04T11:26			Fair	Asia	Japan	"Hiroshima Bay (Hiroshima City), Hiroshima"	34.34833333		132.4225														18.7	20.2	8	6.8				2		6	Verdigris_dark																			2018/05/11	2019/08/05
PRA000068	SAA003820	ST014				Yamagachi_w1_2015	Water	"Sea water"	2015	10	7	2015-10-07T10:41			Fair	Asia	Japan	"Tokuyama Bay, Yamaguchi"	33.99361111		131.7505556														24.9	23.4	8.2	8				0		5	"Blue green"																			2018/5/8	2019/7/19
PRA000068	SAA003932	ST014				Yamaguchi_w3_2015	Water	"Sea water"	2015	11	16	2015-11-16T12:50			Fair	Asia	Japan	"Offshore of Ube, Yamaguchi"	33.915		131.1975														19.4	18.9	8.2	7.5				2		3	Green_dark																			2018/5/11	2019/8/5
PRA000068	SAA003821	ST014				Yamaguchi_w2_2015	Water	"Sea water"	2015	10	22	2015-10-22T10:30			Cloudy	Asia	Japan	"Offshore of Hagi, Yamaguchi"	34.43805556		131.3794444														21	21.5	8.2	7				1		13	"Blue green"																			2018/5/8	2019/7/19
PRA000068	SAA003933	ST015				Tokushima_w1_2015	Water	"River water"	2015	10	27	2015-10-27T09:48			Fair	Asia	Japan	"Mouth of Riv. Yoshino (Tokushima City), Tokushima"	34.085		134.5913889														21.4	20	8	7.2	4100			7		2.5	Green_light																			2018/05/11	2019/08/05
PRA000068	SAA003822	ST014				Kagawa_w1_2015	Water	"Sea water"	2015	10	13	2015-10-13T09:05			Fair	Asia	Japan	"Takamatsu Port, Kagawa"	34.34972222		134.0788889														21.7	22.7	8	6.2				2		2	Green																			2018/5/8	2019/7/19
PRA000068	SAA003934	ST015				Kochi_w2_2015	Water	"River water"	2015	10	14	2015-10-14T08:24			Fair	Asia	Japan	"Mouth of Riv. Shimanto (Shimanto City), Kochi"	32.93777778		132.8441667														17	17.3	7.5	7.9	2890			5		4	Clear																			2018/05/11	2019/08/05
PRA000068	SAA003826	ST014				KitakyushuCity_w1_2015	Water	"Sea water"	2015	10	20	2015-10-20T09:20			Fair	Asia	Japan	"Dokai Bay, Fukuoka"	33.90388889		130.8158333														22.2	21.4	8.2	9.6	4,660			1		3.5	Clear																			2018/5/8	2019/7/19
PRA000068	SAA003935	ST014				Saga_w1_2015	Water	"Sea water"	2015	10	29	2015-10-29T10:23			Fair	Asia	Japan	"Imari Bay, Saga"	33.34		129.8208333														20	20.5	8.1	7.5				37		2.7	"Grayish green"																			2018/5/11	2019/8/5
PRA000068	SAA003936	ST014				Nagasaki_w1_2015	Water	"Sea water"	2015	12	2	2015-12-02T09:15			Cloudy	Asia	Japan	"Omura Bay, Nagasaki"	32.98833333		129.8522222														14.5	18.1	5.2	8.2				5		5.2	"Blue green"																			2018/5/11	2019/8/5
PRA000068	SAA003937	ST015				Kumamoto_w1_2015	Water	"River water"	2015	11	26	2015-11-26T14:33			Cloudy	Asia	Japan	"Hiraki-bashi Bridge, Riv. Midori (Uto City), Kumamoto"	32.71638889		130.6422222														9.8	15.2	7.4	9.1	290			22			Brown_light																			2018/05/11	2019/08/05
PRA000068	SAA003938	ST015				Miyazaki_w3_2015	Water	"River water"	2015	10	14	2015-10-14T11:58			Fair	Asia	Japan	"Mouth of Riv. Oyodo (Miyazaki City), Miyazaki"	31.89611111		131.4402778														24.5	21.6	7.8	8.2				<1			Clear																			2018/05/11	2019/08/05
PRA000068	SAA003939	ST015				Kagoshima_w1_2015	Water	"River water"	2015	11	10	2015-11-10T12:20			Fair	Asia	Japan	"Shinkawa-bashi Bridge, Riv. Amori (Kirishima City), Kagoshima"	31.7225		130.7416667														20.4	18	7.7	9.4				3			Clear																			2018/05/11	2019/08/05
PRA000068	SAA003940	ST015				Kagoshima_w2_2015	Water	"River water"	2015	11	12	2015-11-12T11:40			Cloudy	Asia	Japan	"Gotanda-bashi Bridge, Riv. Gotanda (Ichikikushikino City), Kagoshima"	31.72583333		130.2769444														22.1	18.1	7.6	9.4				7			Clear																			2018/05/11	2019/08/05
PRA000068	SAA003941	ST014				Okinawa_w1_2015	Water	"Sea water"	2015	10	29	2015-10-29T09:50			Fair	Asia	Japan	"Naha Port, Okinawa"	26.21222222		127.665														24.8	25.8	8	6.1	5200			1			Clear																			2018/5/11	2019/8/5
PRA000073	SAA004032	ST014				"S-1 350L-XAD2"	Water	"Sea water"	1990	7	31					Asia	Japan	"nearby Matsuyama, Ehime"	33.909347	33.92596	132.712967	132.739659																					"0 - 0.5"																				"Sea weeds grew thickly, lots of suspended matters in this area"	2018/7/2	2019/8/16
PRA000073	SAA004033	ST014				"S-1 1KL-GW"	Water	"Sea water"	1990	8	17					Asia	Japan	"nearby Matsuyama, Ehime"	33.909347	33.92596	132.712967	132.739659																					"0 - 0.5"																				"Sea weeds grew thickly, lots of suspended matters in this area"	2018/7/2	2019/8/16
PRA000073	SAA004034	ST014				"S-1 1KL-XAD2"	Water	"Sea water"	1990	8	17					Asia	Japan	"nearby Matsuyama, Ehime"	33.909347	33.92596	132.712967	132.739659																					"0 - 0.5"																				"Sea weeds grew thickly, lots of suspended matters in this area"	2018/7/2	2019/8/16
PRA000073	SAA004035	ST014				"S-2 1KL-GW"	Water	"Sea water"	1990	8	24					Asia	Japan	"Misaki, Ehime"	33.375692	33.387666	132.156823	132.169933																					"0 - 0.5"																				"Highly transparent and clean"	2018/7/2	2019/8/16
PRA000073	SAA004036	ST014				"S-2 1KL-XAD2"	Water	"Sea water"	1990	8	24					Asia	Japan	"Misaki, Ehime"	33.375692	33.387666	132.156823	132.169933																					"0 - 0.5"																				"Highly transparent and clean"	2018/7/2	2019/8/16
PRA000074	SAA004037	ST015				Hokkaido_w3_2016	Water	"River water"	2016	11	2	2016-11-02T10:30			Fair	Asia	Japan	"Ishikarikakokyo Bridge, Mouth of Riv. Ishikari (Ishikari City), Hokkaido"	43.22861111		141.3519444														4.4	4.6	8	11	18.4			13			"Dark brown"																			2018/09/07	2018/09/07
PRA000074	SAA004038	ST015				Hokkaido_w2_2016	Water	"River water"	2016	10	19	2016-10-19T10:30			Fair	Asia	Japan	"Suzuran-ohashi Bridge, Riv. Tokachi (Obihiro City), Hokkaido"	42.94583333		143.1855556														13.8	11	8	12	13.8			12			"Greyish brown"																			2018/09/07	2018/09/07
PRA000074	SAA004039	ST015				Hokkaido_w4_2016	Water	"River water"	2016	9	12	2016-09-12T16:30			Fair	Asia	Japan	"Onnnenai-ohashi Bridge, Riv. Teshio (BifukaTown), Hokkaido"	44.59138889		142.3063889														19.1		6.9	13				4.6			Clear																			2018/09/07	2018/09/07
PRA000074	SAA004040	ST015				Iwate_w1_2016	Water	"River water"	2016	10	12	2016-10-12T10:50			"Cloudy with occasional rain"	Asia	Japan	"Riv. Toyosawa (Hanamaki City), Iwate"	39.38166667		141.1191667														18	14	7.3	10	6.35			3			"Light dark brown"																			2018/09/07	2018/09/07
PRA000074	SAA004041	ST015				Miyagi_w1_2016	Water	"River water"	2016	11	2	2016-11-02T13:30			Fair	Asia	Japan	"Futatsuya-bashi Bridge, Riv. Hasama (Tome City), Miyagi"	38.57138889		141.2136111														12.2	10.8	7.5	12	17			2			"Light yellowish brown"																			2018/09/07	2018/09/07
PRA000074	SAA004042	ST015				Miyagi_w2_2016	Water	"River water"	2016	11	2	2016-11-02T10:10			Fair	Asia	Japan	"Sakura-hodoukyou Bridge, Riv. Shiroishi (Shibata Town), Miyagi"	38.06083333		140.7677778														10.3	10.7	7.3	11	14			6			"Light yellowish brown"																			2018/09/07	2018/09/07
PRA000074	SAA004043	ST015				Akita_w1_2016	Water	"River water"	2016	10	11	2016-10-11T10:43			Fair	Asia	Japan	"Akita Canal (Akita City), Akita"	39.75083333		140.0586111														17	19.6	7.5	7	2,017			4		1.3	"Dark Yellowish green"																			2018/09/07	2018/09/07
PRA000074	SAA004044	ST015				Saitama_w2_2016	Water	"River water"	2016	11	2	2016-11-02T11:55			Cloudy	Asia	Japan	"Akigase-Shusuizeki Weir, Riv. Ara (Shiki City), Saitama"	35.84055556		139.6044444														11.6	14.4	7.8	9.9				4			"Light yellow"																			2018/09/07	2018/09/07
PRA000074	SAA004045	ST015				SaitamaCity_w1_2016	Water	"River water"	2016	11	2	2016-11-02T11:00			Cloudy	Asia	Japan	"Nakadote-bashi Bridge, Riv. Kamo (Saitama City), Saitama"	35.855		139.6077778														13	13.1	7.6	7	30			20			"Light grey"																			2018/09/07	2018/09/07
PRA000074	SAA004046	ST015				Chiba_w1_2016	Water	"River water"	2016	11	25	2016-11-25T09:33			Cloudy	Asia	Japan	"Asai-bashi Bridge, Riv. Yourou (Ichihara City), Chiba"	35.46722222		140.1155556														16.8	14.6	8.5	10	24			14.2			"Greyish yellow green"																			2018/9/7	2018/9/7
PRA000074	SAA004047	ST015				Tokyo_w1_2016	Water	"River water"	2016	11	1	2016-11-01T09:55			Rain	Asia	Japan	"Mouth of Riv. Arakawa (Koto Ward), Tokyo"	35.64583333		139.8463889														12.2	18.2	7.5	5.1	3,100					0.8	"Greyish yellow green"																			2018/09/07	2018/09/07
PRA000074	SAA004048	ST015				Tokyo_w2_2016	Water	"River water"	2016	11	1	2016-11-01T12:10			Cloudy	Asia	Japan	"Mouth of Riv. Sumida (Minato Ward), Tokyo"	35.66		139.7705556														14.4	19.2	7.4	2.9	3,430					2.2	"Dark green"																			2018/09/07	2018/09/07
PRA000074	SAA004049	ST014				YokohamaCity_w3_2016	Water	"Sea water"	2016	10	13	2016-10-13T09:50			Cloudy	Asia	Japan	"Yokohama Port, Kanagawa"	35.45555556		139.6636111														19.5	21	8.1	7.7				8.5		2.3	Clear																			2018/9/7	2018/9/7
PRA000074	SAA004050	ST015				YokohamaCity_w1_2016	Water	"River water"	2016	10	11	2016-10-11T10:55			Cloudy	Asia	Japan	"Kamenoko-bashi Bridge, Riv. Tsurumi (Yokohama City), Kanagawa"	35.514622		139.607871														22	20.7	7.2	7				3.2			"Light yellow"																			2018/09/07	2018/09/07
PRA000074	SAA004051	ST015				KawasakiCity_w1_2016	Water	"River water"	2016	10	13	2016-10-13T14:20			Cloudy	Asia	Japan	"Mouth of Riv. Tama (Kawasaki City), Kanagawa"	35.53		139.7836111														17.7	21	8	8	3,400			5.9		1.9	"Dark greenish brown"																			2018/09/07	2018/09/07
PRA000074	SAA004052	ST015				Niigata_w2_2016	Water	"River water"	2016	10	19	2016-10-19T09:50			Fair	Asia	Japan	"Downstream of Riv. Shinano (Niigata City), Niigata"	37.88305556		139.0155556														19.7	16.5	7.5	9.4	7			5			Clear																			2018/09/07	2018/09/07
PRA000074	SAA004053	ST015				Ishikawa_w1_2016	Water	"River water"	2016	11	2	2016-11-02T09:30			Fair	Asia	Japan	"Mouth of Riv. Sai (Kanazawa City), Ishikawa"	36.60027778		136.5888889														16.9	13	7.3	9.3	83			4			Clear																			2018/09/07	2018/09/07
PRA000074	SAA004055	ST015				Nagano_w2_2016	Water	"Lake water"	2016	11	2	2016-11-02T10:30			Cloudy	Asia	Japan	"Center of Lake Suwa, Nagano"	36.05		138.0861111														8.6	12	9.1	11	14.4			18		0.8	"Dark brown"																			2018/9/7	2018/9/7
PRA000074	SAA004056	ST014				Aichi_w2_2016	Water	"Sea water"	2016	10	25	2016-10-25T12:50			Rain	Asia	Japan	"Nagoya Port, West of Shiomi Wharf, Aichi"	35.07111111		136.8691667														13.8	23.7	7.5	4	4,250			11		3	"Light yellowish brown"																			2018/9/7	2018/9/7
PRA000074	SAA004057	ST014				NagoyaCity_w1_2016	Water	"River water"	2016	10	24	2016-10-24T13:45			Fair	Asia	Japan	"Minatoshinbashi Bridge, Riv. Hori (Nagoya City), Aichi"	35.09805556		136.8925														21.6	22.1	7.4	3	30			2.2			"Greenish brown"																			2018/09/07	2018/09/07
PRA000074	SAA004058	ST014				Mie_w1_2016	Water	"Sea water"	2016	10	25	2016-10-25T10:00			Cloudy	Asia	Japan	"Yokkaichi Port, Mie"	34.94944444		136.6530556														15	20	8	6.2	4,320			3.6		2.5	"Dark greenish brown"																			2018/9/7	2018/9/7
PRA000074	SAA004059	ST015				Shiga_w1_2016	Water	"Lake water"	2016	10	18	2016-10-18T14:45			Fair	Asia	Japan	"Lake Biwa (center, offshore of Minamihira), Shiga"	35.18527778		135.9733333														25	16	7.8	9	111			1.4		5	"Dark green"																			2018/09/07	2018/09/07
PRA000074	SAA004060	ST015				Shiga_w2_2016	Water	"Lake water"	2016	10	18	2016-10-18T15:25			Fair	Asia	Japan	"Lake Biwa (center, offshore of Karasaki), Shiga"	35.04611111		135.8955556														26.4	23	7.7	9	119			1.2		3.6	"Dark green"																			2018/09/07	2018/09/07
PRA000074	SAA004061	ST014				Kyoto_w1_2016	Water	"Sea water"	2016	10	25	2016-10-25T10:06			Cloudy	Asia	Japan	"Miyazu Port, Kyoto"	35.58305556		135.2138889														17.5	19.7	8.7	7.2				3.3		5.5	Clear																			2018/9/7	2018/9/7
PRA000074	SAA004062	ST015				Kyoto_w2_2016	Water	"River water"	2016	10	28	2016-10-28T10:10			Cloudy	Asia	Japan	"Miyamae-bashi Bridge, Riv. Katsura (Kyoto City), Kyoto"	34.905		135.7125														20	19	7.4	8.8	16.8			2			Clear																			2018/09/07	2018/09/07
PRA000074	SAA004063	ST015				Osaka_w1_2016	Water	"River water"	2016	11	9	2016-11-09T08:58			"Cloudy with occasional rain"	Asia	Japan	"Mouth of Riv. Yamato (Sakai City), Osaka"	34.60833333		135.4325														14.6	18.1	7.8	11				10		0.8	"Light yellowish green"																			2018/09/07	2018/09/07
PRA000074	SAA004064	ST015				OsakaCity_w1_2016	Water	"River water"	2016	10	26	2016-10-26T10:10			Cloudy	Asia	Japan	"Kema-bashi Bridge, Riv. Oh-kawa (Osaka City), Osaka"	34.717760		135.519610														24	19.2	7.1	9	16			9.4			"Light greyish yellow"																			2018/09/07	2018/09/07
PRA000074	SAA004065	ST014				OsakaCity_w2_2016	Water	"Sea water"	2016	10	25	2016-10-25T08:55			Cloudy	Asia	Japan	"Osaka Port, Osaka"	34.65861111		135.4313889														18.5	22	8	5.6	3,030			1.8		2.9	"Light greyish yellow"																			2018/9/7	2018/9/7
PRA000074	SAA004066	ST014				Hyogo_w3_2016	Water	"Sea water"	2016	10	18	2016-10-18T11:17			Fair	Asia	Japan	"Offshore of Himeji, Hyogo"	34.76194444		134.6697222														25.9	24.6	8.1	7.7	2,510			5.5		2.9	"Greenish brown"																			2018/9/7	2018/9/7
PRA000074	SAA004067	ST015				Wakayama_w1_2016	Water	"River water"	2016	10	19	2016-10-19T12:25			Cloudy	Asia	Japan	"Kinokawa-ohashi Bridge, Mouth of Riv. Kinokawa (Wakayama City), Wakayama"	34.23		135.1561111														26.1	23.5	7.7	7.7	2,200			6		2	"Dark green"																			2018/9/7	2018/9/7
PRA000074	SAA004068	ST014				Okayama_w2_2016	Water	"Sea water"	2016	10	26	2016-10-26T10:10			Cloudy	Asia	Japan	"Offshore of Mizushima, Okayama"	34.48055556		133.665														21.2	23	8.1	8.1				3		2.5	"Dark green"																			2018/9/7	2018/9/7
PRA000074	SAA004069	ST015				Okayama_w1_2016	Water	"River water"	2016	11	9	2016-11-09T10:10			Fair	Asia	Japan	"Sasagase-bashi Bridge, Riv. Sasagase (Okayama City), Okayama"	34.61916667		133.9061111														13.5	13.5	7.7	9				5			"Greyish green"																			2018/9/7	2018/9/7
PRA000074	SAA004070	ST014				Yamaguchi_w1_2016	Water	"Sea water"	2016	10	14	2016-10-14T09:20			Cloudy	Asia	Japan	"Tokuyama Bay, Yamaguchi"	33.99361111		131.7505556														20.6	23.6	8	9				2.5		3.5	"Bluish green"																			2018/9/7	2018/9/7
PRA000074	SAA004071	ST014				Kagawa_w1_2016	Water	"Sea water"	2016	10	4	2016-10-04T08:55			Cloudy	Asia	Japan	"Takamatsu Port, Kagawa"	34.34972222		134.0788889														27.6	27.3	6.6	4.2				5		1.8	"Greenish brown"																			2018/9/7	2018/9/7
PRA000074	SAA004072	ST014				Fukuoka_w2_2016	Water	"Sea water"	2016	11	1	2016-11-01T10:30			Fair	Asia	Japan	"Offshore of Omuta, Fukuoka"	33.03472222		130.4113889														19	21.3	8	5.7	4,100			6.2		2	"Light yellowish green"																			2018/9/7	2018/9/7
PRA000074	SAA004073	ST015				Fukuoka_w1_2016	Water	"River water"	2016	10	24	2016-10-24T10:50			Fair	Asia	Japan	"Kabura-bashi Bridge, Riv. Raizan (Itoshima City), Fukuoka"	33.565		130.1902778														20	22.3	7.6	7.3	25			5.8			"Light yellowish green"																			2018/9/7	2018/9/7
PRA000074	SAA004074	ST014				KitakyushuCity_w1_2016	Water	"Sea water"	2016	10	18	2016-10-18T09:20			Fair	Asia	Japan	"Dokai Bay, Fukuoka"	33.90388889		130.8158333														25.7	23.2	7.9	6.9	4,200			4		2.5	Clear																			2018/9/7	2018/9/7
PRA000074	SAA004075	ST014				FukuokaCity_w1_2016	Water	"Sea water"	2016	10	18	2016-10-18T08:50			Fair	Asia	Japan	"Hakata Bay, Fukuoka"	33.60833333		130.3297222														22.9	23.2	8.5	11.1	4,680			3		1.2	"Dark yellowish green"																			2018/9/7	2018/9/7
PRA000074	SAA004076	ST015				Miyazaki_w2_2016	Water	"River water"	2016	11	11	2016-11-11T10:43			Fair	Asia	Japan	"Naka-bashi Bridge, Riv. Hama (Nobeoka City), Miyazaki"	32.55694444		131.6825														18	17.8	7.6	8.2	190			6			Clear																			2018/09/07	2018/09/07
PRA000075	SAA004037	ST015				Hokkaido_w3_2016	Water	"River water"	2016	11	2	2016-11-02T10:30			Fair	Asia	Japan	"Ishikarikakokyo Bridge, Mouth of Riv. Ishikari (Ishikari City), Hokkaido"	43.22861111		141.3519444														4.4	4.6	8	11	18			13			"Dark brown"																			2018/09/07	2018/09/07
PRA000075	SAA004038	ST015				Hokkaido_w2_2016	Water	"River water"	2016	10	19	2016-10-19T10:30			Fair	Asia	Japan	"Suzuran-ohashi Bridge, Riv. Tokachi (Obihiro City), Hokkaido"	42.94583333		143.1855556														13.8	11	8	12	14			12			"Grayish brown"																			2018/09/07	2018/09/07
PRA000075	SAA004039	ST015				Hokkaido_w4_2016	Water	"River water"	2016	9	12	2016-09-12T16:30			Fair	Asia	Japan	"Onnnenai-ohashi Bridge, Riv. Teshio (BifukaTown), Hokkaido"	44.59138889		142.3063889														19.1		6.9	13				4.6			Clear																			2018/09/07	2018/09/07
PRA000075	SAA004122	ST015				Hokkaido_w5_2016	Water	"River water"	2016	10	14	2016-10-14T11:55			Fair	Asia	Japan	"Minato Bridge, Riv. Tomakomai-horonai (Tomakomai City), Hokkaido"	42.64694444		141.6333333														15	11.4	7	8	16			3.9			Clear																			2018/09/20	2018/09/20
PRA000075	SAA004123	ST015				Hokkaido_w6_2016	Water	"River water"	2016	10	18	2016-10-18T14:30			Fair	Asia	Japan	"Hiroo Bridge, Riv. Hiroo (Hiroo Town), Hokkaido"	42.28111111		143.3177778														18		7	11	4			0.7			Clear																			2018/09/20	2018/09/20
PRA000075	SAA004124	ST015				SapporoCity_w1_2016	Water	"River water"	2016	10	25	2016-10-25T11:20			Fair	Asia	Japan	"Nakanuma of Riv. Toyohira (Sapporo City), Hokkaido"	43.14083333		141.4530556														12	10	7.1	10	18			2			"Light greenish brown"																			2018/09/20	2018/09/20
PRA000075	SAA004125	ST015				SapporoCity_w2_2016	Water	"River water"	2016	10	25	2016-10-25T13:50			Cloudy	Asia	Japan	"Daiichishinkawa-bashi Bridge, Riv. Shin (Sapporo City), Hokkaido"	43.15194444		141.2377778														13.5	11	7.1	7	18			3			"Light yellowish brown"																			2018/09/20	2018/09/20
PRA000075	SAA004040	ST015				Iwate_w1_2016	Water	"River water"	2016	10	12	2016-10-12T10:50			"Cloudy with occasional rain"	Asia	Japan	"Riv. Toyosawa (Hanamaki City), Iwate"	39.38166667		141.1191667														18	14	7.3	10	6			3			"Light dark brown"																			2018/09/07	2018/09/07
PRA000075	SAA004041	ST015				Miyagi_w1_2016	Water	"River water"	2016	11	2	2016-11-02T13:30			Fair	Asia	Japan	"Futatsuya-bashi Bridge, Riv. Hasama (Tome City), Miyagi"	38.57138889		141.2136111														12.2	10.8	7.5	12	17			2			"Light yellowish brown"																			2018/09/07	2018/09/07
PRA000075	SAA004042	ST015				Miyagi_w2_2016	Water	"River water"	2016	11	2	2016-11-02T10:10			Fair	Asia	Japan	"Sakura-hodoukyou Bridge, Riv. Shiroishi (Shibata Town), Miyagi"	38.06083333		140.7677778														10.3	10.7	7.3	11	14			6			"Light yellowish brown"																			2018/09/07	2018/09/07
PRA000075	SAA004126	ST015				Sendai_w1_2016	Water	"River water"	2016	11	16	2016-11-16T10:00			Fair	Asia	Japan	"Hirose-ohashi Bridge, Riv. Hirose (Sendai City), Miyagi"	38.21333333		140.9088889														9.9	10.4	7.6	11	26			2			Clear																			2018/09/20	2018/09/20
PRA000075	SAA004043	ST015				Akita_w1_2016	Water	"River water"	2016	10	11	2016-10-11T10:43			Fair	Asia	Japan	"Akita Canal (Akita City), Akita"	39.75083333		140.0586111														17	19.6	7.5	7	2,017			4		1.3	"Dark Yellowish green"																			2018/09/07	2018/09/07
PRA000075	SAA004127	ST015				Yamagata_w1_2016	Water	"River water"	2016	10	28	2016-10-28T09:20			Cloudy	Asia	Japan	"Mouth of Riv. Mogami (Sakata City), Yamagata"	38.88722222		139.8433333														13.1	12.6	7.5	10	16			5			"Light yellow"																			2018/09/20	2018/09/20
PRA000075	SAA004128	ST015				Yamagata_w3_2016	Water	"River water"	2016	11	25	2016-11-25T10:10			Cloudy	Asia	Japan	"Confluence of Riv. Murayamano and Riv. Mogami (Higashine City), Yamagata"	38.43861111		140.3366667														1.5	8.8	7.1	10	29			3			Clear																			2018/09/20	2018/09/20
PRA000075	SAA004129	ST015				Ibaraki_w2_2016	Water	"River water"	2016	11	2	2016-11-02T10:10			Cloudy	Asia	Japan	"Kamome-ohashi Bridge, Mouth of Riv. Tone (Kamisu City), Ibaraki"	35.77638889		140.7569444														13.1	16	7.7	9	550			14			"Light yellowish green"																			2018/09/20	2018/09/20
PRA000075	SAA004130	ST015				Tochigi_w1_2016-1	Water	"River water"	2016	10	12	2016-10-12T11:03			Fair	Asia	Japan	"Tagawa area-Toshuko Weir (Utsunomiya City), Tochigi"	36.52805556		139.8855556														23.2	18.6	7.9	11	21			4			Clear																			2018/09/20	2018/09/20
PRA000075	SAA004133	ST015				Gunma_w2_2016	Water	"River water"	2016	10	12	2016-10-12T11:10			Fair	Asia	Japan	"Iwata-bashi Bridge, Riv. Tsuruikuta (Itakura Town), Gunma"	36.22222222		139.5863889														20	19.6	7.9	9	31			22			Clear																			2018/09/20	2018/09/20
PRA000075	SAA004134	ST015				Gunma_w3_2016	Water	"River water"	2016	10	12	2016-10-12T10:45			Fair	Asia	Japan	"Ainokawa-bashi Bridge, Riv. Yata (Itakura Town), Gunma"	36.21194444		139.6508333														19	19.6	8	8	52			16			Clear																			2018/09/20	2018/09/20
PRA000075	SAA004044	ST015				Saitama_w2_2016	Water	"River water"	2016	11	2	2016-11-02T11:55			Cloudy	Asia	Japan	"Akigase-Shusuizeki Weir, Riv. Ara (Shiki City), Saitama"	35.84055556		139.6044444														11.6	14.4	7.8	10				4			"Light yellow"																			2018/09/07	2018/09/07
PRA000075	SAA004135	ST015				Saitama_w3_2016	Water	"River water"	2016	11	2	2016-11-02T10:15			Cloudy	Asia	Japan	"Upstream of the junction with Riv. Ayase, Riv. Furuayase (Soka City), Saitama"	35.83555556		139.8102778														12.2	17	7.3	7				11			"Light yellowish brown"																			2018/09/20	2018/09/20
PRA000075	SAA004136	ST015				Saitama_w4_2016	Water	"River water"	2016	11	2	2016-11-02T14:40			Cloudy	Asia	Japan	"Shinsen-bashi Bridge, Riv. Motokoyama (Honjo City) Saitama"	36.23722222		139.21														11.5	17.1	7.5	9				10			Clear																			2018/09/20	2018/09/20
PRA000075	SAA004045	ST015				SaitamaCity_w1_2016	Water	"River water"	2016	11	2	2016-11-02T11:00			Cloudy	Asia	Japan	"Nakadote-bashi Bridge, Riv. Kamo (Saitama City), Saitama"	35.855		139.6077778														13	13.1	7.6	7	30			20			"Light gray"																			2018/09/07	2018/09/07
PRA000075	SAA004046	ST015				Chiba_w1_2016	Water	"River water"	2016	11	25	2016-11-25T09:33			Cloudy	Asia	Japan	"Asai-bashi Bridge, Riv. Yourou (Ichihara City), Chiba"	35.46722222		140.1155556														16.8	14.6	8.5	10	24			14.2			"Grayish yellow green"																			2018/9/20	2018/9/20
PRA000075	SAA004047	ST015				Tokyo_w1_2016	Water	"River water"	2016	11	1	2016-11-01T09:55			Rain	Asia	Japan	"Mouth of Riv. Arakawa (Koto Ward), Tokyo"	35.64583333		139.8463889														12.2	18.2	7.5	5	3100					0.8	"Grayish yellow green"																			2018/09/07	2018/09/07
PRA000075	SAA004048	ST015				Tokyo_w2_2016	Water	"River water"	2016	11	1	2016-11-01T12:10			Cloudy	Asia	Japan	"Mouth of Riv. Sumida (Minato Ward), Tokyo"	35.66		139.7705556														14.4	19.2	7.4	3	3430					2.2	"Dark green"																			2018/09/07	2018/09/07
PRA000075	SAA004049	ST014				YokohamaCity_w3_2016	Water	"Sea water"	2016	10	13	2016-10-13T09:50			Cloudy	Asia	Japan	"Yokohama Port, Kanagawa"	35.45555556		139.6636111														19.5	21	8.1	8				8.5		2.3	Clear																			2018/9/20	2018/9/20
PRA000075	SAA004050	ST015				YokohamaCity_w1_2016	Water	"River water"	2016	10	11	2016-10-11T10:55			Cloudy	Asia	Japan	"Kamenoko-bashi Bridge, Riv. Tsurumi (Yokohama City), Kanagawa"	35.514622		139.607871														22	20.7	7.2	7				3.2			"Light yellow"																			2018/09/07	2018/09/07
PRA000075	SAA004051	ST015				KawasakiCity_w1_2016	Water	"River water"	2016	10	13	2016-10-13T14:20			Cloudy	Asia	Japan	"Mouth of Riv. Tama (Kawasaki City), Kanagawa"	35.53		139.7836111														17.7	21	8	8	3,400			5.9		1.9	"Dark greenish brown"																			2018/09/07	2018/09/07
PRA000075	SAA004137	ST014				KawasakiCity_w2_2016	Water	"Sea water"	2016	10	13	2016-10-13T09:40			Cloudy	Asia	Japan	"Keihin Canal, Kawasaki Port, Kanagawa (front of Ogimachi)"	35.49527778		139.7277778														18.6	22.3	8.2	7	4,100			7.2		2.25	"Dark greenish brown"																			2018/09/20	2019/09/02
PRA000075	SAA004138	ST014				KawasakiCity_w3_2016	Water	"Sea water"	2016	10	13	2016-10-13T11:10			Cloudy	Asia	Japan	"Keihin Canal, Kawasaki Port, Kanagawa, (front of Chidorimachi)"	35.50444444		139.7533333														18.7	22.1	8	7	4,300			4.9		2.5	"Dark grayish blue"																			2018/09/20	2019/09/02
PRA000075	SAA004052	ST015				Niigata_w2_2016	Water	"River water"	2016	10	19	2016-10-19T09:50			Fair	Asia	Japan	"Downstream of Riv. Shinano (Niigata City), Niigata"	37.88305556		139.0155556														19.7	16.5	7.5	9	7			5			Clear																			2018/09/07	2018/09/07
PRA000075	SAA004139	ST015				Niigata_w4_2016	Water	"River water"	2016	9	27	2016-09-27T10:30			Fair	Asia	Japan	"Yataro-bashi Bridge, Riv. Shibue (Myoko City), Niigata"	37.0375		138.2613889														31.5	24.2	7.5	9	30			3			Clear																			2018/09/20	2018/09/20
PRA000075	SAA004140	ST014				Niigata_w5_2016	Water	"Sea water"	2016	8	2	2016-08-02T09:15			Cloudy	Asia	Japan	"Offshore of Nishikubiki (front of Teraji), Niigata"	37.03305556		137.8030556														28.5	27.4	8.1	7	4,500			9		8.7	Clear																			2018/09/20	2018/09/20
PRA000075	SAA004141	ST015				Toyama_w2_2016	Water	"River water"	2016	10	19	2016-10-19T09:25			Fair	Asia	Japan	"Hagiura-bashi Bridge, Mouth of Riv. Jintsu (Toyama City), Toyama"	36.745		137.2180556														21	16.5	7.4	9	100			1			Clear																			2018/09/20	2018/09/20
PRA000075	SAA004142	ST015				Toyama_w3_2016	Water	"River water"	2016	10	19	2016-10-19T09:45			Fair	Asia	Japan	"Hagiura-kobashi Bridge, Tomiiwa Canal (Toyama City), Toyama"	36.74611111		137.2219444														21	19.2	7.5	8	1,100			3			Clear																			2018/09/20	2018/09/20
PRA000075	SAA004143	ST014				Toyama_w4_2016	Water	"Sea water"	2016	10	19	2016-10-19T10:35			Fair	Asia	Japan	"Minato-bashi Bridge, Riv. Kamo (Uozu City), Toyama"	36.81694444		137.3944444														24	15.6	7.6	10	14			2			Clear																			2018/09/20	2018/09/20
PRA000075	SAA004053	ST015				Ishikawa_w1_2016-1	Water	"River water"	2016	11	2	2016-11-02T09:30			Fair	Asia	Japan	"Mouth of Riv. Sai (Kanazawa City), Ishikawa"	36.60027778		136.5888889														16.9	13	7.3	9	83			4			Clear																			2018/09/07	2018/09/07
PRA000075	SAA004144	ST015				Fukui_w2_2016	Water	"River water"	2016	11	2	2016-11-02T14:30			Fair	Asia	Japan	"Nakatuno-bashi Bridge, Riv. Kuzuryu (Fukui City), Fukui"	36.1025		136.21														17.2	14.5	7.8	12	8			<1			Clear																			2018/09/20	2018/09/20
PRA000075	SAA004145	ST015				Fukui_w3_2016	Water	"River water"	2016	11	2	2016-11-02T14:00			Fair	Asia	Japan	"Takami-bashi Bridge, Riv. Yoshinoze (Sabae City), Fukui"	35.94305556		136.1702778														15.5	16.5	7.5	11	8			<1			Clear																			2018/09/20	2018/09/20
PRA000075	SAA004055	ST015				Nagano_w2_2016	Water	"Lake water"	2016	11	2	2016-11-02T10:30			Cloudy	Asia	Japan	"Center of Lake Suwa, Nagano"	36.05		138.0861111														8.6	12	9.1	11	14			18		0.8	"Dark brown"																			2018/9/20	2018/9/20
PRA000075	SAA004146	ST015				Nagano_w3_2016	Water	"River water"	2016	11	1	2016-11-01T10:05			Cloudy	Asia	Japan	"Tategahana-bashi Bridge, Riv. Shinano (Nakano City), Nagano"	36.73194444		138.3083333														13.7	12.6	7.4	10	17			4			"Light greenish brown"																			2018/09/20	2018/09/20
PRA000075	SAA004147	ST014				Shizuoka_w2_2016	Water	"Sea water"	2016	10	13	2016-10-13T09:24			Cloudy	Asia	Japan	"Shimizu Port, Shizuoka"	35.02416667		138.5161111														19	21.9	8.1	7	7,760			12		5.5	Clear																			2018/9/20	2018/9/20
PRA000075	SAA004148	ST015				Shizuoka_w1_2016	Water	"River water"	2016	10	25	2016-10-25T11:10			Cloudy	Asia	Japan	"Riv. Tenryu (Iwata City), Shizuoka"	34.67916667		137.7961111														18.7	16.9	7.9	11	12			5			Clear																			2018/09/20	2018/09/20
PRA000075	SAA004056	ST014				Aichi_w2_2016-1	Water	"Sea water"	2016	10	25	2016-10-25T12:50			Rain	Asia	Japan	"Nagoya Port, West of Shiomi Wharf, Aichi"	35.07111111		136.8691667														13.8	23.7	7.5	4	4,250			11		3	"Light yellowish brown"																			2018/9/20	2018/9/20
PRA000075	SAA004149	ST015				Aichi_w3_2016	Water	"River water"	2016	10	26	2016-10-26T12:00			Fair	Asia	Japan	"Shinsakai-bashi Bridge, Riv. Sakai (Kariya City, Toyoake City), Aichi"	35.03777778		137.0125														26	21	7.4	11	28			3			"Light yellowish brown"																			2018/09/20	2018/09/20
PRA000075	SAA004057	ST014				NagoyaCity_w1_2016	Water	"River water"	2016	10	24	2016-10-24T13:45			Fair	Asia	Japan	"Minatoshinbashi Bridge, Riv. Hori (Nagoya City), Aichi"	35.09805556		136.8925														21.6	22.1	7.4	3	30			2.2			"Greenish brown"																			2018/09/07	2018/09/07
PRA000075	SAA004150	ST014				NagoyaCity_w3_2016	Water	"Sea water"	2016	10	24	2016-10-24T03:05			Fair	Asia	Japan	"Nagoya Port, South of Shiomi Wharf, Aichi"	35.04944444		136.8661111														21.5	24.2	8	4	47			3.81			"Greenish brown"																			2018/9/20	2018/9/20
PRA000075	SAA004058	ST014				Mie_w1_2016	Water	"Sea water"	2016	10	25	2016-10-25T10:00			Cloudy	Asia	Japan	"Yokkaichi Port, Mie"	34.94944444		136.6530556														15	20	8	6	4,320			3.6		2.5	"Dark greenish brown"																			2018/9/20	2018/9/20
PRA000075	SAA004151	ST014				Mie_w2_2016	Water	"Sea water"	2016	10	18	2016-10-18T10:50			Fair	Asia	Japan	"Toba Port, Mie"	34.48083333		136.8486111														27.5	20.5	7.9	8	2,150			3.6		2	"Dark bluish green"																			2018/9/20	2018/9/20
PRA000075	SAA004059	ST015				Shiga_w1_2016	Water	"Lake water"	2016	10	18	2016-10-18T14:45			Fair	Asia	Japan	"Lake Biwa (center, offshore of Minamihira), Shiga"	35.18527778		135.9733333														25	16	7.8	9	111			1.4		5	"Dark green"																			2018/09/07	2018/09/07
PRA000075	SAA004060	ST015				Shiga_w2_2016-1	Water	"Lake water"	2016	10	18	2016-10-18T15:25			Fair	Asia	Japan	"Lake Biwa (center, offshore of Karasaki), Shiga"	35.04611111		135.8955556														26.4	23	7.7	9	119			1.2		3.6	"Dark green"																			2018/09/07	2018/09/07
PRA000075	SAA004061	ST014				Kyoto_w1_2016	Water	"Sea water"	2016	10	25	2016-10-25T10:06			Cloudy	Asia	Japan	"Miyazu Port, Kyoto"	35.58305556		135.2138889														17.5	19.7	8.7	7				3.3		5.5	Clear																			2018/9/20	2018/9/20
PRA000075	SAA004152	ST015				Kyoto_w3_2016	Water	"River water"	2016	10	13	2016-10-13T09:54			Cloudy	Asia	Japan	"Gokou-bashi Bridge, Riv. Kizu (Yawata City), Kyoto"	34.88972222		135.6994444														19.3	18.9	6.9	8	12			8.6			Clear																			2018/09/20	2018/09/20
PRA000075	SAA004062	ST015				KyotoCity_w1_2016	Water	"River water"	2016	10	28	2016-10-28T10:10			Cloudy	Asia	Japan	"Miyamae-bashi Bridge, Riv. Katsura (Kyoto City), Kyoto"	34.905		135.7125														20	19	7.4	9	17			2			Clear																			2018/09/07	2018/09/07
PRA000075	SAA004063	ST015				Osaka_w1_2016	Water	"River water"	2016	11	9	2016-11-09T08:58			"Cloudy with occasional rain"	Asia	Japan	"Mouth of Riv. Yamato (Sakai City), Osaka"	34.60833333		135.4325														14.6	18.1	7.8	11				10		0.8	"Light yellowish green"																			2018/09/07	2018/09/07
PRA000075	SAA004064	ST015				OsakaCity_w1_2016	Water	"River water"	2016	10	26	2016-10-26T10:10			Cloudy	Asia	Japan	"Kema-bashi Bridge, Riv. Oh-kawa (Osaka City), Osaka"	34.717760		135.519610														24	19.2	7.1	9	16			9.4			"Light grayish yellow"																			2018/09/07	2018/09/07
PRA000075	SAA004065	ST014				OsakaCity_w2_2016	Water	"Sea water"	2016	10	25	2016-10-25T08:55			Cloudy	Asia	Japan	"Osaka Port, Osaka"	34.65861111		135.4313889														18.5	22	8	6	3,030			1.8		2.9	"Light grayish yellow"																			2018/9/20	2018/9/20
PRA000075	SAA004066	ST014				Hyogo_w3_2016	Water	"Sea water"	2016	10	18	2016-10-18T11:17			Fair	Asia	Japan	"Offshore of Himeji, Hyogo"	34.76194444		134.6697222														25.9	24.6	8.1	8	2,510			5.5		2.9	"Greenish brown"																			2018/9/20	2018/9/20
PRA000075	SAA004153	ST014				Hyogo_w6_2016	Water	"Sea water"	2016	10	18	2016-10-18T12:12			Fair	Asia	Japan	"Aboshi Port, Hyogo"	34.77472222		134.6066667														26.3	24.7	7.9	8	3,160			6.2		2.8	"Greenish brown"																			2018/09/20	2018/09/20
PRA000075	SAA004154	ST015				Hyogo_w5_2016	Water	"River water"	2016	11	8	2016-11-08T10:30			Cloudy	Asia	Japan	"Oji-bashi Bridge, Riv. Ibo (Himeji City, Tatsuno City), Hyogo"	34.80194444		134.5638889														11	14	9	9	109			0.5			Clear																			2018/09/20	2018/09/20
PRA000075	SAA004155	ST014				Kobe_w1_2016	Water	"Sea water"	2016	11	1	2018-11-01T10:05			Fair	Asia	Japan	"Center of Kobe Port, Hyogo"	34.66444444		135.1944444														19.5	21.8	7.8	7				4		2.75	"Dark greenish brown"																			2018/9/20	2018/9/20
PRA000075	SAA004067	ST015				Wakayama_w1_2016	Water	"River water"	2016	10	19	2016-10-19T12:25			Cloudy	Asia	Japan	"Kinokawa-ohashi Bridge, Mouth of Riv. Kinokawa (Wakayama City), Wakayama"	34.23		135.1561111														26.1	23.5	7.7	8	2,200			6		2	"Dark green"																			2018/9/20	2018/9/20
PRA000075	SAA004156	ST014				Wakayama_w2_2016	Water	"Sea water"	2016	11	30	2016-11-30T13:05			Fair	Asia	Japan	"Wakayama-Shimotsu Port (Hokko-ku), Wakayama"	34.23416667		135.1247222														15.5	19.4	7.2	6	4,600			4		2.3	Green																			2018/09/20	2018/09/20
PRA000075	SAA004157	ST015				Wakayama_w3_2016	Water	"River water"	2016	11	30	2018-11-30T12:40			Fair	Asia	Japan	"Tsukiji-bashi Bridge, Riv. Tsukiji (Wakayama City), Wakayama"	34.22444444		135.1586111														11.4	17.6	6.9	4	3,900			2			"Yellowish green"																			2018/09/20	2018/09/20
PRA000075	SAA004068	ST014				Okayama_w2_2016	Water	"Sea water"	2016	10	26	2016-10-26T10:10			Cloudy	Asia	Japan	"Offshore of Mizushima, Okayama"	34.48055556		133.665														21.2	23	8.1	8				3		2.5	"Dark green"																			2018/9/20	2018/9/20
PRA000075	SAA004069	ST015				Okayama_w5_2016	Water	"River water"	2016	11	9	2016-11-09T12:00			Cloudy	Asia	Japan	"Miya-bashi Bridge, Riv. Kongo(Wake Town), Okayama"	34.80444444		134.1575														12.5	13.7	7.4	10				<1			"Light yellowish green"																			2018/9/20	2018/9/20
PRA000075	SAA004158	ST014				Okayama_w6_2016	Water	"Sea water"	2016	10	26	2016-10-26T12:01			Cloudy	Asia	Japan	"Mouth of Mizushima Port"	34.48444444		133.7447222														22.8	24.1	8	7				1		3.5	"Dark green"																			2018/9/20	2018/9/20
PRA000075	SAA004070	ST014				Yamaguchi_w1_2016	Water	"Sea water"	2016	10	14	2016-10-14T09:20			Cloudy	Asia	Japan	"Tokuyama Bay, Yamaguchi"	33.99361111		131.7505556														20.6	23.6	8	9				2.5		3.5	"Bluish green"																			2018/9/20	2018/9/20
PRA000075	SAA004159	ST014				Yamaguchi_w2_2016	Water	"Sea water"	2016	11	4	2016-11-04T11:20			Fair	Asia	Japan	"Offshore of Hagi, Yamaguchi"	34.43805556		131.3794444														18	21	8.1	7				1.4		9.5	"Bluish green"																			2018/9/20	2018/9/20
PRA000075	SAA004160	ST014				Yamaguchi_w3_2016	Water	"Sea water"	2016	11	21	2016-11-21T12:10			Cloudy	Asia	Japan	"Offshore of Waki, West of Hiroshima Port, Yamaguchi"	34.20027778		132.2583333														18.9	19.5	8	5.8				0.9		7	"Bluish green"																			2018/9/20	2018/9/20
PRA000075	SAA004161	ST015				Yamaguchi_w4_2016	Water	"River water"	2016	10	3	2016-10-03T11:03			Cloudy	Asia	Japan	"Kagasuno-bashi Bridge, Riv.Imagire (Tokushima City, Matsushige Town), Tokushima"	34.13055556		134.5769444														26.8	24.7	7.6	7.3	590			5.4			Green																			2018/09/20	2018/09/20
PRA000075	SAA004071	ST014				Kagawa_w1_2016	Water	"Sea water"	2016	10	4	2016-10-04T08:55			Cloudy	Asia	Japan	"Takamatsu Port, Kagawa"	34.34972222		134.0788889														27.6	27.3	6.6	4.2				5		1.8	Green																			2018/9/20	2018/9/20
PRA000075	SAA004162	ST014				Ehime_w2_2016	Water	"Sea water"	2016	10	25	2016-10-25T11:00			Fair	Asia	Japan	"Sawazu Fishing Port, Ehime"	33.98388889		133.2911111														22.5	23	8	7	4,160			2		2.1	"Dark Yellowish green"																			2018/9/20	2018/9/20
PRA000075	SAA004072	ST014				Fukuoka_w2_2016	Water	"Sea water"	2016	11	1	2018-11-01T10:30			Fair	Asia	Japan	"Offshore of Omuta, Fukuoka"	33.03472222		130.4113889														19	21.3	8	5.7	4,100			6.2		2	"Light yellowish green"																			2018/9/20	2018/9/20
PRA000075	SAA004073	ST015				Fukuoka_w1_2016	Water	"River water"	2016	10	24	2018-10-24T10:50			Fair	Asia	Japan	"Kabura-bashi Bridge, Riv. Raizan (Itoshima City), Fukuoka"	33.565		130.1902778														20	22.3	7.6	7.3	25			5.8			"Light yellowish green"																			2018/9/20	2018/9/20
PRA000075	SAA004074	ST014				KitakyushuCity_w1_2016	Water	"Sea water"	2016	10	18	2016-10-18T09:20			Fair	Asia	Japan	"Dokai Bay, Fukuoka"	33.90388889		130.8158333														25.7	23.2	7.9	6.9	4,200			4		2.5	Clear																			2018/9/20	2018/9/20
PRA000075	SAA004075	ST014				FukuokaCity_w1_2016	Water	"Sea water"	2016	10	18	2016-10-18T08:50			Fair	Asia	Japan	"Hakata Bay, Fukuoka"	33.60833333		130.3297222														22.9	23.2	8.5	11.1	4,680			3		1.2	"Dark Yellowish green"																			2018/9/20	2018/9/20
PRA000075	SAA004163	ST014				Saga_w1_2016	Water	"Sea water"	2016	10	26	2016-10-26T10:50			Cloudy	Asia	Japan	"Imari Bay, Saga"	33.34		129.8208333														21.8	22.5	8.1	7.6	4,700			34		2.5	"Grayish green"																			2018/9/20	2018/9/20
PRA000075	SAA004164	ST015				Oita_w2_2016	Water	"River water"	2016	10	31	2016-10-31T11:00			Cloudy	Asia	Japan	"Mouth of Riv. Oita, Oita"	33.25722222		131.6175														19.5	17.5	7.7	8.3				2			"Greenish brown"																			2018/9/20	2018/9/20
PRA000076	SAA004037	ST015				Hokkaido_w3_2016	Water	"River water"	2016	11	2	2016-11-02T10:30			Fair	Asia	Japan	"Ishikarikakokyo Bridge, Mouth of Riv. Ishikari (Ishikari City), Hokkaido"	43.22861111		141.3519444														4.4	4.6	8	11	18.4			13			"Dark brown"																			2018/09/07	2018/09/07
PRA000076	SAA004038	ST015				Hokkaido_w2_2016	Water	"River water"	2016	10	19	2016-10-19T10:30			Fair	Asia	Japan	"Suzuran-ohashi Bridge, Riv. Tokachi (Obihiro City), Hokkaido"	42.94583333		143.1855556														13.8	11	8	12	13.8			12			"Grayish brown"																			2018/09/07	2018/09/07
PRA000076	SAA004040	ST015				Iwate_w1_2016	Water	"River water"	2016	10	12	2016-10-12T10:50			"Cloudy with occasional rain"	Asia	Japan	"Riv. Toyosawa (Hanamaki City), Iwate"	39.38166667		141.1191667														18	14	7.3	10	6.35			3			"Light dark brown"																			2018/09/07	2018/09/07
PRA000076	SAA004216	ST014				Miyagi_w3_2016	Water	"Sea water"	2016	10	18	2016-10-18T10:15			Fair	Asia	Japan	"Sendai Bay (Matsushima Bay), Miyagi"	38.35333333		141.0975														24.6	18.7	8	9.3	4100			1		1.9	Clear																			2018/10/5	2018/10/5
PRA000076	SAA004219	ST015				Akita_w3_2016-3	Water	"Lake water"	2016	9	7	2016-09-07T10:46			Cloudy	Asia	Japan	"Lake Hachiro, Akita"	39.92277778		139.9988889														27.7	26.8	9.1	9	263			21		0.6	"Dark yellowish green"																			2018/10/5	2018/10/5
PRA000076	SAA004127	ST015				Yamagata_w1_2016	Water	"River water"	2016	10	28	2016-10-28T09:20			Cloudy	Asia	Japan	"Mouth of Riv. Mogami (Sakata City), Yamagata"	38.88722222		139.8433333														13.1	12.6	7.5	10	15.6			5			"Light yellow"																			2018/09/20	2018/09/20
PRA000076	SAA004220	ST014				Fukushima_w1_2016	Water	"Sea water"	2016	10	18	2016-10-18T10:05			Fair	Asia	Japan	"Onahama Port, Fukushima"	36.92472222		140.8752778														24.5	21.5	8.3	6.6	4,500			6		4.7	"Bluish green"																			2018/10/5	2018/10/5
PRA000076	SAA004129	ST015				Ibaraki_w2_2016	Water	"River water"	2016	11	2	2016-11-02T10:10			Cloudy	Asia	Japan	"Kamome-ohashi Bridge, Mouth of Riv. Tone (Kamisu City), Ibaraki"	35.77638889		140.7569444														13.1	16	7.7	9.2	550			14			"Light yellowish green"																			2018/09/20	2018/09/20
PRA000076	SAA004130	ST015				Tochigi_w1_2016-1	Water	"River water"	2016	10	12	2016-10-12T11:03			Fair	Asia	Japan	"Tagawa area-Toshuko Weir (Utsunomiya City), Tochigi"	36.52805556		139.8855556														23.2	18.6	7.9	11	21			4			Clear																			2018/09/20	2018/09/20
PRA000076	SAA004044	ST015				Saitama_w2_2016	Water	"River water"	2016	11	2	2016-11-02T11:55			Cloudy	Asia	Japan	"Akigase-Shusuizeki Weir, Riv. Ara (Shiki City), Saitama"	35.84055556		139.6044444														11.6	14.4	7.8	9.9				4			"Light yellow"																			2018/09/07	2018/09/07
PRA000076	SAA004221	ST015				ChibaCity_w1_2016	Water	"River water"	2016	11	10	2016-11-10T10:18			Cloudy	Asia	Japan	"Mouth of Riv. Hanami (Chiba City), Chiba"	35.63472222		140.04694440														11.2	17	7.6	7.5	3750			2			Clear																			2018/10/05	2018/10/05
PRA000076	SAA004047	ST015				Tokyo_w1_2016	Water	"River water"	2016	11	1	2016-11-01T09:55			Rain	Asia	Japan	"Mouth of Riv. Arakawa (Koto Ward), Tokyo"	35.64583333		139.8463889														12.2	18.2	7.5	5.1	3100					0.8	"Grayish yellow green"																			2018/09/07	2018/09/07
PRA000076	SAA004048	ST015				Tokyo_w2_2016	Water	"River water"	2016	11	1	2016-11-01T12:10			Cloudy	Asia	Japan	"Mouth of Riv. Sumida (Minato Ward), Tokyo"	35.66		139.7705556														14.4	19.2	7.4	2.9	3430					2.2	"Dark green"																			2018/09/07	2018/09/07
PRA000076	SAA004049	ST014				YokohamaCity_w3_2016	Water	"Sea water"	2016	10	13	2016-10-13T09:50			Cloudy	Asia	Japan	"Yokohama Port, Kanagawa"	35.45555556		139.6636111														19.5	21	8.1	7.7				9		2.3	Clear																			2018/10/5	2018/10/5
PRA000076	SAA004137	ST014				KawasakiCity_w2_2016	Water	"Sea water"	2016	10	13	2016-10-13T09:40			Cloudy	Asia	Japan	"Keihin Canal, Kawasaki Port, Kanagawa (front of Ogimachi)"	35.49527778		139.7277778														18.6	22.3	8.2	7	4,100			7.2		2.3	"Dark greenish brown"																			2018/09/20	2019/09/02
PRA000076	SAA004052	ST015				Niigata_w2_2016	Water	"River water"	2016	10	19	2016-10-19T09:50			Fair	Asia	Japan	"Downstream of Riv. Shinano (Niigata City), Niigata"	37.88305556		139.0155556														19.7	16.5	7.5	9.4	7			5			Clear																			2018/09/07	2018/09/07
PRA000076	SAA004141	ST015				Toyama_w2_2016	Water	"River water"	2016	10	19	2016-10-19T09:25			Fair	Asia	Japan	"Hagiura-bashi Bridge, Mouth of Riv. Jintsu (Toyama City), Toyama"	36.745		137.2180556														21	16.5	7.4	9.2	100			1			Clear																			2018/09/20	2018/09/20
PRA000076	SAA004053	ST015				Ishikawa_w1_2016-1	Water	"River water"	2016	11	2	2016-11-02T09:30			Fair	Asia	Japan	"Mouth of Riv. Sai (Kanazawa City), Ishikawa"	36.60027778		136.5888889														16.9	13	7.3	9.3	83			4			Clear																			2018/09/07	2018/09/07
PRA000076	SAA004222	ST015				Fukui_w1_2016	Water	"River water"	2016	11	2	2016-11-02T10:30			Fair	Asia	Japan	"Mishima-bashi Bridge, Riv. Shono (Tsuruga City), Fukui"	35.6475		136.0627778														16	16	7.3	11	8.2			<1			Clear																			2018/10/05	2018/10/05
PRA000076	SAA004055	ST015				Nagano_w2_2016	Water	"Lake water"	2016	11	2	2016-11-02T10:30			Cloudy	Asia	Japan	"Center of Lake Suwa, Nagano"	36.05		138.0861111														8.6	12	9.1	11	14.4			18		0.8	"Dark brown"																			2018/10/5	2018/10/5
PRA000076	SAA004148	ST015				Shizuoka_w1_2016	Water	"River water"	2016	10	25	2016-10-25T11:10			Cloudy	Asia	Japan	"Riv. Tenryu (Iwata City), Shizuoka"	34.67916667		137.7961111														18.7	16.9	7.9	11	11.56			5			Clear																			2018/09/20	2018/09/20
PRA000076	SAA004223	ST014				Aichi_w2_2016-2	Water	"Sea water"	2016	10	25	2016-10-25T12:15			Rain	Asia	Japan	"Nagoya Port, West of Shiomi Wharf, Aichi"	35.07111111		136.8691667														14	21	7.4	4.9	4,280			7		3.5	"Light green"																			2018/10/5	2018/10/5
PRA000076	SAA004058	ST014				Mie_w1_2016	Water	"Sea water"	2016	10	25	2016-10-25T10:00			Cloudy	Asia	Japan	"Yokkaichi Port, Mie"	34.94944444		136.6530556														15	20	8	6.2	4,320			3.6		2.5	"Dark greenish brown"																			2018/10/5	2018/10/5
PRA000076	SAA004224	ST015				Shiga_w2_2016-2	Water	"Lake water"	2016	10	21	2016-10-21T11:50			Fair	Asia	Japan	"Lake Biwa (center, offshore of Karasaki), Shiga"	35.04611111		135.8955556														22.2	21.6	8.1	4.6	118.6			3		2.8	"Dark green"																			2018/10/05	2018/10/05
PRA000076	SAA004061	ST014				Kyoto_w1_2016	Water	"Sea water"	2016	10	25	2016-10-25T10:06			Cloudy	Asia	Japan	"Miyazu Port, Kyoto"	35.58305556		135.2138889														17.5	19.7	8.7	7.2				3.3		5.5	Clear																			2018/10/5	2018/10/5
PRA000076	SAA004062	ST015				KyotoCity_w1_2016	Water	"River water"	2016	10	28	2016-10-28T10:10			Cloudy	Asia	Japan	"Miyamae-bashi Bridge, Riv. Katsura (Kyoto City), Kyoto"	34.905		135.7125														20	19	7.4	8.8	16.8			2			Clear																			2018/09/07	2018/09/07
PRA000076	SAA004063	ST015				Osaka_w1_2016	Water	"River water"	2016	11	9	2016-11-09T08:58			"Cloudy with occasional rain"	Asia	Japan	"Mouth of Riv. Yamato (Sakai City), Osaka"	34.60833333		135.4325														14.6	18.1	7.8	11				10		0.8	"Light yellowish green"																			2018/09/07	2018/09/07
PRA000076	SAA004065	ST014				OsakaCity_w2_2016	Water	"Sea water"	2016	10	25	2016-10-25T08:55			Cloudy	Asia	Japan	"Osaka Port, Osaka"	34.65861111		135.4313889														18.5	22	8	5.6	3,030			1.8		2.9	"Light grayish yellow"																			2018/10/5	2018/10/5
PRA000076	SAA004066	ST014				Hyogo_w3_2016	Water	"Sea water"	2016	10	18	2016-10-18T11:17			Fair	Asia	Japan	"Offshore of Himeji, Hyogo"	34.76194444		134.6697222														25.9	24.6	8.1	7.7	2,510			5.5		2.9	"Greenish brown"																			2018/10/5	2018/10/5
PRA000076	SAA004155	ST014				Kobe_w1_2016	Water	"Sea water"	2016	11	1	2018-11-01T10:05			Fair	Asia	Japan	"Center of Kobe Port, Hyogo"	34.66444444		135.1944444														19.5	21.8	7.8	6.5				4		2.8	"Dark greenish brown"																			2018/10/5	2018/10/5
PRA000076	SAA004067	ST015				Wakayama_w1_2016	Water	"River water"	2016	10	19	2016-10-19T12:25			Cloudy	Asia	Japan	"Kinokawa-ohashi Bridge, Mouth of Riv. Kinokawa (Wakayama City), Wakayama"	34.23		135.1561111														26.1	23.5	7.7	7.7	2,200			6		2	"Dark green"																			2018/10/5	2018/10/5
PRA000076	SAA004068	ST014				Okayama_w2_2016	Water	"Sea water"	2016	10	26	2016-10-26T10:10			Cloudy	Asia	Japan	"Offshore of Mizushima, Okayama"	34.48055556		133.665														21.2	23	8.1	8.1				3		2.5	"Dark green"																			2018/10/5	2018/10/5
PRA000076	SAA004225	ST014				Hiroshima_w2_2016	Water	"Sea water"	2016	11	7	2016-11-07T09:56			Fair	Asia	Japan	"Kure Port, Hiroshima"	34.23361111		132.5391667														15.5	20.8	8.2	7				2		9	"Dark greenish  blue"																			2018/10/5	2018/10/5
PRA000076	SAA004226	ST014				Hiroshima_w3_2016	Water	"Sea water"	2016	11	7	2016-11-07T11:26			Fair	Asia	Japan	"Hiroshima Bay (Hiroshima City), Hiroshima"	34.34833333		132.4225														16.1	20.4	8.1	7.7				2		5.5	"Dark greenish  blue"																			2018/10/05	2018/10/05
PRA000076	SAA004070	ST014				Yamaguchi_w1_2016	Water	"Sea water"	2016	10	14	2016-10-14T09:20			Cloudy	Asia	Japan	"Tokuyama Bay, Yamaguchi"	33.99361111		131.7505556														20.6	23.6	8	9				2.5		3.5	"Bluish green"																			2018/10/5	2018/10/5
PRA000076	SAA004227	ST014				Yamaguchi_w3_2016	Water	"Sea water"	2016	11	21	2016-11-21T11:55			Fair	Asia	Japan	"Offshore of Ube, Yamaguchi"	33.915		131.1975														19.9	18.5	8.3	7.1				2		4	"Grayish green"																			2018/10/5	2018/10/5
PRA000076	SAA004159	ST014				Yamaguchi_w2_2016	Water	"Sea water"	2016	11	4	2016-11-04T11:20			Fair	Asia	Japan	"Offshore of Hagi, Yamaguchi"	34.43805556		131.3794444														18	21	8.1	7				1.3		9.5	"Bluish green"																			2018/10/5	2018/10/5
PRA000076	SAA004228	ST015				Tokushima_w1_2016	Water	"River water"	2016	10	19	2016-10-19T10:44			Cloudy	Asia	Japan	"Mouth of Riv. Yoshino (Tokushima City), Tokushima"	34.085		134.5913889														23.1	22.7	7.9	7.8	2500			2		2.5	Green																			2018/10/05	2018/10/05
PRA000076	SAA004071	ST014				Kagawa_w1_2016	Water	"Sea water"	2016	10	4	2016-10-04T08:55			Cloudy	Asia	Japan	"Takamatsu Port, Kagawa"	34.34972222		134.0788889														27.6	27.3	6.6	4.2				5		1.8	Green																			2018/10/5	2018/10/5
PRA000076	SAA004229	ST015				Kochi_w2_2016	Water	"River water"	2016	10	14	2016-10-14T08:03			Cloudy	Asia	Japan	"Mouth of Riv. Shimanto (Shimanto City), Kochi"	32.93777778		132.8441667														18.2	19.8	7.6	8.2	1262			3		2.5	Clear																			2018/10/05	2018/10/05
PRA000076	SAA004074	ST014				KitakyushuCity_w1_2016	Water	"Sea water"	2016	10	18	2016-10-18T09:20			Fair	Asia	Japan	"Dokai Bay, Fukuoka"	33.90388889		130.8158333														25.7	23.2	7.9	6.9	4,200			4		2.5	Clear																			2018/10/5	2018/10/5
PRA000076	SAA004163	ST014				Saga_w1_2016	Water	"Sea water"	2016	10	26	2016-10-26T10:50			Cloudy	Asia	Japan	"Imari Bay, Saga"	33.34		129.8208333														21.8	22.5	8.1	7.6	4,700			34		2.5	"Grayish green"																			2018/10/5	2018/10/5
PRA000076	SAA004230	ST014				Nagasaki_w1_2016	Water	"Sea water"	2016	12	15	2016-12-15T11:30			Cloudy	Asia	Japan	"Omura Bay, Nagasaki"	32.98833333		129.8522222														7.7	15.3	8.1	7.9				2		4.5	"Greenish blue"																			2018/10/5	2018/10/5
PRA000076	SAA004231	ST015				Kumamoto_w1_2016	Water	"River water"	2016	11	15	2016-11-15T14:50			Fair	Asia	Japan	"Hiraki-bashi Bridge, Riv. Midori (Uto City), Kumamoto"	32.71638889		130.6422222														24	19	7.4	7.9	240			29			"Light brown"																			2018/10/05	2018/10/05
PRA000076	SAA004232	ST015				Miyazaki_w3_2016	Water	"River water"	2016	10	31	2016-10-31T11:40			Cloudy	Asia	Japan	"Mouth of Riv. Oyodo (Miyazaki City), Miyazaki"	31.89611111		131.4402778														20.5	19.8	7.3	8.3	110			3			Clear																			2018/10/05	2018/10/05
PRA000076	SAA004233	ST015				Kagoshima_w1_2016	Water	"River water"	2016	11	17	2016-11-17T12:00			Fair	Asia	Japan	"Shinkawa-bashi Bridge, Riv. Amori (Kirishima City), Kagoshima"	31.7225		130.7416667														21	17.1	7.7	9.4				4			Clear																			2018/10/05	2018/10/05
PRA000076	SAA004234	ST015				Kagoshima_w2_2016	Water	"River water"	2016	10	31	2016-10-31T11:50			Cloudy	Asia	Japan	"Gotanda-bashi Bridge, Riv. Gotanda (Ichikikushikino City), Kagoshima"	31.72583333		130.2769444														19.3	18.3	7.4	8.7				3			Clear																			2018/10/05	2018/10/05
PRA000083	SAA004588	ST015		ZETTAICODE_FY2016_W	4012874	Buzen_1_FY2016	Water	"River water"	2016							Asia	Japan	"Shinkawa-bashi bridge, Kuro-kawa Riv., Fukuoka"	33.59277778		131.1722222																7.9	9.4	130			6																					"pH, DO, EC, SS: Annual average; Collected in FY2016(Apr. 1, 2016-Mar. 31, 2017); FukuokaPref_Code: 05010202"	2019/3/5	2019/3/5
PRA000083	SAA004589	ST015		ZETTAICODE_FY2016_W	4012901	Buzen_2_FY2016	Water	"River water"	2016							Asia	Japan	"Kifune-bashi bridge, Tomoeda-gawa Riv., Fukuoka"	33.58055556		131.17																7.8	9.6	100			3																					"pH, DO, EC, SS: Annual average; Collected in FY2016(Apr. 1, 2016-Mar. 31, 2017); FukuokaPref_Code: 05010301"	2019/3/5	2019/3/5
PRA000083	SAA004590	ST015		ZETTAICODE_FY2016_W	4012928	Buzen_3_FY2016	Water	"River water"	2016							Asia	Japan	"Saigawa-bashi bridge, Sai-gawa Riv., Fukuoka"	33.60805556		131.1658333																7.8	9.2	130			3																					"pH, DO, EC, SS: Annual average; Collected in FY2016(Apr. 1, 2016-Mar. 31, 2017); FukuokaPref_Code: 05020101"	2019/3/5	2019/3/5
PRA000083	SAA004591	ST015		ZETTAICODE_FY2016_W	4012955	Buzen_4_FY2016	Water	"River water"	2016							Asia	Japan	"Kutuarai-bashi bridge, Iwatakke-gawa Riv., Fukuoka"	33.61805556		131.1425																7.8	8.9	130			4																					"pH, DO, EC, SS: Annual average; Collected in FY2016(Apr. 1, 2016-Mar. 31, 2017); FukuokaPref_Code: 05030102"	2019/3/5	2019/3/5
PRA000083	SAA004592	ST015		ZETTAICODE_FY2016_W	4012976	Buzen_5_FY2016	Water	"River water"	2016							Asia	Japan	"Hashi no ue-seki weir, Naka-gawa Riv., Fukuoka"	33.615		131.1097222																7.6	9	120			5																					"pH, DO, EC, SS: Annual average; Collected in FY2016(Apr. 1, 2016-Mar. 31, 2017); FukuokaPref_Code: 05040103"	2019/3/5	2019/3/5
PRA000083	SAA004593	ST015		ZETTAICODE_FY2016_W	4012994	Buzen_6_FY2016	Water	"River water"	2016							Asia	Japan	"Sudagawa-bashi bridge, Suda-gawa Riv., Fukuoka"	33.63194444		131.0872222																7.7	9.1	120			5																					"pH, DO, EC, SS: Annual average; Collected in FY2016(Apr. 1, 2016-Mar. 31, 2017); FukuokaPref_Code: 05050101"	2019/3/5	2019/3/5
PRA000083	SAA004594	ST015		ZETTAICODE_FY2016_W	4013033	Buzen_7_FY2016	Water	"River water"	2016							Asia	Japan	"Takinomoto-bashi bridge, Uenokawachi-gawa Riv., Fukuoka"	33.63277778		131.0772222																8	9.4	110			2																					"pH, DO, EC, SS: Annual average; Collected in FY2016(Apr. 1, 2016-Mar. 31, 2017); FukuokaPref_Code: 05060102"	2019/3/5	2019/3/5
PRA000083	SAA004595	ST015		ZETTAICODE_FY2016_W	4013057	Buzen_8_FY2016	Water	"River water"	2016							Asia	Japan	"Akahata-bashi bridge, upstream of Kii-gawa Riv., Fukuoka"	33.65583333		131.0141667																7.7	10	100			2																					"pH, DO, EC, SS: Annual average; Collected in FY2016(Apr. 1, 2016-Mar. 31, 2017); FukuokaPref_Code: 05070103"	2019/3/5	2019/3/5
PRA000083	SAA004596	ST015		ZETTAICODE_FY2016_W	4013078	Buzen_9_FY2016	Water	"River water"	2016							Asia	Japan	"Hamamiya-bashi bridge, downstream of Kii-gawa Riv., Fukuoka"	33.65527778		131.0627778																7.8	10	5300			4																					"pH, DO, EC, SS: Annual average; Collected in FY2016(Apr. 1, 2016-Mar. 31, 2017); FukuokaPref_Code: 05070102"	2019/3/5	2019/3/5
PRA000083	SAA004597	ST015		ZETTAICODE_FY2016_W	4013096	Buzen_10_FY2016	Water	"River water"	2016							Asia	Japan	"Azuma-bashi bridge, Shinnyouji-gawa Riv., Fukuoka"	33.65333333		131.0622222																7.7	9	130			10																					"pH, DO, EC, SS: Annual average; Collected in FY2016(Apr. 1, 2016-Mar. 31, 2017); FukuokaPref_Code: 05070201"	2019/3/5	2019/3/5
PRA000083	SAA004598	ST015		ZETTAICODE_FY2016_W	4013105	Buzen_11_FY2016	Water	"River water"	2016							Asia	Japan	"Nishino-hashi bridge, Iwamaru-gawa Riv., Fukuoka"	33.65722222		131.0569444																7.8	9.4	220			4																					"pH, DO, EC, SS: Annual average; Collected in FY2016(Apr. 1, 2016-Mar. 31, 2017); FukuokaPref_Code: 05070301"	2019/3/5	2019/3/5
PRA000083	SAA004599	ST015		ZETTAICODE_FY2016_W	4013114	Buzen_12_FY2016	Water	"River water"	2016							Asia	Japan	"Kamimoto-bashi bridge, Gokurakuji-gawa Riv., Fukuoka"	33.65		131.0488889																7.6	8.8	120			3																					"pH, DO, EC, SS: Annual average; Collected in FY2016(Apr. 1, 2016-Mar. 31, 2017); FukuokaPref_Code: 05070302"	2019/3/5	2019/3/5
PRA000083	SAA004600	ST015		ZETTAICODE_FY2016_W	4013123	Buzen_13_FY2016	Water	"River water"	2016							Asia	Japan	"Haraigou-bashi bridge, upstream of Harai-gawa Riv., Fukuoka"	33.68166667		130.9936111																7.9	9.8	120			3																					"pH, DO, EC, SS: Annual average; Collected in FY2016(Apr. 1, 2016-Mar. 31, 2017); FukuokaPref_Code: 05090102"	2019/3/5	2019/3/5
PRA000083	SAA004601	ST015		ZETTAICODE_FY2016_W	4013132	Buzen_14_FY2016	Water	"River water"	2016							Asia	Japan	"Kutsuo-bashi bridge, downstream of Harai-gawa Riv., Fukuoka"	33.72944444		131.01																8	9.9	9500			18																					"pH, DO, EC, SS: Annual average; Collected in FY2016(Apr. 1, 2016-Mar. 31, 2017); FukuokaPref_Code: 05090101"	2019/3/5	2019/3/5
PRA000083	SAA004602	ST015		ZETTAICODE_FY2016_W	4013141	Buzen_15_FY2016	Water	"River water"	2016							Asia	Japan	"Noguchi-bashi bridge, upstream of Ima-gawa Riv., Fukuoka"	33.66305556		130.9461111																7.6	9.6	110			5																					"pH, DO, EC, SS: Annual average; Collected in FY2016(Apr. 1, 2016-Mar. 31, 2017); FukuokaPref_Code: 05100103"	2019/3/5	2019/3/5
PRA000083	SAA004603	ST015		ZETTAICODE_FY2016_W	4013150	Buzen_16_FY2016	Water	"River water"	2016							Asia	Japan	"Imagawa Shiodome-seki weir, downstream of Ima-gawa Riv., Fukuoka"	33.73527778		130.9927778																7.9	9.3	110			6																					"pH, DO, EC, SS: Annual average; Collected in FY2016(Apr. 1, 2016-Mar. 31, 2017); FukuokaPref_Code: 05100101"	2019/3/5	2019/3/5
PRA000083	SAA004604	ST015		ZETTAICODE_FY2016_W	4013159	Buzen_17_FY2016	Water	"River water"	2016							Asia	Japan	"Tokiwa-bashi bridge, Ejiri-gawa Riv., Fukuoka"	33.73333333		130.9975																7.8	9.1	9800			13																					"pH, DO, EC, SS: Annual average; Collected in FY2016(Apr. 1, 2016-Mar. 31, 2017); FukuokaPref_Code: 05100201"	2019/3/5	2019/3/5
PRA000083	SAA004605	ST015		ZETTAICODE_FY2016_W	4013168	Buzen_18_FY2016	Water	"River water"	2016							Asia	Japan	"Choonji-bashi bridge, upstream of Nagao-gawa Riv., Fukuoka"	33.73027778		130.9541667																7.9	9.1	200			8																					"pH, DO, EC, SS: Annual average; Collected in FY2016(Apr. 1, 2016-Mar. 31, 2017); FukuokaPref_Code: 05110103"	2019/3/5	2019/3/5
PRA000083	SAA004606	ST015		ZETTAICODE_FY2016_W	4013177	Buzen_19_FY2016	Water	"River water"	2016							Asia	Japan	"Kamekawa-bash bridge, downstream of Nagao-gawa Riv., Fukuoka"	33.73305556		130.9766667																7.8	8.7	9800			11																					"pH, DO, EC, SS: Annual average; Collected in FY2016(Apr. 1, 2016-Mar. 31, 2017); FukuokaPref_Code: 05110102"	2019/3/5	2019/3/5
PRA000083	SAA004607	ST015		ZETTAICODE_FY2016_W	4013186	Buzen_20_FY2016	Water	"River water"	2016							Asia	Japan	"Futazaki-bashi bridge, Obase-gawa, Riv., Fukuoka"	33.74166667		130.9841667																8.1	10	12000			11																					"pH, DO, EC, SS: Annual average; Collected in FY2016(Apr. 1, 2016-Mar. 31, 2017); FukuokaPref_Code: 05110201"	2019/3/5	2019/3/5
PRA000083	SAA004608	ST015		ZETTAICODE_FY2016_W	4013681	Buzen_21_FY2016	Water	"River water"	2016							Asia	Japan	"Matsubara-bashi bridge, Otonashi-gawa Riv., Fukuoka"	33.69		131.0305556																7.8	9.3	170			6																					"pH, DO, EC, SS: Annual average; Collected in FY2016(Apr. 1, 2016-Mar. 31, 2017); FukuokaPref_Code: 05080101"	2019/3/5	2019/3/5
PRA000083	SAA004609	ST015		ZETTAICODE_FY2016_W	4014350	Buzen_40_FY2016	Water	"River water"	2016							Asia	Japan	"Shimotobaru, Yamakuni-gawa Riv., Fukuoka"	33.56944444		131.1827778																7.5	10	84			3																					"pH, DO, EC, SS: Annual average; Collected in FY2016(Apr. 1, 2016-Mar. 31, 2017); FukuokaPref_Code: 05010102"	2019/3/5	2019/3/5
PRA000083	SAA004610	ST015		ZETTAICODE_FY2016_W	4011473	Chikugo_1_FY2016	Water	"River water"	2016							Asia	Japan	"Senoshita, Chigkugo-gawa Riv.(2), Fukuoka"	33.315		130.4883333																7.5	9.2	14			5																					"pH, DO, EC, SS: Annual average; Collected in FY2016(Apr. 1, 2016-Mar. 31, 2017); FukuokaPref_Code: 10010108"	2019/3/5	2019/3/5
PRA000083	SAA004611	ST015		ZETTAICODE_FY2016_W	4011716	Chikugo_12_FY2016	Water	"River water"	2016							Asia	Japan	"Rokugoro-bashi bridge, Chikugo-gawa Riv.(3), Fukuoka"	33.34777778		130.6622222																7.5	9.5	14			28																					"pH, DO, EC, SS: Annual average; Collected in FY2016(Apr. 1, 2016-Mar. 31, 2017); FukuokaPref_Code: 10010103"	2019/3/5	2019/3/5
PRA000083	SAA004612	ST015		ZETTAICODE_FY2016_W	4011794	Chikugo_15_FY2016	Water	"River water"	2016							Asia	Japan	"Iwamoto-bashi bridge, Homan-gawa Riv.(1), Fukuoka"	33.50722222		130.5538889																7.4	9.5	120			2																					"pH, DO, EC, SS: Annual average; Collected in FY2016(Apr. 1, 2016-Mar. 31, 2017); FukuokaPref_Code: 10010707"	2019/3/5	2019/3/5
PRA000083	SAA004613	ST015		ZETTAICODE_FY2016_W	4011821	Chikugo_16_FY2016	Water	"River water"	2016							Asia	Japan	"Sakemi-bashi bridge, Hanamune-gawa Riv., Fukuoka"	33.2125		130.3894444																8.3	9.6	220			18																					"pH, DO, EC, SS: Annual average; Collected in FY2016(Apr. 1, 2016-Mar. 31, 2017); FukuokaPref_Code: 10010202"	2019/3/5	2019/3/5
PRA000083	SAA004614	ST015		ZETTAICODE_FY2016_W	4011980	Chikugo_24_FY2016	Water	"River water"	2016							Asia	Japan	"Tenjiku-bashi, bridge, Yamanoi-gawa Riv., Fukuoka"	33.245		130.4441667																7.7	9				53																					"pH, DO, EC, SS: Annual average; Collected in FY2016(Apr. 1, 2016-Mar. 31, 2017); FukuokaPref_Code: 10010302"	2019/3/5	2019/3/5
PRA000083	SAA004615	ST015		ZETTAICODE_FY2016_W	4012082	Chikugo_29_FY2016	Water	"River water"	2016							Asia	Japan	"Miyuki-bashi bridge, Yamanoi-gawa Riv., Fukuoka"	33.21194444		130.5294444																7.4	9.8				7																					"pH, DO, EC, SS: Annual average; Collected in FY2016(Apr. 1, 2016-Mar. 31, 2017); FukuokaPref_Code: 10010310"	2019/3/5	2019/3/5
PRA000083	SAA004616	ST015		ZETTAICODE_FY2016_W	4012253	Chikugo_38_FY2016	Water	"River water"	2016							Asia	Japan	"Daizenji-bashi bridge, downstream of Hiro-kawa Riv., Fukuoka"	33.27777778		130.4586111																7.7	10				22																					"pH, DO, EC, SS: Annual average; Collected in FY2016(Apr. 1, 2016-Mar. 31, 2017); FukuokaPref_Code: 10010402"	2019/3/5	2019/3/5
PRA000083	SAA004617	ST015		ZETTAICODE_FY2016_W	4012400	Chikugo_43_FY2016	Water	"River water"	2016							Asia	Japan	"Kogaszaka-suimon floodgate, Kanamaru-gawa Riv., Fukuoka"	33.30194444		130.4833333																7.5	8.3				6																					"pH, DO, EC, SS: Annual average; Collected in FY2016(Apr. 1, 2016-Mar. 31, 2017); FukuokaPref_Code: 10010501"	2019/3/5	2019/3/5
PRA000083	SAA004618	ST015		ZETTAICODE_FY2016_W	4012604	Chikugo_47_FY2016	Water	"River water"	2016							Asia	Japan	"Mouth of Kora-gawa Riv., Fukuoka"	33.32361111		130.5316667																7.6	10				2																					"pH, DO, EC, SS: Annual average; Collected in FY2016(Apr. 1, 2016-Mar. 31, 2017); FukuokaPref_Code: 10010801"	2019/3/5	2019/3/5
PRA000083	SAA004619	ST015		ZETTAICODE_FY2016_W	4012655	Chikugo_48_FY2016	Water	"River water"	2016							Asia	Japan	"Mouth of Tachiarai-gawa Riv., Fukuoka"	33.33083334		130.5561111																7.4	8.3				12																					"pH, DO, EC, SS: Annual average; Collected in FY2016(Apr. 1, 2016-Mar. 31, 2017); FukuokaPref_Code: 10011001"	2019/3/5	2019/3/5
PRA000083	SAA004620	ST015		ZETTAICODE_FY2016_W	4012691	Chikugo_50_FY2016	Water	"River water"	2016							Asia	Japan	"Nakabaru-bashi bridge, Kose-gawa Riv., Fukuoka "	33.33833333		130.6816667																7.5	10				4																					"pH, DO, EC, SS: Annual average; Collected in FY2016(Apr. 1, 2016-Mar. 31, 2017); FukuokaPref_Code: 10011404"	2019/3/5	2019/3/5
PRA000083	SAA004621	ST015		ZETTAICODE_FY2016_W	4012721	Chikugo_52_FY2016	Water	"River water"	2016							Asia	Japan	"Takanari-bashi bridge, Koishiwara-gawa Riv., Fukuoka"	33.36055556		130.6330556																7.3	9.4	140			2																					"pH, DO, EC, SS: Annual average; Collected in FY2016(Apr. 1, 2016-Mar. 31, 2017); FukuokaPref_Code: 10011501"	2019/3/5	2019/3/5
PRA000083	SAA004622	ST015		ZETTAICODE_FY2016_W	4012775	Chikugo_54_FY2016	Water	"River water"	2016							Asia	Japan	"Yakatabaru-bashi bridge, upstream of Sata-gawa Riv., Fukuoka"	33.41944444		130.7058333																7.5	9.5	100			1																					"pH, DO, EC, SS: Annual average; Collected in FY2016(Apr. 1, 2016-Mar. 31, 2017); FukuokaPref_Code: 10011603"	2019/3/5	2019/3/5
PRA000083	SAA004623	ST015		ZETTAICODE_FY2016_W	4012802	Chikugo_55_FY2016	Water	"River water"	2016							Asia	Japan	"Satagawa-bashi bridge, downstream of Sata-gawa Riv., Fukuoka"	33.3675		130.6519444																7.4	9.3	190			1																					"pH, DO, EC, SS: Annual average; Collected in FY2016(Apr. 1, 2016-Mar. 31, 2017); FukuokaPref_Code: 10011601"	2019/3/5	2019/3/5
PRA000083	SAA004624	ST015		ZETTAICODE_FY2016_W	4012835	Chikugo_56_FY2016	Water	"River water"	2016							Asia	Japan	"Hinashiro-bashi bridge, Katsura-gawa Riv., Fukuoka"	33.3675		130.6780556																7	9.2	150			3																					"pH, DO, EC, SS: Annual average; Collected in FY2016(Apr. 1, 2016-Mar. 31, 2017); FukuokaPref_Code: 10011701"	2019/3/5	2019/3/5
PRA000083	SAA004625	ST015		ZETTAICODE_FY2016_W	4012859	Chikugo_57_FY2016	Water	"River water"	2016							Asia	Japan	"Yanagino-bashi bridge, Kumagami-gawa Riv., Fukuoka"	33.33305556		130.8027778																7.9	10	98			2																					"pH, DO, EC, SS: Annual average; Collected in FY2016(Apr. 1, 2016-Mar. 31, 2017); FukuokaPref_Code: 10011801"	2019/3/5	2019/3/5
PRA000083	SAA004626	ST015		ZETTAICODE_FY2016_W	4013711	Chikugo_58_FY2016	Water	"River water"	2016							Asia	Japan	"Shimono, Homan-gawa Riv., Fukuoka"	33.33527777		130.5063889																7.4	9				15																					"pH, DO, EC, SS: Annual average; Collected in FY2016(Apr. 1, 2016-Mar. 31, 2017); FukuokaPref_Code: 10010701"	2019/3/5	2019/3/5
PRA000083	SAA004627	ST015		ZETTAICODE_FY2016_W	4014782	Chikugo_90_FY2016	Water	"River water"	2016							Asia	Japan	"Maeda-bashi bridge(Maekoga), Hanamune-gawa Riv., Fukuoka"	33.20555556		130.5308333																7.4	10				6																					"pH, DO, EC, SS: Annual average; Collected in FY2016(Apr. 1, 2016-Mar. 31, 2017); FukuokaPref_Code: 10010208"	2019/3/5	2019/3/5
PRA000083	SAA004628	ST015		ZETTAICODE_FY2016_W	4013603	Chikuzen_1_FY2016	Water	"River water"	2016							Asia	Japan	"Yahagi-bashi bridge, Yahagi-gawa Riv., Fukuoka"	33.87416667		130.6366667																7.3	5.9	620			9																					"pH, DO, EC, SS: Annual average; Collected in FY2016(Apr. 1, 2016-Mar. 31, 2017); FukuokaPref_Code: 08010101"	2019/3/5	2019/3/5
PRA000083	SAA004629	ST015		ZETTAICODE_FY2016_W	4013612	Chikuzen_2_FY2016	Water	"River water"	2016							Asia	Japan	"Shioirigawa-bashi bridge, Shioiri-gawa Riv., Fukuoka"	33.875		130.5944444																7.4	8.1	560			8																					"pH, DO, EC, SS: Annual average; Collected in FY2016(Apr. 1, 2016-Mar. 31, 2017); FukuokaPref_Code: 08020101"	2019/3/5	2019/3/5
PRA000083	SAA004630	ST015		ZETTAICODE_FY2016_W	4013621	Chikuzen_3_FY2016	Water	"River water"	2016							Asia	Japan	"Sunayama-bashi bridge, Shioiri-gawa Riv., Fukuoka"	33.83972222		130.5088889																7.7	8.4	12000			6																					"pH, DO, EC, SS: Annual average; Collected in FY2016(Apr. 1, 2016-Mar. 31, 2017); FukuokaPref_Code: 08030102"	2019/3/5	2019/3/5
PRA000083	SAA004631	ST015		ZETTAICODE_FY2016_W	4013627	Chikuzen_4_FY2016	Water	"River water"	2016							Asia	Japan	"Tare-bashi bridge, Tsuri-kawa Riv., Fukuoka"	33.82361111		130.5180556																7.8	9.1	300			8																					"pH, DO, EC, SS: Annual average; Collected in FY2016(Apr. 1, 2016-Mar. 31, 2017); FukuokaPref_Code: 08030104"	2019/3/5	2019/3/5
PRA000083	SAA004632	ST015		ZETTAICODE_FY2016_W	4013642	Chikuzen_5_FY2016	Water	"River water"	2016							Asia	Japan	"Hamada-bashi bridge, Saigo-gawa Riv., Fukuoka"	33.76277778		130.4766667																7.7	8.8	6600			8																					"pH, DO, EC, SS: Annual average; Collected in FY2016(Apr. 1, 2016-Mar. 31, 2017); FukuokaPref_Code: 08040102"	2019/3/5	2019/3/5
PRA000083	SAA004633	ST015		ZETTAICODE_FY2016_W	4013651	Chikuzen_6_FY2016	Water	"River water"	2016							Asia	Japan	"Daikongawa-bashi bridge, upstream of Daikon-gawa Riv., Fukuoka"	33.73277778		130.4772222																7.4	8.3	240			13																					"pH, DO, EC, SS: Annual average; Collected in FY2016(Apr. 1, 2016-Mar. 31, 2017); FukuokaPref_Code: 08060102"	2019/3/5	2019/3/5
PRA000083	SAA004634	ST015		ZETTAICODE_FY2016_W	4013654	Chikuzen_7_FY2016	Water	"River water"	2016							Asia	Japan	"Ishigasaki-bashi bridge, upstream of Daikon-gawa Riv., Fukuoka"	33.72444444		130.4713889																7.5	8.6	360			6																					"pH, DO, EC, SS: Annual average; Collected in FY2016(Apr. 1, 2016-Mar. 31, 2017); FukuokaPref_Code: 08060201"	2019/3/5	2019/3/5
PRA000083	SAA004635	ST015		ZETTAICODE_FY2016_W	4013657	Chikuzen_8_FY2016	Water	"River water"	2016							Asia	Japan	"Hanatsuru-bashi bridge, downstream of Daikon-gawa Riv., Fukuoka"	33.7275		130.4608333																7.4	8.5	5000			7																					"pH, DO, EC, SS: Annual average; Collected in FY2016(Apr. 1, 2016-Mar. 31, 2017); FukuokaPref_Code: 08060101"	2019/3/5	2019/3/5
PRA000083	SAA004636	ST015		ZETTAICODE_FY2016_W	4013660	Chikuzen_9_FY2016	Water	"River water"	2016							Asia	Japan	"Minato-bashi bridge, Minato-gawa Riv., Fukuoka"	33.7125		130.4302778																7.7	7.3	21000			7																					"pH, DO, EC, SS: Annual average; Collected in FY2016(Apr. 1, 2016-Mar. 31, 2017); FukuokaPref_Code: 08070101"	2019/3/5	2019/3/5
PRA000083	SAA004637	ST015		ZETTAICODE_FY2016_W	4013663	Chikuzen_10_FY2016	Water	"River water"	2016							Asia	Japan	"Shioi-bashi bridge, Sakurai-gawa Riv., Fukuoka"	33.61138889		130.1627778																7.3	8.8	940			7																					"pH, DO, EC, SS: Annual average; Collected in FY2016(Apr. 1, 2016-Mar. 31, 2017); FukuokaPref_Code: 08080101"	2019/3/5	2019/3/5
PRA000083	SAA004638	ST015		ZETTAICODE_FY2016_W	4013666	Chikuzen_11_FY2016	Water	"River water"	2016							Asia	Japan	"Kafuri-bashi bridge, Raizan-gawa Riv., Fukuoka"	33.565		130.1902778																7.5	8.6	420			16																					"pH, DO, EC, SS: Annual average; Collected in FY2016(Apr. 1, 2016-Mar. 31, 2017); FukuokaPref_Code: 08090102"	2019/3/5	2019/3/5
PRA000083	SAA004639	ST015		ZETTAICODE_FY2016_W	4013669	Chikuzen_12_FY2016	Water	"River water"	2016							Asia	Japan	"Akasaka-bashi bridge, Raizan-gawa Riv., Fukuoka"	33.54694444		130.1777778																7.5	9.7	170			8																					"pH, DO, EC, SS: Annual average; Collected in FY2016(Apr. 1, 2016-Mar. 31, 2017); FukuokaPref_Code: 08090201"	2019/3/5	2019/3/5
PRA000083	SAA004640	ST015		ZETTAICODE_FY2016_W	4013672	Chikuzen_13_FY2016	Water	"River water"	2016							Asia	Japan	"Fukae-bashi bridge, Ikisan-gawa Riv., Fukuoka"	33.50444444		130.1391667																7.4	9.6	11000			15																					"pH, DO, EC, SS: Annual average; Collected in FY2016(Apr. 1, 2016-Mar. 31, 2017); FukuokaPref_Code: 08100101"	2019/3/5	2019/3/5
PRA000083	SAA004641	ST015		ZETTAICODE_FY2016_W	4013675	Chikuzen_14_FY2016	Water	"River water"	2016							Asia	Japan	"Sanami-bashi bridge, Kamo-gawa Riv., Fukuoka"	33.5075		130.1133333																7.9	9.9	130			12																					"pH, DO, EC, SS: Annual average; Collected in FY2016(Apr. 1, 2016-Mar. 31, 2017); FukuokaPref_Code: 08110101"	2019/3/5	2019/3/5
PRA000083	SAA004642	ST015		ZETTAICODE_FY2016_W	4013678	Chikuzen_15_FY2016	Water	"River water"	2016							Asia	Japan	"Fukuyoshi-bashi bridge, Fukuyoshi-gawa Riv., Fukuoka"	33.50416667		130.0836111																7.5	9.6	170			6																					"pH, DO, EC, SS: Annual average; Collected in FY2016(Apr. 1, 2016-Mar. 31, 2017); FukuokaPref_Code: 08120101"	2019/3/5	2019/3/5
PRA000083	SAA004643	ST015		ZETTAICODE_FY2016_W	4014059	Chikuzen_18_FY2016	Water	"River water"	2016							Asia	Japan	"Kawabata-zeki weir, Tsuri-kawa Riv., Fukuoka"	33.83361111		130.5152778																8.1	9				11																					"pH, DO, EC, SS: Annual average; Collected in FY2016(Apr. 1, 2016-Mar. 31, 2017); FukuokaPref_Code: 08030108"	2019/3/5	2019/3/5
PRA000083	SAA004644	ST015		ZETTAICODE_FY2016_W	4014428	Chikuzen_24_FY2016	Water	"River water"	2016							Asia	Japan	"Under Hamada-bashi bridge, Saigo-gawa Riv., Fukuoka"	33.76222222		130.4719444																7.9	9.4	1200			10																					"pH, DO, EC, SS: Annual average; Collected in FY2016(Apr. 1, 2016-Mar. 31, 2017); FukuokaPref_Code: 08040105"	2019/3/5	2019/3/5
PRA000083	SAA004645	ST015		ZETTAICODE_FY2016_W	4014431	Chikuzen_25_FY2016	Water	"River water"	2016							Asia	Japan	"Hamadai-seki weir, Saigo-gawa Riv., Fukuoka"	33.76277778		130.4763889																7.9	9.7	380			8																					"pH, DO, EC, SS: Annual average; Collected in FY2016(Apr. 1, 2016-Mar. 31, 2017); FukuokaPref_Code: 08040106"	2019/3/5	2019/3/5
PRA000083	SAA004646	ST015		ZETTAICODE_FY2016_W	4014434	Chikuzen_26_FY2016	Water	"River water"	2016							Asia	Japan	"Under the railload bridge of JR Kagoshima Line, Saigo-gawa Riv., Fukuoka"	33.76222222		130.4841667																7.9	10	370			7																					"pH, DO, EC, SS: Annual average; Collected in FY2016(Apr. 1, 2016-Mar. 31, 2017); FukuokaPref_Code: 08040107"	2019/3/5	2019/3/5
PRA000083	SAA004647	ST015		ZETTAICODE_FY2016_W	4014437	Chikuzen_27_FY2016	Water	"River water"	2016							Asia	Japan	"Under Shikaku-bashi bridge, Saigo-gawa Riv., Fukuoka"	33.76111111		130.4944444																7.9	10	330			4																					"pH, DO, EC, SS: Annual average; Collected in FY2016(Apr. 1, 2016-Mar. 31, 2017); FukuokaPref_Code: 08040108"	2019/3/5	2019/3/5
PRA000083	SAA004648	ST015		ZETTAICODE_FY2016_W	4014440	Chikuzen_28_FY2016	Water	"River water"	2016							Asia	Japan	"Under Kawara-bashi bridge, Saigo-gawa Riv., Fukuoka"	33.75944444		130.5122222																7.9	11	320			3																					"pH, DO, EC, SS: Annual average; Collected in FY2016(Apr. 1, 2016-Mar. 31, 2017); FukuokaPref_Code: 08040109"	2019/3/5	2019/3/5
PRA000083	SAA004649	ST015		ZETTAICODE_FY2016_W	4014908	Chikuzen_29_FY2016	Water	"River water"	2016							Asia	Japan	"Shinko-bashi bridge, Tsuri-kawa Riv., Fukuoka"	33.80361111		130.6122222																8.1	9.7				8																					"pH, DO, EC, SS: Annual average; Collected in FY2016(Apr. 1, 2016-Mar. 31, 2017); FukuokaPref_Code: 08030115"	2019/3/5	2019/3/5
PRA000083	SAA004650	ST015		ZETTAICODE_FY2016_W	4014911	Chikuzen_30_FY2016	Water	"River water"	2016							Asia	Japan	"Taku-bashi bridge, Tsuri-kawa Riv., Fukuoka"	33.80388889		130.5791667																8.2	11				4																					"pH, DO, EC, SS: Annual average; Collected in FY2016(Apr. 1, 2016-Mar. 31, 2017); FukuokaPref_Code: 08030116"	2019/3/5	2019/3/5
PRA000083	SAA004651	ST015		ZETTAICODE_FY2016_W	4014914	Chikuzen_31_FY2016	Water	"River water"	2016							Asia	Japan	"Togo-bashi bridge, Tsuri-kawa Riv., Fukuoka"	33.8075		130.5475																8.2	11				6																					"pH, DO, EC, SS: Annual average; Collected in FY2016(Apr. 1, 2016-Mar. 31, 2017); FukuokaPref_Code: 08030117"	2019/3/5	2019/3/5
PRA000083	SAA004652	ST015		ZETTAICODE_FY2016_W	4020010	FukLakePond_1_FY2016	Water	"Dam water"	2016							Asia	Japan	"Hyugami dam, Fukuoka"	33.17527778		130.7811111																7.6	8.8	81			4																					"pH, DO, EC, SS: Annual average; Collected in FY2016(Apr. 1, 2016-Mar. 31, 2017); FukuokaPref_Code: 11031101"	2019/3/5	2019/3/5
PRA000083	SAA004653	ST015		ZETTAICODE_FY2016_W	4020030	FukLakePond_2_FY2016	Water	"Dam water"	2016							Asia	Japan	"Terauchi dam, Fukuoka"	33.43055556		130.7258333																7.3	8.1				3																					"pH, DO, EC, SS: Annual average; Collected in FY2016(Apr. 1, 2016-Mar. 31, 2017); FukuokaPref_Code: 10015001"	2019/3/5	2019/3/5
PRA000083	SAA004654	ST015		ZETTAICODE_FY2016_W	4020040	FukLakePond_3_FY2016	Water	"Dam water"	2016							Asia	Japan	"Rikimaru dam, Fukuoka"	33.68861111		130.6263889																7.7	7.9	130			5																					"pH, DO, EC, SS: Annual average; Collected in FY2016(Apr. 1, 2016-Mar. 31, 2017); FukuokaPref_Code: 07010417"	2019/3/5	2019/3/5
PRA000083	SAA004655	ST015		ZETTAICODE_FY2016_W	4020050	FukLakePond_4_FY2016	Water	"Dam water"	2016							Asia	Japan	"Aburagi dam, Fukuoka"	33.55361111		130.8947222																7.4	7.7	84			3																					"pH, DO, EC, SS: Annual average; Collected in FY2016(Apr. 1, 2016-Mar. 31, 2017); FukuokaPref_Code: 05100301"	2019/3/5	2019/3/5
PRA000083	SAA004656	ST015		ZETTAICODE_FY2016_W	4020080	FukLakePond_5_FY2016	Water	"Dam water"	2016							Asia	Japan	"Masubuchi dam, Fukuoka"	33.76166667		130.8388889																7.4	7.9	10			1																					"pH, DO, EC, SS: Annual average; Collected in FY2016(Apr. 1, 2016-Mar. 31, 2017); FukuokaPref_Code: 06090701"	2019/3/5	2019/3/5
PRA000083	SAA004657	ST015		ZETTAICODE_FY2016_W	4010003	Hakata_1_FY2016	Water	"River water"	2016							Asia	Japan	"Shiobara-bashi bridge, upstream of Naka-gawa Riv., Fukuoka"	33.56888889		130.4291667																7.6	10	16			4																					"pH, DO, EC, SS: Annual average; Collected in FY2016(Apr. 1, 2016-Mar. 31, 2017); FukuokaPref_Code: 09070106"	2019/3/5	2019/3/5
PRA000083	SAA004658	ST015		ZETTAICODE_FY2016_W	4010024	Hakata_2_FY2016	Water	"River water"	2016							Asia	Japan	"Keyago-bashi bridge, upstream of Naka-gawa Riv., Fukuoka"	33.53583333		130.4288889																7.6	10	10			3																					"pH, DO, EC, SS: Annual average; Collected in FY2016(Apr. 1, 2016-Mar. 31, 2017);  FukuokaPref_Code: 09070111"	2019/3/5	2019/3/5
PRA000083	SAA004659	ST015		ZETTAICODE_FY2016_W	4010054	Hakata_3_FY2016	Water	"River water"	2016							Asia	Japan	"Sumiyoshi-bashi bridge, downstream of Naka-gawa Riv.(1), Fukuoka"	33.58555555		130.4097222																7.3	9	800			9																					"pH, DO, EC, SS: Annual average; Collected in FY2016(Apr. 1, 2016-Mar. 31, 2017); FukuokaPref_Code: 09070103"	2019/3/5	2019/3/5
PRA000083	SAA004660	ST015		ZETTAICODE_FY2016_W	4010075	Hakata_4_FY2016	Water	"River water"	2016							Asia	Japan	"Nanotsu-ohashi bridge, downstream of Naka-gawa Riv.(2), Fukuoka"	33.59944444		130.3997222																7.5	8.5	1800			5																					"pH, DO, EC, SS: Annual average; Collected in FY2016(Apr. 1, 2016-Mar. 31, 2017); FukuokaPref_Code: 09070101"	2019/3/5	2019/3/5
PRA000083	SAA004661	ST015		ZETTAICODE_FY2016_W	4010099	Hakata_5_FY2016	Water	"River water"	2016							Asia	Japan	"Tenjin-bashi bridge, downstream of Naka-gawa Riv.(2), Fukuoka"	33.5925		130.4033333																7.7	9	1100			3																					"pH, DO, EC, SS: Annual average; Collected in FY2016(Apr. 1, 2016-Mar. 31, 2017); FukuokaPref_Code: 09070301"	2019/3/5	2019/3/5
PRA000083	SAA004662	ST015		ZETTAICODE_FY2016_W	4010114	Hakata_6_FY2016	Water	"River water"	2016							Asia	Japan	"Tendai-bashi bridge, downstream of Naka-gawa Riv.(2), Fukuoka"	33.575		130.4205556																7.5	10	56			4																					"pH, DO, EC, SS: Annual average; Collected in FY2016(Apr. 1, 2016-Mar. 31, 2017); FukuokaPref_Code: 09070401"	2019/3/5	2019/3/5
PRA000083	SAA004663	ST015		ZETTAICODE_FY2016_W	4010123	Hakata_7_FY2016	Water	"River water"	2016							Asia	Japan	"Itazuke-bashi bridge, upstream of Mikasa-gawa Riv., Fukuoka"	33.56833334		130.4530556																7.9	11	18			5																					"pH, DO, EC, SS: Annual average; Collected in FY2016(Apr. 1, 2016-Mar. 31, 2017); FukuokaPref_Code: 09060105"	2019/3/5	2019/3/5
PRA000083	SAA004664	ST015		ZETTAICODE_FY2016_W	4010213	Hakata_10_FY2016	Water	"River water"	2016							Asia	Japan	"Morooka-bashi bridge, downstream of Mikasa-gawa Riv.(1), Fukuoka"	33.56138889		130.4508333																8	12	22			3																					"pH, DO, EC, SS: Annual average; Collected in FY2016(Apr. 1, 2016-Mar. 31, 2017); FukuokaPref_Code: 09060203"	2019/3/5	2019/3/5
PRA000083	SAA004665	ST015		ZETTAICODE_FY2016_W	4010228	Hakata_11_FY2016	Water	"River water"	2016							Asia	Japan	"Chidori-bashi bridge, downstream of Mikasa-gawa Riv.(2), Fukuoka"	33.60444444		130.4086111																7.3	8.2	1100			4																					"pH, DO, EC, SS: Annual average; Collected in FY2016(Apr. 1, 2016-Mar. 31, 2017); FukuokaPref_Code: 09060101"	2019/3/5	2019/3/5
PRA000083	SAA004666	ST015		ZETTAICODE_FY2016_W	4013375	Hakata_12_FY2016	Water	"River water"	2016							Asia	Japan	"Ookuma-bashi bridge, upstream of Tatara-gawa Riv., Fukuoka"	33.6225		130.4963889																7.9	9.9	220			4																					"pH, DO, EC, SS: Annual average; Collected in FY2016(Apr. 1, 2016-Mar. 31, 2017); FukuokaPref_Code: 09050107"	2019/3/5	2019/3/5
PRA000083	SAA004667	ST015		ZETTAICODE_FY2016_W	4013381	Hakata_13_FY2016	Water	"River water"	2016							Asia	Japan	"Amouzu-bashi bridge, upstream of Tatara-gawa Riv., Fukuoka"	33.630287		130.46797																8.1	11	24			6																					"pH, DO, EC, SS: Annual average; Collected in FY2016(Apr. 1, 2016-Mar. 31, 2017); FukuokaPref_Code: 09050105"	2019/03/05	2019/03/05
PRA000083	SAA004668	ST015		ZETTAICODE_FY2016_W	4013387	Hakata_14_FY2016	Water	"River water"	2016							Asia	Japan	"Fukai-bashi bridge, upstream of Tatara-gawa Riv., Fukuoka"	33.64111111		130.4955556																8.1	10	210			3																					"pH, DO, EC, SS: Annual average; Collected in FY2016(Apr. 1, 2016-Mar. 31, 2017); FukuokaPref_Code: 09050204"	2019/3/5	2019/3/5
PRA000083	SAA004669	ST015		ZETTAICODE_FY2016_W	4013396	Hakata_15_FY2016	Water	"River water"	2016							Asia	Japan	"Najima-bashi bridge, downstream of Tatara-gawa Riv., Fukuoka"	33.639706		130.426939																7.7	7.9	2400			6																					"pH, DO, EC, SS: Annual average; Collected in FY2016(Apr. 1, 2016-Mar. 31, 2017); FukuokaPref_Code: 09050101"	2019/03/05	2019/03/05
PRA000083	SAA004670	ST015		ZETTAICODE_FY2016_W	4013411	Hakata_16_FY2016	Water	"River water"	2016							Asia	Japan	"Sakado-bashi bridge, upstream of Sue-gawa Riv., Fukuoka"	33.59888889		130.4827778																7.8	9.5	230			5																					"pH, DO, EC, SS: Annual average; Collected in FY2016(Apr. 1, 2016-Mar. 31, 2017); FukuokaPref_Code: 09050303"	2019/3/5	2019/3/5
PRA000083	SAA004671	ST015		ZETTAICODE_FY2016_W	4013420	Hakata_17_FY2016	Water	"River water"	2016							Asia	Japan	"Kyuya-bashi bridge, downstream of Sue-gawa Riv., Fukuoka"	33.624055		130.430771																7.9	9.1	1000			8																					"pH, DO, EC, SS: Annual average; Collected in FY2016(Apr. 1, 2016-Mar. 31, 2017); FukuokaPref_Code: 09050301"	2019/03/05	2019/03/05
PRA000083	SAA004672	ST015		ZETTAICODE_FY2016_W	4013432	Hakata_18_FY2016	Water	"River water"	2016							Asia	Japan	"Kameyamashin-bashi bridge, upstream of Umi-gawa Riv., Fukuoka"	33.6		130.4633333																8.1	9.9	250			3																					"pH, DO, EC, SS: Annual average; Collected in FY2016(Apr. 1, 2016-Mar. 31, 2017); FukuokaPref_Code: 09050405"	2019/3/5	2019/3/5
PRA000083	SAA004673	ST015		ZETTAICODE_FY2016_W	4013441	Hakata_19_FY2016	Water	"River water"	2016							Asia	Japan	"Tounomoto-bashi bridge, downstream of Umi-gawa Riv., Fukuoka"	33.623557		130.430194																7.6	8.2	940			8																					"pH, DO, EC, SS: Annual average; Collected in FY2016(Apr. 1, 2016-Mar. 31, 2017); FukuokaPref_Code: 09050401"	2019/03/05	2019/03/05
PRA000083	SAA004674	ST015		ZETTAICODE_FY2016_W	4013453	Hakata_20_FY2016	Water	"River water"	2016							Asia	Japan	"Old Imagawa-bashi bridge, Hii-gawa Riv., Fukuoka"	33.58472222		130.3638889																7.6	8.9	1400			3																					"pH, DO, EC, SS: Annual average; Collected in FY2016(Apr. 1, 2016-Mar. 31, 2017); FukuokaPref_Code: 09080101"	2019/3/5	2019/3/5
PRA000083	SAA004675	ST015		ZETTAICODE_FY2016_W	4013462	Hakata_21_FY2016	Water	"River water"	2016							Asia	Japan	"Yusentei-bashi bridge, Hii-gawa Riv., Fukuoka"	33.56138889		130.3758333																7.8	11	19			1																					"pH, DO, EC, SS: Annual average; Collected in FY2016(Apr. 1, 2016-Mar. 31, 2017); FukuokaPref_Code: 09080103"	2019/3/5	2019/3/5
PRA000083	SAA004676	ST015		ZETTAICODE_FY2016_W	4013474	Hakata_22_FY2016	Water	"River water"	2016							Asia	Japan	"Ichino-hashi bridge, Hii-gawa Riv., Fukuoka"	33.58166667		130.3652778																7.6	9.2	840			3																					"pH, DO, EC, SS: Annual average; Collected in FY2016(Apr. 1, 2016-Mar. 31, 2017); FukuokaPref_Code: 09080202"	2019/3/5	2019/3/5
PRA000083	SAA004677	ST015		ZETTAICODE_FY2016_W	4013480	Hakata_23_FY2016	Water	"River water"	2016							Asia	Japan	"Muromi-bashi bridge, Muromi Riv., Fukuoka"	33.58138889		130.3383333																7.7	10	440			6																					"pH, DO, EC, SS: Annual average; Collected in FY2016(Apr. 1, 2016-Mar. 31, 2017); FukuokaPref_Code: 09100101"	2019/3/5	2019/3/5
PRA000083	SAA004678	ST015		ZETTAICODE_FY2016_W	4013486	Hakata_24_FY2016	Water	"River water"	2016							Asia	Japan	"Hashimoto-bashi bridge, Muromi Riv., Fukuoka"	33.55916667		130.3252778																7.5	10	11			2																					"pH, DO, EC, SS: Annual average; Collected in FY2016(Apr. 1, 2016-Mar. 31, 2017); FukuokaPref_Code: 09100102"	2019/3/5	2019/3/5
PRA000083	SAA004679	ST015		ZETTAICODE_FY2016_W	4013492	Hakata_25_FY2016	Water	"River water"	2016							Asia	Japan	"Yakura-bashi bridge, Muromi Riv., Fukuoka"	33.53444444		130.3225																7.3	10	10			1																					"pH, DO, EC, SS: Annual average; Collected in FY2016(Apr. 1, 2016-Mar. 31, 2017); FukuokaPref_Code: 09100103"	2019/3/5	2019/3/5
PRA000083	SAA004680	ST015		ZETTAICODE_FY2016_W	4013510	Hakata_26_FY2016	Water	"River water"	2016							Asia	Japan	"Tobiishi-bashi bridge, Kanakuzu-gawa Riv., Fukuoka"	33.58111111		130.345																7.8	11	230			4																					"pH, DO, EC, SS: Annual average; Collected in FY2016(Apr. 1, 2016-Mar. 31, 2017); FukuokaPref_Code: 09090101"	2019/3/5	2019/3/5
PRA000083	SAA004681	ST015		ZETTAICODE_FY2016_W	4013516	Hakata_27_FY2016	Water	"River water"	2016							Asia	Japan	"Arita-bashi bridge, Kanakuzu-gawa Riv., Fukuoka"	33.56166667		130.3383333																7.1	10	26			2																					"pH, DO, EC, SS: Annual average; Collected in FY2016(Apr. 1, 2016-Mar. 31, 2017); FukuokaPref_Code: 09090102"	2019/3/5	2019/3/5
PRA000083	SAA004682	ST015		ZETTAICODE_FY2016_W	4013522	Hakata_28_FY2016	Water	"River water"	2016							Asia	Japan	"Funasoko-bashi bridge, Kanakuzu-gawa Riv., Fukuoka"	33.57		130.3455556																7.6	11	15			2																					"pH, DO, EC, SS: Annual average; Collected in FY2016(Apr. 1, 2016-Mar. 31, 2017); FukuokaPref_Code: 09090104"	2019/3/5	2019/3/5
PRA000083	SAA004683	ST015		ZETTAICODE_FY2016_W	4013534	Hakata_29_FY2016	Water	"River water"	2016							Asia	Japan	"Kotokuji-bashi bridge, Nagara-gawa Riv., Fukuoka"	33.5875		130.3183333																7.3	8.6	940			3																					"pH, DO, EC, SS: Annual average; Collected in FY2016(Apr. 1, 2016-Mar. 31, 2017); FukuokaPref_Code: 09110101"	2019/3/5	2019/3/5
PRA000083	SAA004684	ST015		ZETTAICODE_FY2016_W	4013543	Hakata_30_FY2016	Water	"River water"	2016							Asia	Japan	"Iki-bashi bridge, Jyuro-gawa Riv., Fukuoka"	33.58527777		130.3127778																7.8	11	1600			6																					"pH, DO, EC, SS: Annual average; Collected in FY2016(Apr. 1, 2016-Mar. 31, 2017); FukuokaPref_Code: 09120101"	2019/3/5	2019/3/5
PRA000083	SAA004685	ST015		ZETTAICODE_FY2016_W	4013555	Hakata_31_FY2016	Water	"River water"	2016							Asia	Japan	"Shodai-bashi bridge, Zuibaiji-gawa Riv., Fukuoka"	33.58861111		130.2402778																7.5	9.4	920			10																					"pH, DO, EC, SS: Annual average; Collected in FY2016(Apr. 1, 2016-Mar. 31, 2017); FukuokaPref_Code: 09140101"	2019/3/5	2019/3/5
PRA000083	SAA004686	ST015		ZETTAICODE_FY2016_W	4013570	Hakata_33_FY2016	Water	"River water"	2016							Asia	Japan	"Hamada-bashi bridge, Tounoharu-gawa Riv., Fukuoka"	33.6775		130.435																7.9	11	620			7																					"pH, DO, EC, SS: Annual average; Collected in FY2016(Apr. 1, 2016-Mar. 31, 2017); FukuokaPref_Code: 09010101"	2019/3/5	2019/3/5
PRA000083	SAA004687	ST015		ZETTAICODE_FY2016_W	4013690	Hakata_34_FY2016	Water	"River water"	2016							Asia	Japan	"Mishima-bashi bridge, Hamao-gawa Riv., Fukuoka"	33.65916667		130.4372222																8.6	10	1600			5																					"pH, DO, EC, SS: Annual average; Collected in FY2016(Apr. 1, 2016-Mar. 31, 2017); FukuokaPref_Code: 09030101"	2019/3/5	2019/3/5
PRA000083	SAA004688	ST015		ZETTAICODE_FY2016_W	4013693	Hakata_35_FY2016	Water	"River water"	2016							Asia	Japan	"Kashii-bashi bridge, Kashii-gawa Riv., Fukuoka"	33.6575		130.4397222																8.1	9.7	1300			5																					"pH, DO, EC, SS: Annual average; Collected in FY2016(Apr. 1, 2016-Mar. 31, 2017); FukuokaPref_Code: 09040101"	2019/3/5	2019/3/5
PRA000083	SAA004689	ST015		ZETTAICODE_FY2016_W	4013696	Hakata_36_FY2016	Water	"River water"	2016							Asia	Japan	"Kaminamazugawa-bashi bridge, Nanadera-gawa Riv., Fukuoka"	33.57944445		130.2816667																7.4	9.7	68			2																					"pH, DO, EC, SS: Annual average; Collected in FY2016(Apr. 1, 2016-Mar. 31, 2017); FukuokaPref_Code: 09130101"	2019/3/5	2019/3/5
PRA000083	SAA004690	ST015		ZETTAICODE_FY2016_W	4013777	Hakata_37_FY2016	Water	"River water"	2016							Asia	Japan	"Genyo-bashi bridge, Enokuchi-gawa Riv., Fukuoka"	33.58666666		130.2602778																7.8	9.1	2000			9																					"pH, DO, EC, SS: Annual average; Collected in FY2016(Apr. 1, 2016-Mar. 31, 2017); FukuokaPref_Code: 09150101"	2019/3/5	2019/3/5
PRA000083	SAA004691	ST015		ZETTAICODE_FY2016_W	4013891	Hakata_39_FY2016	Water	"River water"	2016							Asia	Japan	"Kaneshima-bashi bridge, downstream of Mikasa-gawa Riv.(1), Fukuoka"	33.57833334		130.4372222																7.1	8.9	140			3																					"pH, DO, EC, SS: Annual average; Collected in FY2016(Apr. 1, 2016-Mar. 31, 2017); FukuokaPref_Code: 09060111"	2019/3/5	2019/3/5
PRA000083	SAA004692	ST015		ZETTAICODE_FY2016_W	4010258	Kitakyushu_1_FY2016	Water	"River water"	2016							Asia	Japan	"Sakae-bashi bridge, E-gawa Riv., Fukuoka"	33.89055555		130.7411111																7.9	7.8	3400			3																					"pH, DO, EC, SS: Annual average; Collected in FY2016(Apr. 1, 2016-Mar. 31, 2017); FukuokaPref_Code: 06180101"	2019/3/5	2019/3/5
PRA000083	SAA004693	ST015		ZETTAICODE_FY2016_W	4010297	Kitakyushu_2_FY2016	Water	"River water"	2016							Asia	Japan	"Honjin-bashi bridge, Shinshinhori-kawa Riv., Fukuoka"	33.86944445		130.7325																7.7	6.7	2700			4																					"pH, DO, EC, SS: Annual average; Collected in FY2016(Apr. 1, 2016-Mar. 31, 2017); FukuokaPref_Code: 06160102"	2019/3/5	2019/3/5
PRA000083	SAA004694	ST015		ZETTAICODE_FY2016_W	4010342	Kitakyushu_3_FY2016	Water	"River water"	2016							Asia	Japan	"Kayo-bashi bridge, upstream of Murasaki-gawa Riv., Fukuoka"	33.80777778		130.8605556																8.1	11	28			4																					"pH, DO, EC, SS: Annual average; Collected in FY2016(Apr. 1, 2016-Mar. 31, 2017); FukuokaPref_Code: 06090501"	2019/3/5	2019/3/5
PRA000083	SAA004695	ST015		ZETTAICODE_FY2016_W	4010357	Kitakyushu_4_FY2016	Water	"River water"	2016							Asia	Japan	"Misono-bashi bridge, upstream of Murasaki-gawa Riv., Fukuoka"	33.80722222		130.8525																8	10	17			5																					"pH, DO, EC, SS: Annual average; Collected in FY2016(Apr. 1, 2016-Mar. 31, 2017); FukuokaPref_Code: 06090601"	2019/3/5	2019/3/5
PRA000083	SAA004696	ST015		ZETTAICODE_FY2016_W	4010372	Kitakyushu_5_FY2016	Water	"River water"	2016							Asia	Japan	"downstream point of Shii-gawa Riv., upstream of Murasaki-gawa Riv., Fukuoka"	33.84138889		130.8697222																7.9	10	25			2																					"pH, DO, EC, SS: Annual average; Collected in FY2016(Apr. 1, 2016-Mar. 31, 2017); FukuokaPref_Code: 06090401"	2019/3/5	2019/3/5
PRA000083	SAA004697	ST015		ZETTAICODE_FY2016_W	4010387	Kitakyushu_6_FY2016	Water	"River water"	2016							Asia	Japan	"Murasakigawa-Shusuizeki weir, upstream of Murasaki-gawa Riv., Fukuoka"	33.87083334		130.8691667																7.9	9.8	22			3																					"pH, DO, EC, SS: Annual average; Collected in FY2016(Apr. 1, 2016-Mar. 31, 2017); FukuokaPref_Code: 06090102"	2019/3/5	2019/3/5
PRA000083	SAA004698	ST015		ZETTAICODE_FY2016_W	4010438	Kitakyushu_7_FY2016	Water	"River water"	2016							Asia	Japan	"Katsuyama-bashi bridge, downstream of Murasaki-gawa Riv., Fukuoka"	33.88583333		130.8772222																7.8	7.9	1200			2																					"pH, DO, EC, SS: Annual average; Collected in FY2016(Apr. 1, 2016-Mar. 31, 2017); FukuokaPref_Code: 06090101"	2019/3/5	2019/3/5
PRA000083	SAA004699	ST015		ZETTAICODE_FY2016_W	4010483	Kitakyushu_8_FY2016	Water	"River water"	2016							Asia	Japan	"Tanga-bashi bridge, Kantake-gawa Riv., Fukuoka"	33.88222223		130.8786111																7.8	7.3	2200			2																					"pH, DO, EC, SS: Annual average; Collected in FY2016(Apr. 1, 2016-Mar. 31, 2017); FukuokaPref_Code: 06090201"	2019/3/5	2019/3/5
PRA000083	SAA004700	ST015		ZETTAICODE_FY2016_W	4010498	Kitakyushu_9_FY2016	Water	"River water"	2016							Asia	Japan	"Sashiba-Shusuizeki weir, upstream of Itabitsu-gawa Riv., Fukuoka"	33.85333333		130.8158333																7.9	9.6	15			4																					"pH, DO, EC, SS: Annual average; Collected in FY2016(Apr. 1, 2016-Mar. 31, 2017); FukuokaPref_Code: 06100106"	2019/3/5	2019/3/5
PRA000083	SAA004701	ST015		ZETTAICODE_FY2016_W	4010525	Kitakyushu_10_FY2016	Water	"River water"	2016							Asia	Japan	"Sakai-bashi bridge, midstream of Itabitsu-gawa Riv., Fukuoka"	33.88083334		130.8563889																8	11	23			1																					"pH, DO, EC, SS: Annual average; Collected in FY2016(Apr. 1, 2016-Mar. 31, 2017); FukuokaPref_Code: 06100102"	2019/3/5	2019/3/5
PRA000083	SAA004702	ST015		ZETTAICODE_FY2016_W	4010564	Kitakyushu_11_FY2016	Water	"River water"	2016							Asia	Japan	"Shinminato-bashi bridge, downstream of Itabitsu-gawa Riv., Fukuoka"	33.89527777		130.8641667																7.9	8.4	1800			2																					"pH, DO, EC, SS: Annual average; Collected in FY2016(Apr. 1, 2016-Mar. 31, 2017); FukuokaPref_Code: 06100101"	2019/3/5	2019/3/5
PRA000083	SAA004703	ST015		ZETTAICODE_FY2016_W	4010630	Kitakyushu_13_FY2016	Water	"River water"	2016							Asia	Japan	"side of JR railway siding, downstream of Itabitsu-gawa Riv., Fukuoka"	33.86694445		130.7608333																7.8	7.4	720			2																					"pH, DO, EC, SS: Annual average; Collected in FY2016(Apr. 1, 2016-Mar. 31, 2017); FukuokaPref_Code: 06140101"	2019/3/5	2019/3/5
PRA000083	SAA004704	ST015		ZETTAICODE_FY2016_W	4010699	Kitakyushu_15_FY2016	Water	"River water"	2016							Asia	Japan	"below the JR raiway bridge, downstream of Wariko-gawa Riv., Fukuoa"	33.8675		130.7511111																7.4	5.1	2100			3																					"pH, DO, EC, SS: Annual average; Collected in FY2016(Apr. 1, 2016-Mar. 31, 2017); FukuokaPref_Code: 06150101"	2019/3/5	2019/3/5
PRA000083	SAA004705	ST015		ZETTAICODE_FY2016_W	4010759	Kitakyushu_17_FY2016	Water	"River water"	2016							Asia	Japan	"near meeting point with Shinshinhori-kawa Riv., downstream of Kinzan-gawa Riv., Fukuoka"	33.86444444		130.7247222																7.7	7.8	2600			6																					"pH, DO, EC, SS: Annual average; Collected in FY2016(Apr. 1, 2016-Mar. 31, 2017); FukuokaPref_Code: 06160201"	2019/3/5	2019/3/5
PRA000083	SAA004706	ST015		ZETTAICODE_FY2016_W	4010801	Kitakyushu_19_FY2016	Water	"River water"	2016							Asia	Japan	"Kukikita-bashi bridge, downstream of Kanate-gawa Riv., Fukuoka"	33.87972223		130.7380556																7.9	7.6	3300			3																					"pH, DO, EC, SS: Annual average; Collected in FY2016(Apr. 1, 2016-Mar. 31, 2017); FukuokaPref_Code: 06170101"	2019/3/5	2019/3/5
PRA000083	SAA004707	ST015		ZETTAICODE_FY2016_W	4010825	Kitakyushu_20_FY2016	Water	"River water"	2016							Asia	Japan	"Miyamae-bashi bridge, Okuhata-gawa Riv., Fukuoka"	33.92916667		130.9994444																7.8	10	22			2																					"pH, DO, EC, SS: Annual average; Collected in FY2016(Apr. 1, 2016-Mar. 31, 2017); FukuokaPref_Code: 06040101"	2019/3/5	2019/3/5
PRA000083	SAA004708	ST015		ZETTAICODE_FY2016_W	4010852	Kitakyushu_21_FY2016	Water	"River water"	2016							Asia	Japan	"Shinkai-bashi bridge, Chikuma-gawa Riv., Fukuoka"	33.84222222		130.9436111																8.2	11	33			6																					"pH, DO, EC, SS: Annual average; Collected in FY2016(Apr. 1, 2016-Mar. 31, 2017); FukuokaPref_Code: 06020101"	2019/3/5	2019/3/5
PRA000083	SAA004709	ST015		ZETTAICODE_FY2016_W	4010879	Kitakyushu_22_FY2016	Water	"River water"	2016							Asia	Japan	"entrance of Ankyo (the underdrain), Kiyotaki-gawa Riv., Fukuoka"	33.94		130.9602778																8	9.9	21			9																					"pH, DO, EC, SS: Annual average; Collected in FY2016(Apr. 1, 2016-Mar. 31, 2017); FukuokaPref_Code: 06050101"	2019/3/5	2019/3/5
PRA000083	SAA004710	ST015		ZETTAICODE_FY2016_W	4010903	Kitakyushu_23_FY2016	Water	"River water"	2016							Asia	Japan	"Dairi-bashi bridge, O-kawa Riv., Fukuoka"	33.915		130.9358333																8.1	11	370			4																					"pH, DO, EC, SS: Annual average; Collected in FY2016(Apr. 1, 2016-Mar. 31, 2017); FukuokaPref_Code: 06060101"	2019/3/5	2019/3/5
PRA000083	SAA004711	ST015		ZETTAICODE_FY2016_W	4010918	Kitakyushu_24_FY2016	Water	"River water"	2016							Asia	Japan	"Muranakagawa-bashi bridge, Muranaka-gawa Riv., Fukuoka"	33.89472222		130.9180556																8	10	220			2																					"pH, DO, EC, SS: Annual average; Collected in FY2016(Apr. 1, 2016-Mar. 31, 2017); FukuokaPref_Code: 06070101"	2019/3/5	2019/3/5
PRA000083	SAA004712	ST015		ZETTAICODE_FY2016_W	4013702	Kitakyushu_25_FY2016	Water	"River water"	2016							Asia	Japan	"Yatsugase-bashi bridge, upstream of Murasaki-gawa Riv., Fukuoka"	33.77722223		130.8408333																7.8	10	13			1																					"pH, DO, EC, SS: Annual average; Collected in FY2016(Apr. 1, 2016-Mar. 31, 2017); FukuokaPref_Code: 06090106"	2019/3/5	2019/3/5
PRA000083	SAA004713	ST015		ZETTAICODE_FY2016_W	4013705	Kitakyushu_26_FY2016	Water	"River water"	2016							Asia	Japan	"Sakura-bashi bridge, upstream of Murasaki-gawa Riv., Fukuoka"	33.82138889		130.8630556																8	10	22			2																					"pH, DO, EC, SS: Annual average; Collected in FY2016(Apr. 1, 2016-Mar. 31, 2017); FukuokaPref_Code: 06090107"	2019/3/5	2019/3/5
PRA000083	SAA004714	ST015		ZETTAICODE_FY2016_W	4013780	Kitakyushu_27_FY2016	Water	"River water"	2016							Asia	Japan	"Shingai-bashi bridge, Kusami-gawa Riv., Fukuoka"	33.80694444		130.9586111																7.7	9	64			2																					"pH, DO, EC, SS: Annual average; Collected in FY2016(Apr. 1, 2016-Mar. 31, 2017); FukuokaPref_Code: 06210101"	2019/3/5	2019/3/5
PRA000083	SAA004715	ST015		ZETTAICODE_FY2016_W	4013783	Kitakyushu_28_FY2016	Water	"River water"	2016							Asia	Japan	"Kanda-bashi bridge, Nuki-kawa Riv., Fukuoka"	33.81833334		130.9491667																7.7	9.3	15			4																					"pH, DO, EC, SS: Annual average; Collected in FY2016(Apr. 1, 2016-Mar. 31, 2017); FukuokaPref_Code: 06220101"	2019/3/5	2019/3/5
PRA000083	SAA004716	ST015		ZETTAICODE_FY2016_W	4014344	Kitakyushu_29_FY2016	Water	"River water"	2016							Asia	Japan	"Tsunemi-bashi bridge, Aiwari-gawa Riv., Fukuoka"	33.86694445		130.9738889																7.8	10	400			3																					"pH, DO, EC, SS: Annual average; Collected in FY2016(Apr. 1, 2016-Mar. 31, 2017); FukuokaPref_Code: 06230101"	2019/3/5	2019/3/5
PRA000083	SAA004717	ST015		ZETTAICODE_FY2016_W	4010933	Omuta_1_FY2016	Water	"River water"	2016							Asia	Japan	"Babamachi-Shusuizeki weir, upstream of Suwa-gawa Riv., Fukuoka"	33.01111111		130.4419444																8	9.6	170			4																					"pH, DO, EC, SS: Annual average; Collected in FY2016(Apr. 1, 2016-Mar. 31, 2017); FukuokaPref_Code: 12040104"	2019/3/5	2019/3/5
PRA000083	SAA004718	ST015		ZETTAICODE_FY2016_W	4010951	Omuta_2_FY2016	Water	"River water"	2016							Asia	Japan	"Railway bridge of Miike Railway, downstream of Suwa-gawa Riv., Fukuoka"	33.02222222		130.4275																8.2	10	5600			20																					"pH, DO, EC, SS: Annual average; Collected in FY2016(Apr. 1, 2016-Mar. 31, 2017); FukuokaPref_Code: 12040102"	2019/3/5	2019/3/5
PRA000083	SAA004719	ST015		ZETTAICODE_FY2016_W	4010966	Omuta_3_FY2016	Water	"River water"	2016							Asia	Japan	"Weir next to Miike Power Plant, upstream of Shiragane-gawa Riv., Fukuoka"	33.06111111		130.47																7.4	8.8	160			10																					"pH, DO, EC, SS: Annual average; Collected in FY2016(Apr. 1, 2016-Mar. 31, 2017); FukuokaPref_Code: 12020204"	2019/3/5	2019/3/5
PRA000083	SAA004720	ST015		ZETTAICODE_FY2016_W	4010981	Omuta_4_FY2016	Water	"River water"	2016							Asia	Japan	"Shinkawa-bashi bridge, downstream of Shiragane-gawa Riv., Fukuoka"	33.05138889		130.4472222																8	9.9	180			7																					"pH, DO, EC, SS: Annual average; Collected in FY2016(Apr. 1, 2016-Mar. 31, 2017); FukuokaPref_Code: 12020201"	2019/3/5	2019/3/5
PRA000083	SAA004721	ST015		ZETTAICODE_FY2016_W	4011038	Omuta_6_FY2016	Water	"River water"	2016							Asia	Japan	"Okogaeri-bashi bridge, Domen-gawa Riv., Fukuoka"	33.04361111		130.4725																7.6	9.3	210			7																					"pH, DO, EC, SS: Annual average; Collected in FY2016(Apr. 1, 2016-Mar. 31, 2017); FukuokaPref_Code: 12020106"	2019/3/5	2019/3/5
PRA000083	SAA004722	ST015		ZETTAICODE_FY2016_W	4011050	Omuta_7_FY2016	Water	"River water"	2016							Asia	Japan	"ShinDomen-bashi bridge, Domen-gawa Riv., Fukuoka"	33.04861111		130.4438889																7.9	9.3	7000			43																					"pH, DO, EC, SS: Annual average; Collected in FY2016(Apr. 1, 2016-Mar. 31, 2017); FukuokaPref_Code: 12020103"	2019/3/5	2019/3/5
PRA000083	SAA004723	ST015		ZETTAICODE_FY2016_W	4011116	Omuta_8_FY2016	Water	"River water"	2016							Asia	Japan	"Tsukazaki-bashi bridge, upstream of Kuma-gawa Riv., Fukuoka"	33.08166667		130.4666667																7.3	8.5	200			9																					"pH, DO, EC, SS: Annual average; Collected in FY2016(Apr. 1, 2016-Mar. 31, 2017); FukuokaPref_Code: 12010105"	2019/3/5	2019/3/5
PRA000083	SAA004724	ST015		ZETTAICODE_FY2016_W	4011143	Omuta_9_FY2016	Water	"River water"	2016							Asia	Japan	"MiikeKantakunai-bashi bridge, downstream of Kuma-gawa Riv., Fukuoka"	33.07527778		130.4291667																7.6	9.1	180			11																					"pH, DO, EC, SS: Annual average; Collected in FY2016(Apr. 1, 2016-Mar. 31, 2017); FukuokaPref_Code: 12010101"	2019/3/5	2019/3/5
PRA000083	SAA004725	ST015		ZETTAICODE_FY2016_W	4013579	Omuta_10_FY2016	Water	"River water"	2016							Asia	Japan	"Satsuki-bashi bridge, Omuta-gawa Riv., Fukuoka"	33.035		130.4480556																8.7	14	1300			4																					"pH, DO, EC, SS: Annual average; Collected in FY2016(Apr. 1, 2016-Mar. 31, 2017); FukuokaPref_Code: 12030104"	2019/3/5	2019/3/5
PRA000083	SAA004726	ST015		ZETTAICODE_FY2016_W	4013195	Onga_1_FY2016	Water	"River water"	2016							Asia	Japan	"Shingunomae-hashi bridge, upstream of Onga-gawa Riv., Fukuoka"	33.605		130.7191667																7.7	8	180			5																					"pH, DO, EC, SS: Annual average; Collected in FY2016(Apr. 1, 2016-Mar. 31, 2017); FukuokaPref_Code: 07010106"	2019/3/5	2019/3/5
PRA000083	SAA004727	ST015		ZETTAICODE_FY2016_W	4013204	Onga_2_FY2016	Water	"River water"	2016							Asia	Japan	"Kawashima, downstream of Onga-gawa Riv., Fukuoka"	33.65916667		130.6877778																7.7	9.4	270			5																					"pH, DO, EC, SS: Annual average; Collected in FY2016(Apr. 1, 2016-Mar. 31, 2017); FukuokaPref_Code: 07010104"	2019/3/5	2019/3/5
PRA000083	SAA004728	ST015		ZETTAICODE_FY2016_W	4013210	Onga_3_FY2016	Water	"River water"	2016							Asia	Japan	"Hinode-bashi bridge, downstream of Onga-gawa Riv., Fukuoka"	33.74972222		130.7316667																7.8	9.2	290			6																					"pH, DO, EC, SS: Annual average; Collected in FY2016(Apr. 1, 2016-Mar. 31, 2017); FukuokaPref_Code: 07010103"	2019/3/5	2019/3/5
PRA000083	SAA004729	ST015		ZETTAICODE_FY2016_W	4013246	Onga_9_FY2016	Water	"River water"	2016							Asia	Japan	"Egawa-bashi bridge, E-gawa Riv., Fukuoka"	33.88916666		130.6852778																7.8	7.3	2000			6																					"pH, DO, EC, SS: Annual average; Collected in FY2016(Apr. 1, 2016-Mar. 31, 2017); FukuokaPref_Code: 07010201"	2019/3/5	2019/3/5
PRA000083	SAA004730	ST015		ZETTAICODE_FY2016_W	4013255	Onga_10_FY2016	Water	"River water"	2016							Asia	Japan	"Shimazu-bashi bridge, Nishi-kawa Riv., Fukuoka"	33.87416667		130.6705556																7.6	8.8	5200			12																					"pH, DO, EC, SS: Annual average; Collected in FY2016(Apr. 1, 2016-Mar. 31, 2017); FukuokaPref_Code: 07010301"	2019/3/5	2019/3/5
PRA000083	SAA004731	ST015		ZETTAICODE_FY2016_W	4013264	Onga_11_FY2016	Water	"River water"	2016							Asia	Japan	"Kayuda-bashi bridge, Inunaki-gawa Riv., Fukuoka"	33.73638889		130.6916667																7.8	9.8	260			6																					"pH, DO, EC, SS: Annual average; Collected in FY2016(Apr. 1, 2016-Mar. 31, 2017); FukuokaPref_Code: 07010402"	2019/3/5	2019/3/5
PRA000083	SAA004732	ST015		ZETTAICODE_FY2016_W	4013282	Onga_14_FY2016	Water	"River water"	2016							Asia	Japan	"Wakino-bashi bridge, upstream of Yagiyama-gawa Riv., Fukuoka"	33.70694444		130.6566667																8	9.6	160			3																					"pH, DO, EC, SS: Annual average; Collected in FY2016(Apr. 1, 2016-Mar. 31, 2017); FukuokaPref_Code: 07010405"	2019/3/5	2019/3/5
PRA000083	SAA004733	ST015		ZETTAICODE_FY2016_W	4013291	Onga_15_FY2016	Water	"River water"	2016							Asia	Japan	"Higuchi-bashi bridge, downstream of Yagiyama-gawa Riv., Fukuoka"	33.72361111		130.6655556																7.9	9	270			5																					"pH, DO, EC, SS: Annual average; Collected in FY2016(Apr. 1, 2016-Mar. 31, 2017); FukuokaPref_Code: 07010404"	2019/3/5	2019/3/5
PRA000083	SAA004734	ST015		ZETTAICODE_FY2016_W	4013300	Onga_16_FY2016	Water	"River water"	2016							Asia	Japan	"Imato-bashi bridge, upstream of Hikosan-gawa Riv., Fukuoka"	33.61861111		130.8483333																7.9	10	170			6																					"pH, DO, EC, SS: Annual average; Collected in FY2016(Apr. 1, 2016-Mar. 31, 2017);FukuokaPref_Code: 07010505"	2019/3/5	2019/3/5
PRA000083	SAA004735	ST015		ZETTAICODE_FY2016_W	4013312	Onga_17_FY2016	Water	"River water"	2016							Asia	Japan	"Hoshii-bashi bridge, downstream of Hikosan-gawa. Riv., Fukuoka"	33.66416667		130.8011111																7.9	9.9	250			6																					"pH, DO, EC, SS: Annual average; Collected in FY2016(Apr. 1, 2016-Mar. 31, 2017); FukuokaPref_Code: 07010503"	2019/3/5	2019/3/5
PRA000083	SAA004736	ST015		ZETTAICODE_FY2016_W	4013324	Onga_19_FY2016	Water	"River water"	2016							Asia	Japan	"Sangase-bashi bridge, upstream of Chuganji-gawa Riv., Fukuoka"	33.61444444		130.7980556																7.8	8.2	230			4																					"pH, DO, EC, SS: Annual average; Collected in FY2016(Apr. 1, 2016-Mar. 31, 2017); FukuokaPref_Code: 07010507"	2019/3/5	2019/3/5
PRA000083	SAA004737	ST015		ZETTAICODE_FY2016_W	4013333	Onga_20_FY2016	Water	"River water"	2016							Asia	Japan	"Kaizoe-hashi bridge, downstream of Chugenji-gawa Riv., Fukuoka"	33.65583333		130.785																7.9	11	260			5																					"pH, DO, EC, SS: Annual average; Collected in FY2016(Apr. 1, 2016-Mar. 31, 2017); FukuokaPref_Code: 07010506"	2019/3/5	2019/3/5
PRA000083	SAA004738	ST015		ZETTAICODE_FY2016_W	4013342	Onga_21_FY2016	Water	"River water"	2016							Asia	Japan	"Takagi-bashi bridge, Kibe-gawa Riv., Fukuoka"	33.67083333		130.8011111																7.8	9.8	240			7																					"pH, DO, EC, SS: Annual average; Collected in FY2016(Apr. 1, 2016-Mar. 31, 2017); FukuokaPref_Code: 07010508"	2019/3/5	2019/3/5
PRA000083	SAA004739	ST015		ZETTAICODE_FY2016_W	4013351	Onga_22_FY2016	Water	"River water"	2016							Asia	Japan	"Tento-bashi bridge, upstream of Honami-gawa Riv., Fukuoka"	33.60361111		130.6725																7.6	8.2	200			7																					"pH, DO, EC, SS: Annual average; Collected in FY2016(Apr. 1, 2016-Mar. 31, 2017); FukuokaPref_Code: 07010702"	2019/3/5	2019/3/5
PRA000083	SAA004740	ST015		ZETTAICODE_FY2016_W	4013363	Onga_23_FY2016	Water	"River water"	2016							Asia	Japan	"Azumamachi-bashi bridge, downstream of Honami-gawa Riv., Fukuoka"	33.63805556		130.6888889																7.8	10	220			6																					"pH, DO, EC, SS: Annual average; Collected in FY2016(Apr. 1, 2016-Mar. 31, 2017); FukuokaPref_Code: 07010701"	2019/3/5	2019/3/5
PRA000083	SAA004741	ST015		ZETTAICODE_FY2016_W	4014503	Onga_33_FY2016	Water	"River water"	2016							Asia	Japan	"Okura-bashi bridge, Yamada-gawa Riv., Fukuoka"	33.59583333		130.7277778																8	7.9	630			5																					"pH, DO, EC, SS: Annual average; Collected in FY2016(Apr. 1, 2016-Mar. 31, 2017); FukuokaPref_Code: 07010802"	2019/3/5	2019/3/5
PRA000083	SAA004742	ST014		ZETTAICODE_FY2016_W	4030010	FukSea_1_FY2016	Water	"Sea water"	2016							Asia	Japan	"D6, Dokai Bay waters (Oku-Dokai), Fukuoka"	33.88361111		130.7836111																8.1	7.8			29																						"pH, DO, EC, SS: Annual average; Collected in FY2016(Apr. 1, 2016-Mar. 31, 2017); FukuokaPref_Code: 01030404"	2019/3/5	2019/3/5
PRA000083	SAA004743	ST014		ZETTAICODE_FY2016_W	4030080	FukSea_4_FY2016	Water	"Sea water"	2016							Asia	Japan	"K7, Dokai Bay waters (Nippon Steel Tobata anchorage), Fukuoka"	33.92111111		130.8586111																8.1	7.9			31																						"pH, DO, EC, SS: Annual average; Collected in FY2016(Apr. 1, 2016-Mar. 31, 2017); FukuokaPref_Code: 01030201"	2019/3/5	2019/3/5
PRA000083	SAA004744	ST014		ZETTAICODE_FY2016_W	4030130	FukSea_5_FY2016	Water	"Sea water"	2016							Asia	Japan	"K8, Dokai Bay waters (Sakai-gawa anchorage), Fukuoka"	33.91416667		130.8641667																8.1	7.7			31																						"pH, DO, EC, SS: Annual average; Collected in FY2016(Apr. 1, 2016-Mar. 31, 2017); FukuokaPref_Code: 01030101"	2019/3/5	2019/3/5
PRA000083	SAA004745	ST014		ZETTAICODE_FY2016_W	4030150	FukSea_6_FY2016	Water	"Sea water"	2016							Asia	Japan	"D2, Dokai Bay waters (the mouth of Dokai Bay), Fukuoka"	33.925		130.825																8.1	8			31																						"pH, DO, EC, SS: Annual average; Collected in FY2016(Apr. 1, 2016-Mar. 31, 2017); FukuokaPref_Code: 01030302"	2019/3/5	2019/3/5
PRA000083	SAA004746	ST014		ZETTAICODE_FY2016_W	4030170	FukSea_7_FY2016	Water	"Sea water"	2016							Asia	Japan	"H1, Dokai Bay waters (Hibiki-nada sea), Fukuoka"	33.94027777		130.8641667																8.1	7.8			32																						"pH, DO, EC, SS: Annual average; Collected in FY2016(Apr. 1, 2016-Mar. 31, 2017); FukuokaPref_Code: 01040001"	2019/3/5	2019/3/5
PRA000083	SAA004747	ST014		ZETTAICODE_FY2016_W	4030180	FukSea_8_FY2016	Water	"Sea water"	2016							Asia	Japan	"H5, Dokai Bay waters (Hibiki-nada sea), Fukuoka"	33.965		130.8375																8.1	7.8			32																						"pH, DO, EC, SS: Annual average; Collected in FY2016(Apr. 1, 2016-Mar. 31, 2017); FukuokaPref_Code: 01040005"	2019/3/5	2019/3/5
PRA000083	SAA004748	ST014		ZETTAICODE_FY2016_W	4030290	FukSea_11_FY2016	Water	"Sea water"	2016							Asia	Japan	"St-2, Ariake Sea (2), Fukuoka"	33.035		130.4166667																8.4	7.1			28	17																					"pH, DO, EC, SS: Annual average; Collected in FY2016(Apr. 1, 2016-Mar. 31, 2017); FukuokaPref_Code: 04010101"	2019/3/5	2019/3/5
PRA000083	SAA004749	ST014		ZETTAICODE_FY2016_W	4030350	FukSea_12_FY2016	Water	"Sea water"	2016							Asia	Japan	"St-1, Ariake Sea (3), Fukuoka"	33.01166667		130.4144444																8.5	7.4			29	12																					"pH, DO, EC, SS: Annual average; Collected in FY2016(Apr. 1, 2016-Mar. 31, 2017); FukuokaPref_Code: 04010201"	2019/3/5	2019/3/5
PRA000083	SAA004750	ST014		ZETTAICODE_FY2016_W	4030380	FukSea_13_FY2016	Water	"Sea water"	2016							Asia	Japan	"St-3, Ariake Sea (4), Fukuoka"	33.01583333		130.4013889																8.5	7.3			28	13																					"pH, DO, EC, SS: Annual average; Collected in FY2016(Apr. 1, 2016-Mar. 31, 2017); FukuokaPref_Code: 04010301"	2019/3/5	2019/3/5
PRA000083	SAA004751	ST014		ZETTAICODE_FY2016_W	4030390	FukSea_14_FY2016	Water	"Sea water"	2016							Asia	Japan	"St-4, Ariake Sea (4), Fukuoka"	33.0325		130.4047222																8.5	7.1			29	12																					"pH, DO, EC, SS: Annual average; Collected in FY2016(Apr. 1, 2016-Mar. 31, 2017); FukuokaPref_Code: 04010302"	2019/3/5	2019/3/5
PRA000083	SAA004752	ST014		ZETTAICODE_FY2016_W	4030400	FukSea_15_FY2016	Water	"Sea water"	2016							Asia	Japan	"St-5, Ariake Sea (4), Fukuoka"	33.04916667		130.4077778																8.5	7.2			28	13																					"pH, DO, EC, SS: Annual average; Collected in FY2016(Apr. 1, 2016-Mar. 31, 2017); FukuokaPref_Code: 04010303"	2019/3/5	2019/3/5
PRA000083	SAA004753	ST014		ZETTAICODE_FY2016_W	4030410	FukSea_16_FY2016	Water	"Sea water"	2016							Asia	Japan	"St-6, Ariake Sea (4), Fukuoka"	33.08166667		130.3836111																8.4	7.2			27	21																					"pH, DO, EC, SS: Annual average; Collected in FY2016(Apr. 1, 2016-Mar. 31, 2017); FukuokaPref_Code: 04010304"	2019/3/5	2019/3/5
PRA000083	SAA004754	ST014		ZETTAICODE_FY2016_W	4030420	FukSea_17_FY2016	Water	"Sea water"	2016							Asia	Japan	"St-7, Ariake Sea (4), Fukuoka"	33.11305556		130.3552778																8.3	7.1			24	46																					"pH, DO, EC, SS: Annual average; Collected in FY2016(Apr. 1, 2016-Mar. 31, 2017); FukuokaPref_Code: 04010305"	2019/3/5	2019/3/5
PRA000083	SAA004755	ST014		ZETTAICODE_FY2016_W	4030460	FukSea_18_FY2016	Water	"Sea water"	2016							Asia	Japan	"St-8, Ariake Sea (15), Fukuoka"	33.03055556		130.39																8.5	7.2			28	15																					"pH, DO, EC, SS: Annual average; Collected in FY2016(Apr. 1, 2016-Mar. 31, 2017); FukuokaPref_Code: 04010401"	2019/3/5	2019/3/5
PRA000083	SAA004756	ST014		ZETTAICODE_FY2016_W	4030470	FukSea_19_FY2016	Water	"Sea water"	2016							Asia	Japan	"St-9, Ariake Sea (15), Fukuoka"	33.08666667		130.3477778																8.4	7.3			26	27																					"pH, DO, EC, SS: Annual average; Collected in FY2016(Apr. 1, 2016-Mar. 31, 2017); FukuokaPref_Code: 04010402"	2019/3/5	2019/3/5
PRA000083	SAA004757	ST014		ZETTAICODE_FY2016_W	4030490	FukSea_20_FY2016	Water	"Sea water"	2016							Asia	Japan	"S-1, Buzen Sea, Fukuoka"	33.88083334		131.0222222																8.2	8.4			30	3																					"pH, DO, EC, SS: Annual average; Collected in FY2016(Apr. 1, 2016-Mar. 31, 2017); FukuokaPref_Code: 01010001"	2019/3/5	2019/3/5
PRA000083	SAA004758	ST014		ZETTAICODE_FY2016_W	4030500	FukSea_21_FY2016	Water	"Sea water"	2016							Asia	Japan	"S-2, Buzen Sea, Fukuoka"	33.80277778		131.0302778																8.2	8.1			31	1																					"pH, DO, EC, SS: Annual average; Collected in FY2016(Apr. 1, 2016-Mar. 31, 2017); FukuokaPref_Code: 01010002"	2019/3/5	2019/3/5
PRA000083	SAA004759	ST014		ZETTAICODE_FY2016_W	4030510	FukSea_22_FY2016	Water	"Sea water"	2016							Asia	Japan	"S-3, Buzen Sea, Fukuoka"	33.71638889		131.0777778																8.2	7.9			31	<1																					"pH, DO, EC, SS: Annual average; Collected in FY2016(Apr. 1, 2016-Mar. 31, 2017); FukuokaPref_Code: 01010003"	2019/3/5	2019/3/5
PRA000083	SAA004760	ST014		ZETTAICODE_FY2016_W	4030520	FukSea_23_FY2016	Water	"Sea water"	2016							Asia	Japan	"S-4, Buzen Sea, Fukuoka"	33.64916667		131.1497222																8.2	8			30	<1																					"pH, DO, EC, SS: Annual average; Collected in FY2016(Apr. 1, 2016-Mar. 31, 2017); FukuokaPref_Code: 01010004"	2019/3/5	2019/3/5
PRA000083	SAA004761	ST014		ZETTAICODE_FY2016_W	4030610	FukSea_26_FY2016	Water	"Sea water"	2016							Asia	Japan	"E-2, Hakata Bay (Eastern waters), Fukuoka"	33.64361111		130.3786111																8.2	7.9				4																					"pH, DO, EC, SS: Annual average; Collected in FY2016(Apr. 1, 2016-Mar. 31, 2017); FukuokaPref_Code: 03010102"	2019/3/5	2019/3/5
PRA000083	SAA004762	ST014		ZETTAICODE_FY2016_W	4030770	FukSea_28_FY2016	Water	"Sea water"	2016							Asia	Japan	"C-1, Hakata Bay (Central waters), Fukuoka"	33.62777778		130.3311111																8.2	8.4				3																					"pH, DO, EC, SS: Annual average; Collected in FY2016(Apr. 1, 2016-Mar. 31, 2017); FukuokaPref_Code: 03010201"	2019/3/5	2019/3/5
PRA000083	SAA004763	ST014		ZETTAICODE_FY2016_W	4030780	FukSea_29_FY2016	Water	"Sea water"	2016							Asia	Japan	"C-4, Hakata Bay (Central waters), Fukuoka"	33.60833333		130.3297222																8.2	7.9				3																					"pH, DO, EC, SS: Annual average; Collected in FY2016(Apr. 1, 2016-Mar. 31, 2017); FukuokaPref_Code: 03010203"	2019/3/5	2019/3/5
PRA000083	SAA004764	ST014		ZETTAICODE_FY2016_W	4030790	FukSea_30_FY2016	Water	"Sea water"	2016							Asia	Japan	"C-10, Hakata Bay (Central waters), Fukuoka"	33.61583333		130.365																8.2	7.7				4																					"pH, DO, EC, SS: Annual average; Collected in FY2016(Apr. 1, 2016-Mar. 31, 2017); FukuokaPref_Code: 03010206"	2019/3/5	2019/3/5
PRA000083	SAA004765	ST014		ZETTAICODE_FY2016_W	4030910	FukSea_32_FY2016	Water	"Sea water"	2016							Asia	Japan	"W-3, Hakata Bay (Western waters), Fukuoka"	33.66055556		130.2530556																8.2	7.9				1																					"pH, DO, EC, SS: Annual average; Collected in FY2016(Apr. 1, 2016-Mar. 31, 2017); FukuokaPref_Code: 03010303"	2019/3/5	2019/3/5
PRA000083	SAA004766	ST014		ZETTAICODE_FY2016_W	4031030	FukSea_36_FY2016	Water	"Sea water"	2016							Asia	Japan	"St-10, Port area of Omuta-gawa Riv., Fukuoka"	33.03555556		130.4216667																8.3	6.9			25	18																					"pH, DO, EC, SS: Annual average; Collected in FY2016(Apr. 1, 2016-Mar. 31, 2017); FukuokaPref_Code: 04020001"	2019/3/5	2019/3/5
PRA000083	SAA004767	ST014		ZETTAICODE_FY2016_W	4031050	FukSea_37_FY2016	Water	"Sea water"	2016							Asia	Japan	"St-1 (near the mouth of Onga-gawa Riv.), Chikuzen Sea, Fukuoka"	33.925		130.6377778																8.3	7.7			33	<1																					"pH, DO, EC, SS: Annual average; Collected in FY2016(Apr. 1, 2016-Mar. 31, 2017); FukuokaPref_Code: 02010004"	2019/3/5	2019/3/5
PRA000083	SAA004768	ST014		ZETTAICODE_FY2016_W	4031060	FukSea_38_FY2016	Water	"Sea water"	2016							Asia	Japan	"St-2 (near the mouth of Hakata Bay), Chikuzen Sea, Fukuoka"	33.70333333		130.2444444																8.2	7.8			33	<1																					"pH, DO, EC, SS: Annual average; Collected in FY2016(Apr. 1, 2016-Mar. 31, 2017); FukuokaPref_Code: 02010007"	2019/3/5	2019/3/5
PRA000083	SAA004769	ST014		ZETTAICODE_FY2016_W	4031150	FukSea_45_FY2016	Water	"Sea water"	2016							Asia	Japan	"L7, Ariake Sea (15), Fukuoka"	32.99166667		130.3494444																8.5	7.3			29	9																					"pH, DO, EC, SS: Annual average; Collected in FY2016(Apr. 1, 2016-Mar. 31, 2017); FukuokaPref_Code: 04010403"	2019/3/5	2019/3/5
PRA000083	SAA004770	ST014		ZETTAICODE_FY2016_W	4031160	FukSea_46_FY2016	Water	"Sea water"	2016							Asia	Japan	"K-1, Karatsu Bay, Fukuoka"	33.54138889		130.1391667																8.2	7.7			33	1																					"pH, DO, EC, SS: Annual average; Collected in FY2016(Apr. 1, 2016-Mar. 31, 2017); FukuokaPref_Code: 13010101"	2019/3/5	2019/3/5
PRA000083	SAA004771	ST014		ZETTAICODE_FY2016_W	4031170	FukSea_47_FY2016	Water	"Sea water"	2016							Asia	Japan	"K-2, Karatsu Bay, Fukuoka"	33.53638889		130.0641667																8.3	7.6			33	<1																					"pH, DO, EC, SS: Annual average; Collected in FY2016(Apr. 1, 2016-Mar. 31, 2017); FukuokaPref_Code: 13010102"	2019/3/5	2019/3/5
PRA000083	SAA004772	ST014		ZETTAICODE_FY2016_W	4031180	FukSea_48_FY2016	Water	"Sea water"	2016							Asia	Japan	"K-3, Karatsu Bay, Fukuoka"	33.50305556		130.0408333																8.3	7.7			33	<1																					"pH, DO, EC, SS: Annual average; Collected in FY2016(Apr. 1, 2016-Mar. 31, 2017); FukuokaPref_Code: 13010103"	2019/3/5	2019/3/5
PRA000083	SAA004773	ST015		ZETTAICODE_FY2016_W	4011173	Yabe_1_FY2016	Water	"River water"	2016							Asia	Japan	"Kamiyabegawa-bashi bridge, upstream of Yabe-gawa Riv., Fukuoka"	33.21083333		130.5894444																7.9	9.6	90			2																					"pH, DO, EC, SS: Annual average; Collected in FY2016(Apr. 1, 2016-Mar. 31, 2017); FukuokaPref_Code: 11030107"	2019/3/5	2019/3/5
PRA000083	SAA004774	ST015		ZETTAICODE_FY2016_W	4011185	Yabe_2_FY2016	Water	"River water"	2016							Asia	Japan	"Hoshinogawa-bashi bridge, upstream of Yabe-gawa Riv., Fukuoka"	33.21166667		130.5886111																7.9	9.8	110			5																					"pH, DO, EC, SS: Annual average; Collected in FY2016(Apr. 1, 2016-Mar. 31, 2017); FukuokaPref_Code: 11030601"	2019/3/5	2019/3/5
PRA000083	SAA004775	ST015		ZETTAICODE_FY2016_W	4011209	Yabe_3_FY2016	Water	"River water"	2016							Asia	Japan	"Funagoya, midstream of Yabe-gawa Riv., Fukuoka"	33.18222222		130.5047222																7.4	9.6	11			4																					"pH, DO, EC, SS: Annual average; Collected in FY2016(Apr. 1, 2016-Mar. 31, 2017); FukuokaPref_Code: 11030103"	2019/3/5	2019/3/5
PRA000083	SAA004776	ST015		ZETTAICODE_FY2016_W	4011239	Yabe_5_FY2016	Water	"River water"	2016							Asia	Japan	"Urashima-bashi bridge, downstream of Yabe-gawa Riv., Fukuoka"	33.12111111		130.4391667																7.5	8.3	640			26																					"pH, DO, EC, SS: Annual average; Collected in FY2016(Apr. 1, 2016-Mar. 31, 2017); FukuokaPref_Code: 11030101"	2019/3/5	2019/3/5
PRA000083	SAA004777	ST015		ZETTAICODE_FY2016_W	4011263	Yabe_6_FY2016	Water	"River water"	2016							Asia	Japan	"Nakadori-bashi bridge, Hebaru-gawa Riv., Fukuoka"	33.20083333		130.5797222																7.5	9.4	110			2																					"pH, DO, EC, SS: Annual average; Collected in FY2016(Apr. 1, 2016-Mar. 31, 2017); FukuokaPref_Code: 11030501"	2019/3/5	2019/3/5
PRA000083	SAA004778	ST015		ZETTAICODE_FY2016_W	4011296	Yabe_7_FY2016	Water	"River water"	2016							Asia	Japan	"Yamashita-bashi bridge, Shiraki-gawa Riv., Fukuoka"	33.18138889		130.5483333																7.6	9.5	130			2																					"pH, DO, EC, SS: Annual average; Collected in FY2016(Apr. 1, 2016-Mar. 31, 2017); FukuokaPref_Code: 11030401"	2019/3/5	2019/3/5
PRA000083	SAA004779	ST015		ZETTAICODE_FY2016_W	4011317	Yabe_8_FY2016	Water	"River water"	2016							Asia	Japan	"Koga-bashi bridge, upstream of Hae-gawa Riv., Fukuoka"	33.11805556		130.4691667																7.4	8.4	23			19																					"pH, DO, EC, SS: Annual average; Collected in FY2016(Apr. 1, 2016-Mar. 31, 2017); FukuokaPref_Code: 11030302"	2019/3/5	2019/3/5
PRA000083	SAA004780	ST015		ZETTAICODE_FY2016_W	4011365	Yabe_9_FY2016	Water	"River water"	2016							Asia	Japan	"Sangai-seki weir, Kusuda-gawa Riv., Fukuoka"	33.21083333		130.5894444																8	9	630			19																					"pH, DO, EC, SS: Annual average; Collected in FY2016(Apr. 1, 2016-Mar. 31, 2017); FukuokaPref_Code: 11030201"	2019/3/5	2019/3/5
PRA000083	SAA004781	ST015		ZETTAICODE_FY2016_W	4011392	Yabe_10_FY2016	Water	"River water"	2016							Asia	Japan	"Isodori-seki weir, upstream of Okinohata-gawa Riv., Fukuoka"	33.17638889		130.4313889																7.5	9.1	110			5																					"pH, DO, EC, SS: Annual average; Collected in FY2016(Apr. 1, 2016-Mar. 31, 2017); FukuokaPref_Code: 11010102"	2019/3/5	2019/3/5
PRA000083	SAA004782	ST015		ZETTAICODE_FY2016_W	4011419	Yabe_11_FY2016	Water	"River water"	2016							Asia	Japan	"Miake-bashi bridge, downstream of Okinohata-gawa Riv., Fukuoka"	33.15888889		130.3902778																7.6	8	660			660																					"pH, DO, EC, SS: Annual average; Collected in FY2016(Apr. 1, 2016-Mar. 31, 2017); FukuokaPref_Code: 11010101"	2019/3/5	2019/3/5
PRA000083	SAA004783	ST015		ZETTAICODE_FY2016_W	4011446	Yabe_12_FY2016	Water	"River water"	2016							Asia	Japan	"Seiten-ohashi bridge, Shiotsuka-gawa Riv., Fukuoka"	33.15722222		130.4186111																7.7	8.6	140			34																					"pH, DO, EC, SS: Annual average; Collected in FY2016(Apr. 1, 2016-Mar. 31, 2017); FukuokaPref_Code: 11020101"	2019/3/5	2019/3/5
PRA000083	SAA004784	ST015		ZETTAICODE_FY2016_W	4014497	Yabe_13_FY2016	Water	"River water"	2016							Asia	Japan	"Choji-bashi bridge, Hae-gawa Riv., Fukuoka"	33.11527778		130.4519444																7.5	7.8	240			57																					"pH, DO, EC, SS: Annual average; Collected in FY2016(Apr. 1, 2016-Mar. 31, 2017); FukuokaPref_Code: 11030303"	2019/3/5	2019/3/5
PRA000084	SAA004785	ST014				St1-UW	Water	"Sea water"	2004							Asia	Japan	"Tokyo Bay"	35.6172		139.9667																					15	"1.10 (sampling depth) / 11"																				"Collected quarterly during 2004-2006 (Feb. 19, May 26, Aug. 22, Oct. 28, 2004 and Feb.24, May 12, Aug. 17, Oct. 26, 2005 and Feb.22, May 17, Aug. 16, Nov. 26, 2006);"	2019/3/11	2019/3/11
PRA000084	SAA004786	ST014				St1-LW	Water	"Sea water"	2004							Asia	Japan	"Tokyo Bay"	35.6172		139.9667																					7.4	"9.90 (sampling depth) / 11"																				"Collected quarterly during 2004-2006 (Feb. 19, May 26, Aug. 22, Oct. 28, 2004 and Feb.24, May 12, Aug. 17, Oct. 26, 2005 and Feb.22, May 17, Aug. 16, Nov. 26, 2006);"	2019/3/11	2019/3/11
PRA000084	SAA004788	ST014				St2-UW	Water	"Sea water"	2004							Asia	Japan	"Tokyo Bay"	35.5975		140.0344																					8.3	"1.20 (sampling depth) / 12"																				"Collected quarterly during 2004-2006 (Feb. 19, May 26, Aug. 22, Oct. 28, 2004 and Feb.24, May 12, Aug. 17, Oct. 26, 2005 and Feb.22, May 17, Aug. 16, Nov. 26, 2006);"	2019/3/11	2019/3/11
PRA000084	SAA004789	ST014				St2-LW	Water	"Sea water"	2004							Asia	Japan	"Tokyo Bay"	35.5975		140.0344																					8.2	"10.80 (sampling depth) / 12"																				"Collected quarterly during 2004-2006 (Feb. 19, May 26, Aug. 22, Oct. 28, 2004 and Feb.24, May 12, Aug. 17, Oct. 26, 2005 and Feb.22, May 17, Aug. 16, Nov. 26, 2006);"	2019/3/11	2019/3/11
PRA000084	SAA004791	ST014				St3-UW	Water	"Sea water"	2004							Asia	Japan	"Tokyo Bay"	35.59		139.8467																					11	"1.20  (samplling depth) / 12"																				"Collected quarterly during 2004-2006 (Feb. 19, May 26, Aug. 22, Oct. 28, 2004 and Feb.24, May 12, Aug. 17, Oct. 26, 2005 and Feb.22, May 17, Aug. 16, Nov. 26, 2006);"	2019/3/11	2019/3/11
PRA000084	SAA004792	ST014				St3-LW	Water	"Sea water"	2004							Asia	Japan	"Tokyo Bay"	35.59		139.8467																					8.2	"10.80 (sampling depth) / 12"																				"Collected quarterly during 2004-2006 (Feb. 19, May 26, Aug. 22, Oct. 28, 2004 and Feb.24, May 12, Aug. 17, Oct. 26, 2005 and Feb.22, May 17, Aug. 16, Nov. 26, 2006);"	2019/3/11	2019/3/11
PRA000084	SAA004794	ST014				St4-UW	Water	"Sea water"	2004							Asia	Japan	"Tokyo Bay"	35.5794		139.8897																					8.5	"1.40 (sampling depth) / 14"																				"Collected quarterly during 2004-2006 (Feb. 19, May 26, Aug. 22, Oct. 28, 2004 and Feb.24, May 12, Aug. 17, Oct. 26, 2005 and Feb.22, May 17, Aug. 16, Nov. 26, 2006);"	2019/3/11	2019/3/11
PRA000084	SAA004795	ST014				St4-LW	Water	"Sea water"	2004							Asia	Japan	"Tokyo Bay"	35.5794		139.8897																					7.4	"12.60 (sampling depth) / 14"																				"Collected quarterly during 2004-2006 (Feb. 19, May 26, Aug. 22, Oct. 28, 2004 and Feb.24, May 12, Aug. 17, Oct. 26, 2005 and Feb.22, May 17, Aug. 16, Nov. 26, 2006);"	2019/3/11	2019/3/11
PRA000084	SAA004797	ST014				St5-UW	Water	"Sea water"	2004							Asia	Japan	"Tokyo Bay"	35.5644		139.9431																					6.6	"1.60 (sampling depth) / 16"																				"Collected quarterly during 2004-2006 (Feb. 19, May 26, Aug. 22, Oct. 28, 2004 and Feb.24, May 12, Aug. 17, Oct. 26, 2005 and Feb.22, May 17, Aug. 16, Nov. 26, 2006);"	2019/3/11	2019/3/11
PRA000084	SAA004798	ST014				St5-LW	Water	"Sea water"	2004							Asia	Japan	"Tokyo Bay"	35.5644		139.9431																					6.5	"14.40 (sampling depth) / 16"																				"Collected quarterly during 2004-2006 (Feb. 19, May 26, Aug. 22, Oct. 28, 2004 and Feb.24, May 12, Aug. 17, Oct. 26, 2005 and Feb.22, May 17, Aug. 16, Nov. 26, 2006);"	2019/3/11	2019/3/11
PRA000084	SAA004800	ST014				St6-UW	Water	"Sea water"	2004							Asia	Japan	"Tokyo Bay"	35.5481		139.9931																					7.2	"1.70 (sampling depth) / 17"																				"Collected quarterly during 2004-2006 (Feb. 19, May 26, Aug. 22, Oct. 28, 2004 and Feb.24, May 12, Aug. 17, Oct. 26, 2005 and Feb.22, May 17, Aug. 16, Nov. 26, 2006);"	2019/3/11	2019/3/11
PRA000084	SAA004801	ST014				St6-LW	Water	"Sea water"	2004							Asia	Japan	"Tokyo Bay"	35.5481		139.9931																					8	"15.30 (sampling depth) / 17"																				"Collected quarterly during 2004-2006 (Feb. 19, May 26, Aug. 22, Oct. 28, 2004 and Feb.24, May 12, Aug. 17, Oct. 26, 2005 and Feb.22, May 17, Aug. 16, Nov. 26, 2006);"	2019/3/11	2019/3/11
PRA000084	SAA004803	ST014				St7-UW	Water	"Sea water"	2004							Asia	Japan	"Tokyo Bay"	35.5478		139.8264																					11	"1.90 (sampling depth) / 19"																				"Collected quarterly during 2004-2006 (Feb. 19, May 26, Aug. 22, Oct. 28, 2004 and Feb.24, May 12, Aug. 17, Oct. 26, 2005 and Feb.22, May 17, Aug. 16, Nov. 26, 2006);"	2019/3/11	2019/3/11
PRA000084	SAA004804	ST014				St7-LW	Water	"Sea water"	2004							Asia	Japan	"Tokyo Bay"	35.5478		139.8264																					8.6	"17.10 (sampling depth) / 19"																				"Collected quarterly during 2004-2006 (Feb. 19, May 26, Aug. 22, Oct. 28, 2004 and Feb.24, May 12, Aug. 17, Oct. 26, 2005 and Feb.22, May 17, Aug. 16, Nov. 26, 2006);"	2019/3/11	2019/3/11
PRA000084	SAA004806	ST014				St8-UW	Water	"Sea water"	2004							Asia	Japan	"Tokyo Bay"	35.5358		139.8581																					10	"2.10 (sampling depth) / 21"																				"Collected quarterly during 2004-2006 (Feb. 19, May 26, Aug. 22, Oct. 28, 2004 and Feb.24, May 12, Aug. 17, Oct. 26, 2005 and Feb.22, May 17, Aug. 16, Nov. 26, 2006);"	2019/3/11	2019/3/11
PRA000084	SAA004807	ST014				St8-LW	Water	"Sea water"	2004							Asia	Japan	"Tokyo Bay"	35.5358		139.8581																					7.8	"18.90 (sampling depth) / 21"																				"Collected quarterly during 2004-2006 (Feb. 19, May 26, Aug. 22, Oct. 28, 2004 and Feb.24, May 12, Aug. 17, Oct. 26, 2005 and Feb.22, May 17, Aug. 16, Nov. 26, 2006);"	2019/3/11	2019/3/11
PRA000084	SAA004809	ST014				St9-UW	Water	"Sea water"	2004							Asia	Japan	"Tokyo Bay"	35.525		139.8953																					9.1	"2.20 (sampling depth) / 22"																				"Collected quarterly during 2004-2006 (Feb. 19, May 26, Aug. 22, Oct. 28, 2004 and Feb.24, May 12, Aug. 17, Oct. 26, 2005 and Feb.22, May 17, Aug. 16, Nov. 26, 2006);"	2019/3/11	2019/3/11
PRA000084	SAA004810	ST014				St9-LW	Water	"Sea water"	2004							Asia	Japan	"Tokyo Bay"	35.525		139.8953																					7.3	"19.80 (sampling depth) / 22"																				"Collected quarterly during 2004-2006 (Feb. 19, May 26, Aug. 22, Oct. 28, 2004 and Feb.24, May 12, Aug. 17, Oct. 26, 2005 and Feb.22, May 17, Aug. 16, Nov. 26, 2006);"	2019/3/11	2019/3/11
PRA000084	SAA004812	ST014				St10-UW	Water	"Sea water"	2004							Asia	Japan	"Tokyo Bay"	35.5033		139.9531																					8.1	"2.00 (sampling depth) / 20"																				"Collected quarterly during 2004-2006 (Feb. 19, May 26, Aug. 22, Oct. 28, 2004 and Feb.24, May 12, Aug. 17, Oct. 26, 2005 and Feb.22, May 17, Aug. 16, Nov. 26, 2006);"	2019/3/11	2019/3/11
PRA000084	SAA004813	ST014				St10-LW	Water	"Sea water"	2004							Asia	Japan	"Tokyo Bay"	35.5033		139.9531																					9.1	"18.00 (sampling depth) / 20"																				"Collected quarterly during 2004-2006 (Feb. 19, May 26, Aug. 22, Oct. 28, 2004 and Feb.24, May 12, Aug. 17, Oct. 26, 2005 and Feb.22, May 17, Aug. 16, Nov. 26, 2006);"	2019/3/11	2019/3/11
PRA000084	SAA004815	ST014				St11-UW	Water	"Sea water"	2004							Asia	Japan	"Tokyo Bay"	35.4658		139.7775																					8	"3.20 (sampling depth) / 32"																				"Collected quarterly during 2004-2006 (Feb. 19, May 26, Aug. 22, Oct. 28, 2004 and Feb.24, May 12, Aug. 17, Oct. 26, 2005 and Feb.22, May 17, Aug. 16, Nov. 26, 2006);"	2019/3/11	2019/3/11
PRA000084	SAA004816	ST014				St11-LW	Water	"Sea water"	2004							Asia	Japan	"Tokyo Bay"	35.4658		139.7775																					7.5	"28.80 (sampling depth) / 32"																				"Collected quarterly during 2004-2006 (Feb. 19, May 26, Aug. 22, Oct. 28, 2004 and Feb.24, May 12, Aug. 17, Oct. 26, 2005 and Feb.22, May 17, Aug. 16, Nov. 26, 2006);"	2019/3/11	2019/3/11
PRA000084	SAA004818	ST014				St12-UW	Water	"Sea water"	2004							Asia	Japan	"Tokyo Bay"	35.4639		139.8367																					8.1	"3.10 (sampling depth) / 31"																				"Collected quarterly during 2004-2006 (Feb. 19, May 26, Aug. 22, Oct. 28, 2004 and Feb.24, May 12, Aug. 17, Oct. 26, 2005 and Feb.22, May 17, Aug. 16, Nov. 26, 2006); Collected at 35.4603°N, 139.8267°E in 2004 and February 2005."	2019/3/11	2019/3/11
PRA000084	SAA004819	ST014				St12-LW	Water	"Sea water"	2004							Asia	Japan	"Tokyo Bay"	35.4639		139.8367																					8.4	"27.90 (sampling depth) / 31"																				"Collected quarterly during 2004-2006 (Feb. 19, May 26, Aug. 22, Oct. 28, 2004 and Feb.24, May 12, Aug. 17, Oct. 26, 2005 and Feb.22, May 17, Aug. 16, Nov. 26, 2006); Collected at 35.4603°N, 139.8267°E in 2004 and February 2005."	2019/3/11	2019/3/11
PRA000084	SAA004821	ST014				St13-UW	Water	"Sea water"	2004							Asia	Japan	"Tokyo Bay"	35.45		139.8725																					8.4	"2.30 (sampling depth) / 23"																				"Collected quarterly during 2004-2006 (Feb. 19, May 26, Aug. 22, Oct. 28, 2004 and Feb.24, May 12, Aug. 17, Oct. 26, 2005 and Feb.22, May 17, Aug. 16, Nov. 26, 2006);"	2019/3/11	2019/3/11
PRA000084	SAA004822	ST014				St13-LW	Water	"Sea water"	2004							Asia	Japan	"Tokyo Bay"	35.45		139.8725																					7.9	"20.70 (sampling depth) / 23"																				"Collected quarterly during 2004-2006 (Feb. 19, May 26, Aug. 22, Oct. 28, 2004 and Feb.24, May 12, Aug. 17, Oct. 26, 2005 and Feb.22, May 17, Aug. 16, Nov. 26, 2006);"	2019/3/11	2019/3/11
PRA000084	SAA004824	ST014				St14-UW	Water	"Sea water"	2004							Asia	Japan	"Tokyo Bay"	35.4158		139.7183																					8.2	"3.70 (sampling depth) / 37"																				"Collected quarterly during 2004-2006 (Feb. 19, May 26, Aug. 22, Oct. 28, 2004 and Feb.24, May 12, Aug. 17, Oct. 26, 2005 and Feb.22, May 17, Aug. 16, Nov. 26, 2006);"	2019/3/11	2019/3/11
PRA000084	SAA004825	ST014				St14-LW	Water	"Sea water"	2004							Asia	Japan	"Tokyo Bay"	35.4158		139.7183																					10	"33.30 (sampling depth) / 37"																				"Collected quarterly during 2004-2006 (Feb. 19, May 26, Aug. 22, Oct. 28, 2004 and Feb.24, May 12, Aug. 17, Oct. 26, 2005 and Feb.22, May 17, Aug. 16, Nov. 26, 2006);"	2019/3/11	2019/3/11
PRA000084	SAA004827	ST014				St15-UW	Water	"Sea water"	2004							Asia	Japan	"Tokyo Bay"	35.4083		139.7614																					8.1	"1.90 (sampling depth) / 19"																				"Collected quarterly during 2004-2006 (Feb. 19, May 26, Aug. 22, Oct. 28, 2004 and Feb.24, May 12, Aug. 17, Oct. 26, 2005 and Feb.22, May 17, Aug. 16, Nov. 26, 2006);"	2019/3/11	2019/3/11
PRA000084	SAA004828	ST014				St15-LW	Water	"Sea water"	2004							Asia	Japan	"Tokyo Bay"	35.4083		139.7614																					6.9	"17.10 (sampling depth) / 19"																				"Collected quarterly during 2004-2006 (Feb. 19, May 26, Aug. 22, Oct. 28, 2004 and Feb.24, May 12, Aug. 17, Oct. 26, 2005 and Feb.22, May 17, Aug. 16, Nov. 26, 2006);"	2019/3/11	2019/3/11
PRA000084	SAA004830	ST014				St16-UW	Water	"Sea water"	2004							Asia	Japan	"Tokyo Bay"	35.3856		139.815																					6.9	"1.40 (sampling depth) / 14"																				"Collected quarterly during 2004-2006 (Feb. 19, May 26, Aug. 22, Oct. 28, 2004 and Feb.24, May 12, Aug. 17, Oct. 26, 2005 and Feb.22, May 17, Aug. 16, Nov. 26, 2006);"	2019/3/11	2019/3/11
PRA000084	SAA004831	ST014				St16-LW	Water	"Sea water"	2004							Asia	Japan	"Tokyo Bay"	35.3856		139.815																					7	"12.60 (sampling depth) / 14"																				"Collected quarterly during 2004-2006 (Feb. 19, May 26, Aug. 22, Oct. 28, 2004 and Feb.24, May 12, Aug. 17, Oct. 26, 2005 and Feb.22, May 17, Aug. 16, Nov. 26, 2006);"	2019/3/11	2019/3/11
PRA000084	SAA004833	ST014				St17-UW	Water	"Sea water"	2004							Asia	Japan	"Tokyo Bay"	35.3528		139.6881																					6.8	"4.40 (sampling depth) / 44"																				"Collected quarterly during 2004-2006 (Feb. 19, May 26, Aug. 22, Oct. 28, 2004 and Feb.24, May 12, Aug. 17, Oct. 26, 2005 and Feb.22, May 17, Aug. 16, Nov. 26, 2006);"	2019/3/11	2019/3/11
PRA000084	SAA004834	ST014				St17-LW	Water	"Sea water"	2004							Asia	Japan	"Tokyo Bay"	35.3528		139.6881																					11	"39.60 (sampling depth) / 44"																				"Collected quarterly during 2004-2006 (Feb. 19, May 26, Aug. 22, Oct. 28, 2004 and Feb.24, May 12, Aug. 17, Oct. 26, 2005 and Feb.22, May 17, Aug. 16, Nov. 26, 2006);"	2019/3/11	2019/3/11
PRA000084	SAA004836	ST014				St18-UW	Water	"Sea water"	2004							Asia	Japan	"Tokyo Bay"	35.3486		139.7253																					7.1	"2.60 (sampling depth) / 26"																				"Collected quarterly during 2004-2006 (Feb. 19, May 26, Aug. 22, Oct. 28, 2004 and Feb.24, May 12, Aug. 17, Oct. 26, 2005 and Feb.22, May 17, Aug. 16, Nov. 26, 2006);"	2019/3/11	2019/3/11
PRA000084	SAA004837	ST014				St18-LW	Water	"Sea water"	2004							Asia	Japan	"Tokyo Bay"	35.3486		139.7253																					6.5	"23.40 (sampling depth) / 26"																				"Collected quarterly during 2004-2006 (Feb. 19, May 26, Aug. 22, Oct. 28, 2004 and Feb.24, May 12, Aug. 17, Oct. 26, 2005 and Feb.22, May 17, Aug. 16, Nov. 26, 2006);"	2019/3/11	2019/3/11
PRA000084	SAA004839	ST014				St19-UW	Water	"Sea water"	2004							Asia	Japan	"Tokyo Bay"	35.3433		139.7753																					7.6	"1.40 (sampling depth) / 14"																				"Collected quarterly during 2004-2006 (Feb. 19, May 26, Aug. 22, Oct. 28, 2004 and Feb.24, May 12, Aug. 17, Oct. 26, 2005 and Feb.22, May 17, Aug. 16, Nov. 26, 2006); Collected at 35.3389°N in 2004 and February 2005."	2019/3/11	2019/3/11
PRA000084	SAA004840	ST014				St19-LW	Water	"Sea water"	2004							Asia	Japan	"Tokyo Bay"	35.3433		139.7753																					8.6	"12.60 (sampling depth) / 14"																				"Collected quarterly during 2004-2006 (Feb. 19, May 26, Aug. 22, Oct. 28, 2004 and Feb.24, May 12, Aug. 17, Oct. 26, 2005 and Feb.22, May 17, Aug. 16, Nov. 26, 2006); Collected at 35.3389°N in 2004 and February 2005."	2019/3/11	2019/3/11
PRA000084	SAA004842	ST014				St20-UW	Water	"Sea water"	2004							Asia	Japan	"Tokyo Bay"	35.3103		139.7167																					8	"5.20 (sampling depth) / 52"																				"Collected quarterly during 2004-2006 (Feb. 19, May 26, Aug. 22, Oct. 28, 2004 and Feb.24, May 12, Aug. 17, Oct. 26, 2005 and Feb.22, May 17, Aug. 16, Nov. 26, 2006); Collected at 139.7081°E in 2004 and February 2005."	2019/3/11	2019/3/11
PRA000084	SAA004843	ST014				St20-LW	Water	"Sea water"	2004							Asia	Japan	"Tokyo Bay"	35.3103		139.7167																					6.2	"46.80 (sampling depth) / 52"																				"Collected quarterly during 2004-2006 (Feb. 19, May 26, Aug. 22, Oct. 28, 2004 and Feb.24, May 12, Aug. 17, Oct. 26, 2005 and Feb.22, May 17, Aug. 16, Nov. 26, 2006); Collected at 139.7081°E in 2004 and February 2005."	2019/3/11	2019/3/11
PRA000087	SAA004962	ST019				STP-1_Tokyo	Water	"Sewage treatment plant (STP) effluent"	2001	8						Asia	Japan	Tokyo	35.656784		139.508419																																											2019/4/12	2019/4/12
PRA000087	SAA004963	ST019				STP-2_Ibaraki	Water	"Sewage treatment plant (STP) effluent"	2001	10						Asia	Japan	Ibaraki	36.08735		140.215856																																											2019/4/12	2019/4/12
PRA000087	SAA004964	ST015				TamaRiv_No1	Water	"River water"	2001	8						Asia	Japan	"Hara-bashi bridge, Tama Riv."	35.643881		139.52497																																											2019/4/12	2019/4/12
PRA000087	SAA004965	ST015				TamaRiv_No2	Water	"River water"	2001	8						Asia	Japan	"Koremasa-bashi bridge, Tama Riv."	35.654158		139.487984																																											2019/4/12	2019/4/12
PRA000087	SAA004966	ST015				TamaRiv_No3	Water	"River water"	2001	8						Asia	Japan	"Tamagawa Ohashi bridge, Tama Riv."	35.555805		139.69595																																											2019/4/12	2019/4/12
PRA000087	SAA004967	ST015				Kasumigaura_St-7	Water	"Lake water"	2001	7						Asia	Japan	"Lake Kasumigaura"	35.983171	36.086075	140.21963	140.379563																																										2019/4/12	2019/4/12
PRA000087	SAA004968	ST015				Kasumigaura_St-8	Water	"Lake water"	2001	7						Asia	Japan	"Lake Kasumigaura"	35.983171	36.086075	140.21963	140.379563																																										2019/4/12	2019/4/12
PRA000087	SAA004969	ST015				Kasumigaura_St-10	Water	"Lake water"	2001	7						Asia	Japan	"Lake Kasumigaura"	35.983171	36.086075	140.21963	140.379563																																										2019/4/12	2019/4/12
PRA000087	SAA004970	ST015				Kasumigaura_St-13	Water	"Lake water"	2001	7						Asia	Japan	"Lake Kasumigaura"	35.983171	36.086075	140.21963	140.379563																																										2019/4/12	2019/4/12
PRA000087	SAA004971	ST015				Kasumigaura_St-14	Water	"Lake water"	2001	7						Asia	Japan	"Lake Kasumigaura"	35.983171	36.086075	140.21963	140.379563																																										2019/4/12	2019/4/12
PRA000089	SAA004978	ST015		ZETTAICODE_FY2017_W	2710440	W_2710440_20170508	Water	"River water"	2017	5	8					Asia	Japan	"Ishikawa-bashi bridge, Ishi-kawa Riv., Osaka"	34.57		135.6219445																																											2019/5/31	2019/5/31
PRA000089	SAA004979	ST015		ZETTAICODE_FY2017_W	2710440	W_2710440_20170515	Water	"River water"	2017	5	15					Asia	Japan	"Ishikawa-bashi bridge, Ishi-kawa Riv., Osaka"	34.57		135.6219445																																											2019/5/31	2019/5/31
PRA000089	SAA004980	ST015		ZETTAICODE_FY2017_W	2710440	W_2710440_20170517	Water	"River water"	2017	5	17					Asia	Japan	"Ishikawa-bashi bridge, Ishi-kawa Riv., Osaka"	34.57		135.6219445																																											2019/5/31	2019/5/31
PRA000089	SAA004981	ST015		ZETTAICODE_FY2017_W	2710440	W_2710440_20170519	Water	"River water"	2017	5	19					Asia	Japan	"Ishikawa-bashi bridge, Ishi-kawa Riv., Osaka"	34.57		135.6219445																																											2019/5/31	2019/5/31
PRA000089	SAA004982	ST015		ZETTAICODE_FY2017_W	2710440	W_2710440_20170522	Water	"River water"	2017	5	22					Asia	Japan	"Ishikawa-bashi bridge, Ishi-kawa Riv., Osaka"	34.57		135.6219445																																											2019/5/31	2019/5/31
PRA000089	SAA004983	ST015		ZETTAICODE_FY2017_W	2710440	W_2710440_20170524	Water	"River water"	2017	5	24					Asia	Japan	"Ishikawa-bashi bridge, Ishi-kawa Riv., Osaka"	34.57		135.6219445																																										"Start of rice-planting season"	2019/5/31	2019/5/31
PRA000089	SAA004984	ST015		ZETTAICODE_FY2017_W	2710440	W_2710440_20170525	Water	"River water"	2017	5	25					Asia	Japan	"Ishikawa-bashi bridge, Ishi-kawa Riv., Osaka"	34.57		135.6219445																																										"Rice-planting season"	2019/5/31	2019/5/31
PRA000089	SAA004985	ST015		ZETTAICODE_FY2017_W	2710440	W_2710440_20170526	Water	"River water"	2017	5	26					Asia	Japan	"Ishikawa-bashi bridge, Ishi-kawa Riv., Osaka"	34.57		135.6219445																																										"Rice-planting season"	2019/5/31	2019/5/31
PRA000089	SAA004986	ST015		ZETTAICODE_FY2017_W	2710440	W_2710440_20170529	Water	"River water"	2017	5	29					Asia	Japan	"Ishikawa-bashi bridge, Ishi-kawa Riv., Osaka"	34.57		135.6219445																																										"Rice-planting season"	2019/5/31	2019/5/31
PRA000089	SAA004987	ST015		ZETTAICODE_FY2017_W	2710440	W_2710440_20170531	Water	"River water"	2017	5	31					Asia	Japan	"Ishikawa-bashi bridge, Ishi-kawa Riv., Osaka"	34.57		135.6219445																																										"Rice-planting season"	2019/5/31	2019/5/31
PRA000089	SAA004988	ST015		ZETTAICODE_FY2017_W	2710440	W_2710440_20170602	Water	"River water"	2017	6	2					Asia	Japan	"Ishikawa-bashi bridge, Ishi-kawa Riv., Osaka"	34.57		135.6219445																																										"Rice-planting season"	2019/5/31	2019/5/31
PRA000089	SAA004989	ST015		ZETTAICODE_FY2017_W	2710440	W_2710440_20170605	Water	"River water"	2017	6	5					Asia	Japan	"Ishikawa-bashi bridge, Ishi-kawa Riv., Osaka"	34.57		135.6219445																																										"Rice-planting season"	2019/5/31	2019/5/31
PRA000089	SAA004990	ST015		ZETTAICODE_FY2017_W	2710440	W_2710440_20170607	Water	"River water"	2017	6	7					Asia	Japan	"Ishikawa-bashi bridge, Ishi-kawa Riv., Osaka"	34.57		135.6219445																																										"Rice-planting season"	2019/5/31	2019/5/31
PRA000089	SAA004991	ST015		ZETTAICODE_FY2017_W	2710440	W_2710440_20170608	Water	"River water"	2017	6	8					Asia	Japan	"Ishikawa-bashi bridge, Ishi-kawa Riv., Osaka"	34.57		135.6219445																																										"Rice-planting season"	2019/5/31	2019/5/31
PRA000089	SAA004992	ST015		ZETTAICODE_FY2017_W	2710440	W_2710440_20170609	Water	"River water"	2017	6	9					Asia	Japan	"Ishikawa-bashi bridge, Ishi-kawa Riv., Osaka"	34.57		135.6219445																																										"Rice-planting season"	2019/5/31	2019/5/31
PRA000089	SAA004993	ST015		ZETTAICODE_FY2017_W	2710440	W_2710440_20170612	Water	"River water"	2017	6	12					Asia	Japan	"Ishikawa-bashi bridge, Ishi-kawa Riv., Osaka"	34.57		135.6219445																																										"Rice-planting season (Highest)"	2019/5/31	2019/5/31
PRA000089	SAA004994	ST015		ZETTAICODE_FY2017_W	2710440	W_2710440_20170614	Water	"River water"	2017	6	14					Asia	Japan	"Ishikawa-bashi bridge, Ishi-kawa Riv., Osaka"	34.57		135.6219445																																										"Rice-planting season"	2019/5/31	2019/5/31
PRA000089	SAA004995	ST015		ZETTAICODE_FY2017_W	2710440	W_2710440_20170616	Water	"River water"	2017	6	16					Asia	Japan	"Ishikawa-bashi bridge, Ishi-kawa Riv., Osaka"	34.57		135.6219445																																										"Rice-planting season"	2019/5/31	2019/5/31
PRA000089	SAA004996	ST015		ZETTAICODE_FY2017_W	2710440	W_2710440_20170619	Water	"River water"	2017	6	19					Asia	Japan	"Ishikawa-bashi bridge, Ishi-kawa Riv., Osaka"	34.57		135.6219445																																										"Rice-planting season"	2019/5/31	2019/5/31
PRA000089	SAA004997	ST015		ZETTAICODE_FY2017_W	2710440	W_2710440_20170621	Water	"River water"	2017	6	21					Asia	Japan	"Ishikawa-bashi bridge, Ishi-kawa Riv., Osaka"	34.57		135.6219445																																										"Rice-planting season"	2019/5/31	2019/5/31
PRA000089	SAA004998	ST015		ZETTAICODE_FY2017_W	2710440	W_2710440_20170623	Water	"River water"	2017	6	23					Asia	Japan	"Ishikawa-bashi bridge, Ishi-kawa Riv., Osaka"	34.57		135.6219445																																										"Rice-planting season"	2019/5/31	2019/5/31
PRA000089	SAA004999	ST015		ZETTAICODE_FY2017_W	2710440	W_2710440_20170626	Water	"River water"	2017	6	26					Asia	Japan	"Ishikawa-bashi bridge, Ishi-kawa Riv., Osaka"	34.57		135.6219445																																										"End of rice-planting season"	2019/5/31	2019/5/31
PRA000089	SAA005000	ST015		ZETTAICODE_FY2017_W	2710440	W_2710440_20170627	Water	"River water"	2017	6	27					Asia	Japan	"Ishikawa-bashi bridge, Ishi-kawa Riv., Osaka"	34.57		135.6219445																																											2019/5/31	2019/5/31
PRA000089	SAA005001	ST015		ZETTAICODE_FY2017_W	2710440	W_2710440_20170630	Water	"River water"	2017	6	30					Asia	Japan	"Ishikawa-bashi bridge, Ishi-kawa Riv., Osaka"	34.57		135.6219445																																											2019/5/31	2019/5/31
PRA000089	SAA005002	ST015		ZETTAICODE_FY2017_W	2710440	W_2710440_20170703	Water	"River water"	2017	7	3					Asia	Japan	"Ishikawa-bashi bridge, Ishi-kawa Riv., Osaka"	34.57		135.6219445																																											2019/5/31	2019/5/31
PRA000089	SAA005003	ST015		ZETTAICODE_FY2017_W	2710440	W_2710440_20170705	Water	"River water"	2017	7	5					Asia	Japan	"Ishikawa-bashi bridge, Ishi-kawa Riv., Osaka"	34.57		135.6219445																																											2019/5/31	2019/5/31
PRA000089	SAA005004	ST015		ZETTAICODE_FY2017_W	2710440	W_2710440_20170707	Water	"River water"	2017	7	7					Asia	Japan	"Ishikawa-bashi bridge, Ishi-kawa Riv., Osaka"	34.57		135.6219445																																											2019/5/31	2019/5/31
PRA000089	SAA005005	ST015		ZETTAICODE_FY2017_W	2710440	W_2710440_20170710	Water	"River water"	2017	7	10					Asia	Japan	"Ishikawa-bashi bridge, Ishi-kawa Riv., Osaka"	34.57		135.6219445																																											2019/5/31	2019/5/31
PRA000089	SAA005006	ST015		ZETTAICODE_FY2017_W	2710440	W_2710440_20170712	Water	"River water"	2017	7	12					Asia	Japan	"Ishikawa-bashi bridge, Ishi-kawa Riv., Osaka"	34.57		135.6219445																																											2019/5/31	2019/5/31
PRA000089	SAA005007	ST015		ZETTAICODE_FY2017_W	2710440	W_2710440_20170714	Water	"River water"	2017	7	14					Asia	Japan	"Ishikawa-bashi bridge, Ishi-kawa Riv., Osaka"	34.57		135.6219445																																											2019/5/31	2019/5/31
PRA000089	SAA005008	ST015		ZETTAICODE_FY2017_W	2710440	W_2710440_20170718	Water	"River water"	2017	7	18					Asia	Japan	"Ishikawa-bashi bridge, Ishi-kawa Riv., Osaka"	34.57		135.6219445																																											2019/5/31	2019/5/31
PRA000089	SAA005009	ST015		ZETTAICODE_FY2017_W	2710440	W_2710440_20170719	Water	"River water"	2017	7	19					Asia	Japan	"Ishikawa-bashi bridge, Ishi-kawa Riv., Osaka"	34.57		135.6219445																																											2019/5/31	2019/5/31
PRA000089	SAA005010	ST015		ZETTAICODE_FY2017_W	2710440	W_2710440_20170721	Water	"River water"	2017	7	21					Asia	Japan	"Ishikawa-bashi bridge, Ishi-kawa Riv., Osaka"	34.57		135.6219445																																											2019/5/31	2019/5/31
PRA000089	SAA005011	ST015		ZETTAICODE_FY2017_W	2710440	W_2710440_20170724	Water	"River water"	2017	7	24					Asia	Japan	"Ishikawa-bashi bridge, Ishi-kawa Riv., Osaka"	34.57		135.6219445																																											2019/5/31	2019/5/31
PRA000089	SAA005012	ST015		ZETTAICODE_FY2017_W	2710440	W_2710440_20170726	Water	"River water"	2017	7	26					Asia	Japan	"Ishikawa-bashi bridge, Ishi-kawa Riv., Osaka"	34.57		135.6219445																																											2019/5/31	2019/5/31
PRA000089	SAA005013	ST015		ZETTAICODE_FY2017_W	2710440	W_2710440_20170731	Water	"River water"	2017	7	31					Asia	Japan	"Ishikawa-bashi bridge, Ishi-kawa Riv., Osaka"	34.57		135.6219445																																											2019/5/31	2019/5/31
PRA000089	SAA005014	ST015		ZETTAICODE_FY2017_W	2712050	W_2712050_20170508	Water	"River water"	2017	5	8					Asia	Japan	"Enmyo-bashi bridge, Asuka Riv., Osaka"	34.55555556		135.6205556																																											2019/5/31	2019/5/31
PRA000089	SAA005015	ST015		ZETTAICODE_FY2017_W	2712050	W_2712050_20170515	Water	"River water"	2017	5	15					Asia	Japan	"Enmyo-bashi bridge, Asuka Riv., Osaka"	34.55555556		135.6205556																																											2019/5/31	2019/5/31
PRA000089	SAA005016	ST015		ZETTAICODE_FY2017_W	2712050	W_2712050_20170517	Water	"River water"	2017	5	17					Asia	Japan	"Enmyo-bashi bridge, Asuka Riv., Osaka"	34.55555556		135.6205556																																											2019/5/31	2019/5/31
PRA000089	SAA005017	ST015		ZETTAICODE_FY2017_W	2712050	W_2712050_20170519	Water	"River water"	2017	5	19					Asia	Japan	"Enmyo-bashi bridge, Asuka Riv., Osaka"	34.55555556		135.6205556																																											2019/5/31	2019/5/31
PRA000089	SAA005018	ST015		ZETTAICODE_FY2017_W	2712050	W_2712050_20170522	Water	"River water"	2017	5	22					Asia	Japan	"Enmyo-bashi bridge, Asuka Riv., Osaka"	34.55555556		135.6205556																																											2019/5/31	2019/5/31
PRA000089	SAA005019	ST015		ZETTAICODE_FY2017_W	2712050	W_2712050_20170524	Water	"River water"	2017	5	24					Asia	Japan	"Enmyo-bashi bridge, Asuka Riv., Osaka"	34.55555556		135.6205556																																										"Start of rice-planting season"	2019/5/31	2019/5/31
PRA000089	SAA005020	ST015		ZETTAICODE_FY2017_W	2712050	W_2712050_20170525	Water	"River water"	2017	5	25					Asia	Japan	"Enmyo-bashi bridge, Asuka Riv., Osaka"	34.55555556		135.6205556																																										"Rice-planting season"	2019/5/31	2019/5/31
PRA000089	SAA005021	ST015		ZETTAICODE_FY2017_W	2712050	W_2712050_20170526	Water	"River water"	2017	5	26					Asia	Japan	"Enmyo-bashi bridge, Asuka Riv., Osaka"	34.55555556		135.6205556																																										"Rice-planting season"	2019/5/31	2019/5/31
PRA000089	SAA005022	ST015		ZETTAICODE_FY2017_W	2712050	W_2712050_20170529	Water	"River water"	2017	5	29					Asia	Japan	"Enmyo-bashi bridge, Asuka Riv., Osaka"	34.55555556		135.6205556																																										"Rice-planting season"	2019/5/31	2019/5/31
PRA000089	SAA005023	ST015		ZETTAICODE_FY2017_W	2712050	W_2712050_20170531	Water	"River water"	2017	5	31					Asia	Japan	"Enmyo-bashi bridge, Asuka Riv., Osaka"	34.55555556		135.6205556																																										"Rice-planting season"	2019/5/31	2019/5/31
PRA000089	SAA005024	ST015		ZETTAICODE_FY2017_W	2712050	W_2712050_20170602	Water	"River water"	2017	6	2					Asia	Japan	"Enmyo-bashi bridge, Asuka Riv., Osaka"	34.55555556		135.6205556																																										"Rice-planting season"	2019/5/31	2019/5/31
PRA000089	SAA005025	ST015		ZETTAICODE_FY2017_W	2712050	W_2712050_20170605	Water	"River water"	2017	6	5					Asia	Japan	"Enmyo-bashi bridge, Asuka Riv., Osaka"	34.55555556		135.6205556																																										"Rice-planting season"	2019/5/31	2019/5/31
PRA000089	SAA005026	ST015		ZETTAICODE_FY2017_W	2712050	W_2712050_20170607	Water	"River water"	2017	6	7					Asia	Japan	"Enmyo-bashi bridge, Asuka Riv., Osaka"	34.55555556		135.6205556																																										"Rice-planting season"	2019/5/31	2019/5/31
PRA000089	SAA005027	ST015		ZETTAICODE_FY2017_W	2712050	W_2712050_20170608	Water	"River water"	2017	6	8					Asia	Japan	"Enmyo-bashi bridge, Asuka Riv., Osaka"	34.55555556		135.6205556																																										"Rice-planting season"	2019/5/31	2019/5/31
PRA000089	SAA005028	ST015		ZETTAICODE_FY2017_W	2712050	W_2712050_20170609	Water	"River water"	2017	6	9					Asia	Japan	"Enmyo-bashi bridge, Asuka Riv., Osaka"	34.55555556		135.6205556																																										"Rice-planting season"	2019/5/31	2019/5/31
PRA000089	SAA005029	ST015		ZETTAICODE_FY2017_W	2712050	W_2712050_20170612	Water	"River water"	2017	6	12					Asia	Japan	"Enmyo-bashi bridge, Asuka Riv., Osaka"	34.55555556		135.6205556																																										"Rice-planting season (Highest)"	2019/5/31	2019/5/31
PRA000089	SAA005030	ST015		ZETTAICODE_FY2017_W	2712050	W_2712050_20170614	Water	"River water"	2017	6	14					Asia	Japan	"Enmyo-bashi bridge, Asuka Riv., Osaka"	34.55555556		135.6205556																																										"Rice-planting season"	2019/5/31	2019/5/31
PRA000089	SAA005031	ST015		ZETTAICODE_FY2017_W	2712050	W_2712050_20170616	Water	"River water"	2017	6	16					Asia	Japan	"Enmyo-bashi bridge, Asuka Riv., Osaka"	34.55555556		135.6205556																																										"Rice-planting season"	2019/5/31	2019/5/31
PRA000089	SAA005032	ST015		ZETTAICODE_FY2017_W	2712050	W_2712050_20170619	Water	"River water"	2017	6	19					Asia	Japan	"Enmyo-bashi bridge, Asuka Riv., Osaka"	34.55555556		135.6205556																																										"Rice-planting season"	2019/5/31	2019/5/31
PRA000089	SAA005033	ST015		ZETTAICODE_FY2017_W	2712050	W_2712050_20170621	Water	"River water"	2017	6	21					Asia	Japan	"Enmyo-bashi bridge, Asuka Riv., Osaka"	34.55555556		135.6205556																																										"Rice-planting season"	2019/5/31	2019/5/31
PRA000089	SAA005034	ST015		ZETTAICODE_FY2017_W	2712050	W_2712050_20170623	Water	"River water"	2017	6	23					Asia	Japan	"Enmyo-bashi bridge, Asuka Riv., Osaka"	34.55555556		135.6205556																																										"Rice-planting season"	2019/5/31	2019/5/31
PRA000089	SAA005035	ST015		ZETTAICODE_FY2017_W	2712050	W_2712050_20170626	Water	"River water"	2017	6	26					Asia	Japan	"Enmyo-bashi bridge, Asuka Riv., Osaka"	34.55555556		135.6205556																																										"End of rice-planting season"	2019/5/31	2019/5/31
PRA000089	SAA005036	ST015		ZETTAICODE_FY2017_W	2712050	W_2712050_20170627	Water	"River water"	2017	6	27					Asia	Japan	"Enmyo-bashi bridge, Asuka Riv., Osaka"	34.55555556		135.6205556																																											2019/5/31	2019/5/31
PRA000089	SAA005037	ST015		ZETTAICODE_FY2017_W	2712050	W_2712050_20170630	Water	"River water"	2017	6	30					Asia	Japan	"Enmyo-bashi bridge, Asuka Riv., Osaka"	34.55555556		135.6205556																																											2019/5/31	2019/5/31
PRA000089	SAA005038	ST015		ZETTAICODE_FY2017_W	2712050	W_2712050_20170703	Water	"River water"	2017	7	3					Asia	Japan	"Enmyo-bashi bridge, Asuka Riv., Osaka"	34.55555556		135.6205556																																											2019/5/31	2019/5/31
PRA000089	SAA005039	ST015		ZETTAICODE_FY2017_W	2712050	W_2712050_20170705	Water	"River water"	2017	7	5					Asia	Japan	"Enmyo-bashi bridge, Asuka Riv., Osaka"	34.55555556		135.6205556																																											2019/5/31	2019/5/31
PRA000089	SAA005040	ST015		ZETTAICODE_FY2017_W	2712050	W_2712050_20170707	Water	"River water"	2017	7	7					Asia	Japan	"Enmyo-bashi bridge, Asuka Riv., Osaka"	34.55555556		135.6205556																																											2019/5/31	2019/5/31
PRA000089	SAA005041	ST015		ZETTAICODE_FY2017_W	2712050	W_2712050_20170710	Water	"River water"	2017	7	10					Asia	Japan	"Enmyo-bashi bridge, Asuka Riv., Osaka"	34.55555556		135.6205556																																											2019/5/31	2019/5/31
PRA000089	SAA005042	ST015		ZETTAICODE_FY2017_W	2712050	W_2712050_20170712	Water	"River water"	2017	7	12					Asia	Japan	"Enmyo-bashi bridge, Asuka Riv., Osaka"	34.55555556		135.6205556																																											2019/5/31	2019/5/31
PRA000089	SAA005043	ST015		ZETTAICODE_FY2017_W	2712050	W_2712050_20170714	Water	"River water"	2017	7	14					Asia	Japan	"Enmyo-bashi bridge, Asuka Riv., Osaka"	34.55555556		135.6205556																																											2019/5/31	2019/5/31
PRA000089	SAA005044	ST015		ZETTAICODE_FY2017_W	2712050	W_2712050_20170718	Water	"River water"	2017	7	18					Asia	Japan	"Enmyo-bashi bridge, Asuka Riv., Osaka"	34.55555556		135.6205556																																											2019/5/31	2019/5/31
PRA000089	SAA005045	ST015		ZETTAICODE_FY2017_W	2712050	W_2712050_20170719	Water	"River water"	2017	7	19					Asia	Japan	"Enmyo-bashi bridge, Asuka Riv., Osaka"	34.55555556		135.6205556																																											2019/5/31	2019/5/31
PRA000089	SAA005046	ST015		ZETTAICODE_FY2017_W	2712050	W_2712050_20170721	Water	"River water"	2017	7	21					Asia	Japan	"Enmyo-bashi bridge, Asuka Riv., Osaka"	34.55555556		135.6205556																																											2019/5/31	2019/5/31
PRA000089	SAA005047	ST015		ZETTAICODE_FY2017_W	2712050	W_2712050_20170724	Water	"River water"	2017	7	24					Asia	Japan	"Enmyo-bashi bridge, Asuka Riv., Osaka"	34.55555556		135.6205556																																											2019/5/31	2019/5/31
PRA000089	SAA005048	ST015		ZETTAICODE_FY2017_W	2712050	W_2712050_20170726	Water	"River water"	2017	7	26					Asia	Japan	"Enmyo-bashi bridge, Asuka Riv., Osaka"	34.55555556		135.6205556																																											2019/5/31	2019/5/31
PRA000089	SAA005049	ST015		ZETTAICODE_FY2017_W	2712050	W_2712050_20170731	Water	"River water"	2017	7	31					Asia	Japan	"Enmyo-bashi bridge, Asuka Riv., Osaka"	34.55555556		135.6205556																																											2019/5/31	2019/5/31
PRA000089	SAA005050	ST015		ZETTAICODE_FY2017_W	2712070	W_2712070_20170508	Water	"River water"	2017	5	8					Asia	Japan	"Otomo-bashi bridge, Sabi Riv., Osaka"	34.49944444		135.6086111																																											2019/5/31	2019/5/31
PRA000089	SAA005051	ST015		ZETTAICODE_FY2017_W	2712070	W_2712070_20170515	Water	"River water"	2017	5	15					Asia	Japan	"Otomo-bashi bridge, Sabi Riv., Osaka"	34.49944444		135.6086111																																											2019/5/31	2019/5/31
PRA000089	SAA005052	ST015		ZETTAICODE_FY2017_W	2712070	W_2712070_20170517	Water	"River water"	2017	5	17					Asia	Japan	"Otomo-bashi bridge, Sabi Riv., Osaka"	34.49944444		135.6086111																																											2019/5/31	2019/5/31
PRA000089	SAA005053	ST015		ZETTAICODE_FY2017_W	2712070	W_2712070_20170519	Water	"River water"	2017	5	19					Asia	Japan	"Otomo-bashi bridge, Sabi Riv., Osaka"	34.49944444		135.6086111																																											2019/5/31	2019/5/31
PRA000089	SAA005054	ST015		ZETTAICODE_FY2017_W	2712070	W_2712070_20170522	Water	"River water"	2017	5	22					Asia	Japan	"Otomo-bashi bridge, Sabi Riv., Osaka"	34.49944444		135.6086111																																											2019/5/31	2019/5/31
PRA000089	SAA005055	ST015		ZETTAICODE_FY2017_W	2712070	W_2712070_20170524	Water	"River water"	2017	5	24					Asia	Japan	"Otomo-bashi bridge, Sabi Riv., Osaka"	34.49944444		135.6086111																																										"Start of rice-planting season"	2019/5/31	2019/5/31
PRA000089	SAA005056	ST015		ZETTAICODE_FY2017_W	2712070	W_2712070_20170525	Water	"River water"	2017	5	25					Asia	Japan	"Otomo-bashi bridge, Sabi Riv., Osaka"	34.49944444		135.6086111																																										"Rice-planting season"	2019/5/31	2019/5/31
PRA000089	SAA005057	ST015		ZETTAICODE_FY2017_W	2712070	W_2712070_20170526	Water	"River water"	2017	5	26					Asia	Japan	"Otomo-bashi bridge, Sabi Riv., Osaka"	34.49944444		135.6086111																																										"Rice-planting season"	2019/5/31	2019/5/31
PRA000089	SAA005058	ST015		ZETTAICODE_FY2017_W	2712070	W_2712070_20170529	Water	"River water"	2017	5	29					Asia	Japan	"Otomo-bashi bridge, Sabi Riv., Osaka"	34.49944444		135.6086111																																										"Rice-planting season"	2019/5/31	2019/5/31
PRA000089	SAA005059	ST015		ZETTAICODE_FY2017_W	2712070	W_2712070_20170531	Water	"River water"	2017	5	31					Asia	Japan	"Otomo-bashi bridge, Sabi Riv., Osaka"	34.49944444		135.6086111																																										"Rice-planting season"	2019/5/31	2019/5/31
PRA000089	SAA005060	ST015		ZETTAICODE_FY2017_W	2712070	W_2712070_20170602	Water	"River water"	2017	6	2					Asia	Japan	"Otomo-bashi bridge, Sabi Riv., Osaka"	34.49944444		135.6086111																																										"Rice-planting season"	2019/5/31	2019/5/31
PRA000089	SAA005061	ST015		ZETTAICODE_FY2017_W	2712070	W_2712070_20170605	Water	"River water"	2017	6	5					Asia	Japan	"Otomo-bashi bridge, Sabi Riv., Osaka"	34.49944444		135.6086111																																										"Rice-planting season"	2019/5/31	2019/5/31
PRA000089	SAA005062	ST015		ZETTAICODE_FY2017_W	2712070	W_2712070_20170607	Water	"River water"	2017	6	7					Asia	Japan	"Otomo-bashi bridge, Sabi Riv., Osaka"	34.49944444		135.6086111																																										"Rice-planting season"	2019/5/31	2019/5/31
PRA000089	SAA005063	ST015		ZETTAICODE_FY2017_W	2712070	W_2712070_20170608	Water	"River water"	2017	6	8					Asia	Japan	"Otomo-bashi bridge, Sabi Riv., Osaka"	34.49944444		135.6086111																																										"Rice-planting season"	2019/5/31	2019/5/31
PRA000089	SAA005064	ST015		ZETTAICODE_FY2017_W	2712070	W_2712070_20170609	Water	"River water"	2017	6	9					Asia	Japan	"Otomo-bashi bridge, Sabi Riv., Osaka"	34.49944444		135.6086111																																										"Rice-planting season"	2019/5/31	2019/5/31
PRA000089	SAA005065	ST015		ZETTAICODE_FY2017_W	2712070	W_2712070_20170612	Water	"River water"	2017	6	12					Asia	Japan	"Otomo-bashi bridge, Sabi Riv., Osaka"	34.49944444		135.6086111																																										"Rice-planting season (Highest)"	2019/5/31	2019/5/31
PRA000089	SAA005066	ST015		ZETTAICODE_FY2017_W	2712070	W_2712070_20170614	Water	"River water"	2017	6	14					Asia	Japan	"Otomo-bashi bridge, Sabi Riv., Osaka"	34.49944444		135.6086111																																										"Rice-planting season"	2019/5/31	2019/5/31
PRA000089	SAA005067	ST015		ZETTAICODE_FY2017_W	2712070	W_2712070_20170616	Water	"River water"	2017	6	16					Asia	Japan	"Otomo-bashi bridge, Sabi Riv., Osaka"	34.49944444		135.6086111																																										"Rice-planting season"	2019/5/31	2019/5/31
PRA000089	SAA005068	ST015		ZETTAICODE_FY2017_W	2712070	W_2712070_20170619	Water	"River water"	2017	6	19					Asia	Japan	"Otomo-bashi bridge, Sabi Riv., Osaka"	34.49944444		135.6086111																																										"Rice-planting season"	2019/5/31	2019/5/31
PRA000089	SAA005069	ST015		ZETTAICODE_FY2017_W	2712070	W_2712070_20170621	Water	"River water"	2017	6	21					Asia	Japan	"Otomo-bashi bridge, Sabi Riv., Osaka"	34.49944444		135.6086111																																										"Rice-planting season"	2019/5/31	2019/5/31
PRA000089	SAA005070	ST015		ZETTAICODE_FY2017_W	2712070	W_2712070_20170623	Water	"River water"	2017	6	23					Asia	Japan	"Otomo-bashi bridge, Sabi Riv., Osaka"	34.49944444		135.6086111																																										"Rice-planting season"	2019/5/31	2019/5/31
PRA000089	SAA005071	ST015		ZETTAICODE_FY2017_W	2712070	W_2712070_20170626	Water	"River water"	2017	6	26					Asia	Japan	"Otomo-bashi bridge, Sabi Riv., Osaka"	34.49944444		135.6086111																																										"End of rice-planting season"	2019/5/31	2019/5/31
PRA000089	SAA005072	ST015		ZETTAICODE_FY2017_W	2712070	W_2712070_20170627	Water	"River water"	2017	6	27					Asia	Japan	"Otomo-bashi bridge, Sabi Riv., Osaka"	34.49944444		135.6086111																																											2019/5/31	2019/5/31
PRA000089	SAA005073	ST015		ZETTAICODE_FY2017_W	2712070	W_2712070_20170630	Water	"River water"	2017	6	30					Asia	Japan	"Otomo-bashi bridge, Sabi Riv., Osaka"	34.49944444		135.6086111																																											2019/5/31	2019/5/31
PRA000089	SAA005074	ST015		ZETTAICODE_FY2017_W	2712070	W_2712070_20170703	Water	"River water"	2017	7	3					Asia	Japan	"Otomo-bashi bridge, Sabi Riv., Osaka"	34.49944444		135.6086111																																											2019/5/31	2019/5/31
PRA000089	SAA005075	ST015		ZETTAICODE_FY2017_W	2712070	W_2712070_20170705	Water	"River water"	2017	7	5					Asia	Japan	"Otomo-bashi bridge, Sabi Riv., Osaka"	34.49944444		135.6086111																																											2019/5/31	2019/5/31
PRA000089	SAA005076	ST015		ZETTAICODE_FY2017_W	2712070	W_2712070_20170707	Water	"River water"	2017	7	7					Asia	Japan	"Otomo-bashi bridge, Sabi Riv., Osaka"	34.49944444		135.6086111																																											2019/5/31	2019/5/31
PRA000089	SAA005077	ST015		ZETTAICODE_FY2017_W	2712070	W_2712070_20170710	Water	"River water"	2017	7	10					Asia	Japan	"Otomo-bashi bridge, Sabi Riv., Osaka"	34.49944444		135.6086111																																											2019/5/31	2019/5/31
PRA000089	SAA005078	ST015		ZETTAICODE_FY2017_W	2712070	W_2712070_20170712	Water	"River water"	2017	7	12					Asia	Japan	"Otomo-bashi bridge, Sabi Riv., Osaka"	34.49944444		135.6086111																																											2019/5/31	2019/5/31
PRA000089	SAA005079	ST015		ZETTAICODE_FY2017_W	2712070	W_2712070_20170714	Water	"River water"	2017	7	14					Asia	Japan	"Otomo-bashi bridge, Sabi Riv., Osaka"	34.49944444		135.6086111																																											2019/5/31	2019/5/31
PRA000089	SAA005080	ST015		ZETTAICODE_FY2017_W	2712070	W_2712070_20170718	Water	"River water"	2017	7	18					Asia	Japan	"Otomo-bashi bridge, Sabi Riv., Osaka"	34.49944444		135.6086111																																											2019/5/31	2019/5/31
PRA000089	SAA005081	ST015		ZETTAICODE_FY2017_W	2712070	W_2712070_20170719	Water	"River water"	2017	7	19					Asia	Japan	"Otomo-bashi bridge, Sabi Riv., Osaka"	34.49944444		135.6086111																																											2019/5/31	2019/5/31
PRA000089	SAA005082	ST015		ZETTAICODE_FY2017_W	2712070	W_2712070_20170721	Water	"River water"	2017	7	21					Asia	Japan	"Otomo-bashi bridge, Sabi Riv., Osaka"	34.49944444		135.6086111																																											2019/5/31	2019/5/31
PRA000089	SAA005083	ST015		ZETTAICODE_FY2017_W	2712070	W_2712070_20170724	Water	"River water"	2017	7	24					Asia	Japan	"Otomo-bashi bridge, Sabi Riv., Osaka"	34.49944444		135.6086111																																											2019/5/31	2019/5/31
PRA000089	SAA005084	ST015		ZETTAICODE_FY2017_W	2712070	W_2712070_20170726	Water	"River water"	2017	7	26					Asia	Japan	"Otomo-bashi bridge, Sabi Riv., Osaka"	34.49944444		135.6086111																																											2019/5/31	2019/5/31
PRA000089	SAA005085	ST015		ZETTAICODE_FY2017_W	2712070	W_2712070_20170731	Water	"River water"	2017	7	31					Asia	Japan	"Otomo-bashi bridge, Sabi Riv., Osaka"	34.49944444		135.6086111																																											2019/5/31	2019/5/31
PRA000089	SAA005086	ST015		ZETTAICODE_FY2017_W	2710430	W_2710430_20170508	Water	"River water"	2017	5	8					Asia	Japan	"Taka-hashi bridge, Ishi-kawa Riv., Osaka"	34.47916667		135.5872222																																											2019/5/31	2019/5/31
PRA000089	SAA005087	ST015		ZETTAICODE_FY2017_W	2710430	W_2710430_20170515	Water	"River water"	2017	5	15					Asia	Japan	"Taka-hashi bridge, Ishi-kawa Riv., Osaka"	34.47916667		135.5872222																																											2019/5/31	2019/5/31
PRA000089	SAA005088	ST015		ZETTAICODE_FY2017_W	2710430	W_2710430_20170517	Water	"River water"	2017	5	17					Asia	Japan	"Taka-hashi bridge, Ishi-kawa Riv., Osaka"	34.47916667		135.5872222																																											2019/5/31	2019/5/31
PRA000089	SAA005089	ST015		ZETTAICODE_FY2017_W	2710430	W_2710430_20170519	Water	"River water"	2017	5	19					Asia	Japan	"Taka-hashi bridge, Ishi-kawa Riv., Osaka"	34.47916667		135.5872222																																											2019/5/31	2019/5/31
PRA000089	SAA005090	ST015		ZETTAICODE_FY2017_W	2710430	W_2710430_20170522	Water	"River water"	2017	5	22					Asia	Japan	"Taka-hashi bridge, Ishi-kawa Riv., Osaka"	34.47916667		135.5872222																																											2019/5/31	2019/5/31
PRA000089	SAA005091	ST015		ZETTAICODE_FY2017_W	2710430	W_2710430_20170524	Water	"River water"	2017	5	24					Asia	Japan	"Taka-hashi bridge, Ishi-kawa Riv., Osaka"	34.47916667		135.5872222																																										"Start of rice-planting season"	2019/5/31	2019/5/31
PRA000089	SAA005092	ST015		ZETTAICODE_FY2017_W	2710430	W_2710430_20170525	Water	"River water"	2017	5	25					Asia	Japan	"Taka-hashi bridge, Ishi-kawa Riv., Osaka"	34.47916667		135.5872222																																										"Rice-planting season"	2019/5/31	2019/5/31
PRA000089	SAA005093	ST015		ZETTAICODE_FY2017_W	2710430	W_2710430_20170526	Water	"River water"	2017	5	26					Asia	Japan	"Taka-hashi bridge, Ishi-kawa Riv., Osaka"	34.47916667		135.5872222																																										"Rice-planting season"	2019/5/31	2019/5/31
PRA000089	SAA005094	ST015		ZETTAICODE_FY2017_W	2710430	W_2710430_20170529	Water	"River water"	2017	5	29					Asia	Japan	"Taka-hashi bridge, Ishi-kawa Riv., Osaka"	34.47916667		135.5872222																																										"Rice-planting season"	2019/5/31	2019/5/31
PRA000089	SAA005095	ST015		ZETTAICODE_FY2017_W	2710430	W_2710430_20170531	Water	"River water"	2017	5	31					Asia	Japan	"Taka-hashi bridge, Ishi-kawa Riv., Osaka"	34.47916667		135.5872222																																										"Rice-planting season"	2019/5/31	2019/5/31
PRA000089	SAA005096	ST015		ZETTAICODE_FY2017_W	2710430	W_2710430_20170602	Water	"River water"	2017	6	2					Asia	Japan	"Taka-hashi bridge, Ishi-kawa Riv., Osaka"	34.47916667		135.5872222																																										"Rice-planting season"	2019/5/31	2019/5/31
PRA000089	SAA005097	ST015		ZETTAICODE_FY2017_W	2710430	W_2710430_20170605	Water	"River water"	2017	6	5					Asia	Japan	"Taka-hashi bridge, Ishi-kawa Riv., Osaka"	34.47916667		135.5872222																																										"Rice-planting season"	2019/5/31	2019/5/31
PRA000089	SAA005098	ST015		ZETTAICODE_FY2017_W	2710430	W_2710430_20170607	Water	"River water"	2017	6	7					Asia	Japan	"Taka-hashi bridge, Ishi-kawa Riv., Osaka"	34.47916667		135.5872222																																										"Rice-planting season"	2019/5/31	2019/5/31
PRA000089	SAA005099	ST015		ZETTAICODE_FY2017_W	2710430	W_2710430_20170608	Water	"River water"	2017	6	8					Asia	Japan	"Taka-hashi bridge, Ishi-kawa Riv., Osaka"	34.47916667		135.5872222																																										"Rice-planting season"	2019/5/31	2019/5/31
PRA000089	SAA005100	ST015		ZETTAICODE_FY2017_W	2710430	W_2710430_20170609	Water	"River water"	2017	6	9					Asia	Japan	"Taka-hashi bridge, Ishi-kawa Riv., Osaka"	34.47916667		135.5872222																																										"Rice-planting season"	2019/5/31	2019/5/31
PRA000089	SAA005101	ST015		ZETTAICODE_FY2017_W	2710430	W_2710430_20170612	Water	"River water"	2017	6	12					Asia	Japan	"Taka-hashi bridge, Ishi-kawa Riv., Osaka"	34.47916667		135.5872222																																										"Rice-planting season (Highest)"	2019/5/31	2019/5/31
PRA000089	SAA005102	ST015		ZETTAICODE_FY2017_W	2710430	W_2710430_20170614	Water	"River water"	2017	6	14					Asia	Japan	"Taka-hashi bridge, Ishi-kawa Riv., Osaka"	34.47916667		135.5872222																																										"Rice-planting season"	2019/5/31	2019/5/31
PRA000089	SAA005103	ST015		ZETTAICODE_FY2017_W	2710430	W_2710430_20170616	Water	"River water"	2017	6	16					Asia	Japan	"Taka-hashi bridge, Ishi-kawa Riv., Osaka"	34.47916667		135.5872222																																										"Rice-planting season"	2019/5/31	2019/5/31
PRA000089	SAA005104	ST015		ZETTAICODE_FY2017_W	2710430	W_2710430_20170619	Water	"River water"	2017	6	19					Asia	Japan	"Taka-hashi bridge, Ishi-kawa Riv., Osaka"	34.47916667		135.5872222																																										"Rice-planting season"	2019/5/31	2019/5/31
PRA000089	SAA005105	ST015		ZETTAICODE_FY2017_W	2710430	W_2710430_20170621	Water	"River water"	2017	6	21					Asia	Japan	"Taka-hashi bridge, Ishi-kawa Riv., Osaka"	34.47916667		135.5872222																																										"Rice-planting season"	2019/5/31	2019/5/31
PRA000089	SAA005106	ST015		ZETTAICODE_FY2017_W	2710430	W_2710430_20170623	Water	"River water"	2017	6	23					Asia	Japan	"Taka-hashi bridge, Ishi-kawa Riv., Osaka"	34.47916667		135.5872222																																										"Rice-planting season"	2019/5/31	2019/5/31
PRA000089	SAA005107	ST015		ZETTAICODE_FY2017_W	2710430	W_2710430_20170626	Water	"River water"	2017	6	26					Asia	Japan	"Taka-hashi bridge, Ishi-kawa Riv., Osaka"	34.47916667		135.5872222																																										"End of rice-planting season"	2019/5/31	2019/5/31
PRA000089	SAA005108	ST015		ZETTAICODE_FY2017_W	2710430	W_2710430_20170627	Water	"River water"	2017	6	27					Asia	Japan	"Taka-hashi bridge, Ishi-kawa Riv., Osaka"	34.47916667		135.5872222																																											2019/5/31	2019/5/31
PRA000089	SAA005109	ST015		ZETTAICODE_FY2017_W	2710430	W_2710430_20170630	Water	"River water"	2017	6	30					Asia	Japan	"Taka-hashi bridge, Ishi-kawa Riv., Osaka"	34.47916667		135.5872222																																											2019/5/31	2019/5/31
PRA000089	SAA005110	ST015		ZETTAICODE_FY2017_W	2710430	W_2710430_20170703	Water	"River water"	2017	7	3					Asia	Japan	"Taka-hashi bridge, Ishi-kawa Riv., Osaka"	34.47916667		135.5872222																																											2019/5/31	2019/5/31
PRA000089	SAA005111	ST015		ZETTAICODE_FY2017_W	2710430	W_2710430_20170705	Water	"River water"	2017	7	5					Asia	Japan	"Taka-hashi bridge, Ishi-kawa Riv., Osaka"	34.47916667		135.5872222																																											2019/5/31	2019/5/31
PRA000089	SAA005112	ST015		ZETTAICODE_FY2017_W	2710430	W_2710430_20170707	Water	"River water"	2017	7	7					Asia	Japan	"Taka-hashi bridge, Ishi-kawa Riv., Osaka"	34.47916667		135.5872222																																											2019/5/31	2019/5/31
PRA000089	SAA005113	ST015		ZETTAICODE_FY2017_W	2710430	W_2710430_20170710	Water	"River water"	2017	7	10					Asia	Japan	"Taka-hashi bridge, Ishi-kawa Riv., Osaka"	34.47916667		135.5872222																																											2019/5/31	2019/5/31
PRA000089	SAA005114	ST015		ZETTAICODE_FY2017_W	2710430	W_2710430_20170712	Water	"River water"	2017	7	12					Asia	Japan	"Taka-hashi bridge, Ishi-kawa Riv., Osaka"	34.47916667		135.5872222																																											2019/5/31	2019/5/31
PRA000089	SAA005115	ST015		ZETTAICODE_FY2017_W	2710430	W_2710430_20170714	Water	"River water"	2017	7	14					Asia	Japan	"Taka-hashi bridge, Ishi-kawa Riv., Osaka"	34.47916667		135.5872222																																											2019/5/31	2019/5/31
PRA000089	SAA005116	ST015		ZETTAICODE_FY2017_W	2710430	W_2710430_20170718	Water	"River water"	2017	7	18					Asia	Japan	"Taka-hashi bridge, Ishi-kawa Riv., Osaka"	34.47916667		135.5872222																																											2019/5/31	2019/5/31
PRA000089	SAA005117	ST015		ZETTAICODE_FY2017_W	2710430	W_2710430_20170719	Water	"River water"	2017	7	19					Asia	Japan	"Taka-hashi bridge, Ishi-kawa Riv., Osaka"	34.47916667		135.5872222																																											2019/5/31	2019/5/31
PRA000089	SAA005118	ST015		ZETTAICODE_FY2017_W	2710430	W_2710430_20170721	Water	"River water"	2017	7	21					Asia	Japan	"Taka-hashi bridge, Ishi-kawa Riv., Osaka"	34.47916667		135.5872222																																											2019/5/31	2019/5/31
PRA000089	SAA005119	ST015		ZETTAICODE_FY2017_W	2710430	W_2710430_20170724	Water	"River water"	2017	7	24					Asia	Japan	"Taka-hashi bridge, Ishi-kawa Riv., Osaka"	34.47916667		135.5872222																																											2019/5/31	2019/5/31
PRA000089	SAA005120	ST015		ZETTAICODE_FY2017_W	2710430	W_2710430_20170726	Water	"River water"	2017	7	26					Asia	Japan	"Taka-hashi bridge, Ishi-kawa Riv., Osaka"	34.47916667		135.5872222																																											2019/5/31	2019/5/31
PRA000089	SAA005121	ST015		ZETTAICODE_FY2017_W	2710430	W_2710430_20170731	Water	"River water"	2017	7	31					Asia	Japan	"Taka-hashi bridge, Ishi-kawa Riv., Osaka"	34.47916667		135.5872222																																											2019/5/31	2019/5/31
PRA000089	SAA005122	ST015				W_29xyz01_20170508	Water	"River water"	2017	5	8					Asia	Japan	"Shibu-bashi bridge, Asuka Riv., Nara"	34.49631		135.801514																																											2019/5/31	2019/5/31
PRA000089	SAA005123	ST015				W_29xyz01_20170515	Water	"River water"	2017	5	15					Asia	Japan	"Shibu-bashi bridge, Asuka Riv., Nara"	34.49631		135.801514																																											2019/5/31	2019/5/31
PRA000089	SAA005124	ST015				W_29xyz01_20170522	Water	"River water"	2017	5	22					Asia	Japan	"Shibu-bashi bridge, Asuka Riv., Nara"	34.49631		135.801514																																										"Started preparing rice fields for planting by flooding them and tilling the soil; Started applying butachlor"	2019/5/31	2019/5/31
PRA000089	SAA005125	ST015				W_29xyz01_20170529	Water	"River water"	2017	5	29					Asia	Japan	"Shibu-bashi bridge, Asuka Riv., Nara"	34.49631		135.801514																																										"Start of rice-planting season; Applying butachlor."	2019/5/31	2019/5/31
PRA000089	SAA005126	ST015				W_29xyz01_20170605	Water	"River water"	2017	6	5					Asia	Japan	"Shibu-bashi bridge, Asuka Riv., Nara"	34.49631		135.801514																																										"Rice-planting (10% done); Applying butachlor."	2019/5/31	2019/5/31
PRA000089	SAA005127	ST015				W_29xyz01_20170608	Water	"River water"	2017	6	8					Asia	Japan	"Shibu-bashi bridge, Asuka Riv., Nara"	34.49631		135.801514																																										"Rice-planting (30% done); Applying butachlor."	2019/5/31	2019/5/31
PRA000089	SAA005128	ST015				W_29xyz01_20170612	Water	"River water"	2017	6	12					Asia	Japan	"Shibu-bashi bridge, Asuka Riv., Nara"	34.49631		135.801514																																										"Rice-planting (80% done); Applying butachlor."	2019/5/31	2019/5/31
PRA000089	SAA005129	ST015				W_29xyz01_20170615	Water	"River water"	2017	6	15					Asia	Japan	"Shibu-bashi bridge, Asuka Riv., Nara"	34.49631		135.801514																																										"Rice-planting (90% done); Applying butachlor."	2019/5/31	2019/5/31
PRA000089	SAA005130	ST015				W_29xyz01_20170619	Water	"River water"	2017	6	19					Asia	Japan	"Shibu-bashi bridge, Asuka Riv., Nara"	34.49631		135.801514																																										"Applying butachlor."	2019/5/31	2019/5/31
PRA000089	SAA005131	ST015				W_29xyz01_20170622	Water	"River water"	2017	6	22					Asia	Japan	"Shibu-bashi bridge, Asuka Riv., Nara"	34.49631		135.801514																																										"End of rice-planitng; Applying butachlor."	2019/5/31	2019/5/31
PRA000089	SAA005132	ST015				W_29xyz01_20170626	Water	"River water"	2017	6	26					Asia	Japan	"Shibu-bashi bridge, Asuka Riv., Nara"	34.49631		135.801514																																										"Applying butachlor."	2019/5/31	2019/5/31
PRA000089	SAA005133	ST015				W_29xyz01_20170629	Water	"River water"	2017	6	29					Asia	Japan	"Shibu-bashi bridge, Asuka Riv., Nara"	34.49631		135.801514																																										"Applying butachlor."	2019/5/31	2019/5/31
PRA000089	SAA005134	ST015				W_29xyz01_20170703	Water	"River water"	2017	7	3					Asia	Japan	"Shibu-bashi bridge, Asuka Riv., Nara"	34.49631		135.801514																																										"End of Applying butachlor."	2019/5/31	2019/5/31
PRA000089	SAA005135	ST015				W_29xyz01_20170706	Water	"River water"	2017	7	6					Asia	Japan	"Shibu-bashi bridge, Asuka Riv., Nara"	34.49631		135.801514																																											2019/5/31	2019/5/31
PRA000089	SAA005136	ST015				W_29xyz01_20170710	Water	"River water"	2017	7	10					Asia	Japan	"Shibu-bashi bridge, Asuka Riv., Nara"	34.49631		135.801514																																											2019/5/31	2019/5/31
PRA000089	SAA005137	ST015				W_29xyz01_20170713	Water	"River water"	2017	7	13					Asia	Japan	"Shibu-bashi bridge, Asuka Riv., Nara"	34.49631		135.801514																																											2019/5/31	2019/5/31
PRA000089	SAA005138	ST015				W_29xyz01_20170718	Water	"River water"	2017	7	18					Asia	Japan	"Shibu-bashi bridge, Asuka Riv., Nara"	34.49631		135.801514																																											2019/5/31	2019/5/31
PRA000089	SAA005139	ST015				W_29xyz01_20170724	Water	"River water"	2017	7	24					Asia	Japan	"Shibu-bashi bridge, Asuka Riv., Nara"	34.49631		135.801514																																											2019/5/31	2019/5/31
PRA000089	SAA005140	ST015				W_29xyz01_20170731	Water	"River water"	2017	7	31					Asia	Japan	"Shibu-bashi bridge, Asuka Riv., Nara"	34.49631		135.801514																																											2019/5/31	2019/5/31
PRA000089	SAA005141	ST015				W_29xyz01_20170807	Water	"River water"	2017	8	7					Asia	Japan	"Shibu-bashi bridge, Asuka Riv., Nara"	34.49631		135.801514																																											2019/5/31	2019/5/31
PRA000089	SAA005142	ST015				W_29xyz01_20170814	Water	"River water"	2017	8	14					Asia	Japan	"Shibu-bashi bridge, Asuka Riv., Nara"	34.49631		135.801514																																											2019/5/31	2019/5/31
PRA000089	SAA005143	ST015				W_29xyz01_20170821	Water	"River water"	2017	8	21					Asia	Japan	"Shibu-bashi bridge, Asuka Riv., Nara"	34.49631		135.801514																																											2019/5/31	2019/5/31
PRA000089	SAA005144	ST015				W_29xyz01_20170828	Water	"River water"	2017	8	28					Asia	Japan	"Shibu-bashi bridge, Asuka Riv., Nara"	34.49631		135.801514																																											2019/5/31	2019/5/31
PRA000089	SAA005145	ST015				W_29xyz01_20170905	Water	"River water"	2017	9	5					Asia	Japan	"Shibu-bashi bridge, Asuka Riv., Nara"	34.49631		135.801514																																											2019/5/31	2019/5/31
PRA000089	SAA005146	ST015				W_29xyz01_20170911	Water	"River water"	2017	9	11					Asia	Japan	"Shibu-bashi bridge, Asuka Riv., Nara"	34.49631		135.801514																																											2019/5/31	2019/5/31
PRA000089	SAA005147	ST015				W_29xyz01_20170920	Water	"River water"	2017	9	20					Asia	Japan	"Shibu-bashi bridge, Asuka Riv., Nara"	34.49631		135.801514																																											2019/5/31	2019/5/31
PRA000089	SAA005148	ST015				W_29xyz01_20170925	Water	"River water"	2017	9	25					Asia	Japan	"Shibu-bashi bridge, Asuka Riv., Nara"	34.49631		135.801514																																											2019/5/31	2019/5/31
PRA000089	SAA005149	ST015				W_29xyz01_20171002	Water	"River water"	2017	10	2					Asia	Japan	"Shibu-bashi bridge, Asuka Riv., Nara"	34.49631		135.801514																																											2019/5/31	2019/5/31
PRA000089	SAA005150	ST015		ZETTAICODE_FY2017_W	2910810	W_2910810_20170508	Water	"River water"	2017	5	8					Asia	Japan	"Sogagawa-bashi bridge, Soga Riv., Nara"	34.50666667		135.7747222																																											2019/5/31	2019/5/31
PRA000089	SAA005151	ST015		ZETTAICODE_FY2017_W	2910810	W_2910810_20170515	Water	"River water"	2017	5	15					Asia	Japan	"Sogagawa-bashi bridge, Soga Riv., Nara"	34.50666667		135.7747222																																											2019/5/31	2019/5/31
PRA000089	SAA005152	ST015		ZETTAICODE_FY2017_W	2910810	W_2910810_20170522	Water	"River water"	2017	5	22					Asia	Japan	"Sogagawa-bashi bridge, Soga Riv., Nara"	34.50666667		135.7747222																																										"Started preparing rice fields for planting by flooding them and tilling the soil; Started applying butachlor"	2019/5/31	2019/5/31
PRA000089	SAA005153	ST015		ZETTAICODE_FY2017_W	2910810	W_2910810_20170529	Water	"River water"	2017	5	29					Asia	Japan	"Sogagawa-bashi bridge, Soga Riv., Nara"	34.50666667		135.7747222																																										"Start of rice-planting season; Applying butachlor."	2019/5/31	2019/5/31
PRA000089	SAA005154	ST015		ZETTAICODE_FY2017_W	2910810	W_2910810_20170605	Water	"River water"	2017	6	5					Asia	Japan	"Sogagawa-bashi bridge, Soga Riv., Nara"	34.50666667		135.7747222																																										"Rice-planting (10% done); Applying butachlor."	2019/5/31	2019/5/31
PRA000089	SAA005155	ST015		ZETTAICODE_FY2017_W	2910810	W_2910810_20170608	Water	"River water"	2017	6	8					Asia	Japan	"Sogagawa-bashi bridge, Soga Riv., Nara"	34.50666667		135.7747222																																										"Rice-planting (30% done); Applying butachlor."	2019/5/31	2019/5/31
PRA000089	SAA005156	ST015		ZETTAICODE_FY2017_W	2910810	W_2910810_20170612	Water	"River water"	2017	6	12					Asia	Japan	"Sogagawa-bashi bridge, Soga Riv., Nara"	34.50666667		135.7747222																																										"Rice-planting (80% done); Applying butachlor."	2019/5/31	2019/5/31
PRA000089	SAA005157	ST015		ZETTAICODE_FY2017_W	2910810	W_2910810_20170615	Water	"River water"	2017	6	15					Asia	Japan	"Sogagawa-bashi bridge, Soga Riv., Nara"	34.50666667		135.7747222																																										"Rice-planting (90% done); Applying butachlor."	2019/5/31	2019/5/31
PRA000089	SAA005158	ST015		ZETTAICODE_FY2017_W	2910810	W_2910810_20170619	Water	"River water"	2017	6	19					Asia	Japan	"Sogagawa-bashi bridge, Soga Riv., Nara"	34.50666667		135.7747222																																										"Applying butachlor."	2019/5/31	2019/5/31
PRA000089	SAA005159	ST015		ZETTAICODE_FY2017_W	2910810	W_2910810_20170622	Water	"River water"	2017	6	22					Asia	Japan	"Sogagawa-bashi bridge, Soga Riv., Nara"	34.50666667		135.7747222																																										"End of rice-planitng; Applying butachlor."	2019/5/31	2019/5/31
PRA000089	SAA005160	ST015		ZETTAICODE_FY2017_W	2910810	W_2910810_20170626	Water	"River water"	2017	6	26					Asia	Japan	"Sogagawa-bashi bridge, Soga Riv., Nara"	34.50666667		135.7747222																																										"Applying butachlor."	2019/5/31	2019/5/31
PRA000089	SAA005161	ST015		ZETTAICODE_FY2017_W	2910810	W_2910810_20170629	Water	"River water"	2017	6	29					Asia	Japan	"Sogagawa-bashi bridge, Soga Riv., Nara"	34.50666667		135.7747222																																										"Applying butachlor."	2019/5/31	2019/5/31
PRA000089	SAA005162	ST015		ZETTAICODE_FY2017_W	2910810	W_2910810_20170703	Water	"River water"	2017	7	3					Asia	Japan	"Sogagawa-bashi bridge, Soga Riv., Nara"	34.50666667		135.7747222																																										"End of Applying butachlor."	2019/5/31	2019/5/31
PRA000089	SAA005163	ST015		ZETTAICODE_FY2017_W	2910810	W_2910810_20170706	Water	"River water"	2017	7	6					Asia	Japan	"Sogagawa-bashi bridge, Soga Riv., Nara"	34.50666667		135.7747222																																											2019/5/31	2019/5/31
PRA000089	SAA005164	ST015		ZETTAICODE_FY2017_W	2910810	W_2910810_20170710	Water	"River water"	2017	7	10					Asia	Japan	"Sogagawa-bashi bridge, Soga Riv., Nara"	34.50666667		135.7747222																																											2019/5/31	2019/5/31
PRA000089	SAA005165	ST015		ZETTAICODE_FY2017_W	2910810	W_2910810_20170713	Water	"River water"	2017	7	13					Asia	Japan	"Sogagawa-bashi bridge, Soga Riv., Nara"	34.50666667		135.7747222																																											2019/5/31	2019/5/31
PRA000089	SAA005166	ST015		ZETTAICODE_FY2017_W	2910810	W_2910810_20170718	Water	"River water"	2017	7	18					Asia	Japan	"Sogagawa-bashi bridge, Soga Riv., Nara"	34.50666667		135.7747222																																											2019/5/31	2019/5/31
PRA000089	SAA005167	ST015		ZETTAICODE_FY2017_W	2910810	W_2910810_20170724	Water	"River water"	2017	7	24					Asia	Japan	"Sogagawa-bashi bridge, Soga Riv., Nara"	34.50666667		135.7747222																																											2019/5/31	2019/5/31
PRA000089	SAA005168	ST015		ZETTAICODE_FY2017_W	2910810	W_2910810_20170731	Water	"River water"	2017	7	31					Asia	Japan	"Sogagawa-bashi bridge, Soga Riv., Nara"	34.50666667		135.7747222																																											2019/5/31	2019/5/31
PRA000089	SAA005169	ST015		ZETTAICODE_FY2017_W	2910810	W_2910810_20170807	Water	"River water"	2017	8	7					Asia	Japan	"Sogagawa-bashi bridge, Soga Riv., Nara"	34.50666667		135.7747222																																											2019/5/31	2019/5/31
PRA000089	SAA005170	ST015		ZETTAICODE_FY2017_W	2910810	W_2910810_20170814	Water	"River water"	2017	8	14					Asia	Japan	"Sogagawa-bashi bridge, Soga Riv., Nara"	34.50666667		135.7747222																																											2019/5/31	2019/5/31
PRA000089	SAA005171	ST015		ZETTAICODE_FY2017_W	2910810	W_2910810_20170821	Water	"River water"	2017	8	21					Asia	Japan	"Sogagawa-bashi bridge, Soga Riv., Nara"	34.50666667		135.7747222																																											2019/5/31	2019/5/31
PRA000089	SAA005172	ST015		ZETTAICODE_FY2017_W	2910810	W_2910810_20170828	Water	"River water"	2017	8	28					Asia	Japan	"Sogagawa-bashi bridge, Soga Riv., Nara"	34.50666667		135.7747222																																											2019/5/31	2019/5/31
PRA000089	SAA005173	ST015		ZETTAICODE_FY2017_W	2910810	W_2910810_20170905	Water	"River water"	2017	9	5					Asia	Japan	"Sogagawa-bashi bridge, Soga Riv., Nara"	34.50666667		135.7747222																																											2019/5/31	2019/5/31
PRA000089	SAA005174	ST015		ZETTAICODE_FY2017_W	2910810	W_2910810_20170911	Water	"River water"	2017	9	11					Asia	Japan	"Sogagawa-bashi bridge, Soga Riv., Nara"	34.50666667		135.7747222																																											2019/5/31	2019/5/31
PRA000089	SAA005175	ST015		ZETTAICODE_FY2017_W	2910810	W_2910810_20170920	Water	"River water"	2017	9	20					Asia	Japan	"Sogagawa-bashi bridge, Soga Riv., Nara"	34.50666667		135.7747222																																											2019/5/31	2019/5/31
PRA000089	SAA005176	ST015		ZETTAICODE_FY2017_W	2910810	W_2910810_20170925	Water	"River water"	2017	9	25					Asia	Japan	"Sogagawa-bashi bridge, Soga Riv., Nara"	34.50666667		135.7747222																																											2019/5/31	2019/5/31
PRA000089	SAA005177	ST015		ZETTAICODE_FY2017_W	2910810	W_2910810_20171002	Water	"River water"	2017	10	2					Asia	Japan	"Sogagawa-bashi bridge, Soga Riv., Nara"	34.50666667		135.7747222																																											2019/5/31	2019/5/31
PRA000089	SAA005178	ST015		ZETTAICODE_FY2017_W	2910720	W_2910720_20170508	Water	"River water"	2017	5	8					Asia	Japan	"Konin-bashi bridge, Tera-kawa Riv., Nara"	34.53166667		135.7961111																																											2019/5/31	2019/5/31
PRA000089	SAA005179	ST015		ZETTAICODE_FY2017_W	2910720	W_2910720_20170515	Water	"River water"	2017	5	15					Asia	Japan	"Konin-bashi bridge, Tera-kawa Riv., Nara"	34.53166667		135.7961111																																											2019/5/31	2019/5/31
PRA000089	SAA005180	ST015		ZETTAICODE_FY2017_W	2910720	W_2910720_20170522	Water	"River water"	2017	5	22					Asia	Japan	"Konin-bashi bridge, Tera-kawa Riv., Nara"	34.53166667		135.7961111																																										"Started preparing rice fields for planting by flooding them and tilling the soil; Started applying butachlor"	2019/5/31	2019/5/31
PRA000089	SAA005181	ST015		ZETTAICODE_FY2017_W	2910720	W_2910720_20170529	Water	"River water"	2017	5	29					Asia	Japan	"Konin-bashi bridge, Tera-kawa Riv., Nara"	34.53166667		135.7961111																																										"Start of rice-planting season; Applying butachlor."	2019/5/31	2019/5/31
PRA000089	SAA005182	ST015		ZETTAICODE_FY2017_W	2910720	W_2910720_20170605	Water	"River water"	2017	6	5					Asia	Japan	"Konin-bashi bridge, Tera-kawa Riv., Nara"	34.53166667		135.7961111																																										"Rice-planting (10% done); Applying butachlor."	2019/5/31	2019/5/31
PRA000089	SAA005183	ST015		ZETTAICODE_FY2017_W	2910720	W_2910720_20170608	Water	"River water"	2017	6	8					Asia	Japan	"Konin-bashi bridge, Tera-kawa Riv., Nara"	34.53166667		135.7961111																																										"Rice-planting (30% done); Applying butachlor."	2019/5/31	2019/5/31
PRA000089	SAA005184	ST015		ZETTAICODE_FY2017_W	2910720	W_2910720_20170612	Water	"River water"	2017	6	12					Asia	Japan	"Konin-bashi bridge, Tera-kawa Riv., Nara"	34.53166667		135.7961111																																										"Rice-planting (80% done); Applying butachlor."	2019/5/31	2019/5/31
PRA000089	SAA005185	ST015		ZETTAICODE_FY2017_W	2910720	W_2910720_20170615	Water	"River water"	2017	6	15					Asia	Japan	"Konin-bashi bridge, Tera-kawa Riv., Nara"	34.53166667		135.7961111																																										"Rice-planting (90% done); Applying butachlor."	2019/5/31	2019/5/31
PRA000089	SAA005186	ST015		ZETTAICODE_FY2017_W	2910720	W_2910720_20170619	Water	"River water"	2017	6	19					Asia	Japan	"Konin-bashi bridge, Tera-kawa Riv., Nara"	34.53166667		135.7961111																																										"Applying butachlor."	2019/5/31	2019/5/31
PRA000089	SAA005187	ST015		ZETTAICODE_FY2017_W	2910720	W_2910720_20170622	Water	"River water"	2017	6	22					Asia	Japan	"Konin-bashi bridge, Tera-kawa Riv., Nara"	34.53166667		135.7961111																																										"End of rice-planitng; Applying butachlor."	2019/5/31	2019/5/31
PRA000089	SAA005188	ST015		ZETTAICODE_FY2017_W	2910720	W_2910720_20170626	Water	"River water"	2017	6	26					Asia	Japan	"Konin-bashi bridge, Tera-kawa Riv., Nara"	34.53166667		135.7961111																																										"Applying butachlor."	2019/5/31	2019/5/31
PRA000089	SAA005189	ST015		ZETTAICODE_FY2017_W	2910720	W_2910720_20170629	Water	"River water"	2017	6	29					Asia	Japan	"Konin-bashi bridge, Tera-kawa Riv., Nara"	34.53166667		135.7961111																																										"Applying butachlor."	2019/5/31	2019/5/31
PRA000089	SAA005190	ST015		ZETTAICODE_FY2017_W	2910720	W_2910720_20170703	Water	"River water"	2017	7	3					Asia	Japan	"Konin-bashi bridge, Tera-kawa Riv., Nara"	34.53166667		135.7961111																																										"End of Applying butachlor."	2019/5/31	2019/5/31
PRA000089	SAA005191	ST015		ZETTAICODE_FY2017_W	2910720	W_2910720_20170706	Water	"River water"	2017	7	6					Asia	Japan	"Konin-bashi bridge, Tera-kawa Riv., Nara"	34.53166667		135.7961111																																											2019/5/31	2019/5/31
PRA000089	SAA005192	ST015		ZETTAICODE_FY2017_W	2910720	W_2910720_20170710	Water	"River water"	2017	7	10					Asia	Japan	"Konin-bashi bridge, Tera-kawa Riv., Nara"	34.53166667		135.7961111																																											2019/5/31	2019/5/31
PRA000089	SAA005193	ST015		ZETTAICODE_FY2017_W	2910720	W_2910720_20170713	Water	"River water"	2017	7	13					Asia	Japan	"Konin-bashi bridge, Tera-kawa Riv., Nara"	34.53166667		135.7961111																																											2019/5/31	2019/5/31
PRA000089	SAA005194	ST015		ZETTAICODE_FY2017_W	2910720	W_2910720_20170718	Water	"River water"	2017	7	18					Asia	Japan	"Konin-bashi bridge, Tera-kawa Riv., Nara"	34.53166667		135.7961111																																											2019/5/31	2019/5/31
PRA000089	SAA005195	ST015		ZETTAICODE_FY2017_W	2910720	W_2910720_20170724	Water	"River water"	2017	7	24					Asia	Japan	"Konin-bashi bridge, Tera-kawa Riv., Nara"	34.53166667		135.7961111																																											2019/5/31	2019/5/31
PRA000089	SAA005196	ST015		ZETTAICODE_FY2017_W	2910720	W_2910720_20170731	Water	"River water"	2017	7	31					Asia	Japan	"Konin-bashi bridge, Tera-kawa Riv., Nara"	34.53166667		135.7961111																																											2019/5/31	2019/5/31
PRA000089	SAA005197	ST015		ZETTAICODE_FY2017_W	2910720	W_2910720_20170807	Water	"River water"	2017	8	7					Asia	Japan	"Konin-bashi bridge, Tera-kawa Riv., Nara"	34.53166667		135.7961111																																											2019/5/31	2019/5/31
PRA000089	SAA005198	ST015		ZETTAICODE_FY2017_W	2910720	W_2910720_20170814	Water	"River water"	2017	8	14					Asia	Japan	"Konin-bashi bridge, Tera-kawa Riv., Nara"	34.53166667		135.7961111																																											2019/5/31	2019/5/31
PRA000089	SAA005199	ST015		ZETTAICODE_FY2017_W	2910720	W_2910720_20170821	Water	"River water"	2017	8	21					Asia	Japan	"Konin-bashi bridge, Tera-kawa Riv., Nara"	34.53166667		135.7961111																																											2019/5/31	2019/5/31
PRA000089	SAA005200	ST015		ZETTAICODE_FY2017_W	2910720	W_2910720_20170828	Water	"River water"	2017	8	28					Asia	Japan	"Konin-bashi bridge, Tera-kawa Riv., Nara"	34.53166667		135.7961111																																											2019/5/31	2019/5/31
PRA000089	SAA005201	ST015		ZETTAICODE_FY2017_W	2910720	W_2910720_20170905	Water	"River water"	2017	9	5					Asia	Japan	"Konin-bashi bridge, Tera-kawa Riv., Nara"	34.53166667		135.7961111																																											2019/5/31	2019/5/31
PRA000089	SAA005202	ST015		ZETTAICODE_FY2017_W	2910720	W_2910720_20170911	Water	"River water"	2017	9	11					Asia	Japan	"Konin-bashi bridge, Tera-kawa Riv., Nara"	34.53166667		135.7961111																																											2019/5/31	2019/5/31
PRA000089	SAA005203	ST015		ZETTAICODE_FY2017_W	2910720	W_2910720_20170920	Water	"River water"	2017	9	20					Asia	Japan	"Konin-bashi bridge, Tera-kawa Riv., Nara"	34.53166667		135.7961111																																											2019/5/31	2019/5/31
PRA000089	SAA005204	ST015		ZETTAICODE_FY2017_W	2910720	W_2910720_20170925	Water	"River water"	2017	9	25					Asia	Japan	"Konin-bashi bridge, Tera-kawa Riv., Nara"	34.53166667		135.7961111																																											2019/5/31	2019/5/31
PRA000089	SAA005205	ST015		ZETTAICODE_FY2017_W	2910720	W_2910720_20171002	Water	"River water"	2017	10	2					Asia	Japan	"Konin-bashi bridge, Tera-kawa Riv., Nara"	34.53166667		135.7961111																																											2019/5/31	2019/5/31
PRA000089	SAA005851	ST015				W_11xyz01_20170418	Water	"River water"	2017	4	18					Asia	Japan	"Takasaka-bashi bridge, Oppe-gawa Riv., Saitama"	35.985309		139.403036																																										"Upstream of the junction with Toki-gawa Riv. "	2019/8/23	2019/8/23
PRA000089	SAA005852	ST015				W_11xyz01_20170425	Water	"River water"	2017	4	25					Asia	Japan	"Takasaka-bashi bridge, Oppe-gawa Riv., Saitama"	35.985309		139.403036																																										"Upstream of the junction with Toki-gawa Riv. "	2019/8/23	2019/8/23
PRA000089	SAA005853	ST015				W_11xyz01_20170502	Water	"River water"	2017	5	2					Asia	Japan	"Takasaka-bashi bridge, Oppe-gawa Riv., Saitama"	35.985309		139.403036																																										"Upstream of the junction with Toki-gawa Riv. "	2019/8/23	2019/8/23
PRA000089	SAA005854	ST015				W_11xyz01_20170509	Water	"River water"	2017	5	9					Asia	Japan	"Takasaka-bashi bridge, Oppe-gawa Riv., Saitama"	35.985309		139.403036																																										"Upstream of the junction with Toki-gawa Riv. "	2019/8/23	2019/8/23
PRA000089	SAA005855	ST015				W_11xyz01_20170516	Water	"River water"	2017	5	16					Asia	Japan	"Takasaka-bashi bridge, Oppe-gawa Riv., Saitama"	35.985309		139.403036																																										"Upstream of the junction with Toki-gawa Riv. "	2019/8/23	2019/8/23
PRA000089	SAA005856	ST015				W_11xyz01_20170523	Water	"River water"	2017	5	23					Asia	Japan	"Takasaka-bashi bridge, Oppe-gawa Riv., Saitama"	35.985309		139.403036																																										"Upstream of the junction with Toki-gawa Riv. "	2019/8/23	2019/8/23
PRA000089	SAA005857	ST015				W_11xyz01_20170526	Water	"River water"	2017	5	26					Asia	Japan	"Takasaka-bashi bridge, Oppe-gawa Riv., Saitama"	35.985309		139.403036																																										"Upstream of the junction with Toki-gawa Riv. "	2019/8/23	2019/8/23
PRA000089	SAA005858	ST015				W_11xyz01_20170530	Water	"River water"	2017	5	30					Asia	Japan	"Takasaka-bashi bridge, Oppe-gawa Riv., Saitama"	35.985309		139.403036																																										"Upstream of the junction with Toki-gawa Riv. "	2019/8/23	2019/8/23
PRA000089	SAA005859	ST015				W_11xyz01_20170602	Water	"River water"	2017	6	2					Asia	Japan	"Takasaka-bashi bridge, Oppe-gawa Riv., Saitama"	35.985309		139.403036																																										"Upstream of the junction with Toki-gawa Riv. "	2019/8/23	2019/8/23
PRA000089	SAA005860	ST015				W_11xyz01_20170606	Water	"River water"	2017	6	6					Asia	Japan	"Takasaka-bashi bridge, Oppe-gawa Riv., Saitama"	35.985309		139.403036																																										"Upstream of the junction with Toki-gawa Riv. "	2019/8/23	2019/8/23
PRA000089	SAA005861	ST015				W_11xyz01_20170609	Water	"River water"	2017	6	9					Asia	Japan	"Takasaka-bashi bridge, Oppe-gawa Riv., Saitama"	35.985309		139.403036																																										"Upstream of the junction with Toki-gawa Riv. "	2019/8/23	2019/8/23
PRA000089	SAA005862	ST015				W_11xyz01_20170613	Water	"River water"	2017	6	13					Asia	Japan	"Takasaka-bashi bridge, Oppe-gawa Riv., Saitama"	35.985309		139.403036																																										"Upstream of the junction with Toki-gawa Riv. "	2019/8/23	2019/8/23
PRA000089	SAA005863	ST015				W_11xyz01_20170621	Water	"River water"	2017	6	21					Asia	Japan	"Takasaka-bashi bridge, Oppe-gawa Riv., Saitama"	35.985309		139.403036																																										"Upstream of the junction with Toki-gawa Riv. "	2019/8/23	2019/8/23
PRA000089	SAA005864	ST015				W_11xyz01_20170627	Water	"River water"	2017	6	27					Asia	Japan	"Takasaka-bashi bridge, Oppe-gawa Riv., Saitama"	35.985309		139.403036																																										"Upstream of the junction with Toki-gawa Riv. "	2019/8/23	2019/8/23
PRA000089	SAA005865	ST015				W_11xyz01_20170704	Water	"River water"	2017	7	4					Asia	Japan	"Takasaka-bashi bridge, Oppe-gawa Riv., Saitama"	35.985309		139.403036																																										"Upstream of the junction with Toki-gawa Riv. "	2019/8/23	2019/8/23
PRA000089	SAA005866	ST015				W_11xyz01_20170711	Water	"River water"	2017	7	11					Asia	Japan	"Takasaka-bashi bridge, Oppe-gawa Riv., Saitama"	35.985309		139.403036																																										"Upstream of the junction with Toki-gawa Riv. "	2019/8/23	2019/8/23
PRA000089	SAA005867	ST015				W_11xyz01_20170718	Water	"River water"	2017	7	18					Asia	Japan	"Takasaka-bashi bridge, Oppe-gawa Riv., Saitama"	35.985309		139.403036																																										"Upstream of the junction with Toki-gawa Riv. "	2019/8/23	2019/8/23
PRA000089	SAA005868	ST015				W_11xyz01_20170725	Water	"River water"	2017	7	25					Asia	Japan	"Takasaka-bashi bridge, Oppe-gawa Riv., Saitama"	35.985309		139.403036																																										"Upstream of the junction with Toki-gawa Riv. "	2019/8/23	2019/8/23
PRA000089	SAA005869	ST015				W_11xyz01_20170801	Water	"River water"	2017	8	1					Asia	Japan	"Takasaka-bashi bridge, Oppe-gawa Riv., Saitama"	35.985309		139.403036																																										"Upstream of the junction with Toki-gawa Riv. "	2019/8/23	2019/8/23
PRA000089	SAA005870	ST015				W_11xyz01_20170809	Water	"River water"	2017	8	9					Asia	Japan	"Takasaka-bashi bridge, Oppe-gawa Riv., Saitama"	35.985309		139.403036																																										"Upstream of the junction with Toki-gawa Riv. "	2019/8/23	2019/8/23
PRA000089	SAA005871	ST015				W_11xyz01_20170816	Water	"River water"	2017	8	16					Asia	Japan	"Takasaka-bashi bridge, Oppe-gawa Riv., Saitama"	35.985309		139.403036																																										"Upstream of the junction with Toki-gawa Riv. "	2019/8/23	2019/8/23
PRA000089	SAA005872	ST015				W_11xyz01_20170823	Water	"River water"	2017	8	23					Asia	Japan	"Takasaka-bashi bridge, Oppe-gawa Riv., Saitama"	35.985309		139.403036																																										"Upstream of the junction with Toki-gawa Riv. "	2019/8/23	2019/8/23
PRA000089	SAA005873	ST015				W_11xyz01_20170830	Water	"River water"	2017	8	30					Asia	Japan	"Takasaka-bashi bridge, Oppe-gawa Riv., Saitama"	35.985309		139.403036																																										"Upstream of the junction with Toki-gawa Riv. "	2019/8/23	2019/8/23
PRA000089	SAA005874	ST015				W_11xyz02_20170418	Water	"River water"	2017	4	18					Asia	Japan	"Ogino 2gou-bashi bridge, Iimori-gawa Riv., Saitama"	35.978447		139.440399																																										"About 5 km upstream from Ochiai-bashi bridge"	2019/8/23	2019/8/23
PRA000089	SAA005875	ST015				W_11xyz02_20170425	Water	"River water"	2017	4	25					Asia	Japan	"Ogino 2gou-bashi bridge, Iimori-gawa Riv., Saitama"	35.978447		139.440399																																										"About 5 km upstream from Ochiai-bashi bridge"	2019/8/23	2019/8/23
PRA000089	SAA005876	ST015				W_11xyz02_20170502	Water	"River water"	2017	5	2					Asia	Japan	"Ogino 2gou-bashi bridge, Iimori-gawa Riv., Saitama"	35.978447		139.440399																																										"About 5 km upstream from Ochiai-bashi bridge"	2019/8/23	2019/8/23
PRA000089	SAA005877	ST015				W_11xyz02_20170509	Water	"River water"	2017	5	9					Asia	Japan	"Ogino 2gou-bashi bridge, Iimori-gawa Riv., Saitama"	35.978447		139.440399																																										"About 5 km upstream from Ochiai-bashi bridge"	2019/8/23	2019/8/23
PRA000089	SAA005878	ST015				W_11xyz02_20170516	Water	"River water"	2017	5	16					Asia	Japan	"Ogino 2gou-bashi bridge, Iimori-gawa Riv., Saitama"	35.978447		139.440399																																										"About 5 km upstream from Ochiai-bashi bridge"	2019/8/23	2019/8/23
PRA000089	SAA005879	ST015				W_11xyz02_20170523	Water	"River water"	2017	5	23					Asia	Japan	"Ogino 2gou-bashi bridge, Iimori-gawa Riv., Saitama"	35.978447		139.440399																																										"About 5 km upstream from Ochiai-bashi bridge"	2019/8/23	2019/8/23
PRA000089	SAA005880	ST015				W_11xyz02_20170526	Water	"River water"	2017	5	26					Asia	Japan	"Ogino 2gou-bashi bridge, Iimori-gawa Riv., Saitama"	35.978447		139.440399																																										"About 5 km upstream from Ochiai-bashi bridge"	2019/8/23	2019/8/23
PRA000089	SAA005881	ST015				W_11xyz02_20170530	Water	"River water"	2017	5	30					Asia	Japan	"Ogino 2gou-bashi bridge, Iimori-gawa Riv., Saitama"	35.978447		139.440399																																										"About 5 km upstream from Ochiai-bashi bridge"	2019/8/23	2019/8/23
PRA000089	SAA005882	ST015				W_11xyz02_20170602	Water	"River water"	2017	6	2					Asia	Japan	"Ogino 2gou-bashi bridge, Iimori-gawa Riv., Saitama"	35.978447		139.440399																																										"About 5 km upstream from Ochiai-bashi bridge"	2019/8/23	2019/8/23
PRA000089	SAA005883	ST015				W_11xyz02_20170606	Water	"River water"	2017	6	6					Asia	Japan	"Ogino 2gou-bashi bridge, Iimori-gawa Riv., Saitama"	35.978447		139.440399																																										"About 5 km upstream from Ochiai-bashi bridge"	2019/8/23	2019/8/23
PRA000089	SAA005884	ST015				W_11xyz02_20170609	Water	"River water"	2017	6	9					Asia	Japan	"Ogino 2gou-bashi bridge, Iimori-gawa Riv., Saitama"	35.978447		139.440399																																										"About 5 km upstream from Ochiai-bashi bridge"	2019/8/23	2019/8/23
PRA000089	SAA005885	ST015				W_11xyz02_20170613	Water	"River water"	2017	6	13					Asia	Japan	"Ogino 2gou-bashi bridge, Iimori-gawa Riv., Saitama"	35.978447		139.440399																																										"About 5 km upstream from Ochiai-bashi bridge"	2019/8/23	2019/8/23
PRA000089	SAA005886	ST015				W_11xyz02_20170621	Water	"River water"	2017	6	21					Asia	Japan	"Ogino 2gou-bashi bridge, Iimori-gawa Riv., Saitama"	35.978447		139.440399																																										"About 5 km upstream from Ochiai-bashi bridge"	2019/8/23	2019/8/23
PRA000089	SAA005887	ST015				W_11xyz02_20170627	Water	"River water"	2017	6	27					Asia	Japan	"Ogino 2gou-bashi bridge, Iimori-gawa Riv., Saitama"	35.978447		139.440399																																										"About 5 km upstream from Ochiai-bashi bridge"	2019/8/23	2019/8/23
PRA000089	SAA005888	ST015				W_11xyz02_20170704	Water	"River water"	2017	7	4					Asia	Japan	"Ogino 2gou-bashi bridge, Iimori-gawa Riv., Saitama"	35.978447		139.440399																																										"About 5 km upstream from Ochiai-bashi bridge"	2019/8/23	2019/8/23
PRA000089	SAA005889	ST015				W_11xyz02_20170711	Water	"River water"	2017	7	11					Asia	Japan	"Ogino 2gou-bashi bridge, Iimori-gawa Riv., Saitama"	35.978447		139.440399																																										"About 5 km upstream from Ochiai-bashi bridge"	2019/8/23	2019/8/23
PRA000089	SAA005890	ST015				W_11xyz02_20170718	Water	"River water"	2017	7	18					Asia	Japan	"Ogino 2gou-bashi bridge, Iimori-gawa Riv., Saitama"	35.978447		139.440399																																										"About 5 km upstream from Ochiai-bashi bridge"	2019/8/23	2019/8/23
PRA000089	SAA005891	ST015				W_11xyz02_20170725	Water	"River water"	2017	7	25					Asia	Japan	"Ogino 2gou-bashi bridge, Iimori-gawa Riv., Saitama"	35.978447		139.440399																																										"About 5 km upstream from Ochiai-bashi bridge"	2019/8/23	2019/8/23
PRA000089	SAA005892	ST015				W_11xyz02_20170801	Water	"River water"	2017	8	1					Asia	Japan	"Ogino 2gou-bashi bridge, Iimori-gawa Riv., Saitama"	35.978447		139.440399																																										"About 5 km upstream from Ochiai-bashi bridge"	2019/8/23	2019/8/23
PRA000089	SAA005893	ST015				W_11xyz02_20170809	Water	"River water"	2017	8	9					Asia	Japan	"Ogino 2gou-bashi bridge, Iimori-gawa Riv., Saitama"	35.978447		139.440399																																										"About 5 km upstream from Ochiai-bashi bridge"	2019/8/23	2019/8/23
PRA000089	SAA005894	ST015				W_11xyz02_20170816	Water	"River water"	2017	8	16					Asia	Japan	"Ogino 2gou-bashi bridge, Iimori-gawa Riv., Saitama"	35.978447		139.440399																																										"About 5 km upstream from Ochiai-bashi bridge"	2019/8/23	2019/8/23
PRA000089	SAA005895	ST015				W_11xyz02_20170823	Water	"River water"	2017	8	23					Asia	Japan	"Ogino 2gou-bashi bridge, Iimori-gawa Riv., Saitama"	35.978447		139.440399																																										"About 5 km upstream from Ochiai-bashi bridge"	2019/8/23	2019/8/23
PRA000089	SAA005896	ST015				W_11xyz02_20170830	Water	"River water"	2017	8	30					Asia	Japan	"Ogino 2gou-bashi bridge, Iimori-gawa Riv., Saitama"	35.978447		139.440399																																										"About 5 km upstream from Ochiai-bashi bridge"	2019/8/23	2019/8/23
PRA000089	SAA005897	ST015				W_11xyz03_20170418	Water	"River water"	2017	4	18					Asia	Japan	"Biwano-bashi bridge, Oppe-gawa Riv., Saitama"	35.957577		139.46014																																										"About 1 km upstream from Ochiai-bashi bridge"	2019/8/23	2019/8/23
PRA000089	SAA005898	ST015				W_11xyz03_20170425	Water	"River water"	2017	4	25					Asia	Japan	"Biwano-bashi bridge, Oppe-gawa Riv., Saitama"	35.957577		139.46014																																										"About 1 km upstream from Ochiai-bashi bridge"	2019/8/23	2019/8/23
PRA000089	SAA005899	ST015				W_11xyz03_20170502	Water	"River water"	2017	5	2					Asia	Japan	"Biwano-bashi bridge, Oppe-gawa Riv., Saitama"	35.957577		139.46014																																										"About 1 km upstream from Ochiai-bashi bridge"	2019/8/23	2019/8/23
PRA000089	SAA005900	ST015				W_11xyz03_20170509	Water	"River water"	2017	5	9					Asia	Japan	"Biwano-bashi bridge, Oppe-gawa Riv., Saitama"	35.957577		139.46014																																										"About 1 km upstream from Ochiai-bashi bridge"	2019/8/23	2019/8/23
PRA000089	SAA005901	ST015				W_11xyz03_20170516	Water	"River water"	2017	5	16					Asia	Japan	"Biwano-bashi bridge, Oppe-gawa Riv., Saitama"	35.957577		139.46014																																										"About 1 km upstream from Ochiai-bashi bridge"	2019/8/23	2019/8/23
PRA000089	SAA005902	ST015				W_11xyz03_20170523	Water	"River water"	2017	5	23					Asia	Japan	"Biwano-bashi bridge, Oppe-gawa Riv., Saitama"	35.957577		139.46014																																										"About 1 km upstream from Ochiai-bashi bridge"	2019/8/23	2019/8/23
PRA000089	SAA005903	ST015				W_11xyz03_20170526	Water	"River water"	2017	5	26					Asia	Japan	"Biwano-bashi bridge, Oppe-gawa Riv., Saitama"	35.957577		139.46014																																										"About 1 km upstream from Ochiai-bashi bridge"	2019/8/23	2019/8/23
PRA000089	SAA005904	ST015				W_11xyz03_20170530	Water	"River water"	2017	5	30					Asia	Japan	"Biwano-bashi bridge, Oppe-gawa Riv., Saitama"	35.957577		139.46014																																										"About 1 km upstream from Ochiai-bashi bridge"	2019/8/23	2019/8/23
PRA000089	SAA005905	ST015				W_11xyz03_20170602	Water	"River water"	2017	6	2					Asia	Japan	"Biwano-bashi bridge, Oppe-gawa Riv., Saitama"	35.957577		139.46014																																										"About 1 km upstream from Ochiai-bashi bridge"	2019/8/23	2019/8/23
PRA000089	SAA005906	ST015				W_11xyz03_20170606	Water	"River water"	2017	6	6					Asia	Japan	"Biwano-bashi bridge, Oppe-gawa Riv., Saitama"	35.957577		139.46014																																										"About 1 km upstream from Ochiai-bashi bridge"	2019/8/23	2019/8/23
PRA000089	SAA005907	ST015				W_11xyz03_20170609	Water	"River water"	2017	6	9					Asia	Japan	"Biwano-bashi bridge, Oppe-gawa Riv., Saitama"	35.957577		139.46014																																										"About 1 km upstream from Ochiai-bashi bridge"	2019/8/23	2019/8/23
PRA000089	SAA005908	ST015				W_11xyz03_20170613	Water	"River water"	2017	6	13					Asia	Japan	"Biwano-bashi bridge, Oppe-gawa Riv., Saitama"	35.957577		139.46014																																										"About 1 km upstream from Ochiai-bashi bridge"	2019/8/23	2019/8/23
PRA000089	SAA005909	ST015				W_11xyz03_20170621	Water	"River water"	2017	6	21					Asia	Japan	"Biwano-bashi bridge, Oppe-gawa Riv., Saitama"	35.957577		139.46014																																										"About 1 km upstream from Ochiai-bashi bridge"	2019/8/23	2019/8/23
PRA000089	SAA005910	ST015				W_11xyz03_20170627	Water	"River water"	2017	6	27					Asia	Japan	"Biwano-bashi bridge, Oppe-gawa Riv., Saitama"	35.957577		139.46014																																										"About 1 km upstream from Ochiai-bashi bridge"	2019/8/23	2019/8/23
PRA000089	SAA005911	ST015				W_11xyz03_20170704	Water	"River water"	2017	7	4					Asia	Japan	"Biwano-bashi bridge, Oppe-gawa Riv., Saitama"	35.957577		139.46014																																										"About 1 km upstream from Ochiai-bashi bridge"	2019/8/23	2019/8/23
PRA000089	SAA005912	ST015				W_11xyz03_20170711	Water	"River water"	2017	7	11					Asia	Japan	"Biwano-bashi bridge, Oppe-gawa Riv., Saitama"	35.957577		139.46014																																										"About 1 km upstream from Ochiai-bashi bridge"	2019/8/23	2019/8/23
PRA000089	SAA005913	ST015				W_11xyz03_20170718	Water	"River water"	2017	7	18					Asia	Japan	"Biwano-bashi bridge, Oppe-gawa Riv., Saitama"	35.957577		139.46014																																										"About 1 km upstream from Ochiai-bashi bridge"	2019/8/23	2019/8/23
PRA000089	SAA005914	ST015				W_11xyz03_20170725	Water	"River water"	2017	7	25					Asia	Japan	"Biwano-bashi bridge, Oppe-gawa Riv., Saitama"	35.957577		139.46014																																										"About 1 km upstream from Ochiai-bashi bridge"	2019/8/23	2019/8/23
PRA000089	SAA005915	ST015				W_11xyz03_20170801	Water	"River water"	2017	8	1					Asia	Japan	"Biwano-bashi bridge, Oppe-gawa Riv., Saitama"	35.957577		139.46014																																										"About 1 km upstream from Ochiai-bashi bridge"	2019/8/23	2019/8/23
PRA000089	SAA005916	ST015				W_11xyz03_20170809	Water	"River water"	2017	8	9					Asia	Japan	"Biwano-bashi bridge, Oppe-gawa Riv., Saitama"	35.957577		139.46014																																										"About 1 km upstream from Ochiai-bashi bridge"	2019/8/23	2019/8/23
PRA000089	SAA005917	ST015				W_11xyz03_20170816	Water	"River water"	2017	8	16					Asia	Japan	"Biwano-bashi bridge, Oppe-gawa Riv., Saitama"	35.957577		139.46014																																										"About 1 km upstream from Ochiai-bashi bridge"	2019/8/23	2019/8/23
PRA000089	SAA005918	ST015				W_11xyz03_20170823	Water	"River water"	2017	8	23					Asia	Japan	"Biwano-bashi bridge, Oppe-gawa Riv., Saitama"	35.957577		139.46014																																										"About 1 km upstream from Ochiai-bashi bridge"	2019/8/23	2019/8/23
PRA000089	SAA005919	ST015				W_11xyz03_20170830	Water	"River water"	2017	8	30					Asia	Japan	"Biwano-bashi bridge, Oppe-gawa Riv., Saitama"	35.957577		139.46014																																										"About 1 km upstream from Ochiai-bashi bridge"	2019/8/23	2019/8/23
PRA000089	SAA005920	ST015		ZETTAICODE_FY2017_W	1110530	W_1110530_20170418	Water	"River water"	2017	4	18					Asia	Japan	"Ochiai-bashi bridge, Oppe-gawa Riv., Saitama"	35.960372		139.472228																																											2019/8/23	2019/8/23
PRA000089	SAA005921	ST015		ZETTAICODE_FY2017_W	1110530	W_1110530_20170425	Water	"River water"	2017	4	25					Asia	Japan	"Ochiai-bashi bridge, Oppe-gawa Riv., Saitama"	35.960372		139.472228																																											2019/8/23	2019/8/23
PRA000089	SAA005922	ST015		ZETTAICODE_FY2017_W	1110530	W_1110530_20170502	Water	"River water"	2017	5	2					Asia	Japan	"Ochiai-bashi bridge, Oppe-gawa Riv., Saitama"	35.960372		139.472228																																											2019/8/23	2019/8/23
PRA000089	SAA005923	ST015		ZETTAICODE_FY2017_W	1110530	W_1110530_20170509	Water	"River water"	2017	5	9					Asia	Japan	"Ochiai-bashi bridge, Oppe-gawa Riv., Saitama"	35.960372		139.472228																																											2019/8/23	2019/8/23
PRA000089	SAA005924	ST015		ZETTAICODE_FY2017_W	1110530	W_1110530_20170516	Water	"River water"	2017	5	16					Asia	Japan	"Ochiai-bashi bridge, Oppe-gawa Riv., Saitama"	35.960372		139.472228																																											2019/8/23	2019/8/23
PRA000089	SAA005925	ST015		ZETTAICODE_FY2017_W	1110530	W_1110530_20170523	Water	"River water"	2017	5	23					Asia	Japan	"Ochiai-bashi bridge, Oppe-gawa Riv., Saitama"	35.960372		139.472228																																											2019/8/23	2019/8/23
PRA000089	SAA005926	ST015		ZETTAICODE_FY2017_W	1110530	W_1110530_20170526	Water	"River water"	2017	5	26					Asia	Japan	"Ochiai-bashi bridge, Oppe-gawa Riv., Saitama"	35.960372		139.472228																																											2019/8/23	2019/8/23
PRA000089	SAA005927	ST015		ZETTAICODE_FY2017_W	1110530	W_1110530_20170530	Water	"River water"	2017	5	30					Asia	Japan	"Ochiai-bashi bridge, Oppe-gawa Riv., Saitama"	35.960372		139.472228																																											2019/8/23	2019/8/23
PRA000089	SAA005928	ST015		ZETTAICODE_FY2017_W	1110530	W_1110530_20170602	Water	"River water"	2017	6	2					Asia	Japan	"Ochiai-bashi bridge, Oppe-gawa Riv., Saitama"	35.960372		139.472228																																											2019/8/23	2019/8/23
PRA000089	SAA005929	ST015		ZETTAICODE_FY2017_W	1110530	W_1110530_20170606	Water	"River water"	2017	6	6					Asia	Japan	"Ochiai-bashi bridge, Oppe-gawa Riv., Saitama"	35.960372		139.472228																																											2019/8/23	2019/8/23
PRA000089	SAA005930	ST015		ZETTAICODE_FY2017_W	1110530	W_1110530_20170609	Water	"River water"	2017	6	9					Asia	Japan	"Ochiai-bashi bridge, Oppe-gawa Riv., Saitama"	35.960372		139.472228																																											2019/8/23	2019/8/23
PRA000089	SAA005931	ST015		ZETTAICODE_FY2017_W	1110530	W_1110530_20170613	Water	"River water"	2017	6	13					Asia	Japan	"Ochiai-bashi bridge, Oppe-gawa Riv., Saitama"	35.960372		139.472228																																											2019/8/23	2019/8/23
PRA000089	SAA005932	ST015		ZETTAICODE_FY2017_W	1110530	W_1110530_20170621	Water	"River water"	2017	6	21					Asia	Japan	"Ochiai-bashi bridge, Oppe-gawa Riv., Saitama"	35.960372		139.472228																																											2019/8/23	2019/8/23
PRA000089	SAA005933	ST015		ZETTAICODE_FY2017_W	1110530	W_1110530_20170627	Water	"River water"	2017	6	27					Asia	Japan	"Ochiai-bashi bridge, Oppe-gawa Riv., Saitama"	35.960372		139.472228																																											2019/8/23	2019/8/23
PRA000089	SAA005934	ST015		ZETTAICODE_FY2017_W	1110530	W_1110530_20170704	Water	"River water"	2017	7	4					Asia	Japan	"Ochiai-bashi bridge, Oppe-gawa Riv., Saitama"	35.960372		139.472228																																											2019/8/23	2019/8/23
PRA000089	SAA005935	ST015		ZETTAICODE_FY2017_W	1110530	W_1110530_20170711	Water	"River water"	2017	7	11					Asia	Japan	"Ochiai-bashi bridge, Oppe-gawa Riv., Saitama"	35.960372		139.472228																																											2019/8/23	2019/8/23
PRA000089	SAA005936	ST015		ZETTAICODE_FY2017_W	1110530	W_1110530_20170718	Water	"River water"	2017	7	18					Asia	Japan	"Ochiai-bashi bridge, Oppe-gawa Riv., Saitama"	35.960372		139.472228																																											2019/8/23	2019/8/23
PRA000089	SAA005937	ST015		ZETTAICODE_FY2017_W	1110530	W_1110530_20170725	Water	"River water"	2017	7	25					Asia	Japan	"Ochiai-bashi bridge, Oppe-gawa Riv., Saitama"	35.960372		139.472228																																											2019/8/23	2019/8/23
PRA000089	SAA005938	ST015		ZETTAICODE_FY2017_W	1110530	W_1110530_20170801	Water	"River water"	2017	8	1					Asia	Japan	"Ochiai-bashi bridge, Oppe-gawa Riv., Saitama"	35.960372		139.472228																																											2019/8/23	2019/8/23
PRA000089	SAA005939	ST015		ZETTAICODE_FY2017_W	1110530	W_1110530_20170809	Water	"River water"	2017	8	9					Asia	Japan	"Ochiai-bashi bridge, Oppe-gawa Riv., Saitama"	35.960372		139.472228																																											2019/8/23	2019/8/23
PRA000089	SAA005940	ST015		ZETTAICODE_FY2017_W	1110530	W_1110530_20170816	Water	"River water"	2017	8	16					Asia	Japan	"Ochiai-bashi bridge, Oppe-gawa Riv., Saitama"	35.960372		139.472228																																											2019/8/23	2019/8/23
PRA000089	SAA005941	ST015		ZETTAICODE_FY2017_W	1110530	W_1110530_20170823	Water	"River water"	2017	8	23					Asia	Japan	"Ochiai-bashi bridge, Oppe-gawa Riv., Saitama"	35.960372		139.472228																																											2019/8/23	2019/8/23
PRA000089	SAA005942	ST015		ZETTAICODE_FY2017_W	1110530	W_1110530_20170830	Water	"River water"	2017	8	30					Asia	Japan	"Ochiai-bashi bridge, Oppe-gawa Riv., Saitama"	35.960372		139.472228																																											2019/8/23	2019/8/23
PRA000090	SAA005206	ST015		ZETTAICODE_FY2016_W	2710440	W_2710440_20160509	Water	"River water"	2016	5	9					Asia	Japan	"Ishikawa-bashi bridge, Ishi-kawa Riv., Osaka"	34.57		135.6219445																																											2019/6/5	2019/6/5
PRA000090	SAA005207	ST015		ZETTAICODE_FY2016_W	2710440	W_2710440_20160516	Water	"River water"	2016	5	16					Asia	Japan	"Ishikawa-bashi bridge, Ishi-kawa Riv., Osaka"	34.57		135.6219445																																											2019/6/5	2019/6/5
PRA000090	SAA005208	ST015		ZETTAICODE_FY2016_W	2710440	W_2710440_20160523	Water	"River water"	2016	5	23					Asia	Japan	"Ishikawa-bashi bridge, Ishi-kawa Riv., Osaka"	34.57		135.6219445																																										"Start of Rice-planting season"	2019/6/5	2019/6/5
PRA000090	SAA005209	ST015		ZETTAICODE_FY2016_W	2710440	W_2710440_20160527	Water	"River water"	2016	5	27					Asia	Japan	"Ishikawa-bashi bridge, Ishi-kawa Riv., Osaka"	34.57		135.6219445																																										"Rice-planting season"	2019/6/5	2019/6/5
PRA000090	SAA005210	ST015		ZETTAICODE_FY2016_W	2710440	W_2710440_20160530	Water	"River water"	2016	5	30					Asia	Japan	"Ishikawa-bashi bridge, Ishi-kawa Riv., Osaka"	34.57		135.6219445																																										"Rice-planting season"	2019/6/5	2019/6/5
PRA000090	SAA005211	ST015		ZETTAICODE_FY2016_W	2710440	W_2710440_20160601	Water	"River water"	2016	6	1					Asia	Japan	"Ishikawa-bashi bridge, Ishi-kawa Riv., Osaka"	34.57		135.6219445																																										"Rice-planting season"	2019/6/5	2019/6/5
PRA000090	SAA005212	ST015		ZETTAICODE_FY2016_W	2710440	W_2710440_20160603	Water	"River water"	2016	6	3					Asia	Japan	"Ishikawa-bashi bridge, Ishi-kawa Riv., Osaka"	34.57		135.6219445																																										"Rice-planting season"	2019/6/5	2019/6/5
PRA000090	SAA005213	ST015		ZETTAICODE_FY2016_W	2710440	W_2710440_20160606	Water	"River water"	2016	6	6					Asia	Japan	"Ishikawa-bashi bridge, Ishi-kawa Riv., Osaka"	34.57		135.6219445																																										"Rice-planting season"	2019/6/5	2019/6/5
PRA000090	SAA005214	ST015		ZETTAICODE_FY2016_W	2710440	W_2710440_20160608	Water	"River water"	2016	6	8					Asia	Japan	"Ishikawa-bashi bridge, Ishi-kawa Riv., Osaka"	34.57		135.6219445																																										"Rice-planting season"	2019/6/5	2019/6/5
PRA000090	SAA005215	ST015		ZETTAICODE_FY2016_W	2710440	W_2710440_20160610	Water	"River water"	2016	6	10					Asia	Japan	"Ishikawa-bashi bridge, Ishi-kawa Riv., Osaka"	34.57		135.6219445																																										"Rice-planting season (Highest)"	2019/6/5	2019/6/5
PRA000090	SAA005216	ST015		ZETTAICODE_FY2016_W	2710440	W_2710440_20160613	Water	"River water"	2016	6	13					Asia	Japan	"Ishikawa-bashi bridge, Ishi-kawa Riv., Osaka"	34.57		135.6219445																																										"Rice-planting season"	2019/6/5	2019/6/5
PRA000090	SAA005217	ST015		ZETTAICODE_FY2016_W	2710440	W_2710440_20160617	Water	"River water"	2016	6	17					Asia	Japan	"Ishikawa-bashi bridge, Ishi-kawa Riv., Osaka"	34.57		135.6219445																																										"Rice-planting season"	2019/6/5	2019/6/5
PRA000090	SAA005218	ST015		ZETTAICODE_FY2016_W	2710440	W_2710440_20160620	Water	"River water"	2016	6	20					Asia	Japan	"Ishikawa-bashi bridge, Ishi-kawa Riv., Osaka"	34.57		135.6219445																																										"End of rice-planting season"	2019/6/5	2019/6/5
PRA000090	SAA005219	ST015		ZETTAICODE_FY2016_W	2710440	W_2710440_20160624	Water	"River water"	2016	6	24					Asia	Japan	"Ishikawa-bashi bridge, Ishi-kawa Riv., Osaka"	34.57		135.6219445																																											2019/6/5	2019/6/5
PRA000090	SAA005220	ST015		ZETTAICODE_FY2016_W	2710440	W_2710440_20160627	Water	"River water"	2016	6	27					Asia	Japan	"Ishikawa-bashi bridge, Ishi-kawa Riv., Osaka"	34.57		135.6219445																																											2019/6/5	2019/6/5
PRA000090	SAA005221	ST015		ZETTAICODE_FY2016_W	2710440	W_2710440_20160701	Water	"River water"	2016	7	1					Asia	Japan	"Ishikawa-bashi bridge, Ishi-kawa Riv., Osaka"	34.57		135.6219445																																											2019/6/5	2019/6/5
PRA000090	SAA005222	ST015		ZETTAICODE_FY2016_W	2710440	W_2710440_20160704	Water	"River water"	2016	7	4					Asia	Japan	"Ishikawa-bashi bridge, Ishi-kawa Riv., Osaka"	34.57		135.6219445																																											2019/6/5	2019/6/5
PRA000090	SAA005223	ST015		ZETTAICODE_FY2016_W	2710440	W_2710440_20160711	Water	"River water"	2016	7	11					Asia	Japan	"Ishikawa-bashi bridge, Ishi-kawa Riv., Osaka"	34.57		135.6219445																																											2019/6/5	2019/6/5
PRA000090	SAA005224	ST015		ZETTAICODE_FY2016_W	2710440	W_2710440_20160719	Water	"River water"	2016	7	19					Asia	Japan	"Ishikawa-bashi bridge, Ishi-kawa Riv., Osaka"	34.57		135.6219445																																											2019/6/5	2019/6/5
PRA000090	SAA005225	ST015		ZETTAICODE_FY2016_W	2712050	W_2712050_20160509	Water	"River water"	2016	5	9					Asia	Japan	"Enmyo-bashi bridge, Asuka Riv., Osaka"	34.55555556		135.6205556																																											2019/6/5	2019/6/5
PRA000090	SAA005226	ST015		ZETTAICODE_FY2016_W	2712050	W_2712050_20160516	Water	"River water"	2016	5	16					Asia	Japan	"Enmyo-bashi bridge, Asuka Riv., Osaka"	34.55555556		135.6205556																																											2019/6/5	2019/6/5
PRA000090	SAA005227	ST015		ZETTAICODE_FY2016_W	2712050	W_2712050_20160523	Water	"River water"	2016	5	23					Asia	Japan	"Enmyo-bashi bridge, Asuka Riv., Osaka"	34.55555556		135.6205556																																										"Start of Rice-planting season"	2019/6/5	2019/6/5
PRA000090	SAA005228	ST015		ZETTAICODE_FY2016_W	2712050	W_2712050_20160527	Water	"River water"	2016	5	27					Asia	Japan	"Enmyo-bashi bridge, Asuka Riv., Osaka"	34.55555556		135.6205556																																										"Rice-planting season"	2019/6/5	2019/6/5
PRA000090	SAA005229	ST015		ZETTAICODE_FY2016_W	2712050	W_2712050_20160530	Water	"River water"	2016	5	30					Asia	Japan	"Enmyo-bashi bridge, Asuka Riv., Osaka"	34.55555556		135.6205556																																										"Rice-planting season"	2019/6/5	2019/6/5
PRA000090	SAA005230	ST015		ZETTAICODE_FY2016_W	2712050	W_2712050_20160601	Water	"River water"	2016	6	1					Asia	Japan	"Enmyo-bashi bridge, Asuka Riv., Osaka"	34.55555556		135.6205556																																										"Rice-planting season"	2019/6/5	2019/6/5
PRA000090	SAA005231	ST015		ZETTAICODE_FY2016_W	2712050	W_2712050_20160603	Water	"River water"	2016	6	3					Asia	Japan	"Enmyo-bashi bridge, Asuka Riv., Osaka"	34.55555556		135.6205556																																										"Rice-planting season"	2019/6/5	2019/6/5
PRA000090	SAA005232	ST015		ZETTAICODE_FY2016_W	2712050	W_2712050_20160606	Water	"River water"	2016	6	6					Asia	Japan	"Enmyo-bashi bridge, Asuka Riv., Osaka"	34.55555556		135.6205556																																										"Rice-planting season"	2019/6/5	2019/6/5
PRA000090	SAA005233	ST015		ZETTAICODE_FY2016_W	2712050	W_2712050_20160608	Water	"River water"	2016	6	8					Asia	Japan	"Enmyo-bashi bridge, Asuka Riv., Osaka"	34.55555556		135.6205556																																										"Rice-planting season"	2019/6/5	2019/6/5
PRA000090	SAA005234	ST015		ZETTAICODE_FY2016_W	2712050	W_2712050_20160610	Water	"River water"	2016	6	10					Asia	Japan	"Enmyo-bashi bridge, Asuka Riv., Osaka"	34.55555556		135.6205556																																										"Rice-planting season (Highest)"	2019/6/5	2019/6/5
PRA000090	SAA005235	ST015		ZETTAICODE_FY2016_W	2712050	W_2712050_20160613	Water	"River water"	2016	6	13					Asia	Japan	"Enmyo-bashi bridge, Asuka Riv., Osaka"	34.55555556		135.6205556																																										"Rice-planting season"	2019/6/5	2019/6/5
PRA000090	SAA005236	ST015		ZETTAICODE_FY2016_W	2712050	W_2712050_20160617	Water	"River water"	2016	6	17					Asia	Japan	"Enmyo-bashi bridge, Asuka Riv., Osaka"	34.55555556		135.6205556																																										"Rice-planting season"	2019/6/5	2019/6/5
PRA000090	SAA005237	ST015		ZETTAICODE_FY2016_W	2712050	W_2712050_20160620	Water	"River water"	2016	6	20					Asia	Japan	"Enmyo-bashi bridge, Asuka Riv., Osaka"	34.55555556		135.6205556																																										"End of rice-planting season"	2019/6/5	2019/6/5
PRA000090	SAA005238	ST015		ZETTAICODE_FY2016_W	2712050	W_2712050_20160624	Water	"River water"	2016	6	24					Asia	Japan	"Enmyo-bashi bridge, Asuka Riv., Osaka"	34.55555556		135.6205556																																											2019/6/5	2019/6/5
PRA000090	SAA005239	ST015		ZETTAICODE_FY2016_W	2712050	W_2712050_20160627	Water	"River water"	2016	6	27					Asia	Japan	"Enmyo-bashi bridge, Asuka Riv., Osaka"	34.55555556		135.6205556																																											2019/6/5	2019/6/5
PRA000090	SAA005240	ST015		ZETTAICODE_FY2016_W	2712050	W_2712050_20160701	Water	"River water"	2016	7	1					Asia	Japan	"Enmyo-bashi bridge, Asuka Riv., Osaka"	34.55555556		135.6205556																																											2019/6/5	2019/6/5
PRA000090	SAA005241	ST015		ZETTAICODE_FY2016_W	2712050	W_2712050_20160704	Water	"River water"	2016	7	4					Asia	Japan	"Enmyo-bashi bridge, Asuka Riv., Osaka"	34.55555556		135.6205556																																											2019/6/5	2019/6/5
PRA000090	SAA005242	ST015		ZETTAICODE_FY2016_W	2712050	W_2712050_20160711	Water	"River water"	2016	7	11					Asia	Japan	"Enmyo-bashi bridge, Asuka Riv., Osaka"	34.55555556		135.6205556																																											2019/6/5	2019/6/5
PRA000090	SAA005243	ST015		ZETTAICODE_FY2016_W	2712050	W_2712050_20160719	Water	"River water"	2016	7	19					Asia	Japan	"Enmyo-bashi bridge, Asuka Riv., Osaka"	34.55555556		135.6205556																																											2019/6/5	2019/6/5
PRA000090	SAA005244	ST015		ZETTAICODE_FY2016_W	2712070	W_2712070_20160509	Water	"River water"	2016	5	9					Asia	Japan	"Otomo-bashi bridge, Sabi Riv., Osaka"	34.49944444		135.6086111																																											2019/6/5	2019/6/5
PRA000090	SAA005245	ST015		ZETTAICODE_FY2016_W	2712070	W_2712070_20160516	Water	"River water"	2016	5	16					Asia	Japan	"Otomo-bashi bridge, Sabi Riv., Osaka"	34.49944444		135.6086111																																											2019/6/5	2019/6/5
PRA000090	SAA005246	ST015		ZETTAICODE_FY2016_W	2712070	W_2712070_20160523	Water	"River water"	2016	5	23					Asia	Japan	"Otomo-bashi bridge, Sabi Riv., Osaka"	34.49944444		135.6086111																																										"Start of Rice-planting season"	2019/6/5	2019/6/5
PRA000090	SAA005247	ST015		ZETTAICODE_FY2016_W	2712070	W_2712070_20160527	Water	"River water"	2016	5	27					Asia	Japan	"Otomo-bashi bridge, Sabi Riv., Osaka"	34.49944444		135.6086111																																										"Rice-planting season"	2019/6/5	2019/6/5
PRA000090	SAA005248	ST015		ZETTAICODE_FY2016_W	2712070	W_2712070_20160530	Water	"River water"	2016	5	30					Asia	Japan	"Otomo-bashi bridge, Sabi Riv., Osaka"	34.49944444		135.6086111																																										"Rice-planting season"	2019/6/5	2019/6/5
PRA000090	SAA005249	ST015		ZETTAICODE_FY2016_W	2712070	W_2712070_20160601	Water	"River water"	2016	6	1					Asia	Japan	"Otomo-bashi bridge, Sabi Riv., Osaka"	34.49944444		135.6086111																																										"Rice-planting season"	2019/6/5	2019/6/5
PRA000090	SAA005250	ST015		ZETTAICODE_FY2016_W	2712070	W_2712070_20160603	Water	"River water"	2016	6	3					Asia	Japan	"Otomo-bashi bridge, Sabi Riv., Osaka"	34.49944444		135.6086111																																										"Rice-planting season"	2019/6/5	2019/6/5
PRA000090	SAA005251	ST015		ZETTAICODE_FY2016_W	2712070	W_2712070_20160606	Water	"River water"	2016	6	6					Asia	Japan	"Otomo-bashi bridge, Sabi Riv., Osaka"	34.49944444		135.6086111																																										"Rice-planting season"	2019/6/5	2019/6/5
PRA000090	SAA005252	ST015		ZETTAICODE_FY2016_W	2712070	W_2712070_20160608	Water	"River water"	2016	6	8					Asia	Japan	"Otomo-bashi bridge, Sabi Riv., Osaka"	34.49944444		135.6086111																																										"Rice-planting season"	2019/6/5	2019/6/5
PRA000090	SAA005253	ST015		ZETTAICODE_FY2016_W	2712070	W_2712070_20160610	Water	"River water"	2016	6	10					Asia	Japan	"Otomo-bashi bridge, Sabi Riv., Osaka"	34.49944444		135.6086111																																										"Rice-planting season (Highest)"	2019/6/5	2019/6/5
PRA000090	SAA005254	ST015		ZETTAICODE_FY2016_W	2712070	W_2712070_20160613	Water	"River water"	2016	6	13					Asia	Japan	"Otomo-bashi bridge, Sabi Riv., Osaka"	34.49944444		135.6086111																																										"Rice-planting season"	2019/6/5	2019/6/5
PRA000090	SAA005255	ST015		ZETTAICODE_FY2016_W	2712070	W_2712070_20160617	Water	"River water"	2016	6	17					Asia	Japan	"Otomo-bashi bridge, Sabi Riv., Osaka"	34.49944444		135.6086111																																										"Rice-planting season"	2019/6/5	2019/6/5
PRA000090	SAA005256	ST015		ZETTAICODE_FY2016_W	2712070	W_2712070_20160620	Water	"River water"	2016	6	20					Asia	Japan	"Otomo-bashi bridge, Sabi Riv., Osaka"	34.49944444		135.6086111																																										"End of rice-planting season"	2019/6/5	2019/6/5
PRA000090	SAA005257	ST015		ZETTAICODE_FY2016_W	2712070	W_2712070_20160624	Water	"River water"	2016	6	24					Asia	Japan	"Otomo-bashi bridge, Sabi Riv., Osaka"	34.49944444		135.6086111																																											2019/6/5	2019/6/5
PRA000090	SAA005258	ST015		ZETTAICODE_FY2016_W	2712070	W_2712070_20160627	Water	"River water"	2016	6	27					Asia	Japan	"Otomo-bashi bridge, Sabi Riv., Osaka"	34.49944444		135.6086111																																											2019/6/5	2019/6/5
PRA000090	SAA005259	ST015		ZETTAICODE_FY2016_W	2712070	W_2712070_20160701	Water	"River water"	2016	7	1					Asia	Japan	"Otomo-bashi bridge, Sabi Riv., Osaka"	34.49944444		135.6086111																																											2019/6/5	2019/6/5
PRA000090	SAA005260	ST015		ZETTAICODE_FY2016_W	2712070	W_2712070_20160704	Water	"River water"	2016	7	4					Asia	Japan	"Otomo-bashi bridge, Sabi Riv., Osaka"	34.49944444		135.6086111																																											2019/6/5	2019/6/5
PRA000090	SAA005261	ST015		ZETTAICODE_FY2016_W	2712070	W_2712070_20160711	Water	"River water"	2016	7	11					Asia	Japan	"Otomo-bashi bridge, Sabi Riv., Osaka"	34.49944444		135.6086111																																											2019/6/5	2019/6/5
PRA000090	SAA005262	ST015		ZETTAICODE_FY2016_W	2712070	W_2712070_20160719	Water	"River water"	2016	7	19					Asia	Japan	"Otomo-bashi bridge, Sabi Riv., Osaka"	34.49944444		135.6086111																																											2019/6/5	2019/6/5
PRA000090	SAA005263	ST015		ZETTAICODE_FY2016_W	2710430	W_2710430_20160509	Water	"River water"	2016	5	9					Asia	Japan	"Taka-hashi bridge, Ishi-kawa Riv., Osaka"	34.47916667		135.5872222																																											2019/6/5	2019/6/5
PRA000090	SAA005264	ST015		ZETTAICODE_FY2016_W	2710430	W_2710430_20160516	Water	"River water"	2016	5	16					Asia	Japan	"Taka-hashi bridge, Ishi-kawa Riv., Osaka"	34.47916667		135.5872222																																											2019/6/5	2019/6/5
PRA000090	SAA005265	ST015		ZETTAICODE_FY2016_W	2710430	W_2710430_20160523	Water	"River water"	2016	5	23					Asia	Japan	"Taka-hashi bridge, Ishi-kawa Riv., Osaka"	34.47916667		135.5872222																																										"Start of Rice-planting season"	2019/6/5	2019/6/5
PRA000090	SAA005266	ST015		ZETTAICODE_FY2016_W	2710430	W_2710430_20160527	Water	"River water"	2016	5	27					Asia	Japan	"Taka-hashi bridge, Ishi-kawa Riv., Osaka"	34.47916667		135.5872222																																										"Rice-planting season"	2019/6/5	2019/6/5
PRA000090	SAA005267	ST015		ZETTAICODE_FY2016_W	2710430	W_2710430_20160530	Water	"River water"	2016	5	30					Asia	Japan	"Taka-hashi bridge, Ishi-kawa Riv., Osaka"	34.47916667		135.5872222																																										"Rice-planting season"	2019/6/5	2019/6/5
PRA000090	SAA005268	ST015		ZETTAICODE_FY2016_W	2710430	W_2710430_20160601	Water	"River water"	2016	6	1					Asia	Japan	"Taka-hashi bridge, Ishi-kawa Riv., Osaka"	34.47916667		135.5872222																																										"Rice-planting season"	2019/6/5	2019/6/5
PRA000090	SAA005269	ST015		ZETTAICODE_FY2016_W	2710430	W_2710430_20160603	Water	"River water"	2016	6	3					Asia	Japan	"Taka-hashi bridge, Ishi-kawa Riv., Osaka"	34.47916667		135.5872222																																										"Rice-planting season"	2019/6/5	2019/6/5
PRA000090	SAA005270	ST015		ZETTAICODE_FY2016_W	2710430	W_2710430_20160606	Water	"River water"	2016	6	6					Asia	Japan	"Taka-hashi bridge, Ishi-kawa Riv., Osaka"	34.47916667		135.5872222																																										"Rice-planting season"	2019/6/5	2019/6/5
PRA000090	SAA005271	ST015		ZETTAICODE_FY2016_W	2710430	W_2710430_20160608	Water	"River water"	2016	6	8					Asia	Japan	"Taka-hashi bridge, Ishi-kawa Riv., Osaka"	34.47916667		135.5872222																																										"Rice-planting season"	2019/6/5	2019/6/5
PRA000090	SAA005272	ST015		ZETTAICODE_FY2016_W	2710430	W_2710430_20160610	Water	"River water"	2016	6	10					Asia	Japan	"Taka-hashi bridge, Ishi-kawa Riv., Osaka"	34.47916667		135.5872222																																										"Rice-planting season (Highest)"	2019/6/5	2019/6/5
PRA000090	SAA005273	ST015		ZETTAICODE_FY2016_W	2710430	W_2710430_20160613	Water	"River water"	2016	6	13					Asia	Japan	"Taka-hashi bridge, Ishi-kawa Riv., Osaka"	34.47916667		135.5872222																																										"Rice-planting season"	2019/6/5	2019/6/5
PRA000090	SAA005274	ST015		ZETTAICODE_FY2016_W	2710430	W_2710430_20160617	Water	"River water"	2016	6	17					Asia	Japan	"Taka-hashi bridge, Ishi-kawa Riv., Osaka"	34.47916667		135.5872222																																										"Rice-planting season"	2019/6/5	2019/6/5
PRA000090	SAA005275	ST015		ZETTAICODE_FY2016_W	2710430	W_2710430_20160620	Water	"River water"	2016	6	20					Asia	Japan	"Taka-hashi bridge, Ishi-kawa Riv., Osaka"	34.47916667		135.5872222																																										"End of rice-planting season"	2019/6/5	2019/6/5
PRA000090	SAA005276	ST015		ZETTAICODE_FY2016_W	2710430	W_2710430_20160624	Water	"River water"	2016	6	24					Asia	Japan	"Taka-hashi bridge, Ishi-kawa Riv., Osaka"	34.47916667		135.5872222																																											2019/6/5	2019/6/5
PRA000090	SAA005277	ST015		ZETTAICODE_FY2016_W	2710430	W_2710430_20160627	Water	"River water"	2016	6	27					Asia	Japan	"Taka-hashi bridge, Ishi-kawa Riv., Osaka"	34.47916667		135.5872222																																											2019/6/5	2019/6/5
PRA000090	SAA005278	ST015		ZETTAICODE_FY2016_W	2710430	W_2710430_20160701	Water	"River water"	2016	7	1					Asia	Japan	"Taka-hashi bridge, Ishi-kawa Riv., Osaka"	34.47916667		135.5872222																																											2019/6/5	2019/6/5
PRA000090	SAA005279	ST015		ZETTAICODE_FY2016_W	2710430	W_2710430_20160704	Water	"River water"	2016	7	4					Asia	Japan	"Taka-hashi bridge, Ishi-kawa Riv., Osaka"	34.47916667		135.5872222																																											2019/6/5	2019/6/5
PRA000090	SAA005280	ST015		ZETTAICODE_FY2016_W	2710430	W_2710430_20160711	Water	"River water"	2016	7	11					Asia	Japan	"Taka-hashi bridge, Ishi-kawa Riv., Osaka"	34.47916667		135.5872222																																											2019/6/5	2019/6/5
PRA000090	SAA005281	ST015		ZETTAICODE_FY2016_W	2710430	W_2710430_20160719	Water	"River water"	2016	7	19					Asia	Japan	"Taka-hashi bridge, Ishi-kawa Riv., Osaka"	34.47916667		135.5872222																																											2019/6/5	2019/6/5
PRA000090	SAA005282	ST015				W_29xyz01_20160509_	Water	"River water"	2016	5	9					Asia	Japan	"Shibu-bashi bridge, Asuka Riv., Nara"	34.49631		135.801514																																											2019/6/5	2019/6/5
PRA000090	SAA005283	ST015				W_29xyz01_20160511_	Water	"River water"	2016	5	11					Asia	Japan	"Shibu-bashi bridge, Asuka Riv., Nara"	34.49631		135.801514																																											2019/6/5	2019/6/5
PRA000090	SAA005284	ST015				W_29xyz01_20160523	Water	"River water"	2016	5	23					Asia	Japan	"Shibu-bashi bridge, Asuka Riv., Nara"	34.49631		135.801514																																											2019/6/5	2019/6/5
PRA000090	SAA005285	ST015				W_29xyz01_20160530	Water	"River water"	2016	5	30					Asia	Japan	"Shibu-bashi bridge, Asuka Riv., Nara"	34.49631		135.801514																																										"Started preparing rice fields for planting by flooding them and tilling the soil; Started applying butachlor"	2019/6/5	2019/6/5
PRA000090	SAA005286	ST015				W_29xyz01_20160602	Water	"River water"	2016	6	2					Asia	Japan	"Shibu-bashi bridge, Asuka Riv., Nara"	34.49631		135.801514																																										"Start of rice-planting season; Applying butachlor."	2019/6/5	2019/6/5
PRA000090	SAA005287	ST015				W_29xyz01_20160606	Water	"River water"	2016	6	6					Asia	Japan	"Shibu-bashi bridge, Asuka Riv., Nara"	34.49631		135.801514																																										"Rice-planting (10% done); Applying butachlor."	2019/6/5	2019/6/5
PRA000090	SAA005288	ST015				W_29xyz01_20160609	Water	"River water"	2016	6	9					Asia	Japan	"Shibu-bashi bridge, Asuka Riv., Nara"	34.49631		135.801514																																										"Rice-planting (20% done); Applying butachlor."	2019/6/5	2019/6/5
PRA000090	SAA005289	ST015				W_29xyz01_20160613	Water	"River water"	2016	6	13					Asia	Japan	"Shibu-bashi bridge, Asuka Riv., Nara"	34.49631		135.801514																																										"Rice-planting (70% done); Applying butachlor."	2019/6/5	2019/6/5
PRA000090	SAA005290	ST015				W_29xyz01_20160615	Water	"River water"	2016	6	15					Asia	Japan	"Shibu-bashi bridge, Asuka Riv., Nara"	34.49631		135.801514																																										"Rice-planting (80% done); Applying butachlor."	2019/6/5	2019/6/5
PRA000090	SAA005291	ST015				W_29xyz01_20160617	Water	"River water"	2016	6	17					Asia	Japan	"Shibu-bashi bridge, Asuka Riv., Nara"	34.49631		135.801514																																										"Rice-planting (90% done); Applying butachlor."	2019/6/5	2019/6/5
PRA000090	SAA005292	ST015				W_29xyz01_20160620	Water	"River water"	2016	6	20					Asia	Japan	"Shibu-bashi bridge, Asuka Riv., Nara"	34.49631		135.801514																																										"Rice-planting; Applying butachlor."	2019/6/5	2019/6/5
PRA000090	SAA005293	ST015				W_29xyz01_20160622	Water	"River water"	2016	6	22					Asia	Japan	"Shibu-bashi bridge, Asuka Riv., Nara"	34.49631		135.801514																																										"End of rice-planitng; Applying butachlor."	2019/6/5	2019/6/5
PRA000090	SAA005294	ST015				W_29xyz01_20160624	Water	"River water"	2016	6	24					Asia	Japan	"Shibu-bashi bridge, Asuka Riv., Nara"	34.49631		135.801514																																										"Applying butachlor."	2019/6/5	2019/6/5
PRA000090	SAA005295	ST015				W_29xyz01_20160627	Water	"River water"	2016	6	27					Asia	Japan	"Shibu-bashi bridge, Asuka Riv., Nara"	34.49631		135.801514																																										"Applying butachlor."	2019/6/5	2019/6/5
PRA000090	SAA005296	ST015				W_29xyz01_20160629	Water	"River water"	2016	6	29					Asia	Japan	"Shibu-bashi bridge, Asuka Riv., Nara"	34.49631		135.801514																																										"Applying butachlor."	2019/6/5	2019/6/5
PRA000090	SAA005297	ST015				W_29xyz01_20160701_	Water	"River water"	2016	7	1					Asia	Japan	"Shibu-bashi bridge, Asuka Riv., Nara"	34.49631		135.801514																																										"End of Applying butachlor."	2019/6/5	2019/6/5
PRA000090	SAA005298	ST015				W_29xyz01_20160704	Water	"River water"	2016	7	4					Asia	Japan	"Shibu-bashi bridge, Asuka Riv., Nara"	34.49631		135.801514																																											2019/6/5	2019/6/5
PRA000090	SAA005299	ST015				W_29xyz01_20160707	Water	"River water"	2016	7	7					Asia	Japan	"Shibu-bashi bridge, Asuka Riv., Nara"	34.49631		135.801514																																											2019/6/5	2019/6/5
PRA000090	SAA005300	ST015				W_29xyz01_20160711	Water	"River water"	2016	7	11					Asia	Japan	"Shibu-bashi bridge, Asuka Riv., Nara"	34.49631		135.801514																																											2019/6/5	2019/6/5
PRA000090	SAA005301	ST015				W_29xyz01_20160714	Water	"River water"	2016	7	14					Asia	Japan	"Shibu-bashi bridge, Asuka Riv., Nara"	34.49631		135.801514																																											2019/6/5	2019/6/5
PRA000090	SAA005302	ST015				W_29xyz01_20160719	Water	"River water"	2016	7	19					Asia	Japan	"Shibu-bashi bridge, Asuka Riv., Nara"	34.49631		135.801514																																											2019/6/5	2019/6/5
PRA000090	SAA005303	ST015				W_29xyz01_20160724	Water	"River water"	2016	7	24					Asia	Japan	"Shibu-bashi bridge, Asuka Riv., Nara"	34.49631		135.801514																																											2019/6/5	2019/6/5
PRA000090	SAA005304	ST015				W_29xyz01_20160801_	Water	"River water"	2016	8	1					Asia	Japan	"Shibu-bashi bridge, Asuka Riv., Nara"	34.49631		135.801514																																											2019/6/5	2019/6/5
PRA000090	SAA005305	ST015				W_29xyz01_20160808	Water	"River water"	2016	8	8					Asia	Japan	"Shibu-bashi bridge, Asuka Riv., Nara"	34.49631		135.801514																																											2019/6/5	2019/6/5
PRA000090	SAA005306	ST015				W_29xyz01_20160815	Water	"River water"	2016	8	15					Asia	Japan	"Shibu-bashi bridge, Asuka Riv., Nara"	34.49631		135.801514																																											2019/6/5	2019/6/5
PRA000090	SAA005307	ST015				W_29xyz01_20160823_	Water	"River water"	2016	8	23					Asia	Japan	"Shibu-bashi bridge, Asuka Riv., Nara"	34.49631		135.801514																																											2019/6/5	2019/6/5
PRA000090	SAA005308	ST015		ZETTAICODE_FY2016_W	2911190	W_2911190_20160509	Water	"River water"	2016	5	9					Asia	Japan	"Amakashi-bashi bridge, Asuka Riv. (1), Nara"	34.48083333		135.8169444																																											2019/6/5	2019/6/5
PRA000090	SAA005309	ST015		ZETTAICODE_FY2016_W	2911190	W_2911190_20160511	Water	"River water"	2016	5	11					Asia	Japan	"Amakashi-bashi bridge, Asuka Riv. (1), Nara"	34.48083333		135.8169444																																											2019/6/5	2019/6/5
PRA000090	SAA005310	ST015		ZETTAICODE_FY2016_W	2911190	W_2911190_20160523	Water	"River water"	2016	5	23					Asia	Japan	"Amakashi-bashi bridge, Asuka Riv. (1), Nara"	34.48083333		135.8169444																																											2019/6/5	2019/6/5
PRA000090	SAA005311	ST015		ZETTAICODE_FY2016_W	2911190	W_2911190_20160530	Water	"River water"	2016	5	30					Asia	Japan	"Amakashi-bashi bridge, Asuka Riv. (1), Nara"	34.48083333		135.8169444																																										"Started preparing rice fields for planting by flooding them and tilling the soil; Started applying butachlor"	2019/6/5	2019/6/5
PRA000090	SAA005312	ST015		ZETTAICODE_FY2016_W	2911190	W_2911190_20160602	Water	"River water"	2016	6	2					Asia	Japan	"Amakashi-bashi bridge, Asuka Riv. (1), Nara"	34.48083333		135.8169444																																										"Start of rice-planting season; Applying butachlor."	2019/6/5	2019/6/5
PRA000090	SAA005313	ST015		ZETTAICODE_FY2016_W	2911190	W_2911190_20160606	Water	"River water"	2016	6	6					Asia	Japan	"Amakashi-bashi bridge, Asuka Riv. (1), Nara"	34.48083333		135.8169444																																										"Rice-planting (10% done); Applying butachlor."	2019/6/5	2019/6/5
PRA000090	SAA005314	ST015		ZETTAICODE_FY2016_W	2911190	W_2911190_20160609	Water	"River water"	2016	6	9					Asia	Japan	"Amakashi-bashi bridge, Asuka Riv. (1), Nara"	34.48083333		135.8169444																																										"Rice-planting (20% done); Applying butachlor."	2019/6/5	2019/6/5
PRA000090	SAA005315	ST015		ZETTAICODE_FY2016_W	2911190	W_2911190_20160613	Water	"River water"	2016	6	13					Asia	Japan	"Amakashi-bashi bridge, Asuka Riv. (1), Nara"	34.48083333		135.8169444																																										"Rice-planting (70% done); Applying butachlor."	2019/6/5	2019/6/5
PRA000090	SAA005316	ST015		ZETTAICODE_FY2016_W	2911190	W_2911190_20160615	Water	"River water"	2016	6	15					Asia	Japan	"Amakashi-bashi bridge, Asuka Riv. (1), Nara"	34.48083333		135.8169444																																										"Rice-planting (80% done); Applying butachlor."	2019/6/5	2019/6/5
PRA000090	SAA005317	ST015		ZETTAICODE_FY2016_W	2911190	W_2911190_20160617	Water	"River water"	2016	6	17					Asia	Japan	"Amakashi-bashi bridge, Asuka Riv. (1), Nara"	34.48083333		135.8169444																																										"Rice-planting (90% done); Applying butachlor."	2019/6/5	2019/6/5
PRA000090	SAA005318	ST015		ZETTAICODE_FY2016_W	2911190	W_2911190_20160620	Water	"River water"	2016	6	20					Asia	Japan	"Amakashi-bashi bridge, Asuka Riv. (1), Nara"	34.48083333		135.8169444																																										"Rice-planting; Applying butachlor."	2019/6/5	2019/6/5
PRA000090	SAA005319	ST015		ZETTAICODE_FY2016_W	2911190	W_2911190_20160622	Water	"River water"	2016	6	22					Asia	Japan	"Amakashi-bashi bridge, Asuka Riv. (1), Nara"	34.48083333		135.8169444																																										"End of rice-planitng; Applying butachlor."	2019/6/5	2019/6/5
PRA000090	SAA005320	ST015		ZETTAICODE_FY2016_W	2911190	W_2911190_20160624	Water	"River water"	2016	6	24					Asia	Japan	"Amakashi-bashi bridge, Asuka Riv. (1), Nara"	34.48083333		135.8169444																																										"Applying butachlor."	2019/6/5	2019/6/5
PRA000090	SAA005321	ST015		ZETTAICODE_FY2016_W	2911190	W_2911190_20160627	Water	"River water"	2016	6	27					Asia	Japan	"Amakashi-bashi bridge, Asuka Riv. (1), Nara"	34.48083333		135.8169444																																										"Applying butachlor."	2019/6/5	2019/6/5
PRA000090	SAA005322	ST015		ZETTAICODE_FY2016_W	2911190	W_2911190_20160629	Water	"River water"	2016	6	29					Asia	Japan	"Amakashi-bashi bridge, Asuka Riv. (1), Nara"	34.48083333		135.8169444																																										"Applying butachlor."	2019/6/5	2019/6/5
PRA000090	SAA005323	ST015		ZETTAICODE_FY2016_W	2911190	W_2911190_20160701	Water	"River water"	2016	7	1					Asia	Japan	"Amakashi-bashi bridge, Asuka Riv. (1), Nara"	34.48083333		135.8169444																																										"End of Applying butachlor."	2019/6/5	2019/6/5
PRA000090	SAA005324	ST015		ZETTAICODE_FY2016_W	2911190	W_2911190_20160704	Water	"River water"	2016	7	4					Asia	Japan	"Amakashi-bashi bridge, Asuka Riv. (1), Nara"	34.48083333		135.8169444																																											2019/6/5	2019/6/5
PRA000090	SAA005325	ST015		ZETTAICODE_FY2016_W	2911190	W_2911190_20160707	Water	"River water"	2016	7	7					Asia	Japan	"Amakashi-bashi bridge, Asuka Riv. (1), Nara"	34.48083333		135.8169444																																											2019/6/5	2019/6/5
PRA000090	SAA005326	ST015		ZETTAICODE_FY2016_W	2911190	W_2911190_20160711	Water	"River water"	2016	7	11					Asia	Japan	"Amakashi-bashi bridge, Asuka Riv. (1), Nara"	34.48083333		135.8169444																																											2019/6/5	2019/6/5
PRA000090	SAA005327	ST015		ZETTAICODE_FY2016_W	2911190	W_2911190_20160714	Water	"River water"	2016	7	14					Asia	Japan	"Amakashi-bashi bridge, Asuka Riv. (1), Nara"	34.48083333		135.8169444																																											2019/6/5	2019/6/5
PRA000090	SAA005328	ST015		ZETTAICODE_FY2016_W	2911190	W_2911190_20160719	Water	"River water"	2016	7	19					Asia	Japan	"Amakashi-bashi bridge, Asuka Riv. (1), Nara"	34.48083333		135.8169444																																											2019/6/5	2019/6/5
PRA000090	SAA005329	ST015		ZETTAICODE_FY2016_W	2911190	W_2911190_20160724	Water	"River water"	2016	7	24					Asia	Japan	"Amakashi-bashi bridge, Asuka Riv. (1), Nara"	34.48083333		135.8169444																																											2019/6/5	2019/6/5
PRA000090	SAA005330	ST015		ZETTAICODE_FY2016_W	2911190	W_2911190_20160801	Water	"River water"	2016	8	1					Asia	Japan	"Amakashi-bashi bridge, Asuka Riv. (1), Nara"	34.48083333		135.8169444																																											2019/6/5	2019/6/5
PRA000090	SAA005331	ST015		ZETTAICODE_FY2016_W	2911190	W_2911190_20160808	Water	"River water"	2016	8	8					Asia	Japan	"Amakashi-bashi bridge, Asuka Riv. (1), Nara"	34.48083333		135.8169444																																											2019/6/5	2019/6/5
PRA000090	SAA005332	ST015		ZETTAICODE_FY2016_W	2911190	W_2911190_20160815	Water	"River water"	2016	8	15					Asia	Japan	"Amakashi-bashi bridge, Asuka Riv. (1), Nara"	34.48083333		135.8169444																																											2019/6/5	2019/6/5
PRA000090	SAA005333	ST015		ZETTAICODE_FY2016_W	2911190	W_2911190_20160823	Water	"River water"	2016	8	23					Asia	Japan	"Amakashi-bashi bridge, Asuka Riv. (1), Nara"	34.48083333		135.8169444																																											2019/6/5	2019/6/5
PRA000090	SAA005334	ST015		ZETTAICODE_FY2016_W	2910810	W_2910810_20160509	Water	"River water"	2016	5	9					Asia	Japan	"Sogagawa-bashi bridge, Soga Riv., Nara"	34.50666667		135.7747222																																											2019/6/5	2019/6/5
PRA000090	SAA005335	ST015		ZETTAICODE_FY2016_W	2910810	W_2910810_20160511	Water	"River water"	2016	5	11					Asia	Japan	"Sogagawa-bashi bridge, Soga Riv., Nara"	34.50666667		135.7747222																																											2019/6/5	2019/6/5
PRA000090	SAA005336	ST015		ZETTAICODE_FY2016_W	2910810	W_2910810_20160523	Water	"River water"	2016	5	23					Asia	Japan	"Sogagawa-bashi bridge, Soga Riv., Nara"	34.50666667		135.7747222																																											2019/6/5	2019/6/5
PRA000090	SAA005337	ST015		ZETTAICODE_FY2016_W	2910810	W_2910810_20160530	Water	"River water"	2016	5	30					Asia	Japan	"Sogagawa-bashi bridge, Soga Riv., Nara"	34.50666667		135.7747222																																										"Started preparing rice fields for planting by flooding them and tilling the soil; Started applying butachlor"	2019/6/5	2019/6/5
PRA000090	SAA005338	ST015		ZETTAICODE_FY2016_W	2910810	W_2910810_20160602	Water	"River water"	2016	6	2					Asia	Japan	"Sogagawa-bashi bridge, Soga Riv., Nara"	34.50666667		135.7747222																																										"Start of rice-planting season; Applying butachlor."	2019/6/5	2019/6/5
PRA000090	SAA005339	ST015		ZETTAICODE_FY2016_W	2910810	W_2910810_20160606	Water	"River water"	2016	6	6					Asia	Japan	"Sogagawa-bashi bridge, Soga Riv., Nara"	34.50666667		135.7747222																																										"Rice-planting (10% done); Applying butachlor."	2019/6/5	2019/6/5
PRA000090	SAA005340	ST015		ZETTAICODE_FY2016_W	2910810	W_2910810_20160609	Water	"River water"	2016	6	9					Asia	Japan	"Sogagawa-bashi bridge, Soga Riv., Nara"	34.50666667		135.7747222																																										"Rice-planting (20% done); Applying butachlor."	2019/6/5	2019/6/5
PRA000090	SAA005341	ST015		ZETTAICODE_FY2016_W	2910810	W_2910810_20160613	Water	"River water"	2016	6	13					Asia	Japan	"Sogagawa-bashi bridge, Soga Riv., Nara"	34.50666667		135.7747222																																										"Rice-planting (70% done); Applying butachlor."	2019/6/5	2019/6/5
PRA000090	SAA005342	ST015		ZETTAICODE_FY2016_W	2910810	W_2910810_20160615	Water	"River water"	2016	6	15					Asia	Japan	"Sogagawa-bashi bridge, Soga Riv., Nara"	34.50666667		135.7747222																																										"Rice-planting (80% done); Applying butachlor."	2019/6/5	2019/6/5
PRA000090	SAA005343	ST015		ZETTAICODE_FY2016_W	2910810	W_2910810_20160617	Water	"River water"	2016	6	17					Asia	Japan	"Sogagawa-bashi bridge, Soga Riv., Nara"	34.50666667		135.7747222																																										"Rice-planting (90% done); Applying butachlor."	2019/6/5	2019/6/5
PRA000090	SAA005344	ST015		ZETTAICODE_FY2016_W	2910810	W_2910810_20160620	Water	"River water"	2016	6	20					Asia	Japan	"Sogagawa-bashi bridge, Soga Riv., Nara"	34.50666667		135.7747222																																										"Rice-planting; Applying butachlor."	2019/6/5	2019/6/5
PRA000090	SAA005345	ST015		ZETTAICODE_FY2016_W	2910810	W_2910810_20160622	Water	"River water"	2016	6	22					Asia	Japan	"Sogagawa-bashi bridge, Soga Riv., Nara"	34.50666667		135.7747222																																										"End of rice-planitng; Applying butachlor."	2019/6/5	2019/6/5
PRA000090	SAA005346	ST015		ZETTAICODE_FY2016_W	2910810	W_2910810_20160624	Water	"River water"	2016	6	24					Asia	Japan	"Sogagawa-bashi bridge, Soga Riv., Nara"	34.50666667		135.7747222																																										"Applying butachlor."	2019/6/5	2019/6/5
PRA000090	SAA005347	ST015		ZETTAICODE_FY2016_W	2910810	W_2910810_20160627	Water	"River water"	2016	6	27					Asia	Japan	"Sogagawa-bashi bridge, Soga Riv., Nara"	34.50666667		135.7747222																																										"Applying butachlor."	2019/6/5	2019/6/5
PRA000090	SAA005348	ST015		ZETTAICODE_FY2016_W	2910810	W_2910810_20160629	Water	"River water"	2016	6	29					Asia	Japan	"Sogagawa-bashi bridge, Soga Riv., Nara"	34.50666667		135.7747222																																										"Applying butachlor."	2019/6/5	2019/6/5
PRA000090	SAA005349	ST015		ZETTAICODE_FY2016_W	2910810	W_2910810_20160701	Water	"River water"	2016	7	1					Asia	Japan	"Sogagawa-bashi bridge, Soga Riv., Nara"	34.50666667		135.7747222																																										"End of Applying butachlor."	2019/6/5	2019/6/5
PRA000090	SAA005350	ST015		ZETTAICODE_FY2016_W	2910810	W_2910810_20160704	Water	"River water"	2016	7	4					Asia	Japan	"Sogagawa-bashi bridge, Soga Riv., Nara"	34.50666667		135.7747222																																											2019/6/5	2019/6/5
PRA000090	SAA005351	ST015		ZETTAICODE_FY2016_W	2910810	W_2910810_20160707	Water	"River water"	2016	7	7					Asia	Japan	"Sogagawa-bashi bridge, Soga Riv., Nara"	34.50666667		135.7747222																																											2019/6/5	2019/6/5
PRA000090	SAA005352	ST015		ZETTAICODE_FY2016_W	2910810	W_2910810_20160711	Water	"River water"	2016	7	11					Asia	Japan	"Sogagawa-bashi bridge, Soga Riv., Nara"	34.50666667		135.7747222																																											2019/6/5	2019/6/5
PRA000090	SAA005353	ST015		ZETTAICODE_FY2016_W	2910810	W_2910810_20160714	Water	"River water"	2016	7	14					Asia	Japan	"Sogagawa-bashi bridge, Soga Riv., Nara"	34.50666667		135.7747222																																											2019/6/5	2019/6/5
PRA000090	SAA005354	ST015		ZETTAICODE_FY2016_W	2910810	W_2910810_20160719	Water	"River water"	2016	7	19					Asia	Japan	"Sogagawa-bashi bridge, Soga Riv., Nara"	34.50666667		135.7747222																																											2019/6/5	2019/6/5
PRA000090	SAA005355	ST015		ZETTAICODE_FY2016_W	2910810	W_2910810_20160724	Water	"River water"	2016	7	24					Asia	Japan	"Sogagawa-bashi bridge, Soga Riv., Nara"	34.50666667		135.7747222																																											2019/6/5	2019/6/5
PRA000090	SAA005356	ST015		ZETTAICODE_FY2016_W	2910810	W_2910810_20160801	Water	"River water"	2016	8	1					Asia	Japan	"Sogagawa-bashi bridge, Soga Riv., Nara"	34.50666667		135.7747222																																											2019/6/5	2019/6/5
PRA000090	SAA005357	ST015		ZETTAICODE_FY2016_W	2910810	W_2910810_20160808	Water	"River water"	2016	8	8					Asia	Japan	"Sogagawa-bashi bridge, Soga Riv., Nara"	34.50666667		135.7747222																																											2019/6/5	2019/6/5
PRA000090	SAA005358	ST015		ZETTAICODE_FY2016_W	2910810	W_2910810_20160815	Water	"River water"	2016	8	15					Asia	Japan	"Sogagawa-bashi bridge, Soga Riv., Nara"	34.50666667		135.7747222																																											2019/6/5	2019/6/5
PRA000090	SAA005359	ST015		ZETTAICODE_FY2016_W	2910810	W_2910810_20160823	Water	"River water"	2016	8	23					Asia	Japan	"Sogagawa-bashi bridge, Soga Riv., Nara"	34.50666667		135.7747222																																											2019/6/5	2019/6/5
PRA000090	SAA005360	ST015		ZETTAICODE_FY2016_W	2910720	W_2910720_20160509	Water	"River water"	2016	5	9					Asia	Japan	"Konin-bashi bridge, Tera-kawa Riv., Nara"	34.53166667		135.7961111																																											2019/6/5	2019/6/5
PRA000090	SAA005361	ST015		ZETTAICODE_FY2016_W	2910720	W_2910720_20160511	Water	"River water"	2016	5	11					Asia	Japan	"Konin-bashi bridge, Tera-kawa Riv., Nara"	34.53166667		135.7961111																																											2019/6/5	2019/6/5
PRA000090	SAA005362	ST015		ZETTAICODE_FY2016_W	2910720	W_2910720_20160523	Water	"River water"	2016	5	23					Asia	Japan	"Konin-bashi bridge, Tera-kawa Riv., Nara"	34.53166667		135.7961111																																											2019/6/5	2019/6/5
PRA000090	SAA005363	ST015		ZETTAICODE_FY2016_W	2910720	W_2910720_20160530	Water	"River water"	2016	5	30					Asia	Japan	"Konin-bashi bridge, Tera-kawa Riv., Nara"	34.53166667		135.7961111																																										"Started preparing rice fields for planting by flooding them and tilling the soil; Started applying butachlor"	2019/6/5	2019/6/5
PRA000090	SAA005364	ST015		ZETTAICODE_FY2016_W	2910720	W_2910720_20160602	Water	"River water"	2016	6	2					Asia	Japan	"Konin-bashi bridge, Tera-kawa Riv., Nara"	34.53166667		135.7961111																																										"Start of rice-planting season; Applying butachlor."	2019/6/5	2019/6/5
PRA000090	SAA005365	ST015		ZETTAICODE_FY2016_W	2910720	W_2910720_20160606	Water	"River water"	2016	6	6					Asia	Japan	"Konin-bashi bridge, Tera-kawa Riv., Nara"	34.53166667		135.7961111																																										"Rice-planting (10% done); Applying butachlor."	2019/6/5	2019/6/5
PRA000090	SAA005366	ST015		ZETTAICODE_FY2016_W	2910720	W_2910720_20160609	Water	"River water"	2016	6	9					Asia	Japan	"Konin-bashi bridge, Tera-kawa Riv., Nara"	34.53166667		135.7961111																																										"Rice-planting (20% done); Applying butachlor."	2019/6/5	2019/6/5
PRA000090	SAA005367	ST015		ZETTAICODE_FY2016_W	2910720	W_2910720_20160613	Water	"River water"	2016	6	13					Asia	Japan	"Konin-bashi bridge, Tera-kawa Riv., Nara"	34.53166667		135.7961111																																										"Rice-planting (70% done); Applying butachlor."	2019/6/5	2019/6/5
PRA000090	SAA005368	ST015		ZETTAICODE_FY2016_W	2910720	W_2910720_20160615	Water	"River water"	2016	6	15					Asia	Japan	"Konin-bashi bridge, Tera-kawa Riv., Nara"	34.53166667		135.7961111																																										"Rice-planting (80% done); Applying butachlor."	2019/6/5	2019/6/5
PRA000090	SAA005369	ST015		ZETTAICODE_FY2016_W	2910720	W_2910720_20160617	Water	"River water"	2016	6	17					Asia	Japan	"Konin-bashi bridge, Tera-kawa Riv., Nara"	34.53166667		135.7961111																																										"Rice-planting (90% done); Applying butachlor."	2019/6/5	2019/6/5
PRA000090	SAA005370	ST015		ZETTAICODE_FY2016_W	2910720	W_2910720_20160620	Water	"River water"	2016	6	20					Asia	Japan	"Konin-bashi bridge, Tera-kawa Riv., Nara"	34.53166667		135.7961111																																										"Rice-planting; Applying butachlor."	2019/6/5	2019/6/5
PRA000090	SAA005371	ST015		ZETTAICODE_FY2016_W	2910720	W_2910720_20160622	Water	"River water"	2016	6	22					Asia	Japan	"Konin-bashi bridge, Tera-kawa Riv., Nara"	34.53166667		135.7961111																																										"End of rice-planitng; Applying butachlor."	2019/6/5	2019/6/5
PRA000090	SAA005372	ST015		ZETTAICODE_FY2016_W	2910720	W_2910720_20160624	Water	"River water"	2016	6	24					Asia	Japan	"Konin-bashi bridge, Tera-kawa Riv., Nara"	34.53166667		135.7961111																																										"Applying butachlor."	2019/6/5	2019/6/5
PRA000090	SAA005373	ST015		ZETTAICODE_FY2016_W	2910720	W_2910720_20160627	Water	"River water"	2016	6	27					Asia	Japan	"Konin-bashi bridge, Tera-kawa Riv., Nara"	34.53166667		135.7961111																																										"Applying butachlor."	2019/6/5	2019/6/5
PRA000090	SAA005374	ST015		ZETTAICODE_FY2016_W	2910720	W_2910720_20160629	Water	"River water"	2016	6	29					Asia	Japan	"Konin-bashi bridge, Tera-kawa Riv., Nara"	34.53166667		135.7961111																																										"Applying butachlor."	2019/6/5	2019/6/5
PRA000090	SAA005375	ST015		ZETTAICODE_FY2016_W	2910720	W_2910720_20160701	Water	"River water"	2016	7	1					Asia	Japan	"Konin-bashi bridge, Tera-kawa Riv., Nara"	34.53166667		135.7961111																																										"End of Applying butachlor."	2019/6/5	2019/6/5
PRA000090	SAA005376	ST015		ZETTAICODE_FY2016_W	2910720	W_2910720_20160704	Water	"River water"	2016	7	4					Asia	Japan	"Konin-bashi bridge, Tera-kawa Riv., Nara"	34.53166667		135.7961111																																											2019/6/5	2019/6/5
PRA000090	SAA005377	ST015		ZETTAICODE_FY2016_W	2910720	W_2910720_20160707	Water	"River water"	2016	7	7					Asia	Japan	"Konin-bashi bridge, Tera-kawa Riv., Nara"	34.53166667		135.7961111																																											2019/6/5	2019/6/5
PRA000090	SAA005378	ST015		ZETTAICODE_FY2016_W	2910720	W_2910720_20160711	Water	"River water"	2016	7	11					Asia	Japan	"Konin-bashi bridge, Tera-kawa Riv., Nara"	34.53166667		135.7961111																																											2019/6/5	2019/6/5
PRA000090	SAA005379	ST015		ZETTAICODE_FY2016_W	2910720	W_2910720_20160714	Water	"River water"	2016	7	14					Asia	Japan	"Konin-bashi bridge, Tera-kawa Riv., Nara"	34.53166667		135.7961111																																											2019/6/5	2019/6/5
PRA000090	SAA005380	ST015		ZETTAICODE_FY2016_W	2910720	W_2910720_20160719	Water	"River water"	2016	7	19					Asia	Japan	"Konin-bashi bridge, Tera-kawa Riv., Nara"	34.53166667		135.7961111																																											2019/6/5	2019/6/5
PRA000090	SAA005381	ST015		ZETTAICODE_FY2016_W	2910720	W_2910720_20160724	Water	"River water"	2016	7	24					Asia	Japan	"Konin-bashi bridge, Tera-kawa Riv., Nara"	34.53166667		135.7961111																																											2019/6/5	2019/6/5
PRA000090	SAA005382	ST015		ZETTAICODE_FY2016_W	2910720	W_2910720_20160801	Water	"River water"	2016	8	1					Asia	Japan	"Konin-bashi bridge, Tera-kawa Riv., Nara"	34.53166667		135.7961111																																											2019/6/5	2019/6/5
PRA000090	SAA005383	ST015		ZETTAICODE_FY2016_W	2910720	W_2910720_20160808	Water	"River water"	2016	8	8					Asia	Japan	"Konin-bashi bridge, Tera-kawa Riv., Nara"	34.53166667		135.7961111																																											2019/6/5	2019/6/5
PRA000090	SAA005384	ST015		ZETTAICODE_FY2016_W	2910720	W_2910720_20160815	Water	"River water"	2016	8	15					Asia	Japan	"Konin-bashi bridge, Tera-kawa Riv., Nara"	34.53166667		135.7961111																																											2019/6/5	2019/6/5
PRA000090	SAA005385	ST015		ZETTAICODE_FY2016_W	2910720	W_2910720_20160823	Water	"River water"	2016	8	23					Asia	Japan	"Konin-bashi bridge, Tera-kawa Riv., Nara"	34.53166667		135.7961111																																											2019/6/5	2019/6/5
PRA000091	SAA005386	ST015		ZETTAICODE_FY2015_W	2710440	W_2710440_20150417	Water	"River water"	2015	4	17					Asia	Japan	"Ishikawa-bashi bridge, Ishi-kawa Riv., Osaka"	34.57		135.6219445																																											2019/6/5	2019/6/5
PRA000091	SAA005387	ST015		ZETTAICODE_FY2015_W	2710440	W_2710440_20150518	Water	"River water"	2015	5	18					Asia	Japan	"Ishikawa-bashi bridge, Ishi-kawa Riv., Osaka"	34.57		135.6219445																																											2019/6/5	2019/6/5
PRA000091	SAA005388	ST015		ZETTAICODE_FY2015_W	2710440	W_2710440_20150525	Water	"River water"	2015	5	25					Asia	Japan	"Ishikawa-bashi bridge, Ishi-kawa Riv., Osaka"	34.57		135.6219445																																										"Start of rice-planting season"	2019/6/5	2019/6/5
PRA000091	SAA005389	ST015		ZETTAICODE_FY2015_W	2710440	W_2710440_20150601	Water	"River water"	2015	6	1					Asia	Japan	"Ishikawa-bashi bridge, Ishi-kawa Riv., Osaka"	34.57		135.6219445																																										"Rice-planting season; At a peak of Butachlor use; At a peak of Pretilachlor use"	2019/6/5	2019/7/9
PRA000091	SAA005390	ST015		ZETTAICODE_FY2015_W	2710440	W_2710440_20150603	Water	"River water"	2015	6	3					Asia	Japan	"Ishikawa-bashi bridge, Ishi-kawa Riv., Osaka"	34.57		135.6219445																																										"Rice-planting season; At a peak of Mefenacet use"	2019/6/5	2019/7/9
PRA000091	SAA005391	ST015		ZETTAICODE_FY2015_W	2710440	W_2710440_20150605	Water	"River water"	2015	6	5					Asia	Japan	"Ishikawa-bashi bridge, Ishi-kawa Riv., Osaka"	34.57		135.6219445																																										"Rice-planting season; At a peak of Bromobutide use"	2019/6/5	2019/7/9
PRA000091	SAA005392	ST015		ZETTAICODE_FY2015_W	2710440	W_2710440_20150608	Water	"River water"	2015	6	8					Asia	Japan	"Ishikawa-bashi bridge, Ishi-kawa Riv., Osaka"	34.57		135.6219445																																										"Rice-planting season"	2019/6/5	2019/6/5
PRA000091	SAA005393	ST015		ZETTAICODE_FY2015_W	2710440	W_2710440_20150610	Water	"River water"	2015	6	10					Asia	Japan	"Ishikawa-bashi bridge, Ishi-kawa Riv., Osaka"	34.57		135.6219445																																										"Rice-planting season"	2019/6/5	2019/6/5
PRA000091	SAA005394	ST015		ZETTAICODE_FY2015_W	2710440	W_2710440_20150612	Water	"River water"	2015	6	12					Asia	Japan	"Ishikawa-bashi bridge, Ishi-kawa Riv., Osaka"	34.57		135.6219445																																										"Rice-planting season"	2019/6/5	2019/6/5
PRA000091	SAA005395	ST015		ZETTAICODE_FY2015_W	2710440	W_2710440_20150615	Water	"River water"	2015	6	15					Asia	Japan	"Ishikawa-bashi bridge, Ishi-kawa Riv., Osaka"	34.57		135.6219445																																										"Rice-planting season"	2019/6/5	2019/6/5
PRA000091	SAA005396	ST015		ZETTAICODE_FY2015_W	2710440	W_2710440_20150619	Water	"River water"	2015	6	19					Asia	Japan	"Ishikawa-bashi bridge, Ishi-kawa Riv., Osaka"	34.57		135.6219445																																										"End of rice-planting season"	2019/6/5	2019/6/5
PRA000091	SAA005397	ST015		ZETTAICODE_FY2015_W	2710440	W_2710440_20150622	Water	"River water"	2015	6	22					Asia	Japan	"Ishikawa-bashi bridge, Ishi-kawa Riv., Osaka"	34.57		135.6219445																																											2019/6/5	2019/6/5
PRA000091	SAA005398	ST015		ZETTAICODE_FY2015_W	2710440	W_2710440_20150626	Water	"River water"	2015	6	26					Asia	Japan	"Ishikawa-bashi bridge, Ishi-kawa Riv., Osaka"	34.57		135.6219445																																											2019/6/5	2019/6/5
PRA000091	SAA005399	ST015		ZETTAICODE_FY2015_W	2710440	W_2710440_20150629	Water	"River water"	2015	6	29					Asia	Japan	"Ishikawa-bashi bridge, Ishi-kawa Riv., Osaka"	34.57		135.6219445																																											2019/6/5	2019/6/5
PRA000091	SAA005400	ST015		ZETTAICODE_FY2015_W	2710440	W_2710440_20150706	Water	"River water"	2015	7	6					Asia	Japan	"Ishikawa-bashi bridge, Ishi-kawa Riv., Osaka"	34.57		135.6219445																																											2019/6/5	2019/6/5
PRA000091	SAA005401	ST015		ZETTAICODE_FY2015_W	2710440	W_2710440_20150713	Water	"River water"	2015	7	13					Asia	Japan	"Ishikawa-bashi bridge, Ishi-kawa Riv., Osaka"	34.57		135.6219445																																											2019/6/5	2019/6/5
PRA000091	SAA005402	ST015		ZETTAICODE_FY2015_W	2710440	W_2710440_20150722	Water	"River water"	2015	7	22					Asia	Japan	"Ishikawa-bashi bridge, Ishi-kawa Riv., Osaka"	34.57		135.6219445																																											2019/6/5	2019/6/5
PRA000091	SAA005403	ST015		ZETTAICODE_FY2015_W	2710440	W_2710440_20150727	Water	"River water"	2015	7	27					Asia	Japan	"Ishikawa-bashi bridge, Ishi-kawa Riv., Osaka"	34.57		135.6219445																																											2019/6/5	2019/6/5
PRA000091	SAA005404	ST015		ZETTAICODE_FY2015_W	2712050	W_2712050_20150417	Water	"River water"	2015	4	17					Asia	Japan	"Enmyo-bashi bridge, Asuka Riv., Osaka"	34.55555556		135.6205556																																											2019/6/5	2019/6/5
PRA000091	SAA005405	ST015		ZETTAICODE_FY2015_W	2712050	W_2712050_20150518	Water	"River water"	2015	5	18					Asia	Japan	"Enmyo-bashi bridge, Asuka Riv., Osaka"	34.55555556		135.6205556																																											2019/6/5	2019/6/5
PRA000091	SAA005406	ST015		ZETTAICODE_FY2015_W	2712050	W_2712050_20150525	Water	"River water"	2015	5	25					Asia	Japan	"Enmyo-bashi bridge, Asuka Riv., Osaka"	34.55555556		135.6205556																																										"Start of rice-planting season"	2019/6/5	2019/6/5
PRA000091	SAA005407	ST015		ZETTAICODE_FY2015_W	2712050	W_2712050_20150601	Water	"River water"	2015	6	1					Asia	Japan	"Enmyo-bashi bridge, Asuka Riv., Osaka"	34.55555556		135.6205556																																										"Rice-planting season; At a peak of Butachlor use; At a peak of Pretilachlor use"	2019/6/5	2019/7/9
PRA000091	SAA005408	ST015		ZETTAICODE_FY2015_W	2712050	W_2712050_20150603	Water	"River water"	2015	6	3					Asia	Japan	"Enmyo-bashi bridge, Asuka Riv., Osaka"	34.55555556		135.6205556																																										"Rice-planting season; At a peak of Mefenacet use"	2019/6/5	2019/7/9
PRA000091	SAA005409	ST015		ZETTAICODE_FY2015_W	2712050	W_2712050_20150605	Water	"River water"	2015	6	5					Asia	Japan	"Enmyo-bashi bridge, Asuka Riv., Osaka"	34.55555556		135.6205556																																										"Rice-planting season; At a peak of Bromobutide use"	2019/6/5	2019/7/9
PRA000091	SAA005410	ST015		ZETTAICODE_FY2015_W	2712050	W_2712050_20150608	Water	"River water"	2015	6	8					Asia	Japan	"Enmyo-bashi bridge, Asuka Riv., Osaka"	34.55555556		135.6205556																																										"Rice-planting season"	2019/6/5	2019/6/5
PRA000091	SAA005411	ST015		ZETTAICODE_FY2015_W	2712050	W_2712050_20150610	Water	"River water"	2015	6	10					Asia	Japan	"Enmyo-bashi bridge, Asuka Riv., Osaka"	34.55555556		135.6205556																																										"Rice-planting season"	2019/6/5	2019/6/5
PRA000091	SAA005412	ST015		ZETTAICODE_FY2015_W	2712050	W_2712050_20150612	Water	"River water"	2015	6	12					Asia	Japan	"Enmyo-bashi bridge, Asuka Riv., Osaka"	34.55555556		135.6205556																																										"Rice-planting season"	2019/6/5	2019/6/5
PRA000091	SAA005413	ST015		ZETTAICODE_FY2015_W	2712050	W_2712050_20150615	Water	"River water"	2015	6	15					Asia	Japan	"Enmyo-bashi bridge, Asuka Riv., Osaka"	34.55555556		135.6205556																																										"Rice-planting season"	2019/6/5	2019/6/5
PRA000091	SAA005414	ST015		ZETTAICODE_FY2015_W	2712050	W_2712050_20150619	Water	"River water"	2015	6	19					Asia	Japan	"Enmyo-bashi bridge, Asuka Riv., Osaka"	34.55555556		135.6205556																																										"End of rice-planting season"	2019/6/5	2019/6/5
PRA000091	SAA005415	ST015		ZETTAICODE_FY2015_W	2712050	W_2712050_20150622	Water	"River water"	2015	6	22					Asia	Japan	"Enmyo-bashi bridge, Asuka Riv., Osaka"	34.55555556		135.6205556																																											2019/6/5	2019/6/5
PRA000091	SAA005416	ST015		ZETTAICODE_FY2015_W	2712050	W_2712050_20150626	Water	"River water"	2015	6	26					Asia	Japan	"Enmyo-bashi bridge, Asuka Riv., Osaka"	34.55555556		135.6205556																																											2019/6/5	2019/6/5
PRA000091	SAA005417	ST015		ZETTAICODE_FY2015_W	2712050	W_2712050_20150629	Water	"River water"	2015	6	29					Asia	Japan	"Enmyo-bashi bridge, Asuka Riv., Osaka"	34.55555556		135.6205556																																											2019/6/5	2019/6/5
PRA000091	SAA005418	ST015		ZETTAICODE_FY2015_W	2712050	W_2712050_20150706	Water	"River water"	2015	7	6					Asia	Japan	"Enmyo-bashi bridge, Asuka Riv., Osaka"	34.55555556		135.6205556																																											2019/6/5	2019/6/5
PRA000091	SAA005419	ST015		ZETTAICODE_FY2015_W	2712050	W_2712050_20150713	Water	"River water"	2015	7	13					Asia	Japan	"Enmyo-bashi bridge, Asuka Riv., Osaka"	34.55555556		135.6205556																																											2019/6/5	2019/6/5
PRA000091	SAA005420	ST015		ZETTAICODE_FY2015_W	2712050	W_2712050_20150722	Water	"River water"	2015	7	22					Asia	Japan	"Enmyo-bashi bridge, Asuka Riv., Osaka"	34.55555556		135.6205556																																											2019/6/5	2019/6/5
PRA000091	SAA005421	ST015		ZETTAICODE_FY2015_W	2712050	W_2712050_20150727	Water	"River water"	2015	7	27					Asia	Japan	"Enmyo-bashi bridge, Asuka Riv., Osaka"	34.55555556		135.6205556																																											2019/6/5	2019/6/5
PRA000091	SAA005422	ST015		ZETTAICODE_FY2015_W	2712070	W_2712070_20150417	Water	"River water"	2015	4	17					Asia	Japan	"Otomo-bashi bridge, Sabi Riv., Osaka"	34.49944444		135.6086111																																											2019/6/5	2019/6/5
PRA000091	SAA005423	ST015		ZETTAICODE_FY2015_W	2712070	W_2712070_20150518	Water	"River water"	2015	5	18					Asia	Japan	"Otomo-bashi bridge, Sabi Riv., Osaka"	34.49944444		135.6086111																																											2019/6/5	2019/6/5
PRA000091	SAA005424	ST015		ZETTAICODE_FY2015_W	2712070	W_2712070_20150525	Water	"River water"	2015	5	25					Asia	Japan	"Otomo-bashi bridge, Sabi Riv., Osaka"	34.49944444		135.6086111																																										"Start of rice-planting season"	2019/6/5	2019/6/5
PRA000091	SAA005425	ST015		ZETTAICODE_FY2015_W	2712070	W_2712070_20150601	Water	"River water"	2015	6	1					Asia	Japan	"Otomo-bashi bridge, Sabi Riv., Osaka"	34.49944444		135.6086111																																										"Rice-planting season; At a peak of Butachlor use; At a peak of Pretilachlor use"	2019/6/5	2019/7/9
PRA000091	SAA005426	ST015		ZETTAICODE_FY2015_W	2712070	W_2712070_20150603	Water	"River water"	2015	6	3					Asia	Japan	"Otomo-bashi bridge, Sabi Riv., Osaka"	34.49944444		135.6086111																																										"Rice-planting season; At a peak of Mefenacet use"	2019/6/5	2019/7/9
PRA000091	SAA005427	ST015		ZETTAICODE_FY2015_W	2712070	W_2712070_20150605	Water	"River water"	2015	6	5					Asia	Japan	"Otomo-bashi bridge, Sabi Riv., Osaka"	34.49944444		135.6086111																																										"Rice-planting season; At a peak of Bromobutide use"	2019/6/5	2019/7/9
PRA000091	SAA005428	ST015		ZETTAICODE_FY2015_W	2712070	W_2712070_20150608	Water	"River water"	2015	6	8					Asia	Japan	"Otomo-bashi bridge, Sabi Riv., Osaka"	34.49944444		135.6086111																																										"Rice-planting season"	2019/6/5	2019/6/5
PRA000091	SAA005429	ST015		ZETTAICODE_FY2015_W	2712070	W_2712070_20150610	Water	"River water"	2015	6	10					Asia	Japan	"Otomo-bashi bridge, Sabi Riv., Osaka"	34.49944444		135.6086111																																										"Rice-planting season"	2019/6/5	2019/6/5
PRA000091	SAA005430	ST015		ZETTAICODE_FY2015_W	2712070	W_2712070_20150612	Water	"River water"	2015	6	12					Asia	Japan	"Otomo-bashi bridge, Sabi Riv., Osaka"	34.49944444		135.6086111																																										"Rice-planting season"	2019/6/5	2019/6/5
PRA000091	SAA005431	ST015		ZETTAICODE_FY2015_W	2712070	W_2712070_20150615	Water	"River water"	2015	6	15					Asia	Japan	"Otomo-bashi bridge, Sabi Riv., Osaka"	34.49944444		135.6086111																																										"Rice-planting season"	2019/6/5	2019/6/5
PRA000091	SAA005432	ST015		ZETTAICODE_FY2015_W	2712070	W_2712070_20150619	Water	"River water"	2015	6	19					Asia	Japan	"Otomo-bashi bridge, Sabi Riv., Osaka"	34.49944444		135.6086111																																										"End of rice-planting season"	2019/6/5	2019/6/5
PRA000091	SAA005433	ST015		ZETTAICODE_FY2015_W	2712070	W_2712070_20150622	Water	"River water"	2015	6	22					Asia	Japan	"Otomo-bashi bridge, Sabi Riv., Osaka"	34.49944444		135.6086111																																											2019/6/5	2019/6/5
PRA000091	SAA005434	ST015		ZETTAICODE_FY2015_W	2712070	W_2712070_20150626	Water	"River water"	2015	6	26					Asia	Japan	"Otomo-bashi bridge, Sabi Riv., Osaka"	34.49944444		135.6086111																																											2019/6/5	2019/6/5
PRA000091	SAA005435	ST015		ZETTAICODE_FY2015_W	2712070	W_2712070_20150629	Water	"River water"	2015	6	29					Asia	Japan	"Otomo-bashi bridge, Sabi Riv., Osaka"	34.49944444		135.6086111																																											2019/6/5	2019/6/5
PRA000091	SAA005436	ST015		ZETTAICODE_FY2015_W	2712070	W_2712070_20150706	Water	"River water"	2015	7	6					Asia	Japan	"Otomo-bashi bridge, Sabi Riv., Osaka"	34.49944444		135.6086111																																											2019/6/5	2019/6/5
PRA000091	SAA005437	ST015		ZETTAICODE_FY2015_W	2712070	W_2712070_20150713	Water	"River water"	2015	7	13					Asia	Japan	"Otomo-bashi bridge, Sabi Riv., Osaka"	34.49944444		135.6086111																																											2019/6/5	2019/6/5
PRA000091	SAA005438	ST015		ZETTAICODE_FY2015_W	2712070	W_2712070_20150722	Water	"River water"	2015	7	22					Asia	Japan	"Otomo-bashi bridge, Sabi Riv., Osaka"	34.49944444		135.6086111																																											2019/6/5	2019/6/5
PRA000091	SAA005439	ST015		ZETTAICODE_FY2015_W	2712070	W_2712070_20150727	Water	"River water"	2015	7	27					Asia	Japan	"Otomo-bashi bridge, Sabi Riv., Osaka"	34.49944444		135.6086111																																											2019/6/5	2019/6/5
PRA000091	SAA005440	ST015		ZETTAICODE_FY2015_W	2710430	W_2710430_20150417	Water	"River water"	2015	4	17					Asia	Japan	"Taka-hashi bridge, Ishi-kawa Riv., Osaka"	34.47916667		135.5872222																																											2019/6/5	2019/6/5
PRA000091	SAA005441	ST015		ZETTAICODE_FY2015_W	2710430	W_2710430_20150518	Water	"River water"	2015	5	18					Asia	Japan	"Taka-hashi bridge, Ishi-kawa Riv., Osaka"	34.47916667		135.5872222																																											2019/6/5	2019/6/5
PRA000091	SAA005442	ST015		ZETTAICODE_FY2015_W	2710430	W_2710430_20150525	Water	"River water"	2015	5	25					Asia	Japan	"Taka-hashi bridge, Ishi-kawa Riv., Osaka"	34.47916667		135.5872222																																										"Start of rice-planting season"	2019/6/5	2019/6/5
PRA000091	SAA005443	ST015		ZETTAICODE_FY2015_W	2710430	W_2710430_20150601	Water	"River water"	2015	6	1					Asia	Japan	"Taka-hashi bridge, Ishi-kawa Riv., Osaka"	34.47916667		135.5872222																																										"Rice-planting season; At a peak of Butachlor use; At a peak of Pretilachlor use"	2019/6/5	2019/7/9
PRA000091	SAA005444	ST015		ZETTAICODE_FY2015_W	2710430	W_2710430_20150603	Water	"River water"	2015	6	3					Asia	Japan	"Taka-hashi bridge, Ishi-kawa Riv., Osaka"	34.47916667		135.5872222																																										"Rice-planting season; At a peak of Mefenacet use"	2019/6/5	2019/7/9
PRA000091	SAA005445	ST015		ZETTAICODE_FY2015_W	2710430	W_2710430_20150605	Water	"River water"	2015	6	5					Asia	Japan	"Taka-hashi bridge, Ishi-kawa Riv., Osaka"	34.47916667		135.5872222																																										"Rice-planting season; At a peak of Bromobutide use"	2019/6/5	2019/7/9
PRA000091	SAA005446	ST015		ZETTAICODE_FY2015_W	2710430	W_2710430_20150608	Water	"River water"	2015	6	8					Asia	Japan	"Taka-hashi bridge, Ishi-kawa Riv., Osaka"	34.47916667		135.5872222																																										"Rice-planting season"	2019/6/5	2019/6/5
PRA000091	SAA005447	ST015		ZETTAICODE_FY2015_W	2710430	W_2710430_20150610	Water	"River water"	2015	6	10					Asia	Japan	"Taka-hashi bridge, Ishi-kawa Riv., Osaka"	34.47916667		135.5872222																																										"Rice-planting season"	2019/6/5	2019/6/5
PRA000091	SAA005448	ST015		ZETTAICODE_FY2015_W	2710430	W_2710430_20150612	Water	"River water"	2015	6	12					Asia	Japan	"Taka-hashi bridge, Ishi-kawa Riv., Osaka"	34.47916667		135.5872222																																										"Rice-planting season"	2019/6/5	2019/6/5
PRA000091	SAA005449	ST015		ZETTAICODE_FY2015_W	2710430	W_2710430_20150615	Water	"River water"	2015	6	15					Asia	Japan	"Taka-hashi bridge, Ishi-kawa Riv., Osaka"	34.47916667		135.5872222																																										"Rice-planting season"	2019/6/5	2019/6/5
PRA000091	SAA005450	ST015		ZETTAICODE_FY2015_W	2710430	W_2710430_20150619	Water	"River water"	2015	6	19					Asia	Japan	"Taka-hashi bridge, Ishi-kawa Riv., Osaka"	34.47916667		135.5872222																																										"End of rice-planting season"	2019/6/5	2019/6/5
PRA000091	SAA005451	ST015		ZETTAICODE_FY2015_W	2710430	W_2710430_20150622	Water	"River water"	2015	6	22					Asia	Japan	"Taka-hashi bridge, Ishi-kawa Riv., Osaka"	34.47916667		135.5872222																																											2019/6/5	2019/6/5
PRA000091	SAA005452	ST015		ZETTAICODE_FY2015_W	2710430	W_2710430_20150626	Water	"River water"	2015	6	26					Asia	Japan	"Taka-hashi bridge, Ishi-kawa Riv., Osaka"	34.47916667		135.5872222																																											2019/6/5	2019/6/5
PRA000091	SAA005453	ST015		ZETTAICODE_FY2015_W	2710430	W_2710430_20150629	Water	"River water"	2015	6	29					Asia	Japan	"Taka-hashi bridge, Ishi-kawa Riv., Osaka"	34.47916667		135.5872222																																											2019/6/5	2019/6/5
PRA000091	SAA005454	ST015		ZETTAICODE_FY2015_W	2710430	W_2710430_20150706	Water	"River water"	2015	7	6					Asia	Japan	"Taka-hashi bridge, Ishi-kawa Riv., Osaka"	34.47916667		135.5872222																																											2019/6/5	2019/6/5
PRA000091	SAA005455	ST015		ZETTAICODE_FY2015_W	2710430	W_2710430_20150713	Water	"River water"	2015	7	13					Asia	Japan	"Taka-hashi bridge, Ishi-kawa Riv., Osaka"	34.47916667		135.5872222																																											2019/6/5	2019/6/5
PRA000091	SAA005456	ST015		ZETTAICODE_FY2015_W	2710430	W_2710430_20150722	Water	"River water"	2015	7	22					Asia	Japan	"Taka-hashi bridge, Ishi-kawa Riv., Osaka"	34.47916667		135.5872222																																											2019/6/5	2019/6/5
PRA000091	SAA005457	ST015		ZETTAICODE_FY2015_W	2710430	W_2710430_20150727	Water	"River water"	2015	7	27					Asia	Japan	"Taka-hashi bridge, Ishi-kawa Riv., Osaka"	34.47916667		135.5872222																																											2019/6/5	2019/6/5
PRA000092	SAA005458	ST015		ZETTAICODE_FY2014_W	2710440	W_2710440_20140512	Water	"River water"	2014	5	12					Asia	Japan	"Ishikawa-bashi bridge, Ishi-kawa Riv., Osaka"	34.57		135.6219445																																											2019/6/17	2019/6/17
PRA000092	SAA005459	ST015		ZETTAICODE_FY2014_W	2710440	W_2710440_20140519	Water	"River water"	2014	5	19					Asia	Japan	"Ishikawa-bashi bridge, Ishi-kawa Riv., Osaka"	34.57		135.6219445																																											2019/6/17	2019/6/17
PRA000092	SAA005460	ST015		ZETTAICODE_FY2014_W	2710440	W_2710440_20140526	Water	"River water"	2014	5	26					Asia	Japan	"Ishikawa-bashi bridge, Ishi-kawa Riv., Osaka"	34.57		135.6219445																																											2019/6/17	2019/6/17
PRA000092	SAA005461	ST015		ZETTAICODE_FY2014_W	2710440	W_2710440_20140530	Water	"River water"	2014	5	30					Asia	Japan	"Ishikawa-bashi bridge, Ishi-kawa Riv., Osaka"	34.57		135.6219445																																										"Rice-planting season; At a peak of Butachlor use; At a peak of Fipronil use; At a peak of Pretilachlor use"	2019/6/17	2019/7/10
PRA000092	SAA005462	ST015		ZETTAICODE_FY2014_W	2710440	W_2710440_20140602	Water	"River water"	2014	6	2					Asia	Japan	"Ishikawa-bashi bridge, Ishi-kawa Riv., Osaka"	34.57		135.6219445																																										"Rice-planting season"	2019/6/17	2019/6/17
PRA000092	SAA005463	ST015		ZETTAICODE_FY2014_W	2710440	W_2710440_20140604	Water	"River water"	2014	6	4					Asia	Japan	"Ishikawa-bashi bridge, Ishi-kawa Riv., Osaka"	34.57		135.6219445																																										"Rice-planting season"	2019/6/17	2019/6/17
PRA000092	SAA005464	ST015		ZETTAICODE_FY2014_W	2710440	W_2710440_20140606	Water	"River water"	2014	6	6					Asia	Japan	"Ishikawa-bashi bridge, Ishi-kawa Riv., Osaka"	34.57		135.6219445																																										"Rice-planting season; At a peak of Bromobutide use; At a peak of Mefenacet use"	2019/6/17	2019/7/10
PRA000092	SAA005465	ST015		ZETTAICODE_FY2014_W	2710440	W_2710440_20140609	Water	"River water"	2014	6	9					Asia	Japan	"Ishikawa-bashi bridge, Ishi-kawa Riv., Osaka"	34.57		135.6219445																																										"Rice-planting season"	2019/6/17	2019/6/17
PRA000092	SAA005466	ST015		ZETTAICODE_FY2014_W	2710440	W_2710440_20140611	Water	"River water"	2014	6	11					Asia	Japan	"Ishikawa-bashi bridge, Ishi-kawa Riv., Osaka"	34.57		135.6219445																																										"Rice-planting season"	2019/6/17	2019/6/17
PRA000092	SAA005467	ST015		ZETTAICODE_FY2014_W	2710440	W_2710440_20140613	Water	"River water"	2014	6	13					Asia	Japan	"Ishikawa-bashi bridge, Ishi-kawa Riv., Osaka"	34.57		135.6219445																																										"Rice-planting season"	2019/6/17	2019/6/17
PRA000092	SAA005468	ST015		ZETTAICODE_FY2014_W	2710440	W_2710440_20140616	Water	"River water"	2014	6	16					Asia	Japan	"Ishikawa-bashi bridge, Ishi-kawa Riv., Osaka"	34.57		135.6219445																																										"End of rice-planting season"	2019/6/17	2019/6/17
PRA000092	SAA005469	ST015		ZETTAICODE_FY2014_W	2710440	W_2710440_20140620	Water	"River water"	2014	6	20					Asia	Japan	"Ishikawa-bashi bridge, Ishi-kawa Riv., Osaka"	34.57		135.6219445																																											2019/6/17	2019/6/17
PRA000092	SAA005470	ST015		ZETTAICODE_FY2014_W	2710440	W_2710440_20140623	Water	"River water"	2014	6	23					Asia	Japan	"Ishikawa-bashi bridge, Ishi-kawa Riv., Osaka"	34.57		135.6219445																																											2019/6/17	2019/6/17
PRA000092	SAA005471	ST015		ZETTAICODE_FY2014_W	2710440	W_2710440_20140627	Water	"River water"	2014	6	27					Asia	Japan	"Ishikawa-bashi bridge, Ishi-kawa Riv., Osaka"	34.57		135.6219445																																											2019/6/17	2019/6/17
PRA000092	SAA005472	ST015		ZETTAICODE_FY2014_W	2710440	W_2710440_20140630	Water	"River water"	2014	6	30					Asia	Japan	"Ishikawa-bashi bridge, Ishi-kawa Riv., Osaka"	34.57		135.6219445																																											2019/6/17	2019/6/17
PRA000092	SAA005473	ST015		ZETTAICODE_FY2014_W	2710440	W_2710440_20140707	Water	"River water"	2014	7	7					Asia	Japan	"Ishikawa-bashi bridge, Ishi-kawa Riv., Osaka"	34.57		135.6219445																																											2019/6/17	2019/6/17
PRA000092	SAA005474	ST015		ZETTAICODE_FY2014_W	2710440	W_2710440_20140714	Water	"River water"	2014	7	14					Asia	Japan	"Ishikawa-bashi bridge, Ishi-kawa Riv., Osaka"	34.57		135.6219445																																											2019/6/17	2019/6/17
PRA000092	SAA005475	ST015		ZETTAICODE_FY2014_W	2710440	W_2710440_20140722	Water	"River water"	2014	7	22					Asia	Japan	"Ishikawa-bashi bridge, Ishi-kawa Riv., Osaka"	34.57		135.6219445																																											2019/6/17	2019/6/17
PRA000092	SAA005476	ST015		ZETTAICODE_FY2014_W	2710440	W_2710440_20140731	Water	"River water"	2014	7	31					Asia	Japan	"Ishikawa-bashi bridge, Ishi-kawa Riv., Osaka"	34.57		135.6219445																																											2019/6/17	2019/6/17
PRA000092	SAA005477	ST015		ZETTAICODE_FY2014_W	2712050	W_2712050_20140512	Water	"River water"	2014	5	12					Asia	Japan	"Enmyo-bashi bridge, Asuka Riv., Osaka"	34.55555556		135.6205556																																											2019/6/17	2019/6/17
PRA000092	SAA005478	ST015		ZETTAICODE_FY2014_W	2712050	W_2712050_20140519	Water	"River water"	2014	5	19					Asia	Japan	"Enmyo-bashi bridge, Asuka Riv., Osaka"	34.55555556		135.6205556																																											2019/6/17	2019/6/17
PRA000092	SAA005479	ST015		ZETTAICODE_FY2014_W	2712050	W_2712050_20140526	Water	"River water"	2014	5	26					Asia	Japan	"Enmyo-bashi bridge, Asuka Riv., Osaka"	34.55555556		135.6205556																																											2019/6/17	2019/6/17
PRA000092	SAA005480	ST015		ZETTAICODE_FY2014_W	2712050	W_2712050_20140530	Water	"River water"	2014	5	30					Asia	Japan	"Enmyo-bashi bridge, Asuka Riv., Osaka"	34.55555556		135.6205556																																										"Rice-planting season; At a peak of Butachlor use; At a peak of Fipronil use; At a peak of Pretilachlor use"	2019/6/17	2019/7/10
PRA000092	SAA005481	ST015		ZETTAICODE_FY2014_W	2712050	W_2712050_20140602	Water	"River water"	2014	6	2					Asia	Japan	"Enmyo-bashi bridge, Asuka Riv., Osaka"	34.55555556		135.6205556																																										"Rice-planting season"	2019/6/17	2019/6/17
PRA000092	SAA005482	ST015		ZETTAICODE_FY2014_W	2712050	W_2712050_20140604	Water	"River water"	2014	6	4					Asia	Japan	"Enmyo-bashi bridge, Asuka Riv., Osaka"	34.55555556		135.6205556																																										"Rice-planting season"	2019/6/17	2019/6/17
PRA000092	SAA005483	ST015		ZETTAICODE_FY2014_W	2712050	W_2712050_20140606	Water	"River water"	2014	6	6					Asia	Japan	"Enmyo-bashi bridge, Asuka Riv., Osaka"	34.55555556		135.6205556																																										"Rice-planting season; At a peak of Bromobutide use; At a peak of Mefenacet use"	2019/6/17	2019/7/10
PRA000092	SAA005484	ST015		ZETTAICODE_FY2014_W	2712050	W_2712050_20140609	Water	"River water"	2014	6	9					Asia	Japan	"Enmyo-bashi bridge, Asuka Riv., Osaka"	34.55555556		135.6205556																																										"Rice-planting season"	2019/6/17	2019/6/17
PRA000092	SAA005485	ST015		ZETTAICODE_FY2014_W	2712050	W_2712050_20140611	Water	"River water"	2014	6	11					Asia	Japan	"Enmyo-bashi bridge, Asuka Riv., Osaka"	34.55555556		135.6205556																																										"Rice-planting season"	2019/6/17	2019/6/17
PRA000092	SAA005486	ST015		ZETTAICODE_FY2014_W	2712050	W_2712050_20140613	Water	"River water"	2014	6	13					Asia	Japan	"Enmyo-bashi bridge, Asuka Riv., Osaka"	34.55555556		135.6205556																																										"Rice-planting season"	2019/6/17	2019/6/17
PRA000092	SAA005487	ST015		ZETTAICODE_FY2014_W	2712050	W_2712050_20140616	Water	"River water"	2014	6	16					Asia	Japan	"Enmyo-bashi bridge, Asuka Riv., Osaka"	34.55555556		135.6205556																																										"End of rice-planting season"	2019/6/17	2019/6/17
PRA000092	SAA005488	ST015		ZETTAICODE_FY2014_W	2712050	W_2712050_20140620	Water	"River water"	2014	6	20					Asia	Japan	"Enmyo-bashi bridge, Asuka Riv., Osaka"	34.55555556		135.6205556																																											2019/6/17	2019/6/17
PRA000092	SAA005489	ST015		ZETTAICODE_FY2014_W	2712050	W_2712050_20140623	Water	"River water"	2014	6	23					Asia	Japan	"Enmyo-bashi bridge, Asuka Riv., Osaka"	34.55555556		135.6205556																																											2019/6/17	2019/6/17
PRA000092	SAA005490	ST015		ZETTAICODE_FY2014_W	2712050	W_2712050_20140627	Water	"River water"	2014	6	27					Asia	Japan	"Enmyo-bashi bridge, Asuka Riv., Osaka"	34.55555556		135.6205556																																											2019/6/17	2019/6/17
PRA000092	SAA005491	ST015		ZETTAICODE_FY2014_W	2712050	W_2712050_20140630	Water	"River water"	2014	6	30					Asia	Japan	"Enmyo-bashi bridge, Asuka Riv., Osaka"	34.55555556		135.6205556																																											2019/6/17	2019/6/17
PRA000092	SAA005492	ST015		ZETTAICODE_FY2014_W	2712050	W_2712050_20140707	Water	"River water"	2014	7	7					Asia	Japan	"Enmyo-bashi bridge, Asuka Riv., Osaka"	34.55555556		135.6205556																																											2019/6/17	2019/6/17
PRA000092	SAA005493	ST015		ZETTAICODE_FY2014_W	2712050	W_2712050_20140714	Water	"River water"	2014	7	14					Asia	Japan	"Enmyo-bashi bridge, Asuka Riv., Osaka"	34.55555556		135.6205556																																											2019/6/17	2019/6/17
PRA000092	SAA005494	ST015		ZETTAICODE_FY2014_W	2712050	W_2712050_20140722	Water	"River water"	2014	7	22					Asia	Japan	"Enmyo-bashi bridge, Asuka Riv., Osaka"	34.55555556		135.6205556																																											2019/6/17	2019/6/17
PRA000092	SAA005495	ST015		ZETTAICODE_FY2014_W	2712050	W_2712050_20140731	Water	"River water"	2014	7	31					Asia	Japan	"Enmyo-bashi bridge, Asuka Riv., Osaka"	34.55555556		135.6205556																																											2019/6/17	2019/6/17
PRA000092	SAA005496	ST015		ZETTAICODE_FY2014_W	2712070	W_2712070_20140512	Water	"River water"	2014	5	12					Asia	Japan	"Otomo-bashi bridge, Sabi Riv., Osaka"	34.49944444		135.6086111																																											2019/6/17	2019/6/17
PRA000092	SAA005497	ST015		ZETTAICODE_FY2014_W	2712070	W_2712070_20140519	Water	"River water"	2014	5	19					Asia	Japan	"Otomo-bashi bridge, Sabi Riv., Osaka"	34.49944444		135.6086111																																											2019/6/17	2019/6/17
PRA000092	SAA005498	ST015		ZETTAICODE_FY2014_W	2712070	W_2712070_20140526	Water	"River water"	2014	5	26					Asia	Japan	"Otomo-bashi bridge, Sabi Riv., Osaka"	34.49944444		135.6086111																																											2019/6/17	2019/6/17
PRA000092	SAA005499	ST015		ZETTAICODE_FY2014_W	2712070	W_2712070_20140530	Water	"River water"	2014	5	30					Asia	Japan	"Otomo-bashi bridge, Sabi Riv., Osaka"	34.49944444		135.6086111																																										"Rice-planting season; At a peak of Butachlor use; At a peak of Fipronil use; At a peak of Pretilachlor use"	2019/6/17	2019/7/10
PRA000092	SAA005500	ST015		ZETTAICODE_FY2014_W	2712070	W_2712070_20140602	Water	"River water"	2014	6	2					Asia	Japan	"Otomo-bashi bridge, Sabi Riv., Osaka"	34.49944444		135.6086111																																										"Rice-planting season"	2019/6/17	2019/6/17
PRA000092	SAA005501	ST015		ZETTAICODE_FY2014_W	2712070	W_2712070_20140604	Water	"River water"	2014	6	4					Asia	Japan	"Otomo-bashi bridge, Sabi Riv., Osaka"	34.49944444		135.6086111																																										"Rice-planting season"	2019/6/17	2019/6/17
PRA000092	SAA005502	ST015		ZETTAICODE_FY2014_W	2712070	W_2712070_20140606	Water	"River water"	2014	6	6					Asia	Japan	"Otomo-bashi bridge, Sabi Riv., Osaka"	34.49944444		135.6086111																																										"Rice-planting season; At a peak of Bromobutide use; At a peak of Mefenacet use"	2019/6/17	2019/7/10
PRA000092	SAA005503	ST015		ZETTAICODE_FY2014_W	2712070	W_2712070_20140609	Water	"River water"	2014	6	9					Asia	Japan	"Otomo-bashi bridge, Sabi Riv., Osaka"	34.49944444		135.6086111																																										"Rice-planting season"	2019/6/17	2019/6/17
PRA000092	SAA005504	ST015		ZETTAICODE_FY2014_W	2712070	W_2712070_20140611	Water	"River water"	2014	6	11					Asia	Japan	"Otomo-bashi bridge, Sabi Riv., Osaka"	34.49944444		135.6086111																																										"Rice-planting season"	2019/6/17	2019/6/17
PRA000092	SAA005505	ST015		ZETTAICODE_FY2014_W	2712070	W_2712070_20140613	Water	"River water"	2014	6	13					Asia	Japan	"Otomo-bashi bridge, Sabi Riv., Osaka"	34.49944444		135.6086111																																										"Rice-planting season"	2019/6/17	2019/6/17
PRA000092	SAA005506	ST015		ZETTAICODE_FY2014_W	2712070	W_2712070_20140616	Water	"River water"	2014	6	16					Asia	Japan	"Otomo-bashi bridge, Sabi Riv., Osaka"	34.49944444		135.6086111																																										"End of rice-planting season"	2019/6/17	2019/6/17
PRA000092	SAA005507	ST015		ZETTAICODE_FY2014_W	2712070	W_2712070_20140620	Water	"River water"	2014	6	20					Asia	Japan	"Otomo-bashi bridge, Sabi Riv., Osaka"	34.49944444		135.6086111																																											2019/6/17	2019/6/17
PRA000092	SAA005508	ST015		ZETTAICODE_FY2014_W	2712070	W_2712070_20140623	Water	"River water"	2014	6	23					Asia	Japan	"Otomo-bashi bridge, Sabi Riv., Osaka"	34.49944444		135.6086111																																											2019/6/17	2019/6/17
PRA000092	SAA005509	ST015		ZETTAICODE_FY2014_W	2712070	W_2712070_20140627	Water	"River water"	2014	6	27					Asia	Japan	"Otomo-bashi bridge, Sabi Riv., Osaka"	34.49944444		135.6086111																																											2019/6/17	2019/6/17
PRA000092	SAA005510	ST015		ZETTAICODE_FY2014_W	2712070	W_2712070_20140630	Water	"River water"	2014	6	30					Asia	Japan	"Otomo-bashi bridge, Sabi Riv., Osaka"	34.49944444		135.6086111																																											2019/6/17	2019/6/17
PRA000092	SAA005511	ST015		ZETTAICODE_FY2014_W	2712070	W_2712070_20140707	Water	"River water"	2014	7	7					Asia	Japan	"Otomo-bashi bridge, Sabi Riv., Osaka"	34.49944444		135.6086111																																											2019/6/17	2019/6/17
PRA000092	SAA005512	ST015		ZETTAICODE_FY2014_W	2712070	W_2712070_20140714	Water	"River water"	2014	7	14					Asia	Japan	"Otomo-bashi bridge, Sabi Riv., Osaka"	34.49944444		135.6086111																																											2019/6/17	2019/6/17
PRA000092	SAA005513	ST015		ZETTAICODE_FY2014_W	2712070	W_2712070_20140722	Water	"River water"	2014	7	22					Asia	Japan	"Otomo-bashi bridge, Sabi Riv., Osaka"	34.49944444		135.6086111																																											2019/6/17	2019/6/17
PRA000092	SAA005514	ST015		ZETTAICODE_FY2014_W	2712070	W_2712070_20140731	Water	"River water"	2014	7	31					Asia	Japan	"Otomo-bashi bridge, Sabi Riv., Osaka"	34.49944444		135.6086111																																											2019/6/17	2019/6/17
PRA000092	SAA005515	ST015		ZETTAICODE_FY2014_W	2710430	W_2710430_20140512	Water	"River water"	2014	5	12					Asia	Japan	"Taka-hashi bridge, Ishi-kawa Riv., Osaka"	34.47916667		135.5872222																																											2019/6/17	2019/6/17
PRA000092	SAA005516	ST015		ZETTAICODE_FY2014_W	2710430	W_2710430_20140519	Water	"River water"	2014	5	19					Asia	Japan	"Taka-hashi bridge, Ishi-kawa Riv., Osaka"	34.47916667		135.5872222																																											2019/6/17	2019/6/17
PRA000092	SAA005517	ST015		ZETTAICODE_FY2014_W	2710430	W_2710430_20140526	Water	"River water"	2014	5	26					Asia	Japan	"Taka-hashi bridge, Ishi-kawa Riv., Osaka"	34.47916667		135.5872222																																											2019/6/17	2019/6/17
PRA000092	SAA005518	ST015		ZETTAICODE_FY2014_W	2710430	W_2710430_20140530	Water	"River water"	2014	5	30					Asia	Japan	"Taka-hashi bridge, Ishi-kawa Riv., Osaka"	34.47916667		135.5872222																																										"Rice-planting season; At a peak of Butachlor use; At a peak of Fipronil use; At a peak of Pretilachlor use"	2019/6/17	2019/7/10
PRA000092	SAA005519	ST015		ZETTAICODE_FY2014_W	2710430	W_2710430_20140602	Water	"River water"	2014	6	2					Asia	Japan	"Taka-hashi bridge, Ishi-kawa Riv., Osaka"	34.47916667		135.5872222																																										"Rice-planting season"	2019/6/17	2019/6/17
PRA000092	SAA005520	ST015		ZETTAICODE_FY2014_W	2710430	W_2710430_20140604	Water	"River water"	2014	6	4					Asia	Japan	"Taka-hashi bridge, Ishi-kawa Riv., Osaka"	34.47916667		135.5872222																																										"Rice-planting season"	2019/6/17	2019/6/17
PRA000092	SAA005521	ST015		ZETTAICODE_FY2014_W	2710430	W_2710430_20140606	Water	"River water"	2014	6	6					Asia	Japan	"Taka-hashi bridge, Ishi-kawa Riv., Osaka"	34.47916667		135.5872222																																										"Rice-planting season; At a peak of Bromobutide use; At a peak of Mefenacet use"	2019/6/17	2019/7/10
PRA000092	SAA005522	ST015		ZETTAICODE_FY2014_W	2710430	W_2710430_20140609	Water	"River water"	2014	6	9					Asia	Japan	"Taka-hashi bridge, Ishi-kawa Riv., Osaka"	34.47916667		135.5872222																																										"Rice-planting season"	2019/6/17	2019/6/17
PRA000092	SAA005523	ST015		ZETTAICODE_FY2014_W	2710430	W_2710430_20140611	Water	"River water"	2014	6	11					Asia	Japan	"Taka-hashi bridge, Ishi-kawa Riv., Osaka"	34.47916667		135.5872222																																										"Rice-planting season"	2019/6/17	2019/6/17
PRA000092	SAA005524	ST015		ZETTAICODE_FY2014_W	2710430	W_2710430_20140613	Water	"River water"	2014	6	13					Asia	Japan	"Taka-hashi bridge, Ishi-kawa Riv., Osaka"	34.47916667		135.5872222																																										"Rice-planting season"	2019/6/17	2019/6/17
PRA000092	SAA005525	ST015		ZETTAICODE_FY2014_W	2710430	W_2710430_20140616	Water	"River water"	2014	6	16					Asia	Japan	"Taka-hashi bridge, Ishi-kawa Riv., Osaka"	34.47916667		135.5872222																																										"End of rice-planting season"	2019/6/17	2019/6/17
PRA000092	SAA005526	ST015		ZETTAICODE_FY2014_W	2710430	W_2710430_20140620	Water	"River water"	2014	6	20					Asia	Japan	"Taka-hashi bridge, Ishi-kawa Riv., Osaka"	34.47916667		135.5872222																																											2019/6/17	2019/6/17
PRA000092	SAA005527	ST015		ZETTAICODE_FY2014_W	2710430	W_2710430_20140623	Water	"River water"	2014	6	23					Asia	Japan	"Taka-hashi bridge, Ishi-kawa Riv., Osaka"	34.47916667		135.5872222																																											2019/6/17	2019/6/17
PRA000092	SAA005528	ST015		ZETTAICODE_FY2014_W	2710430	W_2710430_20140627	Water	"River water"	2014	6	27					Asia	Japan	"Taka-hashi bridge, Ishi-kawa Riv., Osaka"	34.47916667		135.5872222																																											2019/6/17	2019/6/17
PRA000092	SAA005529	ST015		ZETTAICODE_FY2014_W	2710430	W_2710430_20140630	Water	"River water"	2014	6	30					Asia	Japan	"Taka-hashi bridge, Ishi-kawa Riv., Osaka"	34.47916667		135.5872222																																											2019/6/17	2019/6/17
PRA000092	SAA005530	ST015		ZETTAICODE_FY2014_W	2710430	W_2710430_20140707	Water	"River water"	2014	7	7					Asia	Japan	"Taka-hashi bridge, Ishi-kawa Riv., Osaka"	34.47916667		135.5872222																																											2019/6/17	2019/6/17
PRA000092	SAA005531	ST015		ZETTAICODE_FY2014_W	2710430	W_2710430_20140714	Water	"River water"	2014	7	14					Asia	Japan	"Taka-hashi bridge, Ishi-kawa Riv., Osaka"	34.47916667		135.5872222																																											2019/6/17	2019/6/17
PRA000092	SAA005532	ST015		ZETTAICODE_FY2014_W	2710430	W_2710430_20140722	Water	"River water"	2014	7	22					Asia	Japan	"Taka-hashi bridge, Ishi-kawa Riv., Osaka"	34.47916667		135.5872222																																											2019/6/17	2019/6/17
PRA000092	SAA005533	ST015		ZETTAICODE_FY2014_W	2710430	W_2710430_20140731	Water	"River water"	2014	7	31					Asia	Japan	"Taka-hashi bridge, Ishi-kawa Riv., Osaka"	34.47916667		135.5872222																																											2019/6/17	2019/6/17
PRA000093	SAA005534	ST015		ZETTAICODE_FY2013_W	2710430	W_2710430_20130513	Water	"River water"	2013	5	13					Asia	Japan	"Taka-hashi bridge, Ishi-kawa Riv., Osaka"	34.47916667		135.5872222																																											2019/6/20	2019/6/20
PRA000093	SAA005535	ST015		ZETTAICODE_FY2013_W	2710430	W_2710430_20130520	Water	"River water"	2013	5	20					Asia	Japan	"Taka-hashi bridge, Ishi-kawa Riv., Osaka"	34.47916667		135.5872222																																											2019/6/20	2019/6/20
PRA000093	SAA005536	ST015		ZETTAICODE_FY2013_W	2710430	W_2710430_20130527	Water	"River water"	2013	5	27					Asia	Japan	"Taka-hashi bridge, Ishi-kawa Riv., Osaka"	34.47916667		135.5872222																																											2019/6/20	2019/6/20
PRA000093	SAA005537	ST015		ZETTAICODE_FY2013_W	2710430	W_2710430_20130531	Water	"River water"	2013	5	31					Asia	Japan	"Taka-hashi bridge, Ishi-kawa Riv., Osaka"	34.47916667		135.5872222																																										"Rice-planting season; At a peak of Pretilachlor use"	2019/6/20	2019/7/11
PRA000093	SAA005538	ST015		ZETTAICODE_FY2013_W	2710430	W_2710430_20130603	Water	"River water"	2013	6	3					Asia	Japan	"Taka-hashi bridge, Ishi-kawa Riv., Osaka"	34.47916667		135.5872222																																										"Rice-planting season; At a peak of Butachlor use"	2019/6/20	2019/6/20
PRA000093	SAA005539	ST015		ZETTAICODE_FY2013_W	2710430	W_2710430_20130605	Water	"River water"	2013	6	5					Asia	Japan	"Taka-hashi bridge, Ishi-kawa Riv., Osaka"	34.47916667		135.5872222																																										"Rice-planting season"	2019/6/20	2019/6/20
PRA000093	SAA005540	ST015		ZETTAICODE_FY2013_W	2710430	W_2710430_20130607	Water	"River water"	2013	6	7					Asia	Japan	"Taka-hashi bridge, Ishi-kawa Riv., Osaka"	34.47916667		135.5872222																																										"Rice-planting season; At a peak of Mefenacet use"	2019/6/20	2019/7/11
PRA000093	SAA005541	ST015		ZETTAICODE_FY2013_W	2710430	W_2710430_20130610	Water	"River water"	2013	6	10					Asia	Japan	"Taka-hashi bridge, Ishi-kawa Riv., Osaka"	34.47916667		135.5872222																																										"Rice-planting season"	2019/6/20	2019/6/20
PRA000093	SAA005542	ST015		ZETTAICODE_FY2013_W	2710430	W_2710430_20130612	Water	"River water"	2013	6	12					Asia	Japan	"Taka-hashi bridge, Ishi-kawa Riv., Osaka"	34.47916667		135.5872222																																										"Rice-planting season"	2019/6/20	2019/6/20
PRA000093	SAA005543	ST015		ZETTAICODE_FY2013_W	2710430	W_2710430_20130614	Water	"River water"	2013	6	14					Asia	Japan	"Taka-hashi bridge, Ishi-kawa Riv., Osaka"	34.47916667		135.5872222																																										"End of rice-planting season"	2019/6/20	2019/6/20
PRA000093	SAA005544	ST015		ZETTAICODE_FY2013_W	2710430	W_2710430_20130617	Water	"River water"	2013	6	17					Asia	Japan	"Taka-hashi bridge, Ishi-kawa Riv., Osaka"	34.47916667		135.5872222																																											2019/6/20	2019/6/20
PRA000093	SAA005545	ST015		ZETTAICODE_FY2013_W	2710430	W_2710430_20130621	Water	"River water"	2013	6	21					Asia	Japan	"Taka-hashi bridge, Ishi-kawa Riv., Osaka"	34.47916667		135.5872222																																											2019/6/20	2019/6/20
PRA000093	SAA005546	ST015		ZETTAICODE_FY2013_W	2710430	W_2710430_20130624	Water	"River water"	2013	6	24					Asia	Japan	"Taka-hashi bridge, Ishi-kawa Riv., Osaka"	34.47916667		135.5872222																																											2019/6/20	2019/6/20
PRA000093	SAA005547	ST015		ZETTAICODE_FY2013_W	2710430	W_2710430_20130628	Water	"River water"	2013	6	28					Asia	Japan	"Taka-hashi bridge, Ishi-kawa Riv., Osaka"	34.47916667		135.5872222																																											2019/6/20	2019/6/20
PRA000093	SAA005548	ST015		ZETTAICODE_FY2013_W	2710430	W_2710430_20130701	Water	"River water"	2013	7	1					Asia	Japan	"Taka-hashi bridge, Ishi-kawa Riv., Osaka"	34.47916667		135.5872222																																											2019/6/20	2019/6/20
PRA000093	SAA005549	ST015		ZETTAICODE_FY2013_W	2710430	W_2710430_20130710	Water	"River water"	2013	7	10					Asia	Japan	"Taka-hashi bridge, Ishi-kawa Riv., Osaka"	34.47916667		135.5872222																																											2019/6/20	2019/6/20
PRA000093	SAA005550	ST015		ZETTAICODE_FY2013_W	2710430	W_2710430_20130717	Water	"River water"	2013	7	17					Asia	Japan	"Taka-hashi bridge, Ishi-kawa Riv., Osaka"	34.47916667		135.5872222																																											2019/6/20	2019/6/20
PRA000093	SAA005551	ST015		ZETTAICODE_FY2013_W	2710430	W_2710430_20130722	Water	"River water"	2013	7	22					Asia	Japan	"Taka-hashi bridge, Ishi-kawa Riv., Osaka"	34.47916667		135.5872222																																											2019/6/20	2019/6/20
PRA000093	SAA005552	ST015		ZETTAICODE_FY2013_W	2710430	W_2710430_20130731	Water	"River water"	2013	7	31					Asia	Japan	"Taka-hashi bridge, Ishi-kawa Riv., Osaka"	34.47916667		135.5872222																																											2019/6/20	2019/6/20
PRA000093	SAA005553	ST015		ZETTAICODE_FY2013_W	2712070	W_2712070_20130513	Water	"River water"	2013	5	13					Asia	Japan	"Otomo-bashi bridge, Sabi Riv., Osaka"	34.49944444		135.6086111																																											2019/6/20	2019/6/20
PRA000093	SAA005554	ST015		ZETTAICODE_FY2013_W	2712070	W_2712070_20130520	Water	"River water"	2013	5	20					Asia	Japan	"Otomo-bashi bridge, Sabi Riv., Osaka"	34.49944444		135.6086111																																											2019/6/20	2019/6/20
PRA000093	SAA005555	ST015		ZETTAICODE_FY2013_W	2712070	W_2712070_20130527	Water	"River water"	2013	5	27					Asia	Japan	"Otomo-bashi bridge, Sabi Riv., Osaka"	34.49944444		135.6086111																																											2019/6/20	2019/6/20
PRA000093	SAA005556	ST015		ZETTAICODE_FY2013_W	2712070	W_2712070_20130531	Water	"River water"	2013	5	31					Asia	Japan	"Otomo-bashi bridge, Sabi Riv., Osaka"	34.49944444		135.6086111																																										"Rice-planting season; At a peak of Pretilachlor use"	2019/6/20	2019/7/11
PRA000093	SAA005557	ST015		ZETTAICODE_FY2013_W	2712070	W_2712070_20130603	Water	"River water"	2013	6	3					Asia	Japan	"Otomo-bashi bridge, Sabi Riv., Osaka"	34.49944444		135.6086111																																										"Rice-planting season; At a peak of Butachlor use"	2019/6/20	2019/6/20
PRA000093	SAA005558	ST015		ZETTAICODE_FY2013_W	2712070	W_2712070_20130605	Water	"River water"	2013	6	5					Asia	Japan	"Otomo-bashi bridge, Sabi Riv., Osaka"	34.49944444		135.6086111																																										"Rice-planting season"	2019/6/20	2019/6/20
PRA000093	SAA005559	ST015		ZETTAICODE_FY2013_W	2712070	W_2712070_20130607	Water	"River water"	2013	6	7					Asia	Japan	"Otomo-bashi bridge, Sabi Riv., Osaka"	34.49944444		135.6086111																																										"Rice-planting season; At a peak of Mefenacet use"	2019/6/20	2019/7/11
PRA000093	SAA005560	ST015		ZETTAICODE_FY2013_W	2712070	W_2712070_20130610	Water	"River water"	2013	6	10					Asia	Japan	"Otomo-bashi bridge, Sabi Riv., Osaka"	34.49944444		135.6086111																																										"Rice-planting season"	2019/6/20	2019/6/20
PRA000093	SAA005561	ST015		ZETTAICODE_FY2013_W	2712070	W_2712070_20130612	Water	"River water"	2013	6	12					Asia	Japan	"Otomo-bashi bridge, Sabi Riv., Osaka"	34.49944444		135.6086111																																										"Rice-planting season"	2019/6/20	2019/6/20
PRA000093	SAA005562	ST015		ZETTAICODE_FY2013_W	2712070	W_2712070_20130614	Water	"River water"	2013	6	14					Asia	Japan	"Otomo-bashi bridge, Sabi Riv., Osaka"	34.49944444		135.6086111																																										"End of rice-planting season"	2019/6/20	2019/6/20
PRA000093	SAA005563	ST015		ZETTAICODE_FY2013_W	2712070	W_2712070_20130617	Water	"River water"	2013	6	17					Asia	Japan	"Otomo-bashi bridge, Sabi Riv., Osaka"	34.49944444		135.6086111																																											2019/6/20	2019/6/20
PRA000093	SAA005564	ST015		ZETTAICODE_FY2013_W	2712070	W_2712070_20130621	Water	"River water"	2013	6	21					Asia	Japan	"Otomo-bashi bridge, Sabi Riv., Osaka"	34.49944444		135.6086111																																											2019/6/20	2019/6/20
PRA000093	SAA005565	ST015		ZETTAICODE_FY2013_W	2712070	W_2712070_20130624	Water	"River water"	2013	6	24					Asia	Japan	"Otomo-bashi bridge, Sabi Riv., Osaka"	34.49944444		135.6086111																																											2019/6/20	2019/6/20
PRA000093	SAA005566	ST015		ZETTAICODE_FY2013_W	2712070	W_2712070_20130628	Water	"River water"	2013	6	28					Asia	Japan	"Otomo-bashi bridge, Sabi Riv., Osaka"	34.49944444		135.6086111																																											2019/6/20	2019/6/20
PRA000093	SAA005567	ST015		ZETTAICODE_FY2013_W	2712070	W_2712070_20130701	Water	"River water"	2013	7	1					Asia	Japan	"Otomo-bashi bridge, Sabi Riv., Osaka"	34.49944444		135.6086111																																											2019/6/20	2019/6/20
PRA000093	SAA005568	ST015		ZETTAICODE_FY2013_W	2712070	W_2712070_20130710	Water	"River water"	2013	7	10					Asia	Japan	"Otomo-bashi bridge, Sabi Riv., Osaka"	34.49944444		135.6086111																																											2019/6/20	2019/6/20
PRA000093	SAA005569	ST015		ZETTAICODE_FY2013_W	2712070	W_2712070_20130717	Water	"River water"	2013	7	17					Asia	Japan	"Otomo-bashi bridge, Sabi Riv., Osaka"	34.49944444		135.6086111																																											2019/6/20	2019/6/20
PRA000093	SAA005570	ST015		ZETTAICODE_FY2013_W	2712070	W_2712070_20130722	Water	"River water"	2013	7	22					Asia	Japan	"Otomo-bashi bridge, Sabi Riv., Osaka"	34.49944444		135.6086111																																											2019/6/20	2019/6/20
PRA000093	SAA005571	ST015		ZETTAICODE_FY2013_W	2712070	W_2712070_20130731	Water	"River water"	2013	7	31					Asia	Japan	"Otomo-bashi bridge, Sabi Riv., Osaka"	34.49944444		135.6086111																																											2019/6/20	2019/6/20
PRA000093	SAA005572	ST015		ZETTAICODE_FY2013_W	2710440	W_2710440_20130513	Water	"River water"	2013	5	13					Asia	Japan	"Ishikawa-bashi bridge, Ishi-kawa Riv., Osaka"	34.57		135.6219445																																											2019/6/20	2019/6/20
PRA000093	SAA005573	ST015		ZETTAICODE_FY2013_W	2710440	W_2710440_20130520	Water	"River water"	2013	5	20					Asia	Japan	"Ishikawa-bashi bridge, Ishi-kawa Riv., Osaka"	34.57		135.6219445																																											2019/6/20	2019/6/20
PRA000093	SAA005574	ST015		ZETTAICODE_FY2013_W	2710440	W_2710440_20130527	Water	"River water"	2013	5	27					Asia	Japan	"Ishikawa-bashi bridge, Ishi-kawa Riv., Osaka"	34.57		135.6219445																																											2019/6/20	2019/6/20
PRA000093	SAA005575	ST015		ZETTAICODE_FY2013_W	2710440	W_2710440_20130531	Water	"River water"	2013	5	31					Asia	Japan	"Ishikawa-bashi bridge, Ishi-kawa Riv., Osaka"	34.57		135.6219445																																										"Rice-planting season; At a peak of Pretilachlor use"	2019/6/20	2019/7/11
PRA000093	SAA005576	ST015		ZETTAICODE_FY2013_W	2710440	W_2710440_20130603	Water	"River water"	2013	6	3					Asia	Japan	"Ishikawa-bashi bridge, Ishi-kawa Riv., Osaka"	34.57		135.6219445																																										"Rice-planting season; At a peak of Butachlor use"	2019/6/20	2019/6/20
PRA000093	SAA005577	ST015		ZETTAICODE_FY2013_W	2710440	W_2710440_20130605	Water	"River water"	2013	6	5					Asia	Japan	"Ishikawa-bashi bridge, Ishi-kawa Riv., Osaka"	34.57		135.6219445																																										"Rice-planting season"	2019/6/20	2019/6/20
PRA000093	SAA005578	ST015		ZETTAICODE_FY2013_W	2710440	W_2710440_20130607	Water	"River water"	2013	6	7					Asia	Japan	"Ishikawa-bashi bridge, Ishi-kawa Riv., Osaka"	34.57		135.6219445																																										"Rice-planting season; At a peak of Mefenacet use"	2019/6/20	2019/7/11
PRA000093	SAA005579	ST015		ZETTAICODE_FY2013_W	2710440	W_2710440_20130610	Water	"River water"	2013	6	10					Asia	Japan	"Ishikawa-bashi bridge, Ishi-kawa Riv., Osaka"	34.57		135.6219445																																										"Rice-planting season"	2019/6/20	2019/6/20
PRA000093	SAA005580	ST015		ZETTAICODE_FY2013_W	2710440	W_2710440_20130612	Water	"River water"	2013	6	12					Asia	Japan	"Ishikawa-bashi bridge, Ishi-kawa Riv., Osaka"	34.57		135.6219445																																										"Rice-planting season"	2019/6/20	2019/6/20
PRA000093	SAA005581	ST015		ZETTAICODE_FY2013_W	2710440	W_2710440_20130614	Water	"River water"	2013	6	14					Asia	Japan	"Ishikawa-bashi bridge, Ishi-kawa Riv., Osaka"	34.57		135.6219445																																										"End of rice-planting season"	2019/6/20	2019/6/20
PRA000093	SAA005582	ST015		ZETTAICODE_FY2013_W	2710440	W_2710440_20130617	Water	"River water"	2013	6	17					Asia	Japan	"Ishikawa-bashi bridge, Ishi-kawa Riv., Osaka"	34.57		135.6219445																																											2019/6/20	2019/6/20
PRA000093	SAA005583	ST015		ZETTAICODE_FY2013_W	2710440	W_2710440_20130621	Water	"River water"	2013	6	21					Asia	Japan	"Ishikawa-bashi bridge, Ishi-kawa Riv., Osaka"	34.57		135.6219445																																											2019/6/20	2019/6/20
PRA000093	SAA005584	ST015		ZETTAICODE_FY2013_W	2710440	W_2710440_20130624	Water	"River water"	2013	6	24					Asia	Japan	"Ishikawa-bashi bridge, Ishi-kawa Riv., Osaka"	34.57		135.6219445																																											2019/6/20	2019/6/20
PRA000093	SAA005585	ST015		ZETTAICODE_FY2013_W	2710440	W_2710440_20130628	Water	"River water"	2013	6	28					Asia	Japan	"Ishikawa-bashi bridge, Ishi-kawa Riv., Osaka"	34.57		135.6219445																																											2019/6/20	2019/6/20
PRA000093	SAA005586	ST015		ZETTAICODE_FY2013_W	2710440	W_2710440_20130701	Water	"River water"	2013	7	1					Asia	Japan	"Ishikawa-bashi bridge, Ishi-kawa Riv., Osaka"	34.57		135.6219445																																											2019/6/20	2019/6/20
PRA000093	SAA005587	ST015		ZETTAICODE_FY2013_W	2710440	W_2710440_20130710	Water	"River water"	2013	7	10					Asia	Japan	"Ishikawa-bashi bridge, Ishi-kawa Riv., Osaka"	34.57		135.6219445																																											2019/6/20	2019/6/20
PRA000093	SAA005588	ST015		ZETTAICODE_FY2013_W	2710440	W_2710440_20130717	Water	"River water"	2013	7	17					Asia	Japan	"Ishikawa-bashi bridge, Ishi-kawa Riv., Osaka"	34.57		135.6219445																																											2019/6/20	2019/6/20
PRA000093	SAA005589	ST015		ZETTAICODE_FY2013_W	2710440	W_2710440_20130722	Water	"River water"	2013	7	22					Asia	Japan	"Ishikawa-bashi bridge, Ishi-kawa Riv., Osaka"	34.57		135.6219445																																											2019/6/20	2019/6/20
PRA000093	SAA005590	ST015		ZETTAICODE_FY2013_W	2710440	W_2710440_20130731	Water	"River water"	2013	7	31					Asia	Japan	"Ishikawa-bashi bridge, Ishi-kawa Riv., Osaka"	34.57		135.6219445																																											2019/6/20	2019/6/20
PRA000093	SAA005591	ST015				W_39xyz01_20130507	Water	"River water"	2013	5	7					Asia	Japan	"Kongen-bashi bridge, Niida-gawa Riv., Kochi"	33.221089		133.140711																																										"High season of Butachlor use"	2019/6/20	2019/6/20
PRA000093	SAA005592	ST015				W_39xyz01_20130515	Water	"River water"	2013	5	15					Asia	Japan	"Kongen-bashi bridge, Niida-gawa Riv., Kochi"	33.221089		133.140711																																										"High season of Butachlor use"	2019/6/20	2019/6/20
PRA000093	SAA005593	ST015				W_39xyz01_20130523	Water	"River water"	2013	5	23					Asia	Japan	"Kongen-bashi bridge, Niida-gawa Riv., Kochi"	33.221089		133.140711																																										"High season of Butachlor use"	2019/6/20	2019/6/20
PRA000093	SAA005594	ST015				W_39xyz01_20130527	Water	"River water"	2013	5	27					Asia	Japan	"Kongen-bashi bridge, Niida-gawa Riv., Kochi"	33.221089		133.140711																																										"High season of Butachlor use"	2019/6/20	2019/6/20
PRA000093	SAA005595	ST015				W_39xyz01_20130530	Water	"River water"	2013	5	30					Asia	Japan	"Kongen-bashi bridge, Niida-gawa Riv., Kochi"	33.221089		133.140711																																										"At a peak of rice-planting; At a peak of Butachlor use"	2019/6/20	2019/6/20
PRA000093	SAA005596	ST015				W_39xyz01_20130603	Water	"River water"	2013	6	3					Asia	Japan	"Kongen-bashi bridge, Niida-gawa Riv., Kochi"	33.221089		133.140711																																											2019/6/20	2019/6/20
PRA000093	SAA005597	ST015				W_39xyz01_20130606	Water	"River water"	2013	6	6					Asia	Japan	"Kongen-bashi bridge, Niida-gawa Riv., Kochi"	33.221089		133.140711																																											2019/6/20	2019/6/20
PRA000093	SAA005598	ST015				W_39xyz01_20130610	Water	"River water"	2013	6	10					Asia	Japan	"Kongen-bashi bridge, Niida-gawa Riv., Kochi"	33.221089		133.140711																																											2019/6/20	2019/6/20
PRA000093	SAA005599	ST015				W_39xyz01_20130613	Water	"River water"	2013	6	13					Asia	Japan	"Kongen-bashi bridge, Niida-gawa Riv., Kochi"	33.221089		133.140711																																											2019/6/20	2019/6/20
PRA000093	SAA005600	ST015				W_39xyz01_20130617	Water	"River water"	2013	6	17					Asia	Japan	"Kongen-bashi bridge, Niida-gawa Riv., Kochi"	33.221089		133.140711																																											2019/6/20	2019/6/20
PRA000093	SAA005601	ST015				W_39xyz01_20130620	Water	"River water"	2013	6	20					Asia	Japan	"Kongen-bashi bridge, Niida-gawa Riv., Kochi"	33.221089		133.140711																																											2019/6/20	2019/6/20
PRA000093	SAA005602	ST015				W_39xyz01_20130624	Water	"River water"	2013	6	24					Asia	Japan	"Kongen-bashi bridge, Niida-gawa Riv., Kochi"	33.221089		133.140711																																											2019/6/20	2019/6/20
PRA000093	SAA005603	ST015				W_39xyz01_20130703	Water	"River water"	2013	7	3					Asia	Japan	"Kongen-bashi bridge, Niida-gawa Riv., Kochi"	33.221089		133.140711																																											2019/6/20	2019/6/20
PRA000093	SAA005604	ST015				W_39xyz01_20130708	Water	"River water"	2013	7	8					Asia	Japan	"Kongen-bashi bridge, Niida-gawa Riv., Kochi"	33.221089		133.140711																																											2019/6/20	2019/6/20
PRA000093	SAA005605	ST015				W_39xyz01_20130716	Water	"River water"	2013	7	16					Asia	Japan	"Kongen-bashi bridge, Niida-gawa Riv., Kochi"	33.221089		133.140711																																											2019/6/20	2019/6/20
PRA000093	SAA005606	ST015				W_39xyz01_20130729	Water	"River water"	2013	7	29					Asia	Japan	"Kongen-bashi bridge, Niida-gawa Riv., Kochi"	33.221089		133.140711																																											2019/6/20	2019/6/20
PRA000093	SAA005607	ST015		ZETTAICODE_FY2013_W	3910750	W_3910750_20130507	Water	"River water"	2013	5	7					Asia	Japan	"Kajiyase-bashi bridge, Shimanto-gawa Riv., Kochi"	33.2375		133.1291667																																										"High season of Butachlor use"	2019/6/20	2019/6/20
PRA000093	SAA005608	ST015		ZETTAICODE_FY2013_W	3910750	W_3910750_20130515	Water	"River water"	2013	5	15					Asia	Japan	"Kajiyase-bashi bridge, Shimanto-gawa Riv., Kochi"	33.2375		133.1291667																																										"High season of Butachlor use"	2019/6/20	2019/6/20
PRA000093	SAA005609	ST015		ZETTAICODE_FY2013_W	3910750	W_3910750_20130523	Water	"River water"	2013	5	23					Asia	Japan	"Kajiyase-bashi bridge, Shimanto-gawa Riv., Kochi"	33.2375		133.1291667																																										"High season of Butachlor use"	2019/6/20	2019/6/20
PRA000093	SAA005610	ST015		ZETTAICODE_FY2013_W	3910750	W_3910750_20130527	Water	"River water"	2013	5	27					Asia	Japan	"Kajiyase-bashi bridge, Shimanto-gawa Riv., Kochi"	33.2375		133.1291667																																										"High season of Butachlor use"	2019/6/20	2019/6/20
PRA000093	SAA005611	ST015		ZETTAICODE_FY2013_W	3910750	W_3910750_20130530	Water	"River water"	2013	5	30					Asia	Japan	"Kajiyase-bashi bridge, Shimanto-gawa Riv., Kochi"	33.2375		133.1291667																																										"At a peak of rice-planting; At a peak of Butachlor use"	2019/6/20	2019/6/20
PRA000093	SAA005612	ST015		ZETTAICODE_FY2013_W	3910750	W_3910750_20130603	Water	"River water"	2013	6	3					Asia	Japan	"Kajiyase-bashi bridge, Shimanto-gawa Riv., Kochi"	33.2375		133.1291667																																											2019/6/20	2019/6/20
PRA000093	SAA005613	ST015		ZETTAICODE_FY2013_W	3910750	W_3910750_20130606	Water	"River water"	2013	6	6					Asia	Japan	"Kajiyase-bashi bridge, Shimanto-gawa Riv., Kochi"	33.2375		133.1291667																																											2019/6/20	2019/6/20
PRA000093	SAA005614	ST015		ZETTAICODE_FY2013_W	3910750	W_3910750_20130610	Water	"River water"	2013	6	10					Asia	Japan	"Kajiyase-bashi bridge, Shimanto-gawa Riv., Kochi"	33.2375		133.1291667																																											2019/6/20	2019/6/20
PRA000093	SAA005615	ST015		ZETTAICODE_FY2013_W	3910750	W_3910750_20130613	Water	"River water"	2013	6	13					Asia	Japan	"Kajiyase-bashi bridge, Shimanto-gawa Riv., Kochi"	33.2375		133.1291667																																											2019/6/20	2019/6/20
PRA000093	SAA005616	ST015		ZETTAICODE_FY2013_W	3910750	W_3910750_20130617	Water	"River water"	2013	6	17					Asia	Japan	"Kajiyase-bashi bridge, Shimanto-gawa Riv., Kochi"	33.2375		133.1291667																																											2019/6/20	2019/6/20
PRA000093	SAA005617	ST015		ZETTAICODE_FY2013_W	3910750	W_3910750_20130620	Water	"River water"	2013	6	20					Asia	Japan	"Kajiyase-bashi bridge, Shimanto-gawa Riv., Kochi"	33.2375		133.1291667																																											2019/6/20	2019/6/20
PRA000093	SAA005618	ST015		ZETTAICODE_FY2013_W	3910750	W_3910750_20130624	Water	"River water"	2013	6	24					Asia	Japan	"Kajiyase-bashi bridge, Shimanto-gawa Riv., Kochi"	33.2375		133.1291667																																											2019/6/20	2019/6/20
PRA000093	SAA005619	ST015		ZETTAICODE_FY2013_W	3910750	W_3910750_20130703	Water	"River water"	2013	7	3					Asia	Japan	"Kajiyase-bashi bridge, Shimanto-gawa Riv., Kochi"	33.2375		133.1291667																																											2019/6/20	2019/6/20
PRA000093	SAA005620	ST015		ZETTAICODE_FY2013_W	3910750	W_3910750_20130708	Water	"River water"	2013	7	8					Asia	Japan	"Kajiyase-bashi bridge, Shimanto-gawa Riv., Kochi"	33.2375		133.1291667																																											2019/6/20	2019/6/20
PRA000093	SAA005621	ST015		ZETTAICODE_FY2013_W	3910750	W_3910750_20130716	Water	"River water"	2013	7	16					Asia	Japan	"Kajiyase-bashi bridge, Shimanto-gawa Riv., Kochi"	33.2375		133.1291667																																											2019/6/20	2019/6/20
PRA000093	SAA005622	ST015		ZETTAICODE_FY2013_W	3910750	W_3910750_20130729	Water	"River water"	2013	7	29					Asia	Japan	"Kajiyase-bashi bridge, Shimanto-gawa Riv., Kochi"	33.2375		133.1291667																																											2019/6/20	2019/6/20
PRA000094	SAA005623	ST014				1_St.A-1_Bottom	Water	"Sea water"	2015	6	15					Asia	Japan	"Hiuchi-nada, Seto Inland Sea"	33.973418	33.976852	133.06413	133.06664														22					27.2		"0.3 (sampling depth) / 0.5"																				"Layer: Bottom; "	2019/6/24	2019/6/24
PRA000094	SAA005624	ST014				2_St.D_Bottom	Water	"Sea water"	2015	7	28					Asia	Japan	"Hiuchi-nada, Seto Inland Sea"	33.93417		133.156567															27					21.6		"0.3 (sampling depth) / 0.6"																				"Layer: Bottom; "	2019/6/24	2019/6/24
PRA000094	SAA005625	ST014				3_St.A-1_Bottom	Water	"Sea water"	2015	7	28					Asia	Japan	"Hiuchi-nada, Seto Inland Sea"	33.973418	33.976852	133.06413	133.06664														27.3					26.6		"0.3 (sampling depth) / 0.5"																				"Layer: Bottom; "	2019/6/24	2019/6/24
PRA000094	SAA005626	ST014				4_St.D_Bottom	Water	"Sea water"	2015	8	28					Asia	Japan	"Hiuchi-nada, Seto Inland Sea"	33.93417		133.156567															27.7					27		"0.3 (sampling depth) / 0.6"																				"Layer: Bottom; "	2019/6/24	2019/6/24
PRA000094	SAA005627	ST014				5_St.D-floodgate_Bottom	Water	"Sea water"	2015	8	28					Asia	Japan	"Hiuchi-nada, Seto Inland Sea"	33.93417		133.156567															26.8					26.7		"0.3 (sampling depth) / 0.6"																				"Layer: Bottom; "	2019/6/24	2019/6/24
PRA000094	SAA005628	ST014				6_St.A-1_Bottom	Water	"Sea water"	2015	8	28					Asia	Japan	"Hiuchi-nada, Seto Inland Sea"	33.973418	33.976852	133.06413	133.06664														27.2					21.5		"0.3 (sampling depth) / 0.5"																				"Layer: Bottom; "	2019/6/24	2019/6/24
PRA000094	SAA005629	ST014				7_St.A-1_Bottom	Water	"Sea water"	2015	9	28					Asia	Japan	"Hiuchi-nada, Seto Inland Sea"	33.973418	33.976852	133.06413	133.06664														25.9					24.4		"0.3 (sampling depth) / 0.5"																				"Layer: Bottom; "	2019/6/24	2019/6/24
PRA000094	SAA005630	ST014				8_St.D_Bottom	Water	"Sea water"	2015	9	28					Asia	Japan	"Hiuchi-nada, Seto Inland Sea"	33.93417		133.156567															25.2					23.5		"0.3 (sampling depth) / 0.6"																				"Layer: Bottom; "	2019/6/24	2019/6/24
PRA000094	SAA005631	ST014				9_St.D-floodgate_Bottom	Water	"Sea water"	2015	9	28					Asia	Japan	"Hiuchi-nada, Seto Inland Sea"	33.93417		133.156567															25.5					25.9		"0.3 (sampling depth) / 0.6"																				"Layer: Bottom; "	2019/6/24	2019/6/24
PRA000094	SAA005632	ST014				10_St.A-1_Bottom	Water	"Sea water"	2015	10	22					Asia	Japan	"Hiuchi-nada, Seto Inland Sea"	33.973418	33.976852	133.06413	133.06664														22.2					25.4		"0.3 (sampling depth) / 0.5"																				"Layer: Bottom; "	2019/6/24	2019/6/24
PRA000094	SAA005633	ST014				11_St.D_Bottom	Water	"Sea water"	2015	10	22					Asia	Japan	"Hiuchi-nada, Seto Inland Sea"	33.93417		133.156567															26					29.6		"0.3 (sampling depth) / 0.6"																				"Layer: Bottom; "	2019/6/24	2019/6/24
PRA000094	SAA005634	ST014				12_St.D-floodgate_Bottom	Water	"Sea water"	2015	10	22					Asia	Japan	"Hiuchi-nada, Seto Inland Sea"	33.93417		133.156567															25.6					25.9		"0.3 (sampling depth) / 0.6"																				"Layer: Bottom; "	2019/6/24	2019/6/24
PRA000094	SAA005635	ST014				13_St.A-1_Bottom	Water	"Sea water"	2015	12	7					Asia	Japan	"Hiuchi-nada, Seto Inland Sea"	33.973418	33.976852	133.06413	133.06664														17					28.7		"0.3 (sampling depth) / 0.5"																				"Layer: Bottom; "	2019/6/24	2019/6/24
PRA000094	SAA005636	ST014				14_St.D_Bottom	Water	"Sea water"	2015	12	7					Asia	Japan	"Hiuchi-nada, Seto Inland Sea"	33.93417		133.156567															16.7					29.4		"0.3 (sampling depth) / 0.6"																				"Layer: Bottom; "	2019/6/24	2019/6/24
PRA000094	SAA005637	ST014				15_St.D-floodgate_Bottom	Water	"Sea water"	2015	12	7					Asia	Japan	"Hiuchi-nada, Seto Inland Sea"	33.93417		133.156567															16.8					25.2		"0.3 (sampling depth) / 0.6"																				"Layer: Bottom; "	2019/6/24	2019/6/24
PRA000094	SAA005638	ST014				16_St.D_Bottom	Water	"Sea water"	2016	5	22					Asia	Japan	"Hiuchi-nada, Seto Inland Sea"	33.93417		133.156567															23					23		"0.3 (sampling depth) / 0.6"																				"Layer: Bottom; "	2019/6/24	2019/6/24
PRA000094	SAA005639	ST014				17_St.A-1_Bottom	Water	"Sea water"	2016	5	22					Asia	Japan	"Hiuchi-nada, Seto Inland Sea"	33.973418	33.976852	133.06413	133.06664														19.8					19.8		"0.3 (sampling depth) / 0.5"																				"Layer: Bottom; "	2019/6/24	2019/6/24
PRA000094	SAA005640	ST014				18_St.B_Mid	Water	"Sea water"	2016	5	22					Asia	Japan	"Hiuchi-nada, Seto Inland Sea"	33.940781		133.100371															20.7					20.7		"3.0 (sampling depth) / 8.0"																				"Layer: Mid; "	2019/6/24	2019/6/24
PRA000094	SAA005641	ST014				19_St.C_Bottom	Water	"Sea water"	2016	5	22					Asia	Japan	"Hiuchi-nada, Seto Inland Sea"	33.92777		133.140053															20.5					22.5		"1.2 (sampling depth) / 1.5"																				"Layer: Bottom; "	2019/6/24	2019/6/24
PRA000094	SAA005642	ST014				20_St.D_Bottom	Water	"Sea water"	2016	6	2					Asia	Japan	"Hiuchi-nada, Seto Inland Sea"	33.93417		133.156567															20.1					29.4		"0.3 (sampling depth) / 0.6"																				"Layer: Bottom; "	2019/6/24	2019/6/24
PRA000094	SAA005643	ST014				21_St.A-1_Bottom	Water	"Sea water"	2016	6	2					Asia	Japan	"Hiuchi-nada, Seto Inland Sea"	33.973418	33.976852	133.06413	133.06664														20.8					29.7		"0.3 (sampling depth) / 0.5"																				"Layer: Bottom; "	2019/6/24	2019/6/24
PRA000094	SAA005644	ST014				22_St.B_Surface	Water	"Sea water"	2016	6	2					Asia	Japan	"Hiuchi-nada, Seto Inland Sea"	33.940781		133.100371															20.1					23		"0.3 (sampling depth) / 8.0"																				"Layer: Surface; "	2019/6/24	2019/6/24
PRA000094	SAA005645	ST014				23_St.C_Bottom	Water	"Sea water"	2016	6	2					Asia	Japan	"Hiuchi-nada, Seto Inland Sea"	33.92777		133.140053															20.1					30.5		"1.2 (sampling depth) / 1.5"																				"Layer: Bottom; "	2019/6/24	2019/6/24
PRA000094	SAA005646	ST014				24_St.D_Bottom	Water	"Sea water"	2016	6	30					Asia	Japan	"Hiuchi-nada, Seto Inland Sea"	33.93417		133.156567															21.1					11.4		"0.3 (sampling depth) / 0.6"																				"Layer: Bottom; "	2019/6/24	2019/6/24
PRA000094	SAA005647	ST014				25_St.A-1_Bottom	Water	"Sea water"	2016	6	30					Asia	Japan	"Hiuchi-nada, Seto Inland Sea"	33.973418	33.976852	133.06413	133.06664														22.2					22.2		"0.3 (sampling depth) / 0.5"																				"Layer: Bottom; "	2019/6/24	2019/6/24
PRA000094	SAA005648	ST014				26_St.B_Mid	Water	"Sea water"	2016	6	30					Asia	Japan	"Hiuchi-nada, Seto Inland Sea"	33.940781		133.100371															21.1					21.1		"3.0 (sampling depth) / 8.0"																				"Layer: Mid; "	2019/6/24	2019/6/24
PRA000094	SAA005649	ST014				27_St.C_Bottom	Water	"Sea water"	2016	6	30					Asia	Japan	"Hiuchi-nada, Seto Inland Sea"	33.92777		133.140053															22.1					22.1		"1.2 (sampling depth) / 1.5"																				"Layer: Bottom; "	2019/6/24	2019/6/24
PRA000094	SAA005650	ST014				28_St.D_Bottom	Water	"Sea water"	2016	7	14					Asia	Japan	"Hiuchi-nada, Seto Inland Sea"	33.93417		133.156567															25.4					20.9		"0.3 (sampling depth) / 0.6"																				"Layer: Bottom; "	2019/6/24	2019/6/24
PRA000094	SAA005651	ST014				29_St.A-1_Bottom	Water	"Sea water"	2016	7	14					Asia	Japan	"Hiuchi-nada, Seto Inland Sea"	33.973418	33.976852	133.06413	133.06664														27.3					27.9		"0.3 (sampling depth) / 0.5"																				"Layer: Bottom; "	2019/6/24	2019/6/24
PRA000094	SAA005652	ST014				30_St.B_Mid	Water	"Sea water"	2016	7	14					Asia	Japan	"Hiuchi-nada, Seto Inland Sea"	33.940781		133.100371															23.4					27.6		"3.0 (sampling depth) / 8.0"																				"Layer: Mid; "	2019/6/24	2019/6/24
PRA000094	SAA005653	ST014				31_St.C_Bottom	Water	"Sea water"	2016	7	14					Asia	Japan	"Hiuchi-nada, Seto Inland Sea"	33.92777		133.140053															24.2					22.7		"1.2 (sampling depth) / 1.5"																				"Layer: Bottom; "	2019/6/24	2019/6/24
PRA000094	SAA005654	ST014				32_St.D_Bottom	Water	"Sea water"	2016	7	29					Asia	Japan	"Hiuchi-nada, Seto Inland Sea"	33.93417		133.156567															32					21.9		"0.3 (sampling depth) / 0.6"																				"Layer: Bottom; "	2019/6/24	2019/6/24
PRA000094	SAA005655	ST014				33_St.A-1_Bottom	Water	"Sea water"	2016	7	29					Asia	Japan	"Hiuchi-nada, Seto Inland Sea"	33.973418	33.976852	133.06413	133.06664														32.1					4.8		"0.3 (sampling depth) / 0.5"																				"Layer: Bottom; "	2019/6/24	2019/6/24
PRA000094	SAA005656	ST014				34_St.B_Surface	Water	"Sea water"	2016	7	29					Asia	Japan	"Hiuchi-nada, Seto Inland Sea"	33.940781		133.100371															29.5					12.1		"0.3 (sampling depth) / 8.0"																				"Layer: Surface; "	2019/6/24	2019/6/24
PRA000094	SAA005657	ST014				35_St.C_Bottom	Water	"Sea water"	2016	7	29					Asia	Japan	"Hiuchi-nada, Seto Inland Sea"	33.92777		133.140053															34.9					21.4		"1.2 (sampling depth) / 1.5"																				"Layer: Bottom; "	2019/6/24	2019/6/24
PRA000094	SAA005658	ST014				36_St.D_Bottom	Water	"Sea water"	2016	8	8					Asia	Japan	"Hiuchi-nada, Seto Inland Sea"	33.93417		133.156567															29.7					29.3		"0.3 (sampling depth) / 0.6"																				"Layer: Bottom; "	2019/6/24	2019/6/24
PRA000094	SAA005659	ST014				37_St.A-1_Bottom	Water	"Sea water"	2016	8	8					Asia	Japan	"Hiuchi-nada, Seto Inland Sea"	33.973418	33.976852	133.06413	133.06664														32					10.2		"0.3 (sampling depth) / 0.5"																				"Layer: Bottom; "	2019/6/24	2019/6/24
PRA000094	SAA005660	ST014				38_St.B_Surface	Water	"Sea water"	2016	8	8					Asia	Japan	"Hiuchi-nada, Seto Inland Sea"	33.940781		133.100371															30.1					26.8		"0.3 (sampling depth) / 8.0"																				"Layer: Surface; "	2019/6/24	2019/6/24
PRA000094	SAA005661	ST014				39_St.C_Bottom	Water	"Sea water"	2016	8	8					Asia	Japan	"Hiuchi-nada, Seto Inland Sea"	33.92777		133.140053															31.8					28.7		"1.2 (sampling depth) / 1.5"																				"Layer: Bottom; "	2019/6/24	2019/6/24
PRA000094	SAA005662	ST014				40_St.D_Bottom	Water	"Sea water"	2016	8	29					Asia	Japan	"Hiuchi-nada, Seto Inland Sea"	33.93417		133.156567															28					27.8		"0.3 (sampling depth) / 0.6"																				"Layer: Bottom; "	2019/6/24	2019/6/24
PRA000094	SAA005663	ST014				41_St.A-1_Bottom	Water	"Sea water"	2016	8	29					Asia	Japan	"Hiuchi-nada, Seto Inland Sea"	33.973418	33.976852	133.06413	133.06664														27					24.1		"0.3 (sampling depth) / 0.5"																				"Layer: Bottom; "	2019/6/24	2019/6/24
PRA000094	SAA005664	ST014				42_St.B_Mid	Water	"Sea water"	2016	8	29					Asia	Japan	"Hiuchi-nada, Seto Inland Sea"	33.940781		133.100371															26.8					29.9		"3.0 (sampling depth) / 8.0"																				"Layer: Mid; "	2019/6/24	2019/6/24
PRA000094	SAA005665	ST014				43_St.C_Bottom	Water	"Sea water"	2016	8	29					Asia	Japan	"Hiuchi-nada, Seto Inland Sea"	33.92777		133.140053															27.5					25.8		"1.2 (sampling depth) / 1.5"																				"Layer: Bottom; "	2019/6/24	2019/6/24
PRA000094	SAA005666	ST014				44_St.D_Bottom	Water	"Sea water"	2016	9	12					Asia	Japan	"Hiuchi-nada, Seto Inland Sea"	33.93417		133.156567															27.7					29.2		"0.3 (sampling depth) / 0.6"																				"Layer: Bottom; "	2019/6/24	2019/6/24
PRA000094	SAA005667	ST014				45_St.A-1_Bottom	Water	"Sea water"	2016	9	12					Asia	Japan	"Hiuchi-nada, Seto Inland Sea"	33.973418	33.976852	133.06413	133.06664														26.2					14.4		"0.3 (sampling depth) / 0.5"																				"Layer: Bottom; "	2019/6/24	2019/6/24
PRA000094	SAA005668	ST014				46_St.B_Surface	Water	"Sea water"	2016	9	12					Asia	Japan	"Hiuchi-nada, Seto Inland Sea"	33.940781		133.100371															27					29.4		"0.3 (sampling depth) / 8.0"																				"Layer: Surface; "	2019/6/24	2019/6/24
PRA000094	SAA005669	ST014				47_St.C_Bottom	Water	"Sea water"	2016	9	12					Asia	Japan	"Hiuchi-nada, Seto Inland Sea"	33.92777		133.140053															27.8					29		"1.2 (sampling depth) / 1.5"																				"Layer: Bottom; "	2019/6/24	2019/6/24
PRA000094	SAA005670	ST014				48_St.D_Bottom	Water	"Sea water"	2016	9	27					Asia	Japan	"Hiuchi-nada, Seto Inland Sea"	33.93417		133.156567															26.5					23.2		"0.3 (sampling depth) / 0.6"																				"Layer: Bottom; "	2019/6/24	2019/6/24
PRA000094	SAA005671	ST014				49_St.A-1_Bottom	Water	"Sea water"	2016	9	27					Asia	Japan	"Hiuchi-nada, Seto Inland Sea"	33.973418	33.976852	133.06413	133.06664														27					23.2		"0.3 (sampling depth) / 0.5"																				"Layer: Bottom; "	2019/6/24	2019/6/24
PRA000094	SAA005672	ST014				50_St.B_Mid	Water	"Sea water"	2016	9	27					Asia	Japan	"Hiuchi-nada, Seto Inland Sea"	33.940781		133.100371															25.5					26.5		"3.0 (sampling depth) / 8.0"																				"Layer: Mid; "	2019/6/24	2019/6/24
PRA000094	SAA005673	ST014				51_St.C_Bottom	Water	"Sea water"	2016	9	27					Asia	Japan	"Hiuchi-nada, Seto Inland Sea"	33.92777		133.140053															25.8					26.2		"1.2 (sampling depth) / 1.5"																				"Layer: Bottom; "	2019/6/24	2019/6/24
PRA000094	SAA005674	ST014				52_St.D_Bottom	Water	"Sea water"	2016	10	12					Asia	Japan	"Hiuchi-nada, Seto Inland Sea"	33.93417		133.156567															24.1					29		"0.3 (sampling depth) / 0.6"																				"Layer: Bottom; "	2019/6/24	2019/6/24
PRA000094	SAA005675	ST014				53_St.A-1_Bottom	Water	"Sea water"	2016	10	12					Asia	Japan	"Hiuchi-nada, Seto Inland Sea"	33.973418	33.976852	133.06413	133.06664														20.9					9.2		"0.3 (sampling depth) / 0.5"																				"Layer: Bottom; "	2019/6/24	2019/6/24
PRA000094	SAA005676	ST014				54_St.B_Surface	Water	"Sea water"	2016	10	12					Asia	Japan	"Hiuchi-nada, Seto Inland Sea"	33.940781		133.100371															24.9					28.9		"0.3 (sampling depth) / 8.0"																				"Layer: Surface; "	2019/6/24	2019/6/24
PRA000094	SAA005677	ST014				55_St.C_Bottom	Water	"Sea water"	2016	10	12					Asia	Japan	"Hiuchi-nada, Seto Inland Sea"	33.92777		133.140053															23.1					28.7		"1.2 (sampling depth) / 1.5"																				"Layer: Bottom; "	2019/6/24	2019/6/24
PRA000094	SAA005678	ST014				56_St.D_Bottom	Water	"Sea water"	2016	10	25					Asia	Japan	"Hiuchi-nada, Seto Inland Sea"	33.93417		133.156567															21.9					25.4		"0.3 (sampling depth) / 0.6"																				"Layer: Bottom; "	2019/6/24	2019/6/24
PRA000094	SAA005679	ST014				57_St.A-1_Bottom	Water	"Sea water"	2016	10	25					Asia	Japan	"Hiuchi-nada, Seto Inland Sea"	33.973418	33.976852	133.06413	133.06664														21.5					24.1		"0.3 (sampling depth) / 0.5"																				"Layer: Bottom; "	2019/6/24	2019/6/24
PRA000094	SAA005680	ST014				58_St.B_Mid	Water	"Sea water"	2016	10	25					Asia	Japan	"Hiuchi-nada, Seto Inland Sea"	33.940781		133.100371															20.9					24.5		"3.0 (sampling depth) / 8.0"																				"Layer: Mid; "	2019/6/24	2019/6/24
PRA000094	SAA005681	ST014				59_St.C_Bottom	Water	"Sea water"	2016	10	25					Asia	Japan	"Hiuchi-nada, Seto Inland Sea"	33.92777		133.140053															20.2					22.9		"1.2 (sampling depth) / 1.5"																				"Layer: Bottom; "	2019/6/24	2019/6/24
PRA000094	SAA005682	ST014				60_St.D_Bottom	Water	"Sea water"	2016	11	17					Asia	Japan	"Hiuchi-nada, Seto Inland Sea"	33.93417		133.156567															18.5					27.6		"0.3 (sampling depth) / 0.6"																				"Layer: Bottom; "	2019/6/24	2019/6/24
PRA000094	SAA005683	ST014				61_St.A-1_Bottom	Water	"Sea water"	2016	11	17					Asia	Japan	"Hiuchi-nada, Seto Inland Sea"	33.973418	33.976852	133.06413	133.06664														18.3					29.3		"0.3 (sampling depth) / 0.5"																				"Layer: Bottom; "	2019/6/24	2019/6/24
PRA000094	SAA005684	ST014				62_St.B_Surface	Water	"Sea water"	2016	11	17					Asia	Japan	"Hiuchi-nada, Seto Inland Sea"	33.940781		133.100371															18.1					27.3		"0.3 (sampling depth) / 8.0"																				"Layer: Surface; "	2019/6/24	2019/6/24
PRA000094	SAA005685	ST014				63_St.C_Bottom	Water	"Sea water"	2016	11	17					Asia	Japan	"Hiuchi-nada, Seto Inland Sea"	33.92777		133.140053															18.2					28.1		"1.2 (sampling depth) / 1.5"																				"Layer: Bottom; "	2019/6/24	2019/6/24
PRA000094	SAA005686	ST014				64_St.D_Bottom	Water	"Sea water"	2016	11	24					Asia	Japan	"Hiuchi-nada, Seto Inland Sea"	33.93417		133.156567															17.1					27.8		"0.3 (sampling depth) / 0.6"																				"Layer: Bottom; "	2019/6/24	2019/6/24
PRA000094	SAA005687	ST014				65_St.A-1_Bottom	Water	"Sea water"	2016	11	24					Asia	Japan	"Hiuchi-nada, Seto Inland Sea"	33.973418	33.976852	133.06413	133.06664														16.5					24.4		"0.3 (sampling depth) / 0.5"																				"Layer: Bottom; "	2019/6/24	2019/6/24
PRA000094	SAA005688	ST014				66_St.B_Mid	Water	"Sea water"	2016	11	24					Asia	Japan	"Hiuchi-nada, Seto Inland Sea"	33.940781		133.100371															17.7					28.7		"3.0 (sampling depth) / 8.0"																				"Layer: Mid; "	2019/6/24	2019/6/24
PRA000094	SAA005689	ST014				67_St.C_Bottom	Water	"Sea water"	2016	11	24					Asia	Japan	"Hiuchi-nada, Seto Inland Sea"	33.92777		133.140053															15.5					24.5		"1.2 (sampling depth) / 1.5"																				"Layer: Bottom; "	2019/6/24	2019/6/24
PRA000094	SAA005690	ST014				68_St.D_Bottom	Water	"Sea water"	2016	12	13					Asia	Japan	"Hiuchi-nada, Seto Inland Sea"	33.93417		133.156567															16.3					10.4		"0.3 (sampling depth) / 0.6"																				"Layer: Bottom; "	2019/6/24	2019/6/24
PRA000094	SAA005691	ST014				69_St.A-1_Bottom	Water	"Sea water"	2016	12	13					Asia	Japan	"Hiuchi-nada, Seto Inland Sea"	33.973418	33.976852	133.06413	133.06664														13.9					25.5		"0.3 (sampling depth) / 0.5"																				"Layer: Bottom; "	2019/6/24	2019/6/24
PRA000094	SAA005692	ST014				70_St.B_Mid	Water	"Sea water"	2016	12	13					Asia	Japan	"Hiuchi-nada, Seto Inland Sea"	33.940781		133.100371															14					28.2		"3.0 (sampling depth) / 8.0"																				"Layer: Mid; "	2019/6/24	2019/6/24
PRA000094	SAA005693	ST014				71_St.C_Bottom	Water	"Sea water"	2016	12	13					Asia	Japan	"Hiuchi-nada, Seto Inland Sea"	33.92777		133.140053															14					28.7		"1.2 (sampling depth) / 1.5"																				"Layer: Bottom; "	2019/6/24	2019/6/24
PRA000094	SAA005694	ST014				72_St.A-2_Bottom	Water	"Sea water"	2017	6	5					Asia	Japan	"Hiuchi-nada, Seto Inland Sea"	33.973418	33.976852	133.06413	133.06664														26.1					25.8		"0.3 (sampling depth) / 0.5"																				"Layer: Bottom; "	2019/6/24	2019/6/24
PRA000094	SAA005695	ST014				73_St.A-1_Bottom	Water	"Sea water"	2017	6	5					Asia	Japan	"Hiuchi-nada, Seto Inland Sea"	33.973418	33.976852	133.06413	133.06664														25.5					21.1		"0.3 (sampling depth) / 0.5"																				"Layer: Bottom; "	2019/6/24	2019/6/24
PRA000094	SAA005696	ST014				74_St.B_Mid	Water	"Sea water"	2017	6	5					Asia	Japan	"Hiuchi-nada, Seto Inland Sea"	33.940781		133.100371															21.1					29.1		"3.0 (sampling depth) / 8.0"																				"Layer: Mid; "	2019/6/24	2019/6/24
PRA000094	SAA005697	ST014				75_St.C_Bottom	Water	"Sea water"	2017	6	5					Asia	Japan	"Hiuchi-nada, Seto Inland Sea"	33.92777		133.140053															21.4					31.3		"1.2 (sampling depth) / 1.5"																				"Layer: Bottom; "	2019/6/24	2019/6/24
PRA000094	SAA005698	ST014				76_St.D_Bottom	Water	"Sea water"	2017	6	5					Asia	Japan	"Hiuchi-nada, Seto Inland Sea"	33.93417		133.156567															22.5					26.5		"0.3 (sampling depth) / 0.6"																				"Layer: Bottom; "	2019/6/24	2019/6/24
PRA000094	SAA005699	ST014				77_St.A-2_Bottom	Water	"Sea water"	2017	6	20					Asia	Japan	"Hiuchi-nada, Seto Inland Sea"	33.973418	33.976852	133.06413	133.06664														24.9					27.2		"0.3 (sampling depth) / 0.5"																				"Layer: Bottom; "	2019/6/24	2019/6/24
PRA000094	SAA005700	ST014				78_St.B_Surface	Water	"Sea water"	2017	6	20					Asia	Japan	"Hiuchi-nada, Seto Inland Sea"	33.940781		133.100371															24.9					27.8		"0.3 (sampling depth) / 8.0"																				"Layer: Surface; "	2019/6/24	2019/6/24
PRA000094	SAA005701	ST014				79_St.C_Bottom	Water	"Sea water"	2017	6	20					Asia	Japan	"Hiuchi-nada, Seto Inland Sea"	33.92777		133.140053															25.1					31.4		"1.2 (sampling depth) / 1.5"																				"Layer: Bottom; "	2019/6/24	2019/6/24
PRA000094	SAA005702	ST014				80_St.D_Bottom	Water	"Sea water"	2017	6	20					Asia	Japan	"Hiuchi-nada, Seto Inland Sea"	33.93417		133.156567															24.2					29.1		"0.3 (sampling depth) / 0.6"																				"Layer: Bottom; "	2019/6/24	2019/6/24
PRA000094	SAA005703	ST014				81_St.A-2_Surface	Water	"Sea water"	2017	6	26					Asia	Japan	"Hiuchi-nada, Seto Inland Sea"	33.973418	33.976852	133.06413	133.06664														21.5					28.6		"0.1 (sampling depth) / 0.1"																				"Layer: Surface; Low tide; "	2019/6/24	2019/6/24
PRA000094	SAA005704	ST014				82_St.A-1_Bottom	Water	"Sea water"	2017	6	26					Asia	Japan	"Hiuchi-nada, Seto Inland Sea"	33.973418	33.976852	133.06413	133.06664														22					8.6		"0.1 (sampling depth) / 0.1"																				"Layer: Surface; Low tide; "	2019/6/24	2019/6/24
PRA000094	SAA005705	ST014				83_St.A-5_Surface	Water	"Sea water"	2017	6	27					Asia	Japan	"Hiuchi-nada, Seto Inland Sea"	33.973418	33.976852	133.06413	133.06664														20					0.6		"0.1 (sampling depth) / 0.2"																				"Layer: Surface; Low tide; "	2019/6/24	2019/6/24
PRA000094	SAA005706	ST014				84_St.A-4_Surface	Water	"Sea water"	2017	6	27					Asia	Japan	"Hiuchi-nada, Seto Inland Sea"	33.973418	33.976852	133.06413	133.06664														20.1					2.9		"0.1 (sampling depth) / 0.4"																				"Layer: Surface; Low tide; "	2019/6/24	2019/6/24
PRA000094	SAA005707	ST014				85_St.A-1_Surface	Water	"Sea water"	2017	6	27					Asia	Japan	"Hiuchi-nada, Seto Inland Sea"	33.973418	33.976852	133.06413	133.06664														20					9.4		"0.1 (sampling depth) / 0.4"																				"Layer: Surface; Low tide; "	2019/6/24	2019/6/24
PRA000094	SAA005708	ST014				86_St.A-1_Bottom	Water	"Sea water"	2017	6	27					Asia	Japan	"Hiuchi-nada, Seto Inland Sea"	33.973418	33.976852	133.06413	133.06664														20.1					28		"0.3 (sampling depth) / 0.4"																				"Layer: Bottom; Low tide; "	2019/6/24	2019/6/24
PRA000094	SAA005709	ST014				87_St.A-2_Surface	Water	"Sea water"	2017	6	27					Asia	Japan	"Hiuchi-nada, Seto Inland Sea"	33.973418	33.976852	133.06413	133.06664														20					28		"0.1 (sampling depth) / 0.2"																				"Layer: Surface; Low tide; "	2019/6/24	2019/6/24
PRA000094	SAA005710	ST014				88_St.A-1_Surface	Water	"Sea water"	2017	6	27					Asia	Japan	"Hiuchi-nada, Seto Inland Sea"	33.973418	33.976852	133.06413	133.06664														21.9					30.9		"0.3 (sampling depth) / 3.0"																				"Layer: Surface; High tide;"	2019/6/24	2019/6/24
PRA000094	SAA005711	ST014				89_St.A-4_Surface	Water	"Sea water"	2017	6	27					Asia	Japan	"Hiuchi-nada, Seto Inland Sea"	33.973418	33.976852	133.06413	133.06664														23.5					7.1		"0.1 (sampling depth) / 1.0"																				"Layer: Surface; High tide; "	2019/6/24	2019/6/24
PRA000094	SAA005712	ST014				90_St.A-4_Bottom	Water	"Sea water"	2017	6	27					Asia	Japan	"Hiuchi-nada, Seto Inland Sea"	33.973418	33.976852	133.06413	133.06664														21.9					26.8		"1.0 (sampling depth) / 1.0"																				"Layer: Bottom; High tide; "	2019/6/24	2019/6/24
PRA000094	SAA005713	ST014				91_St.A-3_Surface	Water	"Sea water"	2017	6	27					Asia	Japan	"Hiuchi-nada, Seto Inland Sea"	33.973418	33.976852	133.06413	133.06664														23.2					19.5		"0.1 (sampling depth) / 0.3"																				"Layer: Surface; High tide; "	2019/6/24	2019/6/24
PRA000094	SAA005714	ST014				92_St.A-3_Bottom	Water	"Sea water"	2017	6	27					Asia	Japan	"Hiuchi-nada, Seto Inland Sea"	33.973418	33.976852	133.06413	133.06664														22.1					29.3		"0.3 (sampling depth) / 0.3"																				"Layer: Bottom; High tide; "	2019/6/24	2019/6/24
PRA000094	SAA005715	ST014				93_St.A-2_Bottom	Water	"Sea water"	2017	7	5					Asia	Japan	"Hiuchi-nada, Seto Inland Sea"	33.973418	33.976852	133.06413	133.06664														21.5					26		"0.3 (sampling depth) / 0.5"																				"Layer: Bottom; "	2019/6/24	2019/6/24
PRA000094	SAA005716	ST014				94_St.A-1_Bottom	Water	"Sea water"	2017	7	5					Asia	Japan	"Hiuchi-nada, Seto Inland Sea"	33.973418	33.976852	133.06413	133.06664														21.4					22.3		"0.3 (sampling depth) / 0.5"																				"Layer: Bottom; "	2019/6/24	2019/6/24
PRA000094	SAA005717	ST014				95_St.B_Mid	Water	"Sea water"	2017	7	5					Asia	Japan	"Hiuchi-nada, Seto Inland Sea"	33.940781		133.100371															21.7					21.8		"3.0 (sampling depth) / 8.0"																				"Layer: Mid; "	2019/6/24	2019/6/24
PRA000094	SAA005718	ST014				96_St.C_Bottom	Water	"Sea water"	2017	7	5					Asia	Japan	"Hiuchi-nada, Seto Inland Sea"	33.92777		133.140053															22.8					30.8		"1.2 (sampling depth) / 1.5"																				"Layer: Bottom; "	2019/6/24	2019/6/24
PRA000094	SAA005719	ST014				97_St.D_Bottom	Water	"Sea water"	2017	7	5					Asia	Japan	"Hiuchi-nada, Seto Inland Sea"	33.93417		133.156567															24					25.3		"0.3 (sampling depth) / 0.6"																				"Layer: Bottom; "	2019/6/24	2019/6/24
PRA000094	SAA005720	ST014				98_St.A-2_Bottom	Water	"Sea water"	2017	7	19					Asia	Japan	"Hiuchi-nada, Seto Inland Sea"	33.973418	33.976852	133.06413	133.06664														25.5					32.7		"0.3 (sampling depth) / 0.5"																				"Layer: Bottom; "	2019/6/24	2019/6/24
PRA000094	SAA005721	ST014				99_St.B_Surface	Water	"Sea water"	2017	7	19					Asia	Japan	"Hiuchi-nada, Seto Inland Sea"	33.940781		133.100371															26.5					19.9		"0.3 (sampling depth) / 8.0"																				"Layer: Surface; "	2019/6/24	2019/6/24
PRA000094	SAA005722	ST014				100_St.C_Bottom	Water	"Sea water"	2017	7	19					Asia	Japan	"Hiuchi-nada, Seto Inland Sea"	33.92777		133.140053															26.9					31.8		"1.2 (sampling depth) / 1.5"																				"Layer: Bottom; "	2019/6/24	2019/6/24
PRA000094	SAA005723	ST014				101_St.D_Bottom	Water	"Sea water"	2017	7	19					Asia	Japan	"Hiuchi-nada, Seto Inland Sea"	33.93417		133.156567															27					13.9		"0.3 (sampling depth) / 0.6"																				"Layer: Bottom; "	2019/6/24	2019/6/24
PRA000094	SAA005724	ST014				102_St.A-2_Bottom	Water	"Sea water"	2017	8	4					Asia	Japan	"Hiuchi-nada, Seto Inland Sea"	33.973418	33.976852	133.06413	133.06664														32.9					29.7		"0.3 (sampling depth) / 0.5"																				"Layer: Bottom; "	2019/6/24	2019/6/24
PRA000094	SAA005725	ST014				103_St.A-1_Bottom	Water	"Sea water"	2017	8	4					Asia	Japan	"Hiuchi-nada, Seto Inland Sea"	33.973418	33.976852	133.06413	133.06664														31.3					21.3		"0.3 (sampling depth) / 0.5"																				"Layer: Bottom; "	2019/6/24	2019/6/24
PRA000094	SAA005726	ST014				104_St.B_Mid	Water	"Sea water"	2017	8	4					Asia	Japan	"Hiuchi-nada, Seto Inland Sea"	33.940781		133.100371															27.8					27.7		"3.0 (sampling depth) / 8.0"																				"Layer: Mid; "	2019/6/24	2019/6/24
PRA000094	SAA005727	ST014				105_St.C_Bottom	Water	"Sea water"	2017	8	4					Asia	Japan	"Hiuchi-nada, Seto Inland Sea"	33.92777		133.140053															29.6					31.6		"1.2 (sampling depth) / 1.5"																				"Layer: Bottom; "	2019/6/24	2019/6/24
PRA000094	SAA005728	ST014				106_St.D_Bottom	Water	"Sea water"	2017	8	4					Asia	Japan	"Hiuchi-nada, Seto Inland Sea"	33.93417		133.156567															28.9					27.9		"0.3 (sampling depth) / 0.6"																				"Layer: Bottom; "	2019/6/24	2019/6/24
PRA000094	SAA005729	ST014				107_St.A-2_Bottom	Water	"Sea water"	2017	8	16					Asia	Japan	"Hiuchi-nada, Seto Inland Sea"	33.973418	33.976852	133.06413	133.06664														28.1					10.1		"0.3 (sampling depth) / 0.5"																				"Layer: Bottom; "	2019/6/24	2019/6/24
PRA000094	SAA005730	ST014				108_St.B_Surface	Water	"Sea water"	2017	8	16					Asia	Japan	"Hiuchi-nada, Seto Inland Sea"	33.940781		133.100371															27.7					21.4		"0.3 (sampling depth) / 8.0"																				"Layer: Surface; "	2019/6/24	2019/6/24
PRA000094	SAA005731	ST014				109_St.C_Bottom	Water	"Sea water"	2017	8	16					Asia	Japan	"Hiuchi-nada, Seto Inland Sea"	33.92777		133.140053															27.1					1.8		"1.2 (sampling depth) / 1.5"																				"Layer: Bottom; "	2019/6/24	2019/6/24
PRA000094	SAA005732	ST014				110_St.D_Bottom	Water	"Sea water"	2017	8	16					Asia	Japan	"Hiuchi-nada, Seto Inland Sea"	33.93417		133.156567															27.3					16.7		"0.3 (sampling depth) / 0.6"																				"Layer: Bottom; "	2019/6/24	2019/6/24
PRA000094	SAA005733	ST014				111_St.A-2_Bottom	Water	"Sea water"	2017	9	15					Asia	Japan	"Hiuchi-nada, Seto Inland Sea"	33.973418	33.976852	133.06413	133.06664														24.1					28.1		"0.3 (sampling depth) / 0.5"																				"Layer: Bottom; "	2019/6/24	2019/6/24
PRA000094	SAA005734	ST014				112_St.A-1_Bottom	Water	"Sea water"	2017	9	15					Asia	Japan	"Hiuchi-nada, Seto Inland Sea"	33.973418	33.976852	133.06413	133.06664														23.2					12.8		"0.3 (sampling depth) / 0.5"																				"Layer: Bottom; "	2019/6/24	2019/6/24
PRA000094	SAA005735	ST014				113_St.B_Mid	Water	"Sea water"	2017	9	15					Asia	Japan	"Hiuchi-nada, Seto Inland Sea"	33.940781		133.100371															24.7					21.7		"3.0 (sampling depth) / 8.0"																				"Layer: Mid; "	2019/6/24	2019/6/24
PRA000094	SAA005736	ST014				114_St.C_Bottom	Water	"Sea water"	2017	9	15					Asia	Japan	"Hiuchi-nada, Seto Inland Sea"	33.92777		133.140053															25.2					31.7		"1.2 (sampling depth) / 1.5"																				"Layer: Bottom; "	2019/6/24	2019/6/24
PRA000094	SAA005737	ST014				115_St.D_Bottom	Water	"Sea water"	2017	9	15					Asia	Japan	"Hiuchi-nada, Seto Inland Sea"	33.93417		133.156567															24.8					26.5		"0.3 (sampling depth) / 0.6"																				"Layer: Bottom; "	2019/6/24	2019/6/24
PRA000094	SAA005738	ST014				116_St.B_Mid	Water	"Sea water"	2017	9	20					Asia	Japan	"Hiuchi-nada, Seto Inland Sea"	33.940781		133.100371															24.1					27.4		"3.0 (sampling depth) / 8.0"																				"Layer: Mid; "	2019/6/24	2019/6/24
PRA000094	SAA005739	ST014				117_St.C_Bottom	Water	"Sea water"	2017	9	20					Asia	Japan	"Hiuchi-nada, Seto Inland Sea"	33.92777		133.140053															23.4					24.9		"1.2 (sampling depth) / 1.5"																				"Layer: Bottom; "	2019/6/24	2019/6/24
PRA000094	SAA005740	ST014				118_St.D_Bottom	Water	"Sea water"	2017	9	21					Asia	Japan	"Hiuchi-nada, Seto Inland Sea"	33.93417		133.156567															23.8					26.7		"0.3 (sampling depth) / 0.6"																				"Layer: Bottom; "	2019/6/24	2019/6/24
PRA000094	SAA005741	ST014				119_St.A-5_Bottom	Water	"Sea water"	2017	9	20					Asia	Japan	"Hiuchi-nada, Seto Inland Sea"	33.973418	33.976852	133.06413	133.06664														21.3					0.5		"0.3 (sampling depth) / 0.3"																				"Layer: Bottom; Low tide; "	2019/6/24	2019/6/24
PRA000094	SAA005742	ST014				120_St.A-4_Bottom	Water	"Sea water"	2017	9	20					Asia	Japan	"Hiuchi-nada, Seto Inland Sea"	33.973418	33.976852	133.06413	133.06664														21.4					2.8		"0.3 (sampling depth) / 0.3"																				"Layer: Bottom; Low tide; "	2019/6/24	2019/6/24
PRA000094	SAA005743	ST014				121_St.A-1_Bottom	Water	"Sea water"	2017	9	20					Asia	Japan	"Hiuchi-nada, Seto Inland Sea"	33.973418	33.976852	133.06413	133.06664														21.9					8		"0.3 (sampling depth) / 0.3"																				"Layer: Bottom; Low tide; "	2019/6/24	2019/6/24
PRA000094	SAA005744	ST014				122_St.A-2_Bottom	Water	"Sea water"	2017	9	20					Asia	Japan	"Hiuchi-nada, Seto Inland Sea"	33.973418	33.976852	133.06413	133.06664														23.8					25.1		"0.3 (sampling depth) / 0.3"																				"Layer: Bottom; Low tide; "	2019/6/24	2019/6/24
PRA000094	SAA005745	ST014				123_St.A-1_Surface	Water	"Sea water"	2017	9	21					Asia	Japan	"Hiuchi-nada, Seto Inland Sea"	33.973418	33.976852	133.06413	133.06664														25.1					32.5		"0.3 (sampling depth) / 3.0"																				"Layer: Surface; High tide; "	2019/6/24	2019/6/24
PRA000094	SAA005746	ST014				124_St.A-4_Surface	Water	"Sea water"	2017	9	21					Asia	Japan	"Hiuchi-nada, Seto Inland Sea"	33.973418	33.976852	133.06413	133.06664														22.3					1.1		"0.3 (sampling depth) / 0.3"																				"Layer: Surface; High tide; "	2019/6/24	2019/6/24
PRA000094	SAA005747	ST014				125_St.A-4_Bottom	Water	"Sea water"	2017	9	21					Asia	Japan	"Hiuchi-nada, Seto Inland Sea"	33.973418	33.976852	133.06413	133.06664														24.2					25.7		"0.3 (sampling depth) / 1.0"																				"Layer: Bottom; High tide; "	2019/6/24	2019/6/24
PRA000094	SAA005748	ST014				126_St.A-5_Surface	Water	"Sea water"	2017	9	21					Asia	Japan	"Hiuchi-nada, Seto Inland Sea"	33.973418	33.976852	133.06413	133.06664														23.1					2		"0.3 (sampling depth) / 0.3"																				"Layer: Surface; High tide; "	2019/6/24	2019/6/24
PRA000094	SAA005749	ST014				127_St.A-5_Bottom	Water	"Sea water"	2017	9	21					Asia	Japan	"Hiuchi-nada, Seto Inland Sea"	33.973418	33.976852	133.06413	133.06664														24.3					26.8		"0.3 (sampling depth) / 1.0"																				"Layer: Bottom; High tide; "	2019/6/24	2019/6/24
PRA000094	SAA005750	ST014				128_St.A-2_Bottom	Water	"Sea water"	2017	10	1					Asia	Japan	"Hiuchi-nada, Seto Inland Sea"	33.973418	33.976852	133.06413	133.06664														24.5					31.8		"0.3 (sampling depth) / 0.5"																				"Layer: Bottom; "	2019/6/24	2019/6/24
PRA000094	SAA005751	ST014				129_St.A-1_Bottom	Water	"Sea water"	2017	10	1					Asia	Japan	"Hiuchi-nada, Seto Inland Sea"	33.973418	33.976852	133.06413	133.06664														23					21.8		"0.3 (sampling depth) / 0.5"																				"Layer: Bottom; "	2019/6/24	2019/6/24
PRA000094	SAA005752	ST014				130_St.B_Mid	Water	"Sea water"	2017	10	1					Asia	Japan	"Hiuchi-nada, Seto Inland Sea"	33.940781		133.100371															24.5					31.7		"3.0 (sampling depth) / 8.0"																				"Layer: Mid; "	2019/6/24	2019/6/24
PRA000094	SAA005753	ST014				131_St.C_Bottom	Water	"Sea water"	2017	10	1					Asia	Japan	"Hiuchi-nada, Seto Inland Sea"	33.92777		133.140053															23.1					28.5		"1.2 (sampling depth) / 1.5"																				"Layer: Bottom; "	2019/6/24	2019/6/24
PRA000094	SAA005754	ST014				132_St.D_Bottom	Water	"Sea water"	2017	10	1					Asia	Japan	"Hiuchi-nada, Seto Inland Sea"	33.93417		133.156567															23					31.3		"0.3 (sampling depth) / 0.6"																				"Layer: Bottom; "	2019/6/24	2019/6/24
PRA000094	SAA005755	ST014				133_St.A-2_Bottom	Water	"Sea water"	2017	10	27					Asia	Japan	"Hiuchi-nada, Seto Inland Sea"	33.973418	33.976852	133.06413	133.06664														17.3					1.4		"0.3 (sampling depth) / 0.5"																				"Layer: Bottom; "	2019/6/24	2019/6/24
PRA000094	SAA005756	ST014				134_St.B_Surface	Water	"Sea water"	2017	10	27					Asia	Japan	"Hiuchi-nada, Seto Inland Sea"	33.940781		133.100371															20.9					28.1		"0.3 (sampling depth) / 8.0"																				"Layer: Surface; "	2019/6/24	2019/6/24
PRA000094	SAA005757	ST014				135_St.C_Bottom	Water	"Sea water"	2017	10	27					Asia	Japan	"Hiuchi-nada, Seto Inland Sea"	33.92777		133.140053															18.1					1.5		"1.2 (sampling depth) / 1.5"																				"Layer: Bottom; "	2019/6/24	2019/6/24
PRA000094	SAA005758	ST014				136_St.D_Bottom	Water	"Sea water"	2017	10	27					Asia	Japan	"Hiuchi-nada, Seto Inland Sea"	33.93417		133.156567															20.2					25.4		"0.3 (sampling depth) / 0.6"																				"Layer: Bottom; "	2019/6/24	2019/6/24
PRA000094	SAA005759	ST014				137_St.A-2_Bottom	Water	"Sea water"	2017	11	15					Asia	Japan	"Hiuchi-nada, Seto Inland Sea"	33.973418	33.976852	133.06413	133.06664														18.1					29.7		"0.3 (sampling depth) / 0.5"																				"Layer: Bottom; "	2019/6/24	2019/6/24
PRA000094	SAA005760	ST014				138_St.A-1_Bottom	Water	"Sea water"	2017	11	15					Asia	Japan	"Hiuchi-nada, Seto Inland Sea"	33.973418	33.976852	133.06413	133.06664														17.5					13.9		"0.3 (sampling depth) / 0.5"																				"Layer: Bottom; "	2019/6/24	2019/6/24
PRA000094	SAA005761	ST014				139_St.B_Mid	Water	"Sea water"	2017	11	15					Asia	Japan	"Hiuchi-nada, Seto Inland Sea"	33.940781		133.100371															17.7					28.8		"3.0 (sampling depth) / 8.0"																				"Layer: Mid; "	2019/6/24	2019/6/24
PRA000094	SAA005762	ST014				140_St.C_Bottom	Water	"Sea water"	2017	11	15					Asia	Japan	"Hiuchi-nada, Seto Inland Sea"	33.92777		133.140053															15.1					16.7		"1.2 (sampling depth) / 1.5"																				"Layer: Bottom; "	2019/6/24	2019/6/24
PRA000094	SAA005763	ST014				141_St.D_Bottom	Water	"Sea water"	2017	11	15					Asia	Japan	"Hiuchi-nada, Seto Inland Sea"	33.93417		133.156567															16.5					27.3		"0.3 (sampling depth) / 0.6"																				"Layer: Bottom; "	2019/6/24	2019/6/24
PRA000094	SAA005764	ST014				142_St.A-2_Bottom	Water	"Sea water"	2017	12	13					Asia	Japan	"Hiuchi-nada, Seto Inland Sea"	33.973418	33.976852	133.06413	133.06664														10.8					21		"0.3 (sampling depth) / 0.5"																				"Layer: Bottom; "	2019/6/24	2019/6/24
PRA000094	SAA005765	ST014				143_St.B_Mid	Water	"Sea water"	2017	12	13					Asia	Japan	"Hiuchi-nada, Seto Inland Sea"	33.940781		133.100371															11.7					27.7		"3.0 (sampling depth) / 8.0"																				"Layer: Mid; "	2019/6/24	2019/6/24
PRA000094	SAA005766	ST014				144_St.C_Bottom	Water	"Sea water"	2017	12	13					Asia	Japan	"Hiuchi-nada, Seto Inland Sea"	33.92777		133.140053															9.4					21.9		"1.2 (sampling depth) / 1.5"																				"Layer: Bottom; "	2019/6/24	2019/6/24
PRA000094	SAA005767	ST014				145_St.D_Bottom	Water	"Sea water"	2017	12	13					Asia	Japan	"Hiuchi-nada, Seto Inland Sea"	33.93417		133.156567															10.2					24.9		"0.3 (sampling depth) / 0.6"																				"Layer: Bottom; "	2019/6/24	2019/6/24
PRA000094	SAA005768	ST014				146_St.D_Bottom	Water	"Sea water"	2018	6	8					Asia	Japan	"Hiuchi-nada, Seto Inland Sea"	33.93417		133.156567															21.1					20.9		"0.3 (sampling depth) / 0.6"																				"Layer: Bottom; "	2019/6/24	2019/6/24
PRA000094	SAA005769	ST014				147_St.A-2_Bottom	Water	"Sea water"	2018	6	8					Asia	Japan	"Hiuchi-nada, Seto Inland Sea"	33.973418	33.976852	133.06413	133.06664														21.1					27.9		"0.3 (sampling depth) / 0.5"																				"Layer: Bottom; "	2019/6/24	2019/6/24
PRA000094	SAA005770	ST014				148_St.A-1_Bottom	Water	"Sea water"	2018	6	8					Asia	Japan	"Hiuchi-nada, Seto Inland Sea"	33.973418	33.976852	133.06413	133.06664														21.5					22.4		"0.3 (sampling depth) / 0.5"																				"Layer: Bottom; "	2019/6/24	2019/6/24
PRA000094	SAA005771	ST014				149_St.A-6_Bottom	Water	"Sea water"	2018	6	8					Asia	Japan	"Hiuchi-nada, Seto Inland Sea"	33.973418	33.976852	133.06413	133.06664														21.5					16.3		"0.3 (sampling depth) / 0.5"																				"Layer: Bottom; "	2019/6/24	2019/6/24
PRA000094	SAA005772	ST014				150_St.A-7_Bottom	Water	"Sea water"	2018	6	8					Asia	Japan	"Hiuchi-nada, Seto Inland Sea"	33.973418	33.976852	133.06413	133.06664														21.2					8.3		"0.3 (sampling depth) / 0.5"																				"Layer: Bottom; "	2019/6/24	2019/6/24
PRA000094	SAA005773	ST014				151_St.A-4_Bottom	Water	"Sea water"	2018	6	8					Asia	Japan	"Hiuchi-nada, Seto Inland Sea"	33.973418	33.976852	133.06413	133.06664														21					2.4		"0.3 (sampling depth) / 0.5"																				"Layer: Bottom; "	2019/6/24	2019/6/24
PRA000094	SAA005774	ST014				152_St.B_Surface	Water	"Sea water"	2018	6	8					Asia	Japan	"Hiuchi-nada, Seto Inland Sea"	33.940781		133.100371															19.3					21.9		"0.3 (sampling depth) / 8.0"																				"Layer: Surface; "	2019/6/24	2019/6/24
PRA000094	SAA005775	ST014				153_St.C_Bottom	Water	"Sea water"	2018	6	8					Asia	Japan	"Hiuchi-nada, Seto Inland Sea"	33.92777		133.140053															20.7					27.3		"1.2 (sampling depth) / 1.5"																				"Layer: Bottom; "	2019/6/24	2019/6/24
PRA000094	SAA005776	ST014				154_St.D_Bottom	Water	"Sea water"	2018	6	27					Asia	Japan	"Hiuchi-nada, Seto Inland Sea"	33.93417		133.156567																				26.2		"0.3 (sampling depth) / 0.6"																				"Layer: Bottom; "	2019/6/24	2019/6/24
PRA000094	SAA005777	ST014				155_St.A-7_Bottom	Water	"Sea water"	2018	6	27					Asia	Japan	"Hiuchi-nada, Seto Inland Sea"	33.973418	33.976852	133.06413	133.06664																			7.7		"0.3 (sampling depth) / 0.5"																				"Layer: Bottom; "	2019/6/24	2019/6/24
PRA000094	SAA005778	ST014				156_St.B_Surface	Water	"Sea water"	2018	6	27					Asia	Japan	"Hiuchi-nada, Seto Inland Sea"	33.940781		133.100371																				6.5		"0.3 (sampling depth) / 8.0"																				"Layer: Surface; "	2019/6/24	2019/6/24
PRA000094	SAA005779	ST014				157_St.C_Bottom	Water	"Sea water"	2018	6	27					Asia	Japan	"Hiuchi-nada, Seto Inland Sea"	33.92777		133.140053																				29		"1.2 (sampling depth) / 1.5"																				"Layer: Bottom; "	2019/6/24	2019/6/24
PRA000094	SAA005780	ST014				158_St.D_Bottom	Water	"Sea water"	2018	7	25					Asia	Japan	"Hiuchi-nada, Seto Inland Sea"	33.93417		133.156567															32.1					26		"0.3 (sampling depth) / 0.6"																				"Layer: Bottom; "	2019/6/24	2019/6/24
PRA000094	SAA005781	ST014				159_St.A-2_Bottom	Water	"Sea water"	2018	7	25					Asia	Japan	"Hiuchi-nada, Seto Inland Sea"	33.973418	33.976852	133.06413	133.06664														34					27.2		"0.3 (sampling depth) / 0.5"																				"Layer: Bottom; "	2019/6/24	2019/6/24
PRA000094	SAA005782	ST014				160_St.A-1_Bottom	Water	"Sea water"	2018	7	25					Asia	Japan	"Hiuchi-nada, Seto Inland Sea"	33.973418	33.976852	133.06413	133.06664														33					25.3		"0.3 (sampling depth) / 0.5"																				"Layer: Bottom; "	2019/6/24	2019/6/24
PRA000094	SAA005783	ST014				161_St.A-6_Bottom	Water	"Sea water"	2018	7	25					Asia	Japan	"Hiuchi-nada, Seto Inland Sea"	33.973418	33.976852	133.06413	133.06664														32.9					16.5		"0.3 (sampling depth) / 0.5"																				"Layer: Bottom; "	2019/6/24	2019/6/24
PRA000094	SAA005784	ST014				162_St.A-7_Bottom	Water	"Sea water"	2018	7	25					Asia	Japan	"Hiuchi-nada, Seto Inland Sea"	33.973418	33.976852	133.06413	133.06664														32.7					6.6		"0.3 (sampling depth) / 0.5"																				"Layer: Bottom; "	2019/6/24	2019/6/24
PRA000094	SAA005785	ST014				163_St.A-4_Bottom	Water	"Sea water"	2018	7	25					Asia	Japan	"Hiuchi-nada, Seto Inland Sea"	33.973418	33.976852	133.06413	133.06664														31.6					2.3		"0.3 (sampling depth) / 0.5"																				"Layer: Bottom; "	2019/6/24	2019/6/24
PRA000094	SAA005786	ST014				164_St.B_Surface	Water	"Sea water"	2018	7	25					Asia	Japan	"Hiuchi-nada, Seto Inland Sea"	33.940781		133.100371															28.3					21.2		"0.3 (sampling depth) / 8.0"																				"Layer: Surface; "	2019/6/24	2019/6/24
PRA000094	SAA005787	ST014				165_St.C_Bottom	Water	"Sea water"	2018	7	25					Asia	Japan	"Hiuchi-nada, Seto Inland Sea"	33.92777		133.140053															32.5					27.5		"1.2 (sampling depth) / 1.5"																				"Layer: Bottom; "	2019/6/24	2019/6/24
PRA000094	SAA005788	ST014				166_St.A-2_Bottom	Water	"Sea water"	2018	8	7					Asia	Japan	"Hiuchi-nada, Seto Inland Sea"	33.973418	33.976852	133.06413	133.06664														32.9					29.3		"0.3 (sampling depth) / 0.5"																				"Layer: Bottom; "	2019/6/24	2019/6/24
PRA000094	SAA005789	ST014				167_St.A-1_Bottom	Water	"Sea water"	2018	8	7					Asia	Japan	"Hiuchi-nada, Seto Inland Sea"	33.973418	33.976852	133.06413	133.06664														30.7					25		"0.3 (sampling depth) / 0.5"																				"Layer: Bottom; "	2019/6/24	2019/6/24
PRA000094	SAA005790	ST014				168_St.A-6_Bottom	Water	"Sea water"	2018	8	7					Asia	Japan	"Hiuchi-nada, Seto Inland Sea"	33.973418	33.976852	133.06413	133.06664														32.6					18		"0.3 (sampling depth) / 0.5"																				"Layer: Bottom; "	2019/6/24	2019/6/24
PRA000094	SAA005791	ST014				169_St.A-7_Bottom	Water	"Sea water"	2018	8	7					Asia	Japan	"Hiuchi-nada, Seto Inland Sea"	33.973418	33.976852	133.06413	133.06664														32.6					13.8		"0.3 (sampling depth) / 0.5"																				"Layer: Bottom; "	2019/6/24	2019/6/24
PRA000094	SAA005792	ST014				170_St.A-4_Bottom	Water	"Sea water"	2018	8	7					Asia	Japan	"Hiuchi-nada, Seto Inland Sea"	33.973418	33.976852	133.06413	133.06664														31.7					6.9		"0.3 (sampling depth) / 0.5"																				"Layer: Bottom; "	2019/6/24	2019/6/24
PRA000094	SAA005793	ST014				171_St.B_Mid	Water	"Sea water"	2018	8	7					Asia	Japan	"Hiuchi-nada, Seto Inland Sea"	33.940781		133.100371															27.5					20		"0.3 (sampling depth) / 8.0"																				"Layer: Mid; "	2019/6/24	2019/6/24
PRA000094	SAA005794	ST014				172_St.C_Bottom	Water	"Sea water"	2018	8	7					Asia	Japan	"Hiuchi-nada, Seto Inland Sea"	33.92777		133.140053															30.4					28.3		"1.2 (sampling depth) / 1.5"																				"Layer: Bottom; "	2019/6/24	2019/6/24
PRA000094	SAA005795	ST014				173_St.D_Bottom	Water	"Sea water"	2018	8	7					Asia	Japan	"Hiuchi-nada, Seto Inland Sea"	33.93417		133.156567															30.8					28.9		"0.3 (sampling depth) / 0.6"																				"Layer: Bottom; "	2019/6/24	2019/6/24
PRA000094	SAA005796	ST014				174_St.A-7_Bottom	Water	"Sea water"	2018	8	24					Asia	Japan	"Hiuchi-nada, Seto Inland Sea"	33.973418	33.976852	133.06413	133.06664														28					30.9		"0.3 (sampling depth) / 0.5"																				"Layer: Bottom; "	2019/6/24	2019/6/24
PRA000094	SAA005797	ST014				175_St.B_Mid	Water	"Sea water"	2018	8	24					Asia	Japan	"Hiuchi-nada, Seto Inland Sea"	33.940781		133.100371															28.1					27.6		"0.3 (sampling depth) / 8.0"																				"Layer: Mid; "	2019/6/24	2019/6/24
PRA000094	SAA005798	ST014				176_St.C_Bottom	Water	"Sea water"	2018	8	24					Asia	Japan	"Hiuchi-nada, Seto Inland Sea"	33.92777		133.140053															32.2					19.8		"1.2 (sampling depth) / 1.5"																				"Layer: Bottom; "	2019/6/24	2019/6/24
PRA000094	SAA005799	ST014				177_St.D_Bottom	Water	"Sea water"	2018	8	24					Asia	Japan	"Hiuchi-nada, Seto Inland Sea"	33.93417		133.156567															29.6					10.7		"0.3 (sampling depth) / 0.6"																				"Layer: Bottom; "	2019/6/24	2019/6/24
PRA000094	SAA005800	ST014				178_St.A-2_Bottom	Water	"Sea water"	2018	9	6					Asia	Japan	"Hiuchi-nada, Seto Inland Sea"	33.973418	33.976852	133.06413	133.06664														29.7					26.8		"0.3 (sampling depth) / 0.5"																				"Layer: Bottom; "	2019/6/24	2019/6/24
PRA000094	SAA005801	ST014				179_St.A-1_Bottom	Water	"Sea water"	2018	9	6					Asia	Japan	"Hiuchi-nada, Seto Inland Sea"	33.973418	33.976852	133.06413	133.06664														28.5					23.3		"0.3 (sampling depth) / 0.5"																				"Layer: Bottom; "	2019/6/24	2019/6/24
PRA000094	SAA005802	ST014				180_St.A-6_Bottom	Water	"Sea water"	2018	9	6					Asia	Japan	"Hiuchi-nada, Seto Inland Sea"	33.973418	33.976852	133.06413	133.06664														28.1					16.1		"0.3 (sampling depth) / 0.5"																				"Layer: Bottom; "	2019/6/24	2019/6/24
PRA000094	SAA005803	ST014				181_St.A-7_Bottom	Water	"Sea water"	2018	9	6					Asia	Japan	"Hiuchi-nada, Seto Inland Sea"	33.973418	33.976852	133.06413	133.06664														27.8					9.8		"0.3 (sampling depth) / 0.5"																				"Layer: Bottom; "	2019/6/24	2019/6/24
PRA000094	SAA005804	ST014				182_St.A-4_Bottom	Water	"Sea water"	2018	9	6					Asia	Japan	"Hiuchi-nada, Seto Inland Sea"	33.973418	33.976852	133.06413	133.06664														27.4					3.7		"0.3 (sampling depth) / 0.5"																				"Layer: Bottom; "	2019/6/24	2019/6/24
PRA000094	SAA005805	ST014				183_St.B_Mid	Water	"Sea water"	2018	9	6					Asia	Japan	"Hiuchi-nada, Seto Inland Sea"	33.940781		133.100371															25.7					26.6		"0.3 (sampling depth) / 8.0"																				"Layer: Mid; "	2019/6/24	2019/6/24
PRA000094	SAA005806	ST014				184_St.C_Bottom	Water	"Sea water"	2018	9	6					Asia	Japan	"Hiuchi-nada, Seto Inland Sea"	33.92777		133.140053															26.1					21.6		"1.2 (sampling depth) / 1.5"																				"Layer: Bottom; "	2019/6/24	2019/6/24
PRA000094	SAA005807	ST014				185_St.D_Bottom	Water	"Sea water"	2018	9	6					Asia	Japan	"Hiuchi-nada, Seto Inland Sea"	33.93417		133.156567															25.2					12.7		"0.3 (sampling depth) / 0.6"																				"Layer: Bottom; "	2019/6/24	2019/6/24
PRA000094	SAA005808	ST014				186_St.A-7_Bottom	Water	"Sea water"	2018	9	25					Asia	Japan	"Hiuchi-nada, Seto Inland Sea"	33.973418	33.976852	133.06413	133.06664														26.3					21.7		"0.3 (sampling depth) / 0.5"																				"Layer: Bottom; "	2019/6/24	2019/6/24
PRA000094	SAA005809	ST014				187_St.B_Mid	Water	"Sea water"	2018	9	25					Asia	Japan	"Hiuchi-nada, Seto Inland Sea"	33.940781		133.100371															24.3					14.6		"0.3 (sampling depth) / 8.0"																				"Layer: Mid; "	2019/6/24	2019/6/24
PRA000094	SAA005810	ST014				188_St.C_Bottom	Water	"Sea water"	2018	9	25					Asia	Japan	"Hiuchi-nada, Seto Inland Sea"	33.92777		133.140053															25.1					16		"1.2 (sampling depth) / 1.5"																				"Layer: Bottom; "	2019/6/24	2019/6/24
PRA000094	SAA005811	ST014				189_St.D_Bottom	Water	"Sea water"	2018	9	25					Asia	Japan	"Hiuchi-nada, Seto Inland Sea"	33.93417		133.156567															26.8					27.7		"0.3 (sampling depth) / 0.6"																				"Layer: Bottom; "	2019/6/24	2019/6/24
PRA000094	SAA005812	ST014				190_St.A-7_Bottom	Water	"Sea water"	2018	10	23					Asia	Japan	"Hiuchi-nada, Seto Inland Sea"	33.973418	33.976852	133.06413	133.06664														21.6					22		"0.3 (sampling depth) / 0.5"																				"Layer: Bottom; "	2019/6/24	2019/6/24
PRA000094	SAA005813	ST014				191_St.B_Mid	Water	"Sea water"	2018	10	23					Asia	Japan	"Hiuchi-nada, Seto Inland Sea"	33.940781		133.100371															22.1					27.4		"0.3 (sampling depth) / 8.0"																				"Layer: Mid; "	2019/6/24	2019/6/24
PRA000094	SAA005814	ST014				192_St.C_Bottom	Water	"Sea water"	2018	10	23					Asia	Japan	"Hiuchi-nada, Seto Inland Sea"	33.92777		133.140053															21.7					27.2		"1.2 (sampling depth) / 1.5"																				"Layer: Bottom; "	2019/6/24	2019/6/24
PRA000094	SAA005815	ST014				193_St.D_Bottom	Water	"Sea water"	2018	10	23					Asia	Japan	"Hiuchi-nada, Seto Inland Sea"	33.93417		133.156567															22.1					29.1		"0.3 (sampling depth) / 0.6"																				"Layer: Bottom; "	2019/6/24	2019/6/24
PRA000095	SAA005816	ST015				W_1xyz01_20110706	Water	"River water"	2011	7	6					Asia	Japan	"Salmon-bashi, bridge, Chitose-gawa Riv., Chitose city, Hokkaido"	42.836104		141.659342																																										"Upstream from the inflow of STP effluent; Chitose STP; Population served (x1000): 95; Sewage treatment volume (x1000 m<sup>3</sup>/day): 79;  Treat the effluent from 7 industrial parks which have semiconductor facilities"	2019/7/26	2019/7/26
PRA000095	SAA005817	ST015				W_1xyz02_20110706	Water	"River water"	2011	7	6					Asia	Japan	"Neshikoshi-bashi bridge, Chitose-gawa Riv., Chitose city, Hokkaido"	42.845615		141.670595																																										"Downstream from the inflow of STP effluent; Chitose STP; Population served (x1000): 95; Sewage treatment volume (x1000 m<sup>3</sup>/day): 79;  Treat the effluent from 7 industrial parks in Chitose city, which have semiconductor facilities "	2019/7/26	2019/7/26
PRA000095	SAA005818	ST015				W_1xyz03_20110706	Water	"River water"	2011	7	6					Asia	Japan	"Chitosegawa-bashi bridge, Chitose-gawa, Riv., Kitahiroshima city, Hokkaido"	42.997513		141.585598																																										"Downstream of the junction with Izari-gawa Riv. & Shimamatu-gawa Riv."	2019/7/26	2019/7/26
PRA000095	SAA005819	ST015				W_1xyz04_20110706	Water	"River water"	2011	7	6					Asia	Japan	"Dai18gou Izarigawa-bashi bridge Izari-gawa Riv. Eniwa city, Hokkaido"	42.922207		141.608062																																										"Upstream from the inflow of STP effluent: Eniwa STP; Population served (x1000): 77; Sewage treatment volume (x1000 m<sup>3</sup>/day): 66; Treat the effluent from 5 industrial parks in Eniwa city, which have semiconductor facilities"	2019/7/26	2019/7/26
PRA000095	SAA005820	ST015				W_1xyz05_20110706	Water	"River water"	2011	7	6					Asia	Japan	"Dai15gou Izarigawa-bashi bridge, Izari-gawa Riv., Eniwa city, Hokkaido"	42.93626		141.61597																																										"Downstream from the inflow of STP effluent; Eniwa STP; Population served (x1000): 77; Sewage treatment volume (x1000 m<sup>3</sup>/day): 66; Treat the effluent from 5 industrial parks in Eniwa city, which have semiconductor facilities"	2019/7/26	2019/7/26
PRA000095	SAA005821	ST015				W_1xyz06_20110706	Water	"River water"	2011	7	6					Asia	Japan	"Minami 9gou-bashi bridge, Shimamatsu-gawa Riv., Kitahiroshikma city, Hokkaido"	42.977339		141.596207																																										"Downstream from the inflow of STP effluent; Kitahiroshima STP; Population served (x1000): 62; Sewage treatment volume (x1000 m<sup>3</sup>/day): 35; Treat the effluent from industrial park in Eniwa city (Kitahiroshima Wattsu industrial park), which have semiconductor facilities"	2019/7/26	2019/7/26
PRA000095	SAA005822	ST015				W_1xyz07_20110706	Water	"River water"	2011	7	6					Asia	Japan	"Uranosawa-bashi bridge, Uranosawa-gawa Riv., Hokkaido"	43.00808		141.556634																																										"Near Hiroshima daini industrial park"	2019/7/26	2019/7/26
PRA000095	SAA005823	ST015				W_1xyz08_20110830	Water	"River water"	2011	8	30					Asia	Japan	"Kiyomi-bashi bridge, Pankeutashinai-gawa Riv., Kamisunagawa town, Hokkaido"	43.466213		142.022491																																										"Upstream from the inflow of industrial park effluent; Near 3 indsutrial parks located in Kamisunagawa town, which have semiconductor facilities"	2019/7/26	2019/7/26
PRA000095	SAA005824	ST015				W_1xyz09_20110830	Water	"River water"	2011	8	30					Asia	Japan	"Chuo-bashi bridge, Pankeutashinai-gawa Riv., Sunagawa city"	43.491963		141.907377																																										"Upstream of the junction with Ishikari-gawa Riv.; Downstream from the inflow of industrial park effluent;  Near 3 indsutrial parks located in Kamisunagawa town, which have semiconductor facilities"	2019/7/26	2019/7/26
PRA000095	SAA005825	ST015				W_1xyz10_20110915	Water	"River water"	2011	9	15					Asia	Japan	"Near the exit of Kushiro-Shiranuka industrial park, Otanoshikeppu-gawa Riv., Kushiro city, Hokkaido"	43.004251		144.268252																																										"Downstream from the inflow of STP effluent; Kushiro Shiranuka industrial park;"	2019/7/26	2019/7/26
PRA000095	SAA005826	ST015		ZETTAICODE_FY2011_W	112690	W_112690_20111017	Water	"River water"	2011	10	17					Asia	Japan	"Yufutsu-bashi bridge, Abira-gawa Riv., Tomakomai city, Hokkaido"	42.62527778		141.7394444																																										"Near the month of the river; there are inustrial parks in the watershed areas; Eastern part of Tomakomai;"	2019/7/26	2019/7/26
PRA000095	SAA005827	ST015		ZETTAICODE_FY2011_W	113080	W_113080_20111017	Water	"River water"	2011	10	17					Asia	Japan	"Rinko-ohashi bridge, Atsuma-gawa Riv., Atsuma town, Hokkaido"	42.609118		141.828173																																										"Near the month of the river; there are inustrial parks near this sampling point; Eastern part of Tomakomai;"	2019/7/26	2019/7/26
PRA000095	SAA005828	ST015				W_1xyz11_20110830	Water	"River water"	2011	8	30					Asia	Japan	"Miura-ohashi bridge, Ishikari-gawa Riv., Bibai city, Hokkaido and Urausu town, Hokkaido"	43.385635		141.811613																																										"Downstream from the inflow of STP effluent; Naie STP; Population served (x1000): 125; Sewage treatment volume (x1000 m<sup>3</sup>/day): 68;  Treat the waste water from Sorachi industrial park"	2019/7/26	2019/7/26
PRA000095	SAA005829	ST015				W_1xyz12_20110830	Water	"River water"	2011	8	30					Asia	Japan	"Mihara-ohashi bridge, Ishikari-gawa Riv., Ebetsu city, Hokkaido"	43.120052		141.581569																																										"Upstream of the junction with Chitose-gawa Riv."	2019/7/26	2019/7/26
PRA000095	SAA005830	ST015		ZETTAICODE_FY2011_W	110060	W_110060_20110830	Water	"River water"	2011	8	30					Asia	Japan	"Ishikari-ohashi bridge, Ishikari-gawa Riv., Ebetsu city, Hokkaido"	43.12444444		141.5430556																																										"Downstream of the junction with Chitose-gawa Riv.; Downstream from the inflow of paper mill effluent; "	2019/7/26	2019/7/26
PRA000095	SAA005831	ST015				W_1xyz13_20110830	Water	"River water"	2011	8	30					Asia	Japan	"Sapporo-ohashi bridge, Ishikari-gawa Riv., Sapporo city and Tobetsu town, Hokkaido"	43.172798		141.419901																																										"Downstream of the junction with Toyohira-gawa Riv. and Tobetsu-gawa Riv.;"	2019/7/26	2019/7/26
PRA000095	SAA005832	ST015		ZETTAICODE_FY2011_W	113470	W_113470_20110830	Water	"River water"	2011	8	30					Asia	Japan	"Shin Ebetsu-bashi bridge, Chitose-gawa Riv., Ebetsu city, Hokkaido"	43.11583333		141.5583333																																										"Upstream of the junction with Ishikari-gawa Riv.; "	2019/7/26	2019/7/26
PRA000095	SAA005833	ST015				W_1xyz14_20110830	Water	"River water"	2011	8	30					Asia	Japan	"Minamimachi 1chome-bashi bridge, Tonebetsu-gawa Riv., Iwamizawa city, Hokkaido"	43.186916		141.75328																																										"Upstream from the inflow of STP effluent; Nankoen STP; Population served (x1000): 87; Sewage treatment volume (x1000 m<sup>3</sup>/day): 53;"	2019/7/26	2019/7/26
PRA000095	SAA005834	ST015				W_1xyz15_20110830	Water	"River water"	2011	8	30					Asia	Japan	"Yamato-bashi bridge, Tonebetsu-gawa Riv., Iwamizawa city, Hokkaido"	43.183327		141.744358																																										"Downstream from the inflow of STP effluent; Under construction on the sampling day; Nankoen STP; Population served (x1000): 87; Sewage treatment volume (x1000 m<sup>3</sup>/day): 53;"	2019/7/26	2019/7/26
PRA000095	SAA005835	ST015				W_1xyz16_20110830	Water	"River water"	2011	8	30					Asia	Japan	"Kayano-bashi bridge, Ikushunbetsu-gawa Riv., Mikasa city, Hokkaido"	43.232848		141.820815																																										"Downstream from the inflow of STP effluent; Mikasa STP; Population served (x1000): 13; Sewage treatment volume (x1000 m<sup>3</sup>/day): 8;  The effluent is drained into the stream of Kawauchi shuho; There are semiconductor facilities"	2019/7/26	2019/7/26
PRA000095	SAA005836	ST015				W_1xyz17_20100726	Water	"River water"	2010	7	29				Rainy	Asia	Japan	"Kuko-bashi bridge, Inani-gawa Riv., Higashi kagura town, Hokkaido"	43.676466		142.455857																																										"Upstream from the inflow of wastewater from Asahikawa Airport"	2019/7/26	2019/7/26
PRA000095	SAA005837	ST015				W_1xyz18_20100726	Water	"River water"	2010	7	29				Rainy	Asia	Japan	"Inani-gawa Riv., Higashi kagura town, Hokkaido"	43.686454		142.432854																																										"Downstream from the inflow of wastewater from Asahikawa Airport"	2019/7/26	2019/7/26
PRA000095	SAA005838	ST015				W_1xyz19_20100806	Water	"River water"	2010	8	6				Sunny	Asia	Japan	"Kuko-bashi bridge, Inani-gawa Riv., Higashi kagura town, Hokkaido"	43.676466		142.455857																																										"Upstream from the inflow of wastewater from Asahikawa Airport"	2019/7/26	2019/7/26
PRA000095	SAA005839	ST015				W_1xyz20_20100806	Water	"River water"	2010	8	6				Sunny	Asia	Japan	"Inani-gawa Riv., Higashi kagura town, Hokkaido"	43.686454		142.432854																																										"Downstream from the inflow of wastewater from Asahikawa Airport"	2019/7/26	2019/7/26
PRA000095	SAA005840	ST015		ZETTAICODE_FY2010_W	110140	W_110140_20100726	Water	"River water"	2010	7	29				Rainy	Asia	Japan	"Higashi kagura-bashi bridge, Chubetu-gawa Riv., Higashi kagura town, Hokkaido"	43.705		142.4591667																																										"Upstream of the junction with the river where the wastewater from Asahikawa Airport is discharged"	2019/7/26	2019/7/26
PRA000095	SAA005841	ST015				W_1xyz21_20100726	Water	"River water"	2010	7	29				Rainy	Asia	Japan	"Hijirino-ohashi bridge, Chubetsu-gawa Riv., Asahikawa city, Hokkaido"	43.725705		142.414397																																										"Downstream of the junction with the river where the wastewater from Asahikawa Airport is discharged"	2019/7/26	2019/7/26
PRA000095	SAA005842	ST015		ZETTAICODE_FY2010_W	110140	W_110140_20100806	Water	"River water"	2010	8	6				Sunny	Asia	Japan	"Higashi kagura-bashi bridge, Chubetu-gawa Riv., Higashi kagura town, Hokkaido"	43.705		142.4591667																																										"Upstream of the junction with the river where the wastewater from Asahikawa Airport is discharged"	2019/7/26	2019/7/26
PRA000095	SAA005843	ST015				W_1xyz22_20100806	Water	"River water"	2010	8	6				Sunny	Asia	Japan	"Hijirino-ohashi bridge, Chubetsu-gawa Riv., Asahikawa city, Hokkaido"	43.725705		142.414397																																										"Downstream of the junction with the river where the wastewater from Asahikawa Airport is discharged"	2019/7/26	2019/7/26
PRA000095	SAA005844	ST015				W_1xyz23_20110621	Water	"River water"	2011	6	21					Asia	Japan	"Tomappu-gawa Riv., Ozora town, Hokkaido"	43.866013		144.169021																																										"Upstream from the inflow of wastewater from Memambetsu Airport"	2019/7/26	2019/7/26
PRA000095	SAA005845	ST015		ZETTAICODE_FY2011_W	114440	W_114440_20110621	Water	"River water"	2011	6	21					Asia	Japan	"Tomappu-gawa Riv., Ozora town, Hokkaido"	43.89166667		144.1708333																																										"Downstream from the inflow of wastewater from Memambetsu Airport"	2019/7/26	2019/7/26
PRA000095	SAA005846	ST015				W_1xyz24_20100821	Water	"River water"	2010	8	21					Asia	Japan	"Takaya-bashi bridge, Otanoshike-gawa Riv., Hokkaido"	43.062302		144.192783																																										"Around Kushiro Airport"	2019/7/26	2019/7/26
PRA000095	SAA005847	ST015				W_1xyz25_20100821	Water	"River water"	2010	8	21					Asia	Japan	"Aioi-bashi bridge, Otanoshike-gawa Riv., Hokkaido"	43.041624		144.232365																																										"Around Kushiro Airport"	2019/7/26	2019/7/26
PRA000095	SAA005848	ST015				W_1xyz26_20100821	Water	"River water"	2010	8	21					Asia	Japan	"Miyashita-bashi bridge, Koitoi-gawa Riv., Hokkaido"	42.997641		144.15565																																										"Downstream from the inflow of wastewater from Kushiro Airport"	2019/7/26	2019/7/26
PRA000095	SAA005849	ST015		ZETTAICODE_FY2011_W	113680	W_113680_20110702	Water	"River water"	2011	7	2					Asia	Japan	"Matsubibi-bashi bridge, Bibi-gawa Riv., Hokkaido"	42.76583333		141.7191667																																										"Upstream from the inflow of wastewater from Chitose Airport"	2019/7/26	2019/7/26
PRA000095	SAA005850	ST015		ZETTAICODE_FY2011_W	118873	W_118873_20110702	Water	"River water"	2011	7	2					Asia	Japan	"Bibi-bashi bridge Bibi-gawa Riv., Hokkaido"	42.7825		141.7191667																																										"Downstream from the inflow of wastewater from Chitose Airport"	2019/7/26	2019/7/26
PRA000096	SAA005943	ST015				W_11xyz01_20180417	Water	"River water"	2018	4	17					Asia	Japan	"Takasaka-bashi bridge, Oppe-gawa Riv., Saitama"	35.985309		139.403036																																										"Upstream of the junction with Toki-gawa Riv.; Rice planting completed(%): Area A (between Korai-gawa Riv. and Iimori-gawa Riv.): 0; Area B (between Iimori-gawa Riv. and Ootani-gawa Riv.): 0"	2019/9/2	2019/9/2
PRA000096	SAA005944	ST015				W_11xyz01_20180424	Water	"River water"	2018	4	24					Asia	Japan	"Takasaka-bashi bridge, Oppe-gawa Riv., Saitama"	35.985309		139.403036																																										"Upstream of the junction with Toki-gawa Riv.; Rice planting completed(%): Area A (between Korai-gawa Riv. and Iimori-gawa Riv.): 0; Area B (between Iimori-gawa Riv. and Ootani-gawa Riv.): 0"	2019/9/2	2019/9/2
PRA000096	SAA005945	ST015				W_11xyz01_20180501	Water	"River water"	2018	5	1					Asia	Japan	"Takasaka-bashi bridge, Oppe-gawa Riv., Saitama"	35.985309		139.403036																																										"Upstream of the junction with Toki-gawa Riv.; Rice planting completed(%): Area A (between Korai-gawa Riv. and Iimori-gawa Riv.): 1; Area B (between Iimori-gawa Riv. and Ootani-gawa Riv.): 0"	2019/9/2	2019/9/2
PRA000096	SAA005946	ST015				W_11xyz01_20180508	Water	"River water"	2018	5	8					Asia	Japan	"Takasaka-bashi bridge, Oppe-gawa Riv., Saitama"	35.985309		139.403036																																										"Upstream of the junction with Toki-gawa Riv.; Rice planting completed(%): Area A (between Korai-gawa Riv. and Iimori-gawa Riv.): 3; Area B (between Iimori-gawa Riv. and Ootani-gawa Riv.): 0"	2019/9/2	2019/9/2
PRA000096	SAA005947	ST015				W_11xyz01_20180515	Water	"River water"	2018	5	15					Asia	Japan	"Takasaka-bashi bridge, Oppe-gawa Riv., Saitama"	35.985309		139.403036																																										"Upstream of the junction with Toki-gawa Riv.; Rice planting completed(%): Area A (between Korai-gawa Riv. and Iimori-gawa Riv.): 46; Area B (between Iimori-gawa Riv. and Ootani-gawa Riv.): 2"	2019/9/2	2019/9/2
PRA000096	SAA005948	ST015				W_11xyz01_20180521	Water	"River water"	2018	5	21					Asia	Japan	"Takasaka-bashi bridge, Oppe-gawa Riv., Saitama"	35.985309		139.403036																																										"Upstream of the junction with Toki-gawa Riv.; Rice planting completed(%): Area A (between Korai-gawa Riv. and Iimori-gawa Riv.): 63; Area B (between Iimori-gawa Riv. and Ootani-gawa Riv.): 3"	2019/9/2	2019/9/2
PRA000096	SAA005949	ST015				W_11xyz01_20180524	Water	"River water"	2018	5	24					Asia	Japan	"Takasaka-bashi bridge, Oppe-gawa Riv., Saitama"	35.985309		139.403036																																										"Upstream of the junction with Toki-gawa Riv.; Rice planting completed(%): Area A (between Korai-gawa Riv. and Iimori-gawa Riv.): 85; Area B (between Iimori-gawa Riv. and Ootani-gawa Riv.): 23"	2019/9/2	2019/9/2
PRA000096	SAA005950	ST015				W_11xyz01_20180528	Water	"River water"	2018	5	28					Asia	Japan	"Takasaka-bashi bridge, Oppe-gawa Riv., Saitama"	35.985309		139.403036																																										"Upstream of the junction with Toki-gawa Riv.; Rice planting completed(%): Area A (between Korai-gawa Riv. and Iimori-gawa Riv.): 95; Area B (between Iimori-gawa Riv. and Ootani-gawa Riv.): 47"	2019/9/2	2019/9/2
PRA000096	SAA005951	ST015				W_11xyz01_20180531	Water	"River water"	2018	5	31					Asia	Japan	"Takasaka-bashi bridge, Oppe-gawa Riv., Saitama"	35.985309		139.403036																																										"Upstream of the junction with Toki-gawa Riv.; Rice planting completed(%): Area A (between Korai-gawa Riv. and Iimori-gawa Riv.): 99; Area B (between Iimori-gawa Riv. and Ootani-gawa Riv.): 64 "	2019/9/2	2019/9/2
PRA000096	SAA005952	ST015				W_11xyz01_20180604	Water	"River water"	2018	6	4					Asia	Japan	"Takasaka-bashi bridge, Oppe-gawa Riv., Saitama"	35.985309		139.403036																																										"Upstream of the junction with Toki-gawa Riv.; Rice planting completed(%): Area A (between Korai-gawa Riv. and Iimori-gawa Riv.): 100; Area B (between Iimori-gawa Riv. and Ootani-gawa Riv.): 85"	2019/9/2	2019/9/2
PRA000096	SAA005953	ST015				W_11xyz01_20180607	Water	"River water"	2018	6	7					Asia	Japan	"Takasaka-bashi bridge, Oppe-gawa Riv., Saitama"	35.985309		139.403036																																										"Upstream of the junction with Toki-gawa Riv.; Rice planting completed(%): Area A (between Korai-gawa Riv. and Iimori-gawa Riv.): 100; Area B (between Iimori-gawa Riv. and Ootani-gawa Riv.): 100"	2019/9/2	2019/9/2
PRA000096	SAA005954	ST015				W_11xyz01_20180612	Water	"River water"	2018	6	12					Asia	Japan	"Takasaka-bashi bridge, Oppe-gawa Riv., Saitama"	35.985309		139.403036																																										"Upstream of the junction with Toki-gawa Riv. "	2019/9/2	2019/9/2
PRA000096	SAA005955	ST015				W_11xyz01_20180619	Water	"River water"	2018	6	19					Asia	Japan	"Takasaka-bashi bridge, Oppe-gawa Riv., Saitama"	35.985309		139.403036																																										"Upstream of the junction with Toki-gawa Riv. "	2019/9/2	2019/9/2
PRA000096	SAA005956	ST015				W_11xyz01_20180626	Water	"River water"	2018	6	26					Asia	Japan	"Takasaka-bashi bridge, Oppe-gawa Riv., Saitama"	35.985309		139.403036																																										"Upstream of the junction with Toki-gawa Riv.; Area A: Midterm drying"	2019/9/2	2019/9/2
PRA000096	SAA005957	ST015				W_11xyz01_20180703	Water	"River water"	2018	7	3					Asia	Japan	"Takasaka-bashi bridge, Oppe-gawa Riv., Saitama"	35.985309		139.403036																																										"Upstream of the junction with Toki-gawa Riv.; Area A: Midterm drying; Area B: Midterm drying"	2019/9/2	2019/9/2
PRA000096	SAA005958	ST015				W_11xyz01_20180710	Water	"River water"	2018	7	10					Asia	Japan	"Takasaka-bashi bridge, Oppe-gawa Riv., Saitama"	35.985309		139.403036																																										"Upstream of the junction with Toki-gawa Riv.; Area A: Midterm drying; Area B: Midterm drying"	2019/9/2	2019/9/2
PRA000096	SAA005959	ST015				W_11xyz01_20180717	Water	"River water"	2018	7	17					Asia	Japan	"Takasaka-bashi bridge, Oppe-gawa Riv., Saitama"	35.985309		139.403036																																										"Upstream of the junction with Toki-gawa Riv.; Area B: Midterm drying"	2019/9/2	2019/9/2
PRA000096	SAA005960	ST015				W_11xyz01_20180724	Water	"River water"	2018	7	24					Asia	Japan	"Takasaka-bashi bridge, Oppe-gawa Riv., Saitama"	35.985309		139.403036																																										"Upstream of the junction with Toki-gawa Riv. "	2019/9/2	2019/9/2
PRA000096	SAA005961	ST015				W_11xyz01_20180731	Water	"River water"	2018	7	31					Asia	Japan	"Takasaka-bashi bridge, Oppe-gawa Riv., Saitama"	35.985309		139.403036																																										"Upstream of the junction with Toki-gawa Riv. "	2019/9/2	2019/9/2
PRA000096	SAA005962	ST015				W_11xyz01_20180807	Water	"River water"	2018	8	7					Asia	Japan	"Takasaka-bashi bridge, Oppe-gawa Riv., Saitama"	35.985309		139.403036																																										"Upstream of the junction with Toki-gawa Riv. "	2019/9/2	2019/9/2
PRA000096	SAA005963	ST015				W_11xyz01_20180814	Water	"River water"	2018	8	14					Asia	Japan	"Takasaka-bashi bridge, Oppe-gawa Riv., Saitama"	35.985309		139.403036																																										"Upstream of the junction with Toki-gawa Riv. "	2019/9/2	2019/9/2
PRA000096	SAA005964	ST015				W_11xyz01_20180821	Water	"River water"	2018	8	21					Asia	Japan	"Takasaka-bashi bridge, Oppe-gawa Riv., Saitama"	35.985309		139.403036																																										"Upstream of the junction with Toki-gawa Riv. "	2019/9/2	2019/9/2
PRA000096	SAA005965	ST015				W_11xyz01_20180828	Water	"River water"	2018	8	28					Asia	Japan	"Takasaka-bashi bridge, Oppe-gawa Riv., Saitama"	35.985309		139.403036																																										"Upstream of the junction with Toki-gawa Riv. "	2019/9/2	2019/9/2
PRA000096	SAA005966	ST015				W_11xyz01_20180904	Water	"River water"	2018	9	4					Asia	Japan	"Takasaka-bashi bridge, Oppe-gawa Riv., Saitama"	35.985309		139.403036																																										"Upstream of the junction with Toki-gawa Riv. "	2019/9/2	2019/9/2
PRA000096	SAA005967	ST015				W_11xyz02_20180417	Water	"River water"	2018	4	17					Asia	Japan	"Ogino 2gou-bashi bridge, Iimori-gawa Riv., Saitama"	35.978447		139.440399																																										"About 5 km upstream from Ochiai-bashi bridge; Rice planting completed(%): Area A (between Korai-gawa Riv. and Iimori-gawa Riv.): 0; Area B (between Iimori-gawa Riv. and Ootani-gawa Riv.): 0"	2019/9/2	2019/9/2
PRA000096	SAA005968	ST015				W_11xyz02_20180424	Water	"River water"	2018	4	24					Asia	Japan	"Ogino 2gou-bashi bridge, Iimori-gawa Riv., Saitama"	35.978447		139.440399																																										"About 5 km upstream from Ochiai-bashi bridge; Rice planting completed(%): Area A (between Korai-gawa Riv. and Iimori-gawa Riv.): 0; Area B (between Iimori-gawa Riv. and Ootani-gawa Riv.): 0"	2019/9/2	2019/9/2
PRA000096	SAA005969	ST015				W_11xyz02_20180501	Water	"River water"	2018	5	1					Asia	Japan	"Ogino 2gou-bashi bridge, Iimori-gawa Riv., Saitama"	35.978447		139.440399																																										"About 5 km upstream from Ochiai-bashi bridge; Rice planting completed(%): Area A (between Korai-gawa Riv. and Iimori-gawa Riv.): 1; Area B (between Iimori-gawa Riv. and Ootani-gawa Riv.): 0"	2019/9/2	2019/9/2
PRA000096	SAA005970	ST015				W_11xyz02_20180508	Water	"River water"	2018	5	8					Asia	Japan	"Ogino 2gou-bashi bridge, Iimori-gawa Riv., Saitama"	35.978447		139.440399																																										"About 5 km upstream from Ochiai-bashi bridge; Rice planting completed(%): Area A (between Korai-gawa Riv. and Iimori-gawa Riv.): 3; Area B (between Iimori-gawa Riv. and Ootani-gawa Riv.): 0"	2019/9/2	2019/9/2
PRA000096	SAA005971	ST015				W_11xyz02_20180515	Water	"River water"	2018	5	15					Asia	Japan	"Ogino 2gou-bashi bridge, Iimori-gawa Riv., Saitama"	35.978447		139.440399																																										"About 5 km upstream from Ochiai-bashi bridge; Rice planting completed(%): Area A (between Korai-gawa Riv. and Iimori-gawa Riv.): 46; Area B (between Iimori-gawa Riv. and Ootani-gawa Riv.): 2"	2019/9/2	2019/9/2
PRA000096	SAA005972	ST015				W_11xyz02_20180521	Water	"River water"	2018	5	21					Asia	Japan	"Ogino 2gou-bashi bridge, Iimori-gawa Riv., Saitama"	35.978447		139.440399																																										"About 5 km upstream from Ochiai-bashi bridge; Rice planting completed(%): Area A (between Korai-gawa Riv. and Iimori-gawa Riv.): 63; Area B (between Iimori-gawa Riv. and Ootani-gawa Riv.): 3"	2019/9/2	2019/9/2
PRA000096	SAA005973	ST015				W_11xyz02_20180524	Water	"River water"	2018	5	24					Asia	Japan	"Ogino 2gou-bashi bridge, Iimori-gawa Riv., Saitama"	35.978447		139.440399																																										"About 5 km upstream from Ochiai-bashi bridge; Rice planting completed(%): Area A (between Korai-gawa Riv. and Iimori-gawa Riv.): 85; Area B (between Iimori-gawa Riv. and Ootani-gawa Riv.): 23"	2019/9/2	2019/9/2
PRA000096	SAA005974	ST015				W_11xyz02_20180528	Water	"River water"	2018	5	28					Asia	Japan	"Ogino 2gou-bashi bridge, Iimori-gawa Riv., Saitama"	35.978447		139.440399																																										"About 5 km upstream from Ochiai-bashi bridge; Rice planting completed(%): Area A (between Korai-gawa Riv. and Iimori-gawa Riv.): 95; Area B (between Iimori-gawa Riv. and Ootani-gawa Riv.): 47"	2019/9/2	2019/9/2
PRA000096	SAA005975	ST015				W_11xyz02_20180531	Water	"River water"	2018	5	31					Asia	Japan	"Ogino 2gou-bashi bridge, Iimori-gawa Riv., Saitama"	35.978447		139.440399																																										"About 5 km upstream from Ochiai-bashi bridge; Rice planting completed(%): Area A (between Korai-gawa Riv. and Iimori-gawa Riv.): 99; Area B (between Iimori-gawa Riv. and Ootani-gawa Riv.): 64"	2019/9/2	2019/9/2
PRA000096	SAA005976	ST015				W_11xyz02_20180604	Water	"River water"	2018	6	4					Asia	Japan	"Ogino 2gou-bashi bridge, Iimori-gawa Riv., Saitama"	35.978447		139.440399																																										"About 5 km upstream from Ochiai-bashi bridge; Rice planting completed(%): Area A (between Korai-gawa Riv. and Iimori-gawa Riv.): 100; Area B (between Iimori-gawa Riv. and Ootani-gawa Riv.): 85"	2019/9/2	2019/9/2
PRA000096	SAA005977	ST015				W_11xyz02_20180607	Water	"River water"	2018	6	7					Asia	Japan	"Ogino 2gou-bashi bridge, Iimori-gawa Riv., Saitama"	35.978447		139.440399																																										"About 5 km upstream from Ochiai-bashi bridge; Rice planting completed(%): Area A (between Korai-gawa Riv. and Iimori-gawa Riv.): 100; Area B (between Iimori-gawa Riv. and Ootani-gawa Riv.): 100"	2019/9/2	2019/9/2
PRA000096	SAA005978	ST015				W_11xyz02_20180612	Water	"River water"	2018	6	12					Asia	Japan	"Ogino 2gou-bashi bridge, Iimori-gawa Riv., Saitama"	35.978447		139.440399																																										"About 5 km upstream from Ochiai-bashi bridge"	2019/9/2	2019/9/2
PRA000096	SAA005979	ST015				W_11xyz02_20180619	Water	"River water"	2018	6	19					Asia	Japan	"Ogino 2gou-bashi bridge, Iimori-gawa Riv., Saitama"	35.978447		139.440399																																										"About 5 km upstream from Ochiai-bashi bridge"	2019/9/2	2019/9/2
PRA000096	SAA005980	ST015				W_11xyz02_20180626	Water	"River water"	2018	6	26					Asia	Japan	"Ogino 2gou-bashi bridge, Iimori-gawa Riv., Saitama"	35.978447		139.440399																																										"About 5 km upstream from Ochiai-bashi bridge; Area A: Midterm drying"	2019/9/2	2019/9/2
PRA000096	SAA005981	ST015				W_11xyz02_20180703	Water	"River water"	2018	7	3					Asia	Japan	"Ogino 2gou-bashi bridge, Iimori-gawa Riv., Saitama"	35.978447		139.440399																																										"About 5 km upstream from Ochiai-bashi bridge; Area A: Midterm drying; Area B: Midterm drying"	2019/9/2	2019/9/2
PRA000096	SAA005982	ST015				W_11xyz02_20180710	Water	"River water"	2018	7	10					Asia	Japan	"Ogino 2gou-bashi bridge, Iimori-gawa Riv., Saitama"	35.978447		139.440399																																										"About 5 km upstream from Ochiai-bashi bridge; Area A: Midterm drying; Area B: Midterm drying"	2019/9/2	2019/9/2
PRA000096	SAA005983	ST015				W_11xyz02_20180717	Water	"River water"	2018	7	17					Asia	Japan	"Ogino 2gou-bashi bridge, Iimori-gawa Riv., Saitama"	35.978447		139.440399																																										"About 5 km upstream from Ochiai-bashi bridge; Area B: Midterm drying"	2019/9/2	2019/9/2
PRA000096	SAA005984	ST015				W_11xyz02_20180724	Water	"River water"	2018	7	24					Asia	Japan	"Ogino 2gou-bashi bridge, Iimori-gawa Riv., Saitama"	35.978447		139.440399																																										"About 5 km upstream from Ochiai-bashi bridge"	2019/9/2	2019/9/2
PRA000096	SAA005985	ST015				W_11xyz02_20180731	Water	"River water"	2018	7	31					Asia	Japan	"Ogino 2gou-bashi bridge, Iimori-gawa Riv., Saitama"	35.978447		139.440399																																										"About 5 km upstream from Ochiai-bashi bridge"	2019/9/2	2019/9/2
PRA000096	SAA005986	ST015				W_11xyz02_20180807	Water	"River water"	2018	8	7					Asia	Japan	"Ogino 2gou-bashi bridge, Iimori-gawa Riv., Saitama"	35.978447		139.440399																																										"About 5 km upstream from Ochiai-bashi bridge"	2019/9/2	2019/9/2
PRA000096	SAA005987	ST015				W_11xyz02_20180814	Water	"River water"	2018	8	14					Asia	Japan	"Ogino 2gou-bashi bridge, Iimori-gawa Riv., Saitama"	35.978447		139.440399																																										"About 5 km upstream from Ochiai-bashi bridge"	2019/9/2	2019/9/2
PRA000096	SAA005988	ST015				W_11xyz02_20180821	Water	"River water"	2018	8	21					Asia	Japan	"Ogino 2gou-bashi bridge, Iimori-gawa Riv., Saitama"	35.978447		139.440399																																										"About 5 km upstream from Ochiai-bashi bridge"	2019/9/2	2019/9/2
PRA000096	SAA005989	ST015				W_11xyz02_20180828	Water	"River water"	2018	8	28					Asia	Japan	"Ogino 2gou-bashi bridge, Iimori-gawa Riv., Saitama"	35.978447		139.440399																																										"About 5 km upstream from Ochiai-bashi bridge"	2019/9/2	2019/9/2
PRA000096	SAA005990	ST015				W_11xyz02_20180904	Water	"River water"	2018	9	4					Asia	Japan	"Ogino 2gou-bashi bridge, Iimori-gawa Riv., Saitama"	35.978447		139.440399																																										"About 5 km upstream from Ochiai-bashi bridge"	2019/9/2	2019/9/2
PRA000096	SAA005991	ST015				W_11xyz03_20180417	Water	"River water"	2018	4	17					Asia	Japan	"Biwano-bashi bridge, Oppe-gawa Riv., Saitama"	35.957577		139.46014																																										"About 1 km upstream from Ochiai-bashi bridge; Rice planting completed(%): Area A (between Korai-gawa Riv. and Iimori-gawa Riv.): 0; Area B (between Iimori-gawa Riv. and Ootani-gawa Riv.): 0"	2019/9/2	2019/9/2
PRA000096	SAA005992	ST015				W_11xyz03_20180424	Water	"River water"	2018	4	24					Asia	Japan	"Biwano-bashi bridge, Oppe-gawa Riv., Saitama"	35.957577		139.46014																																										"About 1 km upstream from Ochiai-bashi bridge; Rice planting completed(%): Area A (between Korai-gawa Riv. and Iimori-gawa Riv.): 0; Area B (between Iimori-gawa Riv. and Ootani-gawa Riv.): 0"	2019/9/2	2019/9/2
PRA000096	SAA005993	ST015				W_11xyz03_20180501	Water	"River water"	2018	5	1					Asia	Japan	"Biwano-bashi bridge, Oppe-gawa Riv., Saitama"	35.957577		139.46014																																										"About 1 km upstream from Ochiai-bashi bridge; Rice planting completed(%): Area A (between Korai-gawa Riv. and Iimori-gawa Riv.): 1; Area B (between Iimori-gawa Riv. and Ootani-gawa Riv.): 0"	2019/9/2	2019/9/2
PRA000096	SAA005994	ST015				W_11xyz03_20180508	Water	"River water"	2018	5	8					Asia	Japan	"Biwano-bashi bridge, Oppe-gawa Riv., Saitama"	35.957577		139.46014																																										"About 1 km upstream from Ochiai-bashi bridge; Rice planting completed(%): Area A (between Korai-gawa Riv. and Iimori-gawa Riv.): 3; Area B (between Iimori-gawa Riv. and Ootani-gawa Riv.): 0"	2019/9/2	2019/9/2
PRA000096	SAA005995	ST015				W_11xyz03_20180515	Water	"River water"	2018	5	15					Asia	Japan	"Biwano-bashi bridge, Oppe-gawa Riv., Saitama"	35.957577		139.46014																																										"About 1 km upstream from Ochiai-bashi bridge; Rice planting completed(%): Area A (between Korai-gawa Riv. and Iimori-gawa Riv.): 46; Area B (between Iimori-gawa Riv. and Ootani-gawa Riv.): 2"	2019/9/2	2019/9/2
PRA000096	SAA005996	ST015				W_11xyz03_20180521	Water	"River water"	2018	5	21					Asia	Japan	"Biwano-bashi bridge, Oppe-gawa Riv., Saitama"	35.957577		139.46014																																										"About 1 km upstream from Ochiai-bashi bridge; Rice planting completed(%): Area A (between Korai-gawa Riv. and Iimori-gawa Riv.): 63; Area B (between Iimori-gawa Riv. and Ootani-gawa Riv.): 3"	2019/9/2	2019/9/2
PRA000096	SAA005997	ST015				W_11xyz03_20180524	Water	"River water"	2018	5	24					Asia	Japan	"Biwano-bashi bridge, Oppe-gawa Riv., Saitama"	35.957577		139.46014																																										"About 1 km upstream from Ochiai-bashi bridge; Rice planting completed(%): Area A (between Korai-gawa Riv. and Iimori-gawa Riv.): 85; Area B (between Iimori-gawa Riv. and Ootani-gawa Riv.): 23"	2019/9/2	2019/9/2
PRA000096	SAA005998	ST015				W_11xyz03_20180528	Water	"River water"	2018	5	28					Asia	Japan	"Biwano-bashi bridge, Oppe-gawa Riv., Saitama"	35.957577		139.46014																																										"About 1 km upstream from Ochiai-bashi bridge; Rice planting completed(%): Area A (between Korai-gawa Riv. and Iimori-gawa Riv.): 95; Area B (between Iimori-gawa Riv. and Ootani-gawa Riv.): 47"	2019/9/2	2019/9/2
PRA000096	SAA005999	ST015				W_11xyz03_20180531	Water	"River water"	2018	5	31					Asia	Japan	"Biwano-bashi bridge, Oppe-gawa Riv., Saitama"	35.957577		139.46014																																										"About 1 km upstream from Ochiai-bashi bridge; Rice planting completed(%): Area A (between Korai-gawa Riv. and Iimori-gawa Riv.): 99; Area B (between Iimori-gawa Riv. and Ootani-gawa Riv.): 64"	2019/9/2	2019/9/2
PRA000096	SAA006000	ST015				W_11xyz03_20180604	Water	"River water"	2018	6	4					Asia	Japan	"Biwano-bashi bridge, Oppe-gawa Riv., Saitama"	35.957577		139.46014																																										"About 1 km upstream from Ochiai-bashi bridge; Rice planting completed(%): Area A (between Korai-gawa Riv. and Iimori-gawa Riv.): 100; Area B (between Iimori-gawa Riv. and Ootani-gawa Riv.): 85"	2019/9/2	2019/9/2
PRA000096	SAA006001	ST015				W_11xyz03_20180607	Water	"River water"	2018	6	7					Asia	Japan	"Biwano-bashi bridge, Oppe-gawa Riv., Saitama"	35.957577		139.46014																																										"About 1 km upstream from Ochiai-bashi bridge; Rice planting completed(%): Area A (between Korai-gawa Riv. and Iimori-gawa Riv.): 100; Area B (between Iimori-gawa Riv. and Ootani-gawa Riv.): 100"	2019/9/2	2019/9/2
PRA000096	SAA006002	ST015				W_11xyz03_20180612	Water	"River water"	2018	6	12					Asia	Japan	"Biwano-bashi bridge, Oppe-gawa Riv., Saitama"	35.957577		139.46014																																										"About 1 km upstream from Ochiai-bashi bridge"	2019/9/2	2019/9/2
PRA000096	SAA006003	ST015				W_11xyz03_20180619	Water	"River water"	2018	6	19					Asia	Japan	"Biwano-bashi bridge, Oppe-gawa Riv., Saitama"	35.957577		139.46014																																										"About 1 km upstream from Ochiai-bashi bridge"	2019/9/2	2019/9/2
PRA000096	SAA006004	ST015				W_11xyz03_20180626	Water	"River water"	2018	6	26					Asia	Japan	"Biwano-bashi bridge, Oppe-gawa Riv., Saitama"	35.957577		139.46014																																										"About 1 km upstream from Ochiai-bashi bridge; Area A: Midterm drying"	2019/9/2	2019/9/2
PRA000096	SAA006005	ST015				W_11xyz03_20180703	Water	"River water"	2018	7	3					Asia	Japan	"Biwano-bashi bridge, Oppe-gawa Riv., Saitama"	35.957577		139.46014																																										"About 1 km upstream from Ochiai-bashi bridge; Area A: Midterm drying; Area B: Midterm drying"	2019/9/2	2019/9/2
PRA000096	SAA006006	ST015				W_11xyz03_20180710	Water	"River water"	2018	7	10					Asia	Japan	"Biwano-bashi bridge, Oppe-gawa Riv., Saitama"	35.957577		139.46014																																										"About 1 km upstream from Ochiai-bashi bridge; Area A: Midterm drying; Area B: Midterm drying"	2019/9/2	2019/9/2
PRA000096	SAA006007	ST015				W_11xyz03_20180717	Water	"River water"	2018	7	17					Asia	Japan	"Biwano-bashi bridge, Oppe-gawa Riv., Saitama"	35.957577		139.46014																																										"About 1 km upstream from Ochiai-bashi bridge; Area B: Midterm drying"	2019/9/2	2019/9/2
PRA000096	SAA006008	ST015				W_11xyz03_20180724	Water	"River water"	2018	7	24					Asia	Japan	"Biwano-bashi bridge, Oppe-gawa Riv., Saitama"	35.957577		139.46014																																										"About 1 km upstream from Ochiai-bashi bridge"	2019/9/2	2019/9/2
PRA000096	SAA006009	ST015				W_11xyz03_20180731	Water	"River water"	2018	7	31					Asia	Japan	"Biwano-bashi bridge, Oppe-gawa Riv., Saitama"	35.957577		139.46014																																										"About 1 km upstream from Ochiai-bashi bridge"	2019/9/2	2019/9/2
PRA000096	SAA006010	ST015				W_11xyz03_20180807	Water	"River water"	2018	8	7					Asia	Japan	"Biwano-bashi bridge, Oppe-gawa Riv., Saitama"	35.957577		139.46014																																										"About 1 km upstream from Ochiai-bashi bridge"	2019/9/2	2019/9/2
PRA000096	SAA006011	ST015				W_11xyz03_20180814	Water	"River water"	2018	8	14					Asia	Japan	"Biwano-bashi bridge, Oppe-gawa Riv., Saitama"	35.957577		139.46014																																										"About 1 km upstream from Ochiai-bashi bridge"	2019/9/2	2019/9/2
PRA000096	SAA006012	ST015				W_11xyz03_20180821	Water	"River water"	2018	8	21					Asia	Japan	"Biwano-bashi bridge, Oppe-gawa Riv., Saitama"	35.957577		139.46014																																										"About 1 km upstream from Ochiai-bashi bridge"	2019/9/2	2019/9/2
PRA000096	SAA006013	ST015				W_11xyz03_20180828	Water	"River water"	2018	8	28					Asia	Japan	"Biwano-bashi bridge, Oppe-gawa Riv., Saitama"	35.957577		139.46014																																										"About 1 km upstream from Ochiai-bashi bridge"	2019/9/2	2019/9/2
PRA000096	SAA006014	ST015				W_11xyz03_20180904	Water	"River water"	2018	9	4					Asia	Japan	"Biwano-bashi bridge, Oppe-gawa Riv., Saitama"	35.957577		139.46014																																										"About 1 km upstream from Ochiai-bashi bridge"	2019/9/2	2019/9/2
PRA000096	SAA006015	ST015		ZETTAICODE_FY2018_W	1110530	W_1110530_20180417	Water	"River water"	2018	4	17					Asia	Japan	"Ochiai-bashi bridge, Oppe-gawa Riv., Saitama"	35.960372		139.472228																																										"Rice planting completed(%): Area A (between Korai-gawa Riv. and Iimori-gawa Riv.): 0; Area B (between Iimori-gawa Riv. and Ootani-gawa Riv.): 0"	2019/9/2	2019/9/2
PRA000096	SAA006016	ST015		ZETTAICODE_FY2018_W	1110530	W_1110530_20180424	Water	"River water"	2018	4	24					Asia	Japan	"Ochiai-bashi bridge, Oppe-gawa Riv., Saitama"	35.960372		139.472228																																										"Rice planting completed(%): Area A (between Korai-gawa Riv. and Iimori-gawa Riv.): 0; Area B (between Iimori-gawa Riv. and Ootani-gawa Riv.): 0"	2019/9/2	2019/9/2
PRA000096	SAA006017	ST015		ZETTAICODE_FY2018_W	1110530	W_1110530_20180501	Water	"River water"	2018	5	1					Asia	Japan	"Ochiai-bashi bridge, Oppe-gawa Riv., Saitama"	35.960372		139.472228																																										"Rice planting completed(%): Area A (between Korai-gawa Riv. and Iimori-gawa Riv.): 1; Area B (between Iimori-gawa Riv. and Ootani-gawa Riv.): 0"	2019/9/2	2019/9/2
PRA000096	SAA006018	ST015		ZETTAICODE_FY2018_W	1110530	W_1110530_20180508	Water	"River water"	2018	5	8					Asia	Japan	"Ochiai-bashi bridge, Oppe-gawa Riv., Saitama"	35.960372		139.472228																																										"Rice planting completed(%): Area A (between Korai-gawa Riv. and Iimori-gawa Riv.): 3; Area B (between Iimori-gawa Riv. and Ootani-gawa Riv.): 0"	2019/9/2	2019/9/2
PRA000096	SAA006019	ST015		ZETTAICODE_FY2018_W	1110530	W_1110530_20180515	Water	"River water"	2018	5	15					Asia	Japan	"Ochiai-bashi bridge, Oppe-gawa Riv., Saitama"	35.960372		139.472228																																										"Rice planting completed(%): Area A (between Korai-gawa Riv. and Iimori-gawa Riv.): 46; Area B (between Iimori-gawa Riv. and Ootani-gawa Riv.): 2"	2019/9/2	2019/9/2
PRA000096	SAA006020	ST015		ZETTAICODE_FY2018_W	1110530	W_1110530_20180521	Water	"River water"	2018	5	21					Asia	Japan	"Ochiai-bashi bridge, Oppe-gawa Riv., Saitama"	35.960372		139.472228																																										"Rice planting completed(%): Area A (between Korai-gawa Riv. and Iimori-gawa Riv.): 63; Area B (between Iimori-gawa Riv. and Ootani-gawa Riv.): 3"	2019/9/2	2019/9/2
PRA000096	SAA006021	ST015		ZETTAICODE_FY2018_W	1110530	W_1110530_20180524	Water	"River water"	2018	5	24					Asia	Japan	"Ochiai-bashi bridge, Oppe-gawa Riv., Saitama"	35.960372		139.472228																																										"Rice planting completed(%): Area A (between Korai-gawa Riv. and Iimori-gawa Riv.): 85; Area B (between Iimori-gawa Riv. and Ootani-gawa Riv.): 23"	2019/9/2	2019/9/2
PRA000096	SAA006022	ST015		ZETTAICODE_FY2018_W	1110530	W_1110530_20180528	Water	"River water"	2018	5	28					Asia	Japan	"Ochiai-bashi bridge, Oppe-gawa Riv., Saitama"	35.960372		139.472228																																										"Rice planting completed(%): Area A (between Korai-gawa Riv. and Iimori-gawa Riv.): 95; Area B (between Iimori-gawa Riv. and Ootani-gawa Riv.): 47"	2019/9/2	2019/9/2
PRA000096	SAA006023	ST015		ZETTAICODE_FY2018_W	1110530	W_1110530_20180531	Water	"River water"	2018	5	31					Asia	Japan	"Ochiai-bashi bridge, Oppe-gawa Riv., Saitama"	35.960372		139.472228																																										"Rice planting completed(%): Area A (between Korai-gawa Riv. and Iimori-gawa Riv.): 99; Area B (between Iimori-gawa Riv. and Ootani-gawa Riv.): 64"	2019/9/2	2019/9/2
PRA000096	SAA006024	ST015		ZETTAICODE_FY2018_W	1110530	W_1110530_20180604	Water	"River water"	2018	6	4					Asia	Japan	"Ochiai-bashi bridge, Oppe-gawa Riv., Saitama"	35.960372		139.472228																																										"Rice planting completed(%): Area A (between Korai-gawa Riv. and Iimori-gawa Riv.): 100; Area B (between Iimori-gawa Riv. and Ootani-gawa Riv.): 85"	2019/9/2	2019/9/2
PRA000096	SAA006025	ST015		ZETTAICODE_FY2018_W	1110530	W_1110530_20180607	Water	"River water"	2018	6	7					Asia	Japan	"Ochiai-bashi bridge, Oppe-gawa Riv., Saitama"	35.960372		139.472228																																										"Rice planting completed(%): Area A (between Korai-gawa Riv. and Iimori-gawa Riv.): 100; Area B (between Iimori-gawa Riv. and Ootani-gawa Riv.): 100"	2019/9/2	2019/9/2
PRA000096	SAA006026	ST015		ZETTAICODE_FY2018_W	1110530	W_1110530_20180612	Water	"River water"	2018	6	12					Asia	Japan	"Ochiai-bashi bridge, Oppe-gawa Riv., Saitama"	35.960372		139.472228																																											2019/9/2	2019/9/2
PRA000096	SAA006027	ST015		ZETTAICODE_FY2018_W	1110530	W_1110530_20180619	Water	"River water"	2018	6	19					Asia	Japan	"Ochiai-bashi bridge, Oppe-gawa Riv., Saitama"	35.960372		139.472228																																											2019/9/2	2019/9/2
PRA000096	SAA006028	ST015		ZETTAICODE_FY2018_W	1110530	W_1110530_20180626	Water	"River water"	2018	6	26					Asia	Japan	"Ochiai-bashi bridge, Oppe-gawa Riv., Saitama"	35.960372		139.472228																																										"Area A: Midterm drying"	2019/9/2	2019/9/2
PRA000096	SAA006029	ST015		ZETTAICODE_FY2018_W	1110530	W_1110530_20180703	Water	"River water"	2018	7	3					Asia	Japan	"Ochiai-bashi bridge, Oppe-gawa Riv., Saitama"	35.960372		139.472228																																										"Area A: Midterm drying; Area B: Midterm drying"	2019/9/2	2019/9/2
PRA000096	SAA006030	ST015		ZETTAICODE_FY2018_W	1110530	W_1110530_20180710	Water	"River water"	2018	7	10					Asia	Japan	"Ochiai-bashi bridge, Oppe-gawa Riv., Saitama"	35.960372		139.472228																																										"Area A: Midterm drying; Area B: Midterm drying"	2019/9/2	2019/9/2
PRA000096	SAA006031	ST015		ZETTAICODE_FY2018_W	1110530	W_1110530_20180717	Water	"River water"	2018	7	17					Asia	Japan	"Ochiai-bashi bridge, Oppe-gawa Riv., Saitama"	35.960372		139.472228																																										"Area B: Midterm drying"	2019/9/2	2019/9/2
PRA000096	SAA006032	ST015		ZETTAICODE_FY2018_W	1110530	W_1110530_20180724	Water	"River water"	2018	7	24					Asia	Japan	"Ochiai-bashi bridge, Oppe-gawa Riv., Saitama"	35.960372		139.472228																																											2019/9/2	2019/9/2
PRA000096	SAA006033	ST015		ZETTAICODE_FY2018_W	1110530	W_1110530_20180731	Water	"River water"	2018	7	31					Asia	Japan	"Ochiai-bashi bridge, Oppe-gawa Riv., Saitama"	35.960372		139.472228																																											2019/9/2	2019/9/2
PRA000096	SAA006034	ST015		ZETTAICODE_FY2018_W	1110530	W_1110530_20180807	Water	"River water"	2018	8	7					Asia	Japan	"Ochiai-bashi bridge, Oppe-gawa Riv., Saitama"	35.960372		139.472228																																											2019/9/2	2019/9/2
PRA000096	SAA006035	ST015		ZETTAICODE_FY2018_W	1110530	W_1110530_20180814	Water	"River water"	2018	8	14					Asia	Japan	"Ochiai-bashi bridge, Oppe-gawa Riv., Saitama"	35.960372		139.472228																																											2019/9/2	2019/9/2
PRA000096	SAA006036	ST015		ZETTAICODE_FY2018_W	1110530	W_1110530_20180821	Water	"River water"	2018	8	21					Asia	Japan	"Ochiai-bashi bridge, Oppe-gawa Riv., Saitama"	35.960372		139.472228																																											2019/9/2	2019/9/2
PRA000096	SAA006037	ST015		ZETTAICODE_FY2018_W	1110530	W_1110530_20180828	Water	"River water"	2018	8	28					Asia	Japan	"Ochiai-bashi bridge, Oppe-gawa Riv., Saitama"	35.960372		139.472228																																											2019/9/2	2019/9/2
PRA000096	SAA006038	ST015		ZETTAICODE_FY2018_W	1110530	W_1110530_20180904	Water	"River water"	2018	9	4					Asia	Japan	"Ochiai-bashi bridge, Oppe-gawa Riv., Saitama"	35.960372		139.472228																																											2019/9/2	2019/9/2
PRA000096	SAA006039	ST015				W_29xyz01_20180507	Water	"River water"	2018	5	7					Asia	Japan	"Shibu-bashi bridge, Asuka Riv., Nara"	34.49631		135.801514																																											2019/9/2	2019/9/2
PRA000096	SAA006040	ST015				W_29xyz01_20180514	Water	"River water"	2018	5	14					Asia	Japan	"Shibu-bashi bridge, Asuka Riv., Nara"	34.49631		135.801514																																											2019/9/2	2019/9/2
PRA000096	SAA006041	ST015				W_29xyz01_20180521	Water	"River water"	2018	5	21					Asia	Japan	"Shibu-bashi bridge, Asuka Riv., Nara"	34.49631		135.801514																																										"Started preparing rice fields for planting by flooding them and tilling the soil"	2019/9/2	2019/9/2
PRA000096	SAA006042	ST015				W_29xyz01_20180528	Water	"River water"	2018	5	28					Asia	Japan	"Shibu-bashi bridge, Asuka Riv., Nara"	34.49631		135.801514																																										"Start of rice-planting season; Applying butachlor"	2019/9/2	2019/9/2
PRA000096	SAA006043	ST015				W_29xyz01_20180604	Water	"River water"	2018	6	4					Asia	Japan	"Shibu-bashi bridge, Asuka Riv., Nara"	34.49631		135.801514																																										"Applying butachlor"	2019/9/2	2019/9/2
PRA000096	SAA006044	ST015				W_29xyz01_20180607	Water	"River water"	2018	6	7					Asia	Japan	"Shibu-bashi bridge, Asuka Riv., Nara"	34.49631		135.801514																																										"Rice-planting (10% done); Applying butachlor"	2019/9/2	2019/9/2
PRA000096	SAA006045	ST015				W_29xyz01_20180611	Water	"River water"	2018	6	11					Asia	Japan	"Shibu-bashi bridge, Asuka Riv., Nara"	34.49631		135.801514																																										"Rice-planting (70% done); Applying butachlor"	2019/9/2	2019/9/2
PRA000096	SAA006046	ST015				W_29xyz01_20180614	Water	"River water"	2018	6	14					Asia	Japan	"Shibu-bashi bridge, Asuka Riv., Nara"	34.49631		135.801514																																										"Rice-planting (80% done); Applying butachlor"	2019/9/2	2019/9/2
PRA000096	SAA006047	ST015				W_29xyz01_20180618	Water	"River water"	2018	6	18					Asia	Japan	"Shibu-bashi bridge, Asuka Riv., Nara"	34.49631		135.801514																																										"Rice-planting (90% done); Applying butachlor"	2019/9/2	2019/9/2
PRA000096	SAA006048	ST015				W_29xyz01_20180621	Water	"River water"	2018	6	21					Asia	Japan	"Shibu-bashi bridge, Asuka Riv., Nara"	34.49631		135.801514																																										"Applying butachlor"	2019/9/2	2019/9/2
PRA000096	SAA006049	ST015				W_29xyz01_20180625	Water	"River water"	2018	6	25					Asia	Japan	"Shibu-bashi bridge, Asuka Riv., Nara"	34.49631		135.801514																																										"End of rice-planitng; Applying butachlor"	2019/9/2	2019/9/2
PRA000096	SAA006050	ST015				W_29xyz01_20180702	Water	"River water"	2018	7	2					Asia	Japan	"Shibu-bashi bridge, Asuka Riv., Nara"	34.49631		135.801514																																										"Applying butachlor"	2019/9/2	2019/9/2
PRA000096	SAA006051	ST015				W_29xyz01_20180709	Water	"River water"	2018	7	9					Asia	Japan	"Shibu-bashi bridge, Asuka Riv., Nara"	34.49631		135.801514																																										"End of Applying butachlor"	2019/9/2	2019/9/2
PRA000096	SAA006052	ST015				W_29xyz01_20180712	Water	"River water"	2018	7	12					Asia	Japan	"Shibu-bashi bridge, Asuka Riv., Nara"	34.49631		135.801514																																										"Applying Fenobucarb"	2019/9/2	2019/9/2
PRA000096	SAA006053	ST015				W_29xyz01_20180717	Water	"River water"	2018	7	17					Asia	Japan	"Shibu-bashi bridge, Asuka Riv., Nara"	34.49631		135.801514																																										"Applying Fenobucarb; Applying Silafluofen for soybeans"	2019/9/2	2019/9/2
PRA000096	SAA006054	ST015				W_29xyz01_20180720	Water	"River water"	2018	7	20					Asia	Japan	"Shibu-bashi bridge, Asuka Riv., Nara"	34.49631		135.801514																																										"Applying Fenobucarb; Applying Silafluofen for soybeans"	2019/9/2	2019/9/2
PRA000096	SAA006055	ST015				W_29xyz01_20180723	Water	"River water"	2018	7	23					Asia	Japan	"Shibu-bashi bridge, Asuka Riv., Nara"	34.49631		135.801514																																										"Midsummer drainage; Applying Fenobucarb; Applying Silafluofen for soybeans"	2019/9/2	2019/9/2
PRA000096	SAA006056	ST015				W_29xyz01_20180726	Water	"River water"	2018	7	26					Asia	Japan	"Shibu-bashi bridge, Asuka Riv., Nara"	34.49631		135.801514																																										"Midsummer drainage; Applying Fenobucarb; Applying Silafluofen for soybeans"	2019/9/2	2019/9/2
PRA000096	SAA006057	ST015				W_29xyz01_20180730	Water	"River water"	2018	7	30					Asia	Japan	"Shibu-bashi bridge, Asuka Riv., Nara"	34.49631		135.801514																																										"Applying Fenobucarb; Applying Silafluofen for soybeans"	2019/9/2	2019/9/2
PRA000096	SAA006058	ST015				W_29xyz01_20180802	Water	"River water"	2018	8	2					Asia	Japan	"Shibu-bashi bridge, Asuka Riv., Nara"	34.49631		135.801514																																										"Applying Fenobucarb; End of Applying Silafluofen for soybeans"	2019/9/2	2019/9/2
PRA000096	SAA006059	ST015				W_29xyz01_20180806	Water	"River water"	2018	8	6					Asia	Japan	"Shibu-bashi bridge, Asuka Riv., Nara"	34.49631		135.801514																																										"Applying Fenobucarb"	2019/9/2	2019/9/2
PRA000096	SAA006060	ST015				W_29xyz01_20180813	Water	"River water"	2018	8	13					Asia	Japan	"Shibu-bashi bridge, Asuka Riv., Nara"	34.49631		135.801514																																										"Applying Fenobucarb; Start of applying Silafluofen"	2019/9/2	2019/9/2
PRA000096	SAA006061	ST015				W_29xyz01_20180820	Water	"River water"	2018	8	20					Asia	Japan	"Shibu-bashi bridge, Asuka Riv., Nara"	34.49631		135.801514																																										"Heading; Applying Fenobucarb; Applying Silafluofen"	2019/9/2	2019/9/2
PRA000096	SAA006062	ST015				W_29xyz01_20180827	Water	"River water"	2018	8	27					Asia	Japan	"Shibu-bashi bridge, Asuka Riv., Nara"	34.49631		135.801514																																										"Heading; Applying Fenobucarb; Applying Silafluofen"	2019/9/2	2019/9/2
PRA000096	SAA006063	ST015				W_29xyz01_20180903	Water	"River water"	2018	9	3					Asia	Japan	"Shibu-bashi bridge, Asuka Riv., Nara"	34.49631		135.801514																																										"Applying Fenobucarb; Applying Silafluofen"	2019/9/2	2019/9/2
PRA000096	SAA006064	ST015				W_29xyz01_20180910	Water	"River water"	2018	9	10					Asia	Japan	"Shibu-bashi bridge, Asuka Riv., Nara"	34.49631		135.801514																																										"Applying Fenobucarb; Applying Silafluofen"	2019/9/2	2019/9/2
PRA000096	SAA006065	ST015				W_29xyz01_20180918	Water	"River water"	2018	9	18					Asia	Japan	"Shibu-bashi bridge, Asuka Riv., Nara"	34.49631		135.801514																																										"End of Applying butachlor; End of Applying Silafluofen"	2019/9/2	2019/9/2
PRA000096	SAA006066	ST015				W_29xyz01_20180925	Water	"River water"	2018	9	25					Asia	Japan	"Shibu-bashi bridge, Asuka Riv., Nara"	34.49631		135.801514																																											2019/9/2	2019/9/2
PRA000096	SAA006067	ST015				W_29xyz01_20181001	Water	"River water"	2018	10	1					Asia	Japan	"Shibu-bashi bridge, Asuka Riv., Nara"	34.49631		135.801514																																											2019/9/2	2019/9/2
PRA000096	SAA006068	ST015		ZETTAICODE_FY2018_W	2910810	W_2910810_20180507	Water	"River water"	2018	5	7					Asia	Japan	"Sogagawa-bashi bridge, Soga Riv., Nara"	34.50666667		135.7747222																																											2019/9/2	2019/9/2
PRA000096	SAA006069	ST015		ZETTAICODE_FY2018_W	2910810	W_2910810_20180514	Water	"River water"	2018	5	14					Asia	Japan	"Sogagawa-bashi bridge, Soga Riv., Nara"	34.50666667		135.7747222																																											2019/9/2	2019/9/2
PRA000096	SAA006070	ST015		ZETTAICODE_FY2018_W	2910810	W_2910810_20180521	Water	"River water"	2018	5	21					Asia	Japan	"Sogagawa-bashi bridge, Soga Riv., Nara"	34.50666667		135.7747222																																										"Started preparing rice fields for planting by flooding them and tilling the soil"	2019/9/2	2019/9/2
PRA000096	SAA006071	ST015		ZETTAICODE_FY2018_W	2910810	W_2910810_20180528	Water	"River water"	2018	5	28					Asia	Japan	"Sogagawa-bashi bridge, Soga Riv., Nara"	34.50666667		135.7747222																																										"Start of rice-planting season; Applying butachlor"	2019/9/2	2019/9/2
PRA000096	SAA006072	ST015		ZETTAICODE_FY2018_W	2910810	W_2910810_20180604	Water	"River water"	2018	6	4					Asia	Japan	"Sogagawa-bashi bridge, Soga Riv., Nara"	34.50666667		135.7747222																																										"Applying butachlor"	2019/9/2	2019/9/2
PRA000096	SAA006073	ST015		ZETTAICODE_FY2018_W	2910810	W_2910810_20180607	Water	"River water"	2018	6	7					Asia	Japan	"Sogagawa-bashi bridge, Soga Riv., Nara"	34.50666667		135.7747222																																										"Rice-planting (10% done); Applying butachlor"	2019/9/2	2019/9/2
PRA000096	SAA006074	ST015		ZETTAICODE_FY2018_W	2910810	W_2910810_20180611	Water	"River water"	2018	6	11					Asia	Japan	"Sogagawa-bashi bridge, Soga Riv., Nara"	34.50666667		135.7747222																																										"Rice-planting (70% done); Applying butachlor"	2019/9/2	2019/9/2
PRA000096	SAA006075	ST015		ZETTAICODE_FY2018_W	2910810	W_2910810_20180614	Water	"River water"	2018	6	14					Asia	Japan	"Sogagawa-bashi bridge, Soga Riv., Nara"	34.50666667		135.7747222																																										"Rice-planting (80% done); Applying butachlor"	2019/9/2	2019/9/2
PRA000096	SAA006076	ST015		ZETTAICODE_FY2018_W	2910810	W_2910810_20180618	Water	"River water"	2018	6	18					Asia	Japan	"Sogagawa-bashi bridge, Soga Riv., Nara"	34.50666667		135.7747222																																										"Rice-planting (90% done); Applying butachlor"	2019/9/2	2019/9/2
PRA000096	SAA006077	ST015		ZETTAICODE_FY2018_W	2910810	W_2910810_20180621	Water	"River water"	2018	6	21					Asia	Japan	"Sogagawa-bashi bridge, Soga Riv., Nara"	34.50666667		135.7747222																																										"Applying butachlor"	2019/9/2	2019/9/2
PRA000096	SAA006078	ST015		ZETTAICODE_FY2018_W	2910810	W_2910810_20180625	Water	"River water"	2018	6	25					Asia	Japan	"Sogagawa-bashi bridge, Soga Riv., Nara"	34.50666667		135.7747222																																										"End of rice-planitng; Applying butachlor"	2019/9/2	2019/9/2
PRA000096	SAA006079	ST015		ZETTAICODE_FY2018_W	2910810	W_2910810_20180702	Water	"River water"	2018	7	2					Asia	Japan	"Sogagawa-bashi bridge, Soga Riv., Nara"	34.50666667		135.7747222																																										"Applying butachlor"	2019/9/2	2019/9/2
PRA000096	SAA006080	ST015		ZETTAICODE_FY2018_W	2910810	W_2910810_20180709	Water	"River water"	2018	7	9					Asia	Japan	"Sogagawa-bashi bridge, Soga Riv., Nara"	34.50666667		135.7747222																																										"End of Applying butachlor"	2019/9/2	2019/9/2
PRA000096	SAA006081	ST015		ZETTAICODE_FY2018_W	2910810	W_2910810_20180712	Water	"River water"	2018	7	12					Asia	Japan	"Sogagawa-bashi bridge, Soga Riv., Nara"	34.50666667		135.7747222																																										"Applying Fenobucarb"	2019/9/2	2019/9/2
PRA000096	SAA006082	ST015		ZETTAICODE_FY2018_W	2910810	W_2910810_20180717	Water	"River water"	2018	7	17					Asia	Japan	"Sogagawa-bashi bridge, Soga Riv., Nara"	34.50666667		135.7747222																																										"Applying Fenobucarb; Applying Silafluofen for soybeans"	2019/9/2	2019/9/2
PRA000096	SAA006083	ST015		ZETTAICODE_FY2018_W	2910810	W_2910810_20180720	Water	"River water"	2018	7	20					Asia	Japan	"Sogagawa-bashi bridge, Soga Riv., Nara"	34.50666667		135.7747222																																										"Applying Fenobucarb; Applying Silafluofen for soybeans"	2019/9/2	2019/9/2
PRA000096	SAA006084	ST015		ZETTAICODE_FY2018_W	2910810	W_2910810_20180723	Water	"River water"	2018	7	23					Asia	Japan	"Sogagawa-bashi bridge, Soga Riv., Nara"	34.50666667		135.7747222																																										"Midsummer drainage; Applying Fenobucarb; Applying Silafluofen for soybeans"	2019/9/2	2019/9/2
PRA000096	SAA006085	ST015		ZETTAICODE_FY2018_W	2910810	W_2910810_20180726	Water	"River water"	2018	7	26					Asia	Japan	"Sogagawa-bashi bridge, Soga Riv., Nara"	34.50666667		135.7747222																																										"Midsummer drainage; Applying Fenobucarb; Applying Silafluofen for soybeans"	2019/9/2	2019/9/2
PRA000096	SAA006086	ST015		ZETTAICODE_FY2018_W	2910810	W_2910810_20180730	Water	"River water"	2018	7	30					Asia	Japan	"Sogagawa-bashi bridge, Soga Riv., Nara"	34.50666667		135.7747222																																										"Applying Fenobucarb; Applying Silafluofen for soybeans"	2019/9/2	2019/9/2
PRA000096	SAA006087	ST015		ZETTAICODE_FY2018_W	2910810	W_2910810_20180802	Water	"River water"	2018	8	2					Asia	Japan	"Sogagawa-bashi bridge, Soga Riv., Nara"	34.50666667		135.7747222																																										"Applying Fenobucarb; End of Applying Silafluofen for soybeans"	2019/9/2	2019/9/2
PRA000096	SAA006088	ST015		ZETTAICODE_FY2018_W	2910810	W_2910810_20180806	Water	"River water"	2018	8	6					Asia	Japan	"Sogagawa-bashi bridge, Soga Riv., Nara"	34.50666667		135.7747222																																										"Applying Fenobucarb"	2019/9/2	2019/9/2
PRA000096	SAA006089	ST015		ZETTAICODE_FY2018_W	2910810	W_2910810_20180813	Water	"River water"	2018	8	13					Asia	Japan	"Sogagawa-bashi bridge, Soga Riv., Nara"	34.50666667		135.7747222																																										"Applying Fenobucarb; Start of applying Silafluofen"	2019/9/2	2019/9/2
PRA000096	SAA006090	ST015		ZETTAICODE_FY2018_W	2910810	W_2910810_20180820	Water	"River water"	2018	8	20					Asia	Japan	"Sogagawa-bashi bridge, Soga Riv., Nara"	34.50666667		135.7747222																																										"Heading; Applying Fenobucarb; Applying Silafluofen"	2019/9/2	2019/9/2
PRA000096	SAA006091	ST015		ZETTAICODE_FY2018_W	2910810	W_2910810_20180827	Water	"River water"	2018	8	27					Asia	Japan	"Sogagawa-bashi bridge, Soga Riv., Nara"	34.50666667		135.7747222																																										"Heading; Applying Fenobucarb; Applying Silafluofen"	2019/9/2	2019/9/2
PRA000096	SAA006092	ST015		ZETTAICODE_FY2018_W	2910810	W_2910810_20180903	Water	"River water"	2018	9	3					Asia	Japan	"Sogagawa-bashi bridge, Soga Riv., Nara"	34.50666667		135.7747222																																										"Applying Fenobucarb; Applying Silafluofen"	2019/9/2	2019/9/2
PRA000096	SAA006093	ST015		ZETTAICODE_FY2018_W	2910810	W_2910810_20180910	Water	"River water"	2018	9	10					Asia	Japan	"Sogagawa-bashi bridge, Soga Riv., Nara"	34.50666667		135.7747222																																										"Applying Fenobucarb; Applying Silafluofen"	2019/9/2	2019/9/2
PRA000096	SAA006094	ST015		ZETTAICODE_FY2018_W	2910810	W_2910810_20180918	Water	"River water"	2018	9	18					Asia	Japan	"Sogagawa-bashi bridge, Soga Riv., Nara"	34.50666667		135.7747222																																										"End of Applying butachlor; End of Applying Silafluofen"	2019/9/2	2019/9/2
PRA000096	SAA006095	ST015		ZETTAICODE_FY2018_W	2910810	W_2910810_20180925	Water	"River water"	2018	9	25					Asia	Japan	"Sogagawa-bashi bridge, Soga Riv., Nara"	34.50666667		135.7747222																																											2019/9/2	2019/9/2
PRA000096	SAA006096	ST015		ZETTAICODE_FY2018_W	2910810	W_2910810_20181001	Water	"River water"	2018	10	1					Asia	Japan	"Sogagawa-bashi bridge, Soga Riv., Nara"	34.50666667		135.7747222																																											2019/9/2	2019/9/2
PRA000096	SAA006097	ST015		ZETTAICODE_FY2018_W	2910720	W_2910720_20180507	Water	"River water"	2018	5	7					Asia	Japan	"Konin-bashi bridge, Tera-kawa Riv., Nara"	34.53166667		135.7961111																																											2019/9/2	2019/9/2
PRA000096	SAA006098	ST015		ZETTAICODE_FY2018_W	2910720	W_2910720_20180514	Water	"River water"	2018	5	14					Asia	Japan	"Konin-bashi bridge, Tera-kawa Riv., Nara"	34.53166667		135.7961111																																											2019/9/2	2019/9/2
PRA000096	SAA006099	ST015		ZETTAICODE_FY2018_W	2910720	W_2910720_20180521	Water	"River water"	2018	5	21					Asia	Japan	"Konin-bashi bridge, Tera-kawa Riv., Nara"	34.53166667		135.7961111																																										"Started preparing rice fields for planting by flooding them and tilling the soil"	2019/9/2	2019/9/2
PRA000096	SAA006100	ST015		ZETTAICODE_FY2018_W	2910720	W_2910720_20180528	Water	"River water"	2018	5	28					Asia	Japan	"Konin-bashi bridge, Tera-kawa Riv., Nara"	34.53166667		135.7961111																																										"Start of rice-planting season; Applying butachlor"	2019/9/2	2019/9/2
PRA000096	SAA006101	ST015		ZETTAICODE_FY2018_W	2910720	W_2910720_20180604	Water	"River water"	2018	6	4					Asia	Japan	"Konin-bashi bridge, Tera-kawa Riv., Nara"	34.53166667		135.7961111																																										"Applying butachlor"	2019/9/2	2019/9/2
PRA000096	SAA006102	ST015		ZETTAICODE_FY2018_W	2910720	W_2910720_20180607	Water	"River water"	2018	6	7					Asia	Japan	"Konin-bashi bridge, Tera-kawa Riv., Nara"	34.53166667		135.7961111																																										"Rice-planting (10% done); Applying butachlor"	2019/9/2	2019/9/2
PRA000096	SAA006103	ST015		ZETTAICODE_FY2018_W	2910720	W_2910720_20180611	Water	"River water"	2018	6	11					Asia	Japan	"Konin-bashi bridge, Tera-kawa Riv., Nara"	34.53166667		135.7961111																																										"Rice-planting (70% done); Applying butachlor"	2019/9/2	2019/9/2
PRA000096	SAA006104	ST015		ZETTAICODE_FY2018_W	2910720	W_2910720_20180614	Water	"River water"	2018	6	14					Asia	Japan	"Konin-bashi bridge, Tera-kawa Riv., Nara"	34.53166667		135.7961111																																										"Rice-planting (80% done); Applying butachlor"	2019/9/2	2019/9/2
PRA000096	SAA006105	ST015		ZETTAICODE_FY2018_W	2910720	W_2910720_20180618	Water	"River water"	2018	6	18					Asia	Japan	"Konin-bashi bridge, Tera-kawa Riv., Nara"	34.53166667		135.7961111																																										"Rice-planting (90% done); Applying butachlor"	2019/9/2	2019/9/2
PRA000096	SAA006106	ST015		ZETTAICODE_FY2018_W	2910720	W_2910720_20180621	Water	"River water"	2018	6	21					Asia	Japan	"Konin-bashi bridge, Tera-kawa Riv., Nara"	34.53166667		135.7961111																																										"Applying butachlor"	2019/9/2	2019/9/2
PRA000096	SAA006107	ST015		ZETTAICODE_FY2018_W	2910720	W_2910720_20180625	Water	"River water"	2018	6	25					Asia	Japan	"Konin-bashi bridge, Tera-kawa Riv., Nara"	34.53166667		135.7961111																																										"End of rice-planitng; Applying butachlor"	2019/9/2	2019/9/2
PRA000096	SAA006108	ST015		ZETTAICODE_FY2018_W	2910720	W_2910720_20180702	Water	"River water"	2018	7	2					Asia	Japan	"Konin-bashi bridge, Tera-kawa Riv., Nara"	34.53166667		135.7961111																																										"Applying butachlor"	2019/9/2	2019/9/2
PRA000096	SAA006109	ST015		ZETTAICODE_FY2018_W	2910720	W_2910720_20180709	Water	"River water"	2018	7	9					Asia	Japan	"Konin-bashi bridge, Tera-kawa Riv., Nara"	34.53166667		135.7961111																																										"End of Applying butachlor"	2019/9/2	2019/9/2
PRA000096	SAA006110	ST015		ZETTAICODE_FY2018_W	2910720	W_2910720_20180712	Water	"River water"	2018	7	12					Asia	Japan	"Konin-bashi bridge, Tera-kawa Riv., Nara"	34.53166667		135.7961111																																										"Applying Fenobucarb"	2019/9/2	2019/9/2
PRA000096	SAA006111	ST015		ZETTAICODE_FY2018_W	2910720	W_2910720_20180717	Water	"River water"	2018	7	17					Asia	Japan	"Konin-bashi bridge, Tera-kawa Riv., Nara"	34.53166667		135.7961111																																										"Applying Fenobucarb; Applying Silafluofen for soybeans"	2019/9/2	2019/9/2
PRA000096	SAA006112	ST015		ZETTAICODE_FY2018_W	2910720	W_2910720_20180720	Water	"River water"	2018	7	20					Asia	Japan	"Konin-bashi bridge, Tera-kawa Riv., Nara"	34.53166667		135.7961111																																										"Applying Fenobucarb; Applying Silafluofen for soybeans"	2019/9/2	2019/9/2
PRA000096	SAA006113	ST015		ZETTAICODE_FY2018_W	2910720	W_2910720_20180723	Water	"River water"	2018	7	23					Asia	Japan	"Konin-bashi bridge, Tera-kawa Riv., Nara"	34.53166667		135.7961111																																										"Midsummer drainage; Applying Fenobucarb; Applying Silafluofen for soybeans"	2019/9/2	2019/9/2
PRA000096	SAA006114	ST015		ZETTAICODE_FY2018_W	2910720	W_2910720_20180726	Water	"River water"	2018	7	26					Asia	Japan	"Konin-bashi bridge, Tera-kawa Riv., Nara"	34.53166667		135.7961111																																										"Midsummer drainage; Applying Fenobucarb; Applying Silafluofen for soybeans"	2019/9/2	2019/9/2
PRA000096	SAA006115	ST015		ZETTAICODE_FY2018_W	2910720	W_2910720_20180730	Water	"River water"	2018	7	30					Asia	Japan	"Konin-bashi bridge, Tera-kawa Riv., Nara"	34.53166667		135.7961111																																										"Applying Fenobucarb; Applying Silafluofen for soybeans"	2019/9/2	2019/9/2
PRA000096	SAA006116	ST015		ZETTAICODE_FY2018_W	2910720	W_2910720_20180802	Water	"River water"	2018	8	2					Asia	Japan	"Konin-bashi bridge, Tera-kawa Riv., Nara"	34.53166667		135.7961111																																										"Applying Fenobucarb; End of Applying Silafluofen for soybeans"	2019/9/2	2019/9/2
PRA000096	SAA006117	ST015		ZETTAICODE_FY2018_W	2910720	W_2910720_20180806	Water	"River water"	2018	8	6					Asia	Japan	"Konin-bashi bridge, Tera-kawa Riv., Nara"	34.53166667		135.7961111																																										"Applying Fenobucarb"	2019/9/2	2019/9/2
PRA000096	SAA006118	ST015		ZETTAICODE_FY2018_W	2910720	W_2910720_20180813	Water	"River water"	2018	8	13					Asia	Japan	"Konin-bashi bridge, Tera-kawa Riv., Nara"	34.53166667		135.7961111																																										"Applying Fenobucarb; Start of applying Silafluofen"	2019/9/2	2019/9/2
PRA000096	SAA006119	ST015		ZETTAICODE_FY2018_W	2910720	W_2910720_20180820	Water	"River water"	2018	8	20					Asia	Japan	"Konin-bashi bridge, Tera-kawa Riv., Nara"	34.53166667		135.7961111																																										"Heading; Applying Fenobucarb; Applying Silafluofen"	2019/9/2	2019/9/2
PRA000096	SAA006120	ST015		ZETTAICODE_FY2018_W	2910720	W_2910720_20180827	Water	"River water"	2018	8	27					Asia	Japan	"Konin-bashi bridge, Tera-kawa Riv., Nara"	34.53166667		135.7961111																																										"Heading; Applying Fenobucarb; Applying Silafluofen"	2019/9/2	2019/9/2
PRA000096	SAA006121	ST015		ZETTAICODE_FY2018_W	2910720	W_2910720_20180903	Water	"River water"	2018	9	3					Asia	Japan	"Konin-bashi bridge, Tera-kawa Riv., Nara"	34.53166667		135.7961111																																										"Applying Fenobucarb; Applying Silafluofen"	2019/9/2	2019/9/2
PRA000096	SAA006122	ST015		ZETTAICODE_FY2018_W	2910720	W_2910720_20180910	Water	"River water"	2018	9	10					Asia	Japan	"Konin-bashi bridge, Tera-kawa Riv., Nara"	34.53166667		135.7961111																																										"Applying Fenobucarb; Applying Silafluofen"	2019/9/2	2019/9/2
PRA000096	SAA006123	ST015		ZETTAICODE_FY2018_W	2910720	W_2910720_20180918	Water	"River water"	2018	9	18					Asia	Japan	"Konin-bashi bridge, Tera-kawa Riv., Nara"	34.53166667		135.7961111																																										"End of Applying butachlor; End of Applying Silafluofen"	2019/9/2	2019/9/2
PRA000096	SAA006124	ST015		ZETTAICODE_FY2018_W	2910720	W_2910720_20180925	Water	"River water"	2018	9	25					Asia	Japan	"Konin-bashi bridge, Tera-kawa Riv., Nara"	34.53166667		135.7961111																																											2019/9/2	2019/9/2
PRA000096	SAA006125	ST015		ZETTAICODE_FY2018_W	2910720	W_2910720_20181001	Water	"River water"	2018	10	1					Asia	Japan	"Konin-bashi bridge, Tera-kawa Riv., Nara"	34.53166667		135.7961111																																											2019/9/2	2019/9/2
PRA000096	SAA006126	ST015		ZETTAICODE_FY2018_W	2710440	W_2710440_20180507	Water	"River water"	2018	5	7					Asia	Japan	"Ishikawa-bashi bridge, Ishi-kawa Riv., Osaka"	34.57		135.6219445																																											2019/9/2	2019/9/2
PRA000096	SAA006127	ST015		ZETTAICODE_FY2018_W	2710440	W_2710440_20180514	Water	"River water"	2018	5	14					Asia	Japan	"Ishikawa-bashi bridge, Ishi-kawa Riv., Osaka"	34.57		135.6219445																																											2019/9/2	2019/9/2
PRA000096	SAA006128	ST015		ZETTAICODE_FY2018_W	2710440	W_2710440_20180521	Water	"River water"	2018	5	21					Asia	Japan	"Ishikawa-bashi bridge, Ishi-kawa Riv., Osaka"	34.57		135.6219445																																											2019/9/2	2019/9/2
PRA000096	SAA006129	ST015		ZETTAICODE_FY2018_W	2710440	W_2710440_20180523	Water	"River water"	2018	5	23					Asia	Japan	"Ishikawa-bashi bridge, Ishi-kawa Riv., Osaka"	34.57		135.6219445																																										"Start of rice-planting season"	2019/9/2	2019/9/2
PRA000096	SAA006130	ST015		ZETTAICODE_FY2018_W	2710440	W_2710440_20180528	Water	"River water"	2018	5	28					Asia	Japan	"Ishikawa-bashi bridge, Ishi-kawa Riv., Osaka"	34.57		135.6219445																																										"Rice-planting season"	2019/9/2	2019/9/2
PRA000096	SAA006131	ST015		ZETTAICODE_FY2018_W	2710440	W_2710440_20180530	Water	"River water"	2018	5	30					Asia	Japan	"Ishikawa-bashi bridge, Ishi-kawa Riv., Osaka"	34.57		135.6219445																																										"Rice-planting season"	2019/9/2	2019/9/2
PRA000096	SAA006132	ST015		ZETTAICODE_FY2018_W	2710440	W_2710440_20180601	Water	"River water"	2018	6	1					Asia	Japan	"Ishikawa-bashi bridge, Ishi-kawa Riv., Osaka"	34.57		135.6219445																																										"Rice-planting season"	2019/9/2	2019/9/2
PRA000096	SAA006133	ST015		ZETTAICODE_FY2018_W	2710440	W_2710440_20180604	Water	"River water"	2018	6	4					Asia	Japan	"Ishikawa-bashi bridge, Ishi-kawa Riv., Osaka"	34.57		135.6219445																																										"Rice-planting season"	2019/9/2	2019/9/2
PRA000096	SAA006134	ST015		ZETTAICODE_FY2018_W	2710440	W_2710440_20180606	Water	"River water"	2018	6	6					Asia	Japan	"Ishikawa-bashi bridge, Ishi-kawa Riv., Osaka"	34.57		135.6219445																																										"Rice-planting season"	2019/9/2	2019/9/2
PRA000096	SAA006135	ST015		ZETTAICODE_FY2018_W	2710440	W_2710440_20180608	Water	"River water"	2018	6	8					Asia	Japan	"Ishikawa-bashi bridge, Ishi-kawa Riv., Osaka"	34.57		135.6219445																																										"Rice-planting season (Highest)"	2019/9/2	2019/9/2
PRA000096	SAA006136	ST015		ZETTAICODE_FY2018_W	2710440	W_2710440_20180611	Water	"River water"	2018	6	11					Asia	Japan	"Ishikawa-bashi bridge, Ishi-kawa Riv., Osaka"	34.57		135.6219445																																										"Rice-planting season"	2019/9/2	2019/9/2
PRA000096	SAA006137	ST015		ZETTAICODE_FY2018_W	2710440	W_2710440_20180613	Water	"River water"	2018	6	13					Asia	Japan	"Ishikawa-bashi bridge, Ishi-kawa Riv., Osaka"	34.57		135.6219445																																										"Rice-planting season"	2019/9/2	2019/9/2
PRA000096	SAA006138	ST015		ZETTAICODE_FY2018_W	2710440	W_2710440_20180615	Water	"River water"	2018	6	15					Asia	Japan	"Ishikawa-bashi bridge, Ishi-kawa Riv., Osaka"	34.57		135.6219445																																										"Rice-planting season"	2019/9/2	2019/9/2
PRA000096	SAA006139	ST015		ZETTAICODE_FY2018_W	2710440	W_2710440_20180619	Water	"River water"	2018	6	19					Asia	Japan	"Ishikawa-bashi bridge, Ishi-kawa Riv., Osaka"	34.57		135.6219445																																										"Rice-planting season"	2019/9/2	2019/9/2
PRA000096	SAA006140	ST015		ZETTAICODE_FY2018_W	2710440	W_2710440_20180620	Water	"River water"	2018	6	20					Asia	Japan	"Ishikawa-bashi bridge, Ishi-kawa Riv., Osaka"	34.57		135.6219445																																										"Rice-planting season"	2019/9/2	2019/9/2
PRA000096	SAA006141	ST015		ZETTAICODE_FY2018_W	2710440	W_2710440_20180622	Water	"River water"	2018	6	22					Asia	Japan	"Ishikawa-bashi bridge, Ishi-kawa Riv., Osaka"	34.57		135.6219445																																										"End of rice-planting"	2019/9/2	2019/9/2
PRA000096	SAA006142	ST015		ZETTAICODE_FY2018_W	2710440	W_2710440_20180625	Water	"River water"	2018	6	25					Asia	Japan	"Ishikawa-bashi bridge, Ishi-kawa Riv., Osaka"	34.57		135.6219445																																											2019/9/2	2019/9/2
PRA000096	SAA006143	ST015		ZETTAICODE_FY2018_W	2710440	W_2710440_20180627	Water	"River water"	2018	6	27					Asia	Japan	"Ishikawa-bashi bridge, Ishi-kawa Riv., Osaka"	34.57		135.6219445																																											2019/9/2	2019/9/2
PRA000096	SAA006144	ST015		ZETTAICODE_FY2018_W	2710440	W_2710440_20180702	Water	"River water"	2018	7	2					Asia	Japan	"Ishikawa-bashi bridge, Ishi-kawa Riv., Osaka"	34.57		135.6219445																																											2019/9/2	2019/9/2
PRA000096	SAA006145	ST015		ZETTAICODE_FY2018_W	2710440	W_2710440_20180709	Water	"River water"	2018	7	9					Asia	Japan	"Ishikawa-bashi bridge, Ishi-kawa Riv., Osaka"	34.57		135.6219445																																											2019/9/2	2019/9/2
PRA000096	SAA006146	ST015		ZETTAICODE_FY2018_W	2710440	W_2710440_20180713	Water	"River water"	2018	7	13					Asia	Japan	"Ishikawa-bashi bridge, Ishi-kawa Riv., Osaka"	34.57		135.6219445																																											2019/9/2	2019/9/2
PRA000096	SAA006147	ST015		ZETTAICODE_FY2018_W	2710440	W_2710440_20180717	Water	"River water"	2018	7	17					Asia	Japan	"Ishikawa-bashi bridge, Ishi-kawa Riv., Osaka"	34.57		135.6219445																																											2019/9/2	2019/9/2
PRA000096	SAA006148	ST015		ZETTAICODE_FY2018_W	2710440	W_2710440_20180720	Water	"River water"	2018	7	20					Asia	Japan	"Ishikawa-bashi bridge, Ishi-kawa Riv., Osaka"	34.57		135.6219445																																											2019/9/2	2019/9/2
PRA000096	SAA006149	ST015		ZETTAICODE_FY2018_W	2710440	W_2710440_20180723	Water	"River water"	2018	7	23					Asia	Japan	"Ishikawa-bashi bridge, Ishi-kawa Riv., Osaka"	34.57		135.6219445																																											2019/9/2	2019/9/2
PRA000096	SAA006150	ST015		ZETTAICODE_FY2018_W	2710440	W_2710440_20180727	Water	"River water"	2018	7	27					Asia	Japan	"Ishikawa-bashi bridge, Ishi-kawa Riv., Osaka"	34.57		135.6219445																																											2019/9/2	2019/9/2
PRA000096	SAA006151	ST015		ZETTAICODE_FY2018_W	2710440	W_2710440_20180730	Water	"River water"	2018	7	30					Asia	Japan	"Ishikawa-bashi bridge, Ishi-kawa Riv., Osaka"	34.57		135.6219445																																											2019/9/2	2019/9/2
PRA000096	SAA006152	ST015		ZETTAICODE_FY2018_W	2710440	W_2710440_20180806	Water	"River water"	2018	8	6					Asia	Japan	"Ishikawa-bashi bridge, Ishi-kawa Riv., Osaka"	34.57		135.6219445																																											2019/9/2	2019/9/2
PRA000096	SAA006153	ST015		ZETTAICODE_FY2018_W	2710440	W_2710440_20180813	Water	"River water"	2018	8	13					Asia	Japan	"Ishikawa-bashi bridge, Ishi-kawa Riv., Osaka"	34.57		135.6219445																																										"Start of Heading"	2019/9/2	2019/9/2
PRA000096	SAA006154	ST015		ZETTAICODE_FY2018_W	2710440	W_2710440_20180820	Water	"River water"	2018	8	20					Asia	Japan	"Ishikawa-bashi bridge, Ishi-kawa Riv., Osaka"	34.57		135.6219445																																										Heading	2019/9/2	2019/9/2
PRA000096	SAA006155	ST015		ZETTAICODE_FY2018_W	2710440	W_2710440_20180824	Water	"River water"	2018	8	24					Asia	Japan	"Ishikawa-bashi bridge, Ishi-kawa Riv., Osaka"	34.57		135.6219445																																										Heading	2019/9/2	2019/9/2
PRA000096	SAA006156	ST015		ZETTAICODE_FY2018_W	2710440	W_2710440_20180827	Water	"River water"	2018	8	27					Asia	Japan	"Ishikawa-bashi bridge, Ishi-kawa Riv., Osaka"	34.57		135.6219445																																										Heading	2019/9/2	2019/9/2
PRA000096	SAA006157	ST015		ZETTAICODE_FY2018_W	2710440	W_2710440_20180831	Water	"River water"	2018	8	31					Asia	Japan	"Ishikawa-bashi bridge, Ishi-kawa Riv., Osaka"	34.57		135.6219445																																										"End of Heading"	2019/9/2	2019/9/2
PRA000096	SAA006158	ST015		ZETTAICODE_FY2018_W	2710440	W_2710440_20180903	Water	"River water"	2018	9	3					Asia	Japan	"Ishikawa-bashi bridge, Ishi-kawa Riv., Osaka"	34.57		135.6219445																																											2019/9/2	2019/9/2
PRA000096	SAA006159	ST015		ZETTAICODE_FY2018_W	2710440	W_2710440_20180907	Water	"River water"	2018	9	7					Asia	Japan	"Ishikawa-bashi bridge, Ishi-kawa Riv., Osaka"	34.57		135.6219445																																											2019/9/2	2019/9/2
PRA000096	SAA006160	ST015		ZETTAICODE_FY2018_W	2710440	W_2710440_20180910	Water	"River water"	2018	9	10					Asia	Japan	"Ishikawa-bashi bridge, Ishi-kawa Riv., Osaka"	34.57		135.6219445																																											2019/9/2	2019/9/2
PRA000096	SAA006161	ST015		ZETTAICODE_FY2018_W	2710440	W_2710440_20180918	Water	"River water"	2018	9	18					Asia	Japan	"Ishikawa-bashi bridge, Ishi-kawa Riv., Osaka"	34.57		135.6219445																																											2019/9/2	2019/9/2
PRA000096	SAA006162	ST015		ZETTAICODE_FY2018_W	2710440	W_2710440_20180925	Water	"River water"	2018	9	25					Asia	Japan	"Ishikawa-bashi bridge, Ishi-kawa Riv., Osaka"	34.57		135.6219445																																											2019/9/2	2019/9/2
PRA000096	SAA006163	ST015		ZETTAICODE_FY2018_W	2710440	W_2710440_20181015	Water	"River water"	2018	10	15					Asia	Japan	"Ishikawa-bashi bridge, Ishi-kawa Riv., Osaka"	34.57		135.6219445																																											2019/9/2	2019/9/2
PRA000096	SAA006164	ST015		ZETTAICODE_FY2018_W	2710440	W_2710440_20181029	Water	"River water"	2018	10	29					Asia	Japan	"Ishikawa-bashi bridge, Ishi-kawa Riv., Osaka"	34.57		135.6219445																																											2019/9/2	2019/9/2
PRA000096	SAA006165	ST015		ZETTAICODE_FY2018_W	2712050	W_2712050_20180507	Water	"River water"	2018	5	7					Asia	Japan	"Enmyo-bashi bridge, Asuka Riv., Osaka"	34.55555556		135.6205556																																											2019/9/2	2019/9/2
PRA000096	SAA006166	ST015		ZETTAICODE_FY2018_W	2712050	W_2712050_20180514	Water	"River water"	2018	5	14					Asia	Japan	"Enmyo-bashi bridge, Asuka Riv., Osaka"	34.55555556		135.6205556																																											2019/9/2	2019/9/2
PRA000096	SAA006167	ST015		ZETTAICODE_FY2018_W	2712050	W_2712050_20180521	Water	"River water"	2018	5	21					Asia	Japan	"Enmyo-bashi bridge, Asuka Riv., Osaka"	34.55555556		135.6205556																																											2019/9/2	2019/9/2
PRA000096	SAA006168	ST015		ZETTAICODE_FY2018_W	2712050	W_2712050_20180523	Water	"River water"	2018	5	23					Asia	Japan	"Enmyo-bashi bridge, Asuka Riv., Osaka"	34.55555556		135.6205556																																										"Start of rice-planting season"	2019/9/2	2019/9/2
PRA000096	SAA006169	ST015		ZETTAICODE_FY2018_W	2712050	W_2712050_20180528	Water	"River water"	2018	5	28					Asia	Japan	"Enmyo-bashi bridge, Asuka Riv., Osaka"	34.55555556		135.6205556																																										"Rice-planting season"	2019/9/2	2019/9/2
PRA000096	SAA006170	ST015		ZETTAICODE_FY2018_W	2712050	W_2712050_20180530	Water	"River water"	2018	5	30					Asia	Japan	"Enmyo-bashi bridge, Asuka Riv., Osaka"	34.55555556		135.6205556																																										"Rice-planting season"	2019/9/2	2019/9/2
PRA000096	SAA006171	ST015		ZETTAICODE_FY2018_W	2712050	W_2712050_20180601	Water	"River water"	2018	6	1					Asia	Japan	"Enmyo-bashi bridge, Asuka Riv., Osaka"	34.55555556		135.6205556																																										"Rice-planting season"	2019/9/2	2019/9/2
PRA000096	SAA006172	ST015		ZETTAICODE_FY2018_W	2712050	W_2712050_20180604	Water	"River water"	2018	6	4					Asia	Japan	"Enmyo-bashi bridge, Asuka Riv., Osaka"	34.55555556		135.6205556																																										"Rice-planting season"	2019/9/2	2019/9/2
PRA000096	SAA006173	ST015		ZETTAICODE_FY2018_W	2712050	W_2712050_20180606	Water	"River water"	2018	6	6					Asia	Japan	"Enmyo-bashi bridge, Asuka Riv., Osaka"	34.55555556		135.6205556																																										"Rice-planting season"	2019/9/2	2019/9/2
PRA000096	SAA006174	ST015		ZETTAICODE_FY2018_W	2712050	W_2712050_20180608	Water	"River water"	2018	6	8					Asia	Japan	"Enmyo-bashi bridge, Asuka Riv., Osaka"	34.55555556		135.6205556																																										"Rice-planting season (Highest)"	2019/9/2	2019/9/2
PRA000096	SAA006175	ST015		ZETTAICODE_FY2018_W	2712050	W_2712050_20180611	Water	"River water"	2018	6	11					Asia	Japan	"Enmyo-bashi bridge, Asuka Riv., Osaka"	34.55555556		135.6205556																																										"Rice-planting season"	2019/9/2	2019/9/2
PRA000096	SAA006176	ST015		ZETTAICODE_FY2018_W	2712050	W_2712050_20180613	Water	"River water"	2018	6	13					Asia	Japan	"Enmyo-bashi bridge, Asuka Riv., Osaka"	34.55555556		135.6205556																																										"Rice-planting season"	2019/9/2	2019/9/2
PRA000096	SAA006177	ST015		ZETTAICODE_FY2018_W	2712050	W_2712050_20180615	Water	"River water"	2018	6	15					Asia	Japan	"Enmyo-bashi bridge, Asuka Riv., Osaka"	34.55555556		135.6205556																																										"Rice-planting season"	2019/9/2	2019/9/2
PRA000096	SAA006178	ST015		ZETTAICODE_FY2018_W	2712050	W_2712050_20180619	Water	"River water"	2018	6	19					Asia	Japan	"Enmyo-bashi bridge, Asuka Riv., Osaka"	34.55555556		135.6205556																																										"Rice-planting season"	2019/9/2	2019/9/2
PRA000096	SAA006179	ST015		ZETTAICODE_FY2018_W	2712050	W_2712050_20180620	Water	"River water"	2018	6	20					Asia	Japan	"Enmyo-bashi bridge, Asuka Riv., Osaka"	34.55555556		135.6205556																																										"Rice-planting season"	2019/9/2	2019/9/2
PRA000096	SAA006180	ST015		ZETTAICODE_FY2018_W	2712050	W_2712050_20180622	Water	"River water"	2018	6	22					Asia	Japan	"Enmyo-bashi bridge, Asuka Riv., Osaka"	34.55555556		135.6205556																																										"End of rice-planting"	2019/9/2	2019/9/2
PRA000096	SAA006181	ST015		ZETTAICODE_FY2018_W	2712050	W_2712050_20180625	Water	"River water"	2018	6	25					Asia	Japan	"Enmyo-bashi bridge, Asuka Riv., Osaka"	34.55555556		135.6205556																																											2019/9/2	2019/9/2
PRA000096	SAA006182	ST015		ZETTAICODE_FY2018_W	2712050	W_2712050_20180627	Water	"River water"	2018	6	27					Asia	Japan	"Enmyo-bashi bridge, Asuka Riv., Osaka"	34.55555556		135.6205556																																											2019/9/2	2019/9/2
PRA000096	SAA006183	ST015		ZETTAICODE_FY2018_W	2712050	W_2712050_20180508	Water	"River water"	2018	7	2					Asia	Japan	"Enmyo-bashi bridge, Asuka Riv., Osaka"	34.55555556		135.6205556																																											2019/9/2	2019/9/2
PRA000096	SAA006184	ST015		ZETTAICODE_FY2018_W	2712050	W_2712050_20180709	Water	"River water"	2018	7	9					Asia	Japan	"Enmyo-bashi bridge, Asuka Riv., Osaka"	34.55555556		135.6205556																																											2019/9/2	2019/9/2
PRA000096	SAA006185	ST015		ZETTAICODE_FY2018_W	2712050	W_2712050_20180713	Water	"River water"	2018	7	13					Asia	Japan	"Enmyo-bashi bridge, Asuka Riv., Osaka"	34.55555556		135.6205556																																											2019/9/2	2019/9/2
PRA000096	SAA006186	ST015		ZETTAICODE_FY2018_W	2712050	W_2712050_20180717	Water	"River water"	2018	7	17					Asia	Japan	"Enmyo-bashi bridge, Asuka Riv., Osaka"	34.55555556		135.6205556																																											2019/9/2	2019/9/2
PRA000096	SAA006187	ST015		ZETTAICODE_FY2018_W	2712050	W_2712050_20180720	Water	"River water"	2018	7	20					Asia	Japan	"Enmyo-bashi bridge, Asuka Riv., Osaka"	34.55555556		135.6205556																																											2019/9/2	2019/9/2
PRA000096	SAA006188	ST015		ZETTAICODE_FY2018_W	2712050	W_2712050_20180723	Water	"River water"	2018	7	23					Asia	Japan	"Enmyo-bashi bridge, Asuka Riv., Osaka"	34.55555556		135.6205556																																											2019/9/2	2019/9/2
PRA000096	SAA006189	ST015		ZETTAICODE_FY2018_W	2712050	W_2712050_20180727	Water	"River water"	2018	7	27					Asia	Japan	"Enmyo-bashi bridge, Asuka Riv., Osaka"	34.55555556		135.6205556																																											2019/9/2	2019/9/2
PRA000096	SAA006190	ST015		ZETTAICODE_FY2018_W	2712050	W_2712050_20180730	Water	"River water"	2018	7	30					Asia	Japan	"Enmyo-bashi bridge, Asuka Riv., Osaka"	34.55555556		135.6205556																																											2019/9/2	2019/9/2
PRA000096	SAA006191	ST015		ZETTAICODE_FY2018_W	2712050	W_2712050_20180806	Water	"River water"	2018	8	6					Asia	Japan	"Enmyo-bashi bridge, Asuka Riv., Osaka"	34.55555556		135.6205556																																											2019/9/2	2019/9/2
PRA000096	SAA006192	ST015		ZETTAICODE_FY2018_W	2712050	W_2712050_20180813	Water	"River water"	2018	8	13					Asia	Japan	"Enmyo-bashi bridge, Asuka Riv., Osaka"	34.55555556		135.6205556																																										"Start of Heading"	2019/9/2	2019/9/2
PRA000096	SAA006193	ST015		ZETTAICODE_FY2018_W	2712050	W_2712050_20180820	Water	"River water"	2018	8	20					Asia	Japan	"Enmyo-bashi bridge, Asuka Riv., Osaka"	34.55555556		135.6205556																																										Heading	2019/9/2	2019/9/2
PRA000096	SAA006194	ST015		ZETTAICODE_FY2018_W	2712050	W_2712050_20180824	Water	"River water"	2018	8	24					Asia	Japan	"Enmyo-bashi bridge, Asuka Riv., Osaka"	34.55555556		135.6205556																																										Heading	2019/9/2	2019/9/2
PRA000096	SAA006195	ST015		ZETTAICODE_FY2018_W	2712050	W_2712050_20180827	Water	"River water"	2018	8	27					Asia	Japan	"Enmyo-bashi bridge, Asuka Riv., Osaka"	34.55555556		135.6205556																																										Heading	2019/9/2	2019/9/2
PRA000096	SAA006196	ST015		ZETTAICODE_FY2018_W	2712050	W_2712050_20180831	Water	"River water"	2018	8	31					Asia	Japan	"Enmyo-bashi bridge, Asuka Riv., Osaka"	34.55555556		135.6205556																																										"End of Heading"	2019/9/2	2019/9/2
PRA000096	SAA006197	ST015		ZETTAICODE_FY2018_W	2712050	W_2712050_20180903	Water	"River water"	2018	9	3					Asia	Japan	"Enmyo-bashi bridge, Asuka Riv., Osaka"	34.55555556		135.6205556																																											2019/9/2	2019/9/2
PRA000096	SAA006198	ST015		ZETTAICODE_FY2018_W	2712050	W_2712050_20180907	Water	"River water"	2018	9	7					Asia	Japan	"Enmyo-bashi bridge, Asuka Riv., Osaka"	34.55555556		135.6205556																																											2019/9/2	2019/9/2
PRA000096	SAA006199	ST015		ZETTAICODE_FY2018_W	2712050	W_2712050_20180910	Water	"River water"	2018	9	10					Asia	Japan	"Enmyo-bashi bridge, Asuka Riv., Osaka"	34.55555556		135.6205556																																											2019/9/2	2019/9/2
PRA000096	SAA006200	ST015		ZETTAICODE_FY2018_W	2712050	W_2712050_20180918	Water	"River water"	2018	9	18					Asia	Japan	"Enmyo-bashi bridge, Asuka Riv., Osaka"	34.55555556		135.6205556																																											2019/9/2	2019/9/2
PRA000096	SAA006201	ST015		ZETTAICODE_FY2018_W	2712050	W_2712050_20180925	Water	"River water"	2018	9	25					Asia	Japan	"Enmyo-bashi bridge, Asuka Riv., Osaka"	34.55555556		135.6205556																																											2019/9/2	2019/9/2
PRA000096	SAA006202	ST015		ZETTAICODE_FY2018_W	2712050	W_2712050_20181015	Water	"River water"	2018	10	15					Asia	Japan	"Enmyo-bashi bridge, Asuka Riv., Osaka"	34.55555556		135.6205556																																											2019/9/2	2019/9/2
PRA000096	SAA006203	ST015		ZETTAICODE_FY2018_W	2712050	W_2712050_20181029	Water	"River water"	2018	10	29					Asia	Japan	"Enmyo-bashi bridge, Asuka Riv., Osaka"	34.55555556		135.6205556																																											2019/9/2	2019/9/2
PRA000096	SAA006204	ST015		ZETTAICODE_FY2018_W	2712070	W_2712070_20180507	Water	"River water"	2018	5	7					Asia	Japan	"Otomo-bashi bridge, Sabi Riv., Osaka"	34.49944444		135.6086111																																											2019/9/2	2019/9/2
PRA000096	SAA006205	ST015		ZETTAICODE_FY2018_W	2712070	W_2712070_20180514	Water	"River water"	2018	5	14					Asia	Japan	"Otomo-bashi bridge, Sabi Riv., Osaka"	34.49944444		135.6086111																																											2019/9/2	2019/9/2
PRA000096	SAA006206	ST015		ZETTAICODE_FY2018_W	2712070	W_2712070_20180521	Water	"River water"	2018	5	21					Asia	Japan	"Otomo-bashi bridge, Sabi Riv., Osaka"	34.49944444		135.6086111																																											2019/9/2	2019/9/2
PRA000096	SAA006207	ST015		ZETTAICODE_FY2018_W	2712070	W_2712070_20180523	Water	"River water"	2018	5	23					Asia	Japan	"Otomo-bashi bridge, Sabi Riv., Osaka"	34.49944444		135.6086111																																										"Start of rice-planting season"	2019/9/2	2019/9/2
PRA000096	SAA006208	ST015		ZETTAICODE_FY2018_W	2712070	W_2712070_20180528	Water	"River water"	2018	5	28					Asia	Japan	"Otomo-bashi bridge, Sabi Riv., Osaka"	34.49944444		135.6086111																																										"Rice-planting season"	2019/9/2	2019/9/2
PRA000096	SAA006209	ST015		ZETTAICODE_FY2018_W	2712070	W_2712070_20180530	Water	"River water"	2018	5	30					Asia	Japan	"Otomo-bashi bridge, Sabi Riv., Osaka"	34.49944444		135.6086111																																										"Rice-planting season"	2019/9/2	2019/9/2
PRA000096	SAA006210	ST015		ZETTAICODE_FY2018_W	2712070	W_2712070_20180601	Water	"River water"	2018	6	1					Asia	Japan	"Otomo-bashi bridge, Sabi Riv., Osaka"	34.49944444		135.6086111																																										"Rice-planting season"	2019/9/2	2019/9/2
PRA000096	SAA006211	ST015		ZETTAICODE_FY2018_W	2712070	W_2712070_20180604	Water	"River water"	2018	6	4					Asia	Japan	"Otomo-bashi bridge, Sabi Riv., Osaka"	34.49944444		135.6086111																																										"Rice-planting season"	2019/9/2	2019/9/2
PRA000096	SAA006212	ST015		ZETTAICODE_FY2018_W	2712070	W_2712070_20180606	Water	"River water"	2018	6	6					Asia	Japan	"Otomo-bashi bridge, Sabi Riv., Osaka"	34.49944444		135.6086111																																										"Rice-planting season"	2019/9/2	2019/9/2
PRA000096	SAA006213	ST015		ZETTAICODE_FY2018_W	2712070	W_2712070_20180608	Water	"River water"	2018	6	8					Asia	Japan	"Otomo-bashi bridge, Sabi Riv., Osaka"	34.49944444		135.6086111																																										"Rice-planting season (Highest)"	2019/9/2	2019/9/2
PRA000096	SAA006214	ST015		ZETTAICODE_FY2018_W	2712070	W_2712070_20180611	Water	"River water"	2018	6	11					Asia	Japan	"Otomo-bashi bridge, Sabi Riv., Osaka"	34.49944444		135.6086111																																										"Rice-planting season"	2019/9/2	2019/9/2
PRA000096	SAA006215	ST015		ZETTAICODE_FY2018_W	2712070	W_2712070_20180613	Water	"River water"	2018	6	13					Asia	Japan	"Otomo-bashi bridge, Sabi Riv., Osaka"	34.49944444		135.6086111																																										"Rice-planting season"	2019/9/2	2019/9/2
PRA000096	SAA006216	ST015		ZETTAICODE_FY2018_W	2712070	W_2712070_20180615	Water	"River water"	2018	6	15					Asia	Japan	"Otomo-bashi bridge, Sabi Riv., Osaka"	34.49944444		135.6086111																																										"Rice-planting season"	2019/9/2	2019/9/2
PRA000096	SAA006217	ST015		ZETTAICODE_FY2018_W	2712070	W_2712070_20180619	Water	"River water"	2018	6	19					Asia	Japan	"Otomo-bashi bridge, Sabi Riv., Osaka"	34.49944444		135.6086111																																										"Rice-planting season"	2019/9/2	2019/9/2
PRA000096	SAA006218	ST015		ZETTAICODE_FY2018_W	2712070	W_2712070_20180620	Water	"River water"	2018	6	20					Asia	Japan	"Otomo-bashi bridge, Sabi Riv., Osaka"	34.49944444		135.6086111																																										"Rice-planting season"	2019/9/2	2019/9/2
PRA000096	SAA006219	ST015		ZETTAICODE_FY2018_W	2712070	W_2712070_20180622	Water	"River water"	2018	6	22					Asia	Japan	"Otomo-bashi bridge, Sabi Riv., Osaka"	34.49944444		135.6086111																																										"End of rice-planting"	2019/9/2	2019/9/2
PRA000096	SAA006220	ST015		ZETTAICODE_FY2018_W	2712070	W_2712070_20180625	Water	"River water"	2018	6	25					Asia	Japan	"Otomo-bashi bridge, Sabi Riv., Osaka"	34.49944444		135.6086111																																											2019/9/2	2019/9/2
PRA000096	SAA006221	ST015		ZETTAICODE_FY2018_W	2712070	W_2712070_20180627	Water	"River water"	2018	6	27					Asia	Japan	"Otomo-bashi bridge, Sabi Riv., Osaka"	34.49944444		135.6086111																																											2019/9/2	2019/9/2
PRA000096	SAA006222	ST015		ZETTAICODE_FY2018_W	2712070	W_2712070_20180702	Water	"River water"	2018	7	2					Asia	Japan	"Otomo-bashi bridge, Sabi Riv., Osaka"	34.49944444		135.6086111																																											2019/9/2	2019/9/2
PRA000096	SAA006223	ST015		ZETTAICODE_FY2018_W	2712070	W_2712070_20180709	Water	"River water"	2018	7	9					Asia	Japan	"Otomo-bashi bridge, Sabi Riv., Osaka"	34.49944444		135.6086111																																											2019/9/2	2019/9/2
PRA000096	SAA006224	ST015		ZETTAICODE_FY2018_W	2712070	W_2712070_20180713	Water	"River water"	2018	7	13					Asia	Japan	"Otomo-bashi bridge, Sabi Riv., Osaka"	34.49944444		135.6086111																																											2019/9/2	2019/9/2
PRA000096	SAA006225	ST015		ZETTAICODE_FY2018_W	2712070	W_2712070_20180717	Water	"River water"	2018	7	17					Asia	Japan	"Otomo-bashi bridge, Sabi Riv., Osaka"	34.49944444		135.6086111																																											2019/9/2	2019/9/2
PRA000096	SAA006226	ST015		ZETTAICODE_FY2018_W	2712070	W_2712070_20180720	Water	"River water"	2018	7	20					Asia	Japan	"Otomo-bashi bridge, Sabi Riv., Osaka"	34.49944444		135.6086111																																											2019/9/2	2019/9/2
PRA000096	SAA006227	ST015		ZETTAICODE_FY2018_W	2712070	W_2712070_20180723	Water	"River water"	2018	7	23					Asia	Japan	"Otomo-bashi bridge, Sabi Riv., Osaka"	34.49944444		135.6086111																																											2019/9/2	2019/9/2
PRA000096	SAA006228	ST015		ZETTAICODE_FY2018_W	2712070	W_2712070_20180727	Water	"River water"	2018	7	27					Asia	Japan	"Otomo-bashi bridge, Sabi Riv., Osaka"	34.49944444		135.6086111																																											2019/9/2	2019/9/2
PRA000096	SAA006229	ST015		ZETTAICODE_FY2018_W	2712070	W_2712070_20180730	Water	"River water"	2018	7	30					Asia	Japan	"Otomo-bashi bridge, Sabi Riv., Osaka"	34.49944444		135.6086111																																											2019/9/2	2019/9/2
PRA000096	SAA006230	ST015		ZETTAICODE_FY2018_W	2712070	W_2712070_20180806	Water	"River water"	2018	8	6					Asia	Japan	"Otomo-bashi bridge, Sabi Riv., Osaka"	34.49944444		135.6086111																																											2019/9/2	2019/9/2
PRA000096	SAA006231	ST015		ZETTAICODE_FY2018_W	2712070	W_2712070_20180813	Water	"River water"	2018	8	13					Asia	Japan	"Otomo-bashi bridge, Sabi Riv., Osaka"	34.49944444		135.6086111																																										"Start of Heading"	2019/9/2	2019/9/2
PRA000096	SAA006232	ST015		ZETTAICODE_FY2018_W	2712070	W_2712070_20180820	Water	"River water"	2018	8	20					Asia	Japan	"Otomo-bashi bridge, Sabi Riv., Osaka"	34.49944444		135.6086111																																										Heading	2019/9/2	2019/9/2
PRA000096	SAA006233	ST015		ZETTAICODE_FY2018_W	2712070	W_2712070_20180824	Water	"River water"	2018	8	24					Asia	Japan	"Otomo-bashi bridge, Sabi Riv., Osaka"	34.49944444		135.6086111																																										Heading	2019/9/2	2019/9/2
PRA000096	SAA006234	ST015		ZETTAICODE_FY2018_W	2712070	W_2712070_20180827	Water	"River water"	2018	8	27					Asia	Japan	"Otomo-bashi bridge, Sabi Riv., Osaka"	34.49944444		135.6086111																																										Heading	2019/9/2	2019/9/2
PRA000096	SAA006235	ST015		ZETTAICODE_FY2018_W	2712070	W_2712070_20180831	Water	"River water"	2018	8	31					Asia	Japan	"Otomo-bashi bridge, Sabi Riv., Osaka"	34.49944444		135.6086111																																										"End of Heading"	2019/9/2	2019/9/2
PRA000096	SAA006236	ST015		ZETTAICODE_FY2018_W	2712070	W_2712070_20180903	Water	"River water"	2018	9	3					Asia	Japan	"Otomo-bashi bridge, Sabi Riv., Osaka"	34.49944444		135.6086111																																											2019/9/2	2019/9/2
PRA000096	SAA006237	ST015		ZETTAICODE_FY2018_W	2712070	W_2712070_20180907	Water	"River water"	2018	9	7					Asia	Japan	"Otomo-bashi bridge, Sabi Riv., Osaka"	34.49944444		135.6086111																																											2019/9/2	2019/9/2
PRA000096	SAA006238	ST015		ZETTAICODE_FY2018_W	2712070	W_2712070_20180910	Water	"River water"	2018	9	10					Asia	Japan	"Otomo-bashi bridge, Sabi Riv., Osaka"	34.49944444		135.6086111																																											2019/9/2	2019/9/2
PRA000096	SAA006239	ST015		ZETTAICODE_FY2018_W	2712070	W_2712070_20180918	Water	"River water"	2018	9	18					Asia	Japan	"Otomo-bashi bridge, Sabi Riv., Osaka"	34.49944444		135.6086111																																											2019/9/2	2019/9/2
PRA000096	SAA006240	ST015		ZETTAICODE_FY2018_W	2712070	W_2712070_20180925	Water	"River water"	2018	9	25					Asia	Japan	"Otomo-bashi bridge, Sabi Riv., Osaka"	34.49944444		135.6086111																																											2019/9/2	2019/9/2
PRA000096	SAA006241	ST015		ZETTAICODE_FY2018_W	2712070	W_2712070_20181015	Water	"River water"	2018	10	15					Asia	Japan	"Otomo-bashi bridge, Sabi Riv., Osaka"	34.49944444		135.6086111																																											2019/9/2	2019/9/2
PRA000096	SAA006242	ST015		ZETTAICODE_FY2018_W	2712070	W_2712070_20181029	Water	"River water"	2018	10	29					Asia	Japan	"Otomo-bashi bridge, Sabi Riv., Osaka"	34.49944444		135.6086111																																											2019/9/2	2019/9/2
PRA000096	SAA006243	ST015		ZETTAICODE_FY2018_W	2710430	W_2710430_20180507	Water	"River water"	2018	5	7					Asia	Japan	"Taka-hashi bridge, Ishi-kawa Riv., Osaka"	34.47916667		135.5872222																																											2019/9/2	2019/9/2
PRA000096	SAA006244	ST015		ZETTAICODE_FY2018_W	2710430	W_2710430_20180514	Water	"River water"	2018	5	14					Asia	Japan	"Taka-hashi bridge, Ishi-kawa Riv., Osaka"	34.47916667		135.5872222																																											2019/9/2	2019/9/2
PRA000096	SAA006245	ST015		ZETTAICODE_FY2018_W	2710430	W_2710430_20180521	Water	"River water"	2018	5	21					Asia	Japan	"Taka-hashi bridge, Ishi-kawa Riv., Osaka"	34.47916667		135.5872222																																											2019/9/2	2019/9/2
PRA000096	SAA006246	ST015		ZETTAICODE_FY2018_W	2710430	W_2710430_20180523	Water	"River water"	2018	5	23					Asia	Japan	"Taka-hashi bridge, Ishi-kawa Riv., Osaka"	34.47916667		135.5872222																																										"Start of rice-planting season"	2019/9/2	2019/9/2
PRA000096	SAA006247	ST015		ZETTAICODE_FY2018_W	2710430	W_2710430_20180528	Water	"River water"	2018	5	28					Asia	Japan	"Taka-hashi bridge, Ishi-kawa Riv., Osaka"	34.47916667		135.5872222																																										"Rice-planting season"	2019/9/2	2019/9/2
PRA000096	SAA006248	ST015		ZETTAICODE_FY2018_W	2710430	W_2710430_20180530	Water	"River water"	2018	5	30					Asia	Japan	"Taka-hashi bridge, Ishi-kawa Riv., Osaka"	34.47916667		135.5872222																																										"Rice-planting season"	2019/9/2	2019/9/2
PRA000096	SAA006249	ST015		ZETTAICODE_FY2018_W	2710430	W_2710430_20180601	Water	"River water"	2018	6	1					Asia	Japan	"Taka-hashi bridge, Ishi-kawa Riv., Osaka"	34.47916667		135.5872222																																										"Rice-planting season"	2019/9/2	2019/9/2
PRA000096	SAA006250	ST015		ZETTAICODE_FY2018_W	2710430	W_2710430_20180604	Water	"River water"	2018	6	4					Asia	Japan	"Taka-hashi bridge, Ishi-kawa Riv., Osaka"	34.47916667		135.5872222																																										"Rice-planting season"	2019/9/2	2019/9/2
PRA000096	SAA006251	ST015		ZETTAICODE_FY2018_W	2710430	W_2710430_20180606	Water	"River water"	2018	6	6					Asia	Japan	"Taka-hashi bridge, Ishi-kawa Riv., Osaka"	34.47916667		135.5872222																																										"Rice-planting season"	2019/9/2	2019/9/2
PRA000096	SAA006252	ST015		ZETTAICODE_FY2018_W	2710430	W_2710430_20180608	Water	"River water"	2018	6	8					Asia	Japan	"Taka-hashi bridge, Ishi-kawa Riv., Osaka"	34.47916667		135.5872222																																										"Rice-planting season (Highest)"	2019/9/2	2019/9/2
PRA000096	SAA006253	ST015		ZETTAICODE_FY2018_W	2710430	W_2710430_20180611	Water	"River water"	2018	6	11					Asia	Japan	"Taka-hashi bridge, Ishi-kawa Riv., Osaka"	34.47916667		135.5872222																																										"Rice-planting season"	2019/9/2	2019/9/2
PRA000096	SAA006254	ST015		ZETTAICODE_FY2018_W	2710430	W_2710430_20180613	Water	"River water"	2018	6	13					Asia	Japan	"Taka-hashi bridge, Ishi-kawa Riv., Osaka"	34.47916667		135.5872222																																										"Rice-planting season"	2019/9/2	2019/9/2
PRA000096	SAA006255	ST015		ZETTAICODE_FY2018_W	2710430	W_2710430_20180615	Water	"River water"	2018	6	15					Asia	Japan	"Taka-hashi bridge, Ishi-kawa Riv., Osaka"	34.47916667		135.5872222																																										"Rice-planting season"	2019/9/2	2019/9/2
PRA000096	SAA006256	ST015		ZETTAICODE_FY2018_W	2710430	W_2710430_20180619	Water	"River water"	2018	6	19					Asia	Japan	"Taka-hashi bridge, Ishi-kawa Riv., Osaka"	34.47916667		135.5872222																																										"Rice-planting season"	2019/9/2	2019/9/2
PRA000096	SAA006257	ST015		ZETTAICODE_FY2018_W	2710430	W_2710430_20180620	Water	"River water"	2018	6	20					Asia	Japan	"Taka-hashi bridge, Ishi-kawa Riv., Osaka"	34.47916667		135.5872222																																										"Rice-planting season"	2019/9/2	2019/9/2
PRA000096	SAA006258	ST015		ZETTAICODE_FY2018_W	2710430	W_2710430_20180622	Water	"River water"	2018	6	22					Asia	Japan	"Taka-hashi bridge, Ishi-kawa Riv., Osaka"	34.47916667		135.5872222																																										"End of rice-planting"	2019/9/2	2019/9/2
PRA000096	SAA006259	ST015		ZETTAICODE_FY2018_W	2710430	W_2710430_20180625	Water	"River water"	2018	6	25					Asia	Japan	"Taka-hashi bridge, Ishi-kawa Riv., Osaka"	34.47916667		135.5872222																																											2019/9/2	2019/9/2
PRA000096	SAA006260	ST015		ZETTAICODE_FY2018_W	2710430	W_2710430_20180627	Water	"River water"	2018	6	27					Asia	Japan	"Taka-hashi bridge, Ishi-kawa Riv., Osaka"	34.47916667		135.5872222																																											2019/9/2	2019/9/2
PRA000096	SAA006261	ST015		ZETTAICODE_FY2018_W	2710430	W_2710430_20180702	Water	"River water"	2018	7	2					Asia	Japan	"Taka-hashi bridge, Ishi-kawa Riv., Osaka"	34.47916667		135.5872222																																											2019/9/2	2019/9/2
PRA000096	SAA006262	ST015		ZETTAICODE_FY2018_W	2710430	W_2710430_20180709	Water	"River water"	2018	7	9					Asia	Japan	"Taka-hashi bridge, Ishi-kawa Riv., Osaka"	34.47916667		135.5872222																																											2019/9/2	2019/9/2
PRA000096	SAA006263	ST015		ZETTAICODE_FY2018_W	2710430	W_2710430_20180713	Water	"River water"	2018	7	13					Asia	Japan	"Taka-hashi bridge, Ishi-kawa Riv., Osaka"	34.47916667		135.5872222																																											2019/9/2	2019/9/2
PRA000096	SAA006264	ST015		ZETTAICODE_FY2018_W	2710430	W_2710430_20180717	Water	"River water"	2018	7	17					Asia	Japan	"Taka-hashi bridge, Ishi-kawa Riv., Osaka"	34.47916667		135.5872222																																											2019/9/2	2019/9/2
PRA000096	SAA006265	ST015		ZETTAICODE_FY2018_W	2710430	W_2710430_20180720	Water	"River water"	2018	7	20					Asia	Japan	"Taka-hashi bridge, Ishi-kawa Riv., Osaka"	34.47916667		135.5872222																																											2019/9/2	2019/9/2
PRA000096	SAA006266	ST015		ZETTAICODE_FY2018_W	2710430	W_2710430_20180723	Water	"River water"	2018	7	23					Asia	Japan	"Taka-hashi bridge, Ishi-kawa Riv., Osaka"	34.47916667		135.5872222																																											2019/9/2	2019/9/2
PRA000096	SAA006267	ST015		ZETTAICODE_FY2018_W	2710430	W_2710430_20180727	Water	"River water"	2018	7	27					Asia	Japan	"Taka-hashi bridge, Ishi-kawa Riv., Osaka"	34.47916667		135.5872222																																											2019/9/2	2019/9/2
PRA000096	SAA006268	ST015		ZETTAICODE_FY2018_W	2710430	W_2710430_20180730	Water	"River water"	2018	7	30					Asia	Japan	"Taka-hashi bridge, Ishi-kawa Riv., Osaka"	34.47916667		135.5872222																																											2019/9/2	2019/9/2
PRA000096	SAA006269	ST015		ZETTAICODE_FY2018_W	2710430	W_2710430_20180806	Water	"River water"	2018	8	6					Asia	Japan	"Taka-hashi bridge, Ishi-kawa Riv., Osaka"	34.47916667		135.5872222																																											2019/9/2	2019/9/2
PRA000096	SAA006270	ST015		ZETTAICODE_FY2018_W	2710430	W_2710430_20180813	Water	"River water"	2018	8	13					Asia	Japan	"Taka-hashi bridge, Ishi-kawa Riv., Osaka"	34.47916667		135.5872222																																										"Start of Heading"	2019/9/2	2019/9/2
PRA000096	SAA006271	ST015		ZETTAICODE_FY2018_W	2710430	W_2710430_20180820	Water	"River water"	2018	8	20					Asia	Japan	"Taka-hashi bridge, Ishi-kawa Riv., Osaka"	34.47916667		135.5872222																																										Heading	2019/9/2	2019/9/2
PRA000096	SAA006272	ST015		ZETTAICODE_FY2018_W	2710430	W_2710430_20180824	Water	"River water"	2018	8	24					Asia	Japan	"Taka-hashi bridge, Ishi-kawa Riv., Osaka"	34.47916667		135.5872222																																										Heading	2019/9/2	2019/9/2
PRA000096	SAA006273	ST015		ZETTAICODE_FY2018_W	2710430	W_2710430_20180827	Water	"River water"	2018	8	27					Asia	Japan	"Taka-hashi bridge, Ishi-kawa Riv., Osaka"	34.47916667		135.5872222																																										Heading	2019/9/2	2019/9/2
PRA000096	SAA006274	ST015		ZETTAICODE_FY2018_W	2710430	W_2710430_20180831	Water	"River water"	2018	8	31					Asia	Japan	"Taka-hashi bridge, Ishi-kawa Riv., Osaka"	34.47916667		135.5872222																																										"End of Heading"	2019/9/2	2019/9/2
PRA000096	SAA006275	ST015		ZETTAICODE_FY2018_W	2710430	W_2710430_20180903	Water	"River water"	2018	9	3					Asia	Japan	"Taka-hashi bridge, Ishi-kawa Riv., Osaka"	34.47916667		135.5872222																																											2019/9/2	2019/9/2
PRA000096	SAA006276	ST015		ZETTAICODE_FY2018_W	2710430	W_2710430_20180907	Water	"River water"	2018	9	7					Asia	Japan	"Taka-hashi bridge, Ishi-kawa Riv., Osaka"	34.47916667		135.5872222																																											2019/9/2	2019/9/2
PRA000096	SAA006277	ST015		ZETTAICODE_FY2018_W	2710430	W_2710430_20180910	Water	"River water"	2018	9	10					Asia	Japan	"Taka-hashi bridge, Ishi-kawa Riv., Osaka"	34.47916667		135.5872222																																											2019/9/2	2019/9/2
PRA000096	SAA006278	ST015		ZETTAICODE_FY2018_W	2710430	W_2710430_20180918	Water	"River water"	2018	9	18					Asia	Japan	"Taka-hashi bridge, Ishi-kawa Riv., Osaka"	34.47916667		135.5872222																																											2019/9/2	2019/9/2
PRA000096	SAA006279	ST015		ZETTAICODE_FY2018_W	2710430	W_2710430_20180925	Water	"River water"	2018	9	25					Asia	Japan	"Taka-hashi bridge, Ishi-kawa Riv., Osaka"	34.47916667		135.5872222																																											2019/9/2	2019/9/2
PRA000096	SAA006280	ST015		ZETTAICODE_FY2018_W	2710430	W_2710430_20181015	Water	"River water"	2018	10	15					Asia	Japan	"Taka-hashi bridge, Ishi-kawa Riv., Osaka"	34.47916667		135.5872222																																											2019/9/2	2019/9/2
PRA000096	SAA006281	ST015		ZETTAICODE_FY2018_W	2710430	W_2710430_20181029	Water	"River water"	2018	10	29					Asia	Japan	"Taka-hashi bridge, Ishi-kawa Riv., Osaka"	34.47916667		135.5872222																																											2019/9/2	2019/9/2
PRA000097	SAA006282	ST015				Hokkaido_w3_2017	Water	"River water"	2017	11	10	2017-11-10T13:40			Cloudy	Asia	Japan	"Ishikarikako-kyo Bridge, Mouth of Riv. Ishikari (Ishikari City), Hokkaido"	43.22861111		141.3519444														8.8	6.8	6.3	9.2	37			12			"Greyish brown"																			2019/09/13	2019/09/13
PRA000097	SAA006283	ST015				Hokkaido_w2_2017	Water	"River water"	2017	10	16	2017-10-16T12:30			Fair	Asia	Japan	"Suzuran-ohashi Bridge, Riv. Tokachi (Obihiro City), Hokkaido"	42.94583333		143.1855556														13.2	10.9	7	9.1	13			6			Clear																			2019/09/13	2019/09/13
PRA000097	SAA006284	ST015				Hokkaido_w4_2017	Water	"River water"	2017	9	26	2017-09-26T09:30			Cloudy	Asia	Japan	"Onnnenai-ohashi Bridge, Riv. Teshio (BifukaTown), Hokkaido"	44.59138889		142.3063889														16.3	16.6	7.5	9.5	7.7			19			Clear																			2019/09/13	2019/09/13
PRA000097	SAA006285	ST014				Hokkaido_w7_2017	Water	"Sea water"	2017	9	11	2017-09-11T10:45			Fair	Asia	Japan	"Tomakomai Port, Hokkaido"	42.63138889		141.6288889														19.5	19.5	8	9.5				6		3.5	"Greenish blue"																			2019/9/13	2019/9/13
PRA000097	SAA006286	ST014				Hokkaido_w8_2017	Water	"Sea water"	2017	12	6	2017-12-06T13:10			Cloudy	Asia	Japan	"Muroran port, Hokkaido"	42.34305556		140.9708333														-1.4	5.3	8.1	13.8				9																						2019/9/13	2019/9/13
PRA000097	SAA006287	ST015				SapporoCity_w1_2017	Water	"River water"	2017	10	17	2017-10-17T13:50			Fair	Asia	Japan	"Nakanuma of Riv. Toyohira (Sapporo City), Hokkaido"	43.14083333		141.4530556														10.5	11.6	7.2	9	3,200			2			"Light Greenish brown"																			2019/09/13	2019/09/13
PRA000097	SAA006288	ST015				SapporoCity_w2_2017	Water	"River water"	2017	10	17	2017-10-17T11:00			Fair	Asia	Japan	"Daiichishinkawa-bashi Bridge, Riv. Shin (Sapporo City), Hokkaido"	43.15194444		141.2377778														12.2	13.2	7.1	7.1	4,100			5			"Light Yellowish brown"																			2019/09/13	2019/09/13
PRA000097	SAA006289	ST015				Iwate_w1_2017	Water	"River water"	2017	10	4	2017-10-04T10:20			Cloudy	Asia	Japan	"Riv. Toyosawa (Hanamaki City), Iwate"	39.38166667		141.1191667														15	14.2	7.2	11	7.1			1			"Light Greenish brown"																			2019/09/13	2019/09/13
PRA000097	SAA006290	ST015				Miyagi_w1_2017	Water	"River water"	2017	10	31	2017-10-31T13:30			Fair	Asia	Japan	"Futatsuya-bashi Bridge, Riv. Hasama (Tome City), Miyagi"	38.57138889		141.2136111														15.1	13.1	7	10	11			21			"Light Yellow"																			2019/09/13	2019/09/13
PRA000097	SAA006291	ST015				Miyagi_w2_2017	Water	"River water"	2017	10	31	2017-10-31T10:05			Cloudy	Asia	Japan	"Sakura-hodoukyou Bridge, Riv. Shiroishi (Shibata Town), Miyagi"	38.06083333		140.7677778														13.3	12.5	7.1	10	9			9			"Light Yellow"																			2019/09/13	2019/09/13
PRA000097	SAA006292	ST015				Sendai_w1_2017	Water	"River water"	2017	11	14	2017-11-14T10:25			Cloudy	Asia	Japan	"Hirose-ohashi Bridge, Riv. Hirose (Sendai City), Miyagi"	38.21333333		140.9088889														13.9	9.7	7.5	12.5	15			<1			Clear																			2019/09/13	2019/09/13
PRA000097	SAA006293	ST015				Akita_w1_2017	Water	"River water"	2017	10	11	2017-10-11T12:58			Cloudy	Asia	Japan	"Akita Canal (Akita City), Akita"	39.75083333		140.0586111														17.6	18.1	6.7	8.6	202			3.1		2	"Dark Yellow green"																			2019/09/13	2019/09/13
PRA000097	SAA006294	ST015				Yamagata_w1-1_2017	Water	"River water"	2017	10	18	2017-10-18T09:30			Fair	Asia	Japan	"Mouth of Riv. Mogami, Yamagata"	38.88722222		139.8433333														17.2	14.3	7	9.8	17			2			"Light Yellow"																			2019/9/13	2019/9/13
PRA000097	SAA006295	ST015				Yamagata_w1-2_2017	Water	"River water"	2017	12	22	2017-12-22T10:45			Cloudy	Asia	Japan	"Mouth of Riv. Mogami, Yamagata"	38.88722222		139.8433333														3.6	3.9	6.9	13	13			5			"Light Yellow"																			2019/9/13	2019/9/13
PRA000097	SAA006296	ST015				Yamagata_w3_2017	Water	"River water"	2017	1	24	2017-01-24T10:50			Cloudy	Asia	Japan	"Confluence of Riv. Murayamano and Riv. Mogami (Higashine City), Yamagata"	38.43861111		140.3366667														-3	3.5	7	11	26			3			Clear																			2019/09/13	2019/09/13
PRA000097	SAA006297	ST015				Fukushima_w2_2017	Water	"River water"	2017	10	11	2017-10-11T13:30			Cloudy	Asia	Japan	"Shima-hashi bridge, Riv. Fujiwara (Iwaki City), Fukushima"	36.975		140.8786111														20.3	21.2	7.7	7.7	150			9			"Greenish blue"																			2019/9/13	2019/9/13
PRA000097	SAA006298	ST015				Ibaraki_w2_2017	Water	"River water"	2017	11	17	2017-11-17T10:17			Fair	Asia	Japan	"Kamome-ohasi Bridge, Mouth of Riv. Tone (Kamisu City), Ibaraki"	35.77638889		140.7569444														14.9	13	7.7	9.6	540			1.6			Clear																			2019/09/13	2019/09/13
PRA000097	SAA006299	ST015				Tochigi_w1_2017	Water	"River water"	2017	10	18	2017-10-18T11:10			Fair	Asia	Japan	"Tagawa area-Toshuko Weir (Utsunomiya City), Tochigi"	36.52805556		139.8855556														17	16	7.4	11	19			3			Clear																			2019/09/13	2019/09/13
PRA000097	SAA006300	ST015				Saitama_w2_2017	Water	"River water"	2017	11	8	2017-11-08T10:15			Cloudy	Asia	Japan	"Akigase-Shusuizeki Weir, Riv. Ara (Shiki City), Saitama"	35.84055556		139.6044444														14.1	13.4	7.7	9.7	25			7			"Grayish green"																			2019/09/13	2019/09/13
PRA000097	SAA006301	ST015				SaitamaCity_w1_2017	Water	"River water"	2017	11	1	2017-11-01T09:20			Cloudy	Asia	Japan	"Nakadote-bashi Bridge, Riv. Kamo (Saitama City), Saitama"	35.855		139.6077778														12.3	14	7.2	8	35			26			"Grayish yellow"																			2019/09/13	2019/09/13
PRA000097	SAA006302	ST014				Chiba_w2-1_2017	Water	"Sea water"	2017	10	19	2017-10-19T09:40			Rain	Asia	Japan	"Ichihara-Anesaki Coast, Chiba"	35.52166667		140.0283333														12.7	20.6	7.9	8.4	4,500			1.8		5.8	"Dark green"																			2019/9/13	2019/9/13
PRA000097	SAA006303	ST014				Chiba_w2-2_2017	Water	"Sea water"	2017	11	1	2017-11-01T11:33			Fair	Asia	Japan	"Ichihara-Anesaki Coast, Chiba"	35.52166667		140.0283333														15.9	18.9	8	9.9	3,800			2.1		4.2	"Light green"																			2019/9/13	2019/9/13
PRA000097	SAA006304	ST015				Chiba_w1_2017	Water	"River water"	2017	10	11	2017-10-11T09:25			"Slightly cloudy"	Asia	Japan	"Asai-bashi Bridge, Riv. Yourou (Ichihara City), Chiba"	35.46722222		140.1155556														26.5	21.8	7.9	8.4				10			"Yellow green"																			2019/9/13	2019/9/13
PRA000097	SAA006305	ST015				Tokyo_w1_2017	Water	"River water"	2017	11	15	2017-11-15T10:35			Cloudy	Asia	Japan	"Mouth of Riv. Arakawa (Koto Ward), Tokyo"	35.64583333		139.8463889														15.2	14.4	7.8	8.8	1,500			19		1.3	"Grayish yellow green"																			2019/09/13	2019/09/13
PRA000097	SAA006306	ST015				Tokyo_w2_2017	Water	"River water"	2017	11	15	2017-11-15T12:55			Fair	Asia	Japan	"Mouth of Riv. Sumida (Minato Ward), Tokyo"	35.66		139.7705556														18.3	18.6	8.2	5.4	4,000			4		2.9	"Dark green"																			2019/09/13	2019/09/13
PRA000097	SAA006307	ST014				YokohamaCity_w3_2017	Water	"Sea water"	2017	11	6	2017-11-06T09:50			Fair	Asia	Japan	"Yokohama Port, Kanagawa"	35.45555556		139.6636111														19	16.7	8	6.9				7.8		12	Clear																			2019/9/13	2019/9/13
PRA000097	SAA006308	ST015				YokohamaCity_w1_2017	Water	"River water"	2017	11	9	2017-11-09T09:50			Fair	Asia	Japan	"Kamenoko-bashi Bridge, Riv. Tsurumi (Yokohama City), Kanagawa"	35.514622		139.607871														13	18	7.2	7.7	36			2.1			Clear																			2019/09/13	2019/09/13
PRA000097	SAA006309	ST015				KawasakiCity_w1_2017	Water	"River water"	2017	11	13	2017-11-13T12:15			Fair	Asia	Japan	"Mouth of Riv. Tama (Kawasaki City), Kanagawa"	35.53		139.7836111														17.7	15.8	7.8	6.5	3,600			3.9		2.1	"Grayish green"																			2019/09/13	2019/09/13
PRA000097	SAA006310	ST014				KawasakiCity_w2_2017	Water	"Sea water"	2017	11	13	2017-11-13T10:30			Fair	Asia	Japan	"Keihin Canal, Kawasaki Port, Kanagawa (front of Ogimachi)"	35.49527778		139.7277778														18	18.6	8	5	4,500			3.5		5	"Greenish blue"																			2019/09/13	2019/09/13
PRA000097	SAA006311	ST014				KawasakiCity_w3_2017	Water	"Sea water"	2017	11	13	2017-11-13T11:30			Fair	Asia	Japan	"Keihin Canal, Kawasaki Port, Kanagawa, (front of Chidorimachi)"	35.50444444		139.7533333														18	19.3	8	6.2	4,600			3.1		4.5	"Greenish blue"																			2019/09/13	2019/09/13
PRA000097	SAA006312	ST015				Niigata_w2_2017	Water	"River water"	2017	10	11	2017-10-11T09:20			Cloudy	Asia	Japan	"Downstream of Riv. Shinano (Niigata City), Niigata"	37.88305556		139.0155556														23	19	7	8.8	16			26			"Light Gray"																			2019/09/13	2019/09/13
PRA000097	SAA006313	ST015				Niigata_w6_2017	Water	"River water"	2017	9	27	2017-09-27T10:30			Fair	Asia	Japan	"Nakagawashinmichi-bashi bridge, Riv. Shibue, Myoko City, Niigata"	37.03944444		138.2636111														28.7	21.6	7.2	9.4	46			2			Gray																			2019/9/13	2019/9/13
PRA000097	SAA006314	ST015				Toyama_w5_2017	Water	"River water"	2017	11	9	2017-11-09T09:50			Cloudy	Asia	Japan	"Ishida-bashi Bridge, Riv. Kurose (Kurobe City), Toyama"	36.8625		137.4213889														14.4	12.3	7.3	10	14			13			Clear																			2019/9/13	2019/9/13
PRA000097	SAA006315	ST015				Toyama_w2_2017	Water	"River water"	2017	11	9	2017-11-09T11:30			Fair	Asia	Japan	"Hagiura-bashi Bridge, Mouth of Riv. Jintsu (Toyama City), Toyama"	36.745		137.2180556														18	13	7.4	10	58			2			Clear																			2019/09/13	2019/09/13
PRA000097	SAA006316	ST015				Ishikawa_w1_2017	Water	"River water"	2017	10	11	2017-10-11T09:50			Cloudy	Asia	Japan	"Mouth of Riv. Sai (Kanazawa City), Ishikawa"	36.60027778		136.5888889														25.7	21.8	7.3	7.3	200			1			Clear																			2019/09/13	2019/09/13
PRA000097	SAA006317	ST015				Nagano_w2_2017	Water	"Lake water"	2017	11	13	2017-11-13T10:27			Fair	Asia	Japan	"Center of Lake Suwa, Nagano"	36.05		138.0861111														12.3	10.4	7.1	11	14			8		1.02	"Light Yellow green"																			2019/9/13	2019/9/13
PRA000097	SAA006318	ST015				Nagano_w3_2017	Water	"River water"	2017	11	14	2017-11-14T09:50			Cloudy	Asia	Japan	"Tategahana-bashi Bridge, Riv. Shinano (Nakano City), Nagano"	36.73194444		138.3083333														12	10.1	7.2	11	18			8			Clear																			2019/09/13	2019/09/13
PRA000097	SAA006319	ST014				Shizuoka_w2_2017	Water	"Sea water"	2017	11	8	2017-11-08T09:30			Rain	Asia	Japan	"Shimizu Port, Shizuoka"	35.02416667		138.5161111														18.5	20.8	8.3	8.4	4,700			7		4.5	Clear																			2019/9/13	2019/9/13
PRA000097	SAA006320	ST015				Shizuoka_w1_2017	Water	"River water"	2017	10	5	2017-10-05T10:55			Cloudy	Asia	Japan	"Riv. Tenryu (Iwata City), Shizuoka"	34.67916667		137.7961111														20.6	19.8	7.3	9.8	12			7			Clear																			2019/09/13	2019/09/13
PRA000097	SAA006321	ST015				Shizuoka_w4_2017	Water	"River water"	2017	10	5	2017-10-05T09:50			Cloudy	Asia	Japan	"Nagano-bashi bridge, Riv. Boso, Iwata City, Shizuoka"	34.67777778		137.8408333														19.7	19.3	7.1	3.3	63			4			Clear																			2019/9/13	2019/9/13
PRA000097	SAA006322	ST014				Aichi_w2-1_2017	Water	"Sea water"	2017	11	13	2017-11-13T12:35			Cloudy	Asia	Japan	"Nagoya Port, West of Shiomi Wharf, Aichi"	35.07111111		136.8691667														15.7	18.3	8.1	5.3	4,200			2		2.8	"Light Green"																			2019/09/13	2019/11/18
PRA000097	SAA006323	ST015				Aichi_w1_2017	Water	"River water"	2017	11	10	2017-11-10T10:25			Fair	Asia	Japan	"Sakai-ohashi Bridge, Riv. Aizuma (Kariya City), Aichi"	35.00833333		136.9891667														18.5	16	7.4	6.1	890			9			"Light yellow green"																			2019/9/13	2019/9/13
PRA000097	SAA006324	ST015				NagoyaCity_w1_2017	Water	"River water"	2017	10	18	2017-10-18T10:40			Fair	Asia	Japan	"Minatoshinbashi Bridge, Riv. Hori (Nagoya City), Aichi"	35.09805556		136.8925														20.8	21.7	7.6	1.6				5.5			"Grayish green"																			2019/9/13	2019/9/13
PRA000097	SAA006325	ST015				NagoyaCity_w4_2017	Water	"River water"	2017	10	18	2017-10-18T09:50			Fair	Asia	Japan	"Tenpaku-bashi bridge, Riv. Tenpaku, Nagoya City, Aichi"	35.115		136.9613889														19.8	18.4	8.3	9.8				2			Clear																			2019/9/13	2019/9/13
PRA000097	SAA006326	ST014				Mie_w1_2017	Water	"Sea water"	2017	10	24	2017-10-24T10:20			Cloudy	Asia	Japan	"Yokkaichi Port, Mie"	34.94944444		136.6530556														17	16	7.7	7.8	1,600			5		1.2	"Grayish green"																			2019/9/13	2019/9/13
PRA000097	SAA006327	ST015				Shiga_w1-1_2017	Water	"Lake water"	2017	10	11	2017-10-11T09:50			Fair	Asia	Japan	"Lake Biwa (center, offshore of Minamihira), Shiga"	35.18527778		135.9733333														26.5	22.5	8	9.2	13			<1		6.2	"Dark Green"																			2019/09/13	2019/09/13
PRA000097	SAA006328	ST015				Shiga_w1-2_2017	Water	"Lake water"	2017	12	18	2017-12-18T09:20			Fair	Asia	Japan	"Lake Biwa (center, offshore of Minamihira), Shiga"	35.18527778		135.9733333														7.3	10.8	7.6	10	12			1.1		6.8	"Dark Green"																			2019/09/13	2019/09/13
PRA000097	SAA006329	ST015				Shiga_w2-1_2017	Water	"Lake water"	2017	10	11	2017-10-11T11:05			Fair	Asia	Japan	"Lake Biwa (center, offshore of Karasaki), Shiga"	35.04611111		135.8955556														29.8	23.3	8	9.3	14			1		3.7	"Dark Yellow green"																			2019/09/13	2019/09/13
PRA000097	SAA006330	ST015				Shiga_w2-2_2017	Water	"Lake water"	2017	12	18	2017-12-18T13:40			Fair	Asia	Japan	"Lake Biwa (center, offshore of Karasaki), Shiga"	35.04611111		135.8955556														7.8	6.7	7.7	13	12			4.3		2.3	"Dark Yellow green"																			2019/09/13	2019/09/13
PRA000097	SAA006331	ST014				Kyoto_w1_2017	Water	"Sea water"	2017	10	19	2017-10-19T10:15			"Cloudy with occasional rain"	Asia	Japan	"Miyazu Port, Kyoto"	35.58305556		135.2138889														17.7	21.5	8.5	7.5				2		6	Clear																			2019/9/13	2019/9/13
PRA000097	SAA006332	ST015				Osaka_w1_2017	Water	"River water"	2017	11	7	2017-11-07T09:40			Fair	Asia	Japan	"Mouth of Riv. Yamato (Sakai City), Osaka"	34.60833333		135.4325														18.5	18.7	7.8	9.6				3		1.5	Clear																			2019/09/13	2019/09/13
PRA000097	SAA006333	ST015				OsakaCity_w1_2017	Water	"River water"	2017	12	5	2017-12-05T10:15			Cloudy	Asia	Japan	"Kema-bashi Bridge, Riv. Oh-kawa (Osaka City), Osaka"	34.717760		135.519610														8.6	11	7.4	11	16			5			"Light Grayish yellow"																			2019/09/13	2019/09/13
PRA000097	SAA006334	ST014				OsakaCity_w2_2017	Water	"Sea water"	2017	12	20	2017-12-20T08:10			Fair	Asia	Japan	"Osaka Port, Osaka"	34.65861111		135.4313889														8	9.2	7.8	9.9	1,800			2		3.5	"Grayish yellow"																			2019/9/13	2019/9/13
PRA000097	SAA006335	ST014				Hyogo_w3_2017	Water	"Sea water"	2017	10	11	2017-10-11T10:27			Cloudy	Asia	Japan	"Offshore of Himeji, Hyogo"	34.76194444		134.6697222														25.4	25.5	8.2	7.2	4			5.8		5.1	"Greenish brown"																			2019/9/13	2019/9/13
PRA000097	SAA006336	ST015				Hyogo_w2_2017	Water	"River water"	2017	10	10	2017-10-10T11:30			Fair	Asia	Japan	"Manago-bashi Bridge, Riv. Hayashida (Taishi Town), Hyogo"	34.81472222		134.5572222														20.4	22.4	8.9	8	12			2			Clear																			2019/09/13	2019/09/13
PRA000097	SAA006337	ST014				Kobe_w1_2017	Water	"Sea water"	2017	11	1	2017-11-01T10:16			Fair	Asia	Japan	"Center of Kobe Port, Hyogo"	34.66444444		135.1944444														17	18.5	8	8				1		2.5	"Greenish brown"																			2019/9/13	2019/9/13
PRA000097	SAA006338	ST015				Wakayama_w1_2017	Water	"River water"	2017	11	7	2017-11-07T12:56			Cloudy	Asia	Japan	"Kinokawa-ohashi Bridge, Mouth of Riv. Kinokawa (Wakayama City), Wakayama"	34.23		135.1561111														21.7	18	7	8.4	1,500			7		1.2	"Yellow green"																			2019/9/13	2019/9/13
PRA000097	SAA006339	ST014				Wakayama_w2_2017	Water	"Sea water"	2017	11	6	2017-11-06T09:03			Fair	Asia	Japan	"Wakayama-Shimotsu Port (Hokko-ku), Wakayama"	34.23416667		135.1247222														14.3	21	8.3	7.5				2		4.9	"Blue green"																			2019/09/13	2019/09/13
PRA000097	SAA006340	ST014				Okayama_w2_2017	Water	"Sea water"	2017	10	31	2017-10-31T10:15			Fair	Asia	Japan	"Offshore of Mizushima, Okayama"	34.48055556		133.665														18.8	19.5	8	6.8	5,800			2		2.3	"Dark Green"																			2019/9/13	2019/9/13
PRA000097	SAA006341	ST015				Okayama_w1_2017	Water	"River water"	2017	11	8	2017-11-08T10:30			Cloudy	Asia	Japan	"Sasagase-bashi Bridge, Riv. Sasagase (Okayama City), Okayama"	34.61916667		133.9061111														16	15.2	7.4	8.8	20			5			"Dark Yellow green"																			2019/9/13	2019/9/13
PRA000097	SAA006342	ST014				Yamagachi_w1_2017	Water	"Sea water"	2017	10	5	2017-10-05T10:56			Fair	Asia	Japan	"Tokuyama Bay, Yamaguchi"	33.99361111		131.7505556														22	23	8.2	6.2				3.2		5.5	"Bluish green"																			2019/9/13	2019/9/13
PRA000097	SAA006343	ST014				Yamaguchi_w2_2017	Water	"Sea water"	2017	11	10	2017-11-10T10:17			Fair	Asia	Japan	"Offshore of Hagi, Yamaguchi"	34.43805556		131.3794444														15	20	8.4	7.6				1.4		9.5	"Bluish green"																			2019/9/13	2019/9/13
PRA000097	SAA006344	ST015				Tokushima_w2_2017	Water	"River water"	2017	10	17	2017-10-17T14:30			"Cloudy with occasional rain"	Asia	Japan	"Shinmachi-bashi bridge, Riv. Shinmachi, Tokushima City, Tokushima"	34.07166667		134.5483333														16	19.2	7.5	6.9	790			7.6			"Grayish green"																			2019/9/13	2019/9/13
PRA000097	SAA006345	ST014				Kagawa_w1_2017	Water	"Sea water"	2017	10	4	2017-10-04T08:55			Fair	Asia	Japan	"Takamatsu Port, Kagawa"	34.34972222		134.0788889														20.5	21.2	7.8	7.1				5		0.5	"Greenish brown"																			2019/9/13	2019/9/13
PRA000097	SAA006346	ST014				Ehime_w2_2017	Water	"Sea water"	2017	11	6	2017-11-06T10:23			Fair	Asia	Japan	"Sawazu Fishing Port, Ehime"	33.98388889		133.2911111														21	19.5	8	7	4,400			4.8		2	"Dark Yellow green"																			2019/9/13	2019/9/13
PRA000097	SAA006347	ST014				Fukuoka_w2_2017	Water	"Sea water"	2017	10	24	2017-10-24T11:00			Fair	Asia	Japan	"Offshore of Omuta, Fukuoka"	33.03472222		130.4113889														21	20.4	8.1	6.8	4,100			10		1.7	"Light Yellow"																			2019/9/13	2019/9/13
PRA000097	SAA006348	ST015				Fukuoka_w1_2017	Water	"River water"	2017	10	30	2017-10-30T11:40			"Cloudy, Fair later"	Asia	Japan	"Kabura-bashi Bridge, Riv. Raizan (Itoshima City), Fukuoka"	33.565		130.1902778														18.3	17.5	7.3	7.8	26			12			"Light Yellow"																			2019/9/13	2019/9/13
PRA000097	SAA006349	ST014				KitakyushuCity_w1_2017	Water	"Sea water"	2017	10	17	2017-10-17T09:25			Cloudy	Asia	Japan	"Dokai Bay (Kitakyushu City), Fukuoka"	33.90388889		130.8158333														18.4	21.3	7.8	6	4,300			2		3	Clear																			2019/09/13	2019/09/13
PRA000097	SAA006350	ST014				FukuokaCity_w1_2017	Water	"Sea water"	2017	10	31	2017-10-31T08:57			Fair	Asia	Japan	"Hakata Bay, Fukuoka"	33.60833333		130.3297222														17.6	19.1	8.1	8.5	4,700			3		2	"Dark Yellow green"																			2019/9/13	2019/9/13
PRA000097	SAA006351	ST014				Saga_w1_2017	Water	"Sea water"	2017	11	1	2017-11-01T10:30			Fair	Asia	Japan	"Imari Bay, Saga"	33.34		129.8208333														16.5	17.8	8.3	6.4	4,200			4		2.8	Green																			2019/9/13	2019/9/13
PRA000097	SAA006352	ST015				Kumamoto_w1_2017	Water	"River water"	2017	11	1	2017-11-01T13:25			Fair	Asia	Japan	"Hiraki-bashi Bridge, Riv. Midori (Uto City), Kumamoto"	32.71638889		130.6422222														23.3	18.6	7.7	8.1	110			40			"Light Brown"																			2019/09/13	2019/09/13
PRA000097	SAA006353	ST015				Kumamoto_w2_2017	Water	"River water"	2017	10	24	2017-10-24T10:09			Cloudy	Asia	Japan	"Ichibu-bashi Bridge, Riv. Ura (Arao City), Kumamoto"	32.96666667		130.4438889														20.5	17.6	7.8	9.2	130			4			Clear																			2019/9/13	2019/9/13
PRA000097	SAA006354	ST015				Oita_w2_2017	Water	"River water"	2017	11	14	2017-11-14T10:30			"Light rain"	Asia	Japan	"Mouth of Riv. Oita, Oita"	33.25722222		131.6175														15.1	16.5	7.8	9	1,500			2			"Grayish green"																			2019/9/13	2019/9/13
PRA000098	SAA006282	ST015				Hokkaido_w3_2017	Water	"River water"	2017	11	10	2017-11-10T13:40			Cloudy	Asia	Japan	"Ishikarikako-kyo Bridge, Mouth of Riv. Ishikari (Ishikari City), Hokkaido"	43.22861111		141.3519444														8.8	6.8	6.3	9.2	37			12			"Greyish brown"																			2019/09/13	2019/09/13
PRA000098	SAA006283	ST015				Hokkaido_w2_2017	Water	"River water"	2017	10	16	2017-10-16T12:30			Fair	Asia	Japan	"Suzuran-ohashi Bridge, Riv. Tokachi (Obihiro City), Hokkaido"	42.94583333		143.1855556														13.2	10.9	7	9.1	13			6			Clear																			2019/09/13	2019/09/13
PRA000098	SAA006284	ST015				Hokkaido_w4_2017	Water	"River water"	2017	9	26	2017-09-26T09:30			Cloudy	Asia	Japan	"Onnnenai-ohashi Bridge, Riv. Teshio (BifukaTown), Hokkaido"	44.59138889		142.3063889														16.3	16.6	7.5	9.5	7.7			19			Clear																			2019/09/13	2019/09/13
PRA000098	SAA006285	ST014				Hokkaido_w7_2017	Water	"Sea water"	2017	9	11	2017-09-11T10:45			Fair	Asia	Japan	"Tomakomai Port, Hokkaido"	42.63138889		141.6288889														19.5	19.5	8	9.5				6		3.5	"Greenish blue"																			2019/10/18	2019/10/18
PRA000098	SAA006286	ST014				Hokkaido_w8_2017	Water	"Sea water"	2017	12	6	2017-12-06T13:10			Cloudy	Asia	Japan	"Muroran port, Hokkaido"	42.34305556		140.9708333														-1.4	5.3	8.1	13.8				9																						2019/10/18	2019/10/18
PRA000098	SAA006289	ST015				Iwate_w1_2017	Water	"River water"	2017	10	4	2017-10-04T10:20			Cloudy	Asia	Japan	"Riv. Toyosawa (Hanamaki City), Iwate"	39.38166667		141.1191667														15	14.2	7.2	11	7.1			1			"Light Greenish brown"																			2019/09/13	2019/09/13
PRA000098	SAA006290	ST015				Miyagi_w1_2017	Water	"River water"	2017	10	31	2017-10-31T13:30			Fair	Asia	Japan	"Futatsuya-bashi Bridge, Riv. Hasama (Tome City), Miyagi"	38.57138889		141.2136111														15.1	13.1	7	10	11			21			"Light Yellow"																			2019/09/13	2019/09/13
PRA000098	SAA006291	ST015				Miyagi_w2_2017	Water	"River water"	2017	10	31	2017-10-31T10:05			Cloudy	Asia	Japan	"Sakura-hodoukyou Bridge, Riv. Shiroishi (Shibata Town), Miyagi"	38.06083333		140.7677778														13.3	12.5	7.1	10	9			9			"Light Yellow"																			2019/09/13	2019/09/13
PRA000098	SAA006292	ST015				Sendai_w1_2017	Water	"River water"	2017	11	14	2017-11-14T10:25			Cloudy	Asia	Japan	"Hirose-ohashi Bridge, Riv. Hirose (Sendai City), Miyagi"	38.21333333		140.9088889														13.9	9.7	7.5	12.5	15			<1			Clear																			2019/09/13	2019/09/13
PRA000098	SAA006293	ST015				Akita_w1_2017	Water	"River water"	2017	10	11	2017-10-11T12:58			Cloudy	Asia	Japan	"Akita Canal (Akita City), Akita"	39.75083333		140.0586111														17.6	18.1	6.7	8.6	202			3.1		2	"Dark Yellow green"																			2019/09/13	2019/09/13
PRA000098	SAA006456	ST015				Akita_w2_2017	Water	"River water"	2017	10	11	2017-10-11T10:25			Cloudy	Asia	Japan	"Taiheigawa-bashi Bridge, Riv. Taihei (Akita City), Akita"	39.702695		140.117855														17	15.3	7	9.1	14			3.1			"Yellowish brown"																			2019/10/18	2019/10/18
PRA000098	SAA006294	ST015				Yamagata_w1-1_2017	Water	"River water"	2017	10	18	2017-10-18T09:30			Fair	Asia	Japan	"Mouth of Riv. Mogami, Yamagata"	38.88722222		139.8433333														17.2	14.3	7	9.8	17			2			"Light Yellow"																			2019/10/18	2019/10/18
PRA000098	SAA006298	ST015				Ibaraki_w2_2017	Water	"River water"	2017	11	17	2017-11-17T10:17			Fair	Asia	Japan	"Kamome-ohasi Bridge, Mouth of Riv. Tone (Kamisu City), Ibaraki"	35.77638889		140.7569444														14.9	13	7.7	9.6	540			1.6			Clear																			2019/09/13	2019/09/13
PRA000098	SAA006299	ST015				Tochigi_w1_2017	Water	"River water"	2017	10	18	2017-10-18T11:10			Fair	Asia	Japan	"Tagawa area-Toshuko Weir (Utsunomiya City), Tochigi"	36.52805556		139.8855556														17	16	7.4	11	19			3			Clear																			2019/09/13	2019/09/13
PRA000098	SAA006457	ST015				Gunma_w4_2017	Water	"River water"	2017	10	5	2017-10-05T10:20			Fair	Asia	Japan	"Nakajima-bashi Bridge, Riv. Hirose (Isezaki City), Gunma"	36.26194444		139.2519444														17.5	16.5	7.7	9.8				6			Clear																			2019/10/18	2019/10/18
PRA000098	SAA006458	ST015				Gunma_w5_2017	Water	"River water"	2017	10	5	2017-10-05T11:00			Fair	Asia	Japan	"Izumi-ohashi Bridge, Riv. Kyuhaku (Ooizumi Town), Gunma"	36.25694		139.414263														21.3	20.6	7.4	8				3			Clear																			2019/10/18	2019/10/18
PRA000098	SAA006300	ST015				Saitama_w2_2017	Water	"River water"	2017	11	8	2017-11-08T10:15			Cloudy	Asia	Japan	"Akigase-Shusuizeki Weir, Riv. Ara (Shiki City), Saitama"	35.84055556		139.6044444														14.1	13.4	7.7	9.7	25			7			"Grayish green"																			2019/09/13	2019/09/13
PRA000098	SAA006459	ST015				Saitama_w5_2017	Water	"River water"	2017	11	8	2017-11-08T11:25			"Light rain"	Asia	Japan	"Shiki-ohashi Bridge, Riv. Yanase (Shiki City), Saitama"	35.82777778		139.5552778														14.9	19.3	7.3	7.4	33			<1			Clear																			2019/10/18	2019/10/18
PRA000098	SAA006460	ST015				Saitama_w6_2017	Water	"River water"	2017	11	8	2017-11-08T13:10			Cloudy	Asia	Japan	"Kachi-hashi Bridge, Riv. Ichino (Yoshimi Town), Saitama"	36.018246		139.47072														14.7	15.3	7.6	7.9	37			8			"Light Grayish yellow"																			2019/10/18	2019/10/18
PRA000098	SAA006301	ST015				SaitamaCity_w1_2017	Water	"River water"	2017	11	1	2017-11-01T09:20			Cloudy	Asia	Japan	"Nakadote-bashi Bridge, Riv. Kamo (Saitama City), Saitama"	35.855		139.6077778														12.3	14	7.2	8	35			26			"Grayish yellow"																			2019/09/13	2019/09/13
PRA000098	SAA006302	ST014				Chiba_w2-1_2017	Water	"Sea water"	2017	10	19	2017-10-19T09:40			Rain	Asia	Japan	"Ichihara-Anesaki Coast, Chiba"	35.52166667		140.0283333														12.7	20.6	7.9	8.4	4,500			1.8		5.8	"Dark green"																			2019/10/18	2019/10/18
PRA000098	SAA006303	ST014				Chiba_w2-2_2017	Water	"Sea water"	2017	11	1	2017-11-01T11:33			Fair	Asia	Japan	"Ichihara-Anesaki Coast, Chiba"	35.52166667		140.0283333														15.9	18.9	8	9.9	3,800			2.1		4.2	"Light green"																			2019/10/18	2019/10/18
PRA000098	SAA006304	ST015				Chiba_w1_2017	Water	"River water"	2017	10	11	2017-10-11T09:25			"Slightly cloudy"	Asia	Japan	"Asai-bashi Bridge, Riv. Yourou (Ichihara City), Chiba"	35.46722222		140.1155556														26.5	21.8	7.9	8.4				10			"Yellow green"																			2019/10/18	2019/10/18
PRA000098	SAA006305	ST015				Tokyo_w1_2017	Water	"River water"	2017	11	15	2017-11-15T10:35			Cloudy	Asia	Japan	"Mouth of Riv. Arakawa (Koto Ward), Tokyo"	35.64583333		139.8463889														15.2	14.4	7.8	8.8	1,500			19		1.3	"Grayish yellow green"																			2019/09/13	2019/09/13
PRA000098	SAA006306	ST015				Tokyo_w2_2017	Water	"River water"	2017	11	15	2017-11-15T12:55			Fair	Asia	Japan	"Mouth of Riv. Sumida (Minato Ward), Tokyo"	35.66		139.7705556														18.3	18.6	8.2	5.4	4,000			4		2.9	"Dark green"																			2019/09/13	2019/09/13
PRA000098	SAA006307	ST014				YokohamaCity_w3_2017	Water	"Sea water"	2017	11	6	2017-11-06T09:50			Fair	Asia	Japan	"Yokohama Port, Kanagawa"	35.45555556		139.6636111														19	16.7	8	6.9				7.8		12	Clear																			2019/10/18	2019/10/18
PRA000098	SAA006308	ST015				YokohamaCity_w1_2017	Water	"River water"	2017	11	9	2017-11-09T09:50			Fair	Asia	Japan	"Kamenoko-bashi Bridge, Riv. Tsurumi (Yokohama City), Kanagawa"	35.514622		139.607871														13	18	7.2	7.7	36			2.1			Clear																			2019/09/13	2019/09/13
PRA000098	SAA006309	ST015				Kawasaki_w1_2017	Water	"River water"	2017	11	13	2017-11-13T12:15			Fair	Asia	Japan	"Mouth of Riv. Tama (Kawasaki City), Kanagawa"	35.53		139.7836111														17.7	15.8	7.8	6.5	3,600			3.9		2.1	"Grayish green"																			2019/10/18	2019/10/18
PRA000098	SAA006310	ST014				Kawasaki_w2_2017	Water	"Sea water"	2017	11	13	2017-11-13T10:30			Fair	Asia	Japan	"Keihin Canal, Kawasaki Port, Kanagawa (front of Ogimachi)"	35.49527778		139.7277778														18	18.6	8	5	4,500			3.5		5	"Greenish blue"																			2019/10/18	2019/10/18
PRA000098	SAA006311	ST014				Kawasaki_w3_2017	Water	"Sea water"	2017	11	13	2017-11-13T11:30			Fair	Asia	Japan	"Keihin Canal, Kawasaki Port, Kanagawa, (front of Chidorimachi)"	35.50444444		139.7533333														18	19.3	8	6.2	4,600			3.1		4.5	"Greenish blue"																			2019/10/18	2019/10/18
PRA000098	SAA006312	ST015				Niigata_w2_2017	Water	"River water"	2017	10	11	2017-10-11T09:20			Cloudy	Asia	Japan	"Downstream of Riv. Shinano (Niigata City), Niigata"	37.88305556		139.0155556														23	19	7	8.8	16			26			"Light Gray"																			2019/09/13	2019/09/13
PRA000098	SAA006314	ST015				Toyama_w5_2017	Water	"River water"	2017	11	9	2017-11-09T09:50			Cloudy	Asia	Japan	"Ishida-bashi Bridge, Riv. Kurose (Kurobe City), Toyama"	36.8625		137.4213889														14.4	12.3	7.3	10	14			13			Clear																			2019/10/18	2019/10/18
PRA000098	SAA006315	ST015				Toyama_w2_2017	Water	"River water"	2017	11	9	2017-11-09T11:30			Fair	Asia	Japan	"Hagiura-bashi Bridge, Mouth of Riv. Jintsu (Toyama City), Toyama"	36.745		137.2180556														18	13	7.4	10	58			2			Clear																			2019/09/13	2019/09/13
PRA000098	SAA006316	ST015				Ishikawa_w1_2017	Water	"River water"	2017	10	11	2017-10-11T09:50			Cloudy	Asia	Japan	"Mouth of Riv. Sai (Kanazawa City), Ishikawa"	36.60027778		136.5888889														25.7	21.8	7.3	7.3	200			1			Clear																			2019/09/13	2019/09/13
PRA000098	SAA006317	ST015				Nagano_w2_2017	Water	"Lake water"	2017	11	13	2017-11-13T10:27			Fair	Asia	Japan	"Center of Lake Suwa, Nagano"	36.05		138.0861111														12.3	10.4	7.1	11	14			8		1.02	"Light Yellow green"																			2019/10/18	2019/10/18
PRA000098	SAA006318	ST015				Nagano_w3_2017	Water	"River water"	2017	11	14	2017-11-14T09:50			Cloudy	Asia	Japan	"Tategahana-bashi Bridge, Riv. Shinano (Nakano City), Nagano"	36.73194444		138.3083333														12	10.1	7.2	11	18			8			Clear																			2019/09/13	2019/09/13
PRA000098	SAA006319	ST014				Shizuoka_w2_2017	Water	"Sea water"	2017	11	8	2017-11-08T09:30			Rain	Asia	Japan	"Shimizu Port, Shizuoka"	35.02416667		138.5161111														18.5	20.8	8.3	8.4	4,700			7		4.5	Clear																			2019/10/18	2019/10/18
PRA000098	SAA006320	ST015				Shizuoka_w1_2017	Water	"River water"	2017	10	5	2017-10-05T10:55			Cloudy	Asia	Japan	"Riv. Tenryu (Iwata City), Shizuoka"	34.67916667		137.7961111														20.6	19.8	7.3	9.8	12			7			Clear																			2019/09/13	2019/09/13
PRA000098	SAA006321	ST015				Shizuoka_w4_2017	Water	"River water"	2017	10	5	2017-10-05T09:50			Cloudy	Asia	Japan	"Nagano-bashi Bridge, Riv. Boso, Iwata City, Shizuoka"	34.67777778		137.8408333														19.7	19.3	7.1	3.3	63			4			Clear																			2019/10/18	2019/10/18
PRA000098	SAA006461	ST015				Shizuoka_w5_2017	Water	"River water"	2017	10	5	2017-10-05T10:00			Cloudy	Asia	Japan	"Shinkawa-bashi Bridge Riv. Hou (Hamamatsu City), Shizuoka"	34.69194444		137.7633333														20.6	19.6	7	7.3	88			4			"Light Brown"																			2019/10/18	2019/10/18
PRA000098	SAA006322	ST014				Aichi_w2-1_2017	Water	"Sea water"	2017	11	13	2017-11-13T12:35			Cloudy	Asia	Japan	"Nagoya Port, West of Shiomi Wharf, Aichi"	35.07111111		136.8691667														15.7	18.3	8.1	5.3	4,200			2		2.8	"Light Green"																			2019/09/13	2019/11/18
PRA000098	SAA006324	ST015				NagoyaCity_w1_2017	Water	"River water"	2017	10	18	2017-10-18T10:40			Fair	Asia	Japan	"Minatoshinbashi Bridge, Riv. Hori (Nagoya City), Aichi"	35.09805556		136.8925														20.8	21.7	7.6	1.6				5.5			"Grayish green"																			2019/10/18	2019/10/18
PRA000098	SAA006326	ST014				Mie_w1_2017	Water	"Sea water"	2017	10	24	2017-10-24T10:20			Cloudy	Asia	Japan	"Yokkaichi Port, Mie"	34.94944444		136.6530556														17	16	7.7	7.8	1,600			5		1.2	"Grayish green"																			2019/10/18	2019/10/18
PRA000098	SAA006462	ST014				Mie_w2_2017	Water	"Sea water"	2017	10	17	2017-10-17T10:50			Rain	Asia	Japan	"Toba Port, Mie"	34.48083333		136.8486111														16.5	18	7.7	8	1300			2.8		2.1	"Grayish green"																			2019/10/18	2019/10/18
PRA000098	SAA006328	ST015				Shiga_w1-2_2017	Water	"Lake water"	2017	12	18	2017-12-18T09:20			Fair	Asia	Japan	"Lake Biwa (center, offshore of Minamihira), Shiga"	35.18527778		135.9733333														7.3	10.8	7.6	10	12			1.1		6.8	"Dark Green"																			2019/09/13	2019/09/13
PRA000098	SAA006330	ST015				Shiga_w2-2_2017	Water	"Lake water"	2017	12	18	2017-12-18T13:40			Fair	Asia	Japan	"Lake Biwa (center, offshore of Karasaki), Shiga"	35.04611111		135.8955556														7.8	6.7	7.7	13	12			4.3		2.3	"Dark Yellow green"																			2019/09/13	2019/09/13
PRA000098	SAA006331	ST014				Kyoto_w1_2017	Water	"Sea water"	2017	10	19	2017-10-19T10:15			"Cloudy with occasional rain"	Asia	Japan	"Miyazu Port, Kyoto"	35.58305556		135.2138889														17.7	21.5	8.5	7.5				2		6	Clear																			2019/10/18	2019/10/18
PRA000098	SAA006463	ST015				Kyoto_w3_2017	Water	"River water"	2017	10	5	2017-10-05T10:30			Cloudy	Asia	Japan	"Gokou-bashi Bridge, Riv. Kizu (Yawata City), Kyoto"	34.88972222		135.6994444														20	19.8	7.7	8.8	12			3			Clear																			2019/10/18	2019/10/18
PRA000098	SAA006464	ST015				Kyoto_w2_2017	Water	"River water"	2017	11	29	2017-11-29T09:58			Cloudy	Asia	Japan	"Miyamae-bashi Bridge, Riv. Katsura (Kyoto City), Kyoto"	34.905		135.7125														13.3	12.7	7.3	9.4	17			3.5			Clear																			2019/10/18	2019/10/18
PRA000098	SAA006332	ST015				Osaka_w1_2017	Water	"River water"	2017	11	7	2017-11-07T09:40			Fair	Asia	Japan	"Mouth of Riv. Yamato (Sakai City), Osaka"	34.60833333		135.4325														18.5	18.7	7.8	9.6				3		1.5	Clear																			2019/09/13	2019/09/13
PRA000098	SAA006333	ST015				OsakaCity_w1_2017	Water	"River water"	2017	12	5	2017-12-05T10:15			Cloudy	Asia	Japan	"Kema-bashi Bridge, Riv. Oh-kawa (Osaka City), Osaka"	34.717760		135.519610														8.6	11	7.4	11	16			5			"Light Grayish yellow"																			2019/09/13	2019/09/13
PRA000098	SAA006334	ST014				OsakaCity_w2_2017	Water	"Sea water"	2017	12	20	2017-12-20T08:10			Fair	Asia	Japan	"Osaka Port, Osaka"	34.65861111		135.4313889														8	9.2	7.8	9.9	1,800			2		3.5	"Grayish yellow"																			2019/10/18	2019/10/18
PRA000098	SAA006335	ST014				Hyogo_w3_2017	Water	"Sea water"	2017	10	11	2017-10-11T10:27			Cloudy	Asia	Japan	"Offshore of Himeji, Hyogo"	34.76194444		134.6697222														25.4	25.5	8.2	7.2	4			5.8		5.1	"Greenish brown"																			2019/10/18	2019/10/18
PRA000098	SAA006336	ST015				Hyogo_w2_2017	Water	"River water"	2017	10	10	2017-10-10T11:30			Fair	Asia	Japan	"Manago-bashi Bridge, Riv. Hayashida (Taishi Town), Hyogo"	34.81472222		134.5572222														20.4	22.4	8.9	8	12			2			Clear																			2019/09/13	2019/09/13
PRA000098	SAA006465	ST015				Hyogo_w7_2017	Water	"River water"	2017	10	31	2017-10-31T10:15			Fair	Asia	Japan	"Tachino-ohashi Bridge, Riv. Maruyama (Toyooka City), Hyogo"	35.54361111		134.83														14.2	14.8	8.9	9.3	12			<2			Clear																			2019/10/18	2019/10/18
PRA000098	SAA006337	ST014				Kobe_w1_2017	Water	"Sea water"	2017	11	1	2017-11-01T10:16			Fair	Asia	Japan	"Center of Kobe Port, Hyogo"	34.66444444		135.1944444														17	18.5	8	8				1		2.5	"Greenish brown"																			2019/10/18	2019/10/18
PRA000098	SAA006466	ST015				Nara_w1_2017	Water	"River water"	2017	10	12	2017-10-12T10:30			Rain	Asia	Japan	"Taisho-bashi Bridge, Riv. Yamato (Oji town), Nara"	34.58583333		135.6833333														21	22.5	7.7	6.8	34			8			"Light Yellowish brown"																			2019/10/18	2019/10/18
PRA000098	SAA006338	ST015				Wakayama_w1_2017	Water	"River water"	2017	11	7	2017-11-07T12:56			Cloudy	Asia	Japan	"Kinokawa-ohashi Bridge, Mouth of Riv. Kinokawa (Wakayama City), Wakayama"	34.23		135.1561111														21.7	18	7	8.4	1,500			7		1.2	"Yellow green"																			2019/10/18	2019/10/18
PRA000098	SAA006467	ST014				Wakayama_w4_2017	Water	"Sea water"	2017	11	7	2017-11-07T11:04			Cloudy	Asia	Japan	"Wakayama-Shimotsu Port (Honko-ku) , Wakayama"	34.21777778		135.1416667														21.2	21	7.7	6.6	4500			2		4	Green																			2019/10/18	2019/10/18
PRA000098	SAA006468	ST015				Wakayama_w5_2017	Water	"River water"	2017	11	13	2017-11-13T12:50			Fair	Asia	Japan	"Hotai-seki Weir, Riv. Arida (Arida City), Wakayama"	34.07555556		135.1661111														22	15.8	7	10	10			3			"Yellow green"																			2019/10/18	2019/10/18
PRA000098	SAA006469	ST015				Wakayama_w6_2017	Water	"River water"	2017	11	13	2017-11-13T10:20			Fair	Asia	Japan	"Shinzaike-bashi Bridge, Riv. Daimon (Wakayama City), Wakayama"	34.239904		135.198343														19	14.9	7.2	8.1	78			1			Clear																			2019/10/18	2019/10/18
PRA000098	SAA006340	ST014				Okayama_w2_2017	Water	"Sea water"	2017	10	31	2017-10-31T10:15			Fair	Asia	Japan	"Offshore of Mizushima, Okayama"	34.48055556		133.665														18.8	19.5	8	6.8	5,800			2		2.3	"Dark Green"																			2019/10/18	2019/10/18
PRA000098	SAA006341	ST015				Okayama_w1_2017	Water	"River water"	2017	11	8	2017-11-08T10:30			Cloudy	Asia	Japan	"Sasagase-bashi Bridge, Riv. Sasagase (Okayama City), Okayama"	34.61916667		133.9061111														16	15.2	7.4	8.8	20			5			"Dark Yellow green"																			2019/10/18	2019/10/18
PRA000098	SAA006342	ST014				Yamagachi_w1_2017	Water	"Sea water"	2017	10	5	2017-10-05T10:56			Fair	Asia	Japan	"Tokuyama Bay, Yamaguchi"	33.99361111		131.7505556														22	23	8.2	6.2				3.2		5.5	"Bluish green"																			2019/10/18	2019/10/18
PRA000098	SAA006343	ST014				Yamaguchi_w2_2017	Water	"Sea water"	2017	11	10	2017-11-10T10:17			Fair	Asia	Japan	"Offshore of Hagi, Yamaguchi"	34.43805556		131.3794444														15	20	8.4	7.6				1.4		9.5	"Bluish green"																			2019/10/18	2019/10/18
PRA000098	SAA006345	ST014				Kagawa_w1_2017	Water	"Sea water"	2017	10	4	2017-10-04T08:55			Fair	Asia	Japan	"Takamatsu Port, Kagawa"	34.34972222		134.0788889														20.5	21.2	7.8	7.1				5		0.5	"Greenish brown"																			2019/10/18	2019/10/18
PRA000098	SAA006346	ST014				Ehime_w2_2017	Water	"Sea water"	2017	11	6	2017-11-06T10:23			Fair	Asia	Japan	"Sawazu Fishing Port, Ehime"	33.98388889		133.2911111														21	19.5	8	7	4,400			4.8		2	"Dark Yellow green"																			2019/10/18	2019/10/18
PRA000098	SAA006347	ST014				Fukuoka_w2_2017	Water	"Sea water"	2017	10	24	2017-10-24T11:00			Fair	Asia	Japan	"Offshore of Omuta, Fukuoka"	33.03472222		130.4113889														21	20.4	8.1	6.8	4,100			10		1.7	"Light Yellow"																			2019/10/18	2019/10/18
PRA000098	SAA006348	ST015				Fukuoka_w1_2017	Water	"River water"	2017	10	30	2017-10-30T11:40			"Cloudy, Fair later"	Asia	Japan	"Kabura-bashi Bridge, Riv. Raizan (Itoshima City), Fukuoka"	33.565		130.1902778														18.3	17.5	7.3	7.8	26			12			"Light Yellow"																			2019/10/18	2019/10/18
PRA000098	SAA006349	ST014				KitakyushuCity_w1_2017	Water	"Sea water"	2017	10	17	2017-10-17T09:25			Cloudy	Asia	Japan	"Dokai Bay (Kitakyushu City), Fukuoka"	33.90388889		130.8158333														18.4	21.3	7.8	6	4,300			2		3	Clear																			2019/09/13	2019/09/13
PRA000098	SAA006350	ST014				FukuokaCity_w1_2017	Water	"Sea water"	2017	10	31	2017-10-31T08:57			Fair	Asia	Japan	"Hakata Bay, Fukuoka"	33.60833333		130.3297222														17.6	19.1	8.1	8.5	4,700			3		2	"Dark Yellow green"																			2019/10/18	2019/10/18
PRA000098	SAA006351	ST014				Saga_w1_2017	Water	"Sea water"	2017	11	1	2017-11-01T10:30			Fair	Asia	Japan	"Imari Bay, Saga"	33.34		129.8208333														16.5	17.8	8.3	6.4	4,200			4		2.8	Green																			2019/10/18	2019/10/18
PRA000098	SAA006352	ST015				Kumamoto_w1_2017	Water	"River water"	2017	11	1	2017-11-01T13:25			Fair	Asia	Japan	"Hiraki-bashi Bridge, Riv. Midori (Uto City), Kumamoto"	32.71638889		130.6422222														23.3	18.6	7.7	8.1	110			40			"Light Brown"																			2019/09/13	2019/09/13
PRA000098	SAA006470	ST014				Kumamoto_w3_2017	Water	"Sea water"	2017	10	5	2017-10-05T07:50			Cloudy	Asia	Japan	"Ushibuka Port, Yatsushiro Sea, Kumamoto"	32.19361111		130.0352778														21.4	22.6	8.2	6.8	4700			1		10.7	"Bluish green"																			2019/10/18	2019/10/18
PRA000098	SAA006354	ST015				Oita_w2_2017	Water	"River water"	2017	11	14	2017-11-14T10:30			"Light rain"	Asia	Japan	"Mouth of Riv. Oita, Oita"	33.25722222		131.6175														15.1	16.5	7.8	9	1,500			2			"Grayish green"																			2019/10/18	2019/10/18
PRA000098	SAA006471	ST015				Miyazaki_w4_2017	Water	"River water"	2017	11	10	2017-11-10T11:00			Fair	Asia	Japan	"Torigakubo-bashi Bridge, Riv. Tsujinodo (Kobayashi City), Miyazaki"	31.975		130.9838889														21.5	18.1	7.5	11	21			<1			Clear																			2019/10/18	2019/10/18
PRA000098	SAA006472	ST015				Miyazaki_w3_2017	Water	"River water"	2017	10	4	2017-10-04T10:37			Fair	Asia	Japan	"Mouth of Riv. Oyodo (Miyazaki City), Miyazaki"	31.89611111		131.4402778														24.5	22.2	7.5	8.2	460			25			Clear																			2019/10/18	2019/10/18
PRA000098	SAA006473	ST015				Okinawa_w2_2015	Water	"River water"	2017	10	2	2017-10-02T09:43			Fair	Asia	Japan	"Ryuto-bashi Bridge, Riv. Ngado (Haebaru Town), Okinawa"	26.190184		127.707745														29.5	29	8	11	2100			26.4			"Yellowish red"																			2019/10/18	2019/10/18
PRA000099	SAA006282	ST015				Hokkaido_w3_2017	Water	"River water"	2017	11	10	2017-11-10T13:40			Cloudy	Asia	Japan	"Ishikarikako-kyo Bridge, Mouth of Riv. Ishikari (Ishikari City), Hokkaido"	43.22861111		141.3519444														8.8	6.8	6.3	9.2	37			12			"Grayish brown"																			2019/09/13	2019/09/13
PRA000099	SAA006289	ST015				Iwate_w1_2017	Water	"River water"	2017	10	4	2017-10-04T10:20			Cloudy	Asia	Japan	"Riv. Toyosawa (Hanamaki City), Iwate"	39.38166667		141.1191667														15	14.2	7.2	11	7.1			1			"Light Greenish brown"																			2019/09/13	2019/09/13
PRA000099	SAA006605	ST014				Miyagi_w3_2017	Water	"Sea water"	2017	10	17	2017-10-17T10:20			Fair	Asia	Japan	"Sendai Bay (Matsushima Bay), Miyagi"	38.35333333		141.0975														21.4	16.4	7.9	6.7	4,200			2		1	Clear																			2019/11/28	2019/11/28
PRA000099	SAA006606	ST015				Akita_w3_2017	Water	"Lake water"	2017	9	22	2017-09-22T09:53			Fair	Asia	Japan	"Lake Hachiro, Akita"	39.92277778		139.9988889														21.3	21.3	8.2	10	18			21		0.4	"Light Greenish brown"																			2019/11/28	2019/11/28
PRA000099	SAA006294	ST015				Yamagata_w1-1_2017	Water	"River water"	2017	10	18	2017-10-18T09:30			Fair	Asia	Japan	"Mouth of Riv. Mogami, Yamagata"	38.88722222		139.8433333														17.2	14.3	7	9.8	17			2			"Light Yellow"																			2019/9/18	2019/11/28
PRA000099	SAA006607	ST014				Fukushima_w1_2017	Water	"Sea water"	2017	10	11	2017-10-11T10:10			Cloudy	Asia	Japan	"Onahama Port, Fukushima"	36.92472222		140.8752778														19.8	20.5	8.1	7.3	4,800			2		6	"Bluish green"																			2019/11/28	2019/11/28
PRA000099	SAA006298	ST015				Ibaraki_w2_2017	Water	"River water"	2017	11	17	2017-11-17T10:17			Fair	Asia	Japan	"Kamome-ohasi Bridge, Mouth of Riv. Tone (Kamisu City), Ibaraki"	35.77638889		140.7569444														14.9	13	7.7	9.6	540			1.6			Clear																		"SS: 2 mg/L (for Monitoring)"	2019/09/13	2019/09/13
PRA000099	SAA006299	ST015				Tochigi_w1_2017	Water	"River water"	2017	10	18	2017-10-18T11:10			Fair	Asia	Japan	"Tagawa area-Toshuko Weir (Utsunomiya City), Tochigi"	36.52805556		139.8855556														17	16	7.4	11	19			3			Clear																		"DO: 10.7 mg/L (for Monitoring)"	2019/09/13	2019/09/13
PRA000099	SAA006300	ST015				Saitama_w2_2017	Water	"River water"	2017	11	8	2017-11-08T10:15			Cloudy	Asia	Japan	"Akigase-Shusuizeki Weir, Riv. Ara (Shiki City), Saitama"	35.84055556		139.6044444														14.1	13.4	7.7	9.7	25			7			"Grayish green"																			2019/09/13	2019/09/13
PRA000099	SAA006608	ST015				ChibaCity_w1_2017	Water	"River water"	2017	11	13	2017-11-13T10:25			Fair	Asia	Japan	"Mouth of Riv. Hanami (Chiba City), Chiba"	35.63472222		140.04694440														13.5	17.5	8.1	7.9	3,400			3			Clear																			2019/11/28	2019/11/28
PRA000099	SAA006305	ST015				Tokyo_w1_2017	Water	"River water"	2017	11	15	2017-11-15T10:35			Cloudy	Asia	Japan	"Mouth of Riv. Arakawa (Koto Ward), Tokyo"	35.64583333		139.8463889														15.2	14.4	7.8	8.8	1,500			19		1.3	"Grayish yellow green"																			2019/09/13	2019/09/13
PRA000099	SAA006306	ST015				Tokyo_w2_2017	Water	"River water"	2017	11	15	2017-11-15T12:55			Fair	Asia	Japan	"Mouth of Riv. Sumida (Minato Ward), Tokyo"	35.66		139.7705556														18.3	18.6	8.2	5.4	4,000			4		2.9	"Dark green"																			2019/09/13	2019/09/13
PRA000099	SAA006307	ST014				YokohamaCity_w3_2017	Water	"Sea water"	2017	11	6	2017-11-06T09:50			Fair	Asia	Japan	"Yokohama Port, Kanagawa"	35.45555556		139.6636111														19	16.7	8	6.9				7.8		12	Clear																		"SS: 8.0 mg/L (for Monitoring)"	2019/9/18	2019/11/28
PRA000099	SAA006310	ST014				Kawasaki_w2_2017	Water	"Sea water"	2017	11	13	2017-11-13T10:30			Fair	Asia	Japan	"Keihin Canal, Kawasaki Port, Kanagawa (front of Ogimachi)"	35.49527778		139.7277778														18	18.6	8	5	4,500			3.5		5	"Greenish blue"																		"SS: 4 mg/L (for Monitoring)"	2019/9/18	2019/11/28
PRA000099	SAA006312	ST015				Niigata_w2_2017	Water	"River water"	2017	10	11	2017-10-11T09:20			Cloudy	Asia	Japan	"Downstream of Riv. Shinano (Niigata City), Niigata"	37.88305556		139.0155556														23	19	7	8.8	16			26			"Light Gray"																			2019/09/13	2019/09/13
PRA000099	SAA006315	ST015				Toyama_w2_2017	Water	"River water"	2017	11	9	2017-11-09T11:30			Fair	Asia	Japan	"Hagiura-bashi Bridge, Mouth of Riv. Jintsu (Toyama City), Toyama"	36.745		137.2180556														18	13	7.4	10	58			2			Clear																			2019/09/13	2019/09/13
PRA000099	SAA006316	ST015				Ishikawa_w1_2017	Water	"River water"	2017	10	11	2017-10-11T09:50			Cloudy	Asia	Japan	"Mouth of Riv. Sai (Kanazawa City), Ishikawa"	36.60027778		136.5888889														25.7	21.8	7.3	7.3	200			1			Clear																			2019/09/13	2019/09/13
PRA000099	SAA006609	ST015				Fukui_w1_2017	Water	"River water"	2017	11	2	2017-11-02T10:30			Fair	Asia	Japan	"Mishima-bashi Bridge, Riv. Shono (Tsuruga City), Fukui"	35.6475		136.0627778														17	14	7.2	10	8			5			Clear																			2019/11/28	2019/11/28
PRA000099	SAA006317	ST015				Nagano_w2_2017	Water	"Lake water"	2017	11	13	2017-11-13T10:27			Fair	Asia	Japan	"Center of Lake Suwa, Nagano"	36.05		138.0861111														12.3	10.4	7.1	11	14			8		1.02	"Light Yellow green"																			2019/9/18	2019/11/28
PRA000099	SAA006320	ST015				Shizuoka_w1_2017	Water	"River water"	2017	10	5	2017-10-05T10:55			Cloudy	Asia	Japan	"Riv. Tenryu (Iwata City), Shizuoka"	34.67916667		137.7961111														20.6	19.8	7.3	9.8	12			7			Clear																			2019/09/13	2019/09/13
PRA000099	SAA006610	ST014				Aichi_w2-2_2017	Water	"Sea water"	2017	11	13	2017-11-13T11:50			Cloudy	Asia	Japan	"Nagoya Port, West of Shiomi Wharf, Aichi"	35.07111111		136.8691667														14.6	18.5	8.1	5	4,100			8		2.1	"Light Green"																			2019/11/28	2019/11/28
PRA000099	SAA006326	ST014				Mie_w1_2017	Water	"Sea water"	2017	10	24	2017-10-24T10:20			Cloudy	Asia	Japan	"Yokkaichi Port, Mie"	34.94944444		136.6530556														17	16	7.7	7.8	1,600			5		1.2	"Grayish green"																			2019/9/18	2019/11/28
PRA000099	SAA006330	ST015				Shiga_w2-2_2017	Water	"Lake water"	2017	12	18	2017-12-18T13:40			Fair	Asia	Japan	"Lake Biwa (center, offshore of Karasaki), Shiga"	35.04611111		135.8955556														7.8	6.7	7.7	13	12			4.3		2.3	"Dark Yellow green"																			2019/09/13	2019/09/13
PRA000099	SAA006331	ST014				Kyoto_w1_2017	Water	"Sea water"	2017	10	19	2017-10-19T10:15			"Cloudy with occasional rain"	Asia	Japan	"Miyazu Port, Kyoto"	35.58305556		135.2138889														17.7	21.5	8.5	7.5				2		6	Clear																			2019/9/18	2019/11/28
PRA000099	SAA006464	ST015				Kyoto_w2_2017	Water	"River water"	2017	11	29	2017-11-29T09:58			Cloudy	Asia	Japan	"Miyamae-bashi Bridge, Riv. Katsura (Kyoto City), Kyoto"	34.905		135.7125														13.3	12.7	7.3	9.4	17			3.5			Clear																		"SS: 4 mg/L (for Monitoring)"	2019/9/18	2019/11/28
PRA000099	SAA006332	ST015				Osaka_w1_2017	Water	"River water"	2017	11	7	2017-11-07T09:40			Fair	Asia	Japan	"Mouth of Riv. Yamato (Sakai City), Osaka"	34.60833333		135.4325														18.5	18.7	7.8	9.6				3		1.5	Clear																		"DO: 10 mg/L (for Monitoring)"	2019/09/13	2019/09/13
PRA000099	SAA006334	ST014				OsakaCity_w2_2017	Water	"Sea water"	2017	12	20	2017-12-20T08:10			Fair	Asia	Japan	"Osaka Port, Osaka"	34.65861111		135.4313889														8	9.2	7.8	9.9	1,800			2		3.5	"Grayish yellow"																			2019/9/18	2019/11/28
PRA000099	SAA006335	ST014				Hyogo_w3_2017	Water	"Sea water"	2017	10	11	2017-10-11T10:27			Cloudy	Asia	Japan	"Offshore of Himeji, Hyogo"	34.76194444		134.6697222														25.4	25.5	8.2	7.2	4			5.8		5.1	"Greenish brown"																		"SS: 6.0 mg/L (for Monitoring)"	2019/9/18	2019/11/28
PRA000099	SAA006337	ST014				Kobe_w1_2017	Water	"Sea water"	2017	11	1	2017-11-01T10:16			Fair	Asia	Japan	"Center of Kobe Port, Hyogo"	34.66444444		135.1944444														17	18.5	8	8				1		2.5	"Greenish brown"																			2019/9/18	2019/11/28
PRA000099	SAA006338	ST015				Wakayama_w1_2017	Water	"River water"	2017	11	7	2017-11-07T12:56			Cloudy	Asia	Japan	"Kinokawa-ohashi Bridge, Mouth of Riv. Kinokawa (Wakayama City), Wakayama"	34.23		135.1561111														21.7	18	7	8.4	1,500			7		1.2	"Yellow green"																			2019/9/18	2019/11/28
PRA000099	SAA006340	ST014				Okayama_w2_2017	Water	"Sea water"	2017	10	31	2017-10-31T10:15			Fair	Asia	Japan	"Offshore of Mizushima, Okayama"	34.48055556		133.665														18.8	19.5	8	6.8	5,800			2		2.3	"Dark Green"																			2019/9/18	2019/11/28
PRA000099	SAA006611	ST014				Hiroshima_w2_2017	Water	"Sea water"	2017	11	8	2017-11-08T09:45			Cloudy	Asia	Japan	"Kure Port, Hiroshima"	34.23361111		132.5391667														18.2	20.4	8.3	8.5				3		6	"Dark Bluish green"																			2019/11/28	2019/11/28
PRA000099	SAA006612	ST014				Hiroshima_w3_2017	Water	"Sea water"	2017	11	8	2017-11-08T12:15			Rain	Asia	Japan	"Hiroshima Bay (Hiroshima City), Hiroshima"	34.34833333		132.4225														20.2	18.7	8.4	11				3		3	"Dark Bluish green"																			2019/11/28	2019/11/28
PRA000099	SAA006342	ST014				Yamagachi_w1_2017	Water	"Sea water"	2017	10	5	2017-10-05T10:56			Fair	Asia	Japan	"Tokuyama Bay, Yamaguchi"	33.99361111		131.7505556														22	23	8.2	6.2				3.2		5.5	"Bluish green"																		"SS: 3 mg/L (for Monitoring)"	2019/9/18	2019/11/28
PRA000099	SAA006613	ST014				Yamaguchi_w3_2017	Water	"Sea water"	2017	10	13	2017-10-13T11:55			Cloudy	Asia	Japan	"Offshore of Ube, Yamaguchi"	33.915		131.1975														21.9	21.5	8.2	7.2				4		4	"Grayish green"																			2019/11/28	2019/11/28
PRA000099	SAA006343	ST014				Yamaguchi_w2_2017	Water	"Sea water"	2017	11	10	2017-11-10T10:17			Fair	Asia	Japan	"Offshore of Hagi, Yamaguchi"	34.43805556		131.3794444														15	20	8.4	7.6				1.4		9.5	"Bluish green"																		"SS: 1 mg/L (for Monitoring)"	2019/9/18	2019/11/28
PRA000099	SAA006614	ST015				Tokushima_w1_2017	Water	"River water"	2017	11	2	2017-11-02T09:12			Fair	Asia	Japan	"Mouth of Riv. Yoshino (Tokushima City), Tokushima"	34.085		134.5913889														14	14.8	7.5	9.8	550			5		2	"Grayish green"																			2019/11/28	2019/11/28
PRA000099	SAA006345	ST014				Kagawa_w1_2017	Water	"Sea water"	2017	10	4	2017-10-04T08:55			Fair	Asia	Japan	"Takamatsu Port, Kagawa"	34.34972222		134.0788889														20.5	21.2	7.8	7.1				5		0.5	"Greenish brown"																			2019/9/18	2019/11/28
PRA000099	SAA006615	ST015				Kochi_w2_2017	Water	"River water"	2017	11	2	2017-11-02T09:05			Fair	Asia	Japan	"Mouth of Riv. Shimanto (Shimanto City), Kochi"	32.93777778		132.8441667														21.2	16.8	7.1	9.2	210			2			Clear																			2019/11/28	2019/11/28
PRA000099	SAA006349	ST014				KitakyushuCity_w1_2017	Water	"Sea water"	2017	10	17	2017-10-17T09:25			Cloudy	Asia	Japan	"Dokai Bay (Kitakyushu City), Fukuoka"	33.90388889		130.8158333														18.4	21.3	7.8	6	4,300			2		3	Clear																			2019/09/13	2019/09/13
PRA000099	SAA006351	ST014				Saga_w1_2017	Water	"Sea water"	2017	11	1	2017-11-01T10:30			Fair	Asia	Japan	"Imari Bay, Saga"	33.34		129.8208333														16.5	17.8	8.3	6.4	4,200			4		2.8	Green																			2019/9/18	2019/11/28
PRA000099	SAA006616	ST014				Nagasaki_w1_2017	Water	"Sea water"	2017	11	10	2017-11-10T10:15			Cloudy	Asia	Japan	"Omura Bay, Nagasaki"	32.98833333		129.8522222														19	20.4	8.2	7.7				5		5.4	"Light Greenish blue"																			2019/11/28	2019/11/28
PRA000099	SAA006352	ST015				Kumamoto_w1_2017	Water	"River water"	2017	11	1	2017-11-01T13:25			Fair	Asia	Japan	"Hiraki-bashi Bridge, Riv. Midori (Uto City), Kumamoto"	32.71638889		130.6422222														23.3	18.6	7.7	8.1	110			40			"Light Brown"																			2019/09/13	2019/09/13
PRA000099	SAA006472	ST015				Miyazaki_w3_2017	Water	"River water"	2017	10	4	2017-10-04T10:37			Fair	Asia	Japan	"Mouth of Riv. Oyodo (Miyazaki City), Miyazaki"	31.89611111		131.4402778														24.5	22.2	7.5	8.2	460			25			Clear																			2019/9/18	2019/11/28
PRA000099	SAA006617	ST015				Kagoshima_w1_2017	Water	"River water"	2017	9	26	2017-09-26T12:31			Cloudy	Asia	Japan	"Shinkawa-bashi Bridge, Riv. Amori (Kirishima City), Kagoshima"	31.7225		130.7416667														27.7	22.3	7.5	8.4				4			Clear																			2019/11/28	2019/11/28
PRA000099	SAA006618	ST015				Kagoshima_w2_2017	Water	"River water"	2017	9	28	2017-09-28T12:21			Fair	Asia	Japan	"Gotanda-bashi Bridge, Riv. Gotanda (Ichikikushikino City), Kagoshima"	31.72583333		130.2769444														24.8	23.8	7.5	8.2				8			"Light Grayish green"																			2019/11/28	2019/11/28
PRA000099	SAA006619	ST014				Okinawa_w1_2017	Water	"Sea water"	2017	10	3	2017-10-03T11:00			Fair	Asia	Japan	"Naha Port, Okinawa"	26.21222222		127.665														29	30.2	8.1	6.1	4600			4		1.5	Clear																			2019/11/28	2019/11/28
PRA000100	SAA006971	ST015				OsakaCity07_2018Summer_AM	Water	"River water"	2018	7	24		AM		Fair	Asia	Japan	"Juhachijou-ohashi bridge, Kanzaki-gawa Riv., Osaka city"	34.748986		135.49703														33.7	30.32	7.38		32.5																									2020/06/22	2020/06/22
PRA000100	SAA006972	ST015				OsakaCity07_2018Summer_PM	Water	"River water"	2018	7	24		PM		Fair	Asia	Japan	"Juhachijou-ohashi bridge, Kanzaki-gawa Riv., Osaka city"	34.748986		135.49703														36.6	32.05	7.44		47.4																									2020/06/22	2020/06/22
PRA000100	SAA006973	ST015				OsakaCity08_2018Summer_AM	Water	"River water"	2018	7	24		AM		Fair	Asia	Japan	"Enoki bridge, Kanzaki-gawa Riv., Osaka city"	34.7513		135.492125														33.4	30.68	7.25		35.3																									2020/06/22	2020/06/22
PRA000100	SAA006974	ST015				OsakaCity08_2018Summer_PM	Water	"River water"	2018	7	24		PM		Fair	Asia	Japan	"Enoki bridge, Kanzaki-gawa Riv., Osaka city"	34.7513		135.492125														36.6	32.04	7.3		34.5																									2020/06/22	2020/06/22
PRA000100	SAA006975	ST015				OsakaCity09_2018Summer_AM	Water	"River water"	2018	7	24		AM		Fair	Asia	Japan	"Upstream of Ochiai wharf (Kita-tsumori side), Kizu-gawa Riv., Osaka city"	34.64405		135.479776														35.1	30.26	7.25		780																									2020/06/22	2020/06/22
PRA000100	SAA006976	ST015				OsakaCity09_2018Summer_PM	Water	"River water"	2018	7	24		PM		Fair	Asia	Japan	"Upstream of Ochiai wharf (Kita-tsumori side), Kizu-gawa Riv., Osaka city"	34.64405		135.479776														36.6	31.72	7.25		529																									2020/06/22	2020/06/22
PRA000100	SAA006977	ST015				OsakaCity10_2018Summer_AM	Water	"River water"	2018	7	24		AM		Fair	Asia	Japan	"Downstream of Ochiai wharf (Tsumori side), Kizu0gawa Riv., Osaka city"	34.64216		135.479906														34.4	29.64	6.79		1100																									2020/06/22	2020/06/22
PRA000100	SAA006978	ST015				OsakaCity10_2018Summer_PM	Water	"River water"	2018	7	24		PM		Fair	Asia	Japan	"Downstream of Ochiai wharf (Tsumori side), Kizu0gawa Riv., Osaka city"	34.64216		135.479906														37	31.1	7		804																									2020/06/22	2020/06/22
PRA000100	SAA006979	ST015				OsakaCity11_2018Summer_AM	Water	"River water"	2018	7	24		AM		Fair	Asia	Japan	"Shigino-ohashi bridge, Daini Neyagawa Riv., Osaka city"	34.688627		135.545553														33.2	29.5	6.93		54.8																									2020/06/22	2020/06/22
PRA000100	SAA006980	ST015				OsakaCity11_2018Summer_PM	Water	"River water"	2018	7	24		PM		Fair	Asia	Japan	"Shigino-ohashi bridge, Daini Neyagawa Riv., Osaka city"	34.688627		135.545553														35.5	31.67	7.02		57																									2020/06/22	2020/06/22
PRA000100	SAA006981	ST015				OsakaCity12_2018Summer_AM	Water	"River water"	2018	7	24		AM		Fair	Asia	Japan	"Shimoshiromi bridge, Daini Neyagawa Riv., Osaka city"	34.689562		135.537748														32.5	28.59	7.08		53.1																									2020/06/22	2020/06/22
PRA000100	SAA006982	ST015				OsakaCity12_2018Summer_PM	Water	"River water"	2018	7	24		PM		Fair	Asia	Japan	"Shimoshiromi bridge, Daini Neyagawa Riv., Osaka city"	34.689562		135.537748														35.9	31.4	7.03		56.5																									2020/06/22	2020/06/22
PRA000100	SAA006983	ST015				OsakaCity13_2018Summer_AM	Water	"River water"	2018	7	24		AM		Fair	Asia	Japan	"Kema Watergate, Oh-kawa Riv., Osaka City"	34.721115		135.517125														33	30.14	7.9		17																									2020/06/22	2020/06/22
PRA000100	SAA006984	ST015				OsakaCity13_2018Summer_PM	Water	"River water"	2018	7	24		PM		Fair	Asia	Japan	"Kema Watergate, Oh-kawa Riv., Osaka City"	34.721115		135.517125														36	31.64	8.2		16.7																									2020/06/22	2020/06/22
PRA000100	SAA006985	ST015				HyogoPref14_2018Summer_AM	Water	"River water"	2018	6	27		AM		Fair	Asia	Japan	"Upstream of Sewage Treatment Plant, Muko-gawa Riv., Hyogo"	34.860611		135.266559														29	25.8	7.8		23.1				>0.3																					2020/06/22	2020/06/22
PRA000100	SAA006986	ST015				HyogoPref14_2018Summer_PM	Water	"River water"	2018	6	27		PM		Fair	Asia	Japan	"Upstream of Sewage Treatment Plant, Muko-gawa Riv., Hyogo"	34.860611		135.266559														30	27.7	8.5		22.4				>0.3																					2020/06/22	2020/06/22
PRA000100	SAA006987	ST015				HyogoPref15_2018Summer_AM	Water	"River water"	2018	6	27		AM		Fair	Asia	Japan	"Downstream of Sewage Treatment Plant, Muko-gawa Riv., Hyogo"	34.862497		135.271899														30.5	26	7.5		27				>0.3																					2020/06/22	2020/06/22
PRA000100	SAA006988	ST015				HyogoPref15_2018Summer_PM	Water	"River water"	2018	6	27		PM		Fair	Asia	Japan	"Downstream of Sewage Treatment Plant, Muko-gawa Riv., Hyogo"	34.862497		135.271899														30.5	27.4	8		28.4				>0.3																					2020/06/22	2020/06/22
PRA000100	SAA006989	ST015				HyogoPref16_2018Summer_AM	Water	"River water"	2018	6	22		AM		Fair	Asia	Japan	"Inagawa bridge, Ina-gawa Riv., Hyogo"	34.769842		135.43758														29.5	21.9	8.3		15.7				>0.3																					2020/06/22	2020/06/22
PRA000100	SAA006990	ST015				HyogoPref16_2018Summer_PM	Water	"River water"	2018	6	22		PM		Fair	Asia	Japan	"Inagawa bridge, Ina-gawa Riv., Hyogo"	34.769842		135.43758														31.2	24.1	8		15.7				>0.3																					2020/06/22	2020/06/22
PRA000100	SAA006991	ST015				HyogoPref17_2018Summer_AM	Water	"River water"	2018	6	22		AM		Fair	Asia	Japan	"Tokura  bridge, Ina-gawa Riv., Hyogo"	34.761609		135.455115														28	24.4	8		39.2				>0.3																					2020/06/22	2020/06/22
PRA000100	SAA006992	ST015				HyogoPref17_2018Summer_PM	Water	"River water"	2018	6	22		PM		Fair	Asia	Japan	"Tokura  bridge, Ina-gawa Riv., Hyogo"	34.761609		135.455115														31	23.3	7.8		39.2				>0.3																					2020/06/22	2020/06/22
PRA000100	SAA006993	ST015				HyogoPref18_2018Summer_AM	Water	"River water"	2018	6	14		AM		Fair	Asia	Japan	"Banzai  bridge, Kako-gawa Riv., Hyogo"	34.822275		134.935273														22	21.3	7.4		14.61				>0.3																					2020/06/22	2020/06/22
PRA000100	SAA006994	ST015				HyogoPref18_2018Summer_PM	Water	"River water"	2018	6	14		PM		Fair	Asia	Japan	"Banzai  bridge, Kako-gawa Riv., Hyogo"	34.822275		134.935273														29.2	23.3	7.1		15.95				>0.3																					2020/06/22	2020/06/22
PRA000100	SAA006995	ST015				HyogoPref19_2018Summer_AM	Water	"River water"	2018	6	14		AM		Fair	Asia	Japan	"Leftshore of Kamisho Bridge, Kako-gawa Riv., Hyogo"	34.796573		134.900129														23	21.6	7.2		15.63				>0.3																					2020/06/22	2020/06/22
PRA000100	SAA006996	ST015				HyogoPref19_2018Summer_PM	Water	"River water"	2018	6	14		PM		Fair	Asia	Japan	"Leftshore of Kamisho Bridge, Kako-gawa Riv., Hyogo"	34.796573		134.900129														25.5	23.2	7.1		14.81				>0.3																					2020/06/22	2020/06/22
PRA000100	SAA006997	ST015				HyogoPref20_2018Summer_AM	Water	"River water"	2018	6	14		AM		Fair	Asia	Japan	"Rightshore of Kamisho Bridge, Kako-gawa Riv., Hyogo"	34.797826		134.899419														23	21.5	7.1		8.52				>0.3																					2020/06/22	2020/06/22
PRA000100	SAA006998	ST015				HyogoPref20_2018Summer_PM	Water	"River water"	2018	6	14		PM		Fair	Asia	Japan	"Rightshore of Kamisho Bridge, Kako-gawa Riv., Hyogo"	34.797826		134.899419														25.5	22.6	7		15.45				>0.3																					2020/06/22	2020/06/22
PRA000100	SAA006999	ST015				HyogoPref21_2018Summer_AM	Water	"River water"	2018	6	14		AM		Fair	Asia	Japan	"Kakogawa  Bridge, Kako-gawa Riv., Hyogo"	34.772654		134.828232														25.8	22.7	7		14.48				>0.3																					2020/06/22	2020/06/22
PRA000100	SAA007000	ST015				HyogoPref21_2018Summer_PM	Water	"River water"	2018	6	14		PM		Fair	Asia	Japan	"Kakogawa  Bridge, Kako-gawa Riv., Hyogo"	34.772654		134.828232														26.8	23.7	7		14.7				>0.3																					2020/06/22	2020/06/22
PRA000100	SAA007001	ST015				NagoyaCity22_2018Summer_AM	Water	"River water"	2018	8	10		AM		Fair	Asia	Japan	"Chuji bridge, Yamazaki-gawa Riv., Nagoya city, Aichi"	35.10286		136.920674																																											2020/06/22	2020/06/22
PRA000100	SAA007002	ST015				NagoyaCity22_2018Summer_PM	Water	"River water"	2018	8	10		PM		Fair	Asia	Japan	"Chuji bridge, Yamazaki-gawa Riv., Nagoya city, Aichi"	35.10286		136.920674														35	32.8	7.99																											2020/06/22	2020/06/22
PRA000100	SAA007003	ST015				NagoyaCity23_2018Summer_AM	Water	"River water"	2018	8	10		AM		Fair	Asia	Japan	"Hosei bridge, Yamazaki-gawa Riv., Nagoya city, Aichi"	35.097963		136.919463																																											2020/06/22	2020/06/22
PRA000100	SAA007004	ST015				NagoyaCity23_2018Summer_PM	Water	"River water"	2018	8	10		PM		Fair	Asia	Japan	"Hosei bridge, Yamazaki-gawa Riv., Nagoya city, Aichi"	35.097963		136.919463														35.1	33	8.31																											2020/06/22	2020/06/22
PRA000100	SAA007005	ST015				NagoyaCity24_2018Summer_AM	Water	"River water"	2018	8	10		AM		Fair	Asia	Japan	"Johoku bridge, Hori-kawa Riv., Nagoya city, Aichi"	35.192455		136.903276																																											2020/06/22	2020/06/22
PRA000100	SAA007006	ST015				NagoyaCity24_2018Summer_PM	Water	"River water"	2018	8	10		PM		Fair	Asia	Japan	"Johoku bridge, Hori-kawa Riv., Nagoya city, Aichi"	35.192455		136.903276														37	30.8	7.06																											2020/06/22	2020/06/22
PRA000100	SAA007007	ST015				NagoyaCity25_2018Summer_AM	Water	"River water"	2018	8	10		AM		Fair	Asia	Japan	"Nakatsuchito bridge, Hori-kawa Riv., Nagoya city, Aichi"	35.190792		136.899916																																											2020/06/22	2020/06/22
PRA000100	SAA007008	ST015				NagoyaCity25_2018Summer_PM	Water	"River water"	2018	8	10		PM		Fair	Asia	Japan	"Nakatsuchito bridge, Hori-kawa Riv., Nagoya city, Aichi"	35.190792		136.899916														35.6	29.5	7.01																											2020/06/22	2020/06/22
PRA000100	SAA007009	ST015				NagoyaCity26_2018Summer_AM	Water	"River water"	2018	8	10		AM		Fair	Asia	Japan	"Ooseko bridge, Hori-kawa Riv., Nagoya city, Aichi"	35.119784		136.903238																																											2020/06/22	2020/06/22
PRA000100	SAA007010	ST015				NagoyaCity26_2018Summer_PM	Water	"River water"	2018	8	10		PM		Fair	Asia	Japan	"Ooseko bridge, Hori-kawa Riv., Nagoya city, Aichi"	35.119784		136.903238														36.2	31.3	7.29																											2020/06/22	2020/06/22
PRA000100	SAA007011	ST015				NagoyaCity27_2018Summer_AM	Water	"River water"	2018	8	10		AM		Fair	Asia	Japan	"Kizaemon bridge, Hori-kawa Riv., Nagoya city, Aichi"	35.111162		136.900416																																											2020/06/22	2020/06/22
PRA000100	SAA007012	ST015				NagoyaCity27_2018Summer_PM	Water	"River water"	2018	8	10		PM		Fair	Asia	Japan	"Kizaemon bridge, Hori-kawa Riv., Nagoya city, Aichi"	35.111162		136.900416														36.1	31.6	7.81																											2020/06/22	2020/06/22
PRA000100	SAA007013	ST015				NagoyaCity28_2018Summer_AM	Water	"River water"	2018	8	10		AM		Fair	Asia	Japan	"Maizuru bridge, Shinhori-kawa Riv., Nagoya city, Aichi"	35.159524		136.91																																											2020/06/22	2020/06/22
PRA000100	SAA007014	ST015				NagoyaCity28_2018Summer_PM	Water	"River water"	2018	8	10		PM		Fair	Asia	Japan	"Maizuru bridge, Shinhori-kawa Riv., Nagoya city, Aichi"	35.159524		136.91														36	29.4	7.06																											2020/06/22	2020/06/22
PRA000100	SAA007015	ST015				Tokyo29_2018Summer_AM	Water	"River water"	2018	7	19		AM		Fair	Asia	Japan	"Nagata bridge, Tama-gawa Riv., Tokyo"	35.739004		139.318815														32.8	23.6																												2020/06/22	2020/06/22
PRA000100	SAA007016	ST015				Tokyo29_2018Summer_PM	Water	"River water"	2018	7	19		PM		Fair	Asia	Japan	"Nagata bridge, Tama-gawa Riv., Tokyo"	35.739004		139.318815														32.4	25.2																												2020/06/22	2020/06/22
PRA000100	SAA007017	ST015				Tokyo30_2018Summer_AM	Water	"River water"	2018	7	19		AM		Cloudy	Asia	Japan	"Hino-bashi bridge, Tama-gawa Riv., Tokyo"	35.683052		139.412492														30.6	27.8																												2020/06/22	2020/06/22
PRA000100	SAA007018	ST015				Tokyo30_2018Summer_PM	Water	"River water"	2018	7	19		PM		Fair	Asia	Japan	"Hino-bashi bridge, Tama-gawa Riv., Tokyo"	35.683052		139.412492														32.4	30.4																												2020/06/22	2020/06/22
PRA000100	SAA007019	ST015				Tokyo31_2018Summer_AM	Water	"River water"	2018	7	19		AM		Cloudy	Asia	Japan	"Sekido bridge, Tama-gawa Riv., Tokyo"	35.653498		139.455179														30.7	27.1																												2020/06/22	2020/06/22
PRA000100	SAA007020	ST015				Tokyo31_2018Summer_PM	Water	"River water"	2018	7	19		PM		Fair	Asia	Japan	"Sekido bridge, Tama-gawa Riv., Tokyo"	35.653498		139.455179														34.7	30.5																												2020/06/22	2020/06/22
PRA000100	SAA007021	ST015				Tokyo32_2018Summer_AM	Water	"River water"	2018	7	19		AM		Fair	Asia	Japan	"Tamagawara-bashi bridge, Tama-gawa Riv., Tokyo"	35.643876		139.525471														34.4	28.2																												2020/06/22	2020/06/22
PRA000100	SAA007022	ST015				Tokyo32_2018Summer_PM	Water	"River water"	2018	7	19		PM		Fair	Asia	Japan	"Tamagawara-bashi bridge, Tama-gawa Riv., Tokyo"	35.643876		139.525471														33.3	29.7																												2020/06/22	2020/06/22
PRA000100	SAA007023	ST015				Tokyo33_2018Summer_AM	Water	"River water"	2018	7	19		AM		Cloudy	Asia	Japan	"Hoon-bashi bridge, Oguri-gawa Riv., Tokyo"	35.648532		139.457918														31.6	26.3																												2020/06/22	2020/06/22
PRA000100	SAA007024	ST015				Tokyo33_2018Summer_PM	Water	"River water"	2018	7	19		PM		Fair	Asia	Japan	"Hoon-bashi bridge, Oguri-gawa Riv., Tokyo"	35.648532		139.457918														34.8	31.8																												2020/06/22	2020/06/22
PRA000100	SAA007025	ST015				Tokyo34_2018Summer_AM	Water	"River water"	2018	7	19		AM		Fair	Asia	Japan	"Takahata bridge, Asa-kawa Riv., Tokyo"	35.664964		139.407388														29	25.6																												2020/06/22	2020/06/22
PRA000100	SAA007026	ST015				Tokyo34_2018Summer_PM	Water	"River water"	2018	7	19		PM		Fair	Asia	Japan	"Takahata bridge, Asa-kawa Riv., Tokyo"	35.664964		139.407388														33.6	30.8																												2020/06/22	2020/06/22
PRA000100	SAA007027	ST015				Tokyo35_2018Summer_AM	Water	"River water"	2018	9	27		AM		Rainy	Asia	Japan	"Seiryu-bashi bridge, Yanase-gawa Riv., Kiyose city, Tokyo"	35.80483		139.538193														17	19																												2020/06/22	2020/06/22
PRA000100	SAA007028	ST015				Tokyo35_2018Summer_PM	Water	"River water"	2018	9	27		PM		Rainy	Asia	Japan	"Seiryu-bashi bridge, Yanase-gawa Riv., Kiyose city, Tokyo"	35.80483		139.538193														17.5	19																												2020/06/22	2020/06/22
PRA000100	SAA007029	ST015				Tokyo36_2018Summer_AM	Water	"River water"	2018	9	27		AM		Rainy	Asia	Japan	"Sakae bridge, Yanase-gawa Riv., Shiki city, Saitama"	35.835634		139.580318														18.5	20.7																												2020/06/22	2020/06/22
PRA000100	SAA007030	ST015				Tokyo36_2018Summer_PM	Water	"River water"	2018	9	27		PM		Cloudy	Asia	Japan	"Sakae bridge, Yanase-gawa Riv., Shiki city, Saitama"	35.835634		139.580318														17	21																												2020/06/22	2020/06/22
PRA000100	SAA007031	ST015				Tokyo37_2018Summer_AM	Water	"River water"	2018	9	26		AM		Cloudy	Asia	Japan	"Ohgi-ohashi bridge, Ara-kawa Riv., Adachi Ward, Tokyo"	35.757589		139.770681														19.5	22																												2020/06/22	2020/06/22
PRA000100	SAA007032	ST015				Tokyo37_2018Summer_PM	Water	"River water"	2018	9	26		PM		Cloudy	Asia	Japan	"Ohgi-ohashi bridge, Ara-kawa Riv., Adachi Ward, Tokyo"	35.757589		139.770681														20.8	22																												2020/06/22	2020/06/22
PRA000100	SAA007033	ST015				Tokyo38_2018Summer_AM	Water	"River water"	2018	9	26		AM		Cloudy	Asia	Japan	"Horikiri bridge, Ara-kawa Riv., Tokyo"	35.745773		139.819413														21	22.3																												2020/06/22	2020/06/22
PRA000100	SAA007034	ST015				Tokyo38_2018Summer_PM	Water	"River water"	2018	9	26		PM		Cloudy	Asia	Japan	"Horikiri bridge, Ara-kawa Riv., Tokyo"	35.745773		139.819413														20	22.3																												2020/06/22	2020/06/22
PRA000100	SAA007035	ST015				Tokyo39_2018Summer_AM	Water	"River water"	2018	8	23		AM		Fair	Asia	Japan	"Odai Bridge, Sumida-gawa Riv., Tokyo"	35.754176		139.762566														34.8	28	7.2																											2020/06/22	2020/06/22
PRA000100	SAA007036	ST015				Tokyo39_2018Summer_PM	Water	"River water"	2018	8	23		PM		Fair	Asia	Japan	"Odai Bridge, Sumida-gawa Riv., Tokyo"	35.754176		139.762566														34.3	29	7.14																											2020/06/22	2020/06/22
PRA000100	SAA007037	ST015				Tokyo40_2018Summer_AM	Water	"River water"	2018	8	23		AM		Fair	Asia	Japan	"Ryogoku Bridge, Sumida Riv., Tokyo"	35.694258		139.788704														33	28.5	7.15																											2020/06/22	2020/06/22
PRA000100	SAA007038	ST015				Tokyo40_2018Summer_PM	Water	"River water"	2018	8	23		PM		Fair	Asia	Japan	"Ryogoku Bridge, Sumida Riv., Tokyo"	35.694258		139.788704														35	28	7.2																											2020/06/22	2020/06/22
PRA000100	SAA007039	ST015				Tokyo41_2018Summer_AM	Water	"River water"	2018	6	29		AM		Fair	Asia	Japan	"Shiodome bridge, Naka-gawa Riv., Saitama"	35.800727		139.85166														31	27.3	7.71																											2020/06/22	2020/06/22
PRA000100	SAA007040	ST015				Tokyo41_2018Summer_PM	Water	"River water"	2018	6	29		PM		Fair	Asia	Japan	"Shiodome bridge, Naka-gawa Riv., Saitama"	35.800727		139.85166														32.9	27.5	7.79																											2020/06/22	2020/06/22
PRA000100	SAA007041	ST015				Tokyo42_2018Summer_AM	Water	"River water"	2018	6	29		AM		Fair	Asia	Japan	"Heiwa bridge, Naka-gawa Riv., Tokyo"	35.727687		139.848471														31.8	27	7.6																											2020/06/22	2020/06/22
PRA000100	SAA007042	ST015				Tokyo42_2018Summer_PM	Water	"River water"	2018	6	29		PM		Fair	Asia	Japan	"Heiwa bridge, Naka-gawa Riv., Tokyo"	35.727687		139.848471														32.1	27.4	7.77																											2020/06/22	2020/06/22
PRA000100	SAA007043	ST015				OsakaCity07_2018Winter_AM	Water	"River water"	2018	2	28		AM		Cloudy	Asia	Japan	"Juhachijou-ohashi bridge, Kanzaki-gawa Riv., Osaka city"	34.748986		135.49703														14	13.25	7.25		57.4																									2020/06/22	2020/06/22
PRA000100	SAA007044	ST015				OsakaCity07_2018Winter_PM	Water	"River water"	2018	2	28		PM		Cloudy	Asia	Japan	"Juhachijou-ohashi bridge, Kanzaki-gawa Riv., Osaka city"	34.748986		135.49703														16.4	12.97	7.27		51.8																									2020/06/22	2020/06/22
PRA000100	SAA007045	ST015				OsakaCity08_2018Winter_AM	Water	"River water"	2018	2	28		AM		Cloudy	Asia	Japan	"Enoki bridge, Kanzaki-gawa Riv., Osaka city"	34.7513		135.492125														16.7	13.65	7.12		66.9																									2020/06/22	2020/06/22
PRA000100	SAA007046	ST015				OsakaCity08_2018Winter_PM	Water	"River water"	2018	2	28		PM		Cloudy	Asia	Japan	"Enoki bridge, Kanzaki-gawa Riv., Osaka city"	34.7513		135.492125														16	14.05	7.2		123																									2020/06/22	2020/06/22
PRA000100	SAA007047	ST015				OsakaCity09_2018Winter_AM	Water	"River water"	2018	2	28		AM		Cloudy	Asia	Japan	"Upstream of Ochiai wharf (Kita-tsumori side), Kizu-gawa Riv., Osaka city"	34.64405		135.479776														18.3	12.58	7.38		1910																									2020/06/22	2020/06/22
PRA000100	SAA007048	ST015				OsakaCity09_2018Winter_PM	Water	"River water"	2018	2	28		PM		Cloudy	Asia	Japan	"Upstream of Ochiai wharf (Kita-tsumori side), Kizu-gawa Riv., Osaka city"	34.64405		135.479776														17	12.1	7.42		1300																									2020/06/22	2020/06/22
PRA000100	SAA007049	ST015				OsakaCity10_2018Winter_AM	Water	"River water"	2018	2	28		AM		Cloudy	Asia	Japan	"Downstream of Ochiai wharf (Tsumori side), Kizu0gawa Riv., Osaka city"	34.64216		135.479906														17.4	14.06	7.09		1880																									2020/06/22	2020/06/22
PRA000100	SAA007050	ST015				OsakaCity10_2018Winter_PM	Water	"River water"	2018	2	28		PM		Cloudy	Asia	Japan	"Downstream of Ochiai wharf (Tsumori side), Kizu0gawa Riv., Osaka city"	34.64216		135.479906														16.5	14.58	6.98		1820																									2020/06/22	2020/06/22
PRA000100	SAA007051	ST015				OsakaCity11_2018Winter_AM	Water	"River water"	2018	2	28		AM		Cloudy	Asia	Japan	"Shigino-ohashi bridge, Daini Neyagawa Riv., Osaka city"	34.688627		135.545553														15	16.32	6.78		59.5																									2020/06/22	2020/06/22
PRA000100	SAA007052	ST015				OsakaCity11_2018Winter_PM	Water	"River water"	2018	2	28		PM		Cloudy	Asia	Japan	"Shigino-ohashi bridge, Daini Neyagawa Riv., Osaka city"	34.688627		135.545553														19.3	16.89	6.83		65.3																									2020/06/22	2020/06/22
PRA000100	SAA007053	ST015				OsakaCity12_2018Winter_AM	Water	"River water"	2018	2	28		AM		Cloudy	Asia	Japan	"Shimoshiromi bridge, Daini Neyagawa Riv., Osaka city"	34.689562		135.537748														15.2	15.67	6.87		51.4																									2020/06/22	2020/06/22
PRA000100	SAA007054	ST015				OsakaCity12_2018Winter_PM	Water	"River water"	2018	2	28		PM		Cloudy	Asia	Japan	"Shimoshiromi bridge, Daini Neyagawa Riv., Osaka city"	34.689562		135.537748														18.9	16.27	6.85		63.9																									2020/06/22	2020/06/22
PRA000100	SAA007055	ST015				OsakaCity13_2018Winter_AM	Water	"River water"	2018	2	28		AM		Cloudy	Asia	Japan	"Kema Watergate, Oh-kawa Riv., Osaka City"	34.721115		135.517125														14.5	11.36	7.63		18.3																									2020/06/22	2020/06/22
PRA000100	SAA007056	ST015				OsakaCity13_2018Winter_PM	Water	"River water"	2018	2	28		PM		Cloudy	Asia	Japan	"Kema Watergate, Oh-kawa Riv., Osaka City"	34.721115		135.517125														18.8	12.54	7.79		24.2																									2020/06/22	2020/06/22
PRA000100	SAA007057	ST015				HyogoPref14_2018Winter_AM	Water	"River water"	2018	2	15		AM		Cloudy	Asia	Japan	"Upstream of Sewage Treatment Plant, Muko-gawa Riv., Hyogo"	34.860611		135.266559														7	5	8		26				>0.3																					2020/06/22	2020/06/22
PRA000100	SAA007058	ST015				HyogoPref14_2018Winter_PM	Water	"River water"	2018	2	15		PM		Cloudy	Asia	Japan	"Upstream of Sewage Treatment Plant, Muko-gawa Riv., Hyogo"	34.860611		135.266559														9	7.1	7.5		23				>0.3																					2020/06/22	2020/06/22
PRA000100	SAA007059	ST015				HyogoPref15_2018Winter_AM	Water	"River water"	2018	2	15		AM		Cloudy	Asia	Japan	"Downstream of Sewage Treatment Plant, Muko-gawa Riv., Hyogo"	34.862497		135.271899														8.8	7.6	8		34				>0.3																					2020/06/22	2020/06/22
PRA000100	SAA007060	ST015				HyogoPref15_2018Winter_PM	Water	"River water"	2018	2	15		PM		Cloudy	Asia	Japan	"Downstream of Sewage Treatment Plant, Muko-gawa Riv., Hyogo"	34.862497		135.271899														8.8	9.1	7.1		31.6				>0.3																					2020/06/22	2020/06/22
PRA000100	SAA007061	ST015				HyogoPref16_2018Winter_AM	Water	"River water"	2018	2	20		AM		Fair	Asia	Japan	"Inagawa bridge, Ina-gawa Riv., Hyogo"	34.769842		135.43758														9.5	9.1	7.1		19.4				>0.3																					2020/06/22	2020/06/22
PRA000100	SAA007062	ST015				HyogoPref16_2018Winter_PM	Water	"River water"	2018	2	20		PM		Fair	Asia	Japan	"Inagawa bridge, Ina-gawa Riv., Hyogo"	34.769842		135.43758														11	14	6.9		19.9				>0.3																					2020/06/22	2020/06/22
PRA000100	SAA007063	ST015				HyogoPref17_2018Winter_AM	Water	"River water"	2018	2	20		AM		Fair	Asia	Japan	"Tokura  bridge, Ina-gawa Riv., Hyogo"	34.761609		135.455115														10	16.1	6.7		43.8				>0.3																					2020/06/22	2020/06/22
PRA000100	SAA007064	ST015				HyogoPref17_2018Winter_PM	Water	"River water"	2018	2	20		PM		Fair	Asia	Japan	"Tokura  bridge, Ina-gawa Riv., Hyogo"	34.761609		135.455115														10.5	17.2	6.5		44.8				>0.3																					2020/06/22	2020/06/22
PRA000100	SAA007065	ST015				HyogoPref18_2018Winter_AM	Water	"River water"	2018	2	8		AM		Fair	Asia	Japan	"Banzai  bridge, Kako-gawa Riv., Hyogo"	34.822275		134.935273														6	3.8	7.6		21.9				>0.3																					2020/06/22	2020/06/22
PRA000100	SAA007066	ST015				HyogoPref18_2018Winter_PM	Water	"River water"	2018	2	8		PM		Fair	Asia	Japan	"Banzai  bridge, Kako-gawa Riv., Hyogo"	34.822275		134.935273														7.5	6.6	7.2		21.3				>0.3																					2020/06/22	2020/06/22
PRA000100	SAA007067	ST015				HyogoPref19_2018Winter_AM	Water	"River water"	2018	2	8		AM		Fair	Asia	Japan	"Leftshore of Kamisho Bridge, Kako-gawa Riv., Hyogo"	34.796573		134.900129														4	4.8	7.7		26.6				>0.3																					2020/06/22	2020/06/22
PRA000100	SAA007068	ST015				HyogoPref19_2018Winter_PM	Water	"River water"	2018	2	8		PM		Fair	Asia	Japan	"Leftshore of Kamisho Bridge, Kako-gawa Riv., Hyogo"	34.796573		134.900129														6.5	6.3	7.6		29.9				>0.3																					2020/06/22	2020/06/22
PRA000100	SAA007069	ST015				HyogoPref20_2018Winter_AM	Water	"River water"	2018	2	8		AM		Fair	Asia	Japan	"Rightshore of Kamisho Bridge, Kako-gawa Riv., Hyogo"	34.797826		134.899419														4.5	5	7.2		24.5				>0.3																					2020/06/22	2020/06/22
PRA000100	SAA007070	ST015				HyogoPref20_2018Winter_PM	Water	"River water"	2018	2	8		PM		Fair	Asia	Japan	"Rightshore of Kamisho Bridge, Kako-gawa Riv., Hyogo"	34.797826		134.899419														6.5	5.5	7.6		24.7				>0.3																					2020/06/22	2020/06/22
PRA000100	SAA007071	ST015				HyogoPref21_2018Winter_AM	Water	"River water"	2018	2	8		AM		Fair	Asia	Japan	"Kakogawa  Bridge, Kako-gawa Riv., Hyogo"	34.772654		134.828232														5	4.5	7.2		24.1				>0.3																					2020/06/22	2020/06/22
PRA000100	SAA007072	ST015				HyogoPref21_2018Winter_PM	Water	"River water"	2018	2	8		PM		Fair	Asia	Japan	"Kakogawa  Bridge, Kako-gawa Riv., Hyogo"	34.772654		134.828232														7	5.3	7.6		24.1				>0.3																					2020/06/22	2020/06/22
PRA000100	SAA007073	ST015				NagoyaCity22_2018Winter_AM	Water	"River water"	2018	2	27		AM		Fair	Asia	Japan	"Chuji bridge, Yamazaki-gawa Riv., Nagoya city, Aichi"	35.10286		136.920674																																											2020/06/22	2020/06/22
PRA000100	SAA007074	ST015				NagoyaCity22_2018Winter_PM	Water	"River water"	2018	2	27		PM		Fair	Asia	Japan	"Chuji bridge, Yamazaki-gawa Riv., Nagoya city, Aichi"	35.10286		136.920674															17	7.32																											2020/06/22	2020/06/22
PRA000100	SAA007075	ST015				NagoyaCity23_2018Winter_AM	Water	"River water"	2018	2	27		AM		Fair	Asia	Japan	"Hosei bridge, Yamazaki-gawa Riv., Nagoya city, Aichi"	35.097963		136.919463																																											2020/06/22	2020/06/22
PRA000100	SAA007076	ST015				NagoyaCity23_2018Winter_PM	Water	"River water"	2018	2	27		PM		Fair	Asia	Japan	"Hosei bridge, Yamazaki-gawa Riv., Nagoya city, Aichi"	35.097963		136.919463															17.1	7.31																											2020/06/22	2020/06/22
PRA000100	SAA007077	ST015				NagoyaCity24_2018Winter_AM	Water	"River water"	2018	2	27		AM		Fair	Asia	Japan	"Johoku bridge, Hori-kawa Riv., Nagoya city, Aichi"	35.192455		136.903276																																											2020/06/22	2020/06/22
PRA000100	SAA007078	ST015				NagoyaCity24_2018Winter_PM	Water	"River water"	2018	2	27		PM		Fair	Asia	Japan	"Johoku bridge, Hori-kawa Riv., Nagoya city, Aichi"	35.192455		136.903276															16.8	7.05																											2020/06/22	2020/06/22
PRA000100	SAA007079	ST015				NagoyaCity25_2018Winter_AM	Water	"River water"	2018	2	27		AM		Fair	Asia	Japan	"Nakatsuchito bridge, Hori-kawa Riv., Nagoya city, Aichi"	35.190792		136.899916																																											2020/06/22	2020/06/22
PRA000100	SAA007080	ST015				NagoyaCity25_2018Winter_PM	Water	"River water"	2018	2	27		PM		Fair	Asia	Japan	"Nakatsuchito bridge, Hori-kawa Riv., Nagoya city, Aichi"	35.190792		136.899916															16.5	7.04																											2020/06/22	2020/06/22
PRA000100	SAA007081	ST015				NagoyaCity26_2018Winter_AM	Water	"River water"	2018	2	27		AM		Fair	Asia	Japan	"Ooseko bridge, Hori-kawa Riv., Nagoya city, Aichi"	35.119784		136.903238																																											2020/06/22	2020/06/22
PRA000100	SAA007082	ST015				NagoyaCity26_2018Winter_PM	Water	"River water"	2018	2	27		PM		Fair	Asia	Japan	"Ooseko bridge, Hori-kawa Riv., Nagoya city, Aichi"	35.119784		136.903238															15.9	7.36																											2020/06/22	2020/06/22
PRA000100	SAA007083	ST015				NagoyaCity27_2018Winter_AM	Water	"River water"	2018	2	27		AM		Fair	Asia	Japan	"Kizaemon bridge, Hori-kawa Riv., Nagoya city, Aichi"	35.111162		136.900416																																											2020/06/22	2020/06/22
PRA000100	SAA007084	ST015				NagoyaCity27_2018Winter_PM	Water	"River water"	2018	2	27		PM		Fair	Asia	Japan	"Kizaemon bridge, Hori-kawa Riv., Nagoya city, Aichi"	35.111162		136.900416															15.3	7.39																											2020/06/22	2020/06/22
PRA000100	SAA007085	ST015				NagoyaCity28_2018Winter_AM	Water	"River water"	2018	2	27		AM		Fair	Asia	Japan	"Maizuru bridge, Shinhori-kawa Riv., Nagoya city, Aichi"	35.159524		136.91																																											2020/06/22	2020/06/22
PRA000100	SAA007086	ST015				NagoyaCity28_2018Winter_PM	Water	"River water"	2018	2	27		PM		Fair	Asia	Japan	"Maizuru bridge, Shinhori-kawa Riv., Nagoya city, Aichi"	35.159524		136.91															17	7.24																											2020/06/22	2020/06/22
PRA000100	SAA007087	ST015				Tokyo29_2018Winter_AM	Water	"River water"	2018	2	27		AM		Fair	Asia	Japan	"Nagata bridge, Tama-gawa Riv., Tokyo"	35.739004		139.318815														9.2	8.2																												2020/06/22	2020/06/22
PRA000100	SAA007088	ST015				Tokyo29_2018Winter_PM	Water	"River water"	2018	2	27		PM		Cloudy	Asia	Japan	"Nagata bridge, Tama-gawa Riv., Tokyo"	35.739004		139.318815														13.1	16.2																												2020/06/22	2020/06/22
PRA000100	SAA007089	ST015				Tokyo30_2018Winter_AM	Water	"River water"	2018	2	27		AM		Cloudy	Asia	Japan	"Hino-bashi bridge, Tama-gawa Riv., Tokyo"	35.683052		139.412492														9.8	15.3																												2020/06/22	2020/06/22
PRA000100	SAA007090	ST015				Tokyo30_2018Winter_PM	Water	"River water"	2018	2	27		PM		Fair	Asia	Japan	"Hino-bashi bridge, Tama-gawa Riv., Tokyo"	35.683052		139.412492														13	16.2																												2020/06/22	2020/06/22
PRA000100	SAA007091	ST015				Tokyo31_2018Winter_AM	Water	"River water"	2018	2	27		AM		Cloudy	Asia	Japan	"Sekido bridge, Tama-gawa Riv., Tokyo"	35.653498		139.455179														7.3	12																												2020/06/22	2020/06/22
PRA000100	SAA007092	ST015				Tokyo31_2018Winter_PM	Water	"River water"	2018	2	27		PM		Fair	Asia	Japan	"Sekido bridge, Tama-gawa Riv., Tokyo"	35.653498		139.455179														13.8	14.3																												2020/06/22	2020/06/22
PRA000100	SAA007093	ST015				Tokyo32_2018Winter_AM	Water	"River water"	2018	2	27		AM		Fair	Asia	Japan	"Tamagawara-bashi bridge, Tama-gawa Riv., Tokyo"	35.643876		139.525471														10.3	14.2																												2020/06/22	2020/06/22
PRA000100	SAA007094	ST015				Tokyo32_2018Winter_PM	Water	"River water"	2018	2	27		PM		Fair	Asia	Japan	"Tamagawara-bashi bridge, Tama-gawa Riv., Tokyo"	35.643876		139.525471														12.6	14.6																												2020/06/22	2020/06/22
PRA000100	SAA007095	ST015				Tokyo33_2018Winter_AM	Water	"River water"	2018	2	27		AM		Cloudy	Asia	Japan	"Hoon-bashi bridge, Oguri-gawa Riv., Tokyo"	35.648532		139.457918														7.5	10.1																												2020/06/22	2020/06/22
PRA000100	SAA007096	ST015				Tokyo33_2018Winter_PM	Water	"River water"	2018	2	27		PM		Fair	Asia	Japan	"Hoon-bashi bridge, Oguri-gawa Riv., Tokyo"	35.648532		139.457918														13.8	12.6																												2020/06/22	2020/06/22
PRA000100	SAA007097	ST015				Tokyo34_2018Winter_AM	Water	"River water"	2018	2	27		AM		Cloudy	Asia	Japan	"Takahata bridge, Asa-kawa Riv., Tokyo"	35.664964		139.407388														6.8	10.1																												2020/06/22	2020/06/22
PRA000100	SAA007098	ST015				Tokyo34_2018Winter_PM	Water	"River water"	2018	2	27		PM		Fair	Asia	Japan	"Takahata bridge, Asa-kawa Riv., Tokyo"	35.664964		139.407388														11.7	14.3																												2020/06/22	2020/06/22
PRA000100	SAA007099	ST015				Tokyo35_2018Winter_AM	Water	"River water"	2018	2	21		AM		Fair	Asia	Japan	"Seiryu-bashi bridge, Yanase-gawa Riv., Kiyose city, Tokyo"	35.80483		139.538193														13	14.3																												2020/06/22	2020/06/22
PRA000100	SAA007100	ST015				Tokyo35_2018Winter_PM	Water	"River water"	2018	2	21		PM		Cloudy	Asia	Japan	"Seiryu-bashi bridge, Yanase-gawa Riv., Kiyose city, Tokyo"	35.80483		139.538193														10.8	15																												2020/06/22	2020/06/22
PRA000100	SAA007101	ST015				Tokyo36_2018Winter_AM	Water	"River water"	2018	2	21		AM		Fair	Asia	Japan	"Sakae bridge, Yanase-gawa Riv., Shiki city, Saitama"	35.835634		139.580318														10.8	18.8																												2020/06/22	2020/06/22
PRA000100	SAA007102	ST015				Tokyo36_2018Winter_PM	Water	"River water"	2018	2	21		PM		Fair	Asia	Japan	"Sakae bridge, Yanase-gawa Riv., Shiki city, Saitama"	35.835634		139.580318														14.2	19.2																												2020/06/22	2020/06/22
PRA000100	SAA007103	ST015				Tokyo37_2018Winter_AM	Water	"River water"	2019	1	9		AM		Fair	Asia	Japan	"Ohgi-ohashi bridge, Ara-kawa Riv., Adachi Ward, Tokyo"	35.757589		139.770681														5.7	10.5	7.38																											2020/06/22	2020/06/22
PRA000100	SAA007104	ST015				Tokyo37_2018Winter_PM	Water	"River water"	2019	1	9		PM		Fair	Asia	Japan	"Ohgi-ohashi bridge, Ara-kawa Riv., Adachi Ward, Tokyo"	35.757589		139.770681														6.4	10.8	7.48																											2020/06/22	2020/06/22
PRA000100	SAA007105	ST015				Tokyo38_2018Winter_AM	Water	"River water"	2019	1	9		AM		Fair	Asia	Japan	"Horikiri bridge, Ara-kawa Riv., Tokyo"	35.745773		139.819413														6.8	9.5	7.42																											2020/06/22	2020/06/22
PRA000100	SAA007106	ST015				Tokyo38_2018Winter_PM	Water	"River water"	2019	1	9		PM		Fair	Asia	Japan	"Horikiri bridge, Ara-kawa Riv., Tokyo"	35.745773		139.819413														7.3	9.8	7.37																											2020/06/22	2020/06/22
PRA000100	SAA007107	ST015				Tokyo39_2018Winter_AM	Water	"River water"	2019	1	8		AM		Fair	Asia	Japan	"Odai Bridge, Sumida-gawa Riv., Tokyo"	35.754176		139.762566														11.2	12.5	7.04																											2020/06/22	2020/06/22
PRA000100	SAA007108	ST015				Tokyo39_2018Winter_PM	Water	"River water"	2019	1	8		PM		Fair	Asia	Japan	"Odai Bridge, Sumida-gawa Riv., Tokyo"	35.754176		139.762566														13	13	7.08																											2020/06/22	2020/06/22
PRA000100	SAA007109	ST015				Tokyo40_2018Winter_AM	Water	"River water"	2019	1	8		AM		Fair	Asia	Japan	"Ryogoku Bridge, Sumida Riv., Tokyo"	35.694258		139.788704														12	11.5	7.8																											2020/06/22	2020/06/22
PRA000100	SAA007110	ST015				Tokyo40_2018Winter_PM	Water	"River water"	2019	1	8		PM		Fair	Asia	Japan	"Ryogoku Bridge, Sumida Riv., Tokyo"	35.694258		139.788704														12	11.5	7.53																											2020/06/22	2020/06/22
PRA000100	SAA007111	ST015				Tokyo41_2018Winter_AM	Water	"River water"	2018	3	6		AM		Fair	Asia	Japan	"Shiodome bridge, Naka-gawa Riv., Saitama"	35.800727		139.85166														11.5	14.5																												2020/06/22	2020/06/22
PRA000100	SAA007112	ST015				Tokyo41_2018Winter_PM	Water	"River water"	2018	3	6		PM		Fair	Asia	Japan	"Shiodome bridge, Naka-gawa Riv., Saitama"	35.800727		139.85166														11.1	14																												2020/06/22	2020/06/22
PRA000100	SAA007113	ST015				Tokyo42_2018Winter_AM	Water	"River water"	2018	3	6		AM		Fair	Asia	Japan	"Heiwa bridge, Naka-gawa Riv., Tokyo"	35.727687		139.848471														14	13.5																												2020/06/22	2020/06/22
PRA000100	SAA007114	ST015				Tokyo42_2018Winter_PM	Water	"River water"	2018	3	6		PM		Fair	Asia	Japan	"Heiwa bridge, Naka-gawa Riv., Tokyo"	35.727687		139.848471														12.1	14.5																												2020/06/22	2020/06/22
PRA000100	SAA007115	ST015				FukuokaCity01_2018Summer_AM	Water	"River water"	2018	7	25		AM		Fair	Asia	Japan	"Kasuya-ohashi bridge, Kubara-gawa Riv., Fukuoka city"	33.63292		130.478904														36.1	31	8.3		29.5																									2020/10/2	2020/10/2
PRA000100	SAA007116	ST015				FukuokaCity01_2018Summer_PM	Water	"River water"	2018	7	25		PM		Fair	Asia	Japan	"Kasuya-ohashi bridge, Kubara-gawa Riv., Fukuoka city"	33.63292		130.478904														37.5	33	8.8		30.3																									2020/10/2	2020/10/2
PRA000100	SAA007117	ST015				FukuokaCity02_2018Summer_AM	Water	"River water"	2018	7	25		AM		Fair	Asia	Japan	"Okawa-bashi bridge, Tatara-gawa Riv., Fukuoka"	33.625244		130.475672														31	29.3	8		23.9																									2020/10/2	2020/10/2
PRA000100	SAA007118	ST015				FukuokaCity02_2018Summer_PM	Water	"River water"	2018	7	25		PM		Fair	Asia	Japan	"Okawa-bashi bridge, Tatara-gawa Riv., Fukuoka"	33.625244		130.475672														35	32	8.5		23.6																									2020/10/2	2020/10/2
PRA000100	SAA007119	ST015				FukuokaCity03_2018Summer_AM	Water	"River water"	2018	7	25		AM		Fair	Asia	Japan	"Amouzu-bashi bridge, upstream of Tatara-gawa Riv., Fukuoka"	33.630287		130.46797														35	31	7.8		25.1																									2020/10/2	2020/10/2
PRA000100	SAA007120	ST015				FukuokaCity03_2018Summer_PM	Water	"River water"	2018	7	25		PM		Fair	Asia	Japan	"Amouzu-bashi bridge, upstream of Tatara-gawa Riv., Fukuoka"	33.630287		130.46797														33.2	30.8	8.2		25																									2020/10/2	2020/10/2
PRA000100	SAA007121	ST015				FukuokaCity04_2018Summer_AM	Water	"River water"	2018	7	25		AM		Fair	Asia	Japan	"Najima-bashi bridge, downstream of Tatara-gawa Riv., Fukuoka"	33.639706		130.426939														37.1	31.5	7.8		1650																									2020/10/2	2020/10/2
PRA000100	SAA007122	ST015				FukuokaCity04_2018Summer_PM	Water	"River water"	2018	7	25		PM		Fair	Asia	Japan	"Najima-bashi bridge, downstream of Tatara-gawa Riv., Fukuoka"	33.639706		130.426939														38	31	7.7		1420																									2020/10/2	2020/10/2
PRA000100	SAA007123	ST015				FukuokaCity05_2018Summer_AM	Water	"River water"	2018	7	25		AM		Fair	Asia	Japan	"Kyuya-bashi bridge, downstream of Sue-gawa Riv., Fukuoka"	33.624055		130.430771														34.3	31.8	8.5		402																									2020/10/2	2020/10/2
PRA000100	SAA007124	ST015				FukuokaCity05_2018Summer_PM	Water	"River water"	2018	7	25		PM		Fair	Asia	Japan	"Kyuya-bashi bridge, downstream of Sue-gawa Riv., Fukuoka"	33.624055		130.430771														36.2	33	8.5		603																									2020/10/2	2020/10/2
PRA000100	SAA007125	ST015				FukuokaCity06_2018Summer_AM	Water	"River water"	2018	7	25		AM		Fair	Asia	Japan	"Tounomoto-bashi bridge, downstream of Umi-gawa Riv., Fukuoka"	33.623557		130.430194														33	30	7.6		891																									2020/10/2	2020/10/2
PRA000100	SAA007126	ST015				FukuokaCity06_2018Summer_PM	Water	"River water"	2018	7	25		PM		Fair	Asia	Japan	"Tounomoto-bashi bridge, downstream of Umi-gawa Riv., Fukuoka"	33.623557		130.430194														35	31.8	7.6		849																									2020/10/2	2020/10/2
PRA000100	SAA007127	ST015				FukuokaCity01_2018Winter_AM	Water	"River water"	2018	2	13		AM		Fair	Asia	Japan	"Kasuya-ohashi bridge, Kubara-gawa Riv., Fukuoka city"	33.63292		130.478904																8		38																									2020/10/2	2020/10/2
PRA000100	SAA007128	ST015				FukuokaCity01_2018Winter_PM	Water	"River water"	2018	2	13		PM		Fair	Asia	Japan	"Kasuya-ohashi bridge, Kubara-gawa Riv., Fukuoka city"	33.63292		130.478904																8.5		36.6																									2020/10/2	2020/10/2
PRA000100	SAA007129	ST015				FukuokaCity02_2018Winter_AM	Water	"River water"	2018	2	13		AM		Fair	Asia	Japan	"Okawa-bashi bridge, Tatara-gawa Riv., Fukuoka"	33.625244		130.475672																8.1		24.8																									2020/10/2	2020/10/2
PRA000100	SAA007130	ST015				FukuokaCity02_2018Winter_PM	Water	"River water"	2018	2	13		PM		Fair	Asia	Japan	"Okawa-bashi bridge, Tatara-gawa Riv., Fukuoka"	33.625244		130.475672																8.2		26.7																									2020/10/2	2020/10/2
PRA000100	SAA007131	ST015				FukuokaCity03_2018Winter_AM	Water	"River water"	2018	2	13		AM		Fair	Asia	Japan	"Amouzu-bashi bridge, upstream of Tatara-gawa Riv., Fukuoka"	33.630287		130.46797																8.1		27.2																									2020/10/2	2020/10/2
PRA000100	SAA007132	ST015				FukuokaCity03_2018Winter_PM	Water	"River water"	2018	2	13		PM		Fair	Asia	Japan	"Amouzu-bashi bridge, upstream of Tatara-gawa Riv., Fukuoka"	33.630287		130.46797																8.1		30																									2020/10/2	2020/10/2
PRA000100	SAA007133	ST015				FukuokaCity04_2018Winter_AM	Water	"River water"	2018	2	13		AM		Fair	Asia	Japan	"Najima-bashi bridge, downstream of Tatara-gawa Riv., Fukuoka"	33.639706		130.426939																7.7		2210																									2020/10/2	2020/10/2
PRA000100	SAA007134	ST015				FukuokaCity04_2018Winter_PM	Water	"River water"	2018	2	13		PM		Fair	Asia	Japan	"Najima-bashi bridge, downstream of Tatara-gawa Riv., Fukuoka"	33.639706		130.426939																7.8		1010																									2020/10/2	2020/10/2
PRA000100	SAA007135	ST015				FukuokaCity05_2018Winter_AM	Water	"River water"	2018	2	13		AM		Fair	Asia	Japan	"Kyuya-bashi bridge, downstream of Sue-gawa Riv., Fukuoka"	33.624055		130.430771																7.5		790																									2020/10/2	2020/10/2
PRA000100	SAA007136	ST015				FukuokaCity05_2018Winter_PM	Water	"River water"	2018	2	13		PM		Fair	Asia	Japan	"Kyuya-bashi bridge, downstream of Sue-gawa Riv., Fukuoka"	33.624055		130.430771																8.5		163.8																									2020/10/2	2020/10/2
PRA000100	SAA007137	ST015				FukuokaCity06_2018Winter_AM	Water	"River water"	2018	2	13		AM		Fair	Asia	Japan	"Tounomoto-bashi bridge, downstream of Umi-gawa Riv., Fukuoka"	33.623557		130.430194																7.5		797																									2020/10/2	2020/10/2
PRA000100	SAA007138	ST015				FukuokaCity06_2018Winter_PM	Water	"River water"	2018	2	13		PM		Fair	Asia	Japan	"Tounomoto-bashi bridge, downstream of Umi-gawa Riv., Fukuoka"	33.623557		130.430194																8		261																									2020/10/2	2020/10/2
PRA000101	SAA007172	ST014				SP-1-W_2019	Water	Seawater	2019	7	2					Asia	Japan	"Ginama, Kunigami Village, Okinawa"	26.84938889		128.2525																																											2020/6/8	2020/6/8
PRA000101	SAA007176	ST014				SP-20-W_2019	Water	Seawater	2019	7	3					Asia	Japan	"Naha City, Okinawa"	26.20869444		127.6753889																																											2020/6/8	2020/6/8
PRA000102	SAA007184	ST014				St.1_central_SetoIS_2017	Water	"Sea water"	2017	6	12	10:23				Asia	Japan	"Central part of the Seto Inland Sea"	34.31666667		132.3666667														21.4	20.6					30.543		18.6																					2020/7/1	2020/7/1
PRA000102	SAA007185	ST014				St.2_central_SetoIS_2017	Water	"Sea water"	2017	12	11	11:33				Asia	Japan	"Central part of the Seto Inland Sea"	34.22777778		132.5277778														10.3	15.1					31.785		21.3																					2020/7/1	2020/7/1
PRA000102	SAA007186	ST014				St.3_central_SetoIS_2017	Water	"Sea water"	2017	6	12	12:26				Asia	Japan	"Central part of the Seto Inland Sea"	34.2		132.5944444														21.9	19.5					32.974		11.8																					2020/7/1	2020/7/1
PRA000102	SAA007187	ST014				St.4_central_SetoIS_2017	Water	"Sea water"	2017	6	16	10:23				Asia	Japan	"Central part of the Seto Inland Sea"	34.08333333		132.6666667														24.8	19.8					33.141		37.7																					2020/7/1	2020/7/1
PRA000102	SAA007188	ST014				St.5_central_SetoIS_2017	Water	"Sea water"	2017	6	12	14:13				Asia	Japan	"Central part of the Seto Inland Sea"	34.3		132.8166667														24	19.7					33.088		8.4																					2020/7/1	2020/7/1
PRA000102	SAA007189	ST014				St.6_central_SetoIS_2017	Water	"Sea water"	2017	6	12	15:22				Asia	Japan	"Central part of the Seto Inland Sea"	34.33055556		132.9611111														23.1	18.4					33.013		16.1																					2020/7/1	2020/7/1
PRA000102	SAA007190	ST014				St.7_central_SetoIS_2017	Water	"Sea water"	2017	6	13	9:24				Asia	Japan	"Central part of the Seto Inland Sea"	34.38055556		133.1166667														19.4	19					32.908		17.2																					2020/7/1	2020/7/1
PRA000102	SAA007191	ST014				St.8_central_SetoIS_2017	Water	"Sea water"	2017	6	13	10:28				Asia	Japan	"Central part of the Seto Inland Sea"	34.33333333		133.3														19.1	20.2					32.86		17.9																					2020/7/1	2020/7/1
PRA000102	SAA007192	ST014				St.9_central_SetoIS_2017	Water	"Sea water"	2017	6	13	11:30				Asia	Japan	"Central part of the Seto Inland Sea"	34.38333333		133.4666667														20.6	21.3					32.712		17.5																					2020/7/1	2020/7/1
PRA000102	SAA007193	ST014				St.10_central_SetoIS_2017	Water	"Sea water"	2017	6	13	13:05				Asia	Japan	"Central part of the Seto Inland Sea"	34.47222222		133.7														23.5	20.8					32.516		14.2																					2020/7/1	2020/7/1
PRA000102	SAA007194	ST014				St.11_central_SetoIS_2017	Water	"Sea water"	2017	6	13	14:57				Asia	Japan	"Central part of the Seto Inland Sea"	34.38333333		134.0666667														21.6	20.1					32.615		17.1																					2020/7/1	2020/7/1
PRA000102	SAA007195	ST014				St.12_central_SetoIS_2017	Water	"Sea water"	2017	6	14	9:53				Asia	Japan	"Central part of the Seto Inland Sea"	34.56666667		134.0833333														19.9	21					32.061		13.2																					2020/7/1	2020/7/1
PRA000102	SAA007196	ST014				St.13_central_SetoIS_2017	Water	"Sea water"	2017	6	14	10:51				Asia	Japan	"Central part of the Seto Inland Sea"	34.48333333		133.9666667														21.6	20.5					32.458		62.6																					2020/7/1	2020/7/1
PRA000102	SAA007197	ST014				St.14_central_SetoIS_2017	Water	"Sea water"	2017	12	13	12:01				Asia	Japan	"Central part of the Seto Inland Sea"	34.36666667		133.85														21.8	20.4					31.539		13																					2020/7/1	2020/7/1
PRA000102	SAA007198	ST014				St.15_central_SetoIS_2017	Water	"Sea water"	2017	6	14	14:03				Asia	Japan	"Central part of the Seto Inland Sea"	34.28333333		133.6666667														24.4	20.4					32.859		20.3																					2020/7/1	2020/7/1
PRA000102	SAA007199	ST014				St.16_central_SetoIS_2017	Water	"Sea water"	2017	6	15	9:16				Asia	Japan	"Central part of the Seto Inland Sea"	34		133.5														24	22.1					32.567		17.9																					2020/7/1	2020/7/1
PRA000102	SAA007200	ST014				St.17_central_SetoIS_2017	Water	"Sea water"	2017	6	15	10:44				Asia	Japan	"Central part of the Seto Inland Sea"	34.2		133.4166667														22.1	21.2					33.106		21.3																					2020/7/1	2020/7/1
PRA000102	SAA007201	ST014				St.18_central_SetoIS_2017	Water	"Sea water"	2017	6	15	14:47				Asia	Japan	"Central part of the Seto Inland Sea"	34.16666667		133.25														23.8	21.1					32.979		18.4																					2020/7/1	2020/7/1
PRA000102	SAA007202	ST014				St.22_central_SetoIS_2017	Water	"Sea water"	2017	6	15	12:53				Asia	Japan	"Central part of the Seto Inland Sea"	33.98333333		133.1555556														25.3	23.3					32.696		13																					2020/7/1	2020/7/1
PRA000102	SAA007203	ST014				St.23_central_SetoIS_2017	Water	"Sea water"	2017	6	16	8:54				Asia	Japan	"Central part of the Seto Inland Sea"	34.16666667		132.9														22.9	18.5					33.176		92																					2020/7/1	2020/7/1
PRA000102	SAA007204	ST014				St.A_eastern_SetoIS_2017	Water	"Sea water"	2017	9	11	11:16				Asia	Japan	"Eastern part of the Seto Inland Sea"	34.71666667		134.45														27.2	26.4					31.682		13.6																					2020/7/1	2020/7/1
PRA000102	SAA007205	ST014				St.B_eastern_SetoIS_2017	Water	"Sea water"	2017	9	11	8:56				Asia	Japan	"Eastern part of the Seto Inland Sea"	34.71666667		134.6166667														26.2	26.5					31.932		21.7																					2020/7/1	2020/7/1
PRA000102	SAA007206	ST014				St.C_eastern_SetoIS_2017	Water	"Sea water"	2017	9	10	15:11				Asia	Japan	"Eastern part of the Seto Inland Sea"	34.71666667		134.7833333														28.2	27.3					31.965		13.6																					2020/7/1	2020/7/1
PRA000102	SAA007207	ST014				St.D_eastern_SetoIS_2017	Water	"Sea water"	2017	9	11	10:06				Asia	Japan	"Eastern part of the Seto Inland Sea"	34.58333333		134.5333333														26.6	26.7					32.189		40.7																					2020/7/1	2020/7/1
PRA000102	SAA007208	ST014				St.E_eastern_SetoIS_2017	Water	"Sea water"	2017	9	9	13:36				Asia	Japan	"Eastern part of the Seto Inland Sea"	34.58333333		134.7														28.4	27.3					32.085		24.1																					2020/7/1	2020/7/1
PRA000102	SAA007209	ST014				St.F_eastern_SetoIS_2017	Water	"Sea water"	2017	9	10	13:58				Asia	Japan	"Eastern part of the Seto Inland Sea"	34.58333333		134.8666667														28	25.3					32.894		35.4																					2020/7/1	2020/7/1
PRA000102	SAA007210	ST014				St.G_eastern_SetoIS_2017	Water	"Sea water"	2017	9	9	11:31				Asia	Japan	"Eastern part of the Seto Inland Sea"	34.45		134.45														28	26.9					32.197		40.7																					2020/7/1	2020/7/1
PRA000102	SAA007211	ST014				St.H_eastern_SetoIS_2017	Water	"Sea water"	2017	9	9	12:32				Asia	Japan	"Eastern part of the Seto Inland Sea"	34.45		134.6166667														26.7	27					32.488		34.5																					2020/7/1	2020/7/1
PRA000102	SAA007212	ST014				St.I_eastern_SetoIS_2017	Water	"Sea water"	2017	9	9	9:15				Asia	Japan	"Eastern part of the Seto Inland Sea"	34.31666667		134.3666667														25	26.1					27.546		29.4																					2020/7/1	2020/7/1
PRA000102	SAA007213	ST014				St.J_eastern_SetoIS_2017	Water	"Sea water"	2017	9	9	10:25				Asia	Japan	"Eastern part of the Seto Inland Sea"	34.31666667		134.5333333														26.2	26.4					32.259		33.8																					2020/7/1	2020/7/1
PRA000102	SAA007214	ST014				St.K_eastern_SetoIS_2017	Water	"Sea water"	2017	9	10	8:54				Asia	Japan	"Eastern part of the Seto Inland Sea"	34.66666667		135.3805556														26.4	25.7					24.38		10.4																					2020/7/1	2020/7/1
PRA000102	SAA007215	ST014				St.L_eastern_SetoIS_2017	Water	"Sea water"	2017	9	9	15:59				Asia	Japan	"Eastern part of the Seto Inland Sea"	34.58888889		135.2055556														27.6	25.4					32.328		20.9																					2020/7/1	2020/7/1
PRA000102	SAA007216	ST014				St.M_eastern_SetoIS_2017	Water	"Sea water"	2017	9	10	10:10				Asia	Japan	"Eastern part of the Seto Inland Sea"	34.52777778		135.2805556														28.8	26					32.01		19.2																					2020/7/1	2020/7/1
PRA000102	SAA007217	ST014				St.N_eastern_SetoIS_2017	Water	"Sea water"	2017	9	10	11:18				Asia	Japan	"Eastern part of the Seto Inland Sea"	34.42222222		135.1388889														28	25.7					32.637		23.4																					2020/7/1	2020/7/1
PRA000102	SAA007218	ST014				St.O_eastern_SetoIS_2017	Water	"Sea water"	2017	9	10	12:00				Asia	Japan	"Eastern part of the Seto Inland Sea"	34.48333333		135.0638889														28.6	26.5					32.73		53.9																					2020/7/1	2020/7/1
PRA000102	SAA007219	ST014				St.1_central_SetoIS_2018	Water	"Sea water"	2018	6	11	10:25				Asia	Japan	"Central part of the Seto Inland Sea"	34.31666667		132.3666667														21.1	19.8					25.894		17.5																					2020/7/1	2020/7/1
PRA000102	SAA007220	ST014				St.2_central_SetoIS_2018	Water	"Sea water"	2018	6	11	11:44				Asia	Japan	"Central part of the Seto Inland Sea"	34.22777778		132.5277778														22.2	19.7					31.492		21.13																					2020/7/1	2020/7/1
PRA000102	SAA007221	ST014				St.3_central_SetoIS_2018	Water	"Sea water"	2018	6	11	12:27				Asia	Japan	"Central part of the Seto Inland Sea"	34.2		132.5944444														20.9	19					32.159		10.1																					2020/7/1	2020/7/1
PRA000102	SAA007222	ST014				St.4_central_SetoIS_2018	Water	"Sea water"	2018	6	15	10:53				Asia	Japan	"Central part of the Seto Inland Sea"	34.08333333		132.6666667														24.4	18.5					33.038		36.98																					2020/7/1	2020/7/1
PRA000102	SAA007223	ST014				St.5_central_SetoIS_2018	Water	"Sea water"	2018	6	11	14:21				Asia	Japan	"Central part of the Seto Inland Sea"	34.3		132.8166667														20.6	18.5					32.095		7.6																					2020/7/1	2020/7/1
PRA000102	SAA007224	ST014				St.6_central_SetoIS_2018	Water	"Sea water"	2018	6	11	15:22				Asia	Japan	"Central part of the Seto Inland Sea"	34.33055556		132.9611111														20.4	18.4					32.592		15.48																					2020/7/1	2020/7/1
PRA000102	SAA007225	ST014				St.7_central_SetoIS_2018	Water	"Sea water"	2018	6	12	9:37				Asia	Japan	"Central part of the Seto Inland Sea"	34.38055556		133.1166667														20.6	18.7					32.545		18.49																					2020/7/1	2020/7/1
PRA000102	SAA007226	ST014				St.8_central_SetoIS_2018	Water	"Sea water"	2018	6	12	10:42				Asia	Japan	"Central part of the Seto Inland Sea"	34.33333333		133.3														22.1	20.8					31.92		18.68																					2020/7/1	2020/7/1
PRA000102	SAA007227	ST014				St.9_central_SetoIS_2018	Water	"Sea water"	2018	6	12	11:42				Asia	Japan	"Central part of the Seto Inland Sea"	34.38333333		133.4666667														22.7	20.8					31.534		17.39																					2020/7/1	2020/7/1
PRA000102	SAA007228	ST014				St.10_central_SetoIS_2018	Water	"Sea water"	2018	6	12	13:12				Asia	Japan	"Central part of the Seto Inland Sea"	34.47222222		133.7														23.7	19.9					31.823		14.19																					2020/7/1	2020/7/1
PRA000102	SAA007229	ST014				St.11_central_SetoIS_2018	Water	"Sea water"	2018	6	12	15:05				Asia	Japan	"Central part of the Seto Inland Sea"	34.38333333		134.0666667														26	20					31.932		16.93																					2020/7/1	2020/7/1
PRA000102	SAA007230	ST014				St.12_central_SetoIS_2018	Water	"Sea water"	2018	6	13	10:10				Asia	Japan	"Central part of the Seto Inland Sea"	34.56666667		134.0833333														22.4	20.3					30.899		14.88																					2020/7/1	2020/7/1
PRA000102	SAA007231	ST014				St.13_central_SetoIS_2018	Water	"Sea water"	2018	6	13	11:20				Asia	Japan	"Central part of the Seto Inland Sea"	34.48333333		133.9666667														20.9	19.9					31.523		73.79																					2020/7/1	2020/7/1
PRA000102	SAA007232	ST014				St.14_central_SetoIS_2018	Water	"Sea water"	2018	6	13	12:50				Asia	Japan	"Central part of the Seto Inland Sea"	34.36666667		133.85														21.8	20.4					32.181		14.77																					2020/7/1	2020/7/1
PRA000102	SAA007233	ST014				St.15_central_SetoIS_2018	Water	"Sea water"	2018	6	13	15:02				Asia	Japan	"Central part of the Seto Inland Sea"	34.28333333		133.6666667														22.9	20.2					32.521		15.91																					2020/7/1	2020/7/1
PRA000102	SAA007234	ST014				St.16_central_SetoIS_2018	Water	"Sea water"	2018	6	14	9:29				Asia	Japan	"Central part of the Seto Inland Sea"	34		133.5														21.1	21.8					31.566		19.5																					2020/7/1	2020/7/1
PRA000102	SAA007235	ST014				St.17_central_SetoIS_2018	Water	"Sea water"	2018	6	14	10:51				Asia	Japan	"Central part of the Seto Inland Sea"	34.2		133.4166667														21.3	20.2					32.254		22.92																					2020/7/1	2020/7/1
PRA000102	SAA007236	ST014				St.18_central_SetoIS_2018	Water	"Sea water"	2018	6	14	14:14				Asia	Japan	"Central part of the Seto Inland Sea"	34.16666667		133.25														20.9	20.4					32.348		17.41																					2020/7/1	2020/7/1
PRA000102	SAA007237	ST014				St.22_central_SetoIS_2018	Water	"Sea water"	2018	6	14	12:48				Asia	Japan	"Central part of the Seto Inland Sea"	33.98333333		133.1555556														21.9	21.1					31.495		12.57																					2020/7/1	2020/7/1
PRA000102	SAA007238	ST014				St.23_central_SetoIS_2018	Water	"Sea water"	2018	6	15	9:13				Asia	Japan	"Central part of the Seto Inland Sea"	34.16666667		132.9														20.6	18.6					32.892		97																					2020/7/1	2020/7/1
PRA000102	SAA007239	ST014				St.A_eastern_SetoIS_2018	Water	"Sea water"	2018	11	30	16:16				Asia	Japan	"Eastern part of the Seto Inland Sea"	34.71666667		134.45														15.8	15.9					30.319		13.5																					2020/7/1	2020/7/1
PRA000102	SAA007240	ST014				St.B_eastern_SetoIS_2018	Water	"Sea water"	2018	11	30	15:17				Asia	Japan	"Eastern part of the Seto Inland Sea"	34.71666667		134.6166667														16.8	17.2					30.941		22.4																					2020/7/1	2020/7/1
PRA000102	SAA007241	ST014				St.C_eastern_SetoIS_2018	Water	"Sea water"	2018	11	30	14:15				Asia	Japan	"Eastern part of the Seto Inland Sea"	34.71666667		134.7833333														17.4	16.9					30.638		13.6																					2020/7/1	2020/7/1
PRA000102	SAA007242	ST014				St.D_eastern_SetoIS_2018	Water	"Sea water"	2018	11	29	12:39				Asia	Japan	"Eastern part of the Seto Inland Sea"	34.58333333		134.5333333														17.2	18					31.266		40.9																					2020/7/1	2020/7/1
PRA000102	SAA007243	ST014				St.E_eastern_SetoIS_2018	Water	"Sea water"	2018	11	29	13:44				Asia	Japan	"Eastern part of the Seto Inland Sea"	34.58333333		134.7														17	17.8					31.12		24.06																					2020/7/1	2020/7/1
PRA000102	SAA007244	ST014				St.F_eastern_SetoIS_2018	Water	"Sea water"	2018	11	29	14:56				Asia	Japan	"Eastern part of the Seto Inland Sea"	34.58333333		134.8666667														17	17.6					32.345		34.67																					2020/7/1	2020/7/1
PRA000102	SAA007245	ST014				St.G_eastern_SetoIS_2018	Water	"Sea water"	2018	11	29	9:25				Asia	Japan	"Eastern part of the Seto Inland Sea"	34.45		134.45														14.9	17.8					30.957		39.1																					2020/7/1	2020/7/1
PRA000102	SAA007246	ST014				St.H_eastern_SetoIS_2018	Water	"Sea water"	2018	11	29	11:37				Asia	Japan	"Eastern part of the Seto Inland Sea"	34.45		134.6166667														17.3	17.8					31.354		33.8																					2020/7/1	2020/7/1
PRA000102	SAA007247	ST014				St.I_eastern_SetoIS_2018	Water	"Sea water"	2018	11	28	14:58				Asia	Japan	"Eastern part of the Seto Inland Sea"	34.31666667		134.3666667														16.5	17.3					31.184		29.82																					2020/7/1	2020/7/1
PRA000102	SAA007248	ST014				St.J_eastern_SetoIS_2018	Water	"Sea water"	2018	11	29	10:29				Asia	Japan	"Eastern part of the Seto Inland Sea"	34.31666667		134.5333333														15	16.9					31.523		32.6																					2020/7/1	2020/7/1
PRA000102	SAA007249	ST014				St.K_eastern_SetoIS_2018	Water	"Sea water"	2018	11	30	8:18				Asia	Japan	"Eastern part of the Seto Inland Sea"	34.66666667		135.3805556														11.1	14.7					21.516		9.1																					2020/7/1	2020/7/1
PRA000102	SAA007250	ST014				St.L_eastern_SetoIS_2018	Water	"Sea water"	2018	11	29	17:01				Asia	Japan	"Eastern part of the Seto Inland Sea"	34.58888889		135.2055556														15.1	16.5					31.396		21																					2020/7/1	2020/7/1
PRA000102	SAA007251	ST014				St.M_eastern_SetoIS_2018	Water	"Sea water"	2018	11	30	10:02				Asia	Japan	"Eastern part of the Seto Inland Sea"	34.52777778		135.2805556														14.6	16.4					31.241		18.4																					2020/7/1	2020/7/1
PRA000102	SAA007252	ST014				St.N_eastern_SetoIS_2018	Water	"Sea water"	2018	11	30	11:09				Asia	Japan	"Eastern part of the Seto Inland Sea"	34.42222222		135.1388889														16.2	17.4					32.064		23.2																					2020/7/1	2020/7/1
PRA000102	SAA007253	ST014				St.O_eastern_SetoIS_2018	Water	"Sea water"	2018	11	30	11:46				Asia	Japan	"Eastern part of the Seto Inland Sea"	34.48333333		135.0638889														15	17.4					32.255		52.9																					2020/7/1	2020/7/1
PRA000112	SAA007535	ST015				Hokkaido_w3_2018	Water	"River water"	2018	11	5	2018-11-05T14:20			Cloudy	Asia	Japan	"Ishikarikako-kyo Bridge, Mouth of Riv. Ishikari (Ishikari City), Hokkaido"	43.22861111		141.3519444														14.6	9.1	8.3	9.5	65			28			Brown																			2020/12/21	2020/12/21
PRA000112	SAA007536	ST014				Hokkaido_w7_2018	Water	"Sea water"	2018	9	12	2018-09-12T10:50			Fair	Asia	Japan	"Tomakomai Port, Hokkaido"	42.63138889		141.6288889														19.6	19.5	7.9	9.5				44		3.5	"Greenish blue"																			2020/12/21	2020/12/21
PRA000112	SAA007537	ST015				SapporoCity_w1_2018	Water	"River water"	2018	10	17	2018-10-17T10:30			Cloudy	Asia	Japan	"Nakanuma of Riv. Toyohira (Sapporo City), Hokkaido"	43.14083333		141.4530556														11	13	7.1	11	24			2			"Light Yellow"																			2020/12/21	2020/12/21
PRA000112	SAA007538	ST015				SapporoCity_w2_2018	Water	"River water"	2018	10	17	2018-10-17T12:45			Fair	Asia	Japan	"Daiichishinkawa-bashi Bridge, Riv. Shin (Sapporo City), Hokkaido"	43.15194444		141.2377778														12	14	6.8	8.6	39			6			"Light Yellow"																			2020/12/21	2020/12/21
PRA000112	SAA007539	ST015				Iwate_w1-1_2018	Water	"River water"	2018	10	10	2018-10-10T10:05			Cloudy	Asia	Japan	"Riv. Toyosawa (Hanamaki City), Iwate"	39.38166667		141.1191667														17.9	15.9	7.1	9.9	7.7			5			"Light Green"																			2020/12/21	2020/12/21
PRA000112	SAA007540	ST015				Iwate_w1-2_2018	Water	"River water"	2019	1	23	2019-01-23T10:30			Cloudy	Asia	Japan	"Riv. Toyosawa (Hanamaki City), Iwate"	39.38166667		141.1191667														2.5	1.2	7.9	13	10			8			"Light Green"																			2020/12/21	2020/12/21
PRA000112	SAA007541	ST015				Miyagi_w1_2018	Water	"River water"	2018	10	25	2018-10-25T13:36			Fair	Asia	Japan	"Futatsuya-bashi Bridge, Riv. Hasama (Tome City), Miyagi"	38.57138889		141.2136111														18.7	17.1	7.5	9.4	16			5			"Light Yellow"																			2020/12/21	2020/12/21
PRA000112	SAA007542	ST015				Sendai_w1_2018	Water	"River water"	2018	11	5	2018-11-05T09:47			Cloudy	Asia	Japan	"Hirose-ohashi Bridge, Riv. Hirose (Sendai City), Miyagi"	38.21333333		140.9088889														13.7	12.7	6.8	11	22			<1			Clear																			2020/12/21	2020/12/21
PRA000112	SAA007543	ST015				Akita_w1_2018	Water	"River water"	2018	10	15	2018-10-15T12:42			"Slightly cloudy"	Asia	Japan	"Akita Canal (Akita City), Akita"	39.75083333		140.0586111														20.2	18	7.7	7.2	1,630			2		2.8	Green																			2020/12/21	2020/12/21
PRA000112	SAA007544	ST015				Yamagata_w1_2018	Water	"River water"	2018	10	17	2018-10-17T09:20			Cloudy	Asia	Japan	"Mouth of Riv. Mogami, Yamagata"	38.88722222		139.8433333														14.3	14.9	7.3	9.4	21			2			"Light Yellow"																			2020/12/21	2020/12/21
PRA000112	SAA007545	ST015				Ibaraki_w2_2018	Water	"River water"	2018	11	9	2018-11-09T10:29			Cloudy	Asia	Japan	"Kamome-ohasi Bridge, Mouth of Riv. Tone (Kamisu City), Ibaraki"	35.77638889		140.7569444														17.8	18	7.9	9.4	637			4.8			Clear																			2020/12/21	2020/12/21
PRA000112	SAA007546	ST014				Ibaraki_w3_2018	Water	"Sea water"	2018	11	9	2018-11-09T13:00			Rain	Asia	Japan	"Fukashiba sewage treatment plant discharge destination, Kashima-nada, Ibaraki"	35.91861111		140.7094444														20	28.5	6.7	5.3	2.6			5.6			"Light Yellow green"																			2020/12/21	2020/12/21
PRA000112	SAA007547	ST015				Tochigi_w1_2018	Water	"River water"	2018	10	18	2018-10-18T11:10			Fair	Asia	Japan	"Tagawa area-Toshuko Weir (Utsunomiya City), Tochigi"	36.52805556		139.8855556														22.2	18	8.3	11	20			2			Clear																			2020/12/21	2020/12/21
PRA000112	SAA007548	ST015				Gunma_w6-1_2018	Water	"River water"	2018	10	17	2018-10-17T09:45			Fair	Asia	Japan	"Namiii-bashi Bridge, Kanzawa-gawa Riv. (Isezaki City and Maebashi City), Gunma"	36.360916		139.187218														23.4	18.2	8	9.2				4			Clear																			2020/12/21	2020/12/21
PRA000112	SAA007549	ST015				Saitama_w2_2018	Water	"River water"	2018	10	24	2018-10-24T10:25			Fair	Asia	Japan	"Akigase-Shusuizeki Weir, Riv. Ara(Shiki City), Saitama"	35.84055556		139.6044444														19.7	17.3	7.7	9.7	25			3			"Light Green"																			2020/12/21	2020/12/21
PRA000112	SAA007550	ST015				SaitamaCity_w1_2018	Water	"River water"	2018	11	13	2018-11-13T14:20			Cloudy	Asia	Japan	"Nakadote-bashi Bridge, Riv. Kamo (Saitama City), Saitama"	35.855		139.6077778														17.6	15.5	7.3	7.6	32			9			"Grayish yellow"																			2020/12/21	2020/12/21
PRA000112	SAA007551	ST015				Chiba_w1_2018	Water	"River water"	2018	10	10	2018-10-10T09:30			Fair	Asia	Japan	"Asai-bashi Bridge, Riv. Yourou (Ichihara City), Chiba"	35.46722222		140.1155556														22	22	8	8.8				6			"Light Yellow green"																			2020/12/21	2020/12/21
PRA000112	SAA007552	ST015				Tokyo_w1_2018	Water	"River water"	2018	8	23	2018-08-23T10:35			Fair	Asia	Japan	"Mouth of Riv. Arakawa (Koto Ward), Tokyo"	35.64583333		139.8463889														25.7	25.8	7.7	5.7	1,234			4		1.3	"Greenish brown"																			2020/12/21	2020/12/21
PRA000112	SAA007553	ST015				Tokyo_w2_2018	Water	"River water"	2018	8	23	2018-08-23T12:35			Fair	Asia	Japan	"Mouth of Riv. Sumida (Minato Ward), Tokyo"	35.66		139.7705556														26.3	26.8	7.3	5.4	2,120			3		1.6	"Dark Grayish yellow green"																			2020/12/21	2020/12/21
PRA000112	SAA007554	ST014				YokohamaCity_w3_2018	Water	"Sea water"	2018	11	5	2018-11-05T09:50			Cloudy	Asia	Japan	"Yokohama Port, Kanagawa"	35.45555556		139.6636111														20.2	20	8.3	8.7				3.2		5	Clear																			2020/12/21	2020/12/21
PRA000112	SAA007555	ST015				YokohamaCity_w1_2018	Water	"River water"	2018	11	8	2018-11-08T09:30			Fair	Asia	Japan	"Kamenoko-bashi Bridge, Riv. Tsurumi (Yokohama City), Kanagawa"	35.51444444		139.6080556														16.8	19.2	7.3	7.8	40			3.3			"Light yellow"																			2020/12/21	2020/12/21
PRA000112	SAA007556	ST015				Kawasaki_w1_2018	Water	"River water"	2018	11	5	2018-11-05T12:05			Cloudy	Asia	Japan	"Mouth of Riv. Tama (Kawasaki City), Kanagawa"	35.53		139.7836111														22.6	19.6	7.8	8.4	4,100			9.8		1.6	"Greenish blue"																			2020/12/21	2020/12/21
PRA000112	SAA007557	ST014				Kawasaki_w2_2018	Water	"Sea water"	2018	11	5	2018-11-05T11:02			Cloudy/Fair	Asia	Japan	"Keihin Canal, Kawasaki Port, Kanagawa (front of Ogimachi)"	35.49527778		139.7277778														22.9	20.1	8.2	8.4	4,500			13		2.7	"Grayish blue"																			2020/12/21	2020/12/21
PRA000112	SAA007558	ST015				Niigata_w2-1_2018	Water	"River water"	2018	10	3	2018-10-03T09:15			Fair	Asia	Japan	"Downstream of Riv. Shinano (Niigata City), Niigata"	37.88305556		139.0155556														25.8	19.9	6.8	8.6	9			220			Brown																			2020/12/21	2020/12/21
PRA000112	SAA007559	ST015				Ishikawa_w1_2018	Water	"River water"	2018	10	25	2018-10-25T09:52			Fair	Asia	Japan	"Mouth of Riv. Sai (Kanazawa City), Ishikawa"	36.60027778		136.5888889														20.5	17.5	7.3	7.9	139			4			"Yellow green"																			2020/12/21	2020/12/21
PRA000112	SAA007560	ST015				Nagano_w2_2018	Water	"Lake water"	2018	10	29	2018-10-29T10:25			Fair	Asia	Japan	"Center of Lake Suwa, Nagano"	36.05		138.0861111														19.5	15.8	7.7	11	13			11		0.8	"Light Yellow green"																			2020/12/21	2020/12/21
PRA000112	SAA007561	ST015				Nagano_w3_2018	Water	"River water"	2018	10	30	2018-10-30T10:28			Fair	Asia	Japan	"Tategahana-bashi Bridge, Riv. Shinano (Nakano City), Nagano"	36.73194444		138.3083333														14	13.1	7.6	10	18			2			"Light Yellow green"																			2020/12/21	2020/12/21
PRA000112	SAA007562	ST014				Shizuoka_w2_2018	Water	"Sea water"	2018	9	27	2018-09-27T09:45			"Light rain"	Asia	Japan	"Shimizu Port, Shizuoka"	35.02416667		138.5161111														20.1	23.4	7.7	7.2	4,330			13		2.5	Clear																			2020/12/21	2020/12/21
PRA000112	SAA007563	ST015				Shizuoka_w1_2018	Water	"River water"	2018	10	24	2018-10-24T13:05			Fair	Asia	Japan	"Riv. Tenryu (Iwata City), Shizuoka"	34.67916667		137.7961111														24.9	18.1	7.4	9.9	12			22			White																			2020/12/21	2020/12/21
PRA000112	SAA007564	ST015				Shizuoka_w6_2018	Water	"River water"	2018	10	24	2018-10-24T10:07			Fair	Asia	Japan	"The end of Niino-gawa Riv. (Omaezaki City), Shizuoka"	34.62361111		138.1366667														25.4	20.4	6.6	9.7	134			13			Brown																			2020/12/21	2020/12/21
PRA000112	SAA007565	ST014				Aichi_w2-1_2018	Water	"Sea water"	2018	10	23	2018-10-23T13:10			Cloudy	Asia	Japan	"Nagoya Port, West of Shiomi Wharf, Aichi"	35.07111111		136.8691667														19.2	21.8	7.9	2.9	3,800			4		1.8	"Light Green"																			2020/12/21	2020/12/21
PRA000112	SAA007566	ST015				NagoyaCity_w1_2018	Water	"River water"	2018	11	20	2018-11-20T09:30			Fair	Asia	Japan	"Minatoshinbashi Bridge, Riv. Hori (Nagoya City), Aichi"	35.09805556		136.8925														14.5	19	7.4	3				2.58			"Greenish brown"																			2020/12/21	2020/12/21
PRA000112	SAA007567	ST014				Mie_w1_2018	Water	"Sea water"	2018	10	30	2018-10-30T10:00			Fair	Asia	Japan	"Yokkaichi Port, Mie"	34.94944444		136.6530556														21.9	19.2	8.3	9.6	3,970			4		1.5	"Greenish brown"																			2020/12/21	2020/12/21
PRA000112	SAA007568	ST014				Mie_w2_2018	Water	"Sea water"	2018	10	22	2018-10-22T09:55			Fair	Asia	Japan	"Toba Port, Mie"	34.48083333		136.8486111														23.5	21	8.1	7.1	3,900			4.2		3	"Grayish green"																			2020/12/21	2020/12/21
PRA000112	SAA007569	ST015				Shiga_w1_2018	Water	"Lake water"	2018	10	22	2018-10-22T09:25			Fair	Asia	Japan	"Lake Biwa (center, offshore of Minamihira), Shiga"	35.18527778		135.9733333														19	18.2	8	9.3	11.9			<1		5.4	"Dark Green"																			2020/12/21	2020/12/21
PRA000112	SAA007570	ST015				Shiga_w2-1_2018	Water	"Lake water"	2018	10	10	2018-10-10T10:10			Cloudy	Asia	Japan	"Lake Biwa (center, offshore of Karasaki), Shiga"	35.04611111		135.8955556														23.1	22.3	8	9.1	11.7			3.4		2.3	"Dark Yellow green"																			2020/12/21	2020/12/21
PRA000112	SAA007571	ST014				Kyoto_w1_2018	Water	"Sea water"	2018	10	17	2018-10-17T10:40			"Fair with occasional rain"	Asia	Japan	"Miyazu Port, Kyoto"	35.58305556		135.2138889														18.9	22.9	8.4	4.2				3		7	Clear																			2020/12/21	2020/12/21
PRA000112	SAA007572	ST015				Kyoto_w3_2018	Water	"River water"	2018	11	20	2018-11-20T10:00			Fair	Asia	Japan	"Gokou-bashi Bridge, Riv. Kizu (Yawata City), Kyoto"	34.88972222		135.6994444														14.6	14.2	7.9	10.3	15			3			Clear																			2020/12/21	2020/12/21
PRA000112	SAA007573	ST015				KyotoCity_w1_2018	Water	"River water"	2018	11	8	2018-11-08T10:30			Fair	Asia	Japan	"Miyamae-bashi Bridge, Riv. Katsura (Kyoto City), Kyoto"	34.905		135.7125														19.5	20.5	7.4	9	20			1			Clear																			2020/12/21	2020/12/21
PRA000112	SAA007574	ST015				Osaka_w1_2018	Water	"River water"	2018	11	13	2018-11-13T09:40			Cloudy	Asia	Japan	"Mouth of Riv. Yamato (Sakai City), Osaka"	34.60833333		135.4325														17.3	19.6	8	6.6				2		1.5	Clear																			2020/12/21	2020/12/21
PRA000112	SAA007575	ST015				OsakaCity_w1_2018	Water	"River water"	2018	11	16	2018-11-16T10:25			Fair	Asia	Japan	"Kema-bashi Bridge, Riv. Oh-kawa (Osaka City), Osaka"	34.72		135.5186111														18.7	16.1	7.4	8.9	17			65			"Dark Grayish yellow"																			2020/12/21	2020/12/21
PRA000112	SAA007576	ST014				OsakaCity_w2_2018	Water	"Sea water"	2018	11	12	2018-11-12T11:07			Cloudy	Asia	Japan	"Osaka Port, Osaka"	34.65861111		135.4313889														18.3	19.6	7.6	7.4	2,220			1.2		3	"Light Grayish yellow"																			2020/12/21	2020/12/21
PRA000112	SAA007577	ST014				Hyogo_w3_2018	Water	"Sea water"	2018	10	18	2018-10-18T10:29			Fair	Asia	Japan	"Offshore of Himeji, Hyogo"	34.76194444		134.6697222														22	23.3	7.3	6.6	3,930			18.1		2.2	"Greenish brown"																			2020/12/21	2020/12/21
PRA000112	SAA007578	ST014				Hyogo_w6_2018	Water	"Sea water"	2018	10	18	2018-10-18T11:53			Fair	Asia	Japan	"Aboshi Port, Hyogo"	34.77472222		134.6066667														22	23.1	7.5	7.1	3,990			19.3		1.9	"Greenish brown"																			2020/12/21	2020/12/21
PRA000112	SAA007579	ST014				Hyogo_w8_2018	Water	"Sea water"	2018	10	18	2018-10-18T13:16			Fair	Asia	Japan	"Port entrance of Takasago-nishi Port, Hyogo"	34.73777778		134.7852778														2.1	24.2	7.4	7	4,190			22.6		2	"Greenish brown"																			2020/12/21	2020/12/21
PRA000112	SAA007580	ST014				Kobe_w1_2018	Water	"Sea water"	2018	11	1	2018-11-01T10:30			Fair	Asia	Japan	"Center of Kobe Port, Hyogo"	34.66444444		135.1944444														16	21	7.9	6.4				2		2.3	"Greenish brown"																			2020/12/21	2020/12/21
PRA000112	SAA007581	ST015				Nara_w1_2018	Water	"River water"	2018	10	2	2018-10-02T10:04			Fair	Asia	Japan	"Taisho-bashi Bridge, Riv. Yamato (Oji town), Nara"	34.58583333		135.6833333														24	19	7.6	8.6	19			18			"Light Grayish yellow brown"																			2020/12/21	2020/12/21
PRA000112	SAA007582	ST015				Wakayama_w1_2018	Water	"River water"	2018	11	13	2018-11-13T14:40			Cloudy	Asia	Japan	"Kinokawa-ohashi Bridge, Mouth of Riv. Kinokawa (Wakayama City), Wakayama"	34.23		135.1561111														18.7	20.1	7.8	7.6	3,270			1		2	"Greenish blue"																			2020/12/21	2020/12/21
PRA000112	SAA007583	ST015				Wakayama_w7_2018	Water	"River water"	2018	11	12	2018-11-12T14:40			Cloudy	Asia	Japan	"Asahi-bashi Bridge, Waka-gawa Riv. (Wakayama City), Wakayama"	34.1875		135.1794444														18.4	19.6	7.7	6.2	3,880			2			"Dark Green"																			2020/12/21	2020/12/21
PRA000112	SAA007584	ST014				Okayama_w2_2018	Water	"Sea water"	2018	11	13	2018-11-13T10:25			Cloudy	Asia	Japan	"Offshore of Mizushima, Okayama"	34.48055556		133.665														18	19	7.9	7.2	7,000			8		1.8	"Dark Yellow green"																			2020/12/21	2020/12/21
PRA000112	SAA007585	ST015				Okayama_w1_2018	Water	"River water"	2018	11	21	2018-11-21T11:00			Fair	Asia	Japan	"Sasagase-bashi Bridge, Riv. Sasagase (Okayama City), Okayama"	34.61916667		133.9061111														14	14.3	7.5	8.6	20			8			"Dark Greenish blue"																			2020/12/21	2020/12/21
PRA000112	SAA007586	ST014				Yamagachi_w1_2018	Water	"Sea water"	2018	10	19	2018-10-19T13:45			Fair	Asia	Japan	"Tokuyama Bay, Yamaguchi"	33.99361111		131.7505556														21.5	21.3	8	7.9				3.2		6.5	"Bluish green"																			2020/12/21	2020/12/21
PRA000112	SAA007587	ST014				Yamaguchi_w2_2018	Water	"Sea water"	2018	11	1	2018-11-01T11:15			Fair	Asia	Japan	"Offshore of Hagi, Yamaguchi"	34.43805556		131.3794444														20	20.9	8.3	7.3				2		9	"Bluish green"																			2020/12/21	2020/12/21
PRA000112	SAA007588	ST014				Kagawa_w1_2018	Water	"Sea water"	2018	10	23	2018-10-23T08:50			Cloudy	Asia	Japan	"Takamatsu Port, Kagawa"	34.34972222		134.0788889														20.4	22.3	8.1	7				5		2	Green																			2020/12/21	2020/12/21
PRA000112	SAA007589	ST014				Fukuoka_w2_2018	Water	"Sea water"	2018	10	30	2018-10-30T11:58			Fair	Asia	Japan	"Offshore of Omuta, Fukuoka"	33.03472222		130.4113889														15	20.2	6.5	8.8	4,500			6.8		1.5	"Light Yellow"																			2020/12/21	2020/12/21
PRA000112	SAA007590	ST015				Fukuoka_w1_2018	Water	"River water"	2018	11	2	2018-11-02T10:52			Fair	Asia	Japan	"Kabura-bashi Bridge, Riv. Raizan (Itoshima City), Fukuoka"	33.565		130.1902778														18.2	15.8	7	10	36			12			"Light Yellow"																			2020/12/21	2020/12/21
PRA000112	SAA007591	ST014				KitakyushuCity_w1_2018	Water	"Sea water"	2018	10	30	2018-10-30T09:20			Fair	Asia	Japan	"Dokai Bay (Kitakyushu City), Fukuoka"	33.90388889		130.8158333														19.1	19.9	7.9	7.4	4,500			3		3.5	Clear																			2020/12/21	2020/12/21
PRA000112	SAA007592	ST014				FukuokaCity_w1_2018	Water	"Sea water"	2018	10	16	2018-10-16T09:05			Fair	Asia	Japan	"Hakata Bay, Fukuoka"	33.60833333		130.3297222														18.9	21.5	7.8	7.3	4,800			2		3.2	"Dark Green"																			2020/12/21	2020/12/21
PRA000112	SAA007593	ST014				Saga_w1_2018	Water	"Sea water"	2018	10	31	2018-10-31T10:20			Cloudy	Asia	Japan	"Imari Bay, Saga"	33.34		129.8208333														14	18.5	8.4	3.4	4,700			44		2.5	Clear																			2020/12/21	2020/12/21
PRA000112	SAA007594	ST015				Oita_w2_2018	Water	"River water"	2018	11	19	2018-11-19T09:30			Cloudy	Asia	Japan	"Mouth of Riv. Oita, Oita"	33.25722222		131.6175														15.7	20.2	7.7	8.4	1,100			11			"Dark Grayish green"																			2020/12/21	2020/12/21
PRA000115	SAA007535	ST015				Hokkaido_w3_2018	Water	"River water"	2018	11	5	2018-11-05T14:20			Cloudy	Asia	Japan	"Ishikarikako-kyo Bridge, Mouth of Riv. Ishikari (Ishikari City), Hokkaido"	43.22861111		141.3519444														14.6	9.1	8.3	9.5	65			28			Brown																			2021/3/17	2021/3/17
PRA000115	SAA007536	ST014				Hokkaido_w7_2018	Water	"Sea water"	2018	9	12	2018-09-12T10:50			Fair	Asia	Japan	"Tomakomai Port, Hokkaido"	42.63138889		141.6288889														19.6	19.5	7.9	9.5				44		3.5	"Greenish blue"																			2021/3/17	2021/3/17
PRA000115	SAA007539	ST015				Iwate_w1-1_2018	Water	"River water"	2018	10	10	2018-10-10T10:05			Cloudy	Asia	Japan	"Riv. Toyosawa (Hanamaki City), Iwate"	39.38166667		141.1191667														17.9	15.9	7.1	9.9	7.7			5			"Light Green"																			2021/3/17	2021/3/17
PRA000115	SAA007541	ST015				Miyagi_w1_2018	Water	"River water"	2018	10	25	2018-10-25T13:36			Fair	Asia	Japan	"Futatsuya-bashi Bridge, Riv. Hasama (Tome City), Miyagi"	38.57138889		141.2136111														18.7	17.1	7.5	9.4	16			5			"Light Yellow"																			2021/3/17	2021/3/17
PRA000115	SAA007853	ST015				Miyagi_w2_2018	Water	"River water"	2018	10	25	2018-10-25T10:24			Fair	Asia	Japan	"Sakura-hodoukyou Bridge, Riv. Shiroishi (Shibata Town), Miyagi"	38.06083333		140.7677778														17.6	14.9	7.5	9.7	13			1			"Light Yellow"																			2021/3/17	2021/3/17
PRA000115	SAA007543	ST015				Akita_w1_2018	Water	"River water"	2018	10	15	2018-10-15T12:42			"Slightly cloudy"	Asia	Japan	"Akita Canal (Akita City), Akita"	39.75083333		140.0586111														20.2	18	7.7	7.2	1,630			2		2.8	Green																			2021/3/17	2021/3/17
PRA000115	SAA007544	ST015				Yamagata_w1_2018	Water	"River water"	2018	10	17	2018-10-17T09:20			Cloudy	Asia	Japan	"Mouth of Riv. Mogami, Yamagata"	38.88722222		139.8433333														14.3	14.9	7.3	9.4	21			2			"Light Yellow"																			2021/3/17	2021/3/17
PRA000115	SAA007854	ST015				Yamagata_w4_2018	Water	"River water"	2018	10	24	2018-10-24T10:45			"Light rain"	Asia	Japan	"Kurotaki-bashi Bridge, Riv. Mogami (Shirataka Town), Yamagata"	38.204198		140.102024														13.9	13.8	7.7	11	13			8			"Light Yellow"																			2021/3/17	2021/3/17
PRA000115	SAA007545	ST015				Ibaraki_w2_2018	Water	"River water"	2018	11	9	2018-11-09T10:29			Cloudy	Asia	Japan	"Kamome-ohasi Bridge, Mouth of Riv. Tone (Kamisu City), Ibaraki"	35.77638889		140.7569444														17.8	18	7.9	9.4	637			4.8			Clear																			2021/3/17	2021/3/17
PRA000115	SAA007547	ST015				Tochigi_w1_2018	Water	"River water"	2018	10	18	2018-10-18T11:10			Fair	Asia	Japan	"Tagawa area-Toshuko Weir (Utsunomiya City), Tochigi"	36.52805556		139.8855556														22.2	18	8.3	11	20			2			Clear																			2021/3/17	2021/3/17
PRA000115	SAA007855	ST015				Tochigi_w2_2018	Water	"River water"	2018	11	8	2018-11-08T10:03			Fair	Asia	Japan	"Daidoizumi-bashi Bridge, Riv.Kinu (Mooka City), Tochigi"	36.365662		139.918712														16	9.5	7.9	11	15			2			Clear																			2021/3/17	2021/3/17
PRA000115	SAA007856	ST015				Gunma_w6-2_2018	Water	"River water"	2018	10	24	2018-10-24T10:30			Fair	Asia	Japan	"Namiii-bashi Bridge, Kanzawa-gawa Riv. (Isezaki City and Maebashi City), Gunma"	36.360916		139.187218														22.5	18.6	7.8	9				4			Yellow																			2021/3/17	2021/3/17
PRA000115	SAA007549	ST015				Saitama_w2_2018	Water	"River water"	2018	10	24	2018-10-24T10:25			Fair	Asia	Japan	"Akigase-Shusuizeki Weir, Riv. Ara (Shiki City), Saitama"	35.84055556		139.6044444														19.7	17.3	7.7	9.7	25			3			"Light Green"																			2021/3/17	2021/3/17
PRA000115	SAA007857	ST015				Saitama_w7_2018	Water	"River water"	2018	10	24	2018-10-24T09:35			Fair	Asia	Japan	"Saikachido-hashi Bridge, Riv. Ayase (Soka City), Saitama"	35.853692		139.801019														21.9	16.4	7.4	7.8	34			11			"Light Grayish green"																			2021/3/17	2021/3/17
PRA000115	SAA007858	ST015				Saitama_w8_2018	Water	"River water"	2018	10	24	2018-10-24T16:00			Fair	Asia	Japan	"Maeyashiki-bashi Bridge, Riv. Oshi (Konosu City), Saitama"	36.100887		139.47688														25.6	19.3	7.6	8.7	28			9			"Light Grayish yellow"																			2021/3/17	2021/3/17
PRA000115	SAA007550	ST015				SaitamaCity_w1_2018	Water	"River water"	2018	11	13	2018-11-13T14:20			Cloudy	Asia	Japan	"Nakadote-bashi Bridge, Riv. Kamo (Saitama City), Saitama"	35.855		139.6077778														17.6	15.5	7.3	7.6	32			9			"Grayish yellow"																			2021/3/17	2021/3/17
PRA000115	SAA007551	ST015				Chiba_w1_2018	Water	"River water"	2018	10	10	2018-10-10T09:30			Fair	Asia	Japan	"Asai-bashi Bridge, Riv. Yourou (Ichihara City), Chiba"	35.46722222		140.1155556														22	22	8	8.8				6			"Light Yellow green"																			2021/3/17	2021/3/17
PRA000115	SAA007859	ST014				Chiba_w2_2018	Water	"Sea water"	2018	10	16	2018-10-16T10:20			Cloudy	Asia	Japan	"Ichihara-Anesaki Coast, Chiba"	35.52166667		140.0283333														20.8	21.2	8.1	6.6	4,280			0.5		5.5	"Dark Bluish green"																			2021/3/17	2021/3/17
PRA000115	SAA007552	ST015				Tokyo_w1_2018	Water	"River water"	2018	8	23	2018-08-23T10:35			Fair	Asia	Japan	"Mouth of Riv. Arakawa (Koto Ward), Tokyo"	35.64583333		139.8463889														25.7	25.8	7.7	5.7	1,234			4		1.3	"Greenish brown"																			2021/3/17	2021/3/17
PRA000115	SAA007553	ST015				Tokyo_w2_2018	Water	"River water"	2018	8	23	2018-08-23T12:35			Fair	Asia	Japan	"Mouth of Riv. Sumida (Minato Ward), Tokyo"	35.66		139.7705556														26.3	26.8	7.3	5.4	2,120			3		1.6	"Dark Grayish yellow green"																			2021/3/17	2021/3/17
PRA000115	SAA007554	ST014				YokohamaCity_w3_2018	Water	"Sea water"	2018	11	5	2018-11-05T09:50			Cloudy	Asia	Japan	"Yokohama Port, Kanagawa"	35.45555556		139.6636111														20.2	20	8.3	8.7				3.2		5	Clear																			2021/3/17	2021/3/17
PRA000115	SAA007555	ST015				YokohamaCity_w1_2018	Water	"River water"	2018	11	8	2018-11-08T09:30			Fair	Asia	Japan	"Kamenoko-bashi Bridge, Riv. Tsurumi (Yokohama City), Kanagawa"	35.51444444		139.6080556														16.8	19.2	7.3	7.8	40			3.3			"Light yellow"																			2021/3/17	2021/3/17
PRA000115	SAA007556	ST015				Kawasaki_w1_2018	Water	"River water"	2018	11	5	2018-11-05T12:05			Cloudy	Asia	Japan	"Mouth of Riv. Tama (Kawasaki City), Kanagawa"	35.53		139.7836111														22.6	19.6	7.8	8.4	4,100			9.8		1.6	"Greenish blue"																			2021/3/17	2021/3/17
PRA000115	SAA007557	ST014				Kawasaki_w2_2018	Water	"Sea water"	2018	11	5	2018-11-05T11:02			Cloudy/Fair	Asia	Japan	"Keihin Canal, Kawasaki Port, Kanagawa (front of Ogimachi)"	35.49527778		139.7277778														22.9	20.1	8.2	8.4	4,500			13		2.7	"Grayish blue"																			2021/3/17	2021/3/17
PRA000115	SAA007860	ST014				Kawasaki_w3_2018	Water	"Sea water"	2018	11	5	2018-11-05T11:20			Cloudy/Fair	Asia	Japan	"Keihin Canal, Kawasaki Port, Kanagawa, (front of Chidorimachi)"	35.50444444		139.7533333														20.7	21	8.1	9	4,600			7.4		3	"Grayish blue"																			2021/3/17	2021/3/17
PRA000115	SAA007558	ST015				Niigata_w2-1_2018	Water	"River water"	2018	10	3	2018-10-03T09:15			Fair	Asia	Japan	"Downstream of Riv. Shinano (Niigata City), Niigata"	37.88305556		139.0155556														25.8	19.9	6.8	8.6	9			220			Brown																			2021/3/17	2021/3/17
PRA000115	SAA007861	ST015				Niigata_w2-2_2018	Water	"River water"	2018	10	17	2018-10-17T10:00			Rain	Asia	Japan	"Downstream of Riv. Shinano (Niigata City), Niigata"	37.88305556		139.0155556														17	15.9	7.3	9.3	13			30			"Light brown"																			2021/3/17	2021/3/17
PRA000115	SAA007862	ST014				Niigata_w3_2018	Water	"Sea water"	2018	10	9	2018-10-09T09:38			Fair	Asia	Japan	"Niigata-Higashi Port, Niigata"	38		139.2241667														23	26.5	8.2	8.2	4,300			6		3	"Grayish green"																			2021/3/17	2021/3/17
PRA000115	SAA007863	ST015				Toyama_w2_2018	Water	"River water"	2018	10	18	2018-10-18T09:10			Fair	Asia	Japan	"Hagiura-bashi Bridge, Mouth of Riv. Jintsu (Toyama City), Toyama"	36.745		137.2180556														19	14.5	7.5	9.3	14			<1			Clear																			2021/03/17	2021/03/17
PRA000115	SAA007559	ST015				Ishikawa_w1_2018	Water	"River water"	2018	10	25	2018-10-25T09:52			Fair	Asia	Japan	"Mouth of Riv. Sai (Kanazawa City), Ishikawa"	36.60027778		136.5888889														20.5	17.5	7.3	7.9	139			4			"Yellow green"																			2021/3/17	2021/3/17
PRA000115	SAA007560	ST015				Nagano_w2_2018	Water	"Lake water"	2018	10	29	2018-10-29T10:25			Fair	Asia	Japan	"Center of Lake Suwa, Nagano"	36.05		138.0861111														19.5	15.8	7.7	11	13			11		0.8	"Light Yellow green"																			2021/3/17	2021/3/17
PRA000115	SAA007561	ST015				Nagano_w3_2018	Water	"River water"	2018	10	30	2018-10-30T10:28			Fair	Asia	Japan	"Tategahana-bashi Bridge, Riv. Shinano (Nakano City), Nagano"	36.73194444		138.3083333														14	13.1	7.6	10	18			2			"Light Yellow green"																			2021/3/17	2021/3/17
PRA000115	SAA007562	ST014				Shizuoka_w2_2018	Water	"Sea water"	2018	9	27	2018-09-27T09:45			"Light rain"	Asia	Japan	"Shimizu Port, Shizuoka"	35.02416667		138.5161111														20.1	23.4	7.7	7.2	4,330			13		2.5	Clear																			2021/3/17	2021/3/17
PRA000115	SAA007563	ST015				Shizuoka_w1_2018	Water	"River water"	2018	10	24	2018-10-24T13:05			Fair	Asia	Japan	"Riv. Tenryu (Iwata City), Shizuoka"	34.67916667		137.7961111														24.9	18.1	7.4	9.9	12			22			White																			2021/3/17	2021/3/17
PRA000115	SAA007564	ST015				Shizuoka_w6_2018	Water	"River water"	2018	10	24	2018-10-24T10:07			Fair	Asia	Japan	"The end of Niino-gawa Riv. (Omaezaki City), Shizuoka"	34.62361111		138.1366667														25.4	20.4	6.6	9.7	134			13			Brown																			2021/3/17	2021/3/17
PRA000115	SAA007565	ST014				Aichi_w2-1_2018	Water	"Sea water"	2018	10	23	2018-10-23T13:10			Cloudy	Asia	Japan	"Nagoya Port, West of Shiomi Wharf, Aichi"	35.07111111		136.8691667														19.2	21.8	7.9	2.9	3,800			4		1.8	"Light Green"																			2021/3/17	2021/3/17
PRA000115	SAA007566	ST015				NagoyaCity_w1_2018	Water	"River water"	2018	11	20	2018-11-20T09:30			Fair	Asia	Japan	"Minatoshinbashi Bridge, Riv. Hori (Nagoya City), Aichi"	35.09805556		136.8925														14.5	19	7.4	3				2.58			"Greenish brown"																			2021/3/17	2021/3/17
PRA000115	SAA007864	ST014				NagoyaCity_w3_2018	Water	"Sea water"	2018	11	20	2018-11-20T11:30			Fair	Asia	Japan	"Nagoya Port, South of Shiomi Wharf, Aichi"	35.04944444		136.8661111														14.8	20.5	8.1	5.3				3.61			"Bluish green"																			2021/3/17	2021/3/17
PRA000115	SAA007567	ST014				Mie_w1_2018	Water	"Sea water"	2018	10	30	2018-10-30T10:00			Fair	Asia	Japan	"Yokkaichi Port, Mie"	34.94944444		136.6530556														21.9	19.2	8.3	9.6	3,970			4		1.5	"Greenish brown"																			2021/3/17	2021/3/17
PRA000115	SAA007568	ST014				Mie_w2_2018	Water	"Sea water"	2018	10	22	2018-10-22T09:55			Fair	Asia	Japan	"Toba Port, Mie"	34.48083333		136.8486111														23.5	21	8.1	7.1	3,900			4.2		3	"Grayish green"																			2021/3/17	2021/3/17
PRA000115	SAA007569	ST015				Shiga_w1_2018	Water	"Lake water"	2018	10	22	2018-10-22T09:25			Fair	Asia	Japan	"Lake Biwa (center, offshore of Minamihira), Shiga"	35.18527778		135.9733333														19	18.2	8	9.3	11.9			<1		5.4	"Dark Green"																			2021/3/17	2021/3/17
PRA000115	SAA007570	ST015				Shiga_w2-1_2018	Water	"Lake water"	2018	10	10	2018-10-10T10:10			Cloudy	Asia	Japan	"Lake Biwa (center, offshore of Karasaki), Shiga"	35.04611111		135.8955556														23.1	22.3	8	9.1	11.7			3.4		2.3	"Dark Yellow green"																			2021/3/17	2021/3/17
PRA000115	SAA007865	ST015				Shiga_w2-2_2018	Water	"Lake water"	2018	10	22	2018-10-22T08:55			Fair	Asia	Japan	"Lake Biwa (center, offshore of Karasaki), Shiga"	35.04611111		135.8955556														19.5	19.1	8.2	9.5	12.1			2.4		3	"Dark Yellow green"																			2021/3/17	2021/3/17
PRA000115	SAA007571	ST014				Kyoto_w1_2018	Water	"Sea water"	2018	10	17	2018-10-17T10:40			"Fair with occasional rain"	Asia	Japan	"Miyazu Port, Kyoto"	35.58305556		135.2138889														18.9	22.9	8.4	4.2				3		7	Clear																			2021/3/17	2021/3/17
PRA000115	SAA007572	ST015				Kyoto_w3_2018	Water	"River water"	2018	11	20	2018-11-20T10:00			Fair	Asia	Japan	"Gokou-bashi Bridge, Riv. Kizu (Yawata City), Kyoto"	34.88972222		135.6994444														14.6	14.2	7.9	10.3	15			3			Clear																			2021/3/17	2021/3/17
PRA000115	SAA007573	ST015				KyotoCity_w1_2018	Water	"River water"	2018	11	8	2018-11-08T10:30			Fair	Asia	Japan	"Miyamae-bashi Bridge, Riv. Katsura (Kyoto City), Kyoto"	34.905		135.7125														19.5	20.5	7.4	9	20			1			Clear																			2021/3/17	2021/3/17
PRA000115	SAA007574	ST015				Osaka_w1_2018	Water	"River water"	2018	11	13	2018-11-13T09:40			Cloudy	Asia	Japan	"Mouth of Riv. Yamato (Sakai City), Osaka"	34.60833333		135.4325														17.3	19.6	8	6.6				2		1.5	Clear																			2021/3/17	2021/3/17
PRA000115	SAA007575	ST015				OsakaCity_w1_2018	Water	"River water"	2018	11	16	2018-11-16T10:25			Fair	Asia	Japan	"Kema-bashi Bridge, Riv. Oh-kawa (Osaka City), Osaka"	34.72		135.5186111														18.7	16.1	7.4	8.9	17			65			"Dark Grayish yellow"																			2021/3/17	2021/3/17
PRA000115	SAA007576	ST014				OsakaCity_w2_2018	Water	"Sea water"	2018	11	12	2018-11-12T11:07			Cloudy	Asia	Japan	"Osaka Port, Osaka"	34.65861111		135.4313889														18.3	19.6	7.6	7.4	2,220			1.2		3	"Light Grayish yellow"																			2021/3/17	2021/3/17
PRA000115	SAA007577	ST014				Hyogo_w3_2018	Water	"Sea water"	2018	10	18	2018-10-18T10:29			Fair	Asia	Japan	"Offshore of Himeji, Hyogo"	34.76194444		134.6697222														22	23.3	7.3	6.6	3,930			18.1		2.2	"Greenish brown"																			2021/3/17	2021/3/17
PRA000115	SAA007866	ST014				Hyogo_w4_2018	Water	"Sea water"	2018	10	18	2018-10-18T11:53			Fair	Asia	Japan	"Aboshi Port, Hyogo"	34.77472222		134.6066667														22	23.1	7.5	7.1	3,990			19.3		1.9	"Greenish brown"																			2021/3/17	2021/3/17
PRA000115	SAA007867	ST014				Hyogo_w7_2018	Water	"Sea water"	2018	10	18	2018-10-18T13:16			Fair	Asia	Japan	"Port entrance of Takasago-nishi Port, Hyogo"	34.73777778		134.7852778														2.1	24.2	7.4	7	4,190			22.6		2	"Greenish brown"																			2021/3/17	2021/3/17
PRA000115	SAA007580	ST014				Kobe_w1_2018	Water	"Sea water"	2018	11	1	2018-11-01T10:30			Fair	Asia	Japan	"Center of Kobe Port, Hyogo"	34.66444444		135.1944444														16	21	7.9	6.4				2		2.3	"Greenish brown"																			2021/3/17	2021/3/17
PRA000115	SAA007581	ST015				Nara_w1_2018	Water	"River water"	2018	10	2	2018-10-02T10:04			Fair	Asia	Japan	"Taisho-bashi Bridge, Riv. Yamato (Oji town), Nara"	34.58583333		135.6833333														24	19	7.6	8.6	19			18			"Light Grayish yellow brown"																			2021/3/17	2021/3/17
PRA000115	SAA007582	ST015				Wakayama_w1_2018	Water	"River water"	2018	11	13	2018-11-13T14:40			Cloudy	Asia	Japan	"Kinokawa-ohashi Bridge, Mouth of Riv. Kinokawa (Wakayama City), Wakayama"	34.23		135.1561111														18.7	20.1	7.8	7.6	3,270			1		2	"Greenish blue"																			2021/3/17	2021/3/17
PRA000115	SAA007583	ST015				Wakayama_w7_2018	Water	"River water"	2018	11	12	2018-11-12T14:40			Cloudy	Asia	Japan	"Asahi-bashi Bridge, Waka-gawa Riv. (Wakayama City), Wakayama"	34.1875		135.1794444														18.4	19.6	7.7	6.2	3,880			2			"Dark Green"																			2021/3/17	2021/3/17
PRA000115	SAA007868	ST014				Wakayama_w8_2018	Water	"Sea water"	2018	11	13	2018-11-13T12:45			Cloudy	Asia	Japan	"Offshore of Kinokawa kako, Wakayama Sea, Wakayama"	34.21166667		135.1244444														18.9	20.5	8	7.3	4,760			1		5	"Dark Greenish blue"																			2021/3/17	2021/3/17
PRA000115	SAA007584	ST014				Okayama_w2_2018	Water	"Sea water"	2018	11	13	2018-11-13T10:25			Cloudy	Asia	Japan	"Offshore of Mizushima, Okayama"	34.48055556		133.665														18	19	7.9	7.2	7,000			8		1.8	"Dark Yellow green"																			2021/3/17	2021/3/17
PRA000115	SAA007586	ST014				Yamagachi_w1_2018	Water	"Sea water"	2018	10	19	2018-10-19T13:45			Fair	Asia	Japan	"Tokuyama Bay, Yamaguchi"	33.99361111		131.7505556														21.5	21.3	8	7.9				3.2		6.5	"Bluish green"																			2021/3/17	2021/3/17
PRA000115	SAA007587	ST014				Yamaguchi_w2_2018	Water	"Sea water"	2018	11	1	2018-11-01T11:15			Fair	Asia	Japan	"Offshore of Hagi, Yamaguchi"	34.43805556		131.3794444														20	20.9	8.3	7.3				2		9	"Bluish green"																			2021/3/17	2021/3/17
PRA000115	SAA007588	ST014				Kagawa_w1_2018	Water	"Sea water"	2018	10	23	2018-10-23T08:50			Cloudy	Asia	Japan	"Takamatsu Port, Kagawa"	34.34972222		134.0788889														20.4	22.3	8.1	7				5		2	Green																			2021/3/17	2021/3/17
PRA000115	SAA007869	ST014				Ehime_w2_2018	Water	"Sea water"	2018	10	29	2018-10-29T11:05			Fair	Asia	Japan	"Sawazu Fishing Port, Ehime"	33.98388889		133.2911111														18.5	21	8	7.1	4,630			4		4	"Dark Yellow green"																			2021/3/17	2021/3/17
PRA000115	SAA007589	ST014				Fukuoka_w2_2018	Water	"Sea water"	2018	10	30	2018-10-30T11:58			Fair	Asia	Japan	"Offshore of Omuta, Fukuoka"	33.03472222		130.4113889														15	20.2	6.5	8.8	4,500			6.8		1.5	"Light Yellow"																			2021/3/17	2021/3/17
PRA000115	SAA007590	ST015				Fukuoka_w1_2018	Water	"River water"	2018	11	2	2018-11-02T10:52			Fair	Asia	Japan	"Kabura-bashi Bridge, Riv. Raizan (Itoshima City), Fukuoka"	33.565		130.1902778														18.2	15.8	7	10	36			12			"Light Yellow"																			2021/3/17	2021/3/17
PRA000115	SAA007591	ST014				KitakyushuCity_w1_2018	Water	"Sea water"	2018	10	30	2018-10-30T09:20			Fair	Asia	Japan	"Dokai Bay (Kitakyushu City), Fukuoka"	33.90388889		130.8158333														19.1	19.9	7.9	7.4	4,500			3		3.5	Clear																			2021/3/17	2021/3/17
PRA000115	SAA007592	ST014				FukuokaCity_w1_2018	Water	"Sea water"	2018	10	16	2018-10-16T09:05			Fair	Asia	Japan	"Hakata Bay, Fukuoka"	33.60833333		130.3297222														18.9	21.5	7.8	7.3	4,800			2		3.2	"Dark Green"																			2021/3/17	2021/3/17
PRA000115	SAA007593	ST014				Saga_w1_2018	Water	"Sea water"	2018	10	31	2018-10-31T10:20			Cloudy	Asia	Japan	"Imari Bay, Saga"	33.34		129.8208333														14	18.5	8.4	3.4	4,700			44		2.5	Clear																			2021/3/17	2021/3/17
PRA000115	SAA007870	ST015				Kumamoto_w1_2018	Water	"River water"	2018	10	23	2018-10-23T13:30			Cloudy	Asia	Japan	"Hiraki-bashi Bridge, Riv. Midori (Uto City), Kumamoto"	32.71638889		130.6422222														21.1	19.3	7.6	8	340			15			Brown																			2021/3/17	2021/3/17
PRA000115	SAA007594	ST015				Oita_w2_2018	Water	"River water"	2018	11	19	2018-11-19T09:30			Cloudy	Asia	Japan	"Mouth of Riv. Oita, Oita"	33.25722222		131.6175														15.7	20.2	7.7	8.4	1,100			11			"Dark Grayish green"																			2021/3/17	2021/3/17
PRA000115	SAA007871	ST014				Oita_w1_2018	Water	"Sea water"	2018	10	3	2018-10-03T12:55			Fair	Asia	Japan	"Saganoseki Port, Oita"	33.25361111		131.8677778														22.5	23.7	8	6.6	4,600			1		6	"Dark Green"																			2021/3/17	2021/3/17
PRA000115	SAA007872	ST014				Oita_w3_2018	Water	"Sea water"	2018	10	3	2018-10-03T10:19			Fair	Asia	Japan	"Center of Beppu Bay, Oita"	33.30666667		131.6108333														21.5	23.9	8.1	7.1	4,600			<1		9	"Dark Green"																			2021/3/17	2021/3/17
PRA000116	SAA007535	ST015				Hokkaido_w3_2018	Water	"River water"	2018	11	5	2018-11-05T14:20			Cloudy	Asia	Japan	"Ishikarikako-kyo Bridge, Mouth of Riv. Ishikari (Ishikari City), Hokkaido"	43.22861111		141.3519444														"14.6 "	"9.1 "	"8.3 "	"9.5 "	"65 "			"28 "			Brown																			2021/5/18	2021/5/18
PRA000116	SAA007539	ST015				Iwate_w1-1_2018	Water	"River water"	2018	10	10	2018-10-10T10:05			Cloudy	Asia	Japan	"Riv. Toyosawa (Hanamaki City), Iwate"	39.38166667		141.1191667														"17.9 "	"15.9 "	"7.1 "	"9.9 "	"7.7 "			"5 "			"Light Green"																			2021/5/18	2021/5/18
PRA000116	SAA008014	ST014				Miyagi_w3_2018	Water	"Sea water"	2018	10	16	2018-10-16T10:17			Fair	Asia	Japan	"Sendai Bay (Matsushima Bay), Miyagi"	38.35333333		141.0975														"21.2 "	"18.2 "	"8.0 "	"7.5 "	"4,000 "			"1 "		"2.2 "	Clear																			2021/5/18	2021/5/18
PRA000116	SAA008015	ST015				Akita_w3-123_2018	Water	"Lake water"	2018	9	4	"2018-09-04T10:30; T09:50; T10:51"			Fair	Asia	Japan	"Lake Hachiro, Akita"	39.92277778		139.9988889														"29.0; 29.1; 30.0"	"26.4; 25.9; 26.4"	"9.4; 9.3; 9.3"	"13; 13; 12"	"16; 17; 17"			"15; 15; 15"		"0.6; 0.9; 0.6"	"Light Greenish brown; Dark Yellow green; Dark Yellow green"																		"Pooled (n=3)"	2021/5/18	2021/5/18
PRA000116	SAA007544	ST015				Yamagata_w1_2018	Water	"River water"	2018	10	17	2018-10-17T09:20			Cloudy	Asia	Japan	"Mouth of Riv. Mogami, Yamagata"	38.88722222		139.8433333														"14.3 "	"14.9 "	"7.3 "	"9.4 "	"21 "			"2 "			"Light Yellow"																			2021/5/18	2021/5/18
PRA000116	SAA008016	ST014				Fukushima_w1_2018	Water	"Sea water"	2018	10	24	2018-10-24T10:03			Cloudy	Asia	Japan	"Onahama Port, Fukushima"	36.92472222		140.8752778														"19.5 "	"19.6 "	"8.1 "	"7.0 "	"4,700 "			"5 "		"4.0 "	"Bluish green"																			2021/5/18	2021/5/18
PRA000116	SAA007545	ST015				Ibaraki_w2_2018	Water	"River water"	2018	11	9	2018-11-09T10:29			Cloudy	Asia	Japan	"Kamome-ohasi Bridge, Mouth of Riv. Tone (Kamisu City), Ibaraki"	35.77638889		140.7569444														"17.8 "	"18.0 "	"7.9 "	"9.4 "	"637 "			"4.8 "			Clear																			2021/5/18	2021/5/18
PRA000116	SAA007547	ST015				Tochigi_w1_2018	Water	"River water"	2018	10	18	2018-10-18T11:10			Fair	Asia	Japan	"Tagawa area-Toshuko Weir (Utsunomiya City), Tochigi"	36.52805556		139.8855556														"22.2 "	"18.0 "	"8.3 "	"11.0 "	"20 "			"2 "			Clear																			2021/5/18	2021/5/18
PRA000116	SAA007549	ST015				Saitama_w2_2018	Water	"River water"	2018	10	24	2018-10-24T10:25			Fair	Asia	Japan	"Akigase-Shusuizeki Weir, Riv. Ara (Shiki City), Saitama"	35.84055556		139.6044444														"19.7 "	"17.3 "	"7.7 "	"9.7 "	"25 "			"3 "			"Light Green"																			2021/5/18	2021/5/18
PRA000116	SAA008017	ST015				ChibaCity_w1_2018	Water	"River water"	2018	11	2	2018-11-02T10:30			Fair	Asia	Japan	"Mouth of Riv. Hanami (Chiba City), Chiba"	35.63472222		140.04694440														19.0	19.9	8.0	6.4	3,740			1			Clear																			2021/05/18	2021/05/18
PRA000116	SAA007552	ST015				Tokyo_w1_2018	Water	"River water"	2018	8	23	2018-08-23T10:35			Fair	Asia	Japan	"Mouth of Riv. Arakawa (Koto Ward), Tokyo"	35.64583333		139.8463889														"25.7 "	"25.8 "	"7.7 "	"5.7 "	"1,234 "			"4 "		"1.3 "	"Greenish brown"																			2021/5/18	2021/5/18
PRA000116	SAA007553	ST015				Tokyo_w2_2018	Water	"River water"	2018	8	23	2018-08-23T12:35			Fair	Asia	Japan	"Mouth of Riv. Sumida (Minato Ward), Tokyo"	35.66		139.7705556														"26.3 "	"26.8 "	"7.3 "	"5.4 "	"2,120 "			"3 "		"1.6 "	"Dark Grayish yellow green"																			2021/5/18	2021/5/18
PRA000116	SAA007554	ST014				YokohamaCity_w3_2018	Water	"Sea water"	2018	11	5	2018-11-05T09:50			Cloudy	Asia	Japan	"Yokohama Port, Kanagawa"	35.45555556		139.6636111														"20.2 "	"20.0 "	"8.3 "	"8.7 "				"3.2 "		"5.0 "	Clear																			2021/5/18	2021/5/18
PRA000116	SAA007557	ST014				Kawasaki_w2_2018	Water	"Sea water"	2018	11	5	2018-11-05T11:02			Cloudy/Fair	Asia	Japan	"Keihin Canal, Kawasaki Port, Kanagawa (front of Ogimachi)"	35.49527778		139.7277778														"22.9 "	"20.1 "	"8.2 "	"8.4 "	"4,500 "			"13 "		"2.7 "	"Grayish blue"																			2021/5/18	2021/5/18
PRA000116	SAA007558	ST015				Niigata_w2-1_2018	Water	"River water"	2018	10	3	2018-10-03T09:15			Fair	Asia	Japan	"Downstream of Riv. Shinano (Niigata City), Niigata"	37.88305556		139.0155556														"25.8 "	"19.9 "	"6.8 "	"8.6 "	"9 "			"220 "			Brown																			2021/5/18	2021/5/18
PRA000116	SAA007863	ST015				Toyama_w2_2018	Water	"River water"	2018	10	18	2018-10-18T09:10			Fair	Asia	Japan	"Hagiura-bashi Bridge, Mouth of Riv. Jintsu (Toyama City), Toyama"	36.745		137.2180556														"19.0 "	"14.5 "	"7.5 "	"9.3 "	"14 "			<1			Clear																			2021/5/18	2021/5/18
PRA000116	SAA007559	ST015				Ishikawa_w1_2018	Water	"River water"	2018	10	25	2018-10-25T09:52			Fair	Asia	Japan	"Mouth of Riv. Sai (Kanazawa City), Ishikawa"	36.60027778		136.5888889														"20.5 "	"17.5 "	"7.3 "	"7.9 "	"139 "			"4 "			"Yellow green"																			2021/5/18	2021/5/18
PRA000116	SAA008018	ST015				Fukui_w1_2018	Water	"River water"	2018	11	9	2018-11-09T10:43			Fair	Asia	Japan	"Mishima-bashi Bridge, Riv. Shono (Tsuruga City), Fukui"	35.6475		136.0627778														"20.5 "	"16.5 "	"7.7 "	"9.3 "	"14 "			"1 "			Clear																			2021/5/18	2021/5/18
PRA000116	SAA007560	ST015				Nagano_w2_2018	Water	"Lake water"	2018	10	29	2018-10-29T10:25			Fair	Asia	Japan	"Center of Lake Suwa, Nagano"	36.05		138.0861111														"19.5 "	"15.8 "	"7.7 "	"11 "	"13 "			"11 "		"0.8 "	"Light Yellow green"																			2021/5/18	2021/5/18
PRA000116	SAA007563	ST015				Shizuoka_w1_2018	Water	"River water"	2018	10	24	2018-10-24T13:05			Fair	Asia	Japan	"Riv. Tenryu (Iwata City), Shizuoka"	34.67916667		137.7961111														"24.9 "	"18.1 "	"7.4 "	"9.9 "	"12 "			"22 "			White																			2021/5/18	2021/5/18
PRA000116	SAA008019	ST015				Aichi_w2-2_2018	Water	"Sea water"	2018	10	23	2018-10-23T12:43			Cloudy	Asia	Japan	"Nagoya Port, West of Shiomi Wharf, Aichi"	35.07111111		136.8691667														"18.3 "	"22.5 "	"7.8 "	"3.1 "	"3,470 "			"6 "		"2.2 "	"Light Green"																			2021/5/18	2021/5/18
PRA000116	SAA007567	ST014				Mie_w1_2018	Water	"Sea water"	2018	10	30	2018-10-30T10:00			Fair	Asia	Japan	"Yokkaichi Port, Mie"	34.94944444		136.6530556														"21.9 "	"19.2 "	"8.3 "	"9.6 "	"3,970 "			"4.0 "		"1.5 "	"Greenish brown"																			2021/5/18	2021/5/18
PRA000116	SAA007570	ST015				Shiga_w2-1_2018	Water	"Lake water"	2018	10	10	2018-10-10T10:10			Cloudy	Asia	Japan	"Lake Biwa (center, offshore of Karasaki), Shiga"	35.04611111		135.8955556														"23.1 "	"22.3 "	"8.0 "	"9.1 "	"11.7 "			"3.4 "		"2.3 "	"Dark Yellow green"																			2021/5/18	2021/5/18
PRA000116	SAA007571	ST014				Kyoto_w1_2018	Water	"Sea water"	2018	10	17	2018-10-17T10:40			"Fair with occasional rain"	Asia	Japan	"Miyazu Port, Kyoto"	35.58305556		135.2138889														"18.9 "	"22.9 "	"8.4 "	"4.2 "				"3 "		"7 "	Clear																			2021/5/18	2021/5/18
PRA000116	SAA007573	ST015				KyotoCity_w1_2018	Water	"River water"	2018	11	8	2018-11-08T10:30			Fair	Asia	Japan	"Miyamae-bashi Bridge, Riv. Katsura (Kyoto City), Kyoto"	34.905		135.7125														"19.5 "	"20.5 "	"7.4 "	"9.0 "	"20 "			"1 "			Clear																			2021/5/18	2021/5/18
PRA000116	SAA007574	ST015				Osaka_w1_2018	Water	"River water"	2018	11	13	2018-11-13T09:40			Cloudy	Asia	Japan	"Mouth of Riv. Yamato (Sakai City), Osaka"	34.60833333		135.4325														"17.3 "	"19.6 "	"8.0 "	"6.6 "				"2 "		"1.5 "	Clear																			2021/5/18	2021/5/18
PRA000116	SAA007576	ST014				OsakaCity_w2_2018	Water	"Sea water"	2018	11	12	2018-11-12T11:07			Cloudy	Asia	Japan	"Osaka Port, Osaka"	34.65861111		135.4313889														"18.3 "	"19.6 "	"7.6 "	"7.4 "	"2,220 "			"1.2 "		"3.0 "	"Light Grayish yellow"																			2021/5/18	2021/5/18
PRA000116	SAA007577	ST014				Hyogo_w3_2018	Water	"Sea water"	2018	10	18	2018-10-18T10:29			Fair	Asia	Japan	"Offshore of Himeji, Hyogo"	34.76194444		134.6697222														"22.0 "	"23.3 "	"7.3 "	"6.6 "	"3,930 "			"18.1 "		"2.2 "	"Greenish brown"																			2021/5/18	2021/5/18
PRA000116	SAA007580	ST014				Kobe_w1_2018	Water	"Sea water"	2018	11	1	2018-11-01T10:30			Fair	Asia	Japan	"Center of Kobe Port, Hyogo"	34.66444444		135.1944444														"16.0 "	"21.0 "	"7.9 "	"6.4 "				"2 "		"2.3 "	"Greenish brown"																			2021/5/18	2021/5/18
PRA000116	SAA007582	ST015				Wakayama_w1_2018	Water	"River water"	2018	11	13	2018-11-13T14:40			Cloudy	Asia	Japan	"Kinokawa-ohashi Bridge, Mouth of Riv. Kinokawa (Wakayama City), Wakayama"	34.23		135.1561111														"18.7 "	"20.1 "	"7.8 "	"7.6 "	"3,270 "			"1 "		"2.0 "	"Greenish blue"																			2021/5/18	2021/5/18
PRA000116	SAA007584	ST014				Okayama_w2_2018	Water	"Sea water"	2018	11	13	2018-11-13T10:25			Cloudy	Asia	Japan	"Offshore of Mizushima, Okayama"	34.48055556		133.665														"18.0 "	"19.0 "	"7.9 "	"7.2 "	"7,000 "			"8 "		"1.8 "	"Dark Yellow green"																			2021/5/18	2021/5/18
PRA000116	SAA008020	ST014				Hiroshima_w2_2018	Water	"Sea water"	2018	11	13	2018-11-13T09:53			Fair	Asia	Japan	"Kure Port, Hiroshima"	34.23361111		132.5391667														"16.7 "	"19.8 "	"8.1 "	"6.7 "				"1.2 "		"6.0 "	"Dark Bluish green"																			2021/5/18	2021/5/18
PRA000116	SAA008021	ST014				Hiroshima_w3_2018	Water	"Sea water"	2018	11	13	2018-11-13T13:01			Cloudy	Asia	Japan	"Hiroshima Bay (Hiroshima City), Hiroshima"	34.34833333		132.4225														"17.9 "	"19.9 "	"8.1 "	"6.18 "				"0.5 "		"7.0 "	"Dark Bluish green"																			2021/5/18	2021/5/18
PRA000116	SAA007586	ST014				Yamagachi_w1_2018	Water	"Sea water"	2018	10	19	2018-10-19T13:45			Fair	Asia	Japan	"Tokuyama Bay, Yamaguchi"	33.99361111		131.7505556														"21.5 "	"21.3 "	"8.0 "	"7.9 "				"3.2 "		"6.5 "	"Bluish green"																			2021/5/18	2021/5/18
PRA000116	SAA008022	ST014				Yamaguchi_w3_2018	Water	"Sea water"	2018	10	12	2018-10-12T10:53			Fair	Asia	Japan	"Offshore of Ube, Yamaguchi"	33.915		131.1975														"20.0 "	"21.8 "	"8.3 "	"7.1 "				"2.9 "		"4.0 "	"Grayish green"																			2021/5/18	2021/5/18
PRA000116	SAA007587	ST014				Yamaguchi_w2_2018	Water	"Sea water"	2018	11	1	2018-11-01T11:15			Fair	Asia	Japan	"Offshore of Hagi, Yamaguchi"	34.43805556		131.3794444														"20.0 "	"20.9 "	"8.3 "	"7.3 "				"2.0 "		"9.0 "	"Bluish green"																			2021/5/18	2021/5/18
PRA000116	SAA008023	ST015				Tokushima_w1_2018	Water	"River water"	2018	10	16	2018-10-16T09:30			Cloudy	Asia	Japan	"Mouth of Riv. Yoshino (Tokushima City), Tokushima"	34.085		134.5913889														"19.8 "	"19.5 "	"7.8 "	"7.9 "	"1,800 "			"2 "		"2.0 "	"Dark green"																			2021/5/18	2021/5/18
PRA000116	SAA007588	ST014				Kagawa_w1_2018	Water	"Sea water"	2018	10	23	2018-10-23T08:50			Cloudy	Asia	Japan	"Takamatsu Port, Kagawa"	34.34972222		134.0788889														"20.4 "	"22.3 "	"8.1 "	"7.0 "				"5 "		"2.0 "	Green																			2021/5/18	2021/5/18
PRA000116	SAA008024	ST015				Kochi_w2_2018	Water	"River water"	2018	10	11	2018-10-11T08:23			Cloudy	Asia	Japan	"Mouth of Riv. Shimanto (Shimanto City), Kochi"	32.93777778		132.8441667														"19.8 "	"19.7 "	"6.53 "	"8.06 "	"640 "			"3.33 "			Clear																			2021/5/18	2021/5/18
PRA000116	SAA007591	ST014				KitakyushuCity_w1_2018	Water	"Sea water"	2018	10	30	2018-10-30T09:20			Fair	Asia	Japan	"Dokai Bay (Kitakyushu City), Fukuoka"	33.90388889		130.8158333														"19.1 "	"19.9 "	"7.9 "	"7.4 "	"4,500 "			"3 "		"3.5 "	Clear																			2021/5/18	2021/5/18
PRA000116	SAA007593	ST014				Saga_w1_2018	Water	"Sea water"	2018	10	31	2018-10-31T10:20			Cloudy	Asia	Japan	"Imari Bay, Saga"	33.34		129.8208333														"14.0 "	"18.5 "	"8.4 "	"3.4 "	"4,700 "			"44 "		"2.5 "	Clear																			2021/5/18	2021/5/18
PRA000116	SAA008025	ST014				Nagasaki_w1_2018	Water	"Sea water"	2018	10	22	2018-10-22T13:33			Fair	Asia	Japan	"Omura Bay, Nagasaki"	32.98833333		129.8522222														"24.5 "	"22.8 "	"8.1 "	"7.6 "				<1		"7.0 "	"Light greenish bllue"																			2021/5/18	2021/5/18
PRA000116	SAA007870	ST015				Kumamoto_w1_2018	Water	"River water"	2018	10	23	2018-10-23T13:30			Cloudy	Asia	Japan	"Hiraki-bashi Bridge, Riv. Midori (Uto City), Kumamoto"	32.71638889		130.6422222														"21.1 "	"19.3 "	"7.6 "	"8.0 "	"340 "			"15 "			Brown																			2021/5/18	2021/5/18
PRA000116	SAA008026	ST015				Miyazaki_w3_2018	Water	"River water"	2018	10	24	2018-10-24T11:35			Fair	Asia	Japan	"Mouth of Riv. Oyodo (Miyazaki City), Miyazaki"	31.89611111		131.4402778														"24.0 "	"20.7 "	"7.8 "	"9.5 "	"380 "			"7 "			Clear																			2021/5/18	2021/5/18
PRA000116	SAA008027	ST015				Kagoshima_w1_2018	Water	"River water"	2018	9	25	2018-09-25T11:55			Fair	Asia	Japan	"Shinkawa-bashi Bridge, Riv. Amori (Kirishima City), Kagoshima"	31.7225		130.7416667														"23.7 "	"23.0 "	"7.5 "	"8.5 "				"6 "			Clear																			2021/5/18	2021/5/18
PRA000116	SAA008028	ST015				Kagoshima_w2_2018	Water	"River water"	2018	9	13	2018-09-13T12:18			Fair	Asia	Japan	"Gotanda-bashi Bridge, Riv. Gotanda (Ichikikushikino City), Kagoshima"	31.72583333		130.2769444														"29.3 "	"29.2 "	"7.7 "	"9.4 "				"2 "			Clear																			2021/5/18	2021/5/18
PRA000116	SAA008029	ST014				Okinawa_w1_2018	Water	"Sea water"	2018	11	6	2018-11-06T11:30			Fair	Asia	Japan	"Naha Port, Okinawa"	26.21222222		127.665														"30.0 "	"25.6 "	"8.1 "	"4.7 "	"4,570 "			"13.2 "		"1.5 "	Clear																			2021/5/18	2021/5/18
PRA000117	SAA008379	ST014				"St.01_hiroshima bay_2017"	Water	"Sea water"	2017	8	1	10:18				Asia	Japan	"Hiroshima bay"	34.26805556		132.2666667														30.2	27.7					30.1		17.8																					2021/12/14	2021/12/14
PRA000117	SAA008380	ST014				"St.05_hiroshima bay_2017"	Water	"Sea water"	2017	8	1	12:40				Asia	Japan	"Hiroshima bay"	34.30194444		132.3505556														30.9	27.1					28.2		16.7																					2021/12/14	2021/12/14
PRA000117	SAA008381	ST014				"St.07_hiroshima bay_2017"	Water	"Sea water"	2017	8	1	11:37				Asia	Japan	"Hiroshima bay"	34.26777778		132.4002778														30	28.4					30		37.6																					2021/12/14	2021/12/14
PRA000117	SAA008382	ST014				"St.13_hiroshima bay_2017"	Water	"Sea water"	2017	8	1	14:58				Asia	Japan	"Hiroshima bay"	34.30111111		132.4525														31.1	29					28.7		19.5																					2021/12/14	2021/12/14
PRA000117	SAA008383	ST014				"St.19_hiroshima bay_2017"	Water	"Sea water"	2017	8	1	12:12				Asia	Japan	"Hiroshima bay"	34.28361111		132.3688889														30.6	26.6					29.5		25.1																					2021/12/14	2021/12/14
PRA000117	SAA008384	ST014				"St.20_hiroshima bay_2017"	Water	"Sea water"	2017	8	1	13:10				Asia	Japan	"Hiroshima bay"	34.30111111		132.4														30.7	26.9					29.2		22.5																					2021/12/14	2021/12/14
PRA000117	SAA008385	ST014				"St.21_hiroshima bay_2017"	Water	"Sea water"	2017	8	1	13:55				Asia	Japan	"Hiroshima bay"	34.33333333		132.3847222														30	25.9					28.4		13.6																					2021/12/14	2021/12/14
PRA000117	SAA008386	ST014				"St.22_hiroshima bay_2017"	Water	"Sea water"	2017	8	1	14:24				Asia	Japan	"Hiroshima bay"	34.33569444		132.4169444														30.6	26.9					28		12.5																					2021/12/14	2021/12/14
PRA000117	SAA008387	ST014				"St.23_hiroshima bay_2017"	Water	"Sea water"	2017	8	1	15:27				Asia	Japan	"Hiroshima bay"	34.285		132.4175														31.7	27.1					29.7		18.6																					2021/12/14	2021/12/14
PRA000117	SAA008388	ST014				"St.02_hiroshima bay_2018"	Water	"Sea water"	2018	7	9					Asia	Japan	"Hiroshima bay"	34.25111111		132.2338889															20.8					30.7																							2021/12/14	2021/12/14
PRA000117	SAA008389	ST014				"St.03_hiroshima bay_2018"	Water	"Sea water"	2018	7	9					Asia	Japan	"Hiroshima bay"	34.21888889		132.2672222															19.7					31.3																							2021/12/14	2021/12/14
PRA000117	SAA008390	ST014				"St.04_hiroshima bay_2018"	Water	"Sea water"	2018	7	9					Asia	Japan	"Hiroshima bay"	34.25166667		132.3333333															17.9					31.8																							2021/12/14	2021/12/14
PRA000117	SAA008391	ST014				"St.05_hiroshima bay_2018"	Water	"Sea water"	2018	7	9					Asia	Japan	"Hiroshima bay"	34.30194444		132.3505556															19.5					27.9																							2021/12/14	2021/12/14
PRA000117	SAA008392	ST014				"St.06_hiroshima bay_2018"	Water	"Sea water"	2018	7	9					Asia	Japan	"Hiroshima bay"	34.31694444		132.3177778															21.1					29.3																							2021/12/14	2021/12/14
PRA000117	SAA008393	ST014				"St.07_hiroshima bay_2018"	Water	"Sea water"	2018	7	10					Asia	Japan	"Hiroshima bay"	34.26777778		132.4002778															19.2					30.1																							2021/12/14	2021/12/14
PRA000117	SAA008394	ST014				"St.08_hiroshima bay_2018"	Water	"Sea water"	2018	7	9					Asia	Japan	"Hiroshima bay"	34.21833333		132.3683333															17.5					32																							2021/12/14	2021/12/14
PRA000117	SAA008395	ST014				"St.09_hiroshima bay_2018"	Water	"Sea water"	2018	7	10					Asia	Japan	"Hiroshima bay"	34.18333333		134.4344444															19					32.3																							2021/12/14	2021/12/14
PRA000117	SAA008396	ST014				"St.10_hiroshima bay_2018"	Water	"Sea water"	2018	7	10					Asia	Japan	"Hiroshima bay"	34.11833333		132.3341667															19.3					32.4																							2021/12/14	2021/12/14
PRA000117	SAA008397	ST014				"St.11_hiroshima bay_2018"	Water	"Sea water"	2018	7	12					Asia	Japan	"Hiroshima bay"	34.20111111		132.5013889															19.8					30.8																							2021/12/14	2021/12/14
PRA000117	SAA008398	ST014				"St.12_hiroshima bay_2018"	Water	"Sea water"	2018	7	12					Asia	Japan	"Hiroshima bay"	34.28472222		132.4836111															19.1					31.2																							2021/12/14	2021/12/14
PRA000117	SAA008399	ST014				"St.13_hiroshima bay_2018"	Water	"Sea water"	2018	7	12					Asia	Japan	"Hiroshima bay"	34.30111111		132.4525															19.9					30																							2021/12/14	2021/12/14
PRA000117	SAA008400	ST014				"St.14_hiroshima bay_2018"	Water	"Sea water"	2018	7	11					Asia	Japan	"Hiroshima bay"	34.23583333		132.4516667															22.4					31.5																							2021/12/14	2021/12/14
PRA000117	SAA008401	ST014				"St.15_hiroshima bay_2018"	Water	"Sea water"	2018	7	11					Asia	Japan	"Hiroshima bay"	34.2175		132.4672222															20.7					31.9																							2021/12/14	2021/12/14
PRA000117	SAA008402	ST014				"St.16_hiroshima bay_2018"	Water	"Sea water"	2018	7	11					Asia	Japan	"Hiroshima bay"	34.2675		132.4183333															18.1					32																							2021/12/14	2021/12/14
PRA000117	SAA008403	ST014				"St.17_hiroshima bay_2018"	Water	"Sea water"	2018	7	9					Asia	Japan	"Hiroshima bay"	34.20111111		132.3180556															19.1					31.1																							2021/12/14	2021/12/14
PRA000117	SAA008404	ST014				"St.18_hiroshima bay_2018"	Water	"Sea water"	2018	7	10					Asia	Japan	"Hiroshima bay"	34.18472222		132.3833333															18.4					32.4																							2021/12/14	2021/12/14
PRA000117	SAA008405	ST014				"St.19_hiroshima bay_2018"	Water	"Sea water"	2018	7	10					Asia	Japan	"Hiroshima bay"	34.28361111		132.3688889															19.5					29.5																							2021/12/14	2021/12/14
PRA000117	SAA008406	ST014				"St.20_hiroshima bay_2018"	Water	"Sea water"	2018	7	11					Asia	Japan	"Hiroshima bay"	34.30111111		132.4															19.7					27.8																							2021/12/14	2021/12/14
PRA000117	SAA008407	ST014				"St.21_hiroshima bay_2018"	Water	"Sea water"	2018	7	11					Asia	Japan	"Hiroshima bay"	34.33333333		132.3847222															19.6					30.3																							2021/12/14	2021/12/14
PRA000117	SAA008408	ST014				"St.22_hiroshima bay_2018"	Water	"Sea water"	2018	7	11					Asia	Japan	"Hiroshima bay"	34.33569444		132.4169444															18.4					29.9																							2021/12/14	2021/12/14
PRA000117	SAA008409	ST014				"St.23_hiroshima bay_2018"	Water	"Sea water"	2018	7	12					Asia	Japan	"Hiroshima bay"	34.285		132.4175															19.8					30.9																							2021/12/14	2021/12/14
PRA000117	SAA008410	ST014				"St.02_hiroshima bay_2019"	Water	"Sea water"	2019	7	12					Asia	Japan	"Hiroshima bay"	34.25111111		132.2338889															24					27.5																							2021/12/14	2021/12/14
PRA000117	SAA008411	ST014				"St.03_hiroshima bay_2019"	Water	"Sea water"	2019	7	12					Asia	Japan	"Hiroshima bay"	34.21888889		132.2672222															24.1					29.6																							2021/12/14	2021/12/14
PRA000117	SAA008412	ST014				"St.04_hiroshima bay_2019"	Water	"Sea water"	2019	7	12					Asia	Japan	"Hiroshima bay"	34.25166667		132.3333333															21.9					31.9																							2021/12/14	2021/12/14
PRA000117	SAA008413	ST014				"St.05_hiroshima bay_2019"	Water	"Sea water"	2019	7	9					Asia	Japan	"Hiroshima bay"	34.30194444		132.3505556															24.9					30.4																							2021/12/14	2021/12/14
PRA000117	SAA008414	ST014				"St.06_hiroshima bay_2019"	Water	"Sea water"	2019	7	9					Asia	Japan	"Hiroshima bay"	34.31694444		132.3177778															24.9					30.4																							2021/12/14	2021/12/14
PRA000117	SAA008415	ST014				"St.07_hiroshima bay_2019"	Water	"Sea water"	2019	7	11					Asia	Japan	"Hiroshima bay"	34.26777778		132.4002778															22.9					30.6																							2021/12/14	2021/12/14
PRA000117	SAA008416	ST014				"St.08_hiroshima bay_2019"	Water	"Sea water"	2019	7	9					Asia	Japan	"Hiroshima bay"	34.21833333		132.3683333															22.6					32.6																							2021/12/14	2021/12/14
PRA000117	SAA008417	ST014				"St.09_hiroshima bay_2019"	Water	"Sea water"	2019	7	9					Asia	Japan	"Hiroshima bay"	34.18333333		134.4344444															23.5					32.6																							2021/12/14	2021/12/14
PRA000117	SAA008418	ST014				"St.10_hiroshima bay_2019"	Water	"Sea water"	2019	7	12					Asia	Japan	"Hiroshima bay"	34.11833333		132.3341667															23.3					27.3																							2021/12/14	2021/12/14
PRA000117	SAA008419	ST014				"St.11_hiroshima bay_2019"	Water	"Sea water"	2019	7	10					Asia	Japan	"Hiroshima bay"	34.20111111		132.5013889															22.9					31.9																							2021/12/14	2021/12/14
PRA000117	SAA008420	ST014				"St.12_hiroshima bay_2019"	Water	"Sea water"	2019	7	10					Asia	Japan	"Hiroshima bay"	34.28472222		132.4836111															23					31.9																							2021/12/14	2021/12/14
PRA000117	SAA008421	ST014				"St.13_hiroshima bay_2019"	Water	"Sea water"	2019	7	10					Asia	Japan	"Hiroshima bay"	34.30111111		132.4525															23.3					31.7																							2021/12/14	2021/12/14
PRA000117	SAA008422	ST014				"St.14_hiroshima bay_2019"	Water	"Sea water"	2019	7	11					Asia	Japan	"Hiroshima bay"	34.23583333		132.4516667															24.7					32																							2021/12/14	2021/12/14
PRA000117	SAA008423	ST014				"St.15_hiroshima bay_2019"	Water	"Sea water"	2019	7	11					Asia	Japan	"Hiroshima bay"	34.2175		132.4672222															24.5					31.5																							2021/12/14	2021/12/14
PRA000117	SAA008424	ST014				"St.16_hiroshima bay_2019"	Water	"Sea water"	2019	7	11					Asia	Japan	"Hiroshima bay"	34.2675		132.4183333															23.1					31.2																							2021/12/14	2021/12/14
PRA000117	SAA008425	ST014				"St.17_hiroshima bay_2019"	Water	"Sea water"	2019	7	12					Asia	Japan	"Hiroshima bay"	34.20111111		132.3180556															23.3					28.6																							2021/12/14	2021/12/14
PRA000117	SAA008426	ST014				"St.18_hiroshima bay_2019"	Water	"Sea water"	2019	7	12					Asia	Japan	"Hiroshima bay"	34.18472222		132.3833333															23.1					30.9																							2021/12/14	2021/12/14
PRA000117	SAA008427	ST014				"St.19_hiroshima bay_2019"	Water	"Sea water"	2019	7	9					Asia	Japan	"Hiroshima bay"	34.28361111		132.3688889															24.1					30.9																							2021/12/14	2021/12/14
PRA000117	SAA008428	ST014				"St.20_hiroshima bay_2019"	Water	"Sea water"	2019	7	11					Asia	Japan	"Hiroshima bay"	34.30111111		132.4															23.3					28.6																							2021/12/14	2021/12/14
PRA000117	SAA008429	ST014				"St.21_hiroshima bay_2019"	Water	"Sea water"	2019	7	10					Asia	Japan	"Hiroshima bay"	34.33333333		132.3847222															23.5					30.9																							2021/12/14	2021/12/14
PRA000117	SAA008430	ST014				"St.22_hiroshima bay_2019"	Water	"Sea water"	2019	7	10					Asia	Japan	"Hiroshima bay"	34.33569444		132.4169444															23.3					31.2																							2021/12/14	2021/12/14
PRA000117	SAA008431	ST014				"St.23_hiroshima bay_2019"	Water	"Sea water"	2019	7	11					Asia	Japan	"Hiroshima bay"	34.285		132.4175															22.9					30.9																							2021/12/14	2021/12/14
PRA000118	SAA008432	ST015				Hokkaido_w2_2019	Water	"River water"	2019	11	12	2019-11-12T14:00			Fair	Asia	Japan	"Suzuran-ohashi Bridge, Riv. Tokachi (Obihiro City), Hokkaido"	42.94583333		143.1855556														13	10	8	11				3			Clear																			2022/1/25	2022/1/25
PRA000118	SAA008433	ST015				Hokkaido_w9_2019	Water	"River water"	2019	11	6	2019-11-06T12:30			Sleet	Asia	Japan	"Inou-ohashi Bridge, Riv. Ishikari (Asahikawa City), Hokkaido"	43.76583333		142.275														3.2	5.4	6.5	12				<0.5			Clear																			2022/1/25	2022/1/25
PRA000118	SAA008434	ST015				Hokkaido_w3_2019	Water	"River water"	2019	11	21	2019-11-21T14:00			Cloudy	Asia	Japan	"Ishikarikakokyo Bridge, Mouth of Riv. Ishikari (Ishikari City), Hokkaido"	43.22861111		141.3519444														2.1	2.9	8.2	14				3			"Grayish brown"																			2022/1/25	2022/1/25
PRA000118	SAA008435	ST014				Hokkaido_w7_2019	Water	"Sea water"	2019	9	12	2019-09-12T10:45			Fair	Asia	Japan	"Tomakomai Port, Hokkaido"	42.63138889		141.6288889														21	21.9	8	9.4				7		3.5	"Greenish blue"																			2022/1/25	2022/1/25
PRA000118	SAA008436	ST015				SapporoCity_w1_2019	Water	"River water"	2019	10	23	2019-10-23T10:20			Fair	Asia	Japan	"Nakanuma of Riv. Toyohira (Sapporo City), Hokkaido"	43.14083333		141.4530556														18	13	7	8.9	27			2			"Light yellow"																			2022/1/25	2022/1/25
PRA000118	SAA008437	ST015				SapporoCity_w2-1_2019	Water	"River water"	2019	12	4	2019-12-04T14:25			Cloudy	Asia	Japan	"Daiichishinkawa-bashi Bridge, Riv. Shin (Sapporo City), Hokkaido"	43.15194444		141.2377778														-4	2.7	6.8	11	41			3			"Light yellow"																			2022/1/25	2022/1/25
PRA000118	SAA008438	ST015				SapporoCity_w2-2_2019	Water	"River water"	2019	10	23	2019-10-23T12:50			Fair	Asia	Japan	"Daiichishinkawa-bashi Bridge, Riv. Shin (Sapporo City), Hokkaido"	43.15194444		141.2377778														17.5	15.8	6.9	6.5	41			8			"Light yellow"																			2022/1/25	2022/1/25
PRA000118	SAA008439	ST015				Iwate_w1-1_2019	Water	"River water"	2019	12	4	2019-12-04T10:25			Fair	Asia	Japan	"Toyosawa-bashi Bridge, Riv. Toyosawa (Hanamaki City), Iwate"	39.38166667		141.1191667														6	6	7.4	12	0			6			"Light green"																			2022/1/25	2022/1/25
PRA000118	SAA008440	ST015				Miyagi_w1_2019	Water	"River water"	2019	11	28	2019-11-28T13:26			Cloudy	Asia	Japan	"Futatsuya-bashi Bridge, Riv. Hasama (Tome City), Miyagi"	38.57138889		141.2136111														3	4.7	7	12	18			4			"Light yellow"																			2022/1/25	2022/1/25
PRA000118	SAA008441	ST015				Miyagi_w2_2019	Water	"River water"	2019	11	28	2019-11-28T10:08			Cloudy	Asia	Japan	"Sakura-hodoukyou Bridge, Riv. Shiroishi (Shibata Town), Miyagi"	38.06083333		140.7677778														5.1	7	6.9	11	14			2			Clear																			2022/1/25	2022/1/25
PRA000118	SAA008442	ST015				Sendai_w1_2019	Water	"River water"	2019	11	19	2019-11-19T13:39			Fair	Asia	Japan	"Hirose-ohashi Bridge, Riv. Hirose (Sendai City), Miyagi"	38.21333333		140.9088889														17.4	11.7	8.5	15.5	24			<1			Clear																			2022/1/25	2022/1/25
PRA000118	SAA008443	ST015				Akita_w1_2019	Water	"River water"	2019	11	22	2019-11-22T10:17			Fair	Asia	Japan	"Akita Canal (Akita City), Akita"	39.75083333		140.0586111														7.6	9.2	7.4	10	890			4		2.5	"Dark yellow green"																			2022/1/25	2022/1/25
PRA000118	SAA008444	ST015				Yamagata_w1-1_2019	Water	"River water"	2019	12	11	2019-12-11T09:10			Fair	Asia	Japan	"Mouth of Riv. Mogami, Yamagata"	38.88722222		139.8433333														8.7	5	7	12	11			4			"Light yellow green"																			2022/1/25	2022/1/25
PRA000118	SAA008445	ST015				Yamagata_w1-2_2019	Water	"River water"	2020	1	16	2020-01-16T10:50			Cloudy	Asia	Japan	"Mouth of Riv. Mogami, Yamagata"	38.88722222		139.8433333														3	5.7	7.4	12	12			9			"Light grayish yellow"																			2022/1/25	2022/1/25
PRA000118	SAA008446	ST015				Yamagata_w5_2019	Water	"River water"	2019	11	14	2019-11-14T10:19			"Light rain"	Asia	Japan	"Goten-bashi Bridge, Riv. Mogami (Murayama City), Yamagata"	38.48138889		140.3472222														10.1	11.2	7.2	10	17			6			"Light yellow"																			2022/1/25	2022/1/25
PRA000118	SAA008447	ST015				Ibaraki_w2_2019	Water	"River water"	2019	12	10	2019-12-10T10:00			Cloudy	Asia	Japan	"Kamome-ohasi Bridge, Mouth of Riv. Tone (Kamisu City), Ibaraki"	35.77638889		140.7569444														14.3	12.4	5.3	8.6	20			2			Clear																			2022/1/25	2022/1/25
PRA000118	SAA008448	ST015				Tochigi_w1-1_2019	Water	"River water"	2019	11	20	2019-11-20T10:05			Fair	Asia	Japan	"Tagawa area-Toshuko Weir (Utsunomiya City), Tochigi"	36.52805556		139.8855556														12	12	7.3	12	20			2			Clear																			2022/1/25	2022/1/25
PRA000118	SAA008449	ST015				Tochigi_w1-2_2019	Water	"River water"	2019	10	30	2019-10-30T10:50			Cloudy	Asia	Japan	"Tagawa area-Toshuko Weir (Utsunomiya City), Tochigi"	36.52805556		139.8855556														17	16	7.4	9.9	17			4			Clear																			2022/1/25	2022/1/25
PRA000118	SAA008450	ST015				Gunma_w7_2019	Water	"River water"	2019	11	20	2019-11-20T10:55			Fair	Asia	Japan	"Okuhara-bashi Bridge, Riv. Arato (Maebashi City), Gunma"	36.35		139.1608333														11.5	10	7.7	11	29			11			Clear																			2022/1/25	2022/1/25
PRA000118	SAA008451	ST015				Saitama_w2_2019	Water	"River water"	2019	11	27	2019-11-27T10:40			Cloudy	Asia	Japan	"Akigase-Shusuizeki Weir, Riv. Ara (Shiki City), Saitama"	35.84055556		139.6044444														10.1	13.3	7.6	10	22			8			"Light grayish green"																			2022/1/25	2022/1/25
PRA000118	SAA008452	ST015				SaitamaCity_w1-1_2019	Water	"River water"	2019	12	11	2019-12-11T09:30			Cloudy	Asia	Japan	"Nakadote-bashi Bridge, Riv. Kamo (Saitama City), Saitama"	35.855		139.6077778														11.2	11.2	7.6	8.3	35			6			"Grayish yellow"																			2022/1/25	2022/1/25
PRA000118	SAA008453	ST015				SaitamaCity_w1-2_2019	Water	"River water"	2019	11	12	2019-11-12T09:15			Fair	Asia	Japan	"Nakadote-bashi Bridge, Riv. Kamo (Saitama City), Saitama"	35.855		139.6077778														18	15	7.4	7.4	28			11			Gray																			2022/1/25	2022/1/25
PRA000118	SAA008454	ST015				Chiba_w1_2019	Water	"River water"	2019	11	20	2019-11-20T09:10			Fair	Asia	Japan	"Asai-bashi Bridge, Riv. Yourou (Ichihara City), Chiba"	35.46722222		140.1155556														13	13.6	7.9	10.2				10			"Greenish brown"																			2022/1/25	2022/1/25
PRA000118	SAA008455	ST014				Chiba_w2_2019	Water	"Sea water"	2019	11	27	2019-11-27T10:16			Rain	Asia	Japan	"Ichihara-Anesaki Coast, Chiba"	35.52166667		140.0283333														9.8	17.6	8	6.3	4,100			1		5	"Dark green"																			2022/1/25	2022/1/25
PRA000118	SAA008456	ST015				Tokyo_w1_2019	Water	"River water"	2019	12	18	2019-12-18T10:25			Fair	Asia	Japan	"Mouth of Riv. Arakawa (Koto Ward), Tokyo"	35.64583333		139.8463889														12.8	14.6	7.5	8.2	4,500			3		1.9	"Yellow green"																			2022/1/25	2022/1/25
PRA000118	SAA008457	ST015				Tokyo_w2_2019	Water	"River water"	2019	12	18	2019-12-18T13:00			Cloudy	Asia	Japan	"Mouth of Riv. Sumida (Minato Ward), Tokyo"	35.66		139.7705556														16.3	15.9	8.1	6.1	4,500			1		4	"Dark green"																			2022/1/25	2022/1/25
PRA000118	SAA008458	ST015				YokohamaCity_w1_2019	Water	"River water"	2019	12	9	2019-12-09T10:00			Cloudy	Asia	Japan	"Kamenoko-bashi Bridge, Riv. Tsurumi (Yokohama City), Kanagawa"	35.51444444		139.6080556														6.4	13.2	7.2	8.5	40			2			"Light yellow green"																			2022/1/25	2022/1/25
PRA000118	SAA008459	ST014				YokohamaCity_w3_2019	Water	"Sea water"	2019	11	27	2019-11-27T10:00			Rain	Asia	Japan	"Yokohama Port, Kanagawa"	35.45555556		139.6636111														9	16.5	8	6.8				3		5.5	Clear																			2022/1/25	2022/1/25
PRA000118	SAA008460	ST015				KawasakiCity_w1_2019	Water	"River water"	2019	11	27	2019-11-27T14:44			Cloudy	Asia	Japan	"Mouth of Riv. Tama (Kawasaki City), Kanagawa"	35.53		139.7836111														11.7	14.6	7.7	6.9	1,900			6		0.9	"Dark green"																			2022/1/25	2022/1/25
PRA000118	SAA008461	ST014				KawasakiCity_w3_2019	Water	"Sea water"	2019	11	27	2019-11-27T11:15			"Light rain"	Asia	Japan	"Keihin Canal, Kawasaki Port, Kanagawa, (front of Chidorimachi)"	35.50444444		139.7533333														9.4	17.2	7.9	7.3	4,300			6		4.2	"Grayish green"																			2022/1/25	2022/1/25
PRA000118	SAA008462	ST014				KawasakiCity_w2-1_2019	Water	"Sea water"	2019	11	27	2019-11-27T11:34			"Light rain"	Asia	Japan	"Keihin Canal, Kawasaki Port, Kanagawa (front of Ogimachi)"	35.49527778		139.7277778														10	17.2	7.9	7.5	4,300			4		4.5	"Grayish green"																			2022/01/25	2022/01/25
PRA000118	SAA008463	ST015				Niigata_w2_2019	Water	"River water"	2019	12	4	2019-12-04T09:40			Rain	Asia	Japan	"Downstream of Riv. Shinano (Niigata City), Niigata"	37.88305556		139.0155556														7.5	8	6.9	11	11			30			"yellowish brown"																			2022/1/25	2022/1/25
PRA000118	SAA008464	ST014				Toyama_w6_2019	Water	"Sea water"	2019	12	10	2019-12-10T08:20			Fair	Asia	Japan	"Off the coast of Uozu city, Toyama Bay"	36.82555556		137.3702778														7.3	12.3	8.3	8.4	5,000			3		11																				2022/1/25	2022/1/25
PRA000118	SAA008465	ST015				Ishikawa_w1-1_2019	Water	"River water"	2019	12	11	2019-12-11T09:46			Fair	Asia	Japan	"Mouth of Riv. Sai (Kanazawa City), Ishikawa"	36.60027778		136.5888889														13	10.5	7.1	9.7	78			4			Clear																			2022/01/25	2022/01/25
PRA000118	SAA008466	ST015				Nagano_w3_2019	Water	"River water"	2019	11	26	2019-11-26T10:28			Fair	Asia	Japan	"Tategahana-bashi Bridge, Riv. Shinano (Nakano City), Nagano"	36.73194444		138.3083333														10.6	11.5	7.3	10	9			4			Clear																			2022/1/25	2022/1/25
PRA000118	SAA008467	ST015				Nagano_w2_2019	Water	"Lake water"	2019	12	3	2019-12-03T09:30			Fair	Asia	Japan	"Center of Lake Suwa, Nagano"	36.05		138.0861111														5.4	8	7.5	9.6	13			3		1.7	"Light yellow green"																			2022/1/25	2022/1/25
PRA000118	SAA008468	ST014				Shizuoka_w2_2019	Water	"Sea water"	2019	12	4	2019-12-04T09:35			Fair	Asia	Japan	"Shimizu Port, Shizuoka"	35.02416667		138.5161111														12.1	17.2	8.1	7.5	4,400			7		5.5	Clear																			2022/1/25	2022/1/25
PRA000118	SAA008469	ST015				Shizuoka_w7_2019	Water	"River water"	2019	11	27	2019-11-27T10:30			Cloudy	Asia	Japan	"Kaketsuka-bashi Bridge, Riv. Tenryu (Iwata City), Shizuoka"	34.67888889		137.7958333														17.5	12.5	7.6	11	13			4			"Light white"																			2022/1/25	2022/1/25
PRA000118	SAA008470	ST015				Shizuoka_w8_2019	Water	"River water"	2019	11	21	2019-11-21T10:35			Fair	Asia	Japan	"The end of Riv. Yokosuka (Kosai City), Shizuoka"	34.7175		137.5444444														17.8	17	7.9	7.9	62			26			"Light grayish yellow"																			2022/01/25	2022/01/25
PRA000118	SAA008471	ST014				Aichi_w2-1_2019	Water	"Sea water"	2019	12	11	2019-12-11T12:33			Fair	Asia	Japan	"Nagoya Port, West of Shiomi Wharf, Aichi"	35.07111111		136.8691667														15.1	17.9	8	7.8	4,600			2		3.1	Clear																			2022/01/25	2022/01/25
PRA000118	SAA008472	ST015				NagoyaCity_w1_2019	Water	"River water"	2019	11	28	2019-11-28T11:00			Fair	Asia	Japan	"Minatoshinbashi Bridge, Riv. Hori (Nagoya City), Aichi"	35.09805556		136.8925														12.8	16.3	7.4	4.9				7			"Greenish brown"																			2022/1/25	2022/1/25
PRA000118	SAA008473	ST014				NagoyaCity_w3_2019	Water	"Sea water"	2019	11	28	2019-11-28T10:15			Fair	Asia	Japan	"Nagoya Port, South of Shiomi Wharf, Aichi"	35.04944444		136.8661111														13.2	18.3	7.8	6.2				3		2	Green																			2022/1/25	2022/1/25
PRA000118	SAA008474	ST014				Mie_w1_2019	Water	"Sea water"	2019	11	28	2019-11-28T10:10			Cloudy	Asia	Japan	"Yokkaichi Port, Mie"	34.94944444		136.6530556														12	17	8.1	7.2	4,500			2		3.1	"Greenish brown"																			2022/1/25	2022/1/25
PRA000118	SAA008475	ST014				Mie_w2_2019	Water	"Sea water"	2019	11	25	2019-11-25T11:00			Fair	Asia	Japan	"Toba Port, Mie"	34.48083333		136.8486111														22	18	8.1	7.3	4,400			2		2.5	"Grayish green"																			2022/1/25	2022/1/25
PRA000118	SAA008476	ST015				Shiga_w1-1_2019	Water	"Lake water"	2019	11	27	2019-11-27T09:30			Cloudy	Asia	Japan	"Lake Biwa (center, offshore of Minamihira), Shiga"	35.18527778		135.9733333														13.5	15.8	7.9	9.9	12			2		5.2	"Dark Greenish blue"																			2022/1/25	2022/1/25
PRA000118	SAA008477	ST015				Shiga_w1-2_2019	Water	"Lake water"	2019	11	19	2019-11-19T09:15			Cloudy	Asia	Japan	"Lake Biwa (center, offshore of Minamihira), Shiga"	35.18527778		135.9733333														14	16.4	8.1	9.8	12			2		6.6	"Dark Greenish blue"																			2022/1/25	2022/1/25
PRA000118	SAA008478	ST015				Shiga_w2-1_2019	Water	"Lake water"	2019	11	27	2019-11-27T11:30			Cloudy	Asia	Japan	"Lake Biwa (center, offshore of Karasaki), Shiga"	35.04611111		135.8955556														14.1	14.2	7.9	10	12			2		2.8	Green																			2022/1/25	2022/1/25
PRA000118	SAA008479	ST015				Shiga_w2-2_2019	Water	"Lake water"	2019	11	19	2019-11-19T09:50			Fair	Asia	Japan	"Lake Biwa (center, offshore of Karasaki), Shiga"	35.04611111		135.8955556														18.7	15.2	8	9.8	13			3		3	"Yellow green"																			2022/1/25	2022/1/25
PRA000118	SAA008480	ST014				Kyoto_w1_2019	Water	"Sea water"	2020	1	8	2020-01-08T10:35			Cloudy	Asia	Japan	"Miyazu Port, Kyoto"	35.58305556		135.2138889														17	13.9	8.5	5.2				2		6	Clear																			2022/1/25	2022/1/25
PRA000118	SAA008481	ST015				Kyoto_w3_2019	Water	"River water"	2020	1	16	2020-01-16T10:55			Cloudy	Asia	Japan	"Gokou-bashi Bridge, Riv. Kizu (Yawata City), Kyoto"	34.88972222		135.6994444														5.7	6.3	7.6	11.3	9			2			Clear																			2022/1/25	2022/1/25
PRA000118	SAA008482	ST015				KyotoCity_w1-1_2019	Water	"River water"	2019	11	28	2019-11-28T10:00			Cloudy	Asia	Japan	"Miyamae-bashi Bridge, Riv. Katsura (Kyoto City), Kyoto"	34.905		135.7125														10	15.2	7.3	9	17			4			Clear																			2022/01/25	2022/01/25
PRA000118	SAA008483	ST015				Osaka_w1_2019	Water	"River water"	2019	12	5	2019-12-05T09:38			Fair	Asia	Japan	"Mouth of Riv. Yamato (Sakai City), Osaka"	34.60833333		135.4325														11.6	12.5	7.8	8.1				10		1.5	"Light yellow"																			2022/1/25	2022/1/25
PRA000118	SAA008484	ST015				OsakaCity_w1_2019	Water	"River water"	2019	11	28	2019-11-28T10:45			Cloudy	Asia	Japan	"Kema-bashi Bridge, Riv. Oh-kawa (Osaka City), Osaka"	34.72		135.5186111														11.6	14	7.5	10.1	16			3			"Light grayish yellow"																			2022/1/25	2022/1/25
PRA000118	SAA008485	ST014				OsakaCity_w2_2019	Water	"Sea water"	2019	12	3	2019-12-03T08:11			Fair	Asia	Japan	"Osaka Port, Osaka"	34.65861111		135.4313889														10.2	13.8	7.6	8.1	1,700			2		3.5	"Light grayish yellow"																			2022/1/25	2022/1/25
PRA000118	SAA008486	ST014				Hyogo_w3_2019	Water	"Sea water"	2019	11	13	2019-11-13T10:47			Fair	Asia	Japan	"Offshore of Himeji, Hyogo"	34.76194444		134.6697222														17.4	19.8	8.3	6.9	2,300			5		8	"Dark green"																			2022/1/25	2022/1/25
PRA000118	SAA008487	ST014				Kobe_w1_2019	Water	"Sea water"	2019	12	10	2019-12-10T09:53			Fair	Asia	Japan	"Center of Kobe Port, Hyogo"	34.66444444		135.1944444														15.2	14.3	7.6	8				1		6.6	"Greenish brown"																			2022/1/25	2022/1/25
PRA000118	SAA008488	ST015				Nara_w1_2019	Water	"River water"	2019	12	5	2019-12-05T10:00			Fair	Asia	Japan	"Taisho-bashi Bridge, Riv. Yamato (Oji town), Nara"	34.58583333		135.6833333														13	11	7.7	10	32			13			"Light grayish yellow green"																			2022/1/25	2022/1/25
PRA000118	SAA008489	ST015				Wakayama_w1-1_2019	Water	"River water"	2019	11	27	2019-11-27T12:50			Cloudy	Asia	Japan	"Kinokawa-ohashi Bridge, Mouth of Riv. Kinokawa (Wakayama City), Wakayama"	34.23		135.1561111														15.5	17.3	7.1	7.7	2,800			22			Green																			2022/01/25	2022/01/25
PRA000118	SAA008490	ST015				Okayama_w1_2019	Water	"River water"	2019	11	28	2019-11-28T10:25			Cloudy	Asia	Japan	"Sasagase-bashi Bridge, Riv. Sasagase (Okayama City), Okayama"	34.61916667		133.9061111														10	13.4	7.5	8.9	21			<5			"Dark Greenish blue"																			2022/1/25	2022/1/25
PRA000118	SAA008491	ST014				Okayama_w2_2019	Water	"Sea water"	2019	10	23	2019-10-23T10:35			Fair	Asia	Japan	"Offshore of Mizushima, Okayama"	34.48055556		133.665														23.6	22	8	6.7	6,500			6		1.5	"Dark Yellow green"																			2022/1/25	2022/1/25
PRA000118	SAA008492	ST014				Yamaguchi_w1-1_2019	Water	"Sea water"	2019	11	12	2019-11-12T12:25			Fair	Asia	Japan	"Tokuyama Bay, Yamaguchi"	33.99361111		131.7505556														20	22.4	8	5.9				2		7	"Bluish green"																			2022/1/25	2022/1/25
PRA000118	SAA008493	ST014				Yamaguchi_w1-2_2019	Water	"Sea water"	2019	12	16	2019-12-16T09:38			Fair	Asia	Japan	"Tokuyama Bay, Yamaguchi"	33.99361111		131.7505556														11.7	15.5	8.1	8				3		9	"Bluish green"																			2022/1/25	2022/1/25
PRA000118	SAA008494	ST014				Yamaguchi_w2-1_2019	Water	"Sea water"	2019	11	22	2019-11-22T11:20			Cloudy	Asia	Japan	"Offshore of Hagi, Yamaguchi"	34.43805556		131.3794444														14.5	19.5	8.2	7				1		15	"Bluish green"																			2022/1/25	2022/1/25
PRA000118	SAA008495	ST014				Yamaguchi_w2-2_2019	Water	"Sea water"	2019	12	16	2019-12-16T09:38			Fair	Asia	Japan	"Offshore of Hagi, Yamaguchi"	34.43805556		131.3794444														11.7	15.5	8.1	8				3		9	"Bluish green"																			2022/1/25	2022/1/25
PRA000118	SAA008496	ST014				Tokushima_w3_2019	Water	"Sea water"	2020	2	7	2020-02-07T08:32			Cloudy	Asia	Japan	"Kii Channel, Tokushima"	34.10333333		134.6288889														2.9	10.2	8.2	11	4,400			10		7	"Dark green"																			2022/1/25	2022/1/25
PRA000118	SAA008497	ST014				Kagawa_w1_2019	Water	"Sea water"	2019	11	26	2019-11-26T08:55			Fair	Asia	Japan	"Takamatsu Port, Kagawa"	34.34972222		134.0788889														13.4	15.9	8.1	7.8				7		1.1	"Bluish green"																			2022/1/25	2022/1/25
PRA000118	SAA008498	ST014				Ehime_w2_2019	Water	"Sea water"	2019	12	11	2019-12-11T10:03			Cloudy	Asia	Japan	"Sawazu Fishing Port, Ehime"	33.98388889		133.2911111														13.1	14.5	7.6	8.3	4,600			3		4	"Dark yellow green"																			2022/1/25	2022/1/25
PRA000118	SAA008499	ST015				Ehime_w3_2019	Water	"River water"	2019	12	11	2019-12-11T14:30			Cloudy	Asia	Japan	"Mishima, Riv. Iwamatsu, Uwajima Ciy, Ehime"	33.12777778		132.5355556														15	17.7	8.1	8.8	8			<1			Clear																			2022/1/25	2022/1/25
PRA000118	SAA008500	ST015				Fukuoka_w1_2019	Water	"River water"	2019	10	23	2019-10-23T11:29			Cloudy	Asia	Japan	"Kabura-bashi Bridge, Riv. Raizan (Itoshima City), Fukuoka"	33.565		130.1902778														20.4	20.6	7.4	7.9	28			22			"Light yellowish brown"																			2022/1/25	2022/1/25
PRA000118	SAA008501	ST014				Fukuoka_w2_2019	Water	"Sea water"	2019	10	17	2019-10-17T11:03			Rain	Asia	Japan	"Offshore of Omuta, Fukuoka"	33.03472222		130.4113889														13.5	21.3	7.2	8.3	4,800			9		1.8	"Light yellow"																			2022/1/25	2022/1/25
PRA000118	SAA008502	ST014				KitakyushuCity_w1_2019	Water	"Sea water"	2019	11	25	2019-11-25T09:30			Cloudy	Asia	Japan	"Dokai Bay (Kitakyushu City), Fukuoka"	33.90388889		130.8158333														19.3	17.8	8.1	7.7	4,800			3		4.5	Clear																			2022/1/25	2022/1/25
PRA000118	SAA008503	ST014				FukuokaCity_w1_2019	Water	"Sea water"	2019	12	5	2019-12-05T08:55			Cloudy	Asia	Japan	"Hakata Bay, Fukuoka"	33.60833333		130.3297222														13.5	14	8	9	4,800			2		2.5	"Dark green"																			2022/1/25	2022/1/25
PRA000118	SAA008504	ST014				Saga_w1_2019	Water	"Sea water"	2019	11	29	2019-11-29T10:40			Fair	Asia	Japan	"Imari Bay, Saga"	33.34		129.8208333														13	16.5	8.5	7.7	4,200			17		2.5	Clear																			2022/1/25	2022/1/25
PRA000118	SAA008505	ST015				Kumamoto_w4_2019	Water	"River water"	2019	12	10	2019-12-10T12:10			Fair	Asia	Japan	"Terada Water gate, Riv. Konoha (Tamana City), Kumamoto"	32.93111111		130.5836111															14.1	7.4	10.3	21			7			Clear																			2022/1/25	2022/1/25
PRA000118	SAA008506	ST015				Oita_w2_2019	Water	"River water"	2019	11	21	2019-11-21T11:05			Fair	Asia	Japan	"Mouth of Riv. Oita, Oita"	33.25722222		131.6175														13.9	14.5	7.8	8.9	1,200			2			"Dark grayish green"																			2022/1/25	2022/1/25
PRA000118	SAA008507	ST015				Miyazaki_w5_2019	Water	"River water"	2019	12	6	2019-12-06T11:19			Cloudy	Asia	Japan	"Matubara-bashi Bridge, Riv. Hirata (Kawaminami Town), Miyazaki"	32.19222222		131.5413889														16	12	7.3	10	14			<1			Clear																			2022/1/25	2022/1/25
PRA000118	SAA008508	ST015				Miyazaki_w6_2019	Water	"River water"	2019	12	6	2019-12-06T12:01			Cloudy	Asia	Japan	"Takanabe-ohashi Bridge, Riv. Omaru (Takanabe Town), Miyazaki"	32.1325		131.5244444														12.9	12	7.3	10	56			<1			Clear																			2022/1/25	2022/1/25
PRA000118	SAA008509	ST015				Miyazaki_w7_2019	Water	"River water"	2019	12	6	2019-12-06T14:20			Cloudy	Asia	Japan	"Aioi-bashi Bridge, Riv. Oyodo (Miyazaki City), Miyazaki"	31.95694444		131.395														12	13	7.6	9.6	18			<1			Clear																			2022/1/25	2022/1/25
PRA000119	SAA008432	ST015				Hokkaido_w2_2019	Water	"River water"	2019	11	12	2019-11-12T14:00			Fair	Asia	Japan	"Suzuran-ohashi Bridge, Riv. Tokachi (Obihiro City), Hokkaido"	42.94583333		143.1855556														13	10	8	11				3			Clear																			2022/5/6	2022/5/6
PRA000119	SAA008433	ST015				Hokkaido_w9_2019	Water	"River water"	2019	11	6	2019-11-06T12:30			Sleet	Asia	Japan	"Inou-ohashi Bridge, Riv. Ishikari (Asahikawa City), Hokkaido"	43.76583333		142.275														3.2	5.4	6.5	12				"< 0.5"			Clear																			2022/5/6	2022/5/6
PRA000119	SAA008434	ST015				Hokkaido_w3_2019	Water	"River water"	2019	11	21	2019-11-21T14:00			Cloudy	Asia	Japan	"Ishikarikakokyo Bridge, Mouth of Riv. Ishikari (Ishikari City), Hokkaido"	43.22861111		141.3519444														2.1	2.9	8.2	14				3			"Grayish brown"																			2022/5/6	2022/5/6
PRA000119	SAA008435	ST014				Hokkaido_w7_2019	Water	"Sea water"	2019	9	12	2019-09-12T10:45			Fair	Asia	Japan	"Tomakomai Port, Hokkaido"	42.63138889		141.6288889														21	21.9	8	9.4				7		3.5	"Greenish blue"																			2022/5/6	2022/5/6
PRA000119	SAA008439	ST015				Iwate_w1-1_2019	Water	"River water"	2019	12	4	2019-12-04T10:25			Fair	Asia	Japan	"Toyosawa-bashi Bridge, Riv. Toyosawa (Hanamaki City), Iwate"	39.38166667		141.1191667														6	6	7.4	12	0			6			"Light green"																			2022/5/6	2022/5/6
PRA000119	SAA008440	ST015				Miyagi_w1_2019	Water	"River water"	2019	11	28	2019-11-28T13:26			Cloudy	Asia	Japan	"Futatsuya-bashi Bridge, Riv. Hasama (Tome City), Miyagi"	38.57138889		141.2136111														3	4.7	7	12	18			4			"Light yellow"																			2022/5/6	2022/5/6
PRA000119	SAA008441	ST015				Miyagi_w2_2019	Water	"River water"	2019	11	28	2019-11-28T10:08			Cloudy	Asia	Japan	"Sakura-hodoukyou Bridge, Riv. Shiroishi (Shibata Town), Miyagi"	38.06083333		140.7677778														5.1	7	6.9	11	14			2			Clear																			2022/5/6	2022/5/6
PRA000119	SAA008442	ST015				Sendai_w1_2019	Water	"River water"	2019	11	19	2019-11-19T13:39			Fair	Asia	Japan	"Hirose-ohashi Bridge, Riv. Hirose (Sendai City), Miyagi"	38.21333333		140.9088889														17.4	11.7	8.5	15.5	24			"< 1.0"			Clear																			2022/5/6	2022/5/6
PRA000119	SAA008443	ST015				Akita_w1_2019	Water	"River water"	2019	11	22	2019-11-22T10:17			Fair	Asia	Japan	"Akita Canal (Akita City), Akita"	39.75083333		140.0586111														7.6	9.2	7.4	10	890			4		2.5	"Dark yellow green"																			2022/5/6	2022/5/6
PRA000119	SAA008444	ST015				Yamagata_w1-1_2019	Water	"River water"	2019	12	11	2019-12-11T09:10			Fair	Asia	Japan	"Mouth of Riv. Mogami, Yamagata"	38.88722222		139.8433333														8.7	5	7	12	11			4			"Light yellow green"																			2022/5/6	2022/5/6
PRA000119	SAA008447	ST015				Ibaraki_w2_2019	Water	"River water"	2019	12	10	2019-12-10T10:00			Cloudy	Asia	Japan	"Kamome-ohasi Bridge, Mouth of Riv. Tone (Kamisu City), Ibaraki"	35.77638889		140.7569444														14.3	12.4	5.3	8.6	20			2			Clear																			2022/5/6	2022/5/6
PRA000119	SAA008616	ST015				Tochigi_w1-3_2019	Water	"River water"	2019	12	17	2019-12-17T09:42			Rain	Asia	Japan	"Tagawa area-Toshuko Weir (Utsunomiya City), Tochigi"	36.52805556		139.8855556														7.5	9	7.4	11	21			5			Clear																			2022/5/6	2022/5/6
PRA000119	SAA008451	ST015				Saitama_w2_2019	Water	"River water"	2019	11	27	2019-11-27T10:40			Cloudy	Asia	Japan	"Akigase-Shusuizeki Weir, Riv. Ara (Shiki City), Saitama"	35.84055556		139.6044444														10.1	13.3	7.6	10	22			8			"Light grayish green"																			2022/5/6	2022/5/6
PRA000119	SAA008617	ST015				SaitamaCity_w1-3_2019	Water	"River water"	2020	1	14	2020-01-14T10:45			Fair	Asia	Japan	"Nakadote-bashi Bridge, Riv. Kamo (Saitama City), Saitama"	35.855		139.6077778														13.2	7.9	7.4	11	160			10			Gray																			2022/5/6	2022/5/6
PRA000119	SAA008454	ST015				Chiba_w1_2019	Water	"River water"	2019	11	20	2019-11-20T09:10			Fair	Asia	Japan	"Asai-bashi Bridge, Riv. Yourou (Ichihara City), Chiba"	35.46722222		140.1155556														13	13.6	7.9	10.2				10			"Greenish brown"																			2022/5/6	2022/5/6
PRA000119	SAA008455	ST014				Chiba_w2_2019	Water	"Sea water"	2019	11	27	2019-11-27T10:16			Rain	Asia	Japan	"Ichihara-Anesaki Coast, Chiba"	35.52166667		140.0283333														9.8	17.6	8	6.3	4,100			1		5	"Dark green"																			2022/5/6	2022/5/6
PRA000119	SAA008456	ST015				Tokyo_w1_2019	Water	"River water"	2019	12	18	2019-12-18T10:25			Fair	Asia	Japan	"Mouth of Riv. Arakawa (Koto Ward), Tokyo"	35.64583333		139.8463889														12.8	14.6	7.5	8.2	4,480			3		1.9	"Yellow green"																			2022/5/6	2022/5/6
PRA000119	SAA008457	ST015				Tokyo_w2_2019	Water	"River water"	2019	12	18	2019-12-18T13:00			Cloudy	Asia	Japan	"Mouth of Riv. Sumida (Minato Ward), Tokyo"	35.66		139.7705556														16.3	15.9	8.1	6.1	4,450			1		4	"Dark green"																			2022/5/6	2022/5/6
PRA000119	SAA008458	ST015				YokohamaCity_w1_2019	Water	"River water"	2019	12	9	2019-12-09T10:00			Cloudy	Asia	Japan	"Kamenoko-bashi Bridge, Riv. Tsurumi (Yokohama City), Kanagawa"	35.51444444		139.6080556														6.4	13.2	7.2	8.5	40			2			"Light yellow green"																			2022/5/6	2022/5/6
PRA000119	SAA008459	ST014				YokohamaCity_w3_2019	Water	"Sea water"	2019	11	27	2019-11-27T10:00			Rain	Asia	Japan	"Yokohama Port, Kanagawa"	35.45555556		139.6636111														9	16.5	8	6.8				3		5.5	Clear																			2022/5/6	2022/5/6
PRA000119	SAA008460	ST015				KawasakiCity_w1_2019	Water	"River water"	2019	11	27	2019-11-27T14:44			Cloudy	Asia	Japan	"Mouth of Riv. Tama (Kawasaki City), Kanagawa"	35.53		139.7836111														11.7	14.6	7.7	6.9	1,900			6		0.9	"Dark green"																			2022/5/6	2022/5/6
PRA000119	SAA008461	ST014				KawasakiCity_w3_2019	Water	"Sea water"	2019	11	27	2019-11-27T11:15			"Light rain"	Asia	Japan	"Keihin Canal, Kawasaki Port, Kanagawa, (front of Chidorimachi)"	35.50444444		139.7533333														9.4	17.2	7.9	7.3	4,300			6		4.2	"Grayish green"																			2022/5/6	2022/5/6
PRA000119	SAA008462	ST014				KawasakiCity_w2-1_2019	Water	"Sea water"	2019	11	27	2019-11-27T11:34			"Light rain"	Asia	Japan	"Keihin Canal, Kawasaki Port, Kanagawa (front of Ogimachi)"	35.49527778		139.7277778														10	17.2	7.9	7.5	4,300			4		4.5	"Grayish green"																			2022/01/25	2022/01/25
PRA000119	SAA008463	ST015				Niigata_w2_2019	Water	"River water"	2019	12	4	2019-12-04T09:40			Rain	Asia	Japan	"Downstream of Riv. Shinano (Niigata City), Niigata"	37.88305556		139.0155556														7.5	8	6.9	11	11			30			"yellowish brown"																			2022/5/6	2022/5/6
PRA000119	SAA008465	ST015				Ishikawa_w1-1_2019	Water	"River water"	2019	12	11	2019-12-11T09:46			Fair	Asia	Japan	"Mouth of Riv. Sai (Kanazawa City), Ishikawa"	36.60027778		136.5888889														13	10.5	7.1	9.7	78			4			Clear																			2022/01/25	2022/01/25
PRA000119	SAA008618	ST015				Fukui_w1_2019	Water	"River water"	2019	10	23	2019-10-23T10:50			Fair	Asia	Japan	"Mishima-bashi Bridge, Riv. Shono (Tsuruga City), Fukui"	35.6475		136.0627778														25.4	22.5	7.4	9.4	8			"< 1.0"			Clear																			2022/5/6	2022/5/6
PRA000119	SAA008466	ST015				Nagano_w3_2019	Water	"River water"	2019	11	26	2019-11-26T10:28			Fair	Asia	Japan	"Tategahana-bashi Bridge, Riv. Shinano (Nakano City), Nagano"	36.73194444		138.3083333														10.6	11.5	7.3	10	9			4			Clear																			2022/5/6	2022/5/6
PRA000119	SAA008467	ST015				Nagano_w2_2019	Water	"Lake water"	2019	12	3	2019-12-03T09:30			Fair	Asia	Japan	"Center of Lake Suwa, Nagano"	36.05		138.0861111														5.4	8	7.5	9.6	13			3		1.7	"Light yellow green"																			2022/5/6	2022/5/6
PRA000119	SAA008468	ST014				Shizuoka_w2_2019	Water	"Sea water"	2019	12	4	2019-12-04T09:35			Fair	Asia	Japan	"Shimizu Port, Shizuoka"	35.02416667		138.5161111														12.1	17.2	8.1	7.5	4,400			7		5.5	Clear																			2022/5/6	2022/5/6
PRA000119	SAA008469	ST015				Shizuoka_w7_2019	Water	"River water"	2019	11	27	2019-11-27T10:30			Cloudy	Asia	Japan	"Kaketsuka-bashi Bridge, Riv. Tenryu (Iwata City), Shizuoka"	34.67888889		137.7958333														17.5	12.5	7.6	11	13			4			"Light white"																			2022/5/6	2022/5/6
PRA000119	SAA008471	ST014				Aichi_w2-1_2019	Water	"Sea water"	2019	12	11	2019-12-11T12:33			Fair	Asia	Japan	"Nagoya Port, West of Shiomi Wharf, Aichi"	35.07111111		136.8691667														15.1	17.9	8	7.8	4,600			2		3.1	Clear																			2022/01/25	2022/01/25
PRA000119	SAA008619	ST015				NagoyaCity_w5_2019	Water	"River water"	2019	11	28	2019-11-28T13:45			Fair	Asia	Japan	"Hinode-bashi Bridge, Riv. Shinhori (Nagoya City), Aichi"	35.12611111		136.9172222														13	18	7.1	3.3				3			"Greenish brown"																			2022/5/6	2022/5/6
PRA000119	SAA008472	ST015				NagoyaCity_w1_2019	Water	"River water"	2019	11	28	2019-11-28T11:00			Fair	Asia	Japan	"Minatoshinbashi Bridge, Riv. Hori (Nagoya City), Aichi"	35.09805556		136.8925														12.8	16.3	7.4	4.9				7			"Greenish brown"																			2022/5/6	2022/5/6
PRA000119	SAA008473	ST014				NagoyaCity_w3_2019	Water	"Sea water"	2019	11	28	2019-11-28T10:15			Fair	Asia	Japan	"Nagoya Port, South of Shiomi Wharf, Aichi"	35.04944444		136.8661111														13.2	18.3	7.8	6.2				3		2	Green																			2022/5/6	2022/5/6
PRA000119	SAA008474	ST014				Mie_w1_2019	Water	"Sea water"	2019	11	28	2019-11-28T10:10			Cloudy	Asia	Japan	"Yokkaichi Port, Mie"	34.94944444		136.6530556														12	17	8.1	7.2	4,500			2		3.1	"Greenish brown"																			2022/5/6	2022/5/6
PRA000119	SAA008475	ST014				Mie_w2_2019	Water	"Sea water"	2019	11	25	2019-11-25T11:00			Fair	Asia	Japan	"Toba Port, Mie"	34.48083333		136.8486111														22	18	8.1	7.3	4,400			2		2.5	"Grayish green"																			2022/5/6	2022/5/6
PRA000119	SAA008476	ST015				Shiga_w1-1_2019	Water	"Lake water"	2019	11	27	2019-11-27T09:30			Cloudy	Asia	Japan	"Lake Biwa (center, offshore of Minamihira), Shiga"	35.18527778		135.9733333														13.5	15.8	7.9	9.9	12			2		5.2	"Dark Greenish blue"																			2022/5/6	2022/5/6
PRA000119	SAA008479	ST015				Shiga_w2-2_2019	Water	"Lake water"	2019	11	19	2019-11-19T09:50			Fair	Asia	Japan	"Lake Biwa (center, offshore of Karasaki), Shiga"	35.04611111		135.8955556														18.7	15.2	8	9.8	13			3		3	"Yellow green"																			2022/5/6	2022/5/6
PRA000119	SAA008480	ST014				Kyoto_w1_2019	Water	"Sea water"	2020	1	8	2020-01-08T10:35			Cloudy	Asia	Japan	"Miyazu Port, Kyoto"	35.58305556		135.2138889														17	13.9	8.5	5.2				2		6	Clear																			2022/5/6	2022/5/6
PRA000119	SAA008620	ST015				KyotoCity_w1-2_2019	Water	"River water"	2020	1	22	2020-01-22T10:00			Fair	Asia	Japan	"Miyamae-bashi Bridge, Riv. Katsura (Kyoto City), Kyoto"	34.905		135.7125														7.5	11.2	7.2	10.5	21			3			Clear																			2022/05/06	2022/05/06
PRA000119	SAA008483	ST015				Osaka_w1_2019	Water	"River water"	2019	12	5	2019-12-05T09:38			Fair	Asia	Japan	"Mouth of Riv. Yamato (Sakai City), Osaka"	34.60833333		135.4325														11.6	12.5	7.8	8.1				10		1.5	"Light yellow"																			2022/5/6	2022/5/6
PRA000119	SAA008484	ST015				OsakaCity_w1_2019	Water	"River water"	2019	11	28	2019-11-28T10:45			Cloudy	Asia	Japan	"Kema-bashi Bridge, Riv. Oh-kawa (Osaka City), Osaka"	34.72		135.5186111														11.6	14	7.5	10.1	16			3			"Light grayish yellow"																			2022/5/6	2022/5/6
PRA000119	SAA008485	ST014				OsakaCity_w2_2019	Water	"Sea water"	2019	12	3	2019-12-03T08:11			Fair	Asia	Japan	"Osaka Port, Osaka"	34.65861111		135.4313889														10.2	13.8	7.6	8.1	1,690			2		3.5	"Light grayish yellow"																			2022/5/6	2022/5/6
PRA000119	SAA008486	ST014				Hyogo_w3_2019	Water	"Sea water"	2019	11	13	2019-11-13T10:47			Fair	Asia	Japan	"Offshore of Himeji, Hyogo"	34.76194444		134.6697222														17.4	19.8	8.3	6.9	2,300			5		8	"Dark green"																			2022/5/6	2022/5/6
PRA000119	SAA008487	ST014				Kobe_w1_2019	Water	"Sea water"	2019	12	10	2019-12-10T09:53			Fair	Asia	Japan	"Center of Kobe Port, Hyogo"	34.66444444		135.1944444														15.2	14.3	7.6	8				1		6.6	"Greenish brown"																			2022/5/6	2022/5/6
PRA000119	SAA008488	ST015				Nara_w1_2019	Water	"River water"	2019	12	5	2019-12-05T10:00			Fair	Asia	Japan	"Taisho-bashi Bridge, Riv. Yamato (Oji town), Nara"	34.58583333		135.6833333														13	11	7.7	10	32			13			"Light grayish yellow green"																			2022/5/6	2022/5/6
PRA000119	SAA008489	ST015				Wakayama_w1-1_2019	Water	"River water"	2019	11	27	2019-11-27T12:50			Cloudy	Asia	Japan	"Kinokawa-ohashi Bridge, Mouth of Riv. Kinokawa (Wakayama City), Wakayama"	34.23		135.1561111														15.5	17.3	7.1	7.7	2,800			22			Green																			2022/01/25	2022/01/25
PRA000119	SAA008490	ST015				Okayama_w1_2019	Water	"River water"	2019	11	28	2019-11-28T10:25			Cloudy	Asia	Japan	"Sasagase-bashi Bridge, Riv. Sasagase (Okayama City), Okayama"	34.61916667		133.9061111														10	13.4	7.5	8.9	21			"< 5.0"			"Dark Greenish blue"																			2022/5/6	2022/5/6
PRA000119	SAA008491	ST014				Okayama_w2_2019	Water	"Sea water"	2019	10	23	2019-10-23T10:35			Fair	Asia	Japan	"Offshore of Mizushima, Okayama"	34.48055556		133.665														23.6	22	8	6.7	6,500			6		1.5	"Dark Yellow green"																			2022/5/6	2022/5/6
PRA000119	SAA008492	ST014				Yamaguchi_w1-1_2019	Water	"Sea water"	2019	11	12	2019-11-12T12:25			Fair	Asia	Japan	"Tokuyama Bay, Yamaguchi"	33.99361111		131.7505556														20	22.4	8	5.9				2		7	"Bluish green"																			2022/5/6	2022/5/6
PRA000119	SAA008494	ST014				Yamaguchi_w2-1_2019	Water	"Sea water"	2019	11	22	2019-11-22T11:20			Cloudy	Asia	Japan	"Offshore of Hagi, Yamaguchi"	34.43805556		131.3794444														14.5	19.5	8.2	7				1		15	"Bluish green"																			2022/5/6	2022/5/6
PRA000119	SAA008497	ST014				Kagawa_w1_2019	Water	"Sea water"	2019	11	26	2019-11-26T08:55			Fair	Asia	Japan	"Takamatsu Port, Kagawa"	34.34972222		134.0788889														13.4	15.9	8.1	7.8				7		1.1	"Bluish green"																			2022/5/6	2022/5/6
PRA000119	SAA008498	ST014				Ehime_w2_2019	Water	"Sea water"	2019	12	11	2019-12-11T10:03			Cloudy	Asia	Japan	"Sawazu Fishing Port, Ehime"	33.98388889		133.2911111														13.1	14.5	7.6	8.3	4,600			3		4	"Dark yellow green"																			2022/5/6	2022/5/6
PRA000119	SAA008499	ST015				Ehime_w3_2019	Water	"River water"	2019	12	11	2019-12-11T14:30			Cloudy	Asia	Japan	"Mishima, Riv. Iwamatsu, Uwajima Ciy, Ehime"	33.12777778		132.5355556														15	17.7	8.1	8.8	8			"< 1.0"			Clear																			2022/5/6	2022/5/6
PRA000119	SAA008500	ST015				Fukuoka_w1_2019	Water	"River water"	2019	10	23	2019-10-23T11:29			Cloudy	Asia	Japan	"Kabura-bashi Bridge, Riv. Raizan (Itoshima City), Fukuoka"	33.565		130.1902778														20.4	20.6	7.4	7.9	28			22			"Light yellowish brown"																			2022/5/6	2022/5/6
PRA000119	SAA008501	ST014				Fukuoka_w2_2019	Water	"Sea water"	2019	10	17	2019-10-17T11:03			Rain	Asia	Japan	"Offshore of Omuta, Fukuoka"	33.03472222		130.4113889														13.5	21.3	7.2	8.3	4,800			9		1.8	"Light yellow"																			2022/5/6	2022/5/6
PRA000119	SAA008502	ST014				KitakyushuCity_w1_2019	Water	"Sea water"	2019	11	25	2019-11-25T09:30			Cloudy	Asia	Japan	"Dokai Bay (Kitakyushu City), Fukuoka"	33.90388889		130.8158333														19.3	17.8	8.1	7.7	4,800			3		4.5	Clear																			2022/5/6	2022/5/6
PRA000119	SAA008503	ST014				FukuokaCity_w1_2019	Water	"Sea water"	2019	12	5	2019-12-05T08:55			Cloudy	Asia	Japan	"Hakata Bay, Fukuoka"	33.60833333		130.3297222														13.5	14	8	9	4,800			2		2.5	"Dark green"																			2022/5/6	2022/5/6
PRA000119	SAA008504	ST014				Saga_w1_2019	Water	"Sea water"	2019	11	29	2019-11-29T10:40			Fair	Asia	Japan	"Imari Bay, Saga"	33.34		129.8208333														13	16.5	8.5	7.7	4,200			17		2.5	Clear																			2022/5/6	2022/5/6
PRA000119	SAA008506	ST015				Oita_w2_2019	Water	"River water"	2019	11	21	2019-11-21T11:05			Fair	Asia	Japan	"Mouth of Riv. Oita, Oita"	33.25722222		131.6175														13.9	14.5	7.8	8.9	1,200			2			"Dark grayish green"																			2022/5/6	2022/5/6
PRA000119	SAA008621	ST014				Okinawa_w1_2019	Water	"Sea water"	2020	1	10	2020-01-10T11:40			Cloudy	Asia	Japan	"Naha Port, Okinawa"	26.21222222		127.665														22.4	22.5	7.9	4.3	4,890			20		1.5	Clear																			2022/5/6	2022/5/6
PRA000120	SAA008434	ST015				Hokkaido_w3_2019	Water	"River water"	2019	11	21	2019-11-21T14:00			Cloudy	Asia	Japan	"Ishikarikakokyo Bridge, Mouth of Riv. Ishikari (Ishikari City), Hokkaido"	43.22861111		141.3519444														"2.1 "	"2.9 "	"8.2 "	"14 "	"26 "			"3 "			"Grayish brown"																			2022/6/2	2022/6/2
PRA000120	SAA008439	ST015				Iwate_w1-1_2019	Water	"River water"	2019	12	4	2019-12-04T10:25			Fair	Asia	Japan	"Toyosawa-bashi Bridge, Riv. Toyosawa (Hanamaki City), Iwate"	39.38166667		141.1191667														"6.0 "	"6.0 "	"7.4 "	"12 "	"0 "			"6 "			"Light green"																			2022/6/2	2022/6/2
PRA000120	SAA008736	ST014				Miyagi_w3_2019	Water	"Sea water"	2019	10	15	2019-10-15T10:18			Fair	Asia	Japan	"Sendai Bay (Matsushima Bay), Miyagi"	"38.3533333 "		"141.0975000 "														"16.7 "	"18.0 "	"7.5 "	"8 "	"3,100 "			"3 "		"0.6 "	Clear																			2022/6/2	2022/6/2
PRA000120	SAA008737	ST015				Akita_w3_2019	Water	"Lake water"	2019	10	21	2019-10-21T09:54			Fair	Asia	Japan	"Lake Hachiro, Akita"	"39.9227778 "		"139.9988889 "														"20.0 "	"16.4 "	"8.8 "	"13 "	"29 "			"22 "		"0.5 "	"Light Greenish brown"																			2022/6/2	2022/6/2
PRA000120	SAA008444	ST015				Yamagata_w1-1_2019	Water	"River water"	2019	12	11	2019-12-11T09:10			Fair	Asia	Japan	"Mouth of Riv. Mogami, Yamagata"	38.88722222		139.8433333														"8.7 "	"5.0 "	"7.0 "	"12 "	"11 "			"4 "			"Light yellow green"																			2022/6/2	2022/6/2
PRA000120	SAA008738	ST014				Fukushima_w1_2019	Water	"Sea water"	2019	11	12	2019-11-12T11:20			Fair	Asia	Japan	"Onahama Port, Fukushima"	"36.92472222 "		"140.87527780 "														"20.2 "	"18.0 "	"8.0 "	"7.6 "	"4,700 "			"5 "		"4.0 "	Clear																			2022/6/2	2022/6/2
PRA000120	SAA008447	ST015				Ibaraki_w2_2019	Water	"River water"	2019	12	10	2019-12-10T10:00			Cloudy	Asia	Japan	"Kamome-ohasi Bridge, Mouth of Riv. Tone (Kamisu City), Ibaraki"	35.77638889		140.7569444														"14.3 "	"12.4 "	"5.3 "	"8.6 "	"20 "			"2 "			Clear																			2022/6/2	2022/6/2
PRA000120	SAA008449	ST015				Tochigi_w1-2_2019	Water	"River water"	2019	10	30	2019-10-30T10:50			Cloudy	Asia	Japan	"Tagawa area-Toshuko Weir (Utsunomiya City), Tochigi"	"36.52805556 "		"139.88555560 "														"17.0 "	"16.0 "	"7.4 "	"9.9 "	"17 "			"4 "			Clear																			2022/6/2	2022/6/2
PRA000120	SAA008739	ST015				Gunma_w8_2019	Water	"River water"	2019	10	24	2019-10-24T11:50			Cloudy	Asia	Japan	"Upstream of Tone-Ozeki, Riv. Tone (Chiyoda machi), Gunma"	"36.20611111 "		"139.43416670 "														"17.5 "		"7.4 "	"8.9 "				"71 "			"Light Brown"																			2022/6/2	2022/6/2
PRA000120	SAA008451	ST015				Saitama_w2_2019	Water	"River water"	2019	11	27	2019-11-27T10:40			Cloudy	Asia	Japan	"Akigase-Shusuizeki Weir, Riv. Ara (Shiki City), Saitama"	35.84055556		139.6044444														"10.1 "	"13.3 "	"7.6 "	"10 "	"22 "			"8 "			"Light grayish green"																			2022/6/2	2022/6/2
PRA000120	SAA008740	ST015				ChibaCity_w1_2019	Water	"River water"	2019	11	7	2019-11-07T10:40			Fair	Asia	Japan	"Mouth of Riv. Hanami (Chiba City), Chiba"	35.63472222		140.04694440														"16.0 "	"19.2 "	"7.5 "	"6.8 "	"2,700 "			<1			Clear																			2022/6/2	2022/6/2
PRA000120	SAA008456	ST015				Tokyo_w1_2019	Water	"River water"	2019	12	18	2019-12-18T10:25			Fair	Asia	Japan	"Mouth of Riv. Arakawa (Koto Ward), Tokyo"	35.64583333		139.8463889														"12.8 "	"14.6 "	"7.5 "	"8.2 "	"4,480 "			"3 "		"1.9 "	"Yellow green"																			2022/6/2	2022/6/2
PRA000120	SAA008457	ST015				Tokyo_w2_2019	Water	"River water"	2019	12	18	2019-12-18T13:00			Cloudy	Asia	Japan	"Mouth of Riv. Sumida (Minato Ward), Tokyo"	35.66		139.7705556														"16.3 "	"15.9 "	"8.1 "	"6.1 "	"4,450 "			"1 "		"4 "	"Dark green"																			2022/6/2	2022/6/2
PRA000120	SAA008459	ST014				YokohamaCity_w3_2019	Water	"Sea water"	2019	11	27	2019-11-27T10:00			Rain	Asia	Japan	"Yokohama Port, Kanagawa"	35.45555556		139.6636111														"9.0 "	"16.5 "	"8.0 "	"6.8 "				"3 "		"5.5 "	Clear																			2022/6/2	2022/6/2
PRA000120	SAA008741	ST014				KawasakiCity_w2-2_2019	Water	"Sea water"	2019	11	27	2019-11-27T11:15			"Light rain"	Asia	Japan	"Keihin Canal, Kawasaki Port, Kanagawa (front of Ogimachi)"	35.49527778		139.7277778														"9.4 "	"17.2 "	"7.9 "	"7.3 "	"4,300 "			"6 "		"4.2 "	"Grayish green"																			2022/6/2	2022/6/2
PRA000120	SAA008463	ST015				Niigata_w2_2019	Water	"River water"	2019	12	4	2019-12-04T09:40			Rain	Asia	Japan	"Downstream of Riv. Shinano (Niigata City), Niigata"	37.88305556		139.0155556														"7.5 "	"8.0 "	"6.9 "	"11 "	"11 "			"30 "			"yellowish brown"																			2022/6/2	2022/6/2
PRA000120	SAA008742	ST015				Toyama_w2_2019	Water	"River water"	2019	12	10	2019-12-10T11:28			Fair	Asia	Japan	"Hagiura-bashi Bridge, Mouth of Riv. Jintsu (Toyama City), Toyama"	"36.745 "		"137.21805560 "														"15.5 "	"8.3 "	"7.5 "	"11 "	"42 "			"1 "			Clear																			2022/6/2	2022/6/2
PRA000120	SAA008743	ST015				Ishikawa_w1-2_2019	Water	"River water"	2019	10	23	2019-10-23T09:23			Fair	Asia	Japan	"Mouth of Riv. Sai (Kanazawa City), Ishikawa"	36.60027778		136.5888889														"21.9 "	"17.5 "	"7.3 "	"9.0 "	"110 "			"6 "			Green																			2022/6/2	2022/6/2
PRA000120	SAA008618	ST015				Fukui_w1_2019	Water	"River water"	2019	10	23	2019-10-23T10:50			Fair	Asia	Japan	"Mishima-bashi Bridge, Riv. Shono (Tsuruga City), Fukui"	35.6475		136.0627778														25.4	"22.5 "	"7.4 "	"9.4 "	8			"< 1.0"			Clear																			2022/6/2	2022/6/2
PRA000120	SAA008467	ST015				Nagano_w2_2019	Water	"Lake water"	2019	12	3	2019-12-03T09:30			Fair	Asia	Japan	"Center of Lake Suwa, Nagano"	36.05		138.0861111														"5.4 "	"8.0 "	"7.5 "	"9.6 "	"13 "			"3 "		"1.7 "	"Light yellow green"																			2022/6/2	2022/6/2
PRA000120	SAA008469	ST015				Shizuoka_w7_2019	Water	"River water"	2019	11	27	2019-11-27T10:30			Cloudy	Asia	Japan	"Kaketsuka-bashi Bridge, Riv. Tenryu (Iwata City), Shizuoka"	34.67888889		137.7958333														"17.5 "	"12.5 "	"7.6 "	"11 "	"13 "			"4 "			"Light white"																			2022/6/2	2022/6/2
PRA000120	SAA008744	ST014				Aichi_w2-2_2019	Water	"Sea water"	2019	12	11	2019-12-11T12:10			Fair	Asia	Japan	"Nagoya Port, West of Shiomi Wharf, Aichi"	35.07111111		136.8691667														"14.2 "	"16.6 "	"8.1 "	"8.4 "	"4,500 "			"2 "		"2.5 "	Clear																			2022/6/2	2022/6/2
PRA000120	SAA008474	ST014				Mie_w1_2019	Water	"Sea water"	2019	11	28	2019-11-28T10:10			Cloudy	Asia	Japan	"Yokkaichi Port, Mie"	34.94944444		136.6530556														"12.0 "	"17.0 "	"8.1 "	"7.2 "	"4,500 "			"2 "		"3.1 "	"Greenish brown"																			2022/6/2	2022/6/2
PRA000120	SAA008479	ST015				Shiga_w2-2_2019	Water	"Lake water"	2019	11	19	2019-11-19T09:50			Fair	Asia	Japan	"Lake Biwa (center, offshore of Karasaki), Shiga"	35.04611111		135.8955556														"18.7 "	"15.2 "	"8.0 "	"9.8 "	"13 "			"3 "		"3.0 "	"Yellow green"																			2022/6/2	2022/6/2
PRA000120	SAA008480	ST014				Kyoto_w1_2019	Water	"Sea water"	2020	1	8	2020-01-08T10:35			Cloudy	Asia	Japan	"Miyazu Port, Kyoto"	35.58305556		135.2138889														"17.0 "	"13.9 "	"8.5 "	"5.2 "				"2 "		"6.0 "	Clear																			2022/6/2	2022/6/2
PRA000120	SAA008482	ST015				KyotoCity_w1-1_2019	Water	"River water"	2019	11	28	2019-11-28T10:00			Cloudy	Asia	Japan	"Miyamae-bashi Bridge, Riv. Katsura (Kyoto City), Kyoto"	34.905		135.7125														"10.0 "	"15.2 "	"7.3 "	"9.0 "	"17 "			"4 "			Clear																			2022/6/2	2022/6/2
PRA000120	SAA008483	ST015				Osaka_w1_2019	Water	"River water"	2019	12	5	2019-12-05T09:38			Fair	Asia	Japan	"Mouth of Riv. Yamato (Sakai City), Osaka"	34.60833333		135.4325														"11.6 "	"12.5 "	"7.8 "	"8.1 "				"10 "		"1.5 "	"Light yellow"																			2022/6/2	2022/6/2
PRA000120	SAA008485	ST014				OsakaCity_w2_2019	Water	"Sea water"	2019	12	3	2019-12-03T08:11			Fair	Asia	Japan	"Osaka Port, Osaka"	34.65861111		135.4313889														"10.2 "	"13.8 "	"7.6 "	"8.1 "	"1,690 "			"2 "		"3.5 "	"Light grayish yellow"																			2022/6/2	2022/6/2
PRA000120	SAA008486	ST014				Hyogo_w3_2019	Water	"Sea water"	2019	11	13	2019-11-13T10:47			Fair	Asia	Japan	"Offshore of Himeji, Hyogo"	34.76194444		134.6697222														"17.4 "	"19.8 "	"8.3 "	"6.9 "	"2,300 "			"5 "		"8.0 "	"Dark green"																			2022/6/2	2022/6/2
PRA000120	SAA008487	ST014				Kobe_w1_2019	Water	"Sea water"	2019	12	10	2019-12-10T09:53			Fair	Asia	Japan	"Center of Kobe Port, Hyogo"	34.66444444		135.1944444														"15.2 "	"14.3 "	"7.6 "	"8.0 "				"1 "		"6.6 "	"Greenish brown"																			2022/6/2	2022/6/2
PRA000120	SAA008745	ST015				Wakayama_w1-2_2019	Water	"River water"	2019	10	31	2019-10-31T14:20			Fair	Asia	Japan	"Kinokawa-ohashi Bridge, Mouth of Riv. Kinokawa (Wakayama City), Wakayama"	34.23		135.1561111														"20.9 "	"19.2 "	"6.8 "	"8.2 "	"950 "			"7 "		"1.5 "	Green																			2022/6/2	2022/6/2
PRA000120	SAA008491	ST014				Okayama_w2_2019	Water	"Sea water"	2019	10	23	2019-10-23T10:35			Fair	Asia	Japan	"Offshore of Mizushima, Okayama"	34.48055556		133.665														"23.6 "	"22.0 "	"8.0 "	"6.7 "	"6,500 "			"6 "		"1.5 "	"Dark Yellow green"																			2022/6/2	2022/6/2
PRA000120	SAA008746	ST014				Hiroshima_w2_2019	Water	"Sea water"	2019	11	13	2019-11-13T09:58			Fair	Asia	Japan	"Kure Port, Hiroshima"	"34.23361111 "		"132.5391667 "														"17.2 "	"20.7 "	"8.1 "	"7.1 "				"1 "		"7.0 "	"Dark Bluish green"																			2022/6/2	2022/6/2
PRA000120	SAA008747	ST014				Hiroshima_w3_2019	Water	"Sea water"	2019	11	13	2019-11-13T12:23			Fair	Asia	Japan	"Hiroshima Bay (Hiroshima City), Hiroshima"	"34.34833333 "		"132.4225 "														"18.2 "	"21.0 "	"8.2 "	"7.9 "				"2 "		"5.0 "	"Dark Bluish green"																			2022/6/2	2022/6/2
PRA000120	SAA008492	ST014				Yamaguchi_w1-1_2019	Water	"Sea water"	2019	11	12	2019-11-12T12:25			Fair	Asia	Japan	"Tokuyama Bay, Yamaguchi"	33.99361111		131.7505556														"20.0 "	"22.4 "	"8.0 "	"5.9 "				"2 "		"7.0 "	"Bluish green"																			2022/6/2	2022/6/2
PRA000120	SAA008748	ST014				Yamaguchi_w3_2019	Water	"Sea water"	2019	11	13	2019-11-13T11:30			Fair	Asia	Japan	"Offshore of Ube, Yamaguchi"	33.915		131.1975														"20.9 "	"20.1 "	"8.2 "	"5.9 "				"2 "		"4.0 "	"Grayish green"																			2022/6/2	2022/6/2
PRA000120	SAA008494	ST014				Yamaguchi_w2-1_2019	Water	"Sea water"	2019	11	22	2019-11-22T11:20			Cloudy	Asia	Japan	"Offshore of Hagi, Yamaguchi"	34.43805556		131.3794444														"14.5 "	"19.5 "	"8.2 "	"7.0 "				"1 "		"15 "	"Bluish green"																			2022/6/2	2022/6/2
PRA000120	SAA008749	ST015				Tokushima_w1_2019	Water	"River water"	2019	11	12	2019-11-12T11:10			Fair	Asia	Japan	"Mouth of Riv. Yoshino (Tokushima City), Tokushima"	34.085		134.5913889														"21.0 "	"18.8 "	"8.0 "	"7.6 "	"3,900 "			"1 "		"3.2 "	Green																			2022/6/2	2022/6/2
PRA000120	SAA008497	ST014				Kagawa_w1_2019	Water	"Sea water"	2019	11	26	2019-11-26T08:55			Fair	Asia	Japan	"Takamatsu Port, Kagawa"	34.34972222		134.0788889														"13.4 "	"15.9 "	"8.1 "	"7.8 "				"7 "		"1.1 "	"Bluish green"																			2022/6/2	2022/6/2
PRA000120	SAA008750	ST015				Kochi_w2_2019	Water	"River water"	2019	10	15	2019-10-15T09:45			Fair	Asia	Japan	"Mouth of Riv. Shimanto (Shimanto City), Kochi"	32.93777778		132.8441667														"26.8 "	"22.2 "	"7.1 "	"8.4 "	"1,900 "			"4 "			Clear																			2022/6/2	2022/6/2
PRA000120	SAA008502	ST014				KitakyushuCity_w1_2019	Water	"Sea water"	2019	11	25	2019-11-25T09:30			Cloudy	Asia	Japan	"Dokai Bay (Kitakyushu City), Fukuoka"	33.90388889		130.8158333														"19.3 "	"17.8 "	"8.1 "	"7.7 "	"4,800 "			"3 "		"4.5 "	Clear																			2022/6/2	2022/6/2
PRA000120	SAA008504	ST014				Saga_w1_2019	Water	"Sea water"	2019	11	29	2019-11-29T10:40			Fair	Asia	Japan	"Imari Bay, Saga"	33.34		129.8208333														"13.0 "	"16.5 "	"8.5 "	"7.7 "	"4,200 "			"17 "		"2.5 "	Clear																			2022/6/2	2022/6/2
PRA000120	SAA008751	ST014				Nagasaki_w1_2019	Water	"Sea water"	2019	10	29	2019-10-29T10:42			Fair	Asia	Japan	"Omura Bay, Nagasaki"	32.98833333		129.8522222														"23.0 "	"22.6 "	"8.2 "	"7.2 "				"4 "		"7.6 "	"Light bluish green"																			2022/6/2	2022/6/2
PRA000120	SAA008752	ST015				Kumamoto_w1_2019	Water	"River water"	2019	10	24	2019-10-24T11:30			Cloudy	Asia	Japan	"Hiraki-bashi Bridge, Riv. Midori (Uto City), Kumamoto"	32.71638889		130.6422222														"23.8 "	"21.2 "	"7.0 "	"7.7 "	"530 "			"16 "			"Light Yellowish brown"																			2022/6/2	2022/6/2
PRA000120	SAA008753	ST015				Miyazaki_w3_2019	Water	"River water"	2019	10	15	2019-10-15T11:46			Fair	Asia	Japan	"Mouth of Riv. Oyodo (Miyazaki City), Miyazaki"	31.89611111		131.4402778														"26.5 "	"23.5 "	"7.6 "	"8.0 "	"980 "			"< 1"			Clear																			2022/6/2	2022/6/2
PRA000120	SAA008754	ST015				Kagoshima_w1_2019	Water	"River water"	2019	11	13	2019-11-13T11:44			Cloudy	Asia	Japan	"Shinkawa-bashi Bridge, Riv. Amori (Kirishima City), Kagoshima"	31.7225		130.7416667														"18.5 "	"18.5 "	"7.7 "	"9.5 "				"2 "			Clear																			2022/6/2	2022/6/2
PRA000120	SAA008755	ST015				Kagoshima_w2_2019	Water	"River water"	2019	11	11	2019-11-11T11:47			Fair	Asia	Japan	"Gotanda-bashi Bridge, Riv. Gotanda (Ichikikushikino City), Kagoshima"	31.72583333		130.2769444														"21.5 "	"18.2 "	"8.1 "	"10 "				"2 "			Clear																			2022/6/2	2022/6/2
PRA000120	SAA008621	ST014				Okinawa_w1_2019	Water	"Sea water"	2020	1	10	2020-01-10T11:40			Cloudy	Asia	Japan	"Naha Port, Okinawa"	26.21222222		127.665														22.4	22.5	"7.9 "	"4.3 "	"4,890 "			"20 "		1.5	Clear																			2022/6/2	2022/6/2
PRA000122	SAA009042	ST015				Hokkaido_w9_2020	Water	"River water"	2020	11	6	2020-11-06T11:25			Cloudy	Asia	Japan	"Inou-ohashi Bridge, Riv. Ishikari (Asahikawa City), Hokkaido"	43.76583333		142.275														12.7	7.1	8	11.2				6			Clear																			2022/10/17	2022/10/17
PRA000122	SAA009043	ST015				Hokkaido_w10_2020	Water	"River water"	2020	11	6	2020-11-06T11:50			Cloudy	Asia	Japan	"Osamunai-bashi Bridge, Riv. Ishikari (Fukagawa City), Hokkaido"	43.71805556		142.1355556														12.8	7.1	8.4	10.6				8			Clear																			2022/10/17	2022/10/17
PRA000122	SAA009044	ST015				Hokkaido_w3_2020	Water	"River water"	2020	11	24	2020-11-24T11:40			Cloudy	Asia	Japan	"Ishikarikakokyo Bridge, Mouth of Riv. Ishikari (Ishikari City), Hokkaido"	43.22861111		141.3519444														2.6	4.8	7.6	10.4	14			68			"Grayish brown"																			2022/10/17	2022/10/17
PRA000122	SAA009045	ST015				SapporoCity_w1_2020	Water	"River water"	2020	10	22	2020-10-22T10:30			Fair	Asia	Japan	"Nakanuma of Riv. Toyohira (Sapporo City), Hokkaido"	43.14083333		141.4530556														21	15.5	7.3	9.4	29			6			"Light yellow"																			2022/10/17	2022/10/17
PRA000122	SAA009046	ST015				SapporoCity_w2-1_2020	Water	"River water"	2020	10	22	2020-10-22T13:05			Fair	Asia	Japan	"Daiichishinkawa-bashi Bridge, Riv. Shin (Sapporo City), Hokkaido"	43.15194444		141.2377778														20	16.3	7.1	6.9	190			5			"Light yellow"																			2022/10/17	2022/10/17
PRA000122	SAA009047	ST015				Iwate_w1-1_2020	Water	"River water"	2020	11	4	2020-11-04T10:22			Cloudy	Asia	Japan	"Toyosawa-bashi Bridge, Riv. Toyosawa (Hanamaki City), Iwate"	39.38166667		141.1191667														8	10	7.3	11	10			<1			"Light green"																			2022/10/17	2022/10/17
PRA000122	SAA009048	ST015				Miyagi_w1_2020	Water	"River water"	2020	10	27	2020-10-27T13:50			Fair	Asia	Japan	"Futatsuya-bashi Bridge, Riv. Hasama (Tome City), Miyagi"	38.57138889		141.2136111														18.5	18.7	7.7	10	19			2			"Light yellow"																			2022/10/17	2022/10/17
PRA000122	SAA009049	ST015				Miyagi_w2_2020	Water	"River water"	2020	10	27	2020-10-27T10:10			Fair	Asia	Japan	"Sakura-hodoukyou Bridge, Riv. Shiroishi (Shibata Town), Miyagi"	38.06083333		140.7677778														16.5	13.7	7.7	10	15			1			Clear																			2022/10/17	2022/10/17
PRA000122	SAA009050	ST015				Akita_w1_2020	Water	"River water"	2020	10	20	2020-10-20T10:06			Fair	Asia	Japan	"Akita Canal (Akita City), Akita"	39.75083333		140.0586111														17.2	16.2	7.5	6.9	1200			4		2.9	"Dark yellow green"																			2022/10/17	2022/10/17
PRA000122	SAA009051	ST015				Yamagata_w2_2020	Water	"River water"	2020	11	26	2020-11-26T10:45			Cloudy	Asia	Japan	"Tozawa-bashi Bridge, Riv. Sake (Tozawa Village), Yamagata"	38.7525		140.2002778														9.4	9.5	7.9	11	8.4			1			Clear																			2022/10/17	2022/10/17
PRA000122	SAA009052	ST015				Yamagata_w5_2020	Water	"River water"	2020	11	26	2020-11-26T09:20			Cloudy	Asia	Japan	"Goten-bashi Bridge, Riv. Mogami (Murayama City), Yamagata"	38.48138889		140.3472222														6.8	9.6	7.6	11	14			5			"Light yellow"																			2022/10/17	2022/10/17
PRA000122	SAA009053	ST015				Ibaraki_w2_2020	Water	"River water"	2020	11	12	2020-11-12T10:10			Cloudy	Asia	Japan	"Kamome-ohasi Bridge, Mouth of Riv. Tone (Kamisu City), Ibaraki"	35.77638889		140.7569444														14	15	7.9	8.5	1500			6		1.4	"Light yellow"																			2022/10/17	2022/10/17
PRA000122	SAA009054	ST015				Tochigi_w1-1_2020	Water	"River water"	2020	10	27	2020-10-27T10:20			Fair	Asia	Japan	"Tagawa area-Toshuko Weir (Utsunomiya City), Tochigi"	36.52805556		139.8855556														17.3	16	8.3	11	19			4			Clear																			2022/10/17	2022/10/17
PRA000122	SAA009055	ST015				Tochigi_w1-2_2020	Water	"River water"	2020	12	15	2020-12-15T09:28			Fair	Asia	Japan	"Tagawa area-Toshuko Weir (Utsunomiya City), Tochigi"	36.52805556		139.8855556														6	5	7.6	12	22			4			Clear																			2022/10/17	2022/10/17
PRA000122	SAA009056	ST015				Gunma_w9_2020	Water	"River water"	2020	10	30	2020-10-30T13:30			Fair	Asia	Japan	"Kezouji-bashi Bridge, Riv. Kasu (Isezaki City), Gunma"	36.33944444		139.2013889														19	15.8	8.5	11.3	32			5			Clear																			2022/10/17	2022/10/17
PRA000122	SAA009057	ST015				Saitama_w2_2020	Water	"River water"	2020	11	4	2020-11-04T10:30			Fair	Asia	Japan	"Akigase-Shusuizeki Weir, Riv. Ara (Shiki City), Saitama"	35.84055556		139.6044444														15.1	14.4	7.9	9.7	25			3			"Light yellow green"																			2022/10/17	2022/10/17
PRA000122	SAA009058	ST015				SaitamaCity_w1-1_2020	Water	"River water"	2020	11	6	2020-11-06T11:00			Cloudy	Asia	Japan	"Nakadote-bashi Bridge, Riv. Kamo (Saitama City), Saitama"	35.855		139.6077778														12.8	11.5	7.6	7.8	34			7			Brown																			2022/10/17	2022/10/31
PRA000122	SAA009059	ST015				Chiba_w1_2020	Water	"River water"	2020	10	21	2020-10-21T09:40			Fair	Asia	Japan	"Asai-bashi Bridge, Riv. Yourou (Ichihara City), Chiba"	35.46722222		140.1155556														17.5	17.5	7.8	9.2				11			"Greenish brown"																			2022/10/17	2022/10/17
PRA000122	SAA009060	ST014				Chiba_w2_2020	Water	"Sea water"	2020	10	27	2020-10-27T10:10			Cloudy	Asia	Japan	"Ichihara-Anesaki Coast, Chiba"	35.52166667		140.0283333														17.4	19.1	7.6	8.3	4200			1		4.7	"Dark green"																			2022/10/17	2022/10/17
PRA000122	SAA009061	ST015				Tokyo_w1_2020	Water	"River water"	2020	11	20	2020-11-20T09:50			Cloudy	Asia	Japan	"Mouth of Riv. Arakawa (Koto Ward), Tokyo"	35.64583333		139.8463889														22.8	18.4	7.4	9.2	4300			12		1	"Greenish brown"																			2022/10/17	2022/10/17
PRA000122	SAA009062	ST015				Tokyo_w2_2020	Water	"River water"	2020	11	20	2020-11-20T11:50			Cloudy	Asia	Japan	"Mouth of Riv. Sumida (Minato Ward), Tokyo"	35.66		139.7705556														22.5	19.2	7.5	8	4200			4		4.1	"Dark green"																			2022/10/17	2022/10/17
PRA000122	SAA009063	ST015				YokohamaCity_w1_2020	Water	"River water"	2020	11	26	2020-11-26T09:24			Fair	Asia	Japan	"Kamenoko-bashi Bridge, Riv. Tsurumi (Yokohama City), Kanagawa"	35.514622		139.607871														13.9	18.9	7.3	8.2	35			2			Clear																			2022/10/17	2022/10/17
PRA000122	SAA009064	ST014				YokohamaCity_w3_2020	Water	"Sea water"	2020	11	18	2020-11-18T10:18			Fair	Asia	Japan	"Yokohama Port, Kanagawa"	35.45555556		139.6636111														15.5	19	8.3	8	4500			3		5	Clear																			2022/10/17	2022/10/17
PRA000122	SAA009065	ST015				YokohamaCity_w4_2020	Water	"River water"	2020	11	26	2020-11-26T11:25			Fair	Asia	Japan	"Yoshikura-bashi Bridge, Riv. Kashio (Yokohama City), Kanagawa"	35.40027778		139.5352778														12.2	15.9	8.3	13.3	36			7			Clear																			2022/10/17	2022/10/17
PRA000122	SAA009066	ST015				Niigata_w2_2020	Water	"River water"	2020	11	19	2020-11-19T09:30			Fair	Asia	Japan	"Downstream of Riv. Shinano (Niigata City), Niigata"	37.88305556		139.0155556														17.2	11.5	7.4	10	13			13			"Light yellow"																			2022/10/17	2022/10/17
PRA000122	SAA009067	ST015				Ishikawa_w1_2020	Water	"River water"	2020	11	6	2020-11-06T09:37			Cloudy	Asia	Japan	"Mouth of Riv. Sai (Kanazawa City), Ishikawa"	36.60027778		136.5888889														17.1	12.8	7	9.2	220			4			"Yellow green"																			2022/10/17	2022/10/17
PRA000122	SAA009068	ST015				Fukui_w1_2020	Water	"River water"	2020	10	22	2020-10-22T10:00			Cloudy	Asia	Japan	"Mishima-bashi Bridge, Riv. Shono (Tsuruga City), Fukui"	35.6475		136.0627778														19.5	17	7.4	9.7	8.5			<1			Clear																			2022/10/17	2022/10/17
PRA000122	SAA009069	ST015				Nagano_w2_2020	Water	"Lake water"	2020	10	19	2020-10-19T10:16			Cloudy	Asia	Japan	"Center of Lake Suwa, Nagano"	36.05		138.0861111														11.4	14.1	7.8	9.5	13			10		0.9	"Light yellow green"																			2022/10/17	2022/10/17
PRA000122	SAA009070	ST014				Shizuoka_w2_2020	Water	"Sea water"	2020	10	22	2020-10-22T10:25			Cloudy	Asia	Japan	"Shimizu Port, Shizuoka"	35.02416667		138.5161111														21.3	20.1	7.3	7.7	4600			4		3	Clear																			2022/10/17	2022/10/17
PRA000122	SAA009071	ST015				Shizuoka_w7_2020	Water	"River water"	2020	11	12	2020-11-12T11:00			Fair	Asia	Japan	"Kaketsuka-bashi Bridge, Riv. Tenryu (Iwata City), Shizuoka"	34.67888889		137.7958333														21.7	13.5	8.2	11	14			4			"Pale white"																			2022/10/17	2022/10/17
PRA000122	SAA009072	ST014				Aichi_w3_2020	Water	"Sea water"	2020	11	10	2020-11-10T10:25			Fair	Asia	Japan	"Kinuura Port, Aichi"	34.84166667		136.9486111														13.7	18	8.1	8.5	4700			1		4	Clear																			2022/10/17	2022/10/17
PRA000122	SAA009073	ST014				Aichi_w2-1_2020	Water	"Sea water"	2020	11	10	2020-11-10T13:38			Fair	Asia	Japan	"Nagoya Port, West of Shiomi Wharf, Aichi"	35.07111111		136.8691667														14.4	20	7.9	6.8	4500			2		2.5	Clear																			2022/10/17	2022/12/13
PRA000122	SAA009074	ST015				NagoyaCity_w5_2020	Water	"River water"	2020	10	29	2020-10-29T09:23			Fair	Asia	Japan	"Hinode-bashi Bridge, Riv. Shinhori (Nagoya City), Aichi"	35.12611111		136.9172222														16	21.7	7.1	2				1			Brown																			2022/10/17	2022/10/17
PRA000122	SAA009075	ST015				NagoyaCity_w1_2020	Water	"River water"	2020	10	29	2020-10-29T09:50			Fair	Asia	Japan	"Minatoshinbashi Bridge, Riv. Hori (Nagoya City), Aichi"	35.09805556		136.8925														19	21.8	7.2	2.3				3		2.1	Brown																			2022/10/17	2022/10/17
PRA000122	SAA009076	ST014				NagoyaCity_w3_2020	Water	"Sea water"	2020	10	29	2020-10-29T12:00			Fair	Asia	Japan	"Nagoya Port, South of Shiomi Wharf, Aichi"	35.04944444		136.8661111														19.8	22.7	8	4.5				5		2.3	"Greenish brown"																			2022/10/17	2022/10/17
PRA000122	SAA009077	ST014				Mie_w1_2020	Water	"Sea water"	2020	10	28	2020-10-28T10:15			Cloudy	Asia	Japan	"Yokkaichi Port, Mie"	34.94944444		136.6530556														18.1	18.5	8.6	12.4	3800			5		1.5	"Greenish brown"																			2022/10/17	2022/10/17
PRA000122	SAA009078	ST014				Mie_w2_2020	Water	"Sea water"	2020	10	20	2020-10-20T10:55			Fair	Asia	Japan	"Toba Port, Mie"	34.48083333		136.8486111														20.1	21.7	8.2	6.7	4400			3		2	"Yellow green"																			2022/10/17	2022/10/17
PRA000122	SAA009079	ST015				Shiga_w1-1_2020	Water	"Lake water"	2020	11	18	2020-11-18T09:15			Fair	Asia	Japan	"Lake Biwa (center, offshore of Minamihira), Shiga"	35.18527778		135.9733333														19.2	16	8	10	12			1		7.6	"Greenish blue"																			2022/10/17	2022/10/17
PRA000122	SAA009080	ST015				Shiga_w2-1_2020	Water	"Lake water"	2020	11	18	2020-11-18T10:00			Fair	Asia	Japan	"Lake Biwa (center, offshore of Karasaki), Shiga"	35.04611111		135.8955556														17.1	15	7.8	9.7	12			2		2.7	"Yellow green"																			2022/10/17	2022/10/17
PRA000122	SAA009081	ST015				KyotoCity_w1_2020	Water	"River water"	2020	10	28	2020-10-28T10:00			Cloudy	Asia	Japan	"Miyamae-bashi Bridge, Riv. Katsura (Kyoto City), Kyoto"	34.905		135.7125														17.5	18.5	7.4	9.1	19			1			Clear																			2022/10/17	2022/10/17
PRA000122	SAA009082	ST015				Osaka_w1_2020	Water	"River water"	2020	11	25	2020-11-25T09:00			Fair	Asia	Japan	"Mouth of Riv. Yamato (Sakai City), Osaka"	34.60833333		135.4325														13.7	15.7	7.7	7.7				2		1.3	"Light yellow"																			2022/10/17	2022/10/17
PRA000122	SAA009083	ST015				OsakaCity_w1_2020	Water	"River water"	2020	10	28	2020-10-28T10:28			Fair	Asia	Japan	"Kema-bashi Bridge, Riv. Oh-kawa (Osaka City), Osaka"	34.72		135.5186111														18.6	17.7	7.5	9.3	14			5			"Light grayish yellow"																			2022/10/17	2022/10/17
PRA000122	SAA009084	ST014				OsakaCity_w2_2020	Water	"Sea water"	2020	10	27	2020-10-27T08:06			Fair	Asia	Japan	"Osaka Port, Osaka"	34.65861111		135.4313889														17	19	7.6	6	1900			2		2.7	"Light grayish yellow"																			2022/10/17	2022/10/17
PRA000122	SAA009085	ST014				Hyogo_w7_2020	Water	"Sea water"	2020	10	28	2020-10-28T10:00			Fair	Asia	Japan	"Port entrance of Takasago-nishi Port, Hyogo"	34.73777778		134.7852778														20.1	21.4	8.2	7.4	4400			14		3.5	"Yellow green"																			2022/10/17	2022/10/17
PRA000122	SAA009086	ST014				Hyogo_w3_2020	Water	"Sea water"	2020	10	28	2020-10-28T10:30			Fair	Asia	Japan	"Offshore of Himeji, Hyogo"	34.76194444		134.6697222														19.7	21.6	8.1	7.1	4400			4		4	"Greenish blue"																			2022/10/17	2022/10/17
PRA000122	SAA009087	ST014				Hyogo_w9_2020	Water	"Sea water"	2020	10	28	2020-10-28T11:50			Fair	Asia	Japan	"Inside Shikama Port, Hyogo"	34.77777778		134.6488889														21	23.3	8.7	7.1	4100			4		2.4	"Red purple"																			2022/10/17	2022/10/17
PRA000122	SAA009088	ST014				Kobe_w1_2020	Water	"Sea water"	2020	11	17	2020-11-17T09:50			Fair	Asia	Japan	"Center of Kobe Port, Hyogo"	34.66444444		135.1944444														19	18.5	7.8	7.3				1		5.7	"Greenish brown"																			2022/10/17	2022/10/17
PRA000122	SAA009089	ST015				Nara_w1_2020	Water	"River water"	2020	10	21	2020-10-21T10:22			Fair	Asia	Japan	"Taisho-bashi Bridge, Riv. Yamato (Oji town), Nara"	34.58583333		135.6833333														18.5	18.8	7.6	8.2	29			10			"Light yellowish green"																			2022/10/17	2022/10/17
PRA000122	SAA009090	ST015				Wakayama_w1_2020	Water	"River water"	2020	11	6	2020-11-06T14:15			Fair	Asia	Japan	"Kinokawa-ohashi Bridge, Mouth of Riv. Kinokawa (Wakayama City), Wakayama"	34.23		135.1561111														20.5	20	7.3	9	1800			3		2	"Greenish yellow"																			2022/10/17	2022/10/17
PRA000122	SAA009091	ST015				Wakayama_w9_2020	Water	"River water"	2020	11	5	2020-11-05T11:00			Fair	Asia	Japan	"Noguchi-bashi Bridge, Riv. Hidaka (Gobou City), Wakayama"	33.90388889		135.1761111														17.3	17.2	7	10	7			3			"Light green"																			2022/10/17	2022/10/17
PRA000122	SAA009092	ST015				Okayama_w1_2020	Water	"River water"	2020	11	10	2020-11-10T09:45			Cloudy	Asia	Japan	"Sasagase-bashi Bridge, Riv. Sasagase (Okayama City), Okayama"	34.61916667		133.9061111														11	14.5	7.5	7.8	28			6			"Dark yellow green"																			2022/10/17	2022/10/17
PRA000122	SAA009093	ST014				Okayama_w2_2020	Water	"Sea water"	2020	10	26	2020-10-26T10:23			Fair	Asia	Japan	"Offshore of Mizushima, Okayama"	34.48055556		133.665														22.5	21.2	8.1	7.8	4300			<5		3	"Dark yellow green"																			2022/10/17	2022/10/17
PRA000122	SAA009094	ST014				Yamaguchi_w1-1_2020	Water	"Sea water"	2020	11	18	2020-11-18T10:26			Fair	Asia	Japan	"Tokuyama Bay, Yamaguchi"	33.99361111		131.7505556														21.6	20	8.1	7.7				1		6.5	"Bluish green"																			2022/10/17	2022/10/17
PRA000122	SAA009095	ST014				Yamaguchi_w1-2_2020	Water	"Sea water"	2020	10	26	2020-10-26T10:30			Fair	Asia	Japan	"Tokuyama Bay, Yamaguchi"	33.99361111		131.7505556														23	23	8.2	6.7				3		4.5	"Bluish green"																			2022/10/17	2022/10/17
PRA000122	SAA009096	ST014				Yamaguchi_w2-1_2020	Water	"Sea water"	2020	11	25	2020-11-25T10:45			Cloudy	Asia	Japan	"Offshore of Hagi, Yamaguchi"	34.43805556		131.3794444														14.5	19	8.2	7.5				1		15	"Bluish green"																			2022/10/17	2022/10/17
PRA000122	SAA009097	ST014				Yamaguchi_w2-2_2020	Water	"Sea water"	2020	11	13	2020-11-13T11:15			Fair	Asia	Japan	"Offshore of Hagi, Yamaguchi"	34.43805556		131.3794444														19	20	8.2	7.5				5		15	"Bluish green"																			2022/10/17	2022/10/17
PRA000122	SAA009098	ST014				Kagawa_w1_2020	Water	"Sea water"	2020	10	27	2020-10-27T09:00			Fair	Asia	Japan	"Takamatsu Port, Kagawa"	34.34972222		134.0788889														17.3	20.6	7.6	5.7				3		1	"Greenish blue"																			2022/10/17	2022/10/17
PRA000122	SAA009099	ST014				Ehime_w2_2020	Water	"Sea water"	2020	10	27	2020-10-27T10:55			Fair	Asia	Japan	"Sawazu Fishing Port, Ehime"	33.98388889		133.2911111														21.6	22.1	8	7.4	4300			3		5	"Light yellow green"																			2022/10/17	2022/10/17
PRA000122	SAA009100	ST015				Ehime_w3_2020	Water	"River water"	2020	10	29	2020-10-29T11:45			Fair	Asia	Japan	"Mishima, Riv. Iwamatsu, Uwajima Ciy, Ehime"	33.12777778		132.5355556														23.8	21	7.4	10.9	9.5			<1			Clear																			2022/10/17	2022/10/17
PRA000122	SAA009101	ST015				Fukuoka_w1_2020	Water	"River water"	2020	10	28	2020-10-28T13:30			Cloudy	Asia	Japan	"Kabura-bashi Bridge, Riv. Raizan (Itoshima City), Fukuoka"	33.565		130.1902778														18.5	18.3	7.4	8	27			17			"Light yellowish brown"																			2022/10/17	2022/10/17
PRA000122	SAA009102	ST014				Fukuoka_w2_2020	Water	"Sea water"	2020	10	19	2020-10-19T10:40			Cloudy	Asia	Japan	"Offshore of Omuta, Fukuoka"	33.03472222		130.4113889														21.7	21.4	7.9	6.7	4700			7		1.8	"Light greenish brown"																			2022/10/17	2022/10/17
PRA000122	SAA009103	ST014				KitakyushuCity_w1_2020	Water	"Sea water"	2020	11	18	2020-11-18T09:15			Fair	Asia	Japan	"Dokai Bay (Kitakyushu City), Fukuoka"	33.90388889		130.8158333														19	18	8.1	7.8	4600			<1		3.5	Clear																			2022/10/17	2022/10/17
PRA000122	SAA009104	ST014				FukuokaCity_w1_2020	Water	"Sea water"	2020	10	20	2020-10-20T08:47			Fair	Asia	Japan	"Hakata Bay, Fukuoka"	33.60833333		130.3297222														19.5	21.5	8	6.8	4600			3		1.9	"Dark green"																			2022/10/17	2022/10/17
PRA000122	SAA009105	ST014				Saga_w1_2020	Water	"Sea water"	2020	10	28	2020-10-28T10:23			Cloudy	Asia	Japan	"Imari Bay, Saga"	33.34		129.8208333														15	22	8.4	5.1	4300			14		3.3	Clear																			2022/10/17	2022/10/17
PRA000122	SAA009106	ST015				Oita_w2_2020	Water	"River water"	2020	10	26	2020-10-26T10:20			Fair	Asia	Japan	"Mouth of Riv. Oita, Oita"	33.25722222		131.6175														19.9	18.6	7.7	8	1500			2			"Grayish green"																			2022/10/17	2022/10/17
PRA000122	SAA009107	ST015				Miyazaki_w8_2020	Water	"River water"	2020	11	13	2020-11-13T11:43			Fair	Asia	Japan	"Kamesawa-bashi Bridge, Riv. Sendai (Ebino City), Miyazaki"	32.04		130.7538889														21.5	16.2	7.6	9.6	11			<1			Clear																			2022/10/17	2022/10/17
PRA000122	SAA009108	ST015				Miyazaki_w9_2020	Water	"River water"	2020	11	13	2020-11-13T11:40			Fair	Asia	Japan	"Shiiki-bashi Bridge, Riv. Takasaki (Miyakonojo City, Takaharu Town), Miyazaki"	31.85777778		131.0877778														24.5	17.5	7.7	9.4	19			2			Clear																			2022/10/17	2022/10/17
PRA000122	SAA009109	ST015				Miyazaki_w10_2020	Water	"River water"	2020	11	13	2020-11-13T10:55			Fair	Asia	Japan	"Hiwatashi-bashi Bridge, Riv. Oyodo (Miyakonojo City), Miyazaki"	31.86		131.1133333														21	16.9	7.6	8.9	17			4			"Light brown"																			2022/10/17	2022/10/17
PRA000122	SAA009110	ST014				Okinawa_w1_2020	Water	"Sea water"	2020	10	14	2020-10-14T11:20			Fair	Asia	Japan	"Naha Port, Okinawa"	26.21222222		127.665														27.3	27.3	7.6	6.3	4500			10		1.2	Clear																			2022/10/17	2022/10/17
PRA000122	SAA009111	ST015				Okinawa_w3_2020	Water	"River water"	2020	10	16	2020-10-16T11:20			Fair	Asia	Japan	"Maekawa-bashi Bridge, Riv. Yuhi (Nanjo City), Okinawa"	26.13555556		127.7511111														31.5	26.4	7.6	8.2	78			10			"Light brown"																			2022/10/17	2022/10/17
PRA000123	SAA009044	ST015				Hokkaido_w3_2020	Water	"River water"	2020	11	24	2020-11-24T11:40			Cloudy	Asia	Japan	"Ishikarikakokyo Bridge, Mouth of Riv. Ishikari (Ishikari City), Hokkaido"	43.22861111		141.3519444														2.6	4.8	7.6	10.4	14			68			"Grayish brown"																			2022/11/25	2022/11/25
PRA000123	SAA009045	ST015				SapporoCity_w1_2020	Water	"River water"	2020	10	22	2020-10-22T10:30			Fair	Asia	Japan	"Nakanuma of Riv. Toyohira (Sapporo City), Hokkaido"	43.14083333		141.4530556														21	15.5	7.3	9.4	29			6			"Light yellow"																			2022/11/25	2022/11/25
PRA000123	SAA009046	ST015				SapporoCity_w2-1_2020	Water	"River water"	2020	10	22	2020-10-22T13:05			Fair	Asia	Japan	"Daiichishinkawa-bashi Bridge, Riv. Shin (Sapporo City), Hokkaido"	43.15194444		141.2377778														20	16.3	7.1	6.9	190			5			"Light yellow"																			2022/11/25	2022/11/25
PRA000123	SAA009047	ST015				Iwate_w1-1_2020	Water	"River water"	2020	11	4	2020-11-04T10:22			Cloudy	Asia	Japan	"Toyosawa-bashi Bridge, Riv. Toyosawa (Hanamaki City), Iwate"	39.38166667		141.1191667														8	10	7.3	11	10			<1			"Light green"																			2022/11/25	2022/11/25
PRA000123	SAA009048	ST015				Miyagi_w1_2020	Water	"River water"	2020	10	27	2020-10-27T13:50			Fair	Asia	Japan	"Futatsuya-bashi Bridge, Riv. Hasama (Tome City), Miyagi"	38.57138889		141.2136111														18.5	18.7	7.7	10	19			2			"Light yellow"																			2022/11/25	2022/11/25
PRA000123	SAA009049	ST015				Miyagi_w2_2020	Water	"River water"	2020	10	27	2020-10-27T10:10			Fair	Asia	Japan	"Sakura-hodoukyou Bridge, Riv. Shiroishi (Shibata Town), Miyagi"	38.06083333		140.7677778														16.5	13.7	7.7	10	15			1			Clear																			2022/11/25	2022/11/25
PRA000123	SAA009235	ST015				Sendai_w1_2020	Water	"River water"	2020	11	10	2020-11-10T10:00			Fair	Asia	Japan	"Hirose-ohashi Bridge, Riv. Hirose (Sendai City), Miyagi"	38.21333333		140.9088889														7	10.2	7.5	9.9	23			<1			Clear																			2022/11/25	2022/11/25
PRA000123	SAA009050	ST015				Akita_w1_2020	Water	"River water"	2020	10	20	2020-10-20T10:06			Fair	Asia	Japan	"Akita Canal (Akita City), Akita"	39.75083333		140.0586111														17.2	16.2	7.5	6.9	1200			4		2.9	"Dark yellow green"																			2022/11/25	2022/11/25
PRA000123	SAA009236	ST015				Fukushima_w3_2020	Water	"River water"	2020	10	14	2020-10-14T11:20			Fair	Asia	Japan	"Confluence of Riv. Nigori and Riv. Omori (Fukushima City), Fukushima"	37.73972222		140.4666667														26.8	18.5	7.6	9.9	14			16			"Yellowish brown_Light"																			2022/11/25	2022/11/25
PRA000123	SAA009053	ST015				Ibaraki_w2_2020	Water	"River water"	2020	11	12	2020-11-12T10:10			Cloudy	Asia	Japan	"Kamome-ohasi Bridge, Mouth of Riv. Tone (Kamisu City), Ibaraki"	35.77638889		140.7569444														14	15	7.9	8.5	1500			6		1.4	"Light yellow"																			2022/11/25	2022/11/25
PRA000123	SAA009054	ST015				Tochigi_w1-1_2020	Water	"River water"	2020	10	27	2020-10-27T10:20			Fair	Asia	Japan	"Tagawa area-Toshuko Weir (Utsunomiya City), Tochigi"	36.52805556		139.8855556														17.3	16	8.3	11	19			4			Clear																			2022/11/25	2022/11/25
PRA000123	SAA009237	ST015				Tochigi_w1-3_2020	Water	"River water"	2021	1	19	2021-01-19T10:28			Fair	Asia	Japan	"Tagawa area-Toshuko Weir (Utsunomiya City), Tochigi"	36.52805556		139.8855556														4	4.5	7.6	12	28			6			Clear																			2022/11/25	2022/11/25
PRA000123	SAA009238	ST015				Gunma_w3_2020	Water	"River water"	2020	10	30	2020-10-30T10:35			Fair	Asia	Japan	"Ainokawa-bashi Bridge, Riv. Yata (Itakura Town), Gunma"	36.21194444		139.6508333														18	17.1	7.6	8.8	45			14			Brown																			2022/11/25	2022/11/25
PRA000123	SAA009239	ST015				Gunma_w10_2020	Water	"River water"	2020	10	30	2020-10-30T11:50			Fair	Asia	Japan	" Furutone-bashi Bridge, Riv. Ishida (Ota City), Gunma"	36.24333333		139.3788889														18	17	7.8	11.6	48			6			Brown																			2022/11/25	2022/11/25
PRA000123	SAA009240	ST015				Gunma_w11_2020	Water	"River water"	2020	10	30	2020-10-30T14:10			Fair	Asia	Japan	"Seinai-bashi Bridge, Riv. Nira (Maebashi City), Gunma"	36.33972222		139.1366667														17.2	14.4	7.5	10.5	21			4			Clear																			2022/11/25	2022/11/25
PRA000123	SAA009241	ST015				Saitama_w1_2020	Water	"River water"	2020	11	4	2020-11-04T13:02			Fair	Asia	Japan	"Dou-hashi Bridge, Riv. Naka (Kazo City), Saitama"	36.13638889		139.645														17.9	15.3	7.9	10.6	40			9			"Yellow green_Light"																			2022/11/25	2022/11/25
PRA000123	SAA009242	ST015				Saitama_w9_2020	Water	"River water"	2020	11	4	2020-11-04T12:07			Fair	Asia	Japan	"Matsutomi-bashi Bridge, Riv. Naka (Kasukabe City), Saitama"	36.00444444		139.7808333														16.9	15.8	7.8	8.7	38			30			"Yellow green_Light"																			2022/11/25	2022/11/25
PRA000123	SAA009243	ST015				Saitama_w10_2020	Water	"River water"	2020	11	4	2020-11-04T12:40			Fair	Asia	Japan	"Ronsho-bashi Bridge, Riv. Touemon (Kawaguchi City), Saitama"	35.85		139.7066667														17.9	17.5	7.8	7.8	31			<1			Yellow_Light																			2022/11/25	2022/11/25
PRA000123	SAA009057	ST015				Saitama_w2_2020	Water	"River water"	2020	11	4	2020-11-04T10:30			Fair	Asia	Japan	"Akigase-Shusuizeki Weir, Riv. Ara (Shiki City), Saitama"	35.84055556		139.6044444														15.1	14.4	7.9	9.7	25			3			"Light yellow green"																			2022/11/25	2022/11/25
PRA000123	SAA009244	ST015				SaitamaCity_w1-2_2020	Water	"River water"	2020	12	1	2020-12-01T10:35			Fair	Asia	Japan	"Nakadote-bashi Bridge, Riv. Kamo (Saitama City), Saitama"	35.855		139.6077778														11.2	11.5	7.5	7.3	40			14			"Grayish yellow"																			2022/11/25	2022/11/25
PRA000123	SAA009058	ST015				SaitamaCity_w1-1_2020	Water	"River water"	2020	11	6	2020-11-06T11:00			Cloudy	Asia	Japan	"Nakadote-bashi Bridge, Riv. Kamo (Saitama City), Saitama"	35.855		139.6077778														12.8	11.5	7.6	7.8	34			7			Brown																			2022/11/25	2022/11/25
PRA000123	SAA009059	ST015				Chiba_w1_2020	Water	"River water"	2020	10	21	2020-10-21T09:40			Fair	Asia	Japan	"Asai-bashi Bridge, Riv. Yourou (Ichihara City), Chiba"	35.46722222		140.1155556														17.5	17.5	7.8	9.2				11			"Greenish brown"																			2022/11/25	2022/11/25
PRA000123	SAA009060	ST014				Chiba_w2_2020	Water	"Sea water"	2020	10	27	2020-10-27T10:10			Cloudy	Asia	Japan	"Ichihara-Anesaki Coast, Chiba"	35.52166667		140.0283333														17.4	19.1	7.6	8.3	4200			1		4.7	"Dark green"																			2022/11/25	2022/11/25
PRA000123	SAA009061	ST015				Tokyo_w1_2020	Water	"River water"	2020	11	20	2020-11-20T09:50			Cloudy	Asia	Japan	"Mouth of Riv. Arakawa (Koto Ward), Tokyo"	35.64583333		139.8463889														22.8	18.4	7.4	9.2	4300			12		1	"Greenish brown"																			2022/11/25	2022/11/25
PRA000123	SAA009062	ST015				Tokyo_w2_2020	Water	"River water"	2020	11	20	2020-11-20T11:50			Cloudy	Asia	Japan	"Mouth of Riv. Sumida (Minato Ward), Tokyo"	35.66		139.7705556														22.5	19.2	7.5	8	4200			4		4.1	"Dark green"																			2022/11/25	2022/11/25
PRA000123	SAA009063	ST015				YokohamaCity_w1_2020	Water	"River water"	2020	11	26	2020-11-26T09:24			Fair	Asia	Japan	"Kamenoko-bashi Bridge, Riv. Tsurumi (Yokohama City), Kanagawa"	35.514622		139.607871														13.9	18.9	7.3	8.2	35			2			Clear																			2022/11/25	2022/11/25
PRA000123	SAA009064	ST014				YokohamaCity_w3_2020	Water	"Sea water"	2020	11	18	2020-11-18T10:18			Fair	Asia	Japan	"Yokohama Port, Kanagawa"	35.45555556		139.6636111														15.5	19	8.3	8	4500			3		5	Clear																			2022/11/25	2022/11/25
PRA000123	SAA009065	ST015				YokohamaCity_w4_2020	Water	"River water"	2020	11	26	2020-11-26T11:25			Fair	Asia	Japan	"Yoshikura-bashi Bridge, Riv. Kashio (Yokohama City), Kanagawa"	35.40027778		139.5352778														12.2	15.9	8.3	13.3	36			7			Clear																			2022/11/25	2022/11/25
PRA000123	SAA009066	ST015				Niigata_w2_2020	Water	"River water"	2020	11	19	2020-11-19T09:30			Fair	Asia	Japan	"Downstream of Riv. Shinano (Niigata City), Niigata"	37.88305556		139.0155556														17.2	11.5	7.4	10	13			13			"Light yellow"																			2022/11/25	2022/11/25
PRA000123	SAA009245	ST014				Niigata_w5_2020	Water	"Sea water"	2020	8	11	2020-08-11T09:14			Fair	Asia	Japan	"Offshore of Nishikubiki (front of Teraji), Niigata"	37.03305556		137.8030556														28	28	8.3	8.1	4,200			3		4	Clear																			2022/11/25	2022/11/25
PRA000123	SAA009246	ST015				Toyama_w5_2020	Water	"River water"	2020	10	15	2020-10-15T10:46			Cloudy	Asia	Japan	"Ishida-bashi Bridge, Riv. Kurose (Kurobe City), Toyama"	36.8625		137.4213889														18.8	15.6	7.6	10	16			5			Brown_Light																			2022/11/25	2022/11/25
PRA000123	SAA009247	ST015				Toyama_w1_2020	Water	"River water"	2020	10	15	2020-10-15T09:23			Cloudy	Asia	Japan	"Daimon-ohashi Bridge, Riv. Sho (Imizu City), Toyama"	36.735		137.0436111														18.2	17.9	7.6	9.3	8.3			<1			Clear																			2022/11/25	2022/11/25
PRA000123	SAA009067	ST015				Ishikawa_w1_2020	Water	"River water"	2020	11	6	2020-11-06T09:37			Cloudy	Asia	Japan	"Mouth of Riv. Sai (Kanazawa City), Ishikawa"	36.60027778		136.5888889														17.1	12.8	7	9.2	220			4			"Yellow green"																			2022/11/25	2022/11/25
PRA000123	SAA009068	ST015				Fukui_w1_2020	Water	"River water"	2020	10	22	2020-10-22T10:00			Cloudy	Asia	Japan	"Mishima-bashi Bridge, Riv. Shono (Tsuruga City), Fukui"	35.6475		136.0627778														19.5	17	7.4	9.7	8.5			<1			Clear																			2022/11/25	2022/11/25
PRA000123	SAA009248	ST015				Fukui_w4_2020	Water	"River water"	2020	10	22	2020-10-22T09:35			Cloudy	Asia	Japan	"End of Riv. Umawatari (Fukui City), Fukui"	36.09805556		136.2019444														22	22	7.5	2.8	91			28			Purple_Light																			2022/11/25	2022/11/25
PRA000123	SAA009069	ST015				Nagano_w2_2020	Water	"Lake water"	2020	10	19	2020-10-19T10:16			Cloudy	Asia	Japan	"Center of Lake Suwa, Nagano"	36.05		138.0861111														11.4	14.1	7.8	9.5	13			10		0.9	"Light yellow green"																			2022/11/25	2022/11/25
PRA000123	SAA009249	ST015				Nagano_w4_2020	Water	"River water"	2020	11	6	2020-11-06T10:30			Cloudy	Asia	Japan	"Manzai Ohashi Shita, Riv. Achi (Iida City), Nagano"	35.42305556		137.8127778														10	8.2	7.3	11	5.9			<1			Clear																			2022/11/25	2022/11/25
PRA000123	SAA009070	ST014				Shizuoka_w2_2020	Water	"Sea water"	2020	10	22	2020-10-22T10:25			Cloudy	Asia	Japan	"Shimizu Port, Shizuoka"	35.02416667		138.5161111														21.3	20.1	7.3	7.7	4600			4		3	Clear																			2022/11/25	2022/11/25
PRA000123	SAA009071	ST015				Shizuoka_w7_2020	Water	"River water"	2020	11	12	2020-11-12T11:00			Fair	Asia	Japan	"Kaketsuka-bashi Bridge, Riv. Tenryu (Iwata City), Shizuoka"	34.67888889		137.7958333														21.7	13.5	8.2	11	14			4			"Pale white"																			2022/11/25	2022/11/25
PRA000123	SAA009073	ST014				Aichi_w2-1_2020	Water	"Sea water"	2020	11	10	2020-11-10T13:38			Fair	Asia	Japan	"Nagoya Port, West of Shiomi Wharf, Aichi"	35.07111111		136.8691667														14.4	20	7.9	6.8	4500			2		2.5	Clear																			2022/11/25	2022/12/13
PRA000123	SAA009075	ST015				NagoyaCity_w1_2020	Water	"River water"	2020	10	29	2020-10-29T09:50			Fair	Asia	Japan	"Minatoshinbashi Bridge, Riv. Hori (Nagoya City), Aichi"	35.09805556		136.8925														19	21.8	7.2	2.3				3		2.1	Brown																			2022/11/25	2022/11/25
PRA000123	SAA009076	ST014				NagoyaCity_w3_2020	Water	"Sea water"	2020	10	29	2020-10-29T12:00			Fair	Asia	Japan	"Nagoya Port, South of Shiomi Wharf, Aichi"	35.04944444		136.8661111														19.8	22.7	8	4.5				5		2.3	"Greenish brown"																			2022/11/25	2022/11/25
PRA000123	SAA009077	ST014				Mie_w1_2020	Water	"Sea water"	2020	10	28	2020-10-28T10:15			Cloudy	Asia	Japan	"Yokkaichi Port, Mie"	34.94944444		136.6530556														18.1	18.5	8.6	12.4	3800			5		1.5	"Greenish brown"																			2022/11/25	2022/11/25
PRA000123	SAA009078	ST014				Mie_w2_2020	Water	"Sea water"	2020	10	20	2020-10-20T10:55			Fair	Asia	Japan	"Toba Port, Mie"	34.48083333		136.8486111														20.1	21.7	8.2	6.7	4,430			3		2	"Yellow green"																			2022/11/25	2022/11/25
PRA000123	SAA009250	ST015				Shiga_w1-2_2020	Water	"Lake water"	2020	10	28	2020-10-28T09:20			Cloudy	Asia	Japan	"Lake Biwa (center, offshore of Minamihira), Shiga"	35.18527778		135.9733333														17	18.2	8.1	9.9	12			2		3.4	Green																			2022/11/25	2022/11/25
PRA000123	SAA009251	ST015				Shiga_w2-2_2020	Water	"Lake water"	2020	10	28	2020-10-28T11:40			Cloudy	Asia	Japan	"Lake Biwa (center, offshore of Karasaki), Shiga"	35.04611111		135.8955556														17.9	18	8.1	9.9	12			1		3	Green																			2022/11/25	2022/11/25
PRA000123	SAA009081	ST015				KyotoCity_w1_2020	Water	"River water"	2020	10	28	2020-10-28T10:00			Cloudy	Asia	Japan	"Miyamae-bashi Bridge, Riv. Katsura (Kyoto City), Kyoto"	34.905		135.7125														17.5	18.5	7.4	9.1	19			1			Clear																			2022/11/25	2022/11/25
PRA000123	SAA009082	ST015				Osaka_w1_2020	Water	"River water"	2020	11	25	2020-11-25T09:00			Fair	Asia	Japan	"Mouth of Riv. Yamato (Sakai City), Osaka"	34.60833333		135.4325														13.7	15.7	7.7	7.7				2		1.3	"Light yellow"																			2022/11/25	2022/11/25
PRA000123	SAA009083	ST015				OsakaCity_w1_2020	Water	"River water"	2020	10	28	2020-10-28T10:28			Fair	Asia	Japan	"Kema-bashi Bridge, Riv. Oh-kawa (Osaka City), Osaka"	34.72		135.5186111														18.6	17.7	7.5	9.3	14			5			"Light grayish yellow"																			2022/11/25	2022/11/25
PRA000123	SAA009084	ST014				OsakaCity_w2_2020	Water	"Sea water"	2020	10	27	2020-10-27T08:06			Fair	Asia	Japan	"Osaka Port, Osaka"	34.65861111		135.4313889														17	19	7.6	6	1900			2		2.7	"Light grayish yellow"																			2022/11/25	2022/11/25
PRA000123	SAA009086	ST014				Hyogo_w3_2020	Water	"Sea water"	2020	10	28	2020-10-28T10:30			Fair	Asia	Japan	"Offshore of Himeji, Hyogo"	34.76194444		134.6697222														19.7	21.6	8.1	7.1	4400			4		4	"Greenish blue"																			2022/11/25	2022/11/25
PRA000123	SAA009252	ST015				Hyogo_w10_2020	Water	"River water"	2020	10	27	2020-10-27T11:02			Fair	Asia	Japan	"Koakamatsu-bashi Bridge, Riv. Chikusa (Sayo Town), Hyogo"	34.94638889		134.3436111														19	16.2	8.1	10.2	12			1			Clear																			2022/11/25	2022/11/25
PRA000123	SAA009088	ST014				Kobe_w1_2020	Water	"Sea water"	2020	11	17	2020-11-17T09:50			Fair	Asia	Japan	"Center of Kobe Port, Hyogo"	34.66444444		135.1944444														19	18.5	7.8	7.3				1		5.7	"Greenish brown"																			2022/11/25	2022/11/25
PRA000123	SAA009089	ST015				Nara_w1_2020	Water	"River water"	2020	10	21	2020-10-21T10:22			Fair	Asia	Japan	"Taisho-bashi Bridge, Riv. Yamato (Oji town), Nara"	34.58583333		135.6833333														18.5	18.8	7.6	8.2	29			10			"Light yellowish green"																			2022/11/25	2022/11/25
PRA000123	SAA009090	ST015				Wakayama_w1_2020	Water	"River water"	2020	11	6	2020-11-06T14:15			Fair	Asia	Japan	"Kinokawa-ohashi Bridge, Mouth of Riv. Kinokawa (Wakayama City), Wakayama"	34.23		135.1561111														20.5	20	7.3	9	1800			3		2	"Greenish yellow"																			2022/11/25	2022/11/25
PRA000123	SAA009091	ST015				Wakayama_w9_2020	Water	"River water"	2020	11	5	2020-11-05T11:00			Fair	Asia	Japan	"Noguchi-bashi Bridge, Riv. Hidaka (Gobou City), Wakayama"	33.90388889		135.1761111														17.3	17.2	7	10	6.9			3			"Light green"																			2022/11/25	2022/11/25
PRA000123	SAA009092	ST015				Okayama_w1_2020	Water	"River water"	2020	11	10	2020-11-10T09:45			Cloudy	Asia	Japan	"Sasagase-bashi Bridge, Riv. Sasagase (Okayama City), Okayama"	34.61916667		133.9061111														11	14.5	7.5	7.8	28			6			"Dark yellow green"																			2022/11/25	2022/11/25
PRA000123	SAA009093	ST014				Okayama_w2_2020	Water	"Sea water"	2020	10	26	2020-10-26T10:23			Fair	Asia	Japan	"Offshore of Mizushima, Okayama"	34.48055556		133.665														22.5	21.2	8.1	7.8	4300			<5		3	"Dark yellow green"																			2022/11/25	2022/11/25
PRA000123	SAA009094	ST014				Yamaguchi_w1-1_2020	Water	"Sea water"	2020	11	18	2020-11-18T10:26			Fair	Asia	Japan	"Tokuyama Bay, Yamaguchi"	33.99361111		131.7505556														21.6	20	8.1	7.7				1		6.5	"Bluish green"																			2022/11/25	2022/11/25
PRA000123	SAA009095	ST014				Yamaguchi_w1-2_2020	Water	"Sea water"	2020	10	26	2020-10-26T10:30			Fair	Asia	Japan	"Tokuyama Bay, Yamaguchi"	33.99361111		131.7505556														23	23	8.2	6.7				3		4.5	"Bluish green"																			2022/11/25	2022/11/25
PRA000123	SAA009096	ST014				Yamaguchi_w2-1_2020	Water	"Sea water"	2020	11	25	2020-11-25T10:45			Cloudy	Asia	Japan	"Offshore of Hagi, Yamaguchi"	34.43805556		131.3794444														14.5	19	8.2	7.5				1		15	"Bluish green"																			2022/11/25	2022/11/25
PRA000123	SAA009097	ST014				Yamaguchi_w2-2_2020	Water	"Sea water"	2020	11	13	2020-11-13T11:15			Fair	Asia	Japan	"Offshore of Hagi, Yamaguchi"	34.43805556		131.3794444														19	20	8.2	7.5				5		15	"Bluish green"																			2022/11/25	2022/11/25
PRA000123	SAA009253	ST015				Tokushima_w4_2020	Water	"River water"	2020	11	13	2020-11-13T09:25			Rain	Asia	Japan	"Kagasuno-bashi Bridge, Riv. Imagire (Tokushima City, Matsushige Town), Tokushima"	34.13055556		134.5769444														12.5	15.9	7.9	8.2	2,300			4			"Grayish green"																			2022/11/25	2022/11/25
PRA000123	SAA009099	ST014				Ehime_w2_2020	Water	"Sea water"	2020	10	27	2020-10-27T10:55			Fair	Asia	Japan	"Sawazu Fishing Port, Ehime"	33.98388889		133.2911111														21.6	22.1	8	7.4	4300			3		5	"Light yellow green"																			2022/11/25	2022/11/25
PRA000123	SAA009100	ST015				Ehime_w3_2020	Water	"River water"	2020	10	29	2020-10-29T11:45			Fair	Asia	Japan	"Mishima, Riv. Iwamatsu, Uwajima Ciy, Ehime"	33.12777778		132.5355556														23.8	21	7.4	10.9	9.5			<1			Clear																			2022/11/25	2022/11/25
PRA000123	SAA009101	ST015				Fukuoka_w1_2020	Water	"River water"	2020	10	28	2020-10-28T13:30			Cloudy	Asia	Japan	"Kabura-bashi Bridge, Riv. Raizan (Itoshima City), Fukuoka"	33.565		130.1902778														18.5	18.3	7.4	8	27			17			"Light yellowish brown"																			2022/11/25	2022/11/25
PRA000123	SAA009102	ST014				Fukuoka_w2_2020	Water	"Sea water"	2020	10	19	2020-10-19T10:40			Cloudy	Asia	Japan	"Offshore of Omuta, Fukuoka"	33.03472222		130.4113889														21.7	21.4	7.9	6.7	4700			7		1.8	"Light greenish brown"																			2022/11/25	2022/11/25
PRA000123	SAA009103	ST014				KitakyushuCity_w1_2020	Water	"Sea water"	2020	11	18	2020-11-18T09:15			Fair	Asia	Japan	"Dokai Bay (Kitakyushu City), Fukuoka"	33.90388889		130.8158333														19	18	8.1	7.8	4600			<1		3.5	Clear																			2022/11/25	2022/11/25
PRA000123	SAA009104	ST014				FukuokaCity_w1_2020	Water	"Sea water"	2020	10	20	2020-10-20T08:47			Fair	Asia	Japan	"Hakata Bay, Fukuoka"	33.60833333		130.3297222														19.5	21.5	8	6.8	4600			3		1.9	"Dark green"																			2022/11/25	2022/11/25
PRA000123	SAA009105	ST014				Saga_w1_2020	Water	"Sea water"	2020	10	28	2020-10-28T10:23			Cloudy	Asia	Japan	"Imari Bay, Saga"	33.34		129.8208333														15	22	8.4	5.1	4300			14		3.3	Clear																			2022/11/25	2022/11/25
PRA000123	SAA009254	ST014				Kumamoto_w5_2020	Water	"Sea water"	2021	2	12	2021-02-12T09:26			Cloudy	Asia	Japan	"Offshore of Hachiman residue pool, Yatsushiro Sea, Kumamoto"	32.22305556		130.3894444														10.4	12.9	8.4	8.3	5,100			3		"6.8 (the bottom ）"	"Bluish green_Light"																			2022/11/25	2022/11/25
PRA000123	SAA009255	ST014				Kumamoto_w6_2020	Water	"Sea water"	2021	2	12	2021-02-12T09:40			Cloudy	Asia	Japan	"Umedo port, Yatsushiro Sea, Kumamoto"	32.20981		130.381761														11.2	13.1	8.4	8.5	5,000			3		11.8	"Greenish blue_Light"																			2022/11/25	2022/11/25
PRA000123	SAA009106	ST015				Oita_w2_2020	Water	"River water"	2020	10	26	2020-10-26T10:20			Fair	Asia	Japan	"Mouth of Riv. Oita, Oita"	33.25722222		131.6175														19.9	18.6	7.7	8	1500			2			"Grayish green"																			2022/11/25	2022/11/25
PRA000123	SAA009256	ST015				Okinawa_w2_2020	Water	"River water"	2020	10	16	2020-10-16T12:30			Fair	Asia	Japan	"Ryuto-bashi Bridge, Riv. Ngado (Haebaru Town), Okinawa"	26.190184		127.707745														30.6	30.3	7.5	4.4	3,100			82			"Grayish brown_Light"																			2022/11/25	2022/11/25
PRA000123	SAA009110	ST014				Okinawa_w1_2020	Water	"Sea water"	2020	10	14	2020-10-14T11:20			Fair	Asia	Japan	"Naha Port, Okinawa"	26.21222222		127.665														27.3	27.3	7.6	6.3	4500			10		1.2	Clear																			2022/11/25	2022/11/25
PRA000124	SAA009350	ST013				A-water1	Water	"Brackish water"	2014	9						Aisa	India	"Kosasthalaiyar River, Chennai"	13.225		80.3157																7.07			29.7																							"Collected during wet seasons, but no rain before and during the sampling days."	2023/1/16	2023/1/16
PRA000124	SAA009351	ST013				A-water2	Water	"Brackish water"	2014	9						Aisa	India	"Kosasthalaiyar River, Chennai"	13.234		80.3161																7.78			28.9																							"Collected during wet seasons, but no rain before and during the sampling days."	2023/1/16	2023/1/16
PRA000124	SAA009352	ST013				A-water3	Water	"Brackish water"	2014	9						Aisa	India	"Kosasthalaiyar River, Chennai"	13.231		80.3199																7.3			32.2																							"Collected during wet seasons, but no rain before and during the sampling days."	2023/1/16	2023/1/16
PRA000124	SAA009353	ST013				B-water1	Water	"Brackish water"	2014	9						Aisa	India	"Adyar River, Chennai"	13.0116		80.259																7.9			31.5																							"Collected during wet seasons, but no rain before and during the sampling days."	2023/1/16	2023/1/16
PRA000124	SAA009354	ST013				B-water2	Water	"Brackish water"	2014	9						Aisa	India	"Adyar River, Chennai"	13.0233		80.2748																7.7			30																							"Collected during wet seasons, but no rain before and during the sampling days."	2023/1/16	2023/1/16
PRA000124	SAA009355	ST013				B-water3	Water	"Brackish water"	2014	9						Aisa	India	"Adyar River, Chennai"	13.0135		80.2767																8.25			30.5																							"Collected during wet seasons, but no rain before and during the sampling days."	2023/1/16	2023/1/16
PRA000124	SAA009356	ST013				C-water1	Water	"Brackish water"	2014	9						Aisa	India	"Muttukadu Backwaters, Chennai"	12.8031		80.248																8.17			35.1																							"Collected during wet seasons, but no rain before and during the sampling days."	2023/1/16	2023/1/16
PRA000124	SAA009357	ST013				C-water2	Water	"Brackish water"	2014	9						Aisa	India	"Muttukadu Backwaters, Chennai"	12.8053		80.2431																8.02			32.8																							"Collected during wet seasons, but no rain before and during the sampling days."	2023/1/16	2023/1/16
PRA000124	SAA009358	ST013				C-water3	Water	"Brackish water"	2014	9						Aisa	India	"Muttukadu Backwaters, Chennai"	12.8093		80.2453																8.68			32.8																							"Collected during wet seasons, but no rain before and during the sampling days."	2023/1/16	2023/1/16
PRA000124	SAA009359	ST013				C-water4	Water	"Brackish water"	2014	9						Aisa	India	"Muttukadu Backwaters, Chennai"	12.8099		80.2452																8.7			34.2																							"Collected during wet seasons, but no rain before and during the sampling days."	2023/1/16	2023/1/16
PRA000124	SAA009360	ST013				C-water5	Water	"Brackish water"	2014	9						Aisa	India	"Muttukadu Backwaters, Chennai"	12.8113		80.2463																7.3			31.8																							"Collected during wet seasons, but no rain before and during the sampling days."	2023/1/16	2023/1/16
PRA000124	SAA009361	ST015				D-water1	Water	"River water"	2014	9						Aisa	India	"Vrishabhavathi River, Bengaluru"	12.9455		77.5292																7.26			27																							"Collected during wet seasons, but no rain before and during the sampling days."	2023/1/16	2023/1/16
PRA000124	SAA009362	ST015				D-water2	Water	"River water"	2014	9						Aisa	India	"Vrishabhavathi River, Bengaluru"	12.9347		77.5179																7.16			26.8																							"Collected during wet seasons, but no rain before and during the sampling days."	2023/1/16	2023/1/16
PRA000124	SAA009363	ST015				D-water3	Water	"River water"	2014	9						Aisa	India	"Vrishabhavathi River, Bengaluru"	12.9357		77.5139																7.19			27.2																							"Collected during wet seasons, but no rain before and during the sampling days."	2023/1/16	2023/1/16
PRA000124	SAA009364	ST015				D-water4	Water	"River water"	2014	9						Aisa	India	"Vrishabhavathi River, Bengaluru"	12.9176		77.4913																7.17			26.6																							"Collected during wet seasons, but no rain before and during the sampling days."	2023/1/16	2023/1/16
PRA000124	SAA009365	ST015				D-water5	Water	"River water"	2014	9						Aisa	India	"Vrishabhavathi River, Bengaluru"	12.8729		77.4487																7.17			26																							"Collected during wet seasons, but no rain before and during the sampling days."	2023/1/16	2023/1/16
PRA000124	SAA009366	ST015				E-water1	Water	"River/reservoir water"	2014	9						Aisa	India	"Vrishabhavathi Reservoir, Bengaluru"	12.7607		77.4168																7.21			27.2																							"Collected during wet seasons, but no rain before and during the sampling days."	2023/1/16	2023/1/16
PRA000124	SAA009367	ST015				E-water1'	Water	"River/reservoir water"	2014	9						Aisa	India	"Vrishabhavathi Reservoir, Bengaluru"	12.7607		77.4168																7.03			26.8																							"Collected during wet seasons, but no rain before and during the sampling days."	2023/1/16	2023/1/16
PRA000124	SAA009368	ST015				F-water	Water	"Lake water"	2014	9						Aisa	India	"Gopahalli Lake, Bengaluru"	12.7281		77.416																8.37			26.5																							"Collected during wet seasons, but no rain before and during the sampling days."	2023/1/16	2023/1/16
PRA000124	SAA009369	ST015				D-water6	Water	"River water"	2015	9						Aisa	India	"Vrishabhavathi River, Bengaluru"	12.945		77.5339																7.13		86.1	29.6																							"Collected during wet seasons, but no rain before and during the sampling days."	2023/1/16	2023/1/16
PRA000124	SAA009370	ST015				D-water7	Water	"River water"	2015	9						Aisa	India	"Vrishabhavathi River, Bengaluru"	12.9454		77.5287																7.37		86.8	30																							"Collected during wet seasons, but no rain before and during the sampling days."	2023/1/16	2023/1/16
PRA000124	SAA009371	ST015				D-water8	Water	"River water"	2015	9						Aisa	India	"Vrishabhavathi River, Bengaluru"	12.9348		77.5179																7.39		92.8	29.5																							"Collected during wet seasons, but no rain before and during the sampling days."	2023/1/16	2023/1/16
PRA000124	SAA009372	ST015				D-water9	Water	"River water"	2015	9						Aisa	India	"Vrishabhavathi River, Bengaluru"	12.9354		77.5139																7.44		126.3	30.1																							"Collected during wet seasons, but no rain before and during the sampling days."	2023/1/16	2023/1/16
PRA000124	SAA009373	ST015				D-water10	Water	"River water"	2015	9						Aisa	India	"Vrishabhavathi River, Bengaluru"	12.9176		77.4913																7.59		106	29.4																							"Collected during wet seasons, but no rain before and during the sampling days."	2023/1/16	2023/1/16
PRA000124	SAA009374	ST015				E-water2	Water	"River/reservoir water"	2015	9						Aisa	India	"Vrishabhavathi Reservoir, Bengaluru"	12.7604		77.417																7.28		114.6	32																							"Collected during wet seasons, but no rain before and during the sampling days."	2023/1/16	2023/1/16
PRA000124	SAA009375	ST015				E-water2'	Water	"River/reservoir water"	2015	9						Aisa	India	"Vrishabhavathi Reservoir, Bengaluru"	12.7604		77.417																7.68		111.6	31.9																							"Collected during wet seasons, but no rain before and during the sampling days."	2023/1/16	2023/1/16
PRA000124	SAA009376	ST015				G-water1	Water	"Lake/pond/river water"	2015	9						Aisa	India	"Varthur Kere, Bengaluru"	12.9453		77.7469																7.51		99.6	27.9																							"Collected during wet seasons, but no rain before and during the sampling days."	2023/1/16	2023/1/16
PRA000124	SAA009377	ST015				G-water2	Water	"Lake/pond/river water"	2015	9						Aisa	India	"Varthur Kere, Bengaluru"	12.945		77.7473																7.54		98.1	27.5																							"Collected during wet seasons, but no rain before and during the sampling days."	2023/1/16	2023/1/16
PRA000124	SAA009378	ST015				G-water3	Water	"Lake/pond/river water"	2015	9						Aisa	India	"Varthur Kere, Bengaluru"	12.9409		77.6874																7.4		95.4	27.5																							"Collected during wet seasons, but no rain before and during the sampling days."	2023/1/16	2023/1/16
PRA000124	SAA009379	ST015				G-water4	Water	"Lake/pond/river water"	2015	9						Aisa	India	"Varthur Kere, Bengaluru"	12.946		77.6982																7.4		94.7	27.5																							"Collected during wet seasons, but no rain before and during the sampling days."	2023/1/16	2023/1/16
PRA000124	SAA009380	ST015				G-water5	Water	"Lake/pond/river water"	2015	9						Aisa	India	"Varthur Kere, Bengaluru"	12.9565		77.745																7.75		101	31.6																							"Collected during wet seasons, but no rain before and during the sampling days."	2023/1/16	2023/1/16
PRA000124	SAA009381	ST015				H-water	Water	"Lake/pond water"	2015	9						Aisa	India	"Ulsoor Lake, Bengaluru"	12.9847		77.6218																8.47		36.8	27.3																							"Collected during wet seasons, but no rain before and during the sampling days."	2023/1/16	2023/1/16
PRA000124	SAA009382	ST015				I-water	Water	"Lake/pond water"	2015	1						Aisa	Indoneasia	"Danau Sunter Lake, Jakarta"	-6.1456		106.8812																8.53		421	29.7																							"Collected during wet seasons, but no rain before and during the sampling days."	2023/1/16	2023/1/16
PRA000124	SAA009383	ST015				J-water	Water	"Lake/pond water"	2015	1						Aisa	Indoneasia	"Kemayoran Golf Lake, Jakarta"	-6.1375		106.8494																7.03		366	30.3																							"Collected during wet seasons, but no rain before and during the sampling days."	2023/1/16	2023/1/16
PRA000124	SAA009384	ST015				M-water1	Water	"Lake/pond water"	2015	1						Aisa	Indoneasia	"Setu Gintung Lake, Tangerang"	-6.3067		106.7639																7.44		17.8	29.6																							"Collected during wet seasons, but no rain before and during the sampling days."	2023/1/16	2023/1/16
PRA000124	SAA009385	ST015				M-water2	Water	"Lake/pond water"	2015	1						Aisa	Indoneasia	"Setu Gintung Lake, Tangerang"	-6.3023		106.7647																7.46		17.8	30.2																							"Collected during wet seasons, but no rain before and during the sampling days."	2023/1/16	2023/1/16
PRA000124	SAA009386	ST015				N-water	Water	"Lake/pond water"	2015	1						Aisa	Indoneasia	"Situ Rawa Cipondoh, Tangerang"	-6.1948		106.6716																7.53		28.2	30																							"Collected during wet seasons, but no rain before and during the sampling days."	2023/1/16	2023/1/16
PRA000124	SAA009387	ST015				O-water1	Water	"Stream water"	2015	1						Aisa	Indoneasia	"Kali Petukangan (PIZ), Jakarta"	-6.1894		106.9168																5.22		82.2	28.4																							"Collected during wet seasons, but no rain before and during the sampling days."	2023/1/16	2023/1/16
PRA000124	SAA009388	ST015				O-water2	Water	"Stream water"	2015	1						Aisa	Indoneasia	"Kali Petukangan (PIZ), Jakarta"	-6.1909		106.917																6.75		97.7	28.2																							"Collected during wet seasons, but no rain before and during the sampling days."	2023/1/16	2023/1/16
PRA000124	SAA009389	ST015				O-water3	Water	"Stream water"	2015	1						Aisa	Indoneasia	"Kali Petukangan (PIZ), Jakarta"	-6.1985		106.9172																7.29		57.8	28.7																							"Collected during wet seasons, but no rain before and during the sampling days."	2023/1/16	2023/1/16
PRA000124	SAA009390	ST015				O-water4	Water	"Stream water"	2015	1						Aisa	Indoneasia	"Kali Petukangan (PIZ), Jakarta"	-6.1866		106.9239																7.02		86.6	30.2																							"Collected during wet seasons, but no rain before and during the sampling days."	2023/1/16	2023/1/16
PRA000124	SAA009391	ST015				P-water1	Water	"River water"	2015	1						Aisa	Indoneasia	"Sunter River (downstream of PIZ), Jakarta"	-6.1934		106.9017																7.1		71.4	26.9																							"Collected during wet seasons, but no rain before and during the sampling days."	2023/1/16	2023/1/16
PRA000124	SAA009392	ST015				P-water2	Water	"River water"	2015	1						Aisa	Indoneasia	"Sunter River (downstream of PIZ), Jakarta"	-6.1837		106.9046																7.14		85.4	28.3																							"Collected during wet seasons, but no rain before and during the sampling days."	2023/1/16	2023/1/16
PRA000124	SAA009393	ST015				Q-water1	Water	"River water"	2015	1						Aisa	Indoneasia	"Cakung Drain (downstream of PIZ), Jakarta"	-6.1831		106.9289																6.85		93.4	28.6																							"Collected during wet seasons, but no rain before and during the sampling days."	2023/1/16	2023/1/16
PRA000124	SAA009394	ST015				Q-water2	Water	"River water"	2015	1						Aisa	Indoneasia	"Cakung Drain (downstream of PIZ), Jakarta"	-6.1587		106.9354																6.62		105.5	31																							"Collected during wet seasons, but no rain before and during the sampling days."	2023/1/16	2023/1/16
PRA000124	SAA009395	ST015				Q-water3	Water	"River water"	2015	1						Aisa	Indoneasia	"Cakung Drain (downstream of PIZ), Jakarta"	-6.1531		106.9384																6.64		109.8	30.7																							"Collected during wet seasons, but no rain before and during the sampling days."	2023/1/16	2023/1/16
PRA000124	SAA009396	ST015				Q-water4	Water	"River water"	2015	1						Aisa	Indoneasia	"Cakung Drain (downstream of PIZ), Jakarta"	-6.0979		106.9397																6.49		214	30.3																							"Collected during wet seasons, but no rain before and during the sampling days."	2023/1/16	2023/1/16
PRA000124	SAA009397	ST015				R-water1	Water	"Lake water"	2015	9						Aisa	Vietnam	"Yen So Lake, Hanoi"	20.9746		105.8651																7.37		52.4	30.4																							"Collected during wet seasons, but no rain before and during the sampling days."	2023/1/16	2023/1/16
PRA000124	SAA009398	ST015				R-water2	Water	"Lake water"	2015	9						Aisa	Vietnam	"Yen So Lake, Hanoi"	20.9717		105.8621																7.86		53.3	31																							"Collected during wet seasons, but no rain before and during the sampling days."	2023/1/16	2023/1/16
PRA000124	SAA009399	ST015				R-water3	Water	"Lake water"	2015	9						Aisa	Vietnam	"Yen So Lake, Hanoi"	20.9694		105.8588																8.28		48.1	32																							"Collected during wet seasons, but no rain before and during the sampling days."	2023/1/16	2023/1/16
PRA000124	SAA009400	ST015				R-water4	Water	"Lake water"	2015	9						Aisa	Vietnam	"Yen So Lake, Hanoi"	20.9646		105.8516																8.96		39.2	33.2																							"Collected during wet seasons, but no rain before and during the sampling days."	2023/1/16	2023/1/16
PRA000124	SAA009401	ST015				S-water1	Water	"River water"	2015	9						Aisa	Vietnam	"Da River, Hoa Binh"	20.8222		105.3378																7.74		17.5	27.8																							"Chosen as the control (unpoluted) site.; Collected during wet seasons, but no rain before and during the sampling days."	2023/1/16	2023/1/16
PRA000124	SAA009402	ST015				S-water2	Water	"River water"	2015	9						Aisa	Vietnam	"Da River, Hoa Binh"	20.8278		105.35																7.3		17.1	27.2																							"Chosen as the control (unpoluted) site.; Collected during wet seasons, but no rain before and during the sampling days."	2023/1/16	2023/1/16
PRA000124	SAA009403	ST015				S-water3	Water	"River water"	2015	9						Aisa	Vietnam	"Da River, Hoa Binh"	20.8524		105.3455																7.9		17.3	27.1																							"Chosen as the control (unpoluted) site.; Collected during wet seasons, but no rain before and during the sampling days."	2023/1/16	2023/1/16
PRA000125	SAA009044	ST015				Hokkaido_w3_2020	Water	"River water"	2020	11	24	2020-11-24T11:40			Cloudy	Asia	Japan	"Ishikarikakokyo Bridge, Mouth of Riv. Ishikari (Ishikari City), Hokkaido"	43.22861111		141.3519444														2.6	4.8	7.6	10.4	14			68			"Grayish brown"																			2023/1/26	2023/1/26
PRA000125	SAA009047	ST015				Iwate_w1-1_2020	Water	"River water"	2020	11	4	2020-11-04T10:22			Cloudy	Asia	Japan	"Toyosawa-bashi Bridge, Riv. Toyosawa (Hanamaki City), Iwate"	39.38166667		141.1191667														8	10	7.3	11	10			<1			"Light green"																			2023/1/26	2023/1/26
PRA000125	SAA009520	ST014				Miyagi_w3_2020	Water	"Sea water"	2020	10	19	2020-10-19T10:12			Cloudy	Asia	Japan	"Sendai Bay (Matsushima Bay), Miyagi"	38.3533333		141.0975														20.2	16.9	7.9	7.6	400			2		1.5	Clear																			2023/1/26	2023/1/26
PRA000125	SAA009521	ST015				Akita_w3_2020	Water	"Lake water"	2020	9	29	2020-09-29T10:00			Fair	Asia	Japan	"Lake Hachiro, Akita"	39.92277778		139.9988889														21.9	20.3	9.2	9.2	20			18		0.5	"Greenish brown_Light"																			2023/1/26	2023/1/26
PRA000125	SAA009522	ST015				Yamagata_w1_2020	Water	"River water"	2020	10	9	2020-10-09T09:15			Fair	Asia	Japan	"Mouth of Riv. Mogami, Yamagata"	38.88722222		139.8433333														17	15	7.5	9.8	14			5			"Light yellow green"																			2023/1/26	2023/1/26
PRA000125	SAA009523	ST014				Fukushima_w1_2020	Water	"Sea water"	2020	10	16	2020-10-16T10:20			Cloudy	Asia	Japan	"Onahama Port, Fukushima"	36.92472222		140.8752778														16	19	8.1	7.3	4600			2		2.6	Clear																			2023/1/26	2023/1/26
PRA000125	SAA009053	ST015				Ibaraki_w2_2020	Water	"River water"	2020	11	12	2020-11-12T10:10			Cloudy	Asia	Japan	"Kamome-ohasi Bridge, Mouth of Riv. Tone (Kamisu City), Ibaraki"	35.77638889		140.7569444														14	15	7.9	8.5	1500			6		1.4	"Light yellow"																			2023/1/26	2023/1/26
PRA000125	SAA009054	ST015				Tochigi_w1-1_2020	Water	"River water"	2020	10	27	2020-10-27T10:20			Fair	Asia	Japan	"Tagawa area-Toshuko Weir (Utsunomiya City), Tochigi"	36.52805556		139.8855556														17.3	16	8.3	11	19			4			Clear																			2023/1/26	2023/1/26
PRA000125	SAA009524	ST015				Gunma_w8_2020	Water	"River water"	2020	9	18	2020-09-18T11:15			Fair	Asia	Japan	"Upstream of Tone-Ozeki, Riv. Tone (Chiyoda machi), Gunma"	36.20611111		139.4341667														31	27.3	7.5	8.9	27			40			"Light brown"																			2023/1/26	2023/1/26
PRA000125	SAA009057	ST015				Saitama_w2_2020	Water	"River water"	2020	11	4	2020-11-04T10:30			Fair	Asia	Japan	"Akigase-Shusuizeki Weir, Riv. Ara (Shiki City), Saitama"	35.84055556		139.6044444														15.1	14.4	7.9	9.7	25			3			"Light yellow green"																			2023/1/26	2023/1/26
PRA000125	SAA009525	ST015				ChibaCity_w1_2020	Water	"River water"	2020	11	10	2020-11-10T10:50			Fair	Asia	Japan	"Mouth of Riv. Hanami (Chiba City), Chiba"	35.63472222		140.0469444														13.5	17.5	7.7	6.9	3600			7			Clear																			2023/1/26	2023/1/26
PRA000125	SAA009061	ST015				Tokyo_w1_2020	Water	"River water"	2020	11	20	2020-11-20T09:50			Cloudy	Asia	Japan	"Mouth of Riv. Arakawa (Koto Ward), Tokyo"	35.64583333		139.8463889														22.8	18.4	7.4	9.2	4300			12		1	"Greenish brown"																			2023/1/26	2023/1/26
PRA000125	SAA009062	ST015				Tokyo_w2_2020	Water	"River water"	2020	11	20	2020-11-20T11:50			Cloudy	Asia	Japan	"Mouth of Riv. Sumida (Minato Ward), Tokyo"	35.66		139.7705556														22.5	19.2	7.5	8	4200			4		4.1	"Dark green"																			2023/1/26	2023/1/26
PRA000125	SAA009064	ST014				YokohamaCity_w3_2020	Water	"Sea water"	2020	11	18	2020-11-18T10:18			Fair	Asia	Japan	"Yokohama Port, Kanagawa"	35.45555556		139.6636111														15.5	19	8.3	8	4500			3		5	Clear																			2023/1/26	2023/1/26
PRA000125	SAA009066	ST015				Niigata_w2_2020	Water	"River water"	2020	11	19	2020-11-19T09:30			Fair	Asia	Japan	"Downstream of Riv. Shinano (Niigata City), Niigata"	37.88305556		139.0155556														17.2	11.5	7.4	10	13			13			"Light yellow"																			2023/1/26	2023/1/26
PRA000125	SAA009526	ST015				Toyama_w2_2020	Water	"River water"	2020	10	15	2020-10-15T12:01			Cloudy	Asia	Japan	"Hagiura-bashi Bridge, Mouth of Riv. Jintsu (Toyama City), Toyama"	36.745		137.2180556														18.5	16.3	7.5	8.4	73			2			Clear																			2023/1/26	2023/1/26
PRA000125	SAA009067	ST015				Ishikawa_w1_2020	Water	"River water"	2020	11	6	2020-11-06T09:37			Cloudy	Asia	Japan	"Mouth of Riv. Sai (Kanazawa City), Ishikawa"	36.60027778		136.5888889														17.1	12.8	7	9.2	220			4			"Yellow green"																			2023/1/26	2023/1/26
PRA000125	SAA009068	ST015				Fukui_w1_2020	Water	"River water"	2020	10	22	2020-10-22T10:00			Cloudy	Asia	Japan	"Mishima-bashi Bridge, Riv. Shono (Tsuruga City), Fukui"	35.6475		136.0627778														19.5	17	7.4	9.7	8.5			<1			Clear																			2023/1/26	2023/1/26
PRA000125	SAA009069	ST015				Nagano_w2_2020	Water	"River water"	2020	10	19	2020-10-19T10:16			Cloudy	Asia	Japan	"Center of Lake Suwa, Nagano"	36.05		138.0861111														11.4	14.1	7.8	9.5	13			10		0.9	"Light yellow green"																			2023/1/26	2023/1/26
PRA000125	SAA009071	ST015				Shizuoka_w7_2020	Water	"River water"	2020	11	12	2020-11-12T11:00			Fair	Asia	Japan	"Kaketsuka-bashi Bridge, Riv. Tenryu (Iwata City), Shizuoka"	34.67888889		137.7958333														21.7	13.5	8.2	11	14			4			"Pale white"																			2023/1/26	2023/1/26
PRA000125	SAA009527	ST014				Aichi_w2-2_2020	Water	"Sea water"	2020	11	10	2020-11-10T13:13			Fair	Asia	Japan	"Nagoya Port, West of Shiomi Wharf, Aichi"	35.07111111		136.8691667														14.7	19	8	7.6	4400			4		2.5	Clear																			2023/1/26	2023/1/26
PRA000125	SAA009077	ST014				Mie_w1_2020	Water	"Sea water"	2020	10	28	2020-10-28T10:15			Cloudy	Asia	Japan	"Yokkaichi Port, Mie"	34.94944444		136.6530556														18.1	18.5	8.6	12.4	3800			5		1.5	"Greenish brown"																			2023/1/26	2023/1/26
PRA000125	SAA009251	ST015				Shiga_w2-2_2020	Water	"Lake water"	2020	10	28	2020-10-28T11:40			Cloudy	Asia	Japan	"Lake Biwa (center, offshore of Karasaki), Shiga"	35.04611111		135.8955556														17.9	18	8.1	9.9	12			1		3	Green																			2023/1/26	2023/1/26
PRA000125	SAA009081	ST015				KyotoCity_w1_2020	Water	"River water"	2020	10	28	2020-10-28T10:00			Cloudy	Asia	Japan	"Miyamae-bashi Bridge, Riv. Katsura (Kyoto City), Kyoto"	34.905		135.7125														17.5	18.5	7.4	9.1	19			1			Clear																			2023/1/26	2023/1/26
PRA000125	SAA009082	ST015				Osaka_w1_2020	Water	"River water"	2020	11	25	2020-11-25T09:00			Fair	Asia	Japan	"Mouth of Riv. Yamato (Sakai City), Osaka"	34.60833333		135.4325														13.7	15.7	7.7	7.7				2		1.3	"Light yellow"																			2023/1/26	2023/1/26
PRA000125	SAA009084	ST014				OsakaCity_w2_2020	Water	"Sea water"	2020	10	27	2020-10-27T08:06			Fair	Asia	Japan	"Osaka Port, Osaka"	34.65861111		135.4313889														17	19	7.6	6	1900			2		2.7	"Light grayish yellow"																			2023/1/26	2023/1/26
PRA000125	SAA009086	ST014				Hyogo_w3_2020	Water	"Sea water"	2020	10	28	2020-10-28T10:30			Fair	Asia	Japan	"Offshore of Himeji, Hyogo"	34.76194444		134.6697222														19.7	21.6	8.1	7.1	4400			4		4	"Greenish blue"																			2023/1/26	2023/1/26
PRA000125	SAA009088	ST014				Kobe_w1_2020	Water	"Sea water"	2020	11	17	2020-11-17T09:50			Fair	Asia	Japan	"Center of Kobe Port, Hyogo"	34.66444444		135.1944444														19	18.5	7.8	7.3				1		5.7	"Greenish brown"																			2023/1/26	2023/1/26
PRA000125	SAA009090	ST015				Wakayama_w1_2020	Water	"River water"	2020	11	6	2020-11-06T14:15			Fair	Asia	Japan	"Kinokawa-ohashi Bridge, Mouth of Riv. Kinokawa (Wakayama City), Wakayama"	34.23		135.1561111														20.5	20	7.3	9	1800			3		2	"Greenish yellow"																			2023/1/26	2023/1/26
PRA000125	SAA009093	ST014				Okayama_w2_2020	Water	"Sea water"	2020	10	26	2020-10-26T10:23			Fair	Asia	Japan	"Offshore of Mizushima, Okayama"	34.48055556		133.665														22.5	21.2	8.1	7.8	4300			<5		3	"Dark yellow green"																			2023/1/26	2023/1/26
PRA000125	SAA009528	ST014				Hiroshima_w2_2020	Water	"Sea water"	2020	11	11	2020-11-11T09:53			Fair	Asia	Japan	"Kure Port, Hiroshima"	34.23361111		132.5391667														14.5	19.9	8	7				1		8	"Bluish green_Dark"																			2023/1/26	2023/1/26
PRA000125	SAA009529	ST014				Hiroshima_w3_2020	Water	"Sea water"	2020	11	11	2020-11-11T12:12			Fair	Asia	Japan	"Hiroshima Bay (Hiroshima City), Hiroshima"	34.34833333		132.4225														16	19.6	8	6.8				2		5	"Bluish green_Dark"																			2023/1/26	2023/1/26
PRA000125	SAA009095	ST014				Yamaguchi_w1-2_2020	Water	"Sea water"	2020	10	26	2020-10-26T10:30			Fair	Asia	Japan	"Tokuyama Bay, Yamaguchi"	33.99361111		131.7505556														23	23	8.2	6.7				3		4.5	"Bluish green"																			2023/1/26	2023/1/26
PRA000125	SAA009530	ST014				Yamaguchi_w3_2020	Water	"Sea water"	2020	10	12	2020-10-12T10:15			Fair	Asia	Japan	"Offshore of Ube, Yamaguchi"	33.915		131.1975														26.2	22.5	8.1	7.8				2		5	"Grayish green"																			2023/1/26	2023/1/26
PRA000125	SAA009097	ST014				Yamaguchi_w2-2_2020	Water	"Sea water"	2020	11	13	2020-11-13T11:15			Fair	Asia	Japan	"Offshore of Hagi, Yamaguchi"	34.43805556		131.3794444														19	20	8.2	7.5				5		15	"Bluish green"																			2023/1/26	2023/1/26
PRA000125	SAA009531	ST015				Tokushima_w1_2020	Water	"River water"	2020	10	15	2020-10-15T09:35			Fair	Asia	Japan	"Mouth of Riv. Yoshino (Tokushima City), Tokushima"	34.085		134.5913889														21.2	20.6	7.7	9.8	1500			1		3.5	Green																			2023/1/26	2023/1/26
PRA000125	SAA009098	ST014				Kagawa_w1_2020	Water	"Sea water"	2020	10	27	2020-10-27T09:00			Fair	Asia	Japan	"Takamatsu Port, Kagawa"	34.34972222		134.0788889														17.3	20.6	7.6	5.7				3		1	"Greenish blue"																			2023/1/26	2023/1/26
PRA000125	SAA009532	ST015				Kochi_w2_2020	Water	"River water"	2020	10	2	2020-10-02T08:48			Fair	Asia	Japan	"Mouth of Riv. Shimanto (Shimanto City), Kochi"	32.93777778		132.8441667														23	21	7.6	8.3	290			1.6			Clear																			2023/1/26	2023/1/26
PRA000125	SAA009103	ST014				KitakyushuCity_w1_2020	Water	"Sea water"	2020	11	18	2020-11-18T09:15			Fair	Asia	Japan	"Dokai Bay (Kitakyushu City), Fukuoka"	33.90388889		130.8158333														19	18	8.1	7.8	4600			<1		3.5	Clear																			2023/1/26	2023/1/26
PRA000125	SAA009105	ST014				Saga_w1_2020	Water	"Sea water"	2020	10	28	2020-10-28T10:23			Cloudy	Asia	Japan	"Imari Bay, Saga"	33.34		129.8208333														15	22	8.4	5.1	4300			14		3.3	Clear																			2023/1/26	2023/1/26
PRA000125	SAA009533	ST014				Nagasaki_w1_2020	Water	"Sea water"	2020	10	30	2020-10-30T11:30			Fair	Asia	Japan	"Omura Bay, Nagasaki"	32.98833333		129.8522222														20.1	20	8.2	7.5				<1		5.5	"Greenish blue_Light"																			2023/1/26	2023/1/26
PRA000125	SAA009534	ST015				Kumamoto_w1_2020	Water	"River water"	2020	10	13	2020-10-13T10:30			Fair	Asia	Japan	"Hiraki-bashi Bridge, Riv. Midori (Uto City), Kumamoto"	32.71638889		130.6422222														24.6	21.9	7.9	8.9	420			20			"Light gray"																			2023/1/26	2023/1/26
PRA000125	SAA009535	ST015				Miyazaki_w3_2020	Water	"River water"	2020	10	28	2020-10-28T10:17			Fair	Asia	Japan	"Mouth of Riv. Oyodo (Miyazaki City), Miyazaki"	31.89611111		131.4402778														23	18.5	7.7	9.3	260			2			Clear																			2023/1/26	2023/1/26
PRA000125	SAA009536	ST015				Kagoshima_w1_2020	Water	"River water"	2020	9	29	2020-09-29T13:10			Fair	Asia	Japan	"Shinkawa-bashi Bridge, Riv. Amori (Kirishima City), Kagoshima"	31.7225		130.7416667														25.2	20.2	7.5	8.8				5			Clear																			2023/1/26	2023/1/26
PRA000125	SAA009537	ST015				Kagoshima_w2_2020	Water	"River water"	2020	10	12	2020-10-12T11:42			Fair	Asia	Japan	"Gotanda-bashi Bridge, Riv. Gotanda (Ichikikushikino City), Kagoshima"	31.72583333		130.2769444														25.6	24.6	8.8	11				4			Clear																			2023/1/26	2023/1/26
PRA000125	SAA009110	ST014				Okinawa_w1_2020	Water	"Sea water"	2020	10	14	2020-10-14T11:20			Fair	Asia	Japan	"Naha Port, Okinawa"	26.21222222		127.665														27.3	27.3	7.6	6.3	4500			10		1.2	Clear																			2023/1/26	2023/1/26
